<?xml version="1.0" encoding="UTF-8" standalone="no" ?>
<gpx xmlns="http://www.topografix.com/GPX/1/1" xmlns:xsi="http://www.w3.org/2001/XMLSchema-instance" xsi:schemaLocation="http://www.topografix.com/GPX/1/1 http://www.topografix.com/GPX/1/1/gpx.xsd" version="1.1" creator="VisuGPX - https://www.visugpx.com">
  <metadata>
    <name>Col de Sarenne côté lac de Chambon. D+Réel 1600M</name>
    <desc><![CDATA[D+ réel 1600m car au D+ total il faut soustraire les 671m de dénivelé de la télécabine.
Boucle au départ de Rochataillé, qui permet de monter le col de Sarenne par côté lac de chambon, en évitant la nationale de Briançon.
L\'idée est de monter aux 2 alpes par la télécabine de \"venosc\". Attention bien prendre un support forfait.]]></desc>
  </metadata>
  <trk>
    <name><![CDATA[ROUTE Venosc, 2 Alpes par télécabine de Venosc, col de Sarenne, pas de la confession, Allemond.]]></name>
    <trkseg>
      <trkpt lat="45.11268" lon="6.01787">
        <ele>717.9</ele>
        <time>2026-08-25T07:05:57Z</time>
      </trkpt>
      <trkpt lat="45.11262" lon="6.01793">
        <ele>717.9</ele>
        <time>2026-08-25T07:05:58Z</time>
      </trkpt>
      <trkpt lat="45.11257" lon="6.01799">
        <ele>717.9</ele>
        <time>2026-08-25T07:05:59Z</time>
      </trkpt>
      <trkpt lat="45.11252" lon="6.01806">
        <ele>717.9</ele>
        <time>2026-08-25T07:06:00Z</time>
      </trkpt>
      <trkpt lat="45.11247" lon="6.01811">
        <ele>717.9</ele>
        <time>2026-08-25T07:06:01Z</time>
      </trkpt>
      <trkpt lat="45.11242" lon="6.01817">
        <ele>717.9</ele>
        <time>2026-08-25T07:06:02Z</time>
      </trkpt>
      <trkpt lat="45.11236" lon="6.01822">
        <ele>717.9</ele>
        <time>2026-08-25T07:06:03Z</time>
      </trkpt>
      <trkpt lat="45.1123" lon="6.01827">
        <ele>717.9</ele>
        <time>2026-08-25T07:06:04Z</time>
      </trkpt>
      <trkpt lat="45.11225" lon="6.01832">
        <ele>717.9</ele>
        <time>2026-08-25T07:06:05Z</time>
      </trkpt>
      <trkpt lat="45.11219" lon="6.01838">
        <ele>717.9</ele>
        <time>2026-08-25T07:06:06Z</time>
      </trkpt>
      <trkpt lat="45.11213" lon="6.01843">
        <ele>717.9</ele>
        <time>2026-08-25T07:06:07Z</time>
      </trkpt>
      <trkpt lat="45.11208" lon="6.01848">
        <ele>718</ele>
        <time>2026-08-25T07:06:08Z</time>
      </trkpt>
      <trkpt lat="45.11202" lon="6.01852">
        <ele>718</ele>
        <time>2026-08-25T07:06:09Z</time>
      </trkpt>
      <trkpt lat="45.11196" lon="6.01856">
        <ele>718</ele>
        <time>2026-08-25T07:06:10Z</time>
      </trkpt>
      <trkpt lat="45.1119" lon="6.0186">
        <ele>718.1</ele>
        <time>2026-08-25T07:06:11Z</time>
      </trkpt>
      <trkpt lat="45.11184" lon="6.01864">
        <ele>718.1</ele>
        <time>2026-08-25T07:06:12Z</time>
      </trkpt>
      <trkpt lat="45.11178" lon="6.01867">
        <ele>718.2</ele>
        <time>2026-08-25T07:06:13Z</time>
      </trkpt>
      <trkpt lat="45.11172" lon="6.01871">
        <ele>718.2</ele>
        <time>2026-08-25T07:06:14Z</time>
      </trkpt>
      <trkpt lat="45.11166" lon="6.01874">
        <ele>718.2</ele>
        <time>2026-08-25T07:06:15Z</time>
      </trkpt>
      <trkpt lat="45.1116" lon="6.01878">
        <ele>718.3</ele>
        <time>2026-08-25T07:06:16Z</time>
      </trkpt>
      <trkpt lat="45.11154" lon="6.01881">
        <ele>718.3</ele>
        <time>2026-08-25T07:06:17Z</time>
      </trkpt>
      <trkpt lat="45.11148" lon="6.01885">
        <ele>718.3</ele>
        <time>2026-08-25T07:06:18Z</time>
      </trkpt>
      <trkpt lat="45.11142" lon="6.01889">
        <ele>718.3</ele>
        <time>2026-08-25T07:06:19Z</time>
      </trkpt>
      <trkpt lat="45.11136" lon="6.01892">
        <ele>718.3</ele>
        <time>2026-08-25T07:06:20Z</time>
      </trkpt>
      <trkpt lat="45.1113" lon="6.01896">
        <ele>718.3</ele>
        <time>2026-08-25T07:06:21Z</time>
      </trkpt>
      <trkpt lat="45.11124" lon="6.01899">
        <ele>718.4</ele>
        <time>2026-08-25T07:06:22Z</time>
      </trkpt>
      <trkpt lat="45.11118" lon="6.01903">
        <ele>718.4</ele>
        <time>2026-08-25T07:06:23Z</time>
      </trkpt>
      <trkpt lat="45.11112" lon="6.01907">
        <ele>718.4</ele>
        <time>2026-08-25T07:06:24Z</time>
      </trkpt>
      <trkpt lat="45.11106" lon="6.0191">
        <ele>718.4</ele>
        <time>2026-08-25T07:06:25Z</time>
      </trkpt>
      <trkpt lat="45.111" lon="6.01914">
        <ele>718.4</ele>
        <time>2026-08-25T07:06:26Z</time>
      </trkpt>
      <trkpt lat="45.11093" lon="6.01918">
        <ele>718.4</ele>
        <time>2026-08-25T07:06:27Z</time>
      </trkpt>
      <trkpt lat="45.11087" lon="6.01921">
        <ele>718.4</ele>
        <time>2026-08-25T07:06:28Z</time>
      </trkpt>
      <trkpt lat="45.11081" lon="6.01924">
        <ele>718.4</ele>
        <time>2026-08-25T07:06:29Z</time>
      </trkpt>
      <trkpt lat="45.11075" lon="6.01928">
        <ele>718.4</ele>
        <time>2026-08-25T07:06:30Z</time>
      </trkpt>
      <trkpt lat="45.11069" lon="6.01931">
        <ele>718.4</ele>
        <time>2026-08-25T07:06:31Z</time>
      </trkpt>
      <trkpt lat="45.11063" lon="6.01934">
        <ele>718.5</ele>
        <time>2026-08-25T07:06:32Z</time>
      </trkpt>
      <trkpt lat="45.11057" lon="6.01937">
        <ele>718.5</ele>
        <time>2026-08-25T07:06:33Z</time>
      </trkpt>
      <trkpt lat="45.11051" lon="6.0194">
        <ele>718.5</ele>
        <time>2026-08-25T07:06:34Z</time>
      </trkpt>
      <trkpt lat="45.11045" lon="6.01943">
        <ele>718.6</ele>
        <time>2026-08-25T07:06:35Z</time>
      </trkpt>
      <trkpt lat="45.11039" lon="6.01946">
        <ele>718.6</ele>
        <time>2026-08-25T07:06:36Z</time>
      </trkpt>
      <trkpt lat="45.11033" lon="6.0195">
        <ele>718.6</ele>
        <time>2026-08-25T07:06:37Z</time>
      </trkpt>
      <trkpt lat="45.11027" lon="6.01953">
        <ele>718.7</ele>
        <time>2026-08-25T07:06:38Z</time>
      </trkpt>
      <trkpt lat="45.11022" lon="6.01957">
        <ele>718.7</ele>
        <time>2026-08-25T07:06:39Z</time>
      </trkpt>
      <trkpt lat="45.11016" lon="6.0196">
        <ele>718.7</ele>
        <time>2026-08-25T07:06:40Z</time>
      </trkpt>
      <trkpt lat="45.1101" lon="6.01964">
        <ele>718.7</ele>
        <time>2026-08-25T07:06:41Z</time>
      </trkpt>
      <trkpt lat="45.11004" lon="6.01968">
        <ele>718.7</ele>
        <time>2026-08-25T07:06:42Z</time>
      </trkpt>
      <trkpt lat="45.10998" lon="6.01971">
        <ele>718.6</ele>
        <time>2026-08-25T07:06:43Z</time>
      </trkpt>
      <trkpt lat="45.10992" lon="6.01975">
        <ele>718.6</ele>
        <time>2026-08-25T07:06:44Z</time>
      </trkpt>
      <trkpt lat="45.10986" lon="6.01978">
        <ele>718.6</ele>
        <time>2026-08-25T07:06:45Z</time>
      </trkpt>
      <trkpt lat="45.1098" lon="6.01982">
        <ele>718.6</ele>
        <time>2026-08-25T07:06:46Z</time>
      </trkpt>
      <trkpt lat="45.10973" lon="6.01986">
        <ele>718.6</ele>
        <time>2026-08-25T07:06:47Z</time>
      </trkpt>
      <trkpt lat="45.10967" lon="6.01989">
        <ele>718.6</ele>
        <time>2026-08-25T07:06:48Z</time>
      </trkpt>
      <trkpt lat="45.10961" lon="6.01992">
        <ele>718.7</ele>
        <time>2026-08-25T07:06:49Z</time>
      </trkpt>
      <trkpt lat="45.10954" lon="6.01996">
        <ele>718.7</ele>
        <time>2026-08-25T07:06:50Z</time>
      </trkpt>
      <trkpt lat="45.10947" lon="6.01999">
        <ele>718.7</ele>
        <time>2026-08-25T07:06:51Z</time>
      </trkpt>
      <trkpt lat="45.10941" lon="6.02003">
        <ele>718.7</ele>
        <time>2026-08-25T07:06:52Z</time>
      </trkpt>
      <trkpt lat="45.10934" lon="6.02006">
        <ele>718.7</ele>
        <time>2026-08-25T07:06:53Z</time>
      </trkpt>
      <trkpt lat="45.10928" lon="6.02009">
        <ele>718.7</ele>
        <time>2026-08-25T07:06:54Z</time>
      </trkpt>
      <trkpt lat="45.10921" lon="6.02012">
        <ele>718.7</ele>
        <time>2026-08-25T07:06:55Z</time>
      </trkpt>
      <trkpt lat="45.10915" lon="6.02016">
        <ele>718.8</ele>
        <time>2026-08-25T07:06:56Z</time>
      </trkpt>
      <trkpt lat="45.10909" lon="6.0202">
        <ele>718.8</ele>
        <time>2026-08-25T07:06:57Z</time>
      </trkpt>
      <trkpt lat="45.10902" lon="6.02023">
        <ele>718.8</ele>
        <time>2026-08-25T07:06:58Z</time>
      </trkpt>
      <trkpt lat="45.10896" lon="6.02026">
        <ele>718.8</ele>
        <time>2026-08-25T07:06:59Z</time>
      </trkpt>
      <trkpt lat="45.1089" lon="6.0203">
        <ele>718.8</ele>
        <time>2026-08-25T07:07:00Z</time>
      </trkpt>
      <trkpt lat="45.10884" lon="6.02033">
        <ele>718.8</ele>
        <time>2026-08-25T07:07:01Z</time>
      </trkpt>
      <trkpt lat="45.10877" lon="6.02035">
        <ele>718.9</ele>
        <time>2026-08-25T07:07:02Z</time>
      </trkpt>
      <trkpt lat="45.1087" lon="6.02038">
        <ele>718.9</ele>
        <time>2026-08-25T07:07:03Z</time>
      </trkpt>
      <trkpt lat="45.10863" lon="6.0204">
        <ele>718.9</ele>
        <time>2026-08-25T07:07:04Z</time>
      </trkpt>
      <trkpt lat="45.10856" lon="6.02043">
        <ele>718.9</ele>
        <time>2026-08-25T07:07:05Z</time>
      </trkpt>
      <trkpt lat="45.1085" lon="6.02045">
        <ele>718.9</ele>
        <time>2026-08-25T07:07:06Z</time>
      </trkpt>
      <trkpt lat="45.10843" lon="6.02048">
        <ele>718.9</ele>
        <time>2026-08-25T07:07:07Z</time>
      </trkpt>
      <trkpt lat="45.10837" lon="6.02051">
        <ele>718.9</ele>
        <time>2026-08-25T07:07:08Z</time>
      </trkpt>
      <trkpt lat="45.1083" lon="6.02054">
        <ele>718.9</ele>
        <time>2026-08-25T07:07:09Z</time>
      </trkpt>
      <trkpt lat="45.10823" lon="6.02056">
        <ele>718.9</ele>
        <time>2026-08-25T07:07:10Z</time>
      </trkpt>
      <trkpt lat="45.10816" lon="6.02059">
        <ele>719</ele>
        <time>2026-08-25T07:07:11Z</time>
      </trkpt>
      <trkpt lat="45.1081" lon="6.02061">
        <ele>719</ele>
        <time>2026-08-25T07:07:12Z</time>
      </trkpt>
      <trkpt lat="45.10803" lon="6.02063">
        <ele>719</ele>
        <time>2026-08-25T07:07:13Z</time>
      </trkpt>
      <trkpt lat="45.10797" lon="6.02065">
        <ele>719.1</ele>
        <time>2026-08-25T07:07:14Z</time>
      </trkpt>
      <trkpt lat="45.1079" lon="6.02067">
        <ele>719.2</ele>
        <time>2026-08-25T07:07:15Z</time>
      </trkpt>
      <trkpt lat="45.10784" lon="6.02069">
        <ele>719.2</ele>
        <time>2026-08-25T07:07:16Z</time>
      </trkpt>
      <trkpt lat="45.10778" lon="6.02071">
        <ele>719.2</ele>
        <time>2026-08-25T07:07:17Z</time>
      </trkpt>
      <trkpt lat="45.10771" lon="6.02073">
        <ele>719.3</ele>
        <time>2026-08-25T07:07:18Z</time>
      </trkpt>
      <trkpt lat="45.10765" lon="6.02075">
        <ele>719.3</ele>
        <time>2026-08-25T07:07:19Z</time>
      </trkpt>
      <trkpt lat="45.10758" lon="6.02076">
        <ele>719.3</ele>
        <time>2026-08-25T07:07:20Z</time>
      </trkpt>
      <trkpt lat="45.10752" lon="6.02078">
        <ele>719.3</ele>
        <time>2026-08-25T07:07:21Z</time>
      </trkpt>
      <trkpt lat="45.10746" lon="6.0208">
        <ele>719.3</ele>
        <time>2026-08-25T07:07:22Z</time>
      </trkpt>
      <trkpt lat="45.10739" lon="6.02082">
        <ele>719.3</ele>
        <time>2026-08-25T07:07:23Z</time>
      </trkpt>
      <trkpt lat="45.10732" lon="6.02083">
        <ele>719.3</ele>
        <time>2026-08-25T07:07:24Z</time>
      </trkpt>
      <trkpt lat="45.10726" lon="6.02084">
        <ele>719.3</ele>
        <time>2026-08-25T07:07:25Z</time>
      </trkpt>
      <trkpt lat="45.10719" lon="6.02085">
        <ele>719.3</ele>
        <time>2026-08-25T07:07:26Z</time>
      </trkpt>
      <trkpt lat="45.10713" lon="6.02086">
        <ele>719.3</ele>
        <time>2026-08-25T07:07:27Z</time>
      </trkpt>
      <trkpt lat="45.10706" lon="6.02088">
        <ele>719.3</ele>
        <time>2026-08-25T07:07:28Z</time>
      </trkpt>
      <trkpt lat="45.10699" lon="6.02089">
        <ele>719.3</ele>
        <time>2026-08-25T07:07:29Z</time>
      </trkpt>
      <trkpt lat="45.10692" lon="6.02091">
        <ele>719.4</ele>
        <time>2026-08-25T07:07:30Z</time>
      </trkpt>
      <trkpt lat="45.10686" lon="6.02092">
        <ele>719.4</ele>
        <time>2026-08-25T07:07:31Z</time>
      </trkpt>
      <trkpt lat="45.1068" lon="6.02093">
        <ele>719.4</ele>
        <time>2026-08-25T07:07:32Z</time>
      </trkpt>
      <trkpt lat="45.10673" lon="6.02094">
        <ele>719.4</ele>
        <time>2026-08-25T07:07:33Z</time>
      </trkpt>
      <trkpt lat="45.10666" lon="6.02095">
        <ele>719.4</ele>
        <time>2026-08-25T07:07:34Z</time>
      </trkpt>
      <trkpt lat="45.1066" lon="6.02096">
        <ele>719.4</ele>
        <time>2026-08-25T07:07:35Z</time>
      </trkpt>
      <trkpt lat="45.10653" lon="6.02097">
        <ele>719.4</ele>
        <time>2026-08-25T07:07:36Z</time>
      </trkpt>
      <trkpt lat="45.10647" lon="6.02098">
        <ele>719.4</ele>
        <time>2026-08-25T07:07:37Z</time>
      </trkpt>
      <trkpt lat="45.1064" lon="6.02099">
        <ele>719.4</ele>
        <time>2026-08-25T07:07:38Z</time>
      </trkpt>
      <trkpt lat="45.10633" lon="6.021">
        <ele>719.4</ele>
        <time>2026-08-25T07:07:39Z</time>
      </trkpt>
      <trkpt lat="45.10626" lon="6.02101">
        <ele>719.4</ele>
        <time>2026-08-25T07:07:40Z</time>
      </trkpt>
      <trkpt lat="45.10619" lon="6.02102">
        <ele>719.4</ele>
        <time>2026-08-25T07:07:41Z</time>
      </trkpt>
      <trkpt lat="45.10613" lon="6.02102">
        <ele>719.3</ele>
        <time>2026-08-25T07:07:42Z</time>
      </trkpt>
      <trkpt lat="45.10606" lon="6.02103">
        <ele>719.3</ele>
        <time>2026-08-25T07:07:43Z</time>
      </trkpt>
      <trkpt lat="45.10599" lon="6.02103">
        <ele>719.2</ele>
        <time>2026-08-25T07:07:44Z</time>
      </trkpt>
      <trkpt lat="45.10592" lon="6.02104">
        <ele>719.2</ele>
        <time>2026-08-25T07:07:45Z</time>
      </trkpt>
      <trkpt lat="45.10586" lon="6.02104">
        <ele>719.2</ele>
        <time>2026-08-25T07:07:46Z</time>
      </trkpt>
      <trkpt lat="45.10579" lon="6.02105">
        <ele>719.2</ele>
        <time>2026-08-25T07:07:47Z</time>
      </trkpt>
      <trkpt lat="45.10573" lon="6.02105">
        <ele>719.3</ele>
        <time>2026-08-25T07:07:48Z</time>
      </trkpt>
      <trkpt lat="45.10566" lon="6.02105">
        <ele>719.3</ele>
        <time>2026-08-25T07:07:49Z</time>
      </trkpt>
      <trkpt lat="45.1056" lon="6.02106">
        <ele>719.3</ele>
        <time>2026-08-25T07:07:50Z</time>
      </trkpt>
      <trkpt lat="45.10553" lon="6.02106">
        <ele>719.3</ele>
        <time>2026-08-25T07:07:51Z</time>
      </trkpt>
      <trkpt lat="45.10547" lon="6.02106">
        <ele>719.3</ele>
        <time>2026-08-25T07:07:52Z</time>
      </trkpt>
      <trkpt lat="45.1054" lon="6.02106">
        <ele>719.3</ele>
        <time>2026-08-25T07:07:53Z</time>
      </trkpt>
      <trkpt lat="45.10533" lon="6.02106">
        <ele>719.4</ele>
        <time>2026-08-25T07:07:54Z</time>
      </trkpt>
      <trkpt lat="45.10527" lon="6.02106">
        <ele>719.4</ele>
        <time>2026-08-25T07:07:55Z</time>
      </trkpt>
      <trkpt lat="45.1052" lon="6.02106">
        <ele>719.4</ele>
        <time>2026-08-25T07:07:56Z</time>
      </trkpt>
      <trkpt lat="45.10514" lon="6.02106">
        <ele>719.4</ele>
        <time>2026-08-25T07:07:57Z</time>
      </trkpt>
      <trkpt lat="45.10507" lon="6.02106">
        <ele>719.4</ele>
        <time>2026-08-25T07:07:58Z</time>
      </trkpt>
      <trkpt lat="45.10501" lon="6.02106">
        <ele>719.4</ele>
        <time>2026-08-25T07:07:59Z</time>
      </trkpt>
      <trkpt lat="45.10494" lon="6.02106">
        <ele>719.4</ele>
        <time>2026-08-25T07:08:00Z</time>
      </trkpt>
      <trkpt lat="45.10488" lon="6.02106">
        <ele>719.5</ele>
        <time>2026-08-25T07:08:01Z</time>
      </trkpt>
      <trkpt lat="45.10482" lon="6.02105">
        <ele>719.5</ele>
        <time>2026-08-25T07:08:02Z</time>
      </trkpt>
      <trkpt lat="45.10475" lon="6.02105">
        <ele>719.5</ele>
        <time>2026-08-25T07:08:03Z</time>
      </trkpt>
      <trkpt lat="45.10468" lon="6.02105">
        <ele>719.5</ele>
        <time>2026-08-25T07:08:04Z</time>
      </trkpt>
      <trkpt lat="45.10462" lon="6.02105">
        <ele>719.6</ele>
        <time>2026-08-25T07:08:05Z</time>
      </trkpt>
      <trkpt lat="45.10455" lon="6.02105">
        <ele>719.6</ele>
        <time>2026-08-25T07:08:06Z</time>
      </trkpt>
      <trkpt lat="45.10448" lon="6.02105">
        <ele>719.6</ele>
        <time>2026-08-25T07:08:07Z</time>
      </trkpt>
      <trkpt lat="45.10442" lon="6.02105">
        <ele>719.6</ele>
        <time>2026-08-25T07:08:08Z</time>
      </trkpt>
      <trkpt lat="45.10435" lon="6.02105">
        <ele>719.6</ele>
        <time>2026-08-25T07:08:09Z</time>
      </trkpt>
      <trkpt lat="45.10429" lon="6.02105">
        <ele>719.6</ele>
        <time>2026-08-25T07:08:10Z</time>
      </trkpt>
      <trkpt lat="45.10422" lon="6.02105">
        <ele>719.6</ele>
        <time>2026-08-25T07:08:11Z</time>
      </trkpt>
      <trkpt lat="45.10416" lon="6.02105">
        <ele>719.6</ele>
        <time>2026-08-25T07:08:12Z</time>
      </trkpt>
      <trkpt lat="45.10409" lon="6.02105">
        <ele>719.7</ele>
        <time>2026-08-25T07:08:13Z</time>
      </trkpt>
      <trkpt lat="45.10402" lon="6.02105">
        <ele>719.7</ele>
        <time>2026-08-25T07:08:14Z</time>
      </trkpt>
      <trkpt lat="45.10395" lon="6.02105">
        <ele>719.7</ele>
        <time>2026-08-25T07:08:15Z</time>
      </trkpt>
      <trkpt lat="45.10389" lon="6.02105">
        <ele>719.7</ele>
        <time>2026-08-25T07:08:16Z</time>
      </trkpt>
      <trkpt lat="45.10382" lon="6.02105">
        <ele>719.7</ele>
        <time>2026-08-25T07:08:17Z</time>
      </trkpt>
      <trkpt lat="45.10375" lon="6.02104">
        <ele>719.7</ele>
        <time>2026-08-25T07:08:18Z</time>
      </trkpt>
      <trkpt lat="45.10369" lon="6.02104">
        <ele>719.7</ele>
        <time>2026-08-25T07:08:19Z</time>
      </trkpt>
      <trkpt lat="45.10362" lon="6.02103">
        <ele>719.7</ele>
        <time>2026-08-25T07:08:20Z</time>
      </trkpt>
      <trkpt lat="45.10355" lon="6.02103">
        <ele>719.7</ele>
        <time>2026-08-25T07:08:21Z</time>
      </trkpt>
      <trkpt lat="45.10348" lon="6.02103">
        <ele>719.7</ele>
        <time>2026-08-25T07:08:22Z</time>
      </trkpt>
      <trkpt lat="45.10341" lon="6.02102">
        <ele>719.7</ele>
        <time>2026-08-25T07:08:23Z</time>
      </trkpt>
      <trkpt lat="45.10335" lon="6.02102">
        <ele>719.7</ele>
        <time>2026-08-25T07:08:24Z</time>
      </trkpt>
      <trkpt lat="45.10328" lon="6.02102">
        <ele>719.7</ele>
        <time>2026-08-25T07:08:25Z</time>
      </trkpt>
      <trkpt lat="45.10321" lon="6.02102">
        <ele>719.7</ele>
        <time>2026-08-25T07:08:26Z</time>
      </trkpt>
      <trkpt lat="45.10314" lon="6.02102">
        <ele>719.7</ele>
        <time>2026-08-25T07:08:27Z</time>
      </trkpt>
      <trkpt lat="45.10308" lon="6.02102">
        <ele>719.8</ele>
        <time>2026-08-25T07:08:28Z</time>
      </trkpt>
      <trkpt lat="45.10301" lon="6.02102">
        <ele>719.8</ele>
        <time>2026-08-25T07:08:29Z</time>
      </trkpt>
      <trkpt lat="45.10294" lon="6.02103">
        <ele>719.8</ele>
        <time>2026-08-25T07:08:30Z</time>
      </trkpt>
      <trkpt lat="45.10288" lon="6.02103">
        <ele>719.9</ele>
        <time>2026-08-25T07:08:31Z</time>
      </trkpt>
      <trkpt lat="45.10281" lon="6.02102">
        <ele>719.9</ele>
        <time>2026-08-25T07:08:32Z</time>
      </trkpt>
      <trkpt lat="45.10275" lon="6.02102">
        <ele>719.9</ele>
        <time>2026-08-25T07:08:33Z</time>
      </trkpt>
      <trkpt lat="45.10268" lon="6.02102">
        <ele>719.9</ele>
        <time>2026-08-25T07:08:34Z</time>
      </trkpt>
      <trkpt lat="45.10261" lon="6.02101">
        <ele>719.9</ele>
        <time>2026-08-25T07:08:35Z</time>
      </trkpt>
      <trkpt lat="45.10255" lon="6.021">
        <ele>719.9</ele>
        <time>2026-08-25T07:08:36Z</time>
      </trkpt>
      <trkpt lat="45.10248" lon="6.02099">
        <ele>719.9</ele>
        <time>2026-08-25T07:08:37Z</time>
      </trkpt>
      <trkpt lat="45.10241" lon="6.02097">
        <ele>719.9</ele>
        <time>2026-08-25T07:08:38Z</time>
      </trkpt>
      <trkpt lat="45.10234" lon="6.02096">
        <ele>719.9</ele>
        <time>2026-08-25T07:08:39Z</time>
      </trkpt>
      <trkpt lat="45.10228" lon="6.02094">
        <ele>719.9</ele>
        <time>2026-08-25T07:08:40Z</time>
      </trkpt>
      <trkpt lat="45.10221" lon="6.02092">
        <ele>720</ele>
        <time>2026-08-25T07:08:41Z</time>
      </trkpt>
      <trkpt lat="45.10214" lon="6.0209">
        <ele>720</ele>
        <time>2026-08-25T07:08:42Z</time>
      </trkpt>
      <trkpt lat="45.10207" lon="6.02088">
        <ele>720</ele>
        <time>2026-08-25T07:08:43Z</time>
      </trkpt>
      <trkpt lat="45.10201" lon="6.02086">
        <ele>720</ele>
        <time>2026-08-25T07:08:44Z</time>
      </trkpt>
      <trkpt lat="45.10194" lon="6.02085">
        <ele>720</ele>
        <time>2026-08-25T07:08:45Z</time>
      </trkpt>
      <trkpt lat="45.10187" lon="6.02083">
        <ele>720</ele>
        <time>2026-08-25T07:08:46Z</time>
      </trkpt>
      <trkpt lat="45.10181" lon="6.02081">
        <ele>720</ele>
        <time>2026-08-25T07:08:47Z</time>
      </trkpt>
      <trkpt lat="45.10175" lon="6.02079">
        <ele>720.1</ele>
        <time>2026-08-25T07:08:48Z</time>
      </trkpt>
      <trkpt lat="45.10168" lon="6.02077">
        <ele>720.1</ele>
        <time>2026-08-25T07:08:49Z</time>
      </trkpt>
      <trkpt lat="45.10161" lon="6.02075">
        <ele>720.1</ele>
        <time>2026-08-25T07:08:50Z</time>
      </trkpt>
      <trkpt lat="45.10154" lon="6.02073">
        <ele>720.1</ele>
        <time>2026-08-25T07:08:51Z</time>
      </trkpt>
      <trkpt lat="45.10148" lon="6.02071">
        <ele>720.1</ele>
        <time>2026-08-25T07:08:52Z</time>
      </trkpt>
      <trkpt lat="45.10142" lon="6.0207">
        <ele>720.2</ele>
        <time>2026-08-25T07:08:53Z</time>
      </trkpt>
      <trkpt lat="45.10135" lon="6.02068">
        <ele>720.2</ele>
        <time>2026-08-25T07:08:54Z</time>
      </trkpt>
      <trkpt lat="45.10129" lon="6.02066">
        <ele>720.2</ele>
        <time>2026-08-25T07:08:55Z</time>
      </trkpt>
      <trkpt lat="45.10122" lon="6.02064">
        <ele>720.2</ele>
        <time>2026-08-25T07:08:56Z</time>
      </trkpt>
      <trkpt lat="45.10116" lon="6.02062">
        <ele>720.2</ele>
        <time>2026-08-25T07:08:57Z</time>
      </trkpt>
      <trkpt lat="45.10109" lon="6.0206">
        <ele>720.2</ele>
        <time>2026-08-25T07:08:58Z</time>
      </trkpt>
      <trkpt lat="45.10103" lon="6.02058">
        <ele>720.2</ele>
        <time>2026-08-25T07:08:59Z</time>
      </trkpt>
      <trkpt lat="45.10097" lon="6.02056">
        <ele>720.2</ele>
        <time>2026-08-25T07:09:00Z</time>
      </trkpt>
      <trkpt lat="45.1009" lon="6.02055">
        <ele>720.2</ele>
        <time>2026-08-25T07:09:01Z</time>
      </trkpt>
      <trkpt lat="45.10084" lon="6.02053">
        <ele>720.2</ele>
        <time>2026-08-25T07:09:02Z</time>
      </trkpt>
      <trkpt lat="45.10077" lon="6.02051">
        <ele>720.2</ele>
        <time>2026-08-25T07:09:03Z</time>
      </trkpt>
      <trkpt lat="45.10071" lon="6.02049">
        <ele>720.3</ele>
        <time>2026-08-25T07:09:04Z</time>
      </trkpt>
      <trkpt lat="45.10064" lon="6.02047">
        <ele>720.3</ele>
        <time>2026-08-25T07:09:05Z</time>
      </trkpt>
      <trkpt lat="45.10058" lon="6.02045">
        <ele>720.3</ele>
        <time>2026-08-25T07:09:06Z</time>
      </trkpt>
      <trkpt lat="45.10051" lon="6.02043">
        <ele>720.3</ele>
        <time>2026-08-25T07:09:07Z</time>
      </trkpt>
      <trkpt lat="45.10045" lon="6.02041">
        <ele>720.3</ele>
        <time>2026-08-25T07:09:08Z</time>
      </trkpt>
      <trkpt lat="45.10038" lon="6.02039">
        <ele>720.3</ele>
        <time>2026-08-25T07:09:09Z</time>
      </trkpt>
      <trkpt lat="45.10032" lon="6.02037">
        <ele>720.3</ele>
        <time>2026-08-25T07:09:10Z</time>
      </trkpt>
      <trkpt lat="45.10026" lon="6.02035">
        <ele>720.3</ele>
        <time>2026-08-25T07:09:11Z</time>
      </trkpt>
      <trkpt lat="45.10019" lon="6.02033">
        <ele>720.3</ele>
        <time>2026-08-25T07:09:12Z</time>
      </trkpt>
      <trkpt lat="45.10013" lon="6.0203">
        <ele>720.4</ele>
        <time>2026-08-25T07:09:13Z</time>
      </trkpt>
      <trkpt lat="45.10006" lon="6.02028">
        <ele>720.4</ele>
        <time>2026-08-25T07:09:14Z</time>
      </trkpt>
      <trkpt lat="45.1" lon="6.02026">
        <ele>720.4</ele>
        <time>2026-08-25T07:09:15Z</time>
      </trkpt>
      <trkpt lat="45.09993" lon="6.02024">
        <ele>720.4</ele>
        <time>2026-08-25T07:09:16Z</time>
      </trkpt>
      <trkpt lat="45.09987" lon="6.02022">
        <ele>720.4</ele>
        <time>2026-08-25T07:09:17Z</time>
      </trkpt>
      <trkpt lat="45.0998" lon="6.0202">
        <ele>720.4</ele>
        <time>2026-08-25T07:09:18Z</time>
      </trkpt>
      <trkpt lat="45.09974" lon="6.02018">
        <ele>720.4</ele>
        <time>2026-08-25T07:09:19Z</time>
      </trkpt>
      <trkpt lat="45.09967" lon="6.02017">
        <ele>720.4</ele>
        <time>2026-08-25T07:09:20Z</time>
      </trkpt>
      <trkpt lat="45.0996" lon="6.02015">
        <ele>720.4</ele>
        <time>2026-08-25T07:09:21Z</time>
      </trkpt>
      <trkpt lat="45.09954" lon="6.02014">
        <ele>720.4</ele>
        <time>2026-08-25T07:09:22Z</time>
      </trkpt>
      <trkpt lat="45.09947" lon="6.02012">
        <ele>720.5</ele>
        <time>2026-08-25T07:09:23Z</time>
      </trkpt>
      <trkpt lat="45.09941" lon="6.0201">
        <ele>720.5</ele>
        <time>2026-08-25T07:09:24Z</time>
      </trkpt>
      <trkpt lat="45.09934" lon="6.02008">
        <ele>720.5</ele>
        <time>2026-08-25T07:09:25Z</time>
      </trkpt>
      <trkpt lat="45.09928" lon="6.02006">
        <ele>720.5</ele>
        <time>2026-08-25T07:09:26Z</time>
      </trkpt>
      <trkpt lat="45.09921" lon="6.02004">
        <ele>720.5</ele>
        <time>2026-08-25T07:09:27Z</time>
      </trkpt>
      <trkpt lat="45.09914" lon="6.02003">
        <ele>720.5</ele>
        <time>2026-08-25T07:09:28Z</time>
      </trkpt>
      <trkpt lat="45.09908" lon="6.02001">
        <ele>720.5</ele>
        <time>2026-08-25T07:09:29Z</time>
      </trkpt>
      <trkpt lat="45.09902" lon="6.01999">
        <ele>720.5</ele>
        <time>2026-08-25T07:09:30Z</time>
      </trkpt>
      <trkpt lat="45.09895" lon="6.01997">
        <ele>720.6</ele>
        <time>2026-08-25T07:09:31Z</time>
      </trkpt>
      <trkpt lat="45.09889" lon="6.01995">
        <ele>720.6</ele>
        <time>2026-08-25T07:09:32Z</time>
      </trkpt>
      <trkpt lat="45.09883" lon="6.01992">
        <ele>720.6</ele>
        <time>2026-08-25T07:09:33Z</time>
      </trkpt>
      <trkpt lat="45.09876" lon="6.0199">
        <ele>720.6</ele>
        <time>2026-08-25T07:09:34Z</time>
      </trkpt>
      <trkpt lat="45.0987" lon="6.01988">
        <ele>720.7</ele>
        <time>2026-08-25T07:09:35Z</time>
      </trkpt>
      <trkpt lat="45.09863" lon="6.01986">
        <ele>720.7</ele>
        <time>2026-08-25T07:09:36Z</time>
      </trkpt>
      <trkpt lat="45.09857" lon="6.01985">
        <ele>720.7</ele>
        <time>2026-08-25T07:09:37Z</time>
      </trkpt>
      <trkpt lat="45.0985" lon="6.01983">
        <ele>720.7</ele>
        <time>2026-08-25T07:09:38Z</time>
      </trkpt>
      <trkpt lat="45.09844" lon="6.01981">
        <ele>720.7</ele>
        <time>2026-08-25T07:09:39Z</time>
      </trkpt>
      <trkpt lat="45.09838" lon="6.01979">
        <ele>720.7</ele>
        <time>2026-08-25T07:09:40Z</time>
      </trkpt>
      <trkpt lat="45.09831" lon="6.01977">
        <ele>720.7</ele>
        <time>2026-08-25T07:09:41Z</time>
      </trkpt>
      <trkpt lat="45.09825" lon="6.01975">
        <ele>720.7</ele>
        <time>2026-08-25T07:09:42Z</time>
      </trkpt>
      <trkpt lat="45.09818" lon="6.01973">
        <ele>720.7</ele>
        <time>2026-08-25T07:09:43Z</time>
      </trkpt>
      <trkpt lat="45.09812" lon="6.01971">
        <ele>720.7</ele>
        <time>2026-08-25T07:09:44Z</time>
      </trkpt>
      <trkpt lat="45.09805" lon="6.01969">
        <ele>720.7</ele>
        <time>2026-08-25T07:09:45Z</time>
      </trkpt>
      <trkpt lat="45.09799" lon="6.01967">
        <ele>720.7</ele>
        <time>2026-08-25T07:09:46Z</time>
      </trkpt>
      <trkpt lat="45.09792" lon="6.01965">
        <ele>720.7</ele>
        <time>2026-08-25T07:09:47Z</time>
      </trkpt>
      <trkpt lat="45.09785" lon="6.01963">
        <ele>720.6</ele>
        <time>2026-08-25T07:09:48Z</time>
      </trkpt>
      <trkpt lat="45.09779" lon="6.0196">
        <ele>720.6</ele>
        <time>2026-08-25T07:09:49Z</time>
      </trkpt>
      <trkpt lat="45.09773" lon="6.01958">
        <ele>720.6</ele>
        <time>2026-08-25T07:09:50Z</time>
      </trkpt>
      <trkpt lat="45.09766" lon="6.01956">
        <ele>720.6</ele>
        <time>2026-08-25T07:09:51Z</time>
      </trkpt>
      <trkpt lat="45.0976" lon="6.01954">
        <ele>720.6</ele>
        <time>2026-08-25T07:09:52Z</time>
      </trkpt>
      <trkpt lat="45.09753" lon="6.01952">
        <ele>720.6</ele>
        <time>2026-08-25T07:09:53Z</time>
      </trkpt>
      <trkpt lat="45.09747" lon="6.0195">
        <ele>720.6</ele>
        <time>2026-08-25T07:09:54Z</time>
      </trkpt>
      <trkpt lat="45.0974" lon="6.01949">
        <ele>720.6</ele>
        <time>2026-08-25T07:09:55Z</time>
      </trkpt>
      <trkpt lat="45.09734" lon="6.01947">
        <ele>720.6</ele>
        <time>2026-08-25T07:09:56Z</time>
      </trkpt>
      <trkpt lat="45.09727" lon="6.01945">
        <ele>720.7</ele>
        <time>2026-08-25T07:09:57Z</time>
      </trkpt>
      <trkpt lat="45.0972" lon="6.01944">
        <ele>720.7</ele>
        <time>2026-08-25T07:09:58Z</time>
      </trkpt>
      <trkpt lat="45.09714" lon="6.01942">
        <ele>720.7</ele>
        <time>2026-08-25T07:09:59Z</time>
      </trkpt>
      <trkpt lat="45.09707" lon="6.0194">
        <ele>720.7</ele>
        <time>2026-08-25T07:10:00Z</time>
      </trkpt>
      <trkpt lat="45.09701" lon="6.01938">
        <ele>720.8</ele>
        <time>2026-08-25T07:10:01Z</time>
      </trkpt>
      <trkpt lat="45.09694" lon="6.01936">
        <ele>720.8</ele>
        <time>2026-08-25T07:10:02Z</time>
      </trkpt>
      <trkpt lat="45.09688" lon="6.01935">
        <ele>720.8</ele>
        <time>2026-08-25T07:10:03Z</time>
      </trkpt>
      <trkpt lat="45.09682" lon="6.01933">
        <ele>720.8</ele>
        <time>2026-08-25T07:10:04Z</time>
      </trkpt>
      <trkpt lat="45.09675" lon="6.01931">
        <ele>720.8</ele>
        <time>2026-08-25T07:10:05Z</time>
      </trkpt>
      <trkpt lat="45.09669" lon="6.01929">
        <ele>720.8</ele>
        <time>2026-08-25T07:10:06Z</time>
      </trkpt>
      <trkpt lat="45.09662" lon="6.01927">
        <ele>720.8</ele>
        <time>2026-08-25T07:10:07Z</time>
      </trkpt>
      <trkpt lat="45.09655" lon="6.01925">
        <ele>720.8</ele>
        <time>2026-08-25T07:10:08Z</time>
      </trkpt>
      <trkpt lat="45.09649" lon="6.01923">
        <ele>720.8</ele>
        <time>2026-08-25T07:10:09Z</time>
      </trkpt>
      <trkpt lat="45.09642" lon="6.01921">
        <ele>720.8</ele>
        <time>2026-08-25T07:10:10Z</time>
      </trkpt>
      <trkpt lat="45.09635" lon="6.01919">
        <ele>720.7</ele>
        <time>2026-08-25T07:10:11Z</time>
      </trkpt>
      <trkpt lat="45.09629" lon="6.01917">
        <ele>720.7</ele>
        <time>2026-08-25T07:10:12Z</time>
      </trkpt>
      <trkpt lat="45.09622" lon="6.01915">
        <ele>720.8</ele>
        <time>2026-08-25T07:10:13Z</time>
      </trkpt>
      <trkpt lat="45.09615" lon="6.01914">
        <ele>720.8</ele>
        <time>2026-08-25T07:10:14Z</time>
      </trkpt>
      <trkpt lat="45.09609" lon="6.01912">
        <ele>720.8</ele>
        <time>2026-08-25T07:10:15Z</time>
      </trkpt>
      <trkpt lat="45.09603" lon="6.0191">
        <ele>720.8</ele>
        <time>2026-08-25T07:10:16Z</time>
      </trkpt>
      <trkpt lat="45.09596" lon="6.01908">
        <ele>720.9</ele>
        <time>2026-08-25T07:10:17Z</time>
      </trkpt>
      <trkpt lat="45.09589" lon="6.01906">
        <ele>720.9</ele>
        <time>2026-08-25T07:10:18Z</time>
      </trkpt>
      <trkpt lat="45.09583" lon="6.01904">
        <ele>720.9</ele>
        <time>2026-08-25T07:10:19Z</time>
      </trkpt>
      <trkpt lat="45.09576" lon="6.01902">
        <ele>720.9</ele>
        <time>2026-08-25T07:10:20Z</time>
      </trkpt>
      <trkpt lat="45.0957" lon="6.019">
        <ele>720.9</ele>
        <time>2026-08-25T07:10:21Z</time>
      </trkpt>
      <trkpt lat="45.09563" lon="6.01898">
        <ele>720.9</ele>
        <time>2026-08-25T07:10:22Z</time>
      </trkpt>
      <trkpt lat="45.09557" lon="6.01896">
        <ele>720.9</ele>
        <time>2026-08-25T07:10:23Z</time>
      </trkpt>
      <trkpt lat="45.0955" lon="6.01894">
        <ele>720.9</ele>
        <time>2026-08-25T07:10:24Z</time>
      </trkpt>
      <trkpt lat="45.09544" lon="6.01893">
        <ele>720.9</ele>
        <time>2026-08-25T07:10:25Z</time>
      </trkpt>
      <trkpt lat="45.09537" lon="6.01891">
        <ele>720.9</ele>
        <time>2026-08-25T07:10:26Z</time>
      </trkpt>
      <trkpt lat="45.09531" lon="6.01889">
        <ele>720.9</ele>
        <time>2026-08-25T07:10:27Z</time>
      </trkpt>
      <trkpt lat="45.09524" lon="6.01886">
        <ele>720.9</ele>
        <time>2026-08-25T07:10:28Z</time>
      </trkpt>
      <trkpt lat="45.09517" lon="6.01884">
        <ele>720.9</ele>
        <time>2026-08-25T07:10:29Z</time>
      </trkpt>
      <trkpt lat="45.09511" lon="6.01882">
        <ele>720.9</ele>
        <time>2026-08-25T07:10:30Z</time>
      </trkpt>
      <trkpt lat="45.09504" lon="6.0188">
        <ele>720.9</ele>
        <time>2026-08-25T07:10:31Z</time>
      </trkpt>
      <trkpt lat="45.09498" lon="6.01878">
        <ele>720.9</ele>
        <time>2026-08-25T07:10:32Z</time>
      </trkpt>
      <trkpt lat="45.09491" lon="6.01877">
        <ele>720.9</ele>
        <time>2026-08-25T07:10:33Z</time>
      </trkpt>
      <trkpt lat="45.09485" lon="6.01875">
        <ele>720.9</ele>
        <time>2026-08-25T07:10:34Z</time>
      </trkpt>
      <trkpt lat="45.09478" lon="6.01873">
        <ele>720.9</ele>
        <time>2026-08-25T07:10:35Z</time>
      </trkpt>
      <trkpt lat="45.09472" lon="6.01871">
        <ele>720.9</ele>
        <time>2026-08-25T07:10:36Z</time>
      </trkpt>
      <trkpt lat="45.09465" lon="6.01869">
        <ele>720.9</ele>
        <time>2026-08-25T07:10:37Z</time>
      </trkpt>
      <trkpt lat="45.09459" lon="6.01867">
        <ele>720.9</ele>
        <time>2026-08-25T07:10:38Z</time>
      </trkpt>
      <trkpt lat="45.09452" lon="6.01865">
        <ele>721</ele>
        <time>2026-08-25T07:10:39Z</time>
      </trkpt>
      <trkpt lat="45.09446" lon="6.01863">
        <ele>721</ele>
        <time>2026-08-25T07:10:40Z</time>
      </trkpt>
      <trkpt lat="45.09439" lon="6.01861">
        <ele>721</ele>
        <time>2026-08-25T07:10:41Z</time>
      </trkpt>
      <trkpt lat="45.09433" lon="6.01859">
        <ele>721</ele>
        <time>2026-08-25T07:10:42Z</time>
      </trkpt>
      <trkpt lat="45.09426" lon="6.01857">
        <ele>721.1</ele>
        <time>2026-08-25T07:10:43Z</time>
      </trkpt>
      <trkpt lat="45.09419" lon="6.01855">
        <ele>721.1</ele>
        <time>2026-08-25T07:10:44Z</time>
      </trkpt>
      <trkpt lat="45.09413" lon="6.01853">
        <ele>721.1</ele>
        <time>2026-08-25T07:10:45Z</time>
      </trkpt>
      <trkpt lat="45.09406" lon="6.01851">
        <ele>721.1</ele>
        <time>2026-08-25T07:10:46Z</time>
      </trkpt>
      <trkpt lat="45.094" lon="6.0185">
        <ele>721.1</ele>
        <time>2026-08-25T07:10:47Z</time>
      </trkpt>
      <trkpt lat="45.09393" lon="6.01848">
        <ele>721.1</ele>
        <time>2026-08-25T07:10:48Z</time>
      </trkpt>
      <trkpt lat="45.09386" lon="6.01846">
        <ele>721.2</ele>
        <time>2026-08-25T07:10:49Z</time>
      </trkpt>
      <trkpt lat="45.0938" lon="6.01845">
        <ele>721.2</ele>
        <time>2026-08-25T07:10:50Z</time>
      </trkpt>
      <trkpt lat="45.09374" lon="6.01843">
        <ele>721.2</ele>
        <time>2026-08-25T07:10:51Z</time>
      </trkpt>
      <trkpt lat="45.09367" lon="6.01842">
        <ele>721.2</ele>
        <time>2026-08-25T07:10:52Z</time>
      </trkpt>
      <trkpt lat="45.09361" lon="6.01841">
        <ele>721.2</ele>
        <time>2026-08-25T07:10:53Z</time>
      </trkpt>
      <trkpt lat="45.09354" lon="6.0184">
        <ele>721.2</ele>
        <time>2026-08-25T07:10:54Z</time>
      </trkpt>
      <trkpt lat="45.09347" lon="6.01839">
        <ele>721.2</ele>
        <time>2026-08-25T07:10:55Z</time>
      </trkpt>
      <trkpt lat="45.09341" lon="6.01839">
        <ele>721.2</ele>
        <time>2026-08-25T07:10:56Z</time>
      </trkpt>
      <trkpt lat="45.09335" lon="6.01838">
        <ele>721.2</ele>
        <time>2026-08-25T07:10:57Z</time>
      </trkpt>
      <trkpt lat="45.09328" lon="6.01837">
        <ele>721.2</ele>
        <time>2026-08-25T07:10:58Z</time>
      </trkpt>
      <trkpt lat="45.09321" lon="6.01836">
        <ele>721.2</ele>
        <time>2026-08-25T07:10:59Z</time>
      </trkpt>
      <trkpt lat="45.09314" lon="6.01836">
        <ele>721.2</ele>
        <time>2026-08-25T07:11:00Z</time>
      </trkpt>
      <trkpt lat="45.09308" lon="6.01835">
        <ele>721.3</ele>
        <time>2026-08-25T07:11:01Z</time>
      </trkpt>
      <trkpt lat="45.09301" lon="6.01835">
        <ele>721.3</ele>
        <time>2026-08-25T07:11:02Z</time>
      </trkpt>
      <trkpt lat="45.09294" lon="6.01835">
        <ele>721.3</ele>
        <time>2026-08-25T07:11:03Z</time>
      </trkpt>
      <trkpt lat="45.09287" lon="6.01835">
        <ele>721.3</ele>
        <time>2026-08-25T07:11:04Z</time>
      </trkpt>
      <trkpt lat="45.09281" lon="6.01835">
        <ele>721.3</ele>
        <time>2026-08-25T07:11:05Z</time>
      </trkpt>
      <trkpt lat="45.09274" lon="6.01834">
        <ele>721.3</ele>
        <time>2026-08-25T07:11:06Z</time>
      </trkpt>
      <trkpt lat="45.09267" lon="6.01834">
        <ele>721.4</ele>
        <time>2026-08-25T07:11:07Z</time>
      </trkpt>
      <trkpt lat="45.09261" lon="6.01833">
        <ele>721.4</ele>
        <time>2026-08-25T07:11:08Z</time>
      </trkpt>
      <trkpt lat="45.09254" lon="6.01833">
        <ele>721.4</ele>
        <time>2026-08-25T07:11:09Z</time>
      </trkpt>
      <trkpt lat="45.09247" lon="6.01833">
        <ele>721.4</ele>
        <time>2026-08-25T07:11:10Z</time>
      </trkpt>
      <trkpt lat="45.0924" lon="6.01833">
        <ele>721.4</ele>
        <time>2026-08-25T07:11:11Z</time>
      </trkpt>
      <trkpt lat="45.09234" lon="6.01832">
        <ele>721.4</ele>
        <time>2026-08-25T07:11:12Z</time>
      </trkpt>
      <trkpt lat="45.09227" lon="6.01832">
        <ele>721.4</ele>
        <time>2026-08-25T07:11:13Z</time>
      </trkpt>
      <trkpt lat="45.0922" lon="6.01832">
        <ele>721.4</ele>
        <time>2026-08-25T07:11:14Z</time>
      </trkpt>
      <trkpt lat="45.09213" lon="6.01831">
        <ele>721.4</ele>
        <time>2026-08-25T07:11:15Z</time>
      </trkpt>
      <trkpt lat="45.09207" lon="6.01831">
        <ele>721.4</ele>
        <time>2026-08-25T07:11:16Z</time>
      </trkpt>
      <trkpt lat="45.092" lon="6.0183">
        <ele>721.4</ele>
        <time>2026-08-25T07:11:17Z</time>
      </trkpt>
      <trkpt lat="45.09193" lon="6.0183">
        <ele>721.4</ele>
        <time>2026-08-25T07:11:18Z</time>
      </trkpt>
      <trkpt lat="45.09186" lon="6.01829">
        <ele>721.4</ele>
        <time>2026-08-25T07:11:19Z</time>
      </trkpt>
      <trkpt lat="45.09179" lon="6.01829">
        <ele>721.4</ele>
        <time>2026-08-25T07:11:20Z</time>
      </trkpt>
      <trkpt lat="45.09173" lon="6.01828">
        <ele>721.4</ele>
        <time>2026-08-25T07:11:21Z</time>
      </trkpt>
      <trkpt lat="45.09166" lon="6.01827">
        <ele>721.4</ele>
        <time>2026-08-25T07:11:22Z</time>
      </trkpt>
      <trkpt lat="45.09159" lon="6.01827">
        <ele>721.4</ele>
        <time>2026-08-25T07:11:23Z</time>
      </trkpt>
      <trkpt lat="45.09153" lon="6.01826">
        <ele>721.4</ele>
        <time>2026-08-25T07:11:24Z</time>
      </trkpt>
      <trkpt lat="45.09146" lon="6.01826">
        <ele>721.4</ele>
        <time>2026-08-25T07:11:25Z</time>
      </trkpt>
      <trkpt lat="45.09139" lon="6.01825">
        <ele>721.4</ele>
        <time>2026-08-25T07:11:26Z</time>
      </trkpt>
      <trkpt lat="45.09133" lon="6.01825">
        <ele>721.4</ele>
        <time>2026-08-25T07:11:27Z</time>
      </trkpt>
      <trkpt lat="45.09126" lon="6.01824">
        <ele>721.4</ele>
        <time>2026-08-25T07:11:28Z</time>
      </trkpt>
      <trkpt lat="45.09119" lon="6.01824">
        <ele>721.4</ele>
        <time>2026-08-25T07:11:29Z</time>
      </trkpt>
      <trkpt lat="45.09112" lon="6.01823">
        <ele>721.4</ele>
        <time>2026-08-25T07:11:30Z</time>
      </trkpt>
      <trkpt lat="45.09105" lon="6.01823">
        <ele>721.5</ele>
        <time>2026-08-25T07:11:31Z</time>
      </trkpt>
      <trkpt lat="45.09098" lon="6.01823">
        <ele>721.5</ele>
        <time>2026-08-25T07:11:32Z</time>
      </trkpt>
      <trkpt lat="45.09091" lon="6.01822">
        <ele>721.5</ele>
        <time>2026-08-25T07:11:33Z</time>
      </trkpt>
      <trkpt lat="45.09085" lon="6.01822">
        <ele>721.5</ele>
        <time>2026-08-25T07:11:34Z</time>
      </trkpt>
      <trkpt lat="45.09078" lon="6.01822">
        <ele>721.5</ele>
        <time>2026-08-25T07:11:35Z</time>
      </trkpt>
      <trkpt lat="45.09071" lon="6.01821">
        <ele>721.5</ele>
        <time>2026-08-25T07:11:36Z</time>
      </trkpt>
      <trkpt lat="45.09065" lon="6.01821">
        <ele>721.6</ele>
        <time>2026-08-25T07:11:37Z</time>
      </trkpt>
      <trkpt lat="45.09058" lon="6.0182">
        <ele>721.6</ele>
        <time>2026-08-25T07:11:38Z</time>
      </trkpt>
      <trkpt lat="45.09052" lon="6.0182">
        <ele>721.6</ele>
        <time>2026-08-25T07:11:39Z</time>
      </trkpt>
      <trkpt lat="45.09045" lon="6.0182">
        <ele>721.6</ele>
        <time>2026-08-25T07:11:40Z</time>
      </trkpt>
      <trkpt lat="45.09038" lon="6.01819">
        <ele>721.6</ele>
        <time>2026-08-25T07:11:41Z</time>
      </trkpt>
      <trkpt lat="45.09031" lon="6.01819">
        <ele>721.6</ele>
        <time>2026-08-25T07:11:42Z</time>
      </trkpt>
      <trkpt lat="45.09024" lon="6.01818">
        <ele>721.6</ele>
        <time>2026-08-25T07:11:43Z</time>
      </trkpt>
      <trkpt lat="45.09017" lon="6.01818">
        <ele>721.6</ele>
        <time>2026-08-25T07:11:44Z</time>
      </trkpt>
      <trkpt lat="45.09011" lon="6.01817">
        <ele>721.6</ele>
        <time>2026-08-25T07:11:45Z</time>
      </trkpt>
      <trkpt lat="45.09004" lon="6.01817">
        <ele>721.6</ele>
        <time>2026-08-25T07:11:46Z</time>
      </trkpt>
      <trkpt lat="45.08998" lon="6.01816">
        <ele>721.6</ele>
        <time>2026-08-25T07:11:47Z</time>
      </trkpt>
      <trkpt lat="45.08991" lon="6.01816">
        <ele>721.6</ele>
        <time>2026-08-25T07:11:48Z</time>
      </trkpt>
      <trkpt lat="45.08984" lon="6.01816">
        <ele>721.6</ele>
        <time>2026-08-25T07:11:49Z</time>
      </trkpt>
      <trkpt lat="45.08978" lon="6.01815">
        <ele>721.7</ele>
        <time>2026-08-25T07:11:50Z</time>
      </trkpt>
      <trkpt lat="45.08971" lon="6.01815">
        <ele>721.7</ele>
        <time>2026-08-25T07:11:51Z</time>
      </trkpt>
      <trkpt lat="45.08964" lon="6.01815">
        <ele>721.7</ele>
        <time>2026-08-25T07:11:52Z</time>
      </trkpt>
      <trkpt lat="45.08958" lon="6.01815">
        <ele>721.7</ele>
        <time>2026-08-25T07:11:53Z</time>
      </trkpt>
      <trkpt lat="45.08951" lon="6.01814">
        <ele>721.7</ele>
        <time>2026-08-25T07:11:54Z</time>
      </trkpt>
      <trkpt lat="45.08944" lon="6.01814">
        <ele>721.7</ele>
        <time>2026-08-25T07:11:55Z</time>
      </trkpt>
      <trkpt lat="45.08937" lon="6.01813">
        <ele>721.7</ele>
        <time>2026-08-25T07:11:56Z</time>
      </trkpt>
      <trkpt lat="45.08931" lon="6.01813">
        <ele>721.7</ele>
        <time>2026-08-25T07:11:57Z</time>
      </trkpt>
      <trkpt lat="45.08924" lon="6.01812">
        <ele>721.7</ele>
        <time>2026-08-25T07:11:58Z</time>
      </trkpt>
      <trkpt lat="45.08917" lon="6.01812">
        <ele>721.7</ele>
        <time>2026-08-25T07:11:59Z</time>
      </trkpt>
      <trkpt lat="45.08911" lon="6.01812">
        <ele>721.7</ele>
        <time>2026-08-25T07:12:00Z</time>
      </trkpt>
      <trkpt lat="45.08904" lon="6.01811">
        <ele>721.7</ele>
        <time>2026-08-25T07:12:01Z</time>
      </trkpt>
      <trkpt lat="45.08897" lon="6.0181">
        <ele>721.7</ele>
        <time>2026-08-25T07:12:02Z</time>
      </trkpt>
      <trkpt lat="45.0889" lon="6.0181">
        <ele>721.7</ele>
        <time>2026-08-25T07:12:03Z</time>
      </trkpt>
      <trkpt lat="45.08883" lon="6.01809">
        <ele>721.8</ele>
        <time>2026-08-25T07:12:04Z</time>
      </trkpt>
      <trkpt lat="45.08877" lon="6.01808">
        <ele>721.8</ele>
        <time>2026-08-25T07:12:05Z</time>
      </trkpt>
      <trkpt lat="45.0887" lon="6.01808">
        <ele>721.8</ele>
        <time>2026-08-25T07:12:06Z</time>
      </trkpt>
      <trkpt lat="45.08863" lon="6.01807">
        <ele>721.8</ele>
        <time>2026-08-25T07:12:07Z</time>
      </trkpt>
      <trkpt lat="45.08857" lon="6.01807">
        <ele>721.8</ele>
        <time>2026-08-25T07:12:08Z</time>
      </trkpt>
      <trkpt lat="45.0885" lon="6.01807">
        <ele>721.8</ele>
        <time>2026-08-25T07:12:09Z</time>
      </trkpt>
      <trkpt lat="45.08843" lon="6.01807">
        <ele>721.8</ele>
        <time>2026-08-25T07:12:10Z</time>
      </trkpt>
      <trkpt lat="45.08837" lon="6.01806">
        <ele>721.8</ele>
        <time>2026-08-25T07:12:11Z</time>
      </trkpt>
      <trkpt lat="45.0883" lon="6.01805">
        <ele>721.8</ele>
        <time>2026-08-25T07:12:12Z</time>
      </trkpt>
      <trkpt lat="45.08824" lon="6.01804">
        <ele>721.8</ele>
        <time>2026-08-25T07:12:13Z</time>
      </trkpt>
      <trkpt lat="45.08817" lon="6.01804">
        <ele>721.8</ele>
        <time>2026-08-25T07:12:14Z</time>
      </trkpt>
      <trkpt lat="45.0881" lon="6.01804">
        <ele>721.8</ele>
        <time>2026-08-25T07:12:15Z</time>
      </trkpt>
      <trkpt lat="45.08803" lon="6.01803">
        <ele>721.8</ele>
        <time>2026-08-25T07:12:16Z</time>
      </trkpt>
      <trkpt lat="45.08796" lon="6.01803">
        <ele>721.9</ele>
        <time>2026-08-25T07:12:17Z</time>
      </trkpt>
      <trkpt lat="45.0879" lon="6.01802">
        <ele>721.9</ele>
        <time>2026-08-25T07:12:18Z</time>
      </trkpt>
      <trkpt lat="45.08783" lon="6.01802">
        <ele>721.9</ele>
        <time>2026-08-25T07:12:19Z</time>
      </trkpt>
      <trkpt lat="45.08776" lon="6.01802">
        <ele>721.9</ele>
        <time>2026-08-25T07:12:20Z</time>
      </trkpt>
      <trkpt lat="45.08769" lon="6.01802">
        <ele>722</ele>
        <time>2026-08-25T07:12:21Z</time>
      </trkpt>
      <trkpt lat="45.08762" lon="6.01801">
        <ele>722</ele>
        <time>2026-08-25T07:12:22Z</time>
      </trkpt>
      <trkpt lat="45.08755" lon="6.01801">
        <ele>722</ele>
        <time>2026-08-25T07:12:23Z</time>
      </trkpt>
      <trkpt lat="45.08748" lon="6.01801">
        <ele>722</ele>
        <time>2026-08-25T07:12:24Z</time>
      </trkpt>
      <trkpt lat="45.08741" lon="6.018">
        <ele>722</ele>
        <time>2026-08-25T07:12:25Z</time>
      </trkpt>
      <trkpt lat="45.08735" lon="6.018">
        <ele>722</ele>
        <time>2026-08-25T07:12:26Z</time>
      </trkpt>
      <trkpt lat="45.08728" lon="6.01799">
        <ele>722</ele>
        <time>2026-08-25T07:12:27Z</time>
      </trkpt>
      <trkpt lat="45.08721" lon="6.01799">
        <ele>722</ele>
        <time>2026-08-25T07:12:28Z</time>
      </trkpt>
      <trkpt lat="45.08714" lon="6.01799">
        <ele>722</ele>
        <time>2026-08-25T07:12:29Z</time>
      </trkpt>
      <trkpt lat="45.08707" lon="6.01798">
        <ele>722</ele>
        <time>2026-08-25T07:12:30Z</time>
      </trkpt>
      <trkpt lat="45.08701" lon="6.01798">
        <ele>722</ele>
        <time>2026-08-25T07:12:31Z</time>
      </trkpt>
      <trkpt lat="45.08694" lon="6.01798">
        <ele>722</ele>
        <time>2026-08-25T07:12:32Z</time>
      </trkpt>
      <trkpt lat="45.08687" lon="6.01797">
        <ele>722.1</ele>
        <time>2026-08-25T07:12:33Z</time>
      </trkpt>
      <trkpt lat="45.08681" lon="6.01797">
        <ele>722.1</ele>
        <time>2026-08-25T07:12:34Z</time>
      </trkpt>
      <trkpt lat="45.08674" lon="6.01796">
        <ele>722.1</ele>
        <time>2026-08-25T07:12:35Z</time>
      </trkpt>
      <trkpt lat="45.08668" lon="6.01795">
        <ele>722.1</ele>
        <time>2026-08-25T07:12:36Z</time>
      </trkpt>
      <trkpt lat="45.08661" lon="6.01795">
        <ele>722.1</ele>
        <time>2026-08-25T07:12:37Z</time>
      </trkpt>
      <trkpt lat="45.08654" lon="6.01794">
        <ele>722.2</ele>
        <time>2026-08-25T07:12:38Z</time>
      </trkpt>
      <trkpt lat="45.08648" lon="6.01794">
        <ele>722.2</ele>
        <time>2026-08-25T07:12:39Z</time>
      </trkpt>
      <trkpt lat="45.08641" lon="6.01794">
        <ele>722.2</ele>
        <time>2026-08-25T07:12:40Z</time>
      </trkpt>
      <trkpt lat="45.08635" lon="6.01793">
        <ele>722.3</ele>
        <time>2026-08-25T07:12:41Z</time>
      </trkpt>
      <trkpt lat="45.08628" lon="6.01792">
        <ele>722.3</ele>
        <time>2026-08-25T07:12:42Z</time>
      </trkpt>
      <trkpt lat="45.08621" lon="6.01792">
        <ele>722.3</ele>
        <time>2026-08-25T07:12:43Z</time>
      </trkpt>
      <trkpt lat="45.08615" lon="6.01791">
        <ele>722.3</ele>
        <time>2026-08-25T07:12:44Z</time>
      </trkpt>
      <trkpt lat="45.08608" lon="6.0179">
        <ele>722.3</ele>
        <time>2026-08-25T07:12:45Z</time>
      </trkpt>
      <trkpt lat="45.08602" lon="6.0179">
        <ele>722.3</ele>
        <time>2026-08-25T07:12:46Z</time>
      </trkpt>
      <trkpt lat="45.08596" lon="6.01789">
        <ele>722.2</ele>
        <time>2026-08-25T07:12:47Z</time>
      </trkpt>
      <trkpt lat="45.08589" lon="6.01789">
        <ele>722.2</ele>
        <time>2026-08-25T07:12:48Z</time>
      </trkpt>
      <trkpt lat="45.08582" lon="6.01789">
        <ele>722.2</ele>
        <time>2026-08-25T07:12:49Z</time>
      </trkpt>
      <trkpt lat="45.08575" lon="6.01789">
        <ele>722.2</ele>
        <time>2026-08-25T07:12:50Z</time>
      </trkpt>
      <trkpt lat="45.08569" lon="6.01789">
        <ele>722.2</ele>
        <time>2026-08-25T07:12:51Z</time>
      </trkpt>
      <trkpt lat="45.08562" lon="6.01788">
        <ele>722.1</ele>
        <time>2026-08-25T07:12:52Z</time>
      </trkpt>
      <trkpt lat="45.08556" lon="6.01788">
        <ele>722.1</ele>
        <time>2026-08-25T07:12:53Z</time>
      </trkpt>
      <trkpt lat="45.08549" lon="6.01788">
        <ele>722</ele>
        <time>2026-08-25T07:12:54Z</time>
      </trkpt>
      <trkpt lat="45.08542" lon="6.01787">
        <ele>722</ele>
        <time>2026-08-25T07:12:55Z</time>
      </trkpt>
      <trkpt lat="45.08536" lon="6.01787">
        <ele>721.9</ele>
        <time>2026-08-25T07:12:56Z</time>
      </trkpt>
      <trkpt lat="45.08529" lon="6.01787">
        <ele>721.9</ele>
        <time>2026-08-25T07:12:57Z</time>
      </trkpt>
      <trkpt lat="45.08523" lon="6.01787">
        <ele>721.9</ele>
        <time>2026-08-25T07:12:58Z</time>
      </trkpt>
      <trkpt lat="45.08516" lon="6.01787">
        <ele>721.9</ele>
        <time>2026-08-25T07:12:59Z</time>
      </trkpt>
      <trkpt lat="45.0851" lon="6.01787">
        <ele>721.9</ele>
        <time>2026-08-25T07:13:00Z</time>
      </trkpt>
      <trkpt lat="45.08503" lon="6.01787">
        <ele>721.8</ele>
        <time>2026-08-25T07:13:01Z</time>
      </trkpt>
      <trkpt lat="45.08496" lon="6.01787">
        <ele>721.8</ele>
        <time>2026-08-25T07:13:02Z</time>
      </trkpt>
      <trkpt lat="45.08489" lon="6.01787">
        <ele>721.9</ele>
        <time>2026-08-25T07:13:03Z</time>
      </trkpt>
      <trkpt lat="45.08483" lon="6.01787">
        <ele>721.9</ele>
        <time>2026-08-25T07:13:04Z</time>
      </trkpt>
      <trkpt lat="45.08476" lon="6.01787">
        <ele>721.9</ele>
        <time>2026-08-25T07:13:05Z</time>
      </trkpt>
      <trkpt lat="45.0847" lon="6.01787">
        <ele>721.9</ele>
        <time>2026-08-25T07:13:06Z</time>
      </trkpt>
      <trkpt lat="45.08463" lon="6.01788">
        <ele>721.9</ele>
        <time>2026-08-25T07:13:07Z</time>
      </trkpt>
      <trkpt lat="45.08457" lon="6.01787">
        <ele>722</ele>
        <time>2026-08-25T07:13:08Z</time>
      </trkpt>
      <trkpt lat="45.0845" lon="6.01788">
        <ele>722.1</ele>
        <time>2026-08-25T07:13:09Z</time>
      </trkpt>
      <trkpt lat="45.08444" lon="6.01788">
        <ele>722.2</ele>
        <time>2026-08-25T07:13:10Z</time>
      </trkpt>
      <trkpt lat="45.08437" lon="6.01789">
        <ele>722.4</ele>
        <time>2026-08-25T07:13:11Z</time>
      </trkpt>
      <trkpt lat="45.08431" lon="6.01789">
        <ele>722.5</ele>
        <time>2026-08-25T07:13:12Z</time>
      </trkpt>
      <trkpt lat="45.08425" lon="6.01789">
        <ele>722.7</ele>
        <time>2026-08-25T07:13:13Z</time>
      </trkpt>
      <trkpt lat="45.08418" lon="6.01789">
        <ele>722.9</ele>
        <time>2026-08-25T07:13:14Z</time>
      </trkpt>
      <trkpt lat="45.08412" lon="6.01789">
        <ele>723</ele>
        <time>2026-08-25T07:13:15Z</time>
      </trkpt>
      <trkpt lat="45.08406" lon="6.01789">
        <ele>723</ele>
        <time>2026-08-25T07:13:16Z</time>
      </trkpt>
      <trkpt lat="45.08402" lon="6.01789">
        <ele>722.9</ele>
        <time>2026-08-25T07:13:17Z</time>
      </trkpt>
      <trkpt lat="45.08399" lon="6.01787">
        <ele>722.9</ele>
        <time>2026-08-25T07:13:18Z</time>
      </trkpt>
      <trkpt lat="45.08396" lon="6.01788">
        <ele>722.9</ele>
        <time>2026-08-25T07:13:19Z</time>
      </trkpt>
      <trkpt lat="45.08396" lon="6.01791">
        <ele>722.9</ele>
        <time>2026-08-25T07:13:20Z</time>
      </trkpt>
      <trkpt lat="45.08397" lon="6.01791">
        <ele>722.9</ele>
        <time>2026-08-25T07:13:21Z</time>
      </trkpt>
      <trkpt lat="45.08399" lon="6.0179">
        <ele>722.9</ele>
        <time>2026-08-25T07:13:22Z</time>
      </trkpt>
      <trkpt lat="45.084" lon="6.0179">
        <ele>722.9</ele>
        <time>2026-08-25T07:13:23Z</time>
      </trkpt>
      <trkpt lat="45.08402" lon="6.0179">
        <ele>722.9</ele>
        <time>2026-08-25T07:13:24Z</time>
      </trkpt>
      <trkpt lat="45.08405" lon="6.01789">
        <ele>722.9</ele>
        <time>2026-08-25T07:13:25Z</time>
      </trkpt>
      <trkpt lat="45.08408" lon="6.01788">
        <ele>723</ele>
        <time>2026-08-25T07:13:26Z</time>
      </trkpt>
      <trkpt lat="45.08411" lon="6.01787">
        <ele>723</ele>
        <time>2026-08-25T07:13:27Z</time>
      </trkpt>
      <trkpt lat="45.08415" lon="6.01789">
        <ele>723</ele>
        <time>2026-08-25T07:13:28Z</time>
      </trkpt>
      <trkpt lat="45.08417" lon="6.01793">
        <ele>723</ele>
        <time>2026-08-25T07:13:29Z</time>
      </trkpt>
      <trkpt lat="45.08418" lon="6.01797">
        <ele>723</ele>
        <time>2026-08-25T07:13:30Z</time>
      </trkpt>
      <trkpt lat="45.08418" lon="6.01801">
        <ele>723</ele>
        <time>2026-08-25T07:13:31Z</time>
      </trkpt>
      <trkpt lat="45.08418" lon="6.01806">
        <ele>723.1</ele>
        <time>2026-08-25T07:13:32Z</time>
      </trkpt>
      <trkpt lat="45.08418" lon="6.01811">
        <ele>723</ele>
        <time>2026-08-25T07:13:33Z</time>
      </trkpt>
      <trkpt lat="45.08418" lon="6.01816">
        <ele>722.9</ele>
        <time>2026-08-25T07:13:34Z</time>
      </trkpt>
      <trkpt lat="45.08418" lon="6.01822">
        <ele>722.8</ele>
        <time>2026-08-25T07:13:35Z</time>
      </trkpt>
      <trkpt lat="45.08416" lon="6.01828">
        <ele>722.7</ele>
        <time>2026-08-25T07:13:36Z</time>
      </trkpt>
      <trkpt lat="45.08413" lon="6.01833">
        <ele>722.6</ele>
        <time>2026-08-25T07:13:37Z</time>
      </trkpt>
      <trkpt lat="45.08408" lon="6.01836">
        <ele>722.4</ele>
        <time>2026-08-25T07:13:38Z</time>
      </trkpt>
      <trkpt lat="45.08404" lon="6.01839">
        <ele>722.3</ele>
        <time>2026-08-25T07:13:39Z</time>
      </trkpt>
      <trkpt lat="45.08401" lon="6.01843">
        <ele>722.2</ele>
        <time>2026-08-25T07:13:40Z</time>
      </trkpt>
      <trkpt lat="45.08397" lon="6.01847">
        <ele>722.2</ele>
        <time>2026-08-25T07:13:41Z</time>
      </trkpt>
      <trkpt lat="45.08393" lon="6.0185">
        <ele>722.1</ele>
        <time>2026-08-25T07:13:42Z</time>
      </trkpt>
      <trkpt lat="45.08388" lon="6.01853">
        <ele>722</ele>
        <time>2026-08-25T07:13:43Z</time>
      </trkpt>
      <trkpt lat="45.08384" lon="6.01857">
        <ele>721.9</ele>
        <time>2026-08-25T07:13:44Z</time>
      </trkpt>
      <trkpt lat="45.08378" lon="6.01861">
        <ele>721.9</ele>
        <time>2026-08-25T07:13:45Z</time>
      </trkpt>
      <trkpt lat="45.08373" lon="6.01864">
        <ele>721.8</ele>
        <time>2026-08-25T07:13:46Z</time>
      </trkpt>
      <trkpt lat="45.08367" lon="6.01868">
        <ele>721.8</ele>
        <time>2026-08-25T07:13:47Z</time>
      </trkpt>
      <trkpt lat="45.08362" lon="6.01873">
        <ele>721.8</ele>
        <time>2026-08-25T07:13:48Z</time>
      </trkpt>
      <trkpt lat="45.08357" lon="6.01876">
        <ele>721.8</ele>
        <time>2026-08-25T07:13:49Z</time>
      </trkpt>
      <trkpt lat="45.08352" lon="6.01879">
        <ele>721.8</ele>
        <time>2026-08-25T07:13:50Z</time>
      </trkpt>
      <trkpt lat="45.08347" lon="6.01882">
        <ele>721.8</ele>
        <time>2026-08-25T07:13:51Z</time>
      </trkpt>
      <trkpt lat="45.08342" lon="6.01885">
        <ele>721.8</ele>
        <time>2026-08-25T07:13:52Z</time>
      </trkpt>
      <trkpt lat="45.08337" lon="6.01888">
        <ele>721.8</ele>
        <time>2026-08-25T07:13:53Z</time>
      </trkpt>
      <trkpt lat="45.08332" lon="6.01892">
        <ele>721.8</ele>
        <time>2026-08-25T07:13:54Z</time>
      </trkpt>
      <trkpt lat="45.08327" lon="6.01895">
        <ele>721.8</ele>
        <time>2026-08-25T07:13:55Z</time>
      </trkpt>
      <trkpt lat="45.08322" lon="6.01898">
        <ele>721.8</ele>
        <time>2026-08-25T07:13:56Z</time>
      </trkpt>
      <trkpt lat="45.08317" lon="6.01902">
        <ele>721.8</ele>
        <time>2026-08-25T07:13:57Z</time>
      </trkpt>
      <trkpt lat="45.08312" lon="6.01905">
        <ele>721.8</ele>
        <time>2026-08-25T07:13:58Z</time>
      </trkpt>
      <trkpt lat="45.08306" lon="6.01908">
        <ele>721.8</ele>
        <time>2026-08-25T07:13:59Z</time>
      </trkpt>
      <trkpt lat="45.08301" lon="6.01912">
        <ele>721.8</ele>
        <time>2026-08-25T07:14:00Z</time>
      </trkpt>
      <trkpt lat="45.08296" lon="6.01915">
        <ele>721.8</ele>
        <time>2026-08-25T07:14:01Z</time>
      </trkpt>
      <trkpt lat="45.0829" lon="6.01919">
        <ele>721.8</ele>
        <time>2026-08-25T07:14:02Z</time>
      </trkpt>
      <trkpt lat="45.08285" lon="6.01922">
        <ele>721.8</ele>
        <time>2026-08-25T07:14:03Z</time>
      </trkpt>
      <trkpt lat="45.08279" lon="6.01926">
        <ele>721.8</ele>
        <time>2026-08-25T07:14:04Z</time>
      </trkpt>
      <trkpt lat="45.08274" lon="6.01931">
        <ele>721.8</ele>
        <time>2026-08-25T07:14:05Z</time>
      </trkpt>
      <trkpt lat="45.08269" lon="6.01934">
        <ele>721.8</ele>
        <time>2026-08-25T07:14:06Z</time>
      </trkpt>
      <trkpt lat="45.08263" lon="6.01937">
        <ele>721.9</ele>
        <time>2026-08-25T07:14:07Z</time>
      </trkpt>
      <trkpt lat="45.08258" lon="6.01941">
        <ele>721.9</ele>
        <time>2026-08-25T07:14:08Z</time>
      </trkpt>
      <trkpt lat="45.08252" lon="6.01945">
        <ele>721.9</ele>
        <time>2026-08-25T07:14:09Z</time>
      </trkpt>
      <trkpt lat="45.08247" lon="6.01948">
        <ele>721.9</ele>
        <time>2026-08-25T07:14:10Z</time>
      </trkpt>
      <trkpt lat="45.08242" lon="6.01952">
        <ele>722</ele>
        <time>2026-08-25T07:14:11Z</time>
      </trkpt>
      <trkpt lat="45.08237" lon="6.01955">
        <ele>722</ele>
        <time>2026-08-25T07:14:12Z</time>
      </trkpt>
      <trkpt lat="45.08232" lon="6.01958">
        <ele>722</ele>
        <time>2026-08-25T07:14:13Z</time>
      </trkpt>
      <trkpt lat="45.08227" lon="6.01962">
        <ele>722</ele>
        <time>2026-08-25T07:14:14Z</time>
      </trkpt>
      <trkpt lat="45.08221" lon="6.01964">
        <ele>722</ele>
        <time>2026-08-25T07:14:15Z</time>
      </trkpt>
      <trkpt lat="45.08216" lon="6.01968">
        <ele>722</ele>
        <time>2026-08-25T07:14:16Z</time>
      </trkpt>
      <trkpt lat="45.08211" lon="6.01971">
        <ele>722</ele>
        <time>2026-08-25T07:14:17Z</time>
      </trkpt>
      <trkpt lat="45.08206" lon="6.01975">
        <ele>721.9</ele>
        <time>2026-08-25T07:14:18Z</time>
      </trkpt>
      <trkpt lat="45.082" lon="6.01979">
        <ele>721.9</ele>
        <time>2026-08-25T07:14:19Z</time>
      </trkpt>
      <trkpt lat="45.08195" lon="6.01983">
        <ele>721.9</ele>
        <time>2026-08-25T07:14:20Z</time>
      </trkpt>
      <trkpt lat="45.0819" lon="6.01987">
        <ele>721.9</ele>
        <time>2026-08-25T07:14:21Z</time>
      </trkpt>
      <trkpt lat="45.08185" lon="6.0199">
        <ele>722</ele>
        <time>2026-08-25T07:14:22Z</time>
      </trkpt>
      <trkpt lat="45.0818" lon="6.01994">
        <ele>722</ele>
        <time>2026-08-25T07:14:23Z</time>
      </trkpt>
      <trkpt lat="45.08174" lon="6.01998">
        <ele>722.1</ele>
        <time>2026-08-25T07:14:24Z</time>
      </trkpt>
      <trkpt lat="45.08169" lon="6.02002">
        <ele>722.1</ele>
        <time>2026-08-25T07:14:25Z</time>
      </trkpt>
      <trkpt lat="45.08163" lon="6.02006">
        <ele>722.2</ele>
        <time>2026-08-25T07:14:26Z</time>
      </trkpt>
      <trkpt lat="45.08157" lon="6.0201">
        <ele>722.2</ele>
        <time>2026-08-25T07:14:27Z</time>
      </trkpt>
      <trkpt lat="45.08152" lon="6.02014">
        <ele>722.3</ele>
        <time>2026-08-25T07:14:28Z</time>
      </trkpt>
      <trkpt lat="45.08147" lon="6.02017">
        <ele>722.4</ele>
        <time>2026-08-25T07:14:29Z</time>
      </trkpt>
      <trkpt lat="45.08141" lon="6.0202">
        <ele>722.5</ele>
        <time>2026-08-25T07:14:30Z</time>
      </trkpt>
      <trkpt lat="45.08135" lon="6.02023">
        <ele>722.6</ele>
        <time>2026-08-25T07:14:31Z</time>
      </trkpt>
      <trkpt lat="45.08129" lon="6.02025">
        <ele>722.7</ele>
        <time>2026-08-25T07:14:32Z</time>
      </trkpt>
      <trkpt lat="45.08123" lon="6.02027">
        <ele>722.9</ele>
        <time>2026-08-25T07:14:33Z</time>
      </trkpt>
      <trkpt lat="45.08117" lon="6.02029">
        <ele>723.1</ele>
        <time>2026-08-25T07:14:34Z</time>
      </trkpt>
      <trkpt lat="45.08111" lon="6.02031">
        <ele>723.4</ele>
        <time>2026-08-25T07:14:35Z</time>
      </trkpt>
      <trkpt lat="45.08107" lon="6.02035">
        <ele>723.7</ele>
        <time>2026-08-25T07:14:36Z</time>
      </trkpt>
      <trkpt lat="45.08106" lon="6.02039">
        <ele>723.9</ele>
        <time>2026-08-25T07:14:37Z</time>
      </trkpt>
      <trkpt lat="45.08105" lon="6.02044">
        <ele>724.2</ele>
        <time>2026-08-25T07:14:38Z</time>
      </trkpt>
      <trkpt lat="45.08105" lon="6.02048">
        <ele>724.4</ele>
        <time>2026-08-25T07:14:39Z</time>
      </trkpt>
      <trkpt lat="45.08105" lon="6.02052">
        <ele>724.4</ele>
        <time>2026-08-25T07:14:40Z</time>
      </trkpt>
      <trkpt lat="45.08106" lon="6.02056">
        <ele>724.4</ele>
        <time>2026-08-25T07:14:41Z</time>
      </trkpt>
      <trkpt lat="45.08107" lon="6.0206">
        <ele>724.4</ele>
        <time>2026-08-25T07:14:42Z</time>
      </trkpt>
      <trkpt lat="45.08108" lon="6.02064">
        <ele>724.4</ele>
        <time>2026-08-25T07:14:43Z</time>
      </trkpt>
      <trkpt lat="45.08109" lon="6.02069">
        <ele>724.4</ele>
        <time>2026-08-25T07:14:44Z</time>
      </trkpt>
      <trkpt lat="45.0811" lon="6.02074">
        <ele>724.4</ele>
        <time>2026-08-25T07:14:45Z</time>
      </trkpt>
      <trkpt lat="45.08109" lon="6.02078">
        <ele>724.4</ele>
        <time>2026-08-25T07:14:46Z</time>
      </trkpt>
      <trkpt lat="45.08107" lon="6.02081">
        <ele>724.2</ele>
        <time>2026-08-25T07:14:47Z</time>
      </trkpt>
      <trkpt lat="45.08103" lon="6.02084">
        <ele>723.9</ele>
        <time>2026-08-25T07:14:48Z</time>
      </trkpt>
      <trkpt lat="45.08099" lon="6.02087">
        <ele>723.6</ele>
        <time>2026-08-25T07:14:49Z</time>
      </trkpt>
      <trkpt lat="45.08094" lon="6.02091">
        <ele>723.4</ele>
        <time>2026-08-25T07:14:50Z</time>
      </trkpt>
      <trkpt lat="45.08089" lon="6.02094">
        <ele>723.1</ele>
        <time>2026-08-25T07:14:51Z</time>
      </trkpt>
      <trkpt lat="45.08084" lon="6.02098">
        <ele>722.9</ele>
        <time>2026-08-25T07:14:52Z</time>
      </trkpt>
      <trkpt lat="45.08079" lon="6.02102">
        <ele>722.7</ele>
        <time>2026-08-25T07:14:53Z</time>
      </trkpt>
      <trkpt lat="45.08073" lon="6.02106">
        <ele>722.5</ele>
        <time>2026-08-25T07:14:54Z</time>
      </trkpt>
      <trkpt lat="45.08068" lon="6.02109">
        <ele>722.4</ele>
        <time>2026-08-25T07:14:55Z</time>
      </trkpt>
      <trkpt lat="45.08063" lon="6.02113">
        <ele>722.3</ele>
        <time>2026-08-25T07:14:56Z</time>
      </trkpt>
      <trkpt lat="45.08057" lon="6.02117">
        <ele>722.2</ele>
        <time>2026-08-25T07:14:57Z</time>
      </trkpt>
      <trkpt lat="45.08052" lon="6.0212">
        <ele>722.1</ele>
        <time>2026-08-25T07:14:58Z</time>
      </trkpt>
      <trkpt lat="45.08046" lon="6.02124">
        <ele>722.1</ele>
        <time>2026-08-25T07:14:59Z</time>
      </trkpt>
      <trkpt lat="45.08041" lon="6.02128">
        <ele>722.1</ele>
        <time>2026-08-25T07:15:00Z</time>
      </trkpt>
      <trkpt lat="45.08035" lon="6.02132">
        <ele>722.1</ele>
        <time>2026-08-25T07:15:01Z</time>
      </trkpt>
      <trkpt lat="45.0803" lon="6.02136">
        <ele>722.1</ele>
        <time>2026-08-25T07:15:02Z</time>
      </trkpt>
      <trkpt lat="45.08024" lon="6.02139">
        <ele>722.1</ele>
        <time>2026-08-25T07:15:03Z</time>
      </trkpt>
      <trkpt lat="45.08019" lon="6.02143">
        <ele>722.1</ele>
        <time>2026-08-25T07:15:04Z</time>
      </trkpt>
      <trkpt lat="45.08013" lon="6.02148">
        <ele>722.1</ele>
        <time>2026-08-25T07:15:05Z</time>
      </trkpt>
      <trkpt lat="45.08008" lon="6.02151">
        <ele>722.1</ele>
        <time>2026-08-25T07:15:06Z</time>
      </trkpt>
      <trkpt lat="45.08003" lon="6.02155">
        <ele>722.1</ele>
        <time>2026-08-25T07:15:07Z</time>
      </trkpt>
      <trkpt lat="45.07998" lon="6.02158">
        <ele>722.1</ele>
        <time>2026-08-25T07:15:08Z</time>
      </trkpt>
      <trkpt lat="45.07992" lon="6.02162">
        <ele>722.1</ele>
        <time>2026-08-25T07:15:09Z</time>
      </trkpt>
      <trkpt lat="45.07987" lon="6.02166">
        <ele>722.1</ele>
        <time>2026-08-25T07:15:10Z</time>
      </trkpt>
      <trkpt lat="45.07982" lon="6.0217">
        <ele>722.1</ele>
        <time>2026-08-25T07:15:11Z</time>
      </trkpt>
      <trkpt lat="45.07976" lon="6.02174">
        <ele>722.1</ele>
        <time>2026-08-25T07:15:12Z</time>
      </trkpt>
      <trkpt lat="45.07971" lon="6.02178">
        <ele>722.1</ele>
        <time>2026-08-25T07:15:13Z</time>
      </trkpt>
      <trkpt lat="45.07966" lon="6.02181">
        <ele>722.1</ele>
        <time>2026-08-25T07:15:14Z</time>
      </trkpt>
      <trkpt lat="45.0796" lon="6.02185">
        <ele>722.1</ele>
        <time>2026-08-25T07:15:15Z</time>
      </trkpt>
      <trkpt lat="45.07954" lon="6.02189">
        <ele>722.1</ele>
        <time>2026-08-25T07:15:16Z</time>
      </trkpt>
      <trkpt lat="45.07949" lon="6.02193">
        <ele>722.1</ele>
        <time>2026-08-25T07:15:17Z</time>
      </trkpt>
      <trkpt lat="45.07943" lon="6.02197">
        <ele>722.1</ele>
        <time>2026-08-25T07:15:18Z</time>
      </trkpt>
      <trkpt lat="45.07937" lon="6.02201">
        <ele>722.2</ele>
        <time>2026-08-25T07:15:19Z</time>
      </trkpt>
      <trkpt lat="45.07931" lon="6.02204">
        <ele>722.2</ele>
        <time>2026-08-25T07:15:20Z</time>
      </trkpt>
      <trkpt lat="45.07926" lon="6.02208">
        <ele>722.2</ele>
        <time>2026-08-25T07:15:21Z</time>
      </trkpt>
      <trkpt lat="45.0792" lon="6.02212">
        <ele>722.2</ele>
        <time>2026-08-25T07:15:22Z</time>
      </trkpt>
      <trkpt lat="45.07914" lon="6.02216">
        <ele>722.2</ele>
        <time>2026-08-25T07:15:23Z</time>
      </trkpt>
      <trkpt lat="45.07908" lon="6.0222">
        <ele>722.2</ele>
        <time>2026-08-25T07:15:24Z</time>
      </trkpt>
      <trkpt lat="45.07902" lon="6.02223">
        <ele>722.3</ele>
        <time>2026-08-25T07:15:25Z</time>
      </trkpt>
      <trkpt lat="45.07896" lon="6.02227">
        <ele>722.3</ele>
        <time>2026-08-25T07:15:26Z</time>
      </trkpt>
      <trkpt lat="45.07891" lon="6.0223">
        <ele>722.3</ele>
        <time>2026-08-25T07:15:27Z</time>
      </trkpt>
      <trkpt lat="45.07885" lon="6.02234">
        <ele>722.4</ele>
        <time>2026-08-25T07:15:28Z</time>
      </trkpt>
      <trkpt lat="45.07879" lon="6.02238">
        <ele>722.4</ele>
        <time>2026-08-25T07:15:29Z</time>
      </trkpt>
      <trkpt lat="45.07873" lon="6.02241">
        <ele>722.4</ele>
        <time>2026-08-25T07:15:30Z</time>
      </trkpt>
      <trkpt lat="45.07867" lon="6.02245">
        <ele>722.5</ele>
        <time>2026-08-25T07:15:31Z</time>
      </trkpt>
      <trkpt lat="45.07861" lon="6.02249">
        <ele>722.5</ele>
        <time>2026-08-25T07:15:32Z</time>
      </trkpt>
      <trkpt lat="45.07855" lon="6.02252">
        <ele>722.5</ele>
        <time>2026-08-25T07:15:33Z</time>
      </trkpt>
      <trkpt lat="45.07849" lon="6.02256">
        <ele>722.6</ele>
        <time>2026-08-25T07:15:34Z</time>
      </trkpt>
      <trkpt lat="45.07843" lon="6.0226">
        <ele>722.6</ele>
        <time>2026-08-25T07:15:35Z</time>
      </trkpt>
      <trkpt lat="45.07837" lon="6.02264">
        <ele>722.6</ele>
        <time>2026-08-25T07:15:36Z</time>
      </trkpt>
      <trkpt lat="45.07831" lon="6.02267">
        <ele>722.6</ele>
        <time>2026-08-25T07:15:37Z</time>
      </trkpt>
      <trkpt lat="45.07825" lon="6.02271">
        <ele>722.7</ele>
        <time>2026-08-25T07:15:38Z</time>
      </trkpt>
      <trkpt lat="45.07819" lon="6.02274">
        <ele>722.7</ele>
        <time>2026-08-25T07:15:39Z</time>
      </trkpt>
      <trkpt lat="45.07813" lon="6.02278">
        <ele>722.7</ele>
        <time>2026-08-25T07:15:40Z</time>
      </trkpt>
      <trkpt lat="45.07807" lon="6.02281">
        <ele>722.7</ele>
        <time>2026-08-25T07:15:41Z</time>
      </trkpt>
      <trkpt lat="45.07801" lon="6.02285">
        <ele>722.8</ele>
        <time>2026-08-25T07:15:42Z</time>
      </trkpt>
      <trkpt lat="45.07794" lon="6.02289">
        <ele>722.8</ele>
        <time>2026-08-25T07:15:43Z</time>
      </trkpt>
      <trkpt lat="45.07788" lon="6.02292">
        <ele>722.8</ele>
        <time>2026-08-25T07:15:44Z</time>
      </trkpt>
      <trkpt lat="45.07782" lon="6.02295">
        <ele>722.8</ele>
        <time>2026-08-25T07:15:45Z</time>
      </trkpt>
      <trkpt lat="45.07776" lon="6.02299">
        <ele>722.9</ele>
        <time>2026-08-25T07:15:46Z</time>
      </trkpt>
      <trkpt lat="45.07769" lon="6.02302">
        <ele>722.9</ele>
        <time>2026-08-25T07:15:47Z</time>
      </trkpt>
      <trkpt lat="45.07763" lon="6.02306">
        <ele>722.9</ele>
        <time>2026-08-25T07:15:48Z</time>
      </trkpt>
      <trkpt lat="45.07757" lon="6.02309">
        <ele>723</ele>
        <time>2026-08-25T07:15:49Z</time>
      </trkpt>
      <trkpt lat="45.07751" lon="6.02312">
        <ele>723</ele>
        <time>2026-08-25T07:15:50Z</time>
      </trkpt>
      <trkpt lat="45.07745" lon="6.02315">
        <ele>723</ele>
        <time>2026-08-25T07:15:51Z</time>
      </trkpt>
      <trkpt lat="45.07739" lon="6.02319">
        <ele>723.1</ele>
        <time>2026-08-25T07:15:52Z</time>
      </trkpt>
      <trkpt lat="45.07733" lon="6.02322">
        <ele>723.1</ele>
        <time>2026-08-25T07:15:53Z</time>
      </trkpt>
      <trkpt lat="45.07726" lon="6.02326">
        <ele>723.1</ele>
        <time>2026-08-25T07:15:54Z</time>
      </trkpt>
      <trkpt lat="45.0772" lon="6.02329">
        <ele>723.1</ele>
        <time>2026-08-25T07:15:55Z</time>
      </trkpt>
      <trkpt lat="45.07714" lon="6.02332">
        <ele>723.1</ele>
        <time>2026-08-25T07:15:56Z</time>
      </trkpt>
      <trkpt lat="45.07708" lon="6.02335">
        <ele>723.1</ele>
        <time>2026-08-25T07:15:57Z</time>
      </trkpt>
      <trkpt lat="45.07702" lon="6.02338">
        <ele>723.2</ele>
        <time>2026-08-25T07:15:58Z</time>
      </trkpt>
      <trkpt lat="45.07695" lon="6.02342">
        <ele>723.2</ele>
        <time>2026-08-25T07:15:59Z</time>
      </trkpt>
      <trkpt lat="45.07689" lon="6.02345">
        <ele>723.2</ele>
        <time>2026-08-25T07:16:00Z</time>
      </trkpt>
      <trkpt lat="45.07683" lon="6.02348">
        <ele>723.3</ele>
        <time>2026-08-25T07:16:01Z</time>
      </trkpt>
      <trkpt lat="45.07676" lon="6.02351">
        <ele>723.3</ele>
        <time>2026-08-25T07:16:02Z</time>
      </trkpt>
      <trkpt lat="45.0767" lon="6.02354">
        <ele>723.4</ele>
        <time>2026-08-25T07:16:03Z</time>
      </trkpt>
      <trkpt lat="45.07663" lon="6.02357">
        <ele>723.5</ele>
        <time>2026-08-25T07:16:04Z</time>
      </trkpt>
      <trkpt lat="45.07657" lon="6.0236">
        <ele>723.6</ele>
        <time>2026-08-25T07:16:05Z</time>
      </trkpt>
      <trkpt lat="45.0765" lon="6.02363">
        <ele>723.6</ele>
        <time>2026-08-25T07:16:06Z</time>
      </trkpt>
      <trkpt lat="45.07644" lon="6.02365">
        <ele>723.7</ele>
        <time>2026-08-25T07:16:07Z</time>
      </trkpt>
      <trkpt lat="45.07638" lon="6.02368">
        <ele>723.7</ele>
        <time>2026-08-25T07:16:08Z</time>
      </trkpt>
      <trkpt lat="45.07632" lon="6.02371">
        <ele>723.6</ele>
        <time>2026-08-25T07:16:09Z</time>
      </trkpt>
      <trkpt lat="45.07626" lon="6.02374">
        <ele>723.6</ele>
        <time>2026-08-25T07:16:10Z</time>
      </trkpt>
      <trkpt lat="45.0762" lon="6.02377">
        <ele>723.6</ele>
        <time>2026-08-25T07:16:11Z</time>
      </trkpt>
      <trkpt lat="45.07613" lon="6.02379">
        <ele>723.6</ele>
        <time>2026-08-25T07:16:12Z</time>
      </trkpt>
      <trkpt lat="45.07607" lon="6.02382">
        <ele>723.6</ele>
        <time>2026-08-25T07:16:13Z</time>
      </trkpt>
      <trkpt lat="45.07601" lon="6.02384">
        <ele>723.6</ele>
        <time>2026-08-25T07:16:14Z</time>
      </trkpt>
      <trkpt lat="45.07594" lon="6.02387">
        <ele>723.6</ele>
        <time>2026-08-25T07:16:15Z</time>
      </trkpt>
      <trkpt lat="45.07588" lon="6.0239">
        <ele>723.6</ele>
        <time>2026-08-25T07:16:16Z</time>
      </trkpt>
      <trkpt lat="45.07582" lon="6.02392">
        <ele>723.7</ele>
        <time>2026-08-25T07:16:17Z</time>
      </trkpt>
      <trkpt lat="45.07576" lon="6.02395">
        <ele>723.7</ele>
        <time>2026-08-25T07:16:18Z</time>
      </trkpt>
      <trkpt lat="45.07569" lon="6.02398">
        <ele>723.7</ele>
        <time>2026-08-25T07:16:19Z</time>
      </trkpt>
      <trkpt lat="45.07563" lon="6.024">
        <ele>723.7</ele>
        <time>2026-08-25T07:16:20Z</time>
      </trkpt>
      <trkpt lat="45.07556" lon="6.02403">
        <ele>723.7</ele>
        <time>2026-08-25T07:16:21Z</time>
      </trkpt>
      <trkpt lat="45.0755" lon="6.02405">
        <ele>723.7</ele>
        <time>2026-08-25T07:16:22Z</time>
      </trkpt>
      <trkpt lat="45.07544" lon="6.02407">
        <ele>723.7</ele>
        <time>2026-08-25T07:16:23Z</time>
      </trkpt>
      <trkpt lat="45.07537" lon="6.0241">
        <ele>723.7</ele>
        <time>2026-08-25T07:16:24Z</time>
      </trkpt>
      <trkpt lat="45.07531" lon="6.02413">
        <ele>723.6</ele>
        <time>2026-08-25T07:16:25Z</time>
      </trkpt>
      <trkpt lat="45.07524" lon="6.02416">
        <ele>723.6</ele>
        <time>2026-08-25T07:16:26Z</time>
      </trkpt>
      <trkpt lat="45.07517" lon="6.02418">
        <ele>723.7</ele>
        <time>2026-08-25T07:16:27Z</time>
      </trkpt>
      <trkpt lat="45.07511" lon="6.02421">
        <ele>723.7</ele>
        <time>2026-08-25T07:16:28Z</time>
      </trkpt>
      <trkpt lat="45.07504" lon="6.02423">
        <ele>723.7</ele>
        <time>2026-08-25T07:16:29Z</time>
      </trkpt>
      <trkpt lat="45.07498" lon="6.02426">
        <ele>723.7</ele>
        <time>2026-08-25T07:16:30Z</time>
      </trkpt>
      <trkpt lat="45.07491" lon="6.02428">
        <ele>723.7</ele>
        <time>2026-08-25T07:16:31Z</time>
      </trkpt>
      <trkpt lat="45.07484" lon="6.02431">
        <ele>723.8</ele>
        <time>2026-08-25T07:16:32Z</time>
      </trkpt>
      <trkpt lat="45.07477" lon="6.02434">
        <ele>723.8</ele>
        <time>2026-08-25T07:16:33Z</time>
      </trkpt>
      <trkpt lat="45.07471" lon="6.02436">
        <ele>723.8</ele>
        <time>2026-08-25T07:16:34Z</time>
      </trkpt>
      <trkpt lat="45.07464" lon="6.02439">
        <ele>723.9</ele>
        <time>2026-08-25T07:16:35Z</time>
      </trkpt>
      <trkpt lat="45.07458" lon="6.02441">
        <ele>723.9</ele>
        <time>2026-08-25T07:16:36Z</time>
      </trkpt>
      <trkpt lat="45.07451" lon="6.02443">
        <ele>723.9</ele>
        <time>2026-08-25T07:16:37Z</time>
      </trkpt>
      <trkpt lat="45.07444" lon="6.02445">
        <ele>723.9</ele>
        <time>2026-08-25T07:16:38Z</time>
      </trkpt>
      <trkpt lat="45.07438" lon="6.02447">
        <ele>723.9</ele>
        <time>2026-08-25T07:16:39Z</time>
      </trkpt>
      <trkpt lat="45.07432" lon="6.02449">
        <ele>723.9</ele>
        <time>2026-08-25T07:16:40Z</time>
      </trkpt>
      <trkpt lat="45.07425" lon="6.02451">
        <ele>723.9</ele>
        <time>2026-08-25T07:16:41Z</time>
      </trkpt>
      <trkpt lat="45.07419" lon="6.02453">
        <ele>723.9</ele>
        <time>2026-08-25T07:16:42Z</time>
      </trkpt>
      <trkpt lat="45.07412" lon="6.02455">
        <ele>723.9</ele>
        <time>2026-08-25T07:16:43Z</time>
      </trkpt>
      <trkpt lat="45.07406" lon="6.02457">
        <ele>723.9</ele>
        <time>2026-08-25T07:16:44Z</time>
      </trkpt>
      <trkpt lat="45.07399" lon="6.02459">
        <ele>723.9</ele>
        <time>2026-08-25T07:16:45Z</time>
      </trkpt>
      <trkpt lat="45.07392" lon="6.02461">
        <ele>723.9</ele>
        <time>2026-08-25T07:16:46Z</time>
      </trkpt>
      <trkpt lat="45.07385" lon="6.02462">
        <ele>723.9</ele>
        <time>2026-08-25T07:16:47Z</time>
      </trkpt>
      <trkpt lat="45.07378" lon="6.02464">
        <ele>723.9</ele>
        <time>2026-08-25T07:16:48Z</time>
      </trkpt>
      <trkpt lat="45.07371" lon="6.02466">
        <ele>723.9</ele>
        <time>2026-08-25T07:16:49Z</time>
      </trkpt>
      <trkpt lat="45.07365" lon="6.02468">
        <ele>724</ele>
        <time>2026-08-25T07:16:50Z</time>
      </trkpt>
      <trkpt lat="45.07358" lon="6.0247">
        <ele>724</ele>
        <time>2026-08-25T07:16:51Z</time>
      </trkpt>
      <trkpt lat="45.07351" lon="6.02472">
        <ele>724.1</ele>
        <time>2026-08-25T07:16:52Z</time>
      </trkpt>
      <trkpt lat="45.07345" lon="6.02474">
        <ele>724.1</ele>
        <time>2026-08-25T07:16:53Z</time>
      </trkpt>
      <trkpt lat="45.07338" lon="6.02476">
        <ele>724.1</ele>
        <time>2026-08-25T07:16:54Z</time>
      </trkpt>
      <trkpt lat="45.07331" lon="6.02478">
        <ele>724.2</ele>
        <time>2026-08-25T07:16:55Z</time>
      </trkpt>
      <trkpt lat="45.07324" lon="6.0248">
        <ele>724.2</ele>
        <time>2026-08-25T07:16:56Z</time>
      </trkpt>
      <trkpt lat="45.07317" lon="6.02482">
        <ele>724.2</ele>
        <time>2026-08-25T07:16:57Z</time>
      </trkpt>
      <trkpt lat="45.07311" lon="6.02483">
        <ele>724.2</ele>
        <time>2026-08-25T07:16:58Z</time>
      </trkpt>
      <trkpt lat="45.07304" lon="6.02485">
        <ele>724.2</ele>
        <time>2026-08-25T07:16:59Z</time>
      </trkpt>
      <trkpt lat="45.07298" lon="6.02487">
        <ele>724.1</ele>
        <time>2026-08-25T07:17:00Z</time>
      </trkpt>
      <trkpt lat="45.07291" lon="6.02489">
        <ele>724.1</ele>
        <time>2026-08-25T07:17:01Z</time>
      </trkpt>
      <trkpt lat="45.07284" lon="6.02491">
        <ele>724.1</ele>
        <time>2026-08-25T07:17:02Z</time>
      </trkpt>
      <trkpt lat="45.07278" lon="6.02493">
        <ele>724.1</ele>
        <time>2026-08-25T07:17:03Z</time>
      </trkpt>
      <trkpt lat="45.07271" lon="6.02495">
        <ele>724.1</ele>
        <time>2026-08-25T07:17:04Z</time>
      </trkpt>
      <trkpt lat="45.07264" lon="6.02497">
        <ele>724.2</ele>
        <time>2026-08-25T07:17:05Z</time>
      </trkpt>
      <trkpt lat="45.07257" lon="6.02499">
        <ele>724.2</ele>
        <time>2026-08-25T07:17:06Z</time>
      </trkpt>
      <trkpt lat="45.07251" lon="6.02501">
        <ele>724.2</ele>
        <time>2026-08-25T07:17:07Z</time>
      </trkpt>
      <trkpt lat="45.07244" lon="6.02503">
        <ele>724.2</ele>
        <time>2026-08-25T07:17:08Z</time>
      </trkpt>
      <trkpt lat="45.07237" lon="6.02504">
        <ele>724.2</ele>
        <time>2026-08-25T07:17:09Z</time>
      </trkpt>
      <trkpt lat="45.07231" lon="6.02506">
        <ele>724.3</ele>
        <time>2026-08-25T07:17:10Z</time>
      </trkpt>
      <trkpt lat="45.07224" lon="6.02508">
        <ele>724.3</ele>
        <time>2026-08-25T07:17:11Z</time>
      </trkpt>
      <trkpt lat="45.07218" lon="6.02509">
        <ele>724.3</ele>
        <time>2026-08-25T07:17:12Z</time>
      </trkpt>
      <trkpt lat="45.07211" lon="6.02511">
        <ele>724.3</ele>
        <time>2026-08-25T07:17:13Z</time>
      </trkpt>
      <trkpt lat="45.07204" lon="6.02513">
        <ele>724.3</ele>
        <time>2026-08-25T07:17:14Z</time>
      </trkpt>
      <trkpt lat="45.07197" lon="6.02514">
        <ele>724.3</ele>
        <time>2026-08-25T07:17:15Z</time>
      </trkpt>
      <trkpt lat="45.07191" lon="6.02516">
        <ele>724.3</ele>
        <time>2026-08-25T07:17:16Z</time>
      </trkpt>
      <trkpt lat="45.07184" lon="6.02518">
        <ele>724.3</ele>
        <time>2026-08-25T07:17:17Z</time>
      </trkpt>
      <trkpt lat="45.07177" lon="6.0252">
        <ele>724.3</ele>
        <time>2026-08-25T07:17:18Z</time>
      </trkpt>
      <trkpt lat="45.0717" lon="6.02521">
        <ele>724.3</ele>
        <time>2026-08-25T07:17:19Z</time>
      </trkpt>
      <trkpt lat="45.07164" lon="6.02523">
        <ele>724.3</ele>
        <time>2026-08-25T07:17:20Z</time>
      </trkpt>
      <trkpt lat="45.07157" lon="6.02525">
        <ele>724.3</ele>
        <time>2026-08-25T07:17:21Z</time>
      </trkpt>
      <trkpt lat="45.0715" lon="6.02527">
        <ele>724.3</ele>
        <time>2026-08-25T07:17:22Z</time>
      </trkpt>
      <trkpt lat="45.07144" lon="6.02529">
        <ele>724.4</ele>
        <time>2026-08-25T07:17:23Z</time>
      </trkpt>
      <trkpt lat="45.07137" lon="6.02531">
        <ele>724.4</ele>
        <time>2026-08-25T07:17:24Z</time>
      </trkpt>
      <trkpt lat="45.07131" lon="6.02533">
        <ele>724.4</ele>
        <time>2026-08-25T07:17:25Z</time>
      </trkpt>
      <trkpt lat="45.07124" lon="6.02534">
        <ele>724.4</ele>
        <time>2026-08-25T07:17:26Z</time>
      </trkpt>
      <trkpt lat="45.07118" lon="6.02535">
        <ele>724.4</ele>
        <time>2026-08-25T07:17:27Z</time>
      </trkpt>
      <trkpt lat="45.07111" lon="6.02537">
        <ele>724.4</ele>
        <time>2026-08-25T07:17:28Z</time>
      </trkpt>
      <trkpt lat="45.07105" lon="6.02539">
        <ele>724.4</ele>
        <time>2026-08-25T07:17:29Z</time>
      </trkpt>
      <trkpt lat="45.07098" lon="6.02541">
        <ele>724.4</ele>
        <time>2026-08-25T07:17:30Z</time>
      </trkpt>
      <trkpt lat="45.07092" lon="6.02543">
        <ele>724.4</ele>
        <time>2026-08-25T07:17:31Z</time>
      </trkpt>
      <trkpt lat="45.07085" lon="6.02544">
        <ele>724.4</ele>
        <time>2026-08-25T07:17:32Z</time>
      </trkpt>
      <trkpt lat="45.07079" lon="6.02546">
        <ele>724.4</ele>
        <time>2026-08-25T07:17:33Z</time>
      </trkpt>
      <trkpt lat="45.07072" lon="6.02548">
        <ele>724.4</ele>
        <time>2026-08-25T07:17:34Z</time>
      </trkpt>
      <trkpt lat="45.07065" lon="6.02549">
        <ele>724.4</ele>
        <time>2026-08-25T07:17:35Z</time>
      </trkpt>
      <trkpt lat="45.07059" lon="6.02551">
        <ele>724.4</ele>
        <time>2026-08-25T07:17:36Z</time>
      </trkpt>
      <trkpt lat="45.07052" lon="6.02553">
        <ele>724.4</ele>
        <time>2026-08-25T07:17:37Z</time>
      </trkpt>
      <trkpt lat="45.07046" lon="6.02555">
        <ele>724.4</ele>
        <time>2026-08-25T07:17:38Z</time>
      </trkpt>
      <trkpt lat="45.07039" lon="6.02557">
        <ele>724.5</ele>
        <time>2026-08-25T07:17:39Z</time>
      </trkpt>
      <trkpt lat="45.07032" lon="6.02559">
        <ele>724.5</ele>
        <time>2026-08-25T07:17:40Z</time>
      </trkpt>
      <trkpt lat="45.07026" lon="6.02561">
        <ele>724.5</ele>
        <time>2026-08-25T07:17:41Z</time>
      </trkpt>
      <trkpt lat="45.07019" lon="6.02563">
        <ele>724.5</ele>
        <time>2026-08-25T07:17:42Z</time>
      </trkpt>
      <trkpt lat="45.07013" lon="6.02564">
        <ele>724.5</ele>
        <time>2026-08-25T07:17:43Z</time>
      </trkpt>
      <trkpt lat="45.07006" lon="6.02566">
        <ele>724.6</ele>
        <time>2026-08-25T07:17:44Z</time>
      </trkpt>
      <trkpt lat="45.06999" lon="6.02567">
        <ele>724.6</ele>
        <time>2026-08-25T07:17:45Z</time>
      </trkpt>
      <trkpt lat="45.06993" lon="6.02569">
        <ele>724.6</ele>
        <time>2026-08-25T07:17:46Z</time>
      </trkpt>
      <trkpt lat="45.06986" lon="6.0257">
        <ele>724.7</ele>
        <time>2026-08-25T07:17:47Z</time>
      </trkpt>
      <trkpt lat="45.0698" lon="6.02572">
        <ele>724.7</ele>
        <time>2026-08-25T07:17:48Z</time>
      </trkpt>
      <trkpt lat="45.06973" lon="6.02574">
        <ele>724.7</ele>
        <time>2026-08-25T07:17:49Z</time>
      </trkpt>
      <trkpt lat="45.06966" lon="6.02577">
        <ele>724.7</ele>
        <time>2026-08-25T07:17:50Z</time>
      </trkpt>
      <trkpt lat="45.0696" lon="6.02579">
        <ele>724.7</ele>
        <time>2026-08-25T07:17:51Z</time>
      </trkpt>
      <trkpt lat="45.06953" lon="6.0258">
        <ele>724.8</ele>
        <time>2026-08-25T07:17:52Z</time>
      </trkpt>
      <trkpt lat="45.06947" lon="6.02582">
        <ele>724.8</ele>
        <time>2026-08-25T07:17:53Z</time>
      </trkpt>
      <trkpt lat="45.0694" lon="6.02584">
        <ele>724.8</ele>
        <time>2026-08-25T07:17:54Z</time>
      </trkpt>
      <trkpt lat="45.06934" lon="6.02586">
        <ele>724.9</ele>
        <time>2026-08-25T07:17:55Z</time>
      </trkpt>
      <trkpt lat="45.06928" lon="6.02588">
        <ele>724.9</ele>
        <time>2026-08-25T07:17:56Z</time>
      </trkpt>
      <trkpt lat="45.06921" lon="6.02589">
        <ele>724.9</ele>
        <time>2026-08-25T07:17:57Z</time>
      </trkpt>
      <trkpt lat="45.06915" lon="6.02591">
        <ele>724.9</ele>
        <time>2026-08-25T07:17:58Z</time>
      </trkpt>
      <trkpt lat="45.06908" lon="6.02593">
        <ele>724.9</ele>
        <time>2026-08-25T07:17:59Z</time>
      </trkpt>
      <trkpt lat="45.06902" lon="6.02595">
        <ele>724.8</ele>
        <time>2026-08-25T07:18:00Z</time>
      </trkpt>
      <trkpt lat="45.06895" lon="6.02598">
        <ele>724.8</ele>
        <time>2026-08-25T07:18:01Z</time>
      </trkpt>
      <trkpt lat="45.06889" lon="6.026">
        <ele>724.8</ele>
        <time>2026-08-25T07:18:02Z</time>
      </trkpt>
      <trkpt lat="45.06882" lon="6.02603">
        <ele>724.8</ele>
        <time>2026-08-25T07:18:03Z</time>
      </trkpt>
      <trkpt lat="45.06875" lon="6.02606">
        <ele>724.8</ele>
        <time>2026-08-25T07:18:04Z</time>
      </trkpt>
      <trkpt lat="45.06869" lon="6.02608">
        <ele>724.8</ele>
        <time>2026-08-25T07:18:05Z</time>
      </trkpt>
      <trkpt lat="45.06862" lon="6.02611">
        <ele>724.8</ele>
        <time>2026-08-25T07:18:06Z</time>
      </trkpt>
      <trkpt lat="45.06855" lon="6.02613">
        <ele>724.8</ele>
        <time>2026-08-25T07:18:07Z</time>
      </trkpt>
      <trkpt lat="45.06849" lon="6.02616">
        <ele>724.8</ele>
        <time>2026-08-25T07:18:08Z</time>
      </trkpt>
      <trkpt lat="45.06843" lon="6.02618">
        <ele>724.9</ele>
        <time>2026-08-25T07:18:09Z</time>
      </trkpt>
      <trkpt lat="45.06836" lon="6.02621">
        <ele>724.9</ele>
        <time>2026-08-25T07:18:10Z</time>
      </trkpt>
      <trkpt lat="45.0683" lon="6.02624">
        <ele>724.9</ele>
        <time>2026-08-25T07:18:11Z</time>
      </trkpt>
      <trkpt lat="45.06824" lon="6.02626">
        <ele>724.9</ele>
        <time>2026-08-25T07:18:12Z</time>
      </trkpt>
      <trkpt lat="45.06818" lon="6.02629">
        <ele>725</ele>
        <time>2026-08-25T07:18:13Z</time>
      </trkpt>
      <trkpt lat="45.06812" lon="6.02632">
        <ele>725</ele>
        <time>2026-08-25T07:18:14Z</time>
      </trkpt>
      <trkpt lat="45.06806" lon="6.02635">
        <ele>725</ele>
        <time>2026-08-25T07:18:15Z</time>
      </trkpt>
      <trkpt lat="45.068" lon="6.02637">
        <ele>725.1</ele>
        <time>2026-08-25T07:18:16Z</time>
      </trkpt>
      <trkpt lat="45.06793" lon="6.0264">
        <ele>725.1</ele>
        <time>2026-08-25T07:18:17Z</time>
      </trkpt>
      <trkpt lat="45.06787" lon="6.02643">
        <ele>725.2</ele>
        <time>2026-08-25T07:18:18Z</time>
      </trkpt>
      <trkpt lat="45.06781" lon="6.02646">
        <ele>725.2</ele>
        <time>2026-08-25T07:18:19Z</time>
      </trkpt>
      <trkpt lat="45.06775" lon="6.02649">
        <ele>725.2</ele>
        <time>2026-08-25T07:18:20Z</time>
      </trkpt>
      <trkpt lat="45.06769" lon="6.02653">
        <ele>725.2</ele>
        <time>2026-08-25T07:18:21Z</time>
      </trkpt>
      <trkpt lat="45.06762" lon="6.02656">
        <ele>725.2</ele>
        <time>2026-08-25T07:18:22Z</time>
      </trkpt>
      <trkpt lat="45.06756" lon="6.0266">
        <ele>725.2</ele>
        <time>2026-08-25T07:18:23Z</time>
      </trkpt>
      <trkpt lat="45.0675" lon="6.02663">
        <ele>725.2</ele>
        <time>2026-08-25T07:18:24Z</time>
      </trkpt>
      <trkpt lat="45.06743" lon="6.02667">
        <ele>725.1</ele>
        <time>2026-08-25T07:18:25Z</time>
      </trkpt>
      <trkpt lat="45.06737" lon="6.02671">
        <ele>725.1</ele>
        <time>2026-08-25T07:18:26Z</time>
      </trkpt>
      <trkpt lat="45.0673" lon="6.02674">
        <ele>725</ele>
        <time>2026-08-25T07:18:27Z</time>
      </trkpt>
      <trkpt lat="45.06724" lon="6.02678">
        <ele>725</ele>
        <time>2026-08-25T07:18:28Z</time>
      </trkpt>
      <trkpt lat="45.06718" lon="6.02681">
        <ele>725</ele>
        <time>2026-08-25T07:18:29Z</time>
      </trkpt>
      <trkpt lat="45.06711" lon="6.02684">
        <ele>724.9</ele>
        <time>2026-08-25T07:18:30Z</time>
      </trkpt>
      <trkpt lat="45.06705" lon="6.02688">
        <ele>724.9</ele>
        <time>2026-08-25T07:18:31Z</time>
      </trkpt>
      <trkpt lat="45.06699" lon="6.02692">
        <ele>724.9</ele>
        <time>2026-08-25T07:18:32Z</time>
      </trkpt>
      <trkpt lat="45.06693" lon="6.02696">
        <ele>724.9</ele>
        <time>2026-08-25T07:18:33Z</time>
      </trkpt>
      <trkpt lat="45.06686" lon="6.027">
        <ele>724.9</ele>
        <time>2026-08-25T07:18:34Z</time>
      </trkpt>
      <trkpt lat="45.0668" lon="6.02704">
        <ele>724.9</ele>
        <time>2026-08-25T07:18:35Z</time>
      </trkpt>
      <trkpt lat="45.06674" lon="6.02708">
        <ele>724.8</ele>
        <time>2026-08-25T07:18:36Z</time>
      </trkpt>
      <trkpt lat="45.06668" lon="6.02712">
        <ele>724.8</ele>
        <time>2026-08-25T07:18:37Z</time>
      </trkpt>
      <trkpt lat="45.06662" lon="6.02716">
        <ele>724.8</ele>
        <time>2026-08-25T07:18:38Z</time>
      </trkpt>
      <trkpt lat="45.06656" lon="6.02721">
        <ele>724.8</ele>
        <time>2026-08-25T07:18:39Z</time>
      </trkpt>
      <trkpt lat="45.0665" lon="6.02725">
        <ele>724.8</ele>
        <time>2026-08-25T07:18:40Z</time>
      </trkpt>
      <trkpt lat="45.06645" lon="6.02729">
        <ele>724.8</ele>
        <time>2026-08-25T07:18:41Z</time>
      </trkpt>
      <trkpt lat="45.06639" lon="6.02733">
        <ele>724.8</ele>
        <time>2026-08-25T07:18:42Z</time>
      </trkpt>
      <trkpt lat="45.06633" lon="6.02738">
        <ele>724.7</ele>
        <time>2026-08-25T07:18:43Z</time>
      </trkpt>
      <trkpt lat="45.06628" lon="6.02742">
        <ele>724.7</ele>
        <time>2026-08-25T07:18:44Z</time>
      </trkpt>
      <trkpt lat="45.06622" lon="6.02746">
        <ele>724.7</ele>
        <time>2026-08-25T07:18:45Z</time>
      </trkpt>
      <trkpt lat="45.06617" lon="6.02751">
        <ele>724.7</ele>
        <time>2026-08-25T07:18:46Z</time>
      </trkpt>
      <trkpt lat="45.06611" lon="6.02755">
        <ele>724.7</ele>
        <time>2026-08-25T07:18:47Z</time>
      </trkpt>
      <trkpt lat="45.06605" lon="6.0276">
        <ele>724.7</ele>
        <time>2026-08-25T07:18:48Z</time>
      </trkpt>
      <trkpt lat="45.06599" lon="6.02765">
        <ele>724.7</ele>
        <time>2026-08-25T07:18:49Z</time>
      </trkpt>
      <trkpt lat="45.06594" lon="6.02769">
        <ele>724.7</ele>
        <time>2026-08-25T07:18:50Z</time>
      </trkpt>
      <trkpt lat="45.06588" lon="6.02774">
        <ele>724.7</ele>
        <time>2026-08-25T07:18:51Z</time>
      </trkpt>
      <trkpt lat="45.06583" lon="6.02778">
        <ele>724.7</ele>
        <time>2026-08-25T07:18:52Z</time>
      </trkpt>
      <trkpt lat="45.06577" lon="6.02783">
        <ele>724.8</ele>
        <time>2026-08-25T07:18:53Z</time>
      </trkpt>
      <trkpt lat="45.06571" lon="6.02787">
        <ele>724.8</ele>
        <time>2026-08-25T07:18:54Z</time>
      </trkpt>
      <trkpt lat="45.06566" lon="6.02791">
        <ele>724.9</ele>
        <time>2026-08-25T07:18:55Z</time>
      </trkpt>
      <trkpt lat="45.06561" lon="6.02795">
        <ele>724.9</ele>
        <time>2026-08-25T07:18:56Z</time>
      </trkpt>
      <trkpt lat="45.06557" lon="6.02799">
        <ele>724.9</ele>
        <time>2026-08-25T07:18:57Z</time>
      </trkpt>
      <trkpt lat="45.06552" lon="6.02803">
        <ele>724.9</ele>
        <time>2026-08-25T07:18:58Z</time>
      </trkpt>
      <trkpt lat="45.06548" lon="6.02807">
        <ele>724.9</ele>
        <time>2026-08-25T07:18:59Z</time>
      </trkpt>
      <trkpt lat="45.06543" lon="6.02811">
        <ele>724.9</ele>
        <time>2026-08-25T07:19:00Z</time>
      </trkpt>
      <trkpt lat="45.06538" lon="6.02815">
        <ele>724.9</ele>
        <time>2026-08-25T07:19:01Z</time>
      </trkpt>
      <trkpt lat="45.06534" lon="6.02819">
        <ele>724.9</ele>
        <time>2026-08-25T07:19:02Z</time>
      </trkpt>
      <trkpt lat="45.0653" lon="6.02823">
        <ele>724.8</ele>
        <time>2026-08-25T07:19:03Z</time>
      </trkpt>
      <trkpt lat="45.06526" lon="6.02828">
        <ele>724.7</ele>
        <time>2026-08-25T07:19:04Z</time>
      </trkpt>
      <trkpt lat="45.06523" lon="6.02831">
        <ele>724.6</ele>
        <time>2026-08-25T07:19:05Z</time>
      </trkpt>
      <trkpt lat="45.06519" lon="6.02835">
        <ele>724.5</ele>
        <time>2026-08-25T07:19:06Z</time>
      </trkpt>
      <trkpt lat="45.06515" lon="6.02835">
        <ele>724.3</ele>
        <time>2026-08-25T07:19:07Z</time>
      </trkpt>
      <trkpt lat="45.06513" lon="6.02832">
        <ele>724.2</ele>
        <time>2026-08-25T07:19:08Z</time>
      </trkpt>
      <trkpt lat="45.06511" lon="6.02828">
        <ele>724</ele>
        <time>2026-08-25T07:19:09Z</time>
      </trkpt>
      <trkpt lat="45.06511" lon="6.02823">
        <ele>723.7</ele>
        <time>2026-08-25T07:19:10Z</time>
      </trkpt>
      <trkpt lat="45.0651" lon="6.02818">
        <ele>723.5</ele>
        <time>2026-08-25T07:19:11Z</time>
      </trkpt>
      <trkpt lat="45.06508" lon="6.02815">
        <ele>723.4</ele>
        <time>2026-08-25T07:19:12Z</time>
      </trkpt>
      <trkpt lat="45.06505" lon="6.02815">
        <ele>723.3</ele>
        <time>2026-08-25T07:19:13Z</time>
      </trkpt>
      <trkpt lat="45.06502" lon="6.02819">
        <ele>723.3</ele>
        <time>2026-08-25T07:19:14Z</time>
      </trkpt>
      <trkpt lat="45.06501" lon="6.02821">
        <ele>723.2</ele>
        <time>2026-08-25T07:19:15Z</time>
      </trkpt>
      <trkpt lat="45.06499" lon="6.02824">
        <ele>723.2</ele>
        <time>2026-08-25T07:19:16Z</time>
      </trkpt>
      <trkpt lat="45.06497" lon="6.02826">
        <ele>723.2</ele>
        <time>2026-08-25T07:19:17Z</time>
      </trkpt>
      <trkpt lat="45.06493" lon="6.02828">
        <ele>723.1</ele>
        <time>2026-08-25T07:19:18Z</time>
      </trkpt>
      <trkpt lat="45.06485" lon="6.02827">
        <ele>723</ele>
        <time>2026-08-25T07:19:19Z</time>
      </trkpt>
      <trkpt lat="45.0648" lon="6.02825">
        <ele>723</ele>
        <time>2026-08-25T07:19:20Z</time>
      </trkpt>
      <trkpt lat="45.06475" lon="6.02823">
        <ele>722.9</ele>
        <time>2026-08-25T07:19:21Z</time>
      </trkpt>
      <trkpt lat="45.06472" lon="6.02819">
        <ele>722.9</ele>
        <time>2026-08-25T07:19:22Z</time>
      </trkpt>
      <trkpt lat="45.0647" lon="6.02814">
        <ele>723</ele>
        <time>2026-08-25T07:19:23Z</time>
      </trkpt>
      <trkpt lat="45.06469" lon="6.02808">
        <ele>722.9</ele>
        <time>2026-08-25T07:19:24Z</time>
      </trkpt>
      <trkpt lat="45.06467" lon="6.02802">
        <ele>722.9</ele>
        <time>2026-08-25T07:19:25Z</time>
      </trkpt>
      <trkpt lat="45.06465" lon="6.02796">
        <ele>722.9</ele>
        <time>2026-08-25T07:19:26Z</time>
      </trkpt>
      <trkpt lat="45.06463" lon="6.02789">
        <ele>722.8</ele>
        <time>2026-08-25T07:19:27Z</time>
      </trkpt>
      <trkpt lat="45.06461" lon="6.02782">
        <ele>722.7</ele>
        <time>2026-08-25T07:19:28Z</time>
      </trkpt>
      <trkpt lat="45.06458" lon="6.02773">
        <ele>722.7</ele>
        <time>2026-08-25T07:19:29Z</time>
      </trkpt>
      <trkpt lat="45.06455" lon="6.02765">
        <ele>722.6</ele>
        <time>2026-08-25T07:19:30Z</time>
      </trkpt>
      <trkpt lat="45.06452" lon="6.02758">
        <ele>722.6</ele>
        <time>2026-08-25T07:19:31Z</time>
      </trkpt>
      <trkpt lat="45.06449" lon="6.0275">
        <ele>722.5</ele>
        <time>2026-08-25T07:19:32Z</time>
      </trkpt>
      <trkpt lat="45.06446" lon="6.02742">
        <ele>722.5</ele>
        <time>2026-08-25T07:19:33Z</time>
      </trkpt>
      <trkpt lat="45.06443" lon="6.02734">
        <ele>722.4</ele>
        <time>2026-08-25T07:19:34Z</time>
      </trkpt>
      <trkpt lat="45.06441" lon="6.02727">
        <ele>722.4</ele>
        <time>2026-08-25T07:19:35Z</time>
      </trkpt>
      <trkpt lat="45.06438" lon="6.02719">
        <ele>722.4</ele>
        <time>2026-08-25T07:19:36Z</time>
      </trkpt>
      <trkpt lat="45.06435" lon="6.02711">
        <ele>722.3</ele>
        <time>2026-08-25T07:19:37Z</time>
      </trkpt>
      <trkpt lat="45.06432" lon="6.02703">
        <ele>722.3</ele>
        <time>2026-08-25T07:19:38Z</time>
      </trkpt>
      <trkpt lat="45.06429" lon="6.02694">
        <ele>722.3</ele>
        <time>2026-08-25T07:19:39Z</time>
      </trkpt>
      <trkpt lat="45.06427" lon="6.02685">
        <ele>722.3</ele>
        <time>2026-08-25T07:19:40Z</time>
      </trkpt>
      <trkpt lat="45.06424" lon="6.02677">
        <ele>722.3</ele>
        <time>2026-08-25T07:19:41Z</time>
      </trkpt>
      <trkpt lat="45.06421" lon="6.02669">
        <ele>722.3</ele>
        <time>2026-08-25T07:19:42Z</time>
      </trkpt>
      <trkpt lat="45.06417" lon="6.02664">
        <ele>722.3</ele>
        <time>2026-08-25T07:19:43Z</time>
      </trkpt>
      <trkpt lat="45.06412" lon="6.02661">
        <ele>722.3</ele>
        <time>2026-08-25T07:19:44Z</time>
      </trkpt>
      <trkpt lat="45.06406" lon="6.02662">
        <ele>722.3</ele>
        <time>2026-08-25T07:19:45Z</time>
      </trkpt>
      <trkpt lat="45.06401" lon="6.02665">
        <ele>722.2</ele>
        <time>2026-08-25T07:19:46Z</time>
      </trkpt>
      <trkpt lat="45.06396" lon="6.02669">
        <ele>722.1</ele>
        <time>2026-08-25T07:19:47Z</time>
      </trkpt>
      <trkpt lat="45.06391" lon="6.02674">
        <ele>722</ele>
        <time>2026-08-25T07:19:48Z</time>
      </trkpt>
      <trkpt lat="45.06387" lon="6.0268">
        <ele>722</ele>
        <time>2026-08-25T07:19:49Z</time>
      </trkpt>
      <trkpt lat="45.06383" lon="6.02687">
        <ele>721.9</ele>
        <time>2026-08-25T07:19:50Z</time>
      </trkpt>
      <trkpt lat="45.06379" lon="6.02694">
        <ele>721.8</ele>
        <time>2026-08-25T07:19:51Z</time>
      </trkpt>
      <trkpt lat="45.06375" lon="6.02702">
        <ele>721.7</ele>
        <time>2026-08-25T07:19:52Z</time>
      </trkpt>
      <trkpt lat="45.06371" lon="6.02709">
        <ele>721.7</ele>
        <time>2026-08-25T07:19:53Z</time>
      </trkpt>
      <trkpt lat="45.06367" lon="6.02715">
        <ele>721.7</ele>
        <time>2026-08-25T07:19:54Z</time>
      </trkpt>
      <trkpt lat="45.06363" lon="6.02722">
        <ele>721.8</ele>
        <time>2026-08-25T07:19:55Z</time>
      </trkpt>
      <trkpt lat="45.06358" lon="6.02728">
        <ele>721.8</ele>
        <time>2026-08-25T07:19:56Z</time>
      </trkpt>
      <trkpt lat="45.06354" lon="6.02735">
        <ele>721.8</ele>
        <time>2026-08-25T07:19:57Z</time>
      </trkpt>
      <trkpt lat="45.0635" lon="6.02742">
        <ele>721.9</ele>
        <time>2026-08-25T07:19:58Z</time>
      </trkpt>
      <trkpt lat="45.06345" lon="6.02747">
        <ele>721.9</ele>
        <time>2026-08-25T07:19:59Z</time>
      </trkpt>
      <trkpt lat="45.0634" lon="6.02753">
        <ele>722</ele>
        <time>2026-08-25T07:20:00Z</time>
      </trkpt>
      <trkpt lat="45.06336" lon="6.02758">
        <ele>722.1</ele>
        <time>2026-08-25T07:20:01Z</time>
      </trkpt>
      <trkpt lat="45.06331" lon="6.02763">
        <ele>722.2</ele>
        <time>2026-08-25T07:20:02Z</time>
      </trkpt>
      <trkpt lat="45.06327" lon="6.02769">
        <ele>722.2</ele>
        <time>2026-08-25T07:20:03Z</time>
      </trkpt>
      <trkpt lat="45.06323" lon="6.02775">
        <ele>722.1</ele>
        <time>2026-08-25T07:20:04Z</time>
      </trkpt>
      <trkpt lat="45.06318" lon="6.02781">
        <ele>722.1</ele>
        <time>2026-08-25T07:20:05Z</time>
      </trkpt>
      <trkpt lat="45.06313" lon="6.02787">
        <ele>722.1</ele>
        <time>2026-08-25T07:20:06Z</time>
      </trkpt>
      <trkpt lat="45.06309" lon="6.02793">
        <ele>722.1</ele>
        <time>2026-08-25T07:20:07Z</time>
      </trkpt>
      <trkpt lat="45.06305" lon="6.028">
        <ele>722.1</ele>
        <time>2026-08-25T07:20:08Z</time>
      </trkpt>
      <trkpt lat="45.06301" lon="6.02806">
        <ele>722.1</ele>
        <time>2026-08-25T07:20:09Z</time>
      </trkpt>
      <trkpt lat="45.06297" lon="6.02812">
        <ele>722.1</ele>
        <time>2026-08-25T07:20:10Z</time>
      </trkpt>
      <trkpt lat="45.06293" lon="6.02818">
        <ele>722.1</ele>
        <time>2026-08-25T07:20:11Z</time>
      </trkpt>
      <trkpt lat="45.06289" lon="6.02824">
        <ele>722.1</ele>
        <time>2026-08-25T07:20:12Z</time>
      </trkpt>
      <trkpt lat="45.06285" lon="6.02831">
        <ele>722.1</ele>
        <time>2026-08-25T07:20:13Z</time>
      </trkpt>
      <trkpt lat="45.06281" lon="6.02837">
        <ele>722.1</ele>
        <time>2026-08-25T07:20:14Z</time>
      </trkpt>
      <trkpt lat="45.06277" lon="6.02844">
        <ele>722.1</ele>
        <time>2026-08-25T07:20:15Z</time>
      </trkpt>
      <trkpt lat="45.06273" lon="6.0285">
        <ele>722.1</ele>
        <time>2026-08-25T07:20:16Z</time>
      </trkpt>
      <trkpt lat="45.06269" lon="6.02857">
        <ele>722.1</ele>
        <time>2026-08-25T07:20:17Z</time>
      </trkpt>
      <trkpt lat="45.06265" lon="6.02863">
        <ele>722.1</ele>
        <time>2026-08-25T07:20:18Z</time>
      </trkpt>
      <trkpt lat="45.06262" lon="6.02871">
        <ele>722.2</ele>
        <time>2026-08-25T07:20:19Z</time>
      </trkpt>
      <trkpt lat="45.06259" lon="6.02878">
        <ele>722.1</ele>
        <time>2026-08-25T07:20:20Z</time>
      </trkpt>
      <trkpt lat="45.06255" lon="6.02886">
        <ele>722.1</ele>
        <time>2026-08-25T07:20:21Z</time>
      </trkpt>
      <trkpt lat="45.06252" lon="6.02893">
        <ele>722.1</ele>
        <time>2026-08-25T07:20:22Z</time>
      </trkpt>
      <trkpt lat="45.06248" lon="6.02899">
        <ele>722.1</ele>
        <time>2026-08-25T07:20:23Z</time>
      </trkpt>
      <trkpt lat="45.06245" lon="6.02907">
        <ele>722</ele>
        <time>2026-08-25T07:20:24Z</time>
      </trkpt>
      <trkpt lat="45.06241" lon="6.02914">
        <ele>722</ele>
        <time>2026-08-25T07:20:25Z</time>
      </trkpt>
      <trkpt lat="45.06237" lon="6.02922">
        <ele>722</ele>
        <time>2026-08-25T07:20:26Z</time>
      </trkpt>
      <trkpt lat="45.06234" lon="6.02928">
        <ele>722</ele>
        <time>2026-08-25T07:20:27Z</time>
      </trkpt>
      <trkpt lat="45.06231" lon="6.02936">
        <ele>722</ele>
        <time>2026-08-25T07:20:28Z</time>
      </trkpt>
      <trkpt lat="45.06227" lon="6.02943">
        <ele>722</ele>
        <time>2026-08-25T07:20:29Z</time>
      </trkpt>
      <trkpt lat="45.06224" lon="6.02951">
        <ele>721.9</ele>
        <time>2026-08-25T07:20:30Z</time>
      </trkpt>
      <trkpt lat="45.0622" lon="6.02959">
        <ele>721.8</ele>
        <time>2026-08-25T07:20:31Z</time>
      </trkpt>
      <trkpt lat="45.06217" lon="6.02967">
        <ele>721.8</ele>
        <time>2026-08-25T07:20:32Z</time>
      </trkpt>
      <trkpt lat="45.06213" lon="6.02975">
        <ele>721.7</ele>
        <time>2026-08-25T07:20:33Z</time>
      </trkpt>
      <trkpt lat="45.0621" lon="6.02983">
        <ele>721.7</ele>
        <time>2026-08-25T07:20:34Z</time>
      </trkpt>
      <trkpt lat="45.06206" lon="6.02991">
        <ele>721.7</ele>
        <time>2026-08-25T07:20:35Z</time>
      </trkpt>
      <trkpt lat="45.06202" lon="6.03">
        <ele>721.6</ele>
        <time>2026-08-25T07:20:36Z</time>
      </trkpt>
      <trkpt lat="45.06199" lon="6.03008">
        <ele>721.6</ele>
        <time>2026-08-25T07:20:37Z</time>
      </trkpt>
      <trkpt lat="45.06196" lon="6.03016">
        <ele>721.6</ele>
        <time>2026-08-25T07:20:38Z</time>
      </trkpt>
      <trkpt lat="45.06192" lon="6.03024">
        <ele>721.5</ele>
        <time>2026-08-25T07:20:39Z</time>
      </trkpt>
      <trkpt lat="45.06188" lon="6.03032">
        <ele>721.5</ele>
        <time>2026-08-25T07:20:40Z</time>
      </trkpt>
      <trkpt lat="45.06184" lon="6.0304">
        <ele>721.5</ele>
        <time>2026-08-25T07:20:41Z</time>
      </trkpt>
      <trkpt lat="45.0618" lon="6.03048">
        <ele>721.5</ele>
        <time>2026-08-25T07:20:42Z</time>
      </trkpt>
      <trkpt lat="45.06176" lon="6.03055">
        <ele>721.5</ele>
        <time>2026-08-25T07:20:43Z</time>
      </trkpt>
      <trkpt lat="45.06172" lon="6.03062">
        <ele>721.5</ele>
        <time>2026-08-25T07:20:44Z</time>
      </trkpt>
      <trkpt lat="45.06167" lon="6.03069">
        <ele>721.5</ele>
        <time>2026-08-25T07:20:45Z</time>
      </trkpt>
      <trkpt lat="45.06162" lon="6.03075">
        <ele>721.5</ele>
        <time>2026-08-25T07:20:46Z</time>
      </trkpt>
      <trkpt lat="45.06157" lon="6.03082">
        <ele>721.5</ele>
        <time>2026-08-25T07:20:47Z</time>
      </trkpt>
      <trkpt lat="45.06154" lon="6.0309">
        <ele>721.6</ele>
        <time>2026-08-25T07:20:48Z</time>
      </trkpt>
      <trkpt lat="45.06151" lon="6.03099">
        <ele>721.6</ele>
        <time>2026-08-25T07:20:49Z</time>
      </trkpt>
      <trkpt lat="45.06148" lon="6.03107">
        <ele>721.7</ele>
        <time>2026-08-25T07:20:50Z</time>
      </trkpt>
      <trkpt lat="45.06146" lon="6.03115">
        <ele>721.6</ele>
        <time>2026-08-25T07:20:51Z</time>
      </trkpt>
      <trkpt lat="45.06144" lon="6.03124">
        <ele>721.6</ele>
        <time>2026-08-25T07:20:52Z</time>
      </trkpt>
      <trkpt lat="45.06141" lon="6.03132">
        <ele>721.6</ele>
        <time>2026-08-25T07:20:53Z</time>
      </trkpt>
      <trkpt lat="45.06139" lon="6.03141">
        <ele>721.5</ele>
        <time>2026-08-25T07:20:54Z</time>
      </trkpt>
      <trkpt lat="45.06136" lon="6.0315">
        <ele>721.5</ele>
        <time>2026-08-25T07:20:55Z</time>
      </trkpt>
      <trkpt lat="45.06134" lon="6.03159">
        <ele>721.5</ele>
        <time>2026-08-25T07:20:56Z</time>
      </trkpt>
      <trkpt lat="45.06132" lon="6.03169">
        <ele>721.5</ele>
        <time>2026-08-25T07:20:57Z</time>
      </trkpt>
      <trkpt lat="45.06129" lon="6.03178">
        <ele>721.6</ele>
        <time>2026-08-25T07:20:58Z</time>
      </trkpt>
      <trkpt lat="45.06127" lon="6.03187">
        <ele>721.6</ele>
        <time>2026-08-25T07:20:59Z</time>
      </trkpt>
      <trkpt lat="45.06125" lon="6.03196">
        <ele>721.7</ele>
        <time>2026-08-25T07:21:00Z</time>
      </trkpt>
      <trkpt lat="45.06123" lon="6.03205">
        <ele>721.8</ele>
        <time>2026-08-25T07:21:01Z</time>
      </trkpt>
      <trkpt lat="45.06121" lon="6.03214">
        <ele>721.9</ele>
        <time>2026-08-25T07:21:02Z</time>
      </trkpt>
      <trkpt lat="45.0612" lon="6.03222">
        <ele>722</ele>
        <time>2026-08-25T07:21:03Z</time>
      </trkpt>
      <trkpt lat="45.06118" lon="6.03231">
        <ele>722</ele>
        <time>2026-08-25T07:21:04Z</time>
      </trkpt>
      <trkpt lat="45.06116" lon="6.0324">
        <ele>722.1</ele>
        <time>2026-08-25T07:21:05Z</time>
      </trkpt>
      <trkpt lat="45.06115" lon="6.03248">
        <ele>722.1</ele>
        <time>2026-08-25T07:21:06Z</time>
      </trkpt>
      <trkpt lat="45.06113" lon="6.03257">
        <ele>722.1</ele>
        <time>2026-08-25T07:21:07Z</time>
      </trkpt>
      <trkpt lat="45.06112" lon="6.03266">
        <ele>722.2</ele>
        <time>2026-08-25T07:21:08Z</time>
      </trkpt>
      <trkpt lat="45.0611" lon="6.03275">
        <ele>722.2</ele>
        <time>2026-08-25T07:21:09Z</time>
      </trkpt>
      <trkpt lat="45.06108" lon="6.03284">
        <ele>722.3</ele>
        <time>2026-08-25T07:21:10Z</time>
      </trkpt>
      <trkpt lat="45.06106" lon="6.03294">
        <ele>722.5</ele>
        <time>2026-08-25T07:21:11Z</time>
      </trkpt>
      <trkpt lat="45.06104" lon="6.03303">
        <ele>722.8</ele>
        <time>2026-08-25T07:21:12Z</time>
      </trkpt>
      <trkpt lat="45.06102" lon="6.03312">
        <ele>723.1</ele>
        <time>2026-08-25T07:21:13Z</time>
      </trkpt>
      <trkpt lat="45.061" lon="6.03319">
        <ele>723.5</ele>
        <time>2026-08-25T07:21:14Z</time>
      </trkpt>
      <trkpt lat="45.06098" lon="6.03326">
        <ele>723.9</ele>
        <time>2026-08-25T07:21:15Z</time>
      </trkpt>
      <trkpt lat="45.06095" lon="6.03332">
        <ele>724.3</ele>
        <time>2026-08-25T07:21:16Z</time>
      </trkpt>
      <trkpt lat="45.06094" lon="6.03338">
        <ele>724.6</ele>
        <time>2026-08-25T07:21:17Z</time>
      </trkpt>
      <trkpt lat="45.06092" lon="6.03344">
        <ele>725</ele>
        <time>2026-08-25T07:21:18Z</time>
      </trkpt>
      <trkpt lat="45.06089" lon="6.03348">
        <ele>725.2</ele>
        <time>2026-08-25T07:21:19Z</time>
      </trkpt>
      <trkpt lat="45.06086" lon="6.03353">
        <ele>725.5</ele>
        <time>2026-08-25T07:21:20Z</time>
      </trkpt>
      <trkpt lat="45.06083" lon="6.03359">
        <ele>725.6</ele>
        <time>2026-08-25T07:21:21Z</time>
      </trkpt>
      <trkpt lat="45.0608" lon="6.03365">
        <ele>725.7</ele>
        <time>2026-08-25T07:21:22Z</time>
      </trkpt>
      <trkpt lat="45.06075" lon="6.03371">
        <ele>725.8</ele>
        <time>2026-08-25T07:21:23Z</time>
      </trkpt>
      <trkpt lat="45.06071" lon="6.03376">
        <ele>725.8</ele>
        <time>2026-08-25T07:21:24Z</time>
      </trkpt>
      <trkpt lat="45.06066" lon="6.03381">
        <ele>725.9</ele>
        <time>2026-08-25T07:21:25Z</time>
      </trkpt>
      <trkpt lat="45.06062" lon="6.03386">
        <ele>725.9</ele>
        <time>2026-08-25T07:21:26Z</time>
      </trkpt>
      <trkpt lat="45.06058" lon="6.03392">
        <ele>725.9</ele>
        <time>2026-08-25T07:21:27Z</time>
      </trkpt>
      <trkpt lat="45.06053" lon="6.03397">
        <ele>725.9</ele>
        <time>2026-08-25T07:21:28Z</time>
      </trkpt>
      <trkpt lat="45.06049" lon="6.03403">
        <ele>725.9</ele>
        <time>2026-08-25T07:21:29Z</time>
      </trkpt>
      <trkpt lat="45.06045" lon="6.03408">
        <ele>726</ele>
        <time>2026-08-25T07:21:30Z</time>
      </trkpt>
      <trkpt lat="45.06041" lon="6.03414">
        <ele>726</ele>
        <time>2026-08-25T07:21:31Z</time>
      </trkpt>
      <trkpt lat="45.06037" lon="6.0342">
        <ele>726</ele>
        <time>2026-08-25T07:21:32Z</time>
      </trkpt>
      <trkpt lat="45.06032" lon="6.03426">
        <ele>726</ele>
        <time>2026-08-25T07:21:33Z</time>
      </trkpt>
      <trkpt lat="45.06027" lon="6.03432">
        <ele>726</ele>
        <time>2026-08-25T07:21:34Z</time>
      </trkpt>
      <trkpt lat="45.06022" lon="6.03437">
        <ele>725.9</ele>
        <time>2026-08-25T07:21:35Z</time>
      </trkpt>
      <trkpt lat="45.06017" lon="6.03443">
        <ele>725.9</ele>
        <time>2026-08-25T07:21:36Z</time>
      </trkpt>
      <trkpt lat="45.06012" lon="6.03449">
        <ele>725.9</ele>
        <time>2026-08-25T07:21:37Z</time>
      </trkpt>
      <trkpt lat="45.06007" lon="6.03455">
        <ele>725.9</ele>
        <time>2026-08-25T07:21:38Z</time>
      </trkpt>
      <trkpt lat="45.06002" lon="6.03461">
        <ele>725.9</ele>
        <time>2026-08-25T07:21:39Z</time>
      </trkpt>
      <trkpt lat="45.05997" lon="6.03467">
        <ele>725.9</ele>
        <time>2026-08-25T07:21:40Z</time>
      </trkpt>
      <trkpt lat="45.05993" lon="6.03473">
        <ele>725.9</ele>
        <time>2026-08-25T07:21:41Z</time>
      </trkpt>
      <trkpt lat="45.05988" lon="6.03479">
        <ele>725.9</ele>
        <time>2026-08-25T07:21:42Z</time>
      </trkpt>
      <trkpt lat="45.05982" lon="6.03485">
        <ele>725.8</ele>
        <time>2026-08-25T07:21:43Z</time>
      </trkpt>
      <trkpt lat="45.05978" lon="6.03491">
        <ele>725.8</ele>
        <time>2026-08-25T07:21:44Z</time>
      </trkpt>
      <trkpt lat="45.05973" lon="6.03498">
        <ele>725.8</ele>
        <time>2026-08-25T07:21:45Z</time>
      </trkpt>
      <trkpt lat="45.05968" lon="6.03504">
        <ele>725.8</ele>
        <time>2026-08-25T07:21:46Z</time>
      </trkpt>
      <trkpt lat="45.05963" lon="6.03511">
        <ele>725.8</ele>
        <time>2026-08-25T07:21:47Z</time>
      </trkpt>
      <trkpt lat="45.05958" lon="6.03517">
        <ele>725.9</ele>
        <time>2026-08-25T07:21:48Z</time>
      </trkpt>
      <trkpt lat="45.05954" lon="6.03522">
        <ele>725.9</ele>
        <time>2026-08-25T07:21:49Z</time>
      </trkpt>
      <trkpt lat="45.05949" lon="6.03528">
        <ele>725.9</ele>
        <time>2026-08-25T07:21:50Z</time>
      </trkpt>
      <trkpt lat="45.05945" lon="6.03534">
        <ele>725.9</ele>
        <time>2026-08-25T07:21:51Z</time>
      </trkpt>
      <trkpt lat="45.0594" lon="6.0354">
        <ele>725.9</ele>
        <time>2026-08-25T07:21:52Z</time>
      </trkpt>
      <trkpt lat="45.05936" lon="6.03545">
        <ele>725.9</ele>
        <time>2026-08-25T07:21:53Z</time>
      </trkpt>
      <trkpt lat="45.05931" lon="6.03551">
        <ele>725.9</ele>
        <time>2026-08-25T07:21:54Z</time>
      </trkpt>
      <trkpt lat="45.05926" lon="6.03557">
        <ele>725.9</ele>
        <time>2026-08-25T07:21:55Z</time>
      </trkpt>
      <trkpt lat="45.05922" lon="6.03562">
        <ele>726</ele>
        <time>2026-08-25T07:21:56Z</time>
      </trkpt>
      <trkpt lat="45.05917" lon="6.03568">
        <ele>726</ele>
        <time>2026-08-25T07:21:57Z</time>
      </trkpt>
      <trkpt lat="45.05912" lon="6.03574">
        <ele>726.1</ele>
        <time>2026-08-25T07:21:58Z</time>
      </trkpt>
      <trkpt lat="45.05908" lon="6.0358">
        <ele>726.1</ele>
        <time>2026-08-25T07:21:59Z</time>
      </trkpt>
      <trkpt lat="45.05904" lon="6.03585">
        <ele>726.1</ele>
        <time>2026-08-25T07:22:00Z</time>
      </trkpt>
      <trkpt lat="45.05899" lon="6.03591">
        <ele>726.2</ele>
        <time>2026-08-25T07:22:01Z</time>
      </trkpt>
      <trkpt lat="45.05894" lon="6.03596">
        <ele>726.3</ele>
        <time>2026-08-25T07:22:02Z</time>
      </trkpt>
      <trkpt lat="45.0589" lon="6.03602">
        <ele>726.3</ele>
        <time>2026-08-25T07:22:03Z</time>
      </trkpt>
      <trkpt lat="45.05886" lon="6.03607">
        <ele>726.4</ele>
        <time>2026-08-25T07:22:04Z</time>
      </trkpt>
      <trkpt lat="45.05881" lon="6.03612">
        <ele>726.5</ele>
        <time>2026-08-25T07:22:05Z</time>
      </trkpt>
      <trkpt lat="45.05877" lon="6.03617">
        <ele>726.5</ele>
        <time>2026-08-25T07:22:06Z</time>
      </trkpt>
      <trkpt lat="45.05873" lon="6.03622">
        <ele>726.6</ele>
        <time>2026-08-25T07:22:07Z</time>
      </trkpt>
      <trkpt lat="45.05869" lon="6.03626">
        <ele>726.8</ele>
        <time>2026-08-25T07:22:08Z</time>
      </trkpt>
      <trkpt lat="45.05865" lon="6.03631">
        <ele>726.9</ele>
        <time>2026-08-25T07:22:09Z</time>
      </trkpt>
      <trkpt lat="45.05861" lon="6.03635">
        <ele>727</ele>
        <time>2026-08-25T07:22:10Z</time>
      </trkpt>
      <trkpt lat="45.05857" lon="6.0364">
        <ele>727.2</ele>
        <time>2026-08-25T07:22:11Z</time>
      </trkpt>
      <trkpt lat="45.05854" lon="6.03644">
        <ele>727.5</ele>
        <time>2026-08-25T07:22:12Z</time>
      </trkpt>
      <trkpt lat="45.05851" lon="6.03647">
        <ele>727.7</ele>
        <time>2026-08-25T07:22:13Z</time>
      </trkpt>
      <trkpt lat="45.05848" lon="6.0365">
        <ele>727.8</ele>
        <time>2026-08-25T07:22:14Z</time>
      </trkpt>
      <trkpt lat="45.05846" lon="6.03652">
        <ele>728</ele>
        <time>2026-08-25T07:22:15Z</time>
      </trkpt>
      <trkpt lat="45.05845" lon="6.03653">
        <ele>728.1</ele>
        <time>2026-08-25T07:22:16Z</time>
      </trkpt>
      <trkpt lat="45.05843" lon="6.03654">
        <ele>728.2</ele>
        <time>2026-08-25T07:22:17Z</time>
      </trkpt>
      <trkpt lat="45.05842" lon="6.03655">
        <ele>728.3</ele>
        <time>2026-08-25T07:22:18Z</time>
      </trkpt>
      <trkpt lat="45.05841" lon="6.03658">
        <ele>728.7</ele>
        <time>2026-08-25T07:22:19Z</time>
      </trkpt>
      <trkpt lat="45.0584" lon="6.03663">
        <ele>728.7</ele>
        <time>2026-08-25T07:22:20Z</time>
      </trkpt>
      <trkpt lat="45.05841" lon="6.03668">
        <ele>728.7</ele>
        <time>2026-08-25T07:22:21Z</time>
      </trkpt>
      <trkpt lat="45.05843" lon="6.03672">
        <ele>728.8</ele>
        <time>2026-08-25T07:22:22Z</time>
      </trkpt>
      <trkpt lat="45.05845" lon="6.03677">
        <ele>728.8</ele>
        <time>2026-08-25T07:22:23Z</time>
      </trkpt>
      <trkpt lat="45.05848" lon="6.03682">
        <ele>728.8</ele>
        <time>2026-08-25T07:22:24Z</time>
      </trkpt>
      <trkpt lat="45.05851" lon="6.03687">
        <ele>728.9</ele>
        <time>2026-08-25T07:22:25Z</time>
      </trkpt>
      <trkpt lat="45.05855" lon="6.03692">
        <ele>728.9</ele>
        <time>2026-08-25T07:22:26Z</time>
      </trkpt>
      <trkpt lat="45.05859" lon="6.03697">
        <ele>728.9</ele>
        <time>2026-08-25T07:22:27Z</time>
      </trkpt>
      <trkpt lat="45.05863" lon="6.03703">
        <ele>728.8</ele>
        <time>2026-08-25T07:22:28Z</time>
      </trkpt>
      <trkpt lat="45.05867" lon="6.03709">
        <ele>728.8</ele>
        <time>2026-08-25T07:22:29Z</time>
      </trkpt>
      <trkpt lat="45.05871" lon="6.03716">
        <ele>728.8</ele>
        <time>2026-08-25T07:22:30Z</time>
      </trkpt>
      <trkpt lat="45.05874" lon="6.03723">
        <ele>728.7</ele>
        <time>2026-08-25T07:22:31Z</time>
      </trkpt>
      <trkpt lat="45.05878" lon="6.0373">
        <ele>728.7</ele>
        <time>2026-08-25T07:22:32Z</time>
      </trkpt>
      <trkpt lat="45.05882" lon="6.03737">
        <ele>728.6</ele>
        <time>2026-08-25T07:22:33Z</time>
      </trkpt>
      <trkpt lat="45.05886" lon="6.03744">
        <ele>728.5</ele>
        <time>2026-08-25T07:22:34Z</time>
      </trkpt>
      <trkpt lat="45.0589" lon="6.0375">
        <ele>728.4</ele>
        <time>2026-08-25T07:22:35Z</time>
      </trkpt>
      <trkpt lat="45.05894" lon="6.03757">
        <ele>728.3</ele>
        <time>2026-08-25T07:22:36Z</time>
      </trkpt>
      <trkpt lat="45.05897" lon="6.03765">
        <ele>728.1</ele>
        <time>2026-08-25T07:22:37Z</time>
      </trkpt>
      <trkpt lat="45.059" lon="6.03773">
        <ele>728</ele>
        <time>2026-08-25T07:22:38Z</time>
      </trkpt>
      <trkpt lat="45.05903" lon="6.03782">
        <ele>727.9</ele>
        <time>2026-08-25T07:22:39Z</time>
      </trkpt>
      <trkpt lat="45.05905" lon="6.0379">
        <ele>727.9</ele>
        <time>2026-08-25T07:22:40Z</time>
      </trkpt>
      <trkpt lat="45.05907" lon="6.03799">
        <ele>727.8</ele>
        <time>2026-08-25T07:22:41Z</time>
      </trkpt>
      <trkpt lat="45.05908" lon="6.03809">
        <ele>727.7</ele>
        <time>2026-08-25T07:22:42Z</time>
      </trkpt>
      <trkpt lat="45.05909" lon="6.03819">
        <ele>727.7</ele>
        <time>2026-08-25T07:22:43Z</time>
      </trkpt>
      <trkpt lat="45.05908" lon="6.03829">
        <ele>727.6</ele>
        <time>2026-08-25T07:22:44Z</time>
      </trkpt>
      <trkpt lat="45.05906" lon="6.03839">
        <ele>727.5</ele>
        <time>2026-08-25T07:22:45Z</time>
      </trkpt>
      <trkpt lat="45.05904" lon="6.0385">
        <ele>727.4</ele>
        <time>2026-08-25T07:22:46Z</time>
      </trkpt>
      <trkpt lat="45.05901" lon="6.0386">
        <ele>727.3</ele>
        <time>2026-08-25T07:22:47Z</time>
      </trkpt>
      <trkpt lat="45.05898" lon="6.03869">
        <ele>727.2</ele>
        <time>2026-08-25T07:22:48Z</time>
      </trkpt>
      <trkpt lat="45.05894" lon="6.03879">
        <ele>727.2</ele>
        <time>2026-08-25T07:22:49Z</time>
      </trkpt>
      <trkpt lat="45.0589" lon="6.03888">
        <ele>727.2</ele>
        <time>2026-08-25T07:22:50Z</time>
      </trkpt>
      <trkpt lat="45.05885" lon="6.03896">
        <ele>727.2</ele>
        <time>2026-08-25T07:22:51Z</time>
      </trkpt>
      <trkpt lat="45.05879" lon="6.03904">
        <ele>727.3</ele>
        <time>2026-08-25T07:22:52Z</time>
      </trkpt>
      <trkpt lat="45.05873" lon="6.03911">
        <ele>727.4</ele>
        <time>2026-08-25T07:22:53Z</time>
      </trkpt>
      <trkpt lat="45.05867" lon="6.03917">
        <ele>727.5</ele>
        <time>2026-08-25T07:22:54Z</time>
      </trkpt>
      <trkpt lat="45.05861" lon="6.03923">
        <ele>727.5</ele>
        <time>2026-08-25T07:22:55Z</time>
      </trkpt>
      <trkpt lat="45.05854" lon="6.03928">
        <ele>727.5</ele>
        <time>2026-08-25T07:22:56Z</time>
      </trkpt>
      <trkpt lat="45.05847" lon="6.03933">
        <ele>727.5</ele>
        <time>2026-08-25T07:22:57Z</time>
      </trkpt>
      <trkpt lat="45.05841" lon="6.03937">
        <ele>727.5</ele>
        <time>2026-08-25T07:22:58Z</time>
      </trkpt>
      <trkpt lat="45.05834" lon="6.03941">
        <ele>727.5</ele>
        <time>2026-08-25T07:22:59Z</time>
      </trkpt>
      <trkpt lat="45.05827" lon="6.03945">
        <ele>727.6</ele>
        <time>2026-08-25T07:23:00Z</time>
      </trkpt>
      <trkpt lat="45.0582" lon="6.03949">
        <ele>727.6</ele>
        <time>2026-08-25T07:23:01Z</time>
      </trkpt>
      <trkpt lat="45.05814" lon="6.03953">
        <ele>727.7</ele>
        <time>2026-08-25T07:23:02Z</time>
      </trkpt>
      <trkpt lat="45.05807" lon="6.03957">
        <ele>727.7</ele>
        <time>2026-08-25T07:23:03Z</time>
      </trkpt>
      <trkpt lat="45.058" lon="6.0396">
        <ele>727.7</ele>
        <time>2026-08-25T07:23:04Z</time>
      </trkpt>
      <trkpt lat="45.05793" lon="6.03964">
        <ele>727.7</ele>
        <time>2026-08-25T07:23:05Z</time>
      </trkpt>
      <trkpt lat="45.05786" lon="6.03968">
        <ele>727.7</ele>
        <time>2026-08-25T07:23:06Z</time>
      </trkpt>
      <trkpt lat="45.0578" lon="6.03971">
        <ele>727.8</ele>
        <time>2026-08-25T07:23:07Z</time>
      </trkpt>
      <trkpt lat="45.05773" lon="6.03975">
        <ele>727.8</ele>
        <time>2026-08-25T07:23:08Z</time>
      </trkpt>
      <trkpt lat="45.05767" lon="6.03978">
        <ele>727.9</ele>
        <time>2026-08-25T07:23:09Z</time>
      </trkpt>
      <trkpt lat="45.0576" lon="6.03982">
        <ele>727.9</ele>
        <time>2026-08-25T07:23:10Z</time>
      </trkpt>
      <trkpt lat="45.05753" lon="6.03986">
        <ele>727.9</ele>
        <time>2026-08-25T07:23:11Z</time>
      </trkpt>
      <trkpt lat="45.05747" lon="6.03989">
        <ele>727.9</ele>
        <time>2026-08-25T07:23:12Z</time>
      </trkpt>
      <trkpt lat="45.0574" lon="6.03993">
        <ele>727.9</ele>
        <time>2026-08-25T07:23:13Z</time>
      </trkpt>
      <trkpt lat="45.05733" lon="6.03997">
        <ele>728</ele>
        <time>2026-08-25T07:23:14Z</time>
      </trkpt>
      <trkpt lat="45.05727" lon="6.04001">
        <ele>728</ele>
        <time>2026-08-25T07:23:15Z</time>
      </trkpt>
      <trkpt lat="45.0572" lon="6.04004">
        <ele>728</ele>
        <time>2026-08-25T07:23:16Z</time>
      </trkpt>
      <trkpt lat="45.05714" lon="6.04008">
        <ele>728</ele>
        <time>2026-08-25T07:23:17Z</time>
      </trkpt>
      <trkpt lat="45.05708" lon="6.04012">
        <ele>728</ele>
        <time>2026-08-25T07:23:18Z</time>
      </trkpt>
      <trkpt lat="45.05701" lon="6.04017">
        <ele>728</ele>
        <time>2026-08-25T07:23:19Z</time>
      </trkpt>
      <trkpt lat="45.05694" lon="6.04021">
        <ele>728</ele>
        <time>2026-08-25T07:23:20Z</time>
      </trkpt>
      <trkpt lat="45.05688" lon="6.04026">
        <ele>728</ele>
        <time>2026-08-25T07:23:21Z</time>
      </trkpt>
      <trkpt lat="45.05681" lon="6.04031">
        <ele>728</ele>
        <time>2026-08-25T07:23:22Z</time>
      </trkpt>
      <trkpt lat="45.05674" lon="6.04036">
        <ele>728</ele>
        <time>2026-08-25T07:23:23Z</time>
      </trkpt>
      <trkpt lat="45.05667" lon="6.04041">
        <ele>728</ele>
        <time>2026-08-25T07:23:24Z</time>
      </trkpt>
      <trkpt lat="45.05659" lon="6.04047">
        <ele>728</ele>
        <time>2026-08-25T07:23:25Z</time>
      </trkpt>
      <trkpt lat="45.05652" lon="6.04053">
        <ele>728.1</ele>
        <time>2026-08-25T07:23:26Z</time>
      </trkpt>
      <trkpt lat="45.05644" lon="6.04059">
        <ele>728.1</ele>
        <time>2026-08-25T07:23:27Z</time>
      </trkpt>
      <trkpt lat="45.05637" lon="6.04065">
        <ele>728.1</ele>
        <time>2026-08-25T07:23:28Z</time>
      </trkpt>
      <trkpt lat="45.05631" lon="6.04071">
        <ele>728.1</ele>
        <time>2026-08-25T07:23:29Z</time>
      </trkpt>
      <trkpt lat="45.05624" lon="6.04078">
        <ele>728.1</ele>
        <time>2026-08-25T07:23:30Z</time>
      </trkpt>
      <trkpt lat="45.05618" lon="6.04084">
        <ele>728.1</ele>
        <time>2026-08-25T07:23:31Z</time>
      </trkpt>
      <trkpt lat="45.05611" lon="6.04091">
        <ele>728.1</ele>
        <time>2026-08-25T07:23:32Z</time>
      </trkpt>
      <trkpt lat="45.05605" lon="6.04098">
        <ele>728.1</ele>
        <time>2026-08-25T07:23:33Z</time>
      </trkpt>
      <trkpt lat="45.05599" lon="6.04105">
        <ele>728.2</ele>
        <time>2026-08-25T07:23:34Z</time>
      </trkpt>
      <trkpt lat="45.05593" lon="6.04112">
        <ele>728.2</ele>
        <time>2026-08-25T07:23:35Z</time>
      </trkpt>
      <trkpt lat="45.05587" lon="6.04119">
        <ele>728.2</ele>
        <time>2026-08-25T07:23:36Z</time>
      </trkpt>
      <trkpt lat="45.05581" lon="6.04127">
        <ele>728.2</ele>
        <time>2026-08-25T07:23:37Z</time>
      </trkpt>
      <trkpt lat="45.05575" lon="6.04134">
        <ele>728.3</ele>
        <time>2026-08-25T07:23:38Z</time>
      </trkpt>
      <trkpt lat="45.0557" lon="6.04141">
        <ele>728.3</ele>
        <time>2026-08-25T07:23:39Z</time>
      </trkpt>
      <trkpt lat="45.05564" lon="6.04149">
        <ele>728.3</ele>
        <time>2026-08-25T07:23:40Z</time>
      </trkpt>
      <trkpt lat="45.05558" lon="6.04156">
        <ele>728.4</ele>
        <time>2026-08-25T07:23:41Z</time>
      </trkpt>
      <trkpt lat="45.05552" lon="6.04164">
        <ele>728.4</ele>
        <time>2026-08-25T07:23:42Z</time>
      </trkpt>
      <trkpt lat="45.05546" lon="6.04171">
        <ele>728.5</ele>
        <time>2026-08-25T07:23:43Z</time>
      </trkpt>
      <trkpt lat="45.0554" lon="6.04178">
        <ele>728.5</ele>
        <time>2026-08-25T07:23:44Z</time>
      </trkpt>
      <trkpt lat="45.05534" lon="6.04185">
        <ele>728.6</ele>
        <time>2026-08-25T07:23:45Z</time>
      </trkpt>
      <trkpt lat="45.05528" lon="6.04192">
        <ele>728.6</ele>
        <time>2026-08-25T07:23:46Z</time>
      </trkpt>
      <trkpt lat="45.05522" lon="6.042">
        <ele>728.7</ele>
        <time>2026-08-25T07:23:47Z</time>
      </trkpt>
      <trkpt lat="45.05517" lon="6.04207">
        <ele>728.7</ele>
        <time>2026-08-25T07:23:48Z</time>
      </trkpt>
      <trkpt lat="45.05511" lon="6.04214">
        <ele>728.7</ele>
        <time>2026-08-25T07:23:49Z</time>
      </trkpt>
      <trkpt lat="45.05505" lon="6.04222">
        <ele>728.8</ele>
        <time>2026-08-25T07:23:50Z</time>
      </trkpt>
      <trkpt lat="45.05499" lon="6.04229">
        <ele>728.8</ele>
        <time>2026-08-25T07:23:51Z</time>
      </trkpt>
      <trkpt lat="45.05494" lon="6.04237">
        <ele>728.8</ele>
        <time>2026-08-25T07:23:52Z</time>
      </trkpt>
      <trkpt lat="45.05488" lon="6.04244">
        <ele>728.8</ele>
        <time>2026-08-25T07:23:53Z</time>
      </trkpt>
      <trkpt lat="45.05481" lon="6.04251">
        <ele>728.8</ele>
        <time>2026-08-25T07:23:54Z</time>
      </trkpt>
      <trkpt lat="45.05476" lon="6.04258">
        <ele>728.8</ele>
        <time>2026-08-25T07:23:55Z</time>
      </trkpt>
      <trkpt lat="45.0547" lon="6.04266">
        <ele>728.8</ele>
        <time>2026-08-25T07:23:56Z</time>
      </trkpt>
      <trkpt lat="45.05464" lon="6.04274">
        <ele>728.8</ele>
        <time>2026-08-25T07:23:57Z</time>
      </trkpt>
      <trkpt lat="45.05457" lon="6.04281">
        <ele>728.8</ele>
        <time>2026-08-25T07:23:58Z</time>
      </trkpt>
      <trkpt lat="45.05451" lon="6.04288">
        <ele>728.8</ele>
        <time>2026-08-25T07:23:59Z</time>
      </trkpt>
      <trkpt lat="45.05445" lon="6.04296">
        <ele>728.8</ele>
        <time>2026-08-25T07:24:00Z</time>
      </trkpt>
      <trkpt lat="45.0544" lon="6.04303">
        <ele>728.9</ele>
        <time>2026-08-25T07:24:01Z</time>
      </trkpt>
      <trkpt lat="45.05434" lon="6.0431">
        <ele>728.9</ele>
        <time>2026-08-25T07:24:02Z</time>
      </trkpt>
      <trkpt lat="45.05428" lon="6.04318">
        <ele>728.9</ele>
        <time>2026-08-25T07:24:03Z</time>
      </trkpt>
      <trkpt lat="45.05422" lon="6.04325">
        <ele>728.9</ele>
        <time>2026-08-25T07:24:04Z</time>
      </trkpt>
      <trkpt lat="45.05416" lon="6.04332">
        <ele>728.9</ele>
        <time>2026-08-25T07:24:05Z</time>
      </trkpt>
      <trkpt lat="45.0541" lon="6.04339">
        <ele>728.9</ele>
        <time>2026-08-25T07:24:06Z</time>
      </trkpt>
      <trkpt lat="45.05404" lon="6.04347">
        <ele>728.9</ele>
        <time>2026-08-25T07:24:07Z</time>
      </trkpt>
      <trkpt lat="45.05399" lon="6.04354">
        <ele>728.9</ele>
        <time>2026-08-25T07:24:08Z</time>
      </trkpt>
      <trkpt lat="45.05393" lon="6.04361">
        <ele>728.9</ele>
        <time>2026-08-25T07:24:09Z</time>
      </trkpt>
      <trkpt lat="45.05387" lon="6.04368">
        <ele>728.9</ele>
        <time>2026-08-25T07:24:10Z</time>
      </trkpt>
      <trkpt lat="45.05381" lon="6.04375">
        <ele>729</ele>
        <time>2026-08-25T07:24:11Z</time>
      </trkpt>
      <trkpt lat="45.05375" lon="6.04382">
        <ele>729</ele>
        <time>2026-08-25T07:24:12Z</time>
      </trkpt>
      <trkpt lat="45.0537" lon="6.04389">
        <ele>728.9</ele>
        <time>2026-08-25T07:24:13Z</time>
      </trkpt>
      <trkpt lat="45.05364" lon="6.04396">
        <ele>728.9</ele>
        <time>2026-08-25T07:24:14Z</time>
      </trkpt>
      <trkpt lat="45.05358" lon="6.04403">
        <ele>728.9</ele>
        <time>2026-08-25T07:24:15Z</time>
      </trkpt>
      <trkpt lat="45.05353" lon="6.04411">
        <ele>728.9</ele>
        <time>2026-08-25T07:24:16Z</time>
      </trkpt>
      <trkpt lat="45.05347" lon="6.04418">
        <ele>728.9</ele>
        <time>2026-08-25T07:24:17Z</time>
      </trkpt>
      <trkpt lat="45.05342" lon="6.04425">
        <ele>728.9</ele>
        <time>2026-08-25T07:24:18Z</time>
      </trkpt>
      <trkpt lat="45.05336" lon="6.04433">
        <ele>728.9</ele>
        <time>2026-08-25T07:24:19Z</time>
      </trkpt>
      <trkpt lat="45.0533" lon="6.0444">
        <ele>728.9</ele>
        <time>2026-08-25T07:24:20Z</time>
      </trkpt>
      <trkpt lat="45.05324" lon="6.04447">
        <ele>728.9</ele>
        <time>2026-08-25T07:24:21Z</time>
      </trkpt>
      <trkpt lat="45.05318" lon="6.04455">
        <ele>728.9</ele>
        <time>2026-08-25T07:24:22Z</time>
      </trkpt>
      <trkpt lat="45.05312" lon="6.04462">
        <ele>728.9</ele>
        <time>2026-08-25T07:24:23Z</time>
      </trkpt>
      <trkpt lat="45.05307" lon="6.0447">
        <ele>728.9</ele>
        <time>2026-08-25T07:24:24Z</time>
      </trkpt>
      <trkpt lat="45.05301" lon="6.04477">
        <ele>728.9</ele>
        <time>2026-08-25T07:24:25Z</time>
      </trkpt>
      <trkpt lat="45.05295" lon="6.04485">
        <ele>728.9</ele>
        <time>2026-08-25T07:24:26Z</time>
      </trkpt>
      <trkpt lat="45.05289" lon="6.04492">
        <ele>728.9</ele>
        <time>2026-08-25T07:24:27Z</time>
      </trkpt>
      <trkpt lat="45.05283" lon="6.04499">
        <ele>729</ele>
        <time>2026-08-25T07:24:28Z</time>
      </trkpt>
      <trkpt lat="45.05278" lon="6.04506">
        <ele>729</ele>
        <time>2026-08-25T07:24:29Z</time>
      </trkpt>
      <trkpt lat="45.05272" lon="6.04514">
        <ele>729.1</ele>
        <time>2026-08-25T07:24:30Z</time>
      </trkpt>
      <trkpt lat="45.05266" lon="6.04521">
        <ele>729.2</ele>
        <time>2026-08-25T07:24:31Z</time>
      </trkpt>
      <trkpt lat="45.0526" lon="6.04529">
        <ele>729.2</ele>
        <time>2026-08-25T07:24:32Z</time>
      </trkpt>
      <trkpt lat="45.05254" lon="6.04536">
        <ele>729.3</ele>
        <time>2026-08-25T07:24:33Z</time>
      </trkpt>
      <trkpt lat="45.05248" lon="6.04543">
        <ele>729.3</ele>
        <time>2026-08-25T07:24:34Z</time>
      </trkpt>
      <trkpt lat="45.05242" lon="6.0455">
        <ele>729.3</ele>
        <time>2026-08-25T07:24:35Z</time>
      </trkpt>
      <trkpt lat="45.05237" lon="6.04557">
        <ele>729.4</ele>
        <time>2026-08-25T07:24:36Z</time>
      </trkpt>
      <trkpt lat="45.05231" lon="6.04565">
        <ele>729.4</ele>
        <time>2026-08-25T07:24:37Z</time>
      </trkpt>
      <trkpt lat="45.05225" lon="6.04572">
        <ele>729.4</ele>
        <time>2026-08-25T07:24:38Z</time>
      </trkpt>
      <trkpt lat="45.0522" lon="6.04579">
        <ele>729.4</ele>
        <time>2026-08-25T07:24:39Z</time>
      </trkpt>
      <trkpt lat="45.05214" lon="6.04586">
        <ele>729.4</ele>
        <time>2026-08-25T07:24:40Z</time>
      </trkpt>
      <trkpt lat="45.05209" lon="6.04594">
        <ele>729.4</ele>
        <time>2026-08-25T07:24:41Z</time>
      </trkpt>
      <trkpt lat="45.05203" lon="6.04601">
        <ele>729.4</ele>
        <time>2026-08-25T07:24:42Z</time>
      </trkpt>
      <trkpt lat="45.05197" lon="6.04608">
        <ele>729.4</ele>
        <time>2026-08-25T07:24:43Z</time>
      </trkpt>
      <trkpt lat="45.05191" lon="6.04615">
        <ele>729.4</ele>
        <time>2026-08-25T07:24:44Z</time>
      </trkpt>
      <trkpt lat="45.05186" lon="6.04622">
        <ele>729.4</ele>
        <time>2026-08-25T07:24:45Z</time>
      </trkpt>
      <trkpt lat="45.0518" lon="6.04629">
        <ele>729.4</ele>
        <time>2026-08-25T07:24:46Z</time>
      </trkpt>
      <trkpt lat="45.05174" lon="6.04637">
        <ele>729.4</ele>
        <time>2026-08-25T07:24:47Z</time>
      </trkpt>
      <trkpt lat="45.05168" lon="6.04644">
        <ele>729.4</ele>
        <time>2026-08-25T07:24:48Z</time>
      </trkpt>
      <trkpt lat="45.05162" lon="6.04652">
        <ele>729.4</ele>
        <time>2026-08-25T07:24:49Z</time>
      </trkpt>
      <trkpt lat="45.05156" lon="6.04659">
        <ele>729.4</ele>
        <time>2026-08-25T07:24:50Z</time>
      </trkpt>
      <trkpt lat="45.0515" lon="6.04667">
        <ele>729.4</ele>
        <time>2026-08-25T07:24:51Z</time>
      </trkpt>
      <trkpt lat="45.05145" lon="6.04674">
        <ele>729.4</ele>
        <time>2026-08-25T07:24:52Z</time>
      </trkpt>
      <trkpt lat="45.05139" lon="6.04681">
        <ele>729.4</ele>
        <time>2026-08-25T07:24:53Z</time>
      </trkpt>
      <trkpt lat="45.05133" lon="6.04689">
        <ele>729.4</ele>
        <time>2026-08-25T07:24:54Z</time>
      </trkpt>
      <trkpt lat="45.05128" lon="6.04696">
        <ele>729.4</ele>
        <time>2026-08-25T07:24:55Z</time>
      </trkpt>
      <trkpt lat="45.05122" lon="6.04704">
        <ele>729.4</ele>
        <time>2026-08-25T07:24:56Z</time>
      </trkpt>
      <trkpt lat="45.05117" lon="6.04712">
        <ele>729.4</ele>
        <time>2026-08-25T07:24:57Z</time>
      </trkpt>
      <trkpt lat="45.05111" lon="6.0472">
        <ele>729.5</ele>
        <time>2026-08-25T07:24:58Z</time>
      </trkpt>
      <trkpt lat="45.05106" lon="6.04727">
        <ele>729.5</ele>
        <time>2026-08-25T07:24:59Z</time>
      </trkpt>
      <trkpt lat="45.05102" lon="6.04735">
        <ele>729.6</ele>
        <time>2026-08-25T07:25:00Z</time>
      </trkpt>
      <trkpt lat="45.05097" lon="6.04744">
        <ele>729.6</ele>
        <time>2026-08-25T07:25:01Z</time>
      </trkpt>
      <trkpt lat="45.05092" lon="6.04752">
        <ele>729.6</ele>
        <time>2026-08-25T07:25:02Z</time>
      </trkpt>
      <trkpt lat="45.05087" lon="6.0476">
        <ele>729.7</ele>
        <time>2026-08-25T07:25:03Z</time>
      </trkpt>
      <trkpt lat="45.05082" lon="6.04769">
        <ele>729.7</ele>
        <time>2026-08-25T07:25:04Z</time>
      </trkpt>
      <trkpt lat="45.05077" lon="6.04777">
        <ele>729.7</ele>
        <time>2026-08-25T07:25:05Z</time>
      </trkpt>
      <trkpt lat="45.05073" lon="6.04785">
        <ele>729.7</ele>
        <time>2026-08-25T07:25:06Z</time>
      </trkpt>
      <trkpt lat="45.05068" lon="6.04793">
        <ele>729.7</ele>
        <time>2026-08-25T07:25:07Z</time>
      </trkpt>
      <trkpt lat="45.05063" lon="6.04802">
        <ele>729.8</ele>
        <time>2026-08-25T07:25:08Z</time>
      </trkpt>
      <trkpt lat="45.05058" lon="6.0481">
        <ele>729.8</ele>
        <time>2026-08-25T07:25:09Z</time>
      </trkpt>
      <trkpt lat="45.05053" lon="6.04819">
        <ele>729.8</ele>
        <time>2026-08-25T07:25:10Z</time>
      </trkpt>
      <trkpt lat="45.05048" lon="6.04827">
        <ele>729.8</ele>
        <time>2026-08-25T07:25:11Z</time>
      </trkpt>
      <trkpt lat="45.05044" lon="6.04836">
        <ele>729.8</ele>
        <time>2026-08-25T07:25:12Z</time>
      </trkpt>
      <trkpt lat="45.05039" lon="6.04844">
        <ele>729.8</ele>
        <time>2026-08-25T07:25:13Z</time>
      </trkpt>
      <trkpt lat="45.05034" lon="6.04852">
        <ele>729.8</ele>
        <time>2026-08-25T07:25:14Z</time>
      </trkpt>
      <trkpt lat="45.0503" lon="6.0486">
        <ele>729.8</ele>
        <time>2026-08-25T07:25:15Z</time>
      </trkpt>
      <trkpt lat="45.05025" lon="6.04868">
        <ele>729.8</ele>
        <time>2026-08-25T07:25:16Z</time>
      </trkpt>
      <trkpt lat="45.0502" lon="6.04877">
        <ele>729.8</ele>
        <time>2026-08-25T07:25:17Z</time>
      </trkpt>
      <trkpt lat="45.05014" lon="6.04885">
        <ele>729.8</ele>
        <time>2026-08-25T07:25:18Z</time>
      </trkpt>
      <trkpt lat="45.05009" lon="6.04893">
        <ele>729.8</ele>
        <time>2026-08-25T07:25:19Z</time>
      </trkpt>
      <trkpt lat="45.05004" lon="6.04902">
        <ele>729.9</ele>
        <time>2026-08-25T07:25:20Z</time>
      </trkpt>
      <trkpt lat="45.04999" lon="6.0491">
        <ele>729.9</ele>
        <time>2026-08-25T07:25:21Z</time>
      </trkpt>
      <trkpt lat="45.04995" lon="6.04918">
        <ele>729.9</ele>
        <time>2026-08-25T07:25:22Z</time>
      </trkpt>
      <trkpt lat="45.0499" lon="6.04926">
        <ele>730</ele>
        <time>2026-08-25T07:25:23Z</time>
      </trkpt>
      <trkpt lat="45.04985" lon="6.04934">
        <ele>730</ele>
        <time>2026-08-25T07:25:24Z</time>
      </trkpt>
      <trkpt lat="45.0498" lon="6.04942">
        <ele>730</ele>
        <time>2026-08-25T07:25:25Z</time>
      </trkpt>
      <trkpt lat="45.04976" lon="6.0495">
        <ele>730</ele>
        <time>2026-08-25T07:25:26Z</time>
      </trkpt>
      <trkpt lat="45.04971" lon="6.04958">
        <ele>730.1</ele>
        <time>2026-08-25T07:25:27Z</time>
      </trkpt>
      <trkpt lat="45.04967" lon="6.04967">
        <ele>730.1</ele>
        <time>2026-08-25T07:25:28Z</time>
      </trkpt>
      <trkpt lat="45.04962" lon="6.04975">
        <ele>730.1</ele>
        <time>2026-08-25T07:25:29Z</time>
      </trkpt>
      <trkpt lat="45.04957" lon="6.04983">
        <ele>730.1</ele>
        <time>2026-08-25T07:25:30Z</time>
      </trkpt>
      <trkpt lat="45.04952" lon="6.04991">
        <ele>730.1</ele>
        <time>2026-08-25T07:25:31Z</time>
      </trkpt>
      <trkpt lat="45.04947" lon="6.05">
        <ele>730.2</ele>
        <time>2026-08-25T07:25:32Z</time>
      </trkpt>
      <trkpt lat="45.04943" lon="6.05008">
        <ele>730.2</ele>
        <time>2026-08-25T07:25:33Z</time>
      </trkpt>
      <trkpt lat="45.04938" lon="6.05016">
        <ele>730.2</ele>
        <time>2026-08-25T07:25:34Z</time>
      </trkpt>
      <trkpt lat="45.04933" lon="6.05024">
        <ele>730.2</ele>
        <time>2026-08-25T07:25:35Z</time>
      </trkpt>
      <trkpt lat="45.04929" lon="6.05032">
        <ele>730.2</ele>
        <time>2026-08-25T07:25:36Z</time>
      </trkpt>
      <trkpt lat="45.04924" lon="6.0504">
        <ele>730.2</ele>
        <time>2026-08-25T07:25:37Z</time>
      </trkpt>
      <trkpt lat="45.04919" lon="6.05048">
        <ele>730.2</ele>
        <time>2026-08-25T07:25:38Z</time>
      </trkpt>
      <trkpt lat="45.04915" lon="6.05057">
        <ele>730.2</ele>
        <time>2026-08-25T07:25:39Z</time>
      </trkpt>
      <trkpt lat="45.0491" lon="6.05065">
        <ele>730.3</ele>
        <time>2026-08-25T07:25:40Z</time>
      </trkpt>
      <trkpt lat="45.04905" lon="6.05073">
        <ele>730.3</ele>
        <time>2026-08-25T07:25:41Z</time>
      </trkpt>
      <trkpt lat="45.049" lon="6.05081">
        <ele>730.3</ele>
        <time>2026-08-25T07:25:42Z</time>
      </trkpt>
      <trkpt lat="45.04895" lon="6.05089">
        <ele>730.4</ele>
        <time>2026-08-25T07:25:43Z</time>
      </trkpt>
      <trkpt lat="45.04891" lon="6.05097">
        <ele>730.4</ele>
        <time>2026-08-25T07:25:44Z</time>
      </trkpt>
      <trkpt lat="45.04886" lon="6.05105">
        <ele>730.5</ele>
        <time>2026-08-25T07:25:45Z</time>
      </trkpt>
      <trkpt lat="45.04881" lon="6.05113">
        <ele>730.5</ele>
        <time>2026-08-25T07:25:46Z</time>
      </trkpt>
      <trkpt lat="45.04876" lon="6.05121">
        <ele>730.5</ele>
        <time>2026-08-25T07:25:47Z</time>
      </trkpt>
      <trkpt lat="45.04871" lon="6.0513">
        <ele>730.5</ele>
        <time>2026-08-25T07:25:48Z</time>
      </trkpt>
      <trkpt lat="45.04866" lon="6.05138">
        <ele>730.5</ele>
        <time>2026-08-25T07:25:49Z</time>
      </trkpt>
      <trkpt lat="45.04861" lon="6.05146">
        <ele>730.5</ele>
        <time>2026-08-25T07:25:50Z</time>
      </trkpt>
      <trkpt lat="45.04856" lon="6.05154">
        <ele>730.5</ele>
        <time>2026-08-25T07:25:51Z</time>
      </trkpt>
      <trkpt lat="45.04851" lon="6.05163">
        <ele>730.5</ele>
        <time>2026-08-25T07:25:52Z</time>
      </trkpt>
      <trkpt lat="45.04846" lon="6.05172">
        <ele>730.6</ele>
        <time>2026-08-25T07:25:53Z</time>
      </trkpt>
      <trkpt lat="45.04841" lon="6.0518">
        <ele>730.6</ele>
        <time>2026-08-25T07:25:54Z</time>
      </trkpt>
      <trkpt lat="45.04836" lon="6.05189">
        <ele>730.6</ele>
        <time>2026-08-25T07:25:55Z</time>
      </trkpt>
      <trkpt lat="45.04831" lon="6.05197">
        <ele>730.7</ele>
        <time>2026-08-25T07:25:56Z</time>
      </trkpt>
      <trkpt lat="45.04826" lon="6.05206">
        <ele>730.7</ele>
        <time>2026-08-25T07:25:57Z</time>
      </trkpt>
      <trkpt lat="45.04821" lon="6.05215">
        <ele>730.7</ele>
        <time>2026-08-25T07:25:58Z</time>
      </trkpt>
      <trkpt lat="45.04816" lon="6.05224">
        <ele>730.8</ele>
        <time>2026-08-25T07:25:59Z</time>
      </trkpt>
      <trkpt lat="45.04811" lon="6.05232">
        <ele>730.8</ele>
        <time>2026-08-25T07:26:00Z</time>
      </trkpt>
      <trkpt lat="45.04806" lon="6.05241">
        <ele>730.8</ele>
        <time>2026-08-25T07:26:01Z</time>
      </trkpt>
      <trkpt lat="45.04801" lon="6.05249">
        <ele>730.9</ele>
        <time>2026-08-25T07:26:02Z</time>
      </trkpt>
      <trkpt lat="45.04796" lon="6.05258">
        <ele>730.9</ele>
        <time>2026-08-25T07:26:03Z</time>
      </trkpt>
      <trkpt lat="45.0479" lon="6.05267">
        <ele>730.9</ele>
        <time>2026-08-25T07:26:04Z</time>
      </trkpt>
      <trkpt lat="45.04785" lon="6.05276">
        <ele>730.9</ele>
        <time>2026-08-25T07:26:05Z</time>
      </trkpt>
      <trkpt lat="45.0478" lon="6.05284">
        <ele>730.9</ele>
        <time>2026-08-25T07:26:06Z</time>
      </trkpt>
      <trkpt lat="45.04775" lon="6.05293">
        <ele>730.9</ele>
        <time>2026-08-25T07:26:07Z</time>
      </trkpt>
      <trkpt lat="45.0477" lon="6.05302">
        <ele>730.9</ele>
        <time>2026-08-25T07:26:08Z</time>
      </trkpt>
      <trkpt lat="45.04765" lon="6.0531">
        <ele>730.9</ele>
        <time>2026-08-25T07:26:09Z</time>
      </trkpt>
      <trkpt lat="45.0476" lon="6.05319">
        <ele>730.9</ele>
        <time>2026-08-25T07:26:10Z</time>
      </trkpt>
      <trkpt lat="45.04755" lon="6.05327">
        <ele>730.9</ele>
        <time>2026-08-25T07:26:11Z</time>
      </trkpt>
      <trkpt lat="45.0475" lon="6.05336">
        <ele>730.9</ele>
        <time>2026-08-25T07:26:12Z</time>
      </trkpt>
      <trkpt lat="45.04744" lon="6.05344">
        <ele>730.9</ele>
        <time>2026-08-25T07:26:13Z</time>
      </trkpt>
      <trkpt lat="45.04739" lon="6.05353">
        <ele>730.9</ele>
        <time>2026-08-25T07:26:14Z</time>
      </trkpt>
      <trkpt lat="45.04735" lon="6.05362">
        <ele>731</ele>
        <time>2026-08-25T07:26:15Z</time>
      </trkpt>
      <trkpt lat="45.0473" lon="6.05371">
        <ele>731</ele>
        <time>2026-08-25T07:26:16Z</time>
      </trkpt>
      <trkpt lat="45.04725" lon="6.0538">
        <ele>731</ele>
        <time>2026-08-25T07:26:17Z</time>
      </trkpt>
      <trkpt lat="45.0472" lon="6.05389">
        <ele>731.1</ele>
        <time>2026-08-25T07:26:18Z</time>
      </trkpt>
      <trkpt lat="45.04714" lon="6.05398">
        <ele>731.1</ele>
        <time>2026-08-25T07:26:19Z</time>
      </trkpt>
      <trkpt lat="45.04709" lon="6.05406">
        <ele>731.2</ele>
        <time>2026-08-25T07:26:20Z</time>
      </trkpt>
      <trkpt lat="45.04704" lon="6.05415">
        <ele>731.2</ele>
        <time>2026-08-25T07:26:21Z</time>
      </trkpt>
      <trkpt lat="45.04699" lon="6.05424">
        <ele>731.2</ele>
        <time>2026-08-25T07:26:22Z</time>
      </trkpt>
      <trkpt lat="45.04694" lon="6.05432">
        <ele>731.3</ele>
        <time>2026-08-25T07:26:23Z</time>
      </trkpt>
      <trkpt lat="45.04689" lon="6.05441">
        <ele>731.3</ele>
        <time>2026-08-25T07:26:24Z</time>
      </trkpt>
      <trkpt lat="45.04684" lon="6.0545">
        <ele>731.3</ele>
        <time>2026-08-25T07:26:25Z</time>
      </trkpt>
      <trkpt lat="45.04679" lon="6.05458">
        <ele>731.4</ele>
        <time>2026-08-25T07:26:26Z</time>
      </trkpt>
      <trkpt lat="45.04673" lon="6.05467">
        <ele>731.4</ele>
        <time>2026-08-25T07:26:27Z</time>
      </trkpt>
      <trkpt lat="45.04668" lon="6.05475">
        <ele>731.4</ele>
        <time>2026-08-25T07:26:28Z</time>
      </trkpt>
      <trkpt lat="45.04663" lon="6.05484">
        <ele>731.5</ele>
        <time>2026-08-25T07:26:29Z</time>
      </trkpt>
      <trkpt lat="45.04658" lon="6.05493">
        <ele>731.5</ele>
        <time>2026-08-25T07:26:30Z</time>
      </trkpt>
      <trkpt lat="45.04653" lon="6.05502">
        <ele>731.6</ele>
        <time>2026-08-25T07:26:31Z</time>
      </trkpt>
      <trkpt lat="45.04648" lon="6.05511">
        <ele>731.6</ele>
        <time>2026-08-25T07:26:32Z</time>
      </trkpt>
      <trkpt lat="45.04643" lon="6.05519">
        <ele>731.6</ele>
        <time>2026-08-25T07:26:33Z</time>
      </trkpt>
      <trkpt lat="45.04638" lon="6.05528">
        <ele>731.7</ele>
        <time>2026-08-25T07:26:34Z</time>
      </trkpt>
      <trkpt lat="45.04633" lon="6.05536">
        <ele>731.7</ele>
        <time>2026-08-25T07:26:35Z</time>
      </trkpt>
      <trkpt lat="45.04628" lon="6.05545">
        <ele>731.7</ele>
        <time>2026-08-25T07:26:36Z</time>
      </trkpt>
      <trkpt lat="45.04623" lon="6.05553">
        <ele>731.8</ele>
        <time>2026-08-25T07:26:37Z</time>
      </trkpt>
      <trkpt lat="45.04618" lon="6.05562">
        <ele>731.9</ele>
        <time>2026-08-25T07:26:38Z</time>
      </trkpt>
      <trkpt lat="45.04613" lon="6.0557">
        <ele>731.9</ele>
        <time>2026-08-25T07:26:39Z</time>
      </trkpt>
      <trkpt lat="45.04608" lon="6.05579">
        <ele>732</ele>
        <time>2026-08-25T07:26:40Z</time>
      </trkpt>
      <trkpt lat="45.04602" lon="6.05587">
        <ele>732</ele>
        <time>2026-08-25T07:26:41Z</time>
      </trkpt>
      <trkpt lat="45.04597" lon="6.05596">
        <ele>732</ele>
        <time>2026-08-25T07:26:42Z</time>
      </trkpt>
      <trkpt lat="45.04591" lon="6.05603">
        <ele>732.1</ele>
        <time>2026-08-25T07:26:43Z</time>
      </trkpt>
      <trkpt lat="45.04585" lon="6.05611">
        <ele>732.1</ele>
        <time>2026-08-25T07:26:44Z</time>
      </trkpt>
      <trkpt lat="45.0458" lon="6.05618">
        <ele>732.1</ele>
        <time>2026-08-25T07:26:45Z</time>
      </trkpt>
      <trkpt lat="45.04573" lon="6.05625">
        <ele>732.1</ele>
        <time>2026-08-25T07:26:46Z</time>
      </trkpt>
      <trkpt lat="45.04567" lon="6.05632">
        <ele>732.1</ele>
        <time>2026-08-25T07:26:47Z</time>
      </trkpt>
      <trkpt lat="45.04561" lon="6.05639">
        <ele>732.1</ele>
        <time>2026-08-25T07:26:48Z</time>
      </trkpt>
      <trkpt lat="45.04555" lon="6.05646">
        <ele>732.1</ele>
        <time>2026-08-25T07:26:49Z</time>
      </trkpt>
      <trkpt lat="45.04549" lon="6.05653">
        <ele>732.1</ele>
        <time>2026-08-25T07:26:50Z</time>
      </trkpt>
      <trkpt lat="45.04542" lon="6.05659">
        <ele>732.1</ele>
        <time>2026-08-25T07:26:51Z</time>
      </trkpt>
      <trkpt lat="45.04535" lon="6.05664">
        <ele>732.1</ele>
        <time>2026-08-25T07:26:52Z</time>
      </trkpt>
      <trkpt lat="45.04529" lon="6.0567">
        <ele>732</ele>
        <time>2026-08-25T07:26:53Z</time>
      </trkpt>
      <trkpt lat="45.04522" lon="6.05676">
        <ele>732</ele>
        <time>2026-08-25T07:26:54Z</time>
      </trkpt>
      <trkpt lat="45.04515" lon="6.05682">
        <ele>731.9</ele>
        <time>2026-08-25T07:26:55Z</time>
      </trkpt>
      <trkpt lat="45.04508" lon="6.05688">
        <ele>731.9</ele>
        <time>2026-08-25T07:26:56Z</time>
      </trkpt>
      <trkpt lat="45.04501" lon="6.05693">
        <ele>731.9</ele>
        <time>2026-08-25T07:26:57Z</time>
      </trkpt>
      <trkpt lat="45.04494" lon="6.05699">
        <ele>731.9</ele>
        <time>2026-08-25T07:26:58Z</time>
      </trkpt>
      <trkpt lat="45.04487" lon="6.05705">
        <ele>731.9</ele>
        <time>2026-08-25T07:26:59Z</time>
      </trkpt>
      <trkpt lat="45.04481" lon="6.05711">
        <ele>731.9</ele>
        <time>2026-08-25T07:27:00Z</time>
      </trkpt>
      <trkpt lat="45.04474" lon="6.05717">
        <ele>731.9</ele>
        <time>2026-08-25T07:27:01Z</time>
      </trkpt>
      <trkpt lat="45.04468" lon="6.05722">
        <ele>731.9</ele>
        <time>2026-08-25T07:27:02Z</time>
      </trkpt>
      <trkpt lat="45.04461" lon="6.05729">
        <ele>731.9</ele>
        <time>2026-08-25T07:27:03Z</time>
      </trkpt>
      <trkpt lat="45.04454" lon="6.05735">
        <ele>731.9</ele>
        <time>2026-08-25T07:27:04Z</time>
      </trkpt>
      <trkpt lat="45.04448" lon="6.05741">
        <ele>732</ele>
        <time>2026-08-25T07:27:05Z</time>
      </trkpt>
      <trkpt lat="45.04441" lon="6.05747">
        <ele>732</ele>
        <time>2026-08-25T07:27:06Z</time>
      </trkpt>
      <trkpt lat="45.04435" lon="6.05753">
        <ele>732</ele>
        <time>2026-08-25T07:27:07Z</time>
      </trkpt>
      <trkpt lat="45.04428" lon="6.05759">
        <ele>732</ele>
        <time>2026-08-25T07:27:08Z</time>
      </trkpt>
      <trkpt lat="45.04421" lon="6.05765">
        <ele>732</ele>
        <time>2026-08-25T07:27:09Z</time>
      </trkpt>
      <trkpt lat="45.04414" lon="6.0577">
        <ele>732</ele>
        <time>2026-08-25T07:27:10Z</time>
      </trkpt>
      <trkpt lat="45.04407" lon="6.05776">
        <ele>732</ele>
        <time>2026-08-25T07:27:11Z</time>
      </trkpt>
      <trkpt lat="45.044" lon="6.05783">
        <ele>732.1</ele>
        <time>2026-08-25T07:27:12Z</time>
      </trkpt>
      <trkpt lat="45.04393" lon="6.05789">
        <ele>732.1</ele>
        <time>2026-08-25T07:27:13Z</time>
      </trkpt>
      <trkpt lat="45.04386" lon="6.05795">
        <ele>732.1</ele>
        <time>2026-08-25T07:27:14Z</time>
      </trkpt>
      <trkpt lat="45.04379" lon="6.05801">
        <ele>732.2</ele>
        <time>2026-08-25T07:27:15Z</time>
      </trkpt>
      <trkpt lat="45.04373" lon="6.05807">
        <ele>732.2</ele>
        <time>2026-08-25T07:27:16Z</time>
      </trkpt>
      <trkpt lat="45.04366" lon="6.05813">
        <ele>732.3</ele>
        <time>2026-08-25T07:27:17Z</time>
      </trkpt>
      <trkpt lat="45.04359" lon="6.05819">
        <ele>732.4</ele>
        <time>2026-08-25T07:27:18Z</time>
      </trkpt>
      <trkpt lat="45.04352" lon="6.05825">
        <ele>732.4</ele>
        <time>2026-08-25T07:27:19Z</time>
      </trkpt>
      <trkpt lat="45.04345" lon="6.05831">
        <ele>732.4</ele>
        <time>2026-08-25T07:27:20Z</time>
      </trkpt>
      <trkpt lat="45.04339" lon="6.05837">
        <ele>732.4</ele>
        <time>2026-08-25T07:27:21Z</time>
      </trkpt>
      <trkpt lat="45.04332" lon="6.05843">
        <ele>732.4</ele>
        <time>2026-08-25T07:27:22Z</time>
      </trkpt>
      <trkpt lat="45.04326" lon="6.05849">
        <ele>732.4</ele>
        <time>2026-08-25T07:27:23Z</time>
      </trkpt>
      <trkpt lat="45.04319" lon="6.05855">
        <ele>732.4</ele>
        <time>2026-08-25T07:27:24Z</time>
      </trkpt>
      <trkpt lat="45.04313" lon="6.05861">
        <ele>732.5</ele>
        <time>2026-08-25T07:27:25Z</time>
      </trkpt>
      <trkpt lat="45.04305" lon="6.05867">
        <ele>732.5</ele>
        <time>2026-08-25T07:27:26Z</time>
      </trkpt>
      <trkpt lat="45.04298" lon="6.05874">
        <ele>732.5</ele>
        <time>2026-08-25T07:27:27Z</time>
      </trkpt>
      <trkpt lat="45.04291" lon="6.0588">
        <ele>732.5</ele>
        <time>2026-08-25T07:27:28Z</time>
      </trkpt>
      <trkpt lat="45.04284" lon="6.05886">
        <ele>732.5</ele>
        <time>2026-08-25T07:27:29Z</time>
      </trkpt>
      <trkpt lat="45.04277" lon="6.05892">
        <ele>732.5</ele>
        <time>2026-08-25T07:27:30Z</time>
      </trkpt>
      <trkpt lat="45.0427" lon="6.05898">
        <ele>732.5</ele>
        <time>2026-08-25T07:27:31Z</time>
      </trkpt>
      <trkpt lat="45.04264" lon="6.05904">
        <ele>732.5</ele>
        <time>2026-08-25T07:27:32Z</time>
      </trkpt>
      <trkpt lat="45.04257" lon="6.0591">
        <ele>732.5</ele>
        <time>2026-08-25T07:27:33Z</time>
      </trkpt>
      <trkpt lat="45.0425" lon="6.05916">
        <ele>732.5</ele>
        <time>2026-08-25T07:27:34Z</time>
      </trkpt>
      <trkpt lat="45.04243" lon="6.05922">
        <ele>732.5</ele>
        <time>2026-08-25T07:27:35Z</time>
      </trkpt>
      <trkpt lat="45.04236" lon="6.05928">
        <ele>732.5</ele>
        <time>2026-08-25T07:27:36Z</time>
      </trkpt>
      <trkpt lat="45.0423" lon="6.05934">
        <ele>732.5</ele>
        <time>2026-08-25T07:27:37Z</time>
      </trkpt>
      <trkpt lat="45.04223" lon="6.0594">
        <ele>732.5</ele>
        <time>2026-08-25T07:27:38Z</time>
      </trkpt>
      <trkpt lat="45.04216" lon="6.05946">
        <ele>732.5</ele>
        <time>2026-08-25T07:27:39Z</time>
      </trkpt>
      <trkpt lat="45.0421" lon="6.05952">
        <ele>732.6</ele>
        <time>2026-08-25T07:27:40Z</time>
      </trkpt>
      <trkpt lat="45.04203" lon="6.05957">
        <ele>732.6</ele>
        <time>2026-08-25T07:27:41Z</time>
      </trkpt>
      <trkpt lat="45.04196" lon="6.05963">
        <ele>732.5</ele>
        <time>2026-08-25T07:27:42Z</time>
      </trkpt>
      <trkpt lat="45.04189" lon="6.05969">
        <ele>732.6</ele>
        <time>2026-08-25T07:27:43Z</time>
      </trkpt>
      <trkpt lat="45.04182" lon="6.05975">
        <ele>732.6</ele>
        <time>2026-08-25T07:27:44Z</time>
      </trkpt>
      <trkpt lat="45.04176" lon="6.05981">
        <ele>732.7</ele>
        <time>2026-08-25T07:27:45Z</time>
      </trkpt>
      <trkpt lat="45.04169" lon="6.05987">
        <ele>732.7</ele>
        <time>2026-08-25T07:27:46Z</time>
      </trkpt>
      <trkpt lat="45.04162" lon="6.05993">
        <ele>732.8</ele>
        <time>2026-08-25T07:27:47Z</time>
      </trkpt>
      <trkpt lat="45.04156" lon="6.05999">
        <ele>732.8</ele>
        <time>2026-08-25T07:27:48Z</time>
      </trkpt>
      <trkpt lat="45.0415" lon="6.06004">
        <ele>732.8</ele>
        <time>2026-08-25T07:27:49Z</time>
      </trkpt>
      <trkpt lat="45.04143" lon="6.0601">
        <ele>732.9</ele>
        <time>2026-08-25T07:27:50Z</time>
      </trkpt>
      <trkpt lat="45.04137" lon="6.06015">
        <ele>732.9</ele>
        <time>2026-08-25T07:27:51Z</time>
      </trkpt>
      <trkpt lat="45.0413" lon="6.06021">
        <ele>732.8</ele>
        <time>2026-08-25T07:27:52Z</time>
      </trkpt>
      <trkpt lat="45.04123" lon="6.06027">
        <ele>732.8</ele>
        <time>2026-08-25T07:27:53Z</time>
      </trkpt>
      <trkpt lat="45.04116" lon="6.06034">
        <ele>732.8</ele>
        <time>2026-08-25T07:27:54Z</time>
      </trkpt>
      <trkpt lat="45.04109" lon="6.0604">
        <ele>732.8</ele>
        <time>2026-08-25T07:27:55Z</time>
      </trkpt>
      <trkpt lat="45.04102" lon="6.06046">
        <ele>732.8</ele>
        <time>2026-08-25T07:27:56Z</time>
      </trkpt>
      <trkpt lat="45.04095" lon="6.06053">
        <ele>732.8</ele>
        <time>2026-08-25T07:27:57Z</time>
      </trkpt>
      <trkpt lat="45.04087" lon="6.06059">
        <ele>732.8</ele>
        <time>2026-08-25T07:27:58Z</time>
      </trkpt>
      <trkpt lat="45.0408" lon="6.06065">
        <ele>732.8</ele>
        <time>2026-08-25T07:27:59Z</time>
      </trkpt>
      <trkpt lat="45.04073" lon="6.06072">
        <ele>732.7</ele>
        <time>2026-08-25T07:28:00Z</time>
      </trkpt>
      <trkpt lat="45.04066" lon="6.06078">
        <ele>732.7</ele>
        <time>2026-08-25T07:28:01Z</time>
      </trkpt>
      <trkpt lat="45.04059" lon="6.06084">
        <ele>732.7</ele>
        <time>2026-08-25T07:28:02Z</time>
      </trkpt>
      <trkpt lat="45.04052" lon="6.06091">
        <ele>732.7</ele>
        <time>2026-08-25T07:28:03Z</time>
      </trkpt>
      <trkpt lat="45.04045" lon="6.06097">
        <ele>732.6</ele>
        <time>2026-08-25T07:28:04Z</time>
      </trkpt>
      <trkpt lat="45.04038" lon="6.06103">
        <ele>732.6</ele>
        <time>2026-08-25T07:28:05Z</time>
      </trkpt>
      <trkpt lat="45.04031" lon="6.06109">
        <ele>732.6</ele>
        <time>2026-08-25T07:28:06Z</time>
      </trkpt>
      <trkpt lat="45.04024" lon="6.06115">
        <ele>732.6</ele>
        <time>2026-08-25T07:28:07Z</time>
      </trkpt>
      <trkpt lat="45.04017" lon="6.06121">
        <ele>732.6</ele>
        <time>2026-08-25T07:28:08Z</time>
      </trkpt>
      <trkpt lat="45.0401" lon="6.06127">
        <ele>732.6</ele>
        <time>2026-08-25T07:28:09Z</time>
      </trkpt>
      <trkpt lat="45.04003" lon="6.06134">
        <ele>732.6</ele>
        <time>2026-08-25T07:28:10Z</time>
      </trkpt>
      <trkpt lat="45.03996" lon="6.0614">
        <ele>732.6</ele>
        <time>2026-08-25T07:28:11Z</time>
      </trkpt>
      <trkpt lat="45.03989" lon="6.06146">
        <ele>732.7</ele>
        <time>2026-08-25T07:28:12Z</time>
      </trkpt>
      <trkpt lat="45.03982" lon="6.06152">
        <ele>732.7</ele>
        <time>2026-08-25T07:28:13Z</time>
      </trkpt>
      <trkpt lat="45.03975" lon="6.06159">
        <ele>732.7</ele>
        <time>2026-08-25T07:28:14Z</time>
      </trkpt>
      <trkpt lat="45.03968" lon="6.06165">
        <ele>732.7</ele>
        <time>2026-08-25T07:28:15Z</time>
      </trkpt>
      <trkpt lat="45.03961" lon="6.06171">
        <ele>732.7</ele>
        <time>2026-08-25T07:28:16Z</time>
      </trkpt>
      <trkpt lat="45.03954" lon="6.06177">
        <ele>732.7</ele>
        <time>2026-08-25T07:28:17Z</time>
      </trkpt>
      <trkpt lat="45.03947" lon="6.06183">
        <ele>732.7</ele>
        <time>2026-08-25T07:28:18Z</time>
      </trkpt>
      <trkpt lat="45.03941" lon="6.06189">
        <ele>732.7</ele>
        <time>2026-08-25T07:28:19Z</time>
      </trkpt>
      <trkpt lat="45.03934" lon="6.06195">
        <ele>732.7</ele>
        <time>2026-08-25T07:28:20Z</time>
      </trkpt>
      <trkpt lat="45.03927" lon="6.06201">
        <ele>732.7</ele>
        <time>2026-08-25T07:28:21Z</time>
      </trkpt>
      <trkpt lat="45.0392" lon="6.06207">
        <ele>732.6</ele>
        <time>2026-08-25T07:28:22Z</time>
      </trkpt>
      <trkpt lat="45.03913" lon="6.06213">
        <ele>732.5</ele>
        <time>2026-08-25T07:28:23Z</time>
      </trkpt>
      <trkpt lat="45.03906" lon="6.06219">
        <ele>732.5</ele>
        <time>2026-08-25T07:28:24Z</time>
      </trkpt>
      <trkpt lat="45.03899" lon="6.06225">
        <ele>732.4</ele>
        <time>2026-08-25T07:28:25Z</time>
      </trkpt>
      <trkpt lat="45.03892" lon="6.06232">
        <ele>732.3</ele>
        <time>2026-08-25T07:28:26Z</time>
      </trkpt>
      <trkpt lat="45.03885" lon="6.06238">
        <ele>732.2</ele>
        <time>2026-08-25T07:28:27Z</time>
      </trkpt>
      <trkpt lat="45.03878" lon="6.06244">
        <ele>732.2</ele>
        <time>2026-08-25T07:28:28Z</time>
      </trkpt>
      <trkpt lat="45.03871" lon="6.0625">
        <ele>732.1</ele>
        <time>2026-08-25T07:28:29Z</time>
      </trkpt>
      <trkpt lat="45.03864" lon="6.06256">
        <ele>732.1</ele>
        <time>2026-08-25T07:28:30Z</time>
      </trkpt>
      <trkpt lat="45.03857" lon="6.06262">
        <ele>732</ele>
        <time>2026-08-25T07:28:31Z</time>
      </trkpt>
      <trkpt lat="45.0385" lon="6.06268">
        <ele>732</ele>
        <time>2026-08-25T07:28:32Z</time>
      </trkpt>
      <trkpt lat="45.03843" lon="6.06275">
        <ele>731.9</ele>
        <time>2026-08-25T07:28:33Z</time>
      </trkpt>
      <trkpt lat="45.03835" lon="6.06281">
        <ele>731.9</ele>
        <time>2026-08-25T07:28:34Z</time>
      </trkpt>
      <trkpt lat="45.03828" lon="6.06287">
        <ele>731.9</ele>
        <time>2026-08-25T07:28:35Z</time>
      </trkpt>
      <trkpt lat="45.03821" lon="6.06293">
        <ele>731.8</ele>
        <time>2026-08-25T07:28:36Z</time>
      </trkpt>
      <trkpt lat="45.03814" lon="6.063">
        <ele>731.8</ele>
        <time>2026-08-25T07:28:37Z</time>
      </trkpt>
      <trkpt lat="45.03807" lon="6.06306">
        <ele>731.8</ele>
        <time>2026-08-25T07:28:38Z</time>
      </trkpt>
      <trkpt lat="45.038" lon="6.06312">
        <ele>731.8</ele>
        <time>2026-08-25T07:28:39Z</time>
      </trkpt>
      <trkpt lat="45.03793" lon="6.06318">
        <ele>731.8</ele>
        <time>2026-08-25T07:28:40Z</time>
      </trkpt>
      <trkpt lat="45.03786" lon="6.06324">
        <ele>731.8</ele>
        <time>2026-08-25T07:28:41Z</time>
      </trkpt>
      <trkpt lat="45.03779" lon="6.0633">
        <ele>731.8</ele>
        <time>2026-08-25T07:28:42Z</time>
      </trkpt>
      <trkpt lat="45.03772" lon="6.06336">
        <ele>731.8</ele>
        <time>2026-08-25T07:28:43Z</time>
      </trkpt>
      <trkpt lat="45.03766" lon="6.06342">
        <ele>731.8</ele>
        <time>2026-08-25T07:28:44Z</time>
      </trkpt>
      <trkpt lat="45.03759" lon="6.06348">
        <ele>731.8</ele>
        <time>2026-08-25T07:28:45Z</time>
      </trkpt>
      <trkpt lat="45.03753" lon="6.06354">
        <ele>731.8</ele>
        <time>2026-08-25T07:28:46Z</time>
      </trkpt>
      <trkpt lat="45.03746" lon="6.0636">
        <ele>731.7</ele>
        <time>2026-08-25T07:28:47Z</time>
      </trkpt>
      <trkpt lat="45.03739" lon="6.06366">
        <ele>731.7</ele>
        <time>2026-08-25T07:28:48Z</time>
      </trkpt>
      <trkpt lat="45.03733" lon="6.06372">
        <ele>731.7</ele>
        <time>2026-08-25T07:28:49Z</time>
      </trkpt>
      <trkpt lat="45.03726" lon="6.06378">
        <ele>731.7</ele>
        <time>2026-08-25T07:28:50Z</time>
      </trkpt>
      <trkpt lat="45.03719" lon="6.06383">
        <ele>731.7</ele>
        <time>2026-08-25T07:28:51Z</time>
      </trkpt>
      <trkpt lat="45.03713" lon="6.06389">
        <ele>731.8</ele>
        <time>2026-08-25T07:28:52Z</time>
      </trkpt>
      <trkpt lat="45.03706" lon="6.06395">
        <ele>731.8</ele>
        <time>2026-08-25T07:28:53Z</time>
      </trkpt>
      <trkpt lat="45.03699" lon="6.06401">
        <ele>731.7</ele>
        <time>2026-08-25T07:28:54Z</time>
      </trkpt>
      <trkpt lat="45.03693" lon="6.06407">
        <ele>731.6</ele>
        <time>2026-08-25T07:28:55Z</time>
      </trkpt>
      <trkpt lat="45.03686" lon="6.06412">
        <ele>731.6</ele>
        <time>2026-08-25T07:28:56Z</time>
      </trkpt>
      <trkpt lat="45.0368" lon="6.06418">
        <ele>731.7</ele>
        <time>2026-08-25T07:28:57Z</time>
      </trkpt>
      <trkpt lat="45.03673" lon="6.06424">
        <ele>731.9</ele>
        <time>2026-08-25T07:28:58Z</time>
      </trkpt>
      <trkpt lat="45.03668" lon="6.06429">
        <ele>732</ele>
        <time>2026-08-25T07:28:59Z</time>
      </trkpt>
      <trkpt lat="45.03662" lon="6.06435">
        <ele>732.2</ele>
        <time>2026-08-25T07:29:00Z</time>
      </trkpt>
      <trkpt lat="45.03655" lon="6.06441">
        <ele>732.3</ele>
        <time>2026-08-25T07:29:01Z</time>
      </trkpt>
      <trkpt lat="45.03649" lon="6.06446">
        <ele>732.5</ele>
        <time>2026-08-25T07:29:02Z</time>
      </trkpt>
      <trkpt lat="45.03642" lon="6.06452">
        <ele>732.6</ele>
        <time>2026-08-25T07:29:03Z</time>
      </trkpt>
      <trkpt lat="45.03636" lon="6.06457">
        <ele>732.8</ele>
        <time>2026-08-25T07:29:04Z</time>
      </trkpt>
      <trkpt lat="45.0363" lon="6.06463">
        <ele>732.9</ele>
        <time>2026-08-25T07:29:05Z</time>
      </trkpt>
      <trkpt lat="45.03624" lon="6.06468">
        <ele>733.1</ele>
        <time>2026-08-25T07:29:06Z</time>
      </trkpt>
      <trkpt lat="45.03617" lon="6.06473">
        <ele>733.2</ele>
        <time>2026-08-25T07:29:07Z</time>
      </trkpt>
      <trkpt lat="45.03611" lon="6.06479">
        <ele>733.4</ele>
        <time>2026-08-25T07:29:08Z</time>
      </trkpt>
      <trkpt lat="45.03604" lon="6.06485">
        <ele>733.5</ele>
        <time>2026-08-25T07:29:09Z</time>
      </trkpt>
      <trkpt lat="45.03597" lon="6.06491">
        <ele>733.7</ele>
        <time>2026-08-25T07:29:10Z</time>
      </trkpt>
      <trkpt lat="45.03591" lon="6.06496">
        <ele>733.9</ele>
        <time>2026-08-25T07:29:11Z</time>
      </trkpt>
      <trkpt lat="45.03584" lon="6.06502">
        <ele>734.1</ele>
        <time>2026-08-25T07:29:12Z</time>
      </trkpt>
      <trkpt lat="45.03578" lon="6.06507">
        <ele>734.3</ele>
        <time>2026-08-25T07:29:13Z</time>
      </trkpt>
      <trkpt lat="45.03572" lon="6.06512">
        <ele>734.5</ele>
        <time>2026-08-25T07:29:14Z</time>
      </trkpt>
      <trkpt lat="45.03566" lon="6.06517">
        <ele>734.6</ele>
        <time>2026-08-25T07:29:15Z</time>
      </trkpt>
      <trkpt lat="45.0356" lon="6.06523">
        <ele>734.8</ele>
        <time>2026-08-25T07:29:16Z</time>
      </trkpt>
      <trkpt lat="45.03554" lon="6.06529">
        <ele>735</ele>
        <time>2026-08-25T07:29:17Z</time>
      </trkpt>
      <trkpt lat="45.03547" lon="6.06535">
        <ele>735.2</ele>
        <time>2026-08-25T07:29:18Z</time>
      </trkpt>
      <trkpt lat="45.03541" lon="6.0654">
        <ele>735.4</ele>
        <time>2026-08-25T07:29:19Z</time>
      </trkpt>
      <trkpt lat="45.03535" lon="6.06546">
        <ele>735.6</ele>
        <time>2026-08-25T07:29:20Z</time>
      </trkpt>
      <trkpt lat="45.03529" lon="6.06551">
        <ele>735.7</ele>
        <time>2026-08-25T07:29:21Z</time>
      </trkpt>
      <trkpt lat="45.03522" lon="6.06556">
        <ele>735.9</ele>
        <time>2026-08-25T07:29:22Z</time>
      </trkpt>
      <trkpt lat="45.03516" lon="6.06562">
        <ele>736.1</ele>
        <time>2026-08-25T07:29:23Z</time>
      </trkpt>
      <trkpt lat="45.0351" lon="6.06567">
        <ele>736.2</ele>
        <time>2026-08-25T07:29:24Z</time>
      </trkpt>
      <trkpt lat="45.03505" lon="6.06572">
        <ele>736.3</ele>
        <time>2026-08-25T07:29:25Z</time>
      </trkpt>
      <trkpt lat="45.03499" lon="6.06577">
        <ele>736.4</ele>
        <time>2026-08-25T07:29:26Z</time>
      </trkpt>
      <trkpt lat="45.03493" lon="6.06582">
        <ele>736.5</ele>
        <time>2026-08-25T07:29:27Z</time>
      </trkpt>
      <trkpt lat="45.03488" lon="6.06587">
        <ele>736.6</ele>
        <time>2026-08-25T07:29:28Z</time>
      </trkpt>
      <trkpt lat="45.03482" lon="6.06592">
        <ele>736.7</ele>
        <time>2026-08-25T07:29:29Z</time>
      </trkpt>
      <trkpt lat="45.03476" lon="6.06597">
        <ele>736.8</ele>
        <time>2026-08-25T07:29:30Z</time>
      </trkpt>
      <trkpt lat="45.0347" lon="6.06603">
        <ele>736.9</ele>
        <time>2026-08-25T07:29:31Z</time>
      </trkpt>
      <trkpt lat="45.03463" lon="6.06608">
        <ele>737</ele>
        <time>2026-08-25T07:29:32Z</time>
      </trkpt>
      <trkpt lat="45.03457" lon="6.06613">
        <ele>737.1</ele>
        <time>2026-08-25T07:29:33Z</time>
      </trkpt>
      <trkpt lat="45.03451" lon="6.06618">
        <ele>737.2</ele>
        <time>2026-08-25T07:29:34Z</time>
      </trkpt>
      <trkpt lat="45.03445" lon="6.06623">
        <ele>737.4</ele>
        <time>2026-08-25T07:29:35Z</time>
      </trkpt>
      <trkpt lat="45.03439" lon="6.06628">
        <ele>737.5</ele>
        <time>2026-08-25T07:29:36Z</time>
      </trkpt>
      <trkpt lat="45.03433" lon="6.06634">
        <ele>737.6</ele>
        <time>2026-08-25T07:29:37Z</time>
      </trkpt>
      <trkpt lat="45.03427" lon="6.06639">
        <ele>737.7</ele>
        <time>2026-08-25T07:29:38Z</time>
      </trkpt>
      <trkpt lat="45.0342" lon="6.06644">
        <ele>737.9</ele>
        <time>2026-08-25T07:29:39Z</time>
      </trkpt>
      <trkpt lat="45.03414" lon="6.0665">
        <ele>738.1</ele>
        <time>2026-08-25T07:29:40Z</time>
      </trkpt>
      <trkpt lat="45.03408" lon="6.06655">
        <ele>738.1</ele>
        <time>2026-08-25T07:29:41Z</time>
      </trkpt>
      <trkpt lat="45.03402" lon="6.0666">
        <ele>738.1</ele>
        <time>2026-08-25T07:29:42Z</time>
      </trkpt>
      <trkpt lat="45.03396" lon="6.06666">
        <ele>738.1</ele>
        <time>2026-08-25T07:29:43Z</time>
      </trkpt>
      <trkpt lat="45.0339" lon="6.06671">
        <ele>738.1</ele>
        <time>2026-08-25T07:29:44Z</time>
      </trkpt>
      <trkpt lat="45.03384" lon="6.06676">
        <ele>738.1</ele>
        <time>2026-08-25T07:29:45Z</time>
      </trkpt>
      <trkpt lat="45.03379" lon="6.06681">
        <ele>738.1</ele>
        <time>2026-08-25T07:29:46Z</time>
      </trkpt>
      <trkpt lat="45.03373" lon="6.06686">
        <ele>738.1</ele>
        <time>2026-08-25T07:29:47Z</time>
      </trkpt>
      <trkpt lat="45.03367" lon="6.06692">
        <ele>738.1</ele>
        <time>2026-08-25T07:29:48Z</time>
      </trkpt>
      <trkpt lat="45.03361" lon="6.06697">
        <ele>738</ele>
        <time>2026-08-25T07:29:49Z</time>
      </trkpt>
      <trkpt lat="45.03355" lon="6.06702">
        <ele>738</ele>
        <time>2026-08-25T07:29:50Z</time>
      </trkpt>
      <trkpt lat="45.03349" lon="6.06708">
        <ele>738</ele>
        <time>2026-08-25T07:29:51Z</time>
      </trkpt>
      <trkpt lat="45.03342" lon="6.06713">
        <ele>737.9</ele>
        <time>2026-08-25T07:29:52Z</time>
      </trkpt>
      <trkpt lat="45.03336" lon="6.06719">
        <ele>737.9</ele>
        <time>2026-08-25T07:29:53Z</time>
      </trkpt>
      <trkpt lat="45.03329" lon="6.06725">
        <ele>737.8</ele>
        <time>2026-08-25T07:29:54Z</time>
      </trkpt>
      <trkpt lat="45.03323" lon="6.0673">
        <ele>737.7</ele>
        <time>2026-08-25T07:29:55Z</time>
      </trkpt>
      <trkpt lat="45.03316" lon="6.06736">
        <ele>737.6</ele>
        <time>2026-08-25T07:29:56Z</time>
      </trkpt>
      <trkpt lat="45.0331" lon="6.06742">
        <ele>737.5</ele>
        <time>2026-08-25T07:29:57Z</time>
      </trkpt>
      <trkpt lat="45.03304" lon="6.06747">
        <ele>737.4</ele>
        <time>2026-08-25T07:29:58Z</time>
      </trkpt>
      <trkpt lat="45.03298" lon="6.06753">
        <ele>737.3</ele>
        <time>2026-08-25T07:29:59Z</time>
      </trkpt>
      <trkpt lat="45.03292" lon="6.06758">
        <ele>737.2</ele>
        <time>2026-08-25T07:30:00Z</time>
      </trkpt>
      <trkpt lat="45.03285" lon="6.06764">
        <ele>737.2</ele>
        <time>2026-08-25T07:30:01Z</time>
      </trkpt>
      <trkpt lat="45.03279" lon="6.06769">
        <ele>737.1</ele>
        <time>2026-08-25T07:30:02Z</time>
      </trkpt>
      <trkpt lat="45.03273" lon="6.06775">
        <ele>737.1</ele>
        <time>2026-08-25T07:30:03Z</time>
      </trkpt>
      <trkpt lat="45.03267" lon="6.06781">
        <ele>737</ele>
        <time>2026-08-25T07:30:04Z</time>
      </trkpt>
      <trkpt lat="45.03261" lon="6.06786">
        <ele>737</ele>
        <time>2026-08-25T07:30:05Z</time>
      </trkpt>
      <trkpt lat="45.03255" lon="6.06791">
        <ele>736.9</ele>
        <time>2026-08-25T07:30:06Z</time>
      </trkpt>
      <trkpt lat="45.03249" lon="6.06797">
        <ele>736.9</ele>
        <time>2026-08-25T07:30:07Z</time>
      </trkpt>
      <trkpt lat="45.03243" lon="6.06802">
        <ele>736.8</ele>
        <time>2026-08-25T07:30:08Z</time>
      </trkpt>
      <trkpt lat="45.03237" lon="6.06808">
        <ele>736.8</ele>
        <time>2026-08-25T07:30:09Z</time>
      </trkpt>
      <trkpt lat="45.0323" lon="6.06813">
        <ele>736.7</ele>
        <time>2026-08-25T07:30:10Z</time>
      </trkpt>
      <trkpt lat="45.03224" lon="6.06819">
        <ele>736.7</ele>
        <time>2026-08-25T07:30:11Z</time>
      </trkpt>
      <trkpt lat="45.03218" lon="6.06824">
        <ele>736.6</ele>
        <time>2026-08-25T07:30:12Z</time>
      </trkpt>
      <trkpt lat="45.03212" lon="6.06829">
        <ele>736.5</ele>
        <time>2026-08-25T07:30:13Z</time>
      </trkpt>
      <trkpt lat="45.03206" lon="6.06834">
        <ele>736.5</ele>
        <time>2026-08-25T07:30:14Z</time>
      </trkpt>
      <trkpt lat="45.032" lon="6.06839">
        <ele>736.4</ele>
        <time>2026-08-25T07:30:15Z</time>
      </trkpt>
      <trkpt lat="45.03194" lon="6.06845">
        <ele>736.5</ele>
        <time>2026-08-25T07:30:16Z</time>
      </trkpt>
      <trkpt lat="45.03188" lon="6.0685">
        <ele>736.5</ele>
        <time>2026-08-25T07:30:17Z</time>
      </trkpt>
      <trkpt lat="45.03181" lon="6.06856">
        <ele>736.6</ele>
        <time>2026-08-25T07:30:18Z</time>
      </trkpt>
      <trkpt lat="45.03175" lon="6.06861">
        <ele>736.6</ele>
        <time>2026-08-25T07:30:19Z</time>
      </trkpt>
      <trkpt lat="45.03169" lon="6.06867">
        <ele>736.8</ele>
        <time>2026-08-25T07:30:20Z</time>
      </trkpt>
      <trkpt lat="45.03164" lon="6.06872">
        <ele>736.9</ele>
        <time>2026-08-25T07:30:21Z</time>
      </trkpt>
      <trkpt lat="45.03158" lon="6.06877">
        <ele>737</ele>
        <time>2026-08-25T07:30:22Z</time>
      </trkpt>
      <trkpt lat="45.03152" lon="6.06882">
        <ele>737.2</ele>
        <time>2026-08-25T07:30:23Z</time>
      </trkpt>
      <trkpt lat="45.03147" lon="6.06887">
        <ele>737.4</ele>
        <time>2026-08-25T07:30:24Z</time>
      </trkpt>
      <trkpt lat="45.03142" lon="6.06892">
        <ele>737.6</ele>
        <time>2026-08-25T07:30:25Z</time>
      </trkpt>
      <trkpt lat="45.03137" lon="6.06897">
        <ele>737.9</ele>
        <time>2026-08-25T07:30:26Z</time>
      </trkpt>
      <trkpt lat="45.03132" lon="6.06902">
        <ele>738.1</ele>
        <time>2026-08-25T07:30:27Z</time>
      </trkpt>
      <trkpt lat="45.03127" lon="6.06906">
        <ele>738.3</ele>
        <time>2026-08-25T07:30:28Z</time>
      </trkpt>
      <trkpt lat="45.03122" lon="6.06911">
        <ele>738.5</ele>
        <time>2026-08-25T07:30:29Z</time>
      </trkpt>
      <trkpt lat="45.03116" lon="6.06915">
        <ele>738.7</ele>
        <time>2026-08-25T07:30:30Z</time>
      </trkpt>
      <trkpt lat="45.03111" lon="6.06919">
        <ele>739.1</ele>
        <time>2026-08-25T07:30:31Z</time>
      </trkpt>
      <trkpt lat="45.03106" lon="6.06924">
        <ele>739.6</ele>
        <time>2026-08-25T07:30:32Z</time>
      </trkpt>
      <trkpt lat="45.03102" lon="6.06928">
        <ele>740</ele>
        <time>2026-08-25T07:30:33Z</time>
      </trkpt>
      <trkpt lat="45.03097" lon="6.06933">
        <ele>740.5</ele>
        <time>2026-08-25T07:30:34Z</time>
      </trkpt>
      <trkpt lat="45.03092" lon="6.06936">
        <ele>740.9</ele>
        <time>2026-08-25T07:30:35Z</time>
      </trkpt>
      <trkpt lat="45.03087" lon="6.0694">
        <ele>741.4</ele>
        <time>2026-08-25T07:30:36Z</time>
      </trkpt>
      <trkpt lat="45.03083" lon="6.06944">
        <ele>741.8</ele>
        <time>2026-08-25T07:30:37Z</time>
      </trkpt>
      <trkpt lat="45.03079" lon="6.06947">
        <ele>742.2</ele>
        <time>2026-08-25T07:30:38Z</time>
      </trkpt>
      <trkpt lat="45.03075" lon="6.06951">
        <ele>742.6</ele>
        <time>2026-08-25T07:30:39Z</time>
      </trkpt>
      <trkpt lat="45.0307" lon="6.06955">
        <ele>743.1</ele>
        <time>2026-08-25T07:30:40Z</time>
      </trkpt>
      <trkpt lat="45.03066" lon="6.06959">
        <ele>743.5</ele>
        <time>2026-08-25T07:30:41Z</time>
      </trkpt>
      <trkpt lat="45.03062" lon="6.06963">
        <ele>743.9</ele>
        <time>2026-08-25T07:30:42Z</time>
      </trkpt>
      <trkpt lat="45.03058" lon="6.06966">
        <ele>744.3</ele>
        <time>2026-08-25T07:30:43Z</time>
      </trkpt>
      <trkpt lat="45.03054" lon="6.0697">
        <ele>744.7</ele>
        <time>2026-08-25T07:30:44Z</time>
      </trkpt>
      <trkpt lat="45.0305" lon="6.06973">
        <ele>745.1</ele>
        <time>2026-08-25T07:30:45Z</time>
      </trkpt>
      <trkpt lat="45.03046" lon="6.06976">
        <ele>745.5</ele>
        <time>2026-08-25T07:30:46Z</time>
      </trkpt>
      <trkpt lat="45.03042" lon="6.0698">
        <ele>745.9</ele>
        <time>2026-08-25T07:30:47Z</time>
      </trkpt>
      <trkpt lat="45.03038" lon="6.06983">
        <ele>746.3</ele>
        <time>2026-08-25T07:30:48Z</time>
      </trkpt>
      <trkpt lat="45.03034" lon="6.06987">
        <ele>746.7</ele>
        <time>2026-08-25T07:30:49Z</time>
      </trkpt>
      <trkpt lat="45.03031" lon="6.0699">
        <ele>747</ele>
        <time>2026-08-25T07:30:50Z</time>
      </trkpt>
      <trkpt lat="45.03027" lon="6.06993">
        <ele>747.3</ele>
        <time>2026-08-25T07:30:51Z</time>
      </trkpt>
      <trkpt lat="45.03023" lon="6.06997">
        <ele>747.7</ele>
        <time>2026-08-25T07:30:52Z</time>
      </trkpt>
      <trkpt lat="45.0302" lon="6.07001">
        <ele>748</ele>
        <time>2026-08-25T07:30:53Z</time>
      </trkpt>
      <trkpt lat="45.03016" lon="6.07004">
        <ele>748.3</ele>
        <time>2026-08-25T07:30:54Z</time>
      </trkpt>
      <trkpt lat="45.03012" lon="6.07007">
        <ele>748.7</ele>
        <time>2026-08-25T07:30:55Z</time>
      </trkpt>
      <trkpt lat="45.03008" lon="6.07011">
        <ele>748.7</ele>
        <time>2026-08-25T07:30:56Z</time>
      </trkpt>
      <trkpt lat="45.03003" lon="6.07014">
        <ele>748.7</ele>
        <time>2026-08-25T07:30:57Z</time>
      </trkpt>
      <trkpt lat="45.02999" lon="6.07018">
        <ele>748.6</ele>
        <time>2026-08-25T07:30:58Z</time>
      </trkpt>
      <trkpt lat="45.02995" lon="6.07021">
        <ele>748.6</ele>
        <time>2026-08-25T07:30:59Z</time>
      </trkpt>
      <trkpt lat="45.02991" lon="6.07025">
        <ele>748.6</ele>
        <time>2026-08-25T07:31:00Z</time>
      </trkpt>
      <trkpt lat="45.02986" lon="6.07029">
        <ele>748.6</ele>
        <time>2026-08-25T07:31:01Z</time>
      </trkpt>
      <trkpt lat="45.02982" lon="6.07033">
        <ele>748.5</ele>
        <time>2026-08-25T07:31:02Z</time>
      </trkpt>
      <trkpt lat="45.02977" lon="6.07037">
        <ele>748.5</ele>
        <time>2026-08-25T07:31:03Z</time>
      </trkpt>
      <trkpt lat="45.02973" lon="6.0704">
        <ele>748.4</ele>
        <time>2026-08-25T07:31:04Z</time>
      </trkpt>
      <trkpt lat="45.02968" lon="6.07044">
        <ele>748.4</ele>
        <time>2026-08-25T07:31:05Z</time>
      </trkpt>
      <trkpt lat="45.02963" lon="6.07048">
        <ele>748.3</ele>
        <time>2026-08-25T07:31:06Z</time>
      </trkpt>
      <trkpt lat="45.02959" lon="6.07053">
        <ele>748.3</ele>
        <time>2026-08-25T07:31:07Z</time>
      </trkpt>
      <trkpt lat="45.02953" lon="6.07057">
        <ele>748.2</ele>
        <time>2026-08-25T07:31:08Z</time>
      </trkpt>
      <trkpt lat="45.02948" lon="6.07062">
        <ele>748.2</ele>
        <time>2026-08-25T07:31:09Z</time>
      </trkpt>
      <trkpt lat="45.02943" lon="6.07067">
        <ele>748.1</ele>
        <time>2026-08-25T07:31:10Z</time>
      </trkpt>
      <trkpt lat="45.02938" lon="6.07071">
        <ele>748.1</ele>
        <time>2026-08-25T07:31:11Z</time>
      </trkpt>
      <trkpt lat="45.02932" lon="6.07075">
        <ele>748</ele>
        <time>2026-08-25T07:31:12Z</time>
      </trkpt>
      <trkpt lat="45.02927" lon="6.0708">
        <ele>748</ele>
        <time>2026-08-25T07:31:13Z</time>
      </trkpt>
      <trkpt lat="45.02922" lon="6.07084">
        <ele>747.9</ele>
        <time>2026-08-25T07:31:14Z</time>
      </trkpt>
      <trkpt lat="45.02917" lon="6.07088">
        <ele>747.9</ele>
        <time>2026-08-25T07:31:15Z</time>
      </trkpt>
      <trkpt lat="45.02912" lon="6.07092">
        <ele>747.8</ele>
        <time>2026-08-25T07:31:16Z</time>
      </trkpt>
      <trkpt lat="45.02907" lon="6.07097">
        <ele>747.8</ele>
        <time>2026-08-25T07:31:17Z</time>
      </trkpt>
      <trkpt lat="45.02902" lon="6.07101">
        <ele>747.7</ele>
        <time>2026-08-25T07:31:18Z</time>
      </trkpt>
      <trkpt lat="45.02897" lon="6.07105">
        <ele>747.7</ele>
        <time>2026-08-25T07:31:19Z</time>
      </trkpt>
      <trkpt lat="45.02892" lon="6.07109">
        <ele>747.7</ele>
        <time>2026-08-25T07:31:20Z</time>
      </trkpt>
      <trkpt lat="45.02887" lon="6.07113">
        <ele>747.7</ele>
        <time>2026-08-25T07:31:21Z</time>
      </trkpt>
      <trkpt lat="45.02882" lon="6.07116">
        <ele>747.7</ele>
        <time>2026-08-25T07:31:22Z</time>
      </trkpt>
      <trkpt lat="45.02878" lon="6.0712">
        <ele>747.7</ele>
        <time>2026-08-25T07:31:23Z</time>
      </trkpt>
      <trkpt lat="45.02873" lon="6.07123">
        <ele>747.6</ele>
        <time>2026-08-25T07:31:24Z</time>
      </trkpt>
      <trkpt lat="45.02868" lon="6.07126">
        <ele>747.5</ele>
        <time>2026-08-25T07:31:25Z</time>
      </trkpt>
      <trkpt lat="45.02863" lon="6.07128">
        <ele>747.4</ele>
        <time>2026-08-25T07:31:26Z</time>
      </trkpt>
      <trkpt lat="45.02858" lon="6.0713">
        <ele>747.4</ele>
        <time>2026-08-25T07:31:27Z</time>
      </trkpt>
      <trkpt lat="45.02854" lon="6.07132">
        <ele>747.3</ele>
        <time>2026-08-25T07:31:28Z</time>
      </trkpt>
      <trkpt lat="45.02849" lon="6.07135">
        <ele>747.2</ele>
        <time>2026-08-25T07:31:29Z</time>
      </trkpt>
      <trkpt lat="45.02845" lon="6.07137">
        <ele>747.2</ele>
        <time>2026-08-25T07:31:30Z</time>
      </trkpt>
      <trkpt lat="45.02842" lon="6.0714">
        <ele>747.1</ele>
        <time>2026-08-25T07:31:31Z</time>
      </trkpt>
      <trkpt lat="45.02838" lon="6.07142">
        <ele>747.1</ele>
        <time>2026-08-25T07:31:32Z</time>
      </trkpt>
      <trkpt lat="45.02834" lon="6.07145">
        <ele>747</ele>
        <time>2026-08-25T07:31:33Z</time>
      </trkpt>
      <trkpt lat="45.0283" lon="6.07148">
        <ele>747</ele>
        <time>2026-08-25T07:31:34Z</time>
      </trkpt>
      <trkpt lat="45.02826" lon="6.0715">
        <ele>747</ele>
        <time>2026-08-25T07:31:35Z</time>
      </trkpt>
      <trkpt lat="45.02822" lon="6.07153">
        <ele>747</ele>
        <time>2026-08-25T07:31:36Z</time>
      </trkpt>
      <trkpt lat="45.02818" lon="6.07156">
        <ele>747</ele>
        <time>2026-08-25T07:31:37Z</time>
      </trkpt>
      <trkpt lat="45.02815" lon="6.0716">
        <ele>747</ele>
        <time>2026-08-25T07:31:38Z</time>
      </trkpt>
      <trkpt lat="45.02812" lon="6.07163">
        <ele>747</ele>
        <time>2026-08-25T07:31:39Z</time>
      </trkpt>
      <trkpt lat="45.02809" lon="6.07167">
        <ele>747</ele>
        <time>2026-08-25T07:31:40Z</time>
      </trkpt>
      <trkpt lat="45.02806" lon="6.0717">
        <ele>747</ele>
        <time>2026-08-25T07:31:41Z</time>
      </trkpt>
      <trkpt lat="45.02803" lon="6.07174">
        <ele>747</ele>
        <time>2026-08-25T07:31:42Z</time>
      </trkpt>
      <trkpt lat="45.028" lon="6.07176">
        <ele>747.1</ele>
        <time>2026-08-25T07:31:43Z</time>
      </trkpt>
      <trkpt lat="45.02797" lon="6.07178">
        <ele>747.4</ele>
        <time>2026-08-25T07:31:44Z</time>
      </trkpt>
      <trkpt lat="45.02794" lon="6.07181">
        <ele>747.8</ele>
        <time>2026-08-25T07:31:45Z</time>
      </trkpt>
      <trkpt lat="45.02791" lon="6.07183">
        <ele>748.1</ele>
        <time>2026-08-25T07:31:46Z</time>
      </trkpt>
      <trkpt lat="45.02787" lon="6.07184">
        <ele>748.4</ele>
        <time>2026-08-25T07:31:47Z</time>
      </trkpt>
      <trkpt lat="45.02784" lon="6.07185">
        <ele>748.7</ele>
        <time>2026-08-25T07:31:48Z</time>
      </trkpt>
      <trkpt lat="45.02781" lon="6.07186">
        <ele>748.9</ele>
        <time>2026-08-25T07:31:49Z</time>
      </trkpt>
      <trkpt lat="45.02778" lon="6.07186">
        <ele>748.9</ele>
        <time>2026-08-25T07:31:50Z</time>
      </trkpt>
      <trkpt lat="45.02775" lon="6.07185">
        <ele>749</ele>
        <time>2026-08-25T07:31:51Z</time>
      </trkpt>
      <trkpt lat="45.02772" lon="6.07185">
        <ele>749</ele>
        <time>2026-08-25T07:31:52Z</time>
      </trkpt>
      <trkpt lat="45.02768" lon="6.07184">
        <ele>749.1</ele>
        <time>2026-08-25T07:31:53Z</time>
      </trkpt>
      <trkpt lat="45.02765" lon="6.07183">
        <ele>749.2</ele>
        <time>2026-08-25T07:31:54Z</time>
      </trkpt>
      <trkpt lat="45.02761" lon="6.07182">
        <ele>749.2</ele>
        <time>2026-08-25T07:31:55Z</time>
      </trkpt>
      <trkpt lat="45.02758" lon="6.07182">
        <ele>749.3</ele>
        <time>2026-08-25T07:31:56Z</time>
      </trkpt>
      <trkpt lat="45.02755" lon="6.07181">
        <ele>749.4</ele>
        <time>2026-08-25T07:31:57Z</time>
      </trkpt>
      <trkpt lat="45.02752" lon="6.07181">
        <ele>749.4</ele>
        <time>2026-08-25T07:31:58Z</time>
      </trkpt>
      <trkpt lat="45.02749" lon="6.0718">
        <ele>749.4</ele>
        <time>2026-08-25T07:31:59Z</time>
      </trkpt>
      <trkpt lat="45.02746" lon="6.07179">
        <ele>749.4</ele>
        <time>2026-08-25T07:32:00Z</time>
      </trkpt>
      <trkpt lat="45.02743" lon="6.07177">
        <ele>749.4</ele>
        <time>2026-08-25T07:32:01Z</time>
      </trkpt>
      <trkpt lat="45.02741" lon="6.07176">
        <ele>749.4</ele>
        <time>2026-08-25T07:32:02Z</time>
      </trkpt>
      <trkpt lat="45.02738" lon="6.07175">
        <ele>749.4</ele>
        <time>2026-08-25T07:32:03Z</time>
      </trkpt>
      <trkpt lat="45.02735" lon="6.07173">
        <ele>749.4</ele>
        <time>2026-08-25T07:32:04Z</time>
      </trkpt>
      <trkpt lat="45.02733" lon="6.07172">
        <ele>749.4</ele>
        <time>2026-08-25T07:32:05Z</time>
      </trkpt>
      <trkpt lat="45.0273" lon="6.07171">
        <ele>749.4</ele>
        <time>2026-08-25T07:32:06Z</time>
      </trkpt>
      <trkpt lat="45.02727" lon="6.07169">
        <ele>749.4</ele>
        <time>2026-08-25T07:32:07Z</time>
      </trkpt>
      <trkpt lat="45.02724" lon="6.07168">
        <ele>749.4</ele>
        <time>2026-08-25T07:32:08Z</time>
      </trkpt>
      <trkpt lat="45.0272" lon="6.07167">
        <ele>749.3</ele>
        <time>2026-08-25T07:32:09Z</time>
      </trkpt>
      <trkpt lat="45.02717" lon="6.07166">
        <ele>749.3</ele>
        <time>2026-08-25T07:32:10Z</time>
      </trkpt>
      <trkpt lat="45.02713" lon="6.07166">
        <ele>749.3</ele>
        <time>2026-08-25T07:32:11Z</time>
      </trkpt>
      <trkpt lat="45.02709" lon="6.07165">
        <ele>749.2</ele>
        <time>2026-08-25T07:32:12Z</time>
      </trkpt>
      <trkpt lat="45.02705" lon="6.07165">
        <ele>749.2</ele>
        <time>2026-08-25T07:32:13Z</time>
      </trkpt>
      <trkpt lat="45.02702" lon="6.07164">
        <ele>749.2</ele>
        <time>2026-08-25T07:32:14Z</time>
      </trkpt>
      <trkpt lat="45.02698" lon="6.07163">
        <ele>749.2</ele>
        <time>2026-08-25T07:32:15Z</time>
      </trkpt>
      <trkpt lat="45.02694" lon="6.07162">
        <ele>749.1</ele>
        <time>2026-08-25T07:32:16Z</time>
      </trkpt>
      <trkpt lat="45.02691" lon="6.07162">
        <ele>749.1</ele>
        <time>2026-08-25T07:32:17Z</time>
      </trkpt>
      <trkpt lat="45.02687" lon="6.07161">
        <ele>749.1</ele>
        <time>2026-08-25T07:32:18Z</time>
      </trkpt>
      <trkpt lat="45.02683" lon="6.07161">
        <ele>749.1</ele>
        <time>2026-08-25T07:32:19Z</time>
      </trkpt>
      <trkpt lat="45.02679" lon="6.07161">
        <ele>749</ele>
        <time>2026-08-25T07:32:20Z</time>
      </trkpt>
      <trkpt lat="45.02675" lon="6.07161">
        <ele>749</ele>
        <time>2026-08-25T07:32:21Z</time>
      </trkpt>
      <trkpt lat="45.02671" lon="6.07161">
        <ele>749</ele>
        <time>2026-08-25T07:32:22Z</time>
      </trkpt>
      <trkpt lat="45.02667" lon="6.07161">
        <ele>748.9</ele>
        <time>2026-08-25T07:32:23Z</time>
      </trkpt>
      <trkpt lat="45.02663" lon="6.0716">
        <ele>748.9</ele>
        <time>2026-08-25T07:32:24Z</time>
      </trkpt>
      <trkpt lat="45.02659" lon="6.0716">
        <ele>748.9</ele>
        <time>2026-08-25T07:32:25Z</time>
      </trkpt>
      <trkpt lat="45.02655" lon="6.0716">
        <ele>748.8</ele>
        <time>2026-08-25T07:32:26Z</time>
      </trkpt>
      <trkpt lat="45.02651" lon="6.07159">
        <ele>748.8</ele>
        <time>2026-08-25T07:32:27Z</time>
      </trkpt>
      <trkpt lat="45.02646" lon="6.07158">
        <ele>748.8</ele>
        <time>2026-08-25T07:32:28Z</time>
      </trkpt>
      <trkpt lat="45.02641" lon="6.07157">
        <ele>748.8</ele>
        <time>2026-08-25T07:32:29Z</time>
      </trkpt>
      <trkpt lat="45.02637" lon="6.07156">
        <ele>748.7</ele>
        <time>2026-08-25T07:32:30Z</time>
      </trkpt>
      <trkpt lat="45.02632" lon="6.07155">
        <ele>748.7</ele>
        <time>2026-08-25T07:32:31Z</time>
      </trkpt>
      <trkpt lat="45.02628" lon="6.07154">
        <ele>748.7</ele>
        <time>2026-08-25T07:32:32Z</time>
      </trkpt>
      <trkpt lat="45.02624" lon="6.07153">
        <ele>748.7</ele>
        <time>2026-08-25T07:32:33Z</time>
      </trkpt>
      <trkpt lat="45.02619" lon="6.07152">
        <ele>748.6</ele>
        <time>2026-08-25T07:32:34Z</time>
      </trkpt>
      <trkpt lat="45.02615" lon="6.07151">
        <ele>748.6</ele>
        <time>2026-08-25T07:32:35Z</time>
      </trkpt>
      <trkpt lat="45.02611" lon="6.0715">
        <ele>748.6</ele>
        <time>2026-08-25T07:32:36Z</time>
      </trkpt>
      <trkpt lat="45.02607" lon="6.07148">
        <ele>748.5</ele>
        <time>2026-08-25T07:32:37Z</time>
      </trkpt>
      <trkpt lat="45.02603" lon="6.07147">
        <ele>748.5</ele>
        <time>2026-08-25T07:32:38Z</time>
      </trkpt>
      <trkpt lat="45.02598" lon="6.07145">
        <ele>748.5</ele>
        <time>2026-08-25T07:32:39Z</time>
      </trkpt>
      <trkpt lat="45.02594" lon="6.07143">
        <ele>748.4</ele>
        <time>2026-08-25T07:32:40Z</time>
      </trkpt>
      <trkpt lat="45.0259" lon="6.07142">
        <ele>748.4</ele>
        <time>2026-08-25T07:32:41Z</time>
      </trkpt>
      <trkpt lat="45.02586" lon="6.0714">
        <ele>748.4</ele>
        <time>2026-08-25T07:32:42Z</time>
      </trkpt>
      <trkpt lat="45.02582" lon="6.07139">
        <ele>748.4</ele>
        <time>2026-08-25T07:32:43Z</time>
      </trkpt>
      <trkpt lat="45.02578" lon="6.07138">
        <ele>748.4</ele>
        <time>2026-08-25T07:32:44Z</time>
      </trkpt>
      <trkpt lat="45.02574" lon="6.07136">
        <ele>748.4</ele>
        <time>2026-08-25T07:32:45Z</time>
      </trkpt>
      <trkpt lat="45.0257" lon="6.07135">
        <ele>748.4</ele>
        <time>2026-08-25T07:32:46Z</time>
      </trkpt>
      <trkpt lat="45.02566" lon="6.07133">
        <ele>748.4</ele>
        <time>2026-08-25T07:32:47Z</time>
      </trkpt>
      <trkpt lat="45.02562" lon="6.07132">
        <ele>748.4</ele>
        <time>2026-08-25T07:32:48Z</time>
      </trkpt>
      <trkpt lat="45.02559" lon="6.07131">
        <ele>748.3</ele>
        <time>2026-08-25T07:32:49Z</time>
      </trkpt>
      <trkpt lat="45.02555" lon="6.07129">
        <ele>748.3</ele>
        <time>2026-08-25T07:32:50Z</time>
      </trkpt>
      <trkpt lat="45.02551" lon="6.07128">
        <ele>748.3</ele>
        <time>2026-08-25T07:32:51Z</time>
      </trkpt>
      <trkpt lat="45.02547" lon="6.07126">
        <ele>748.3</ele>
        <time>2026-08-25T07:32:52Z</time>
      </trkpt>
      <trkpt lat="45.02543" lon="6.07125">
        <ele>748.2</ele>
        <time>2026-08-25T07:32:53Z</time>
      </trkpt>
      <trkpt lat="45.02539" lon="6.07123">
        <ele>748.2</ele>
        <time>2026-08-25T07:32:54Z</time>
      </trkpt>
      <trkpt lat="45.02535" lon="6.07122">
        <ele>748.1</ele>
        <time>2026-08-25T07:32:55Z</time>
      </trkpt>
      <trkpt lat="45.0253" lon="6.0712">
        <ele>748.1</ele>
        <time>2026-08-25T07:32:56Z</time>
      </trkpt>
      <trkpt lat="45.02526" lon="6.07119">
        <ele>748.1</ele>
        <time>2026-08-25T07:32:57Z</time>
      </trkpt>
      <trkpt lat="45.02522" lon="6.07117">
        <ele>748</ele>
        <time>2026-08-25T07:32:58Z</time>
      </trkpt>
      <trkpt lat="45.02518" lon="6.07116">
        <ele>748</ele>
        <time>2026-08-25T07:32:59Z</time>
      </trkpt>
      <trkpt lat="45.02513" lon="6.07114">
        <ele>748</ele>
        <time>2026-08-25T07:33:00Z</time>
      </trkpt>
      <trkpt lat="45.02509" lon="6.07112">
        <ele>748</ele>
        <time>2026-08-25T07:33:01Z</time>
      </trkpt>
      <trkpt lat="45.02504" lon="6.07111">
        <ele>748</ele>
        <time>2026-08-25T07:33:02Z</time>
      </trkpt>
      <trkpt lat="45.025" lon="6.07109">
        <ele>748</ele>
        <time>2026-08-25T07:33:03Z</time>
      </trkpt>
      <trkpt lat="45.02496" lon="6.07108">
        <ele>748</ele>
        <time>2026-08-25T07:33:04Z</time>
      </trkpt>
      <trkpt lat="45.02492" lon="6.07106">
        <ele>748</ele>
        <time>2026-08-25T07:33:05Z</time>
      </trkpt>
      <trkpt lat="45.02488" lon="6.07104">
        <ele>747.9</ele>
        <time>2026-08-25T07:33:06Z</time>
      </trkpt>
      <trkpt lat="45.02483" lon="6.07103">
        <ele>747.9</ele>
        <time>2026-08-25T07:33:07Z</time>
      </trkpt>
      <trkpt lat="45.02479" lon="6.07101">
        <ele>747.9</ele>
        <time>2026-08-25T07:33:08Z</time>
      </trkpt>
      <trkpt lat="45.02475" lon="6.07099">
        <ele>747.9</ele>
        <time>2026-08-25T07:33:09Z</time>
      </trkpt>
      <trkpt lat="45.0247" lon="6.07097">
        <ele>747.9</ele>
        <time>2026-08-25T07:33:10Z</time>
      </trkpt>
      <trkpt lat="45.02465" lon="6.07095">
        <ele>747.9</ele>
        <time>2026-08-25T07:33:11Z</time>
      </trkpt>
      <trkpt lat="45.02459" lon="6.07092">
        <ele>747.9</ele>
        <time>2026-08-25T07:33:12Z</time>
      </trkpt>
      <trkpt lat="45.02452" lon="6.07087">
        <ele>747.9</ele>
        <time>2026-08-25T07:33:13Z</time>
      </trkpt>
      <trkpt lat="45.02445" lon="6.07083">
        <ele>747.9</ele>
        <time>2026-08-25T07:33:14Z</time>
      </trkpt>
      <trkpt lat="45.02438" lon="6.07079">
        <ele>747.9</ele>
        <time>2026-08-25T07:33:15Z</time>
      </trkpt>
      <trkpt lat="45.02431" lon="6.07075">
        <ele>747.9</ele>
        <time>2026-08-25T07:33:16Z</time>
      </trkpt>
      <trkpt lat="45.02424" lon="6.0707">
        <ele>747.8</ele>
        <time>2026-08-25T07:33:17Z</time>
      </trkpt>
      <trkpt lat="45.02418" lon="6.07066">
        <ele>747.8</ele>
        <time>2026-08-25T07:33:18Z</time>
      </trkpt>
      <trkpt lat="45.02411" lon="6.07061">
        <ele>747.8</ele>
        <time>2026-08-25T07:33:19Z</time>
      </trkpt>
      <trkpt lat="45.02405" lon="6.07056">
        <ele>747.7</ele>
        <time>2026-08-25T07:33:20Z</time>
      </trkpt>
      <trkpt lat="45.02398" lon="6.07051">
        <ele>747.6</ele>
        <time>2026-08-25T07:33:21Z</time>
      </trkpt>
      <trkpt lat="45.02391" lon="6.07046">
        <ele>747.6</ele>
        <time>2026-08-25T07:33:22Z</time>
      </trkpt>
      <trkpt lat="45.02385" lon="6.07042">
        <ele>747.5</ele>
        <time>2026-08-25T07:33:23Z</time>
      </trkpt>
      <trkpt lat="45.02378" lon="6.07037">
        <ele>747.5</ele>
        <time>2026-08-25T07:33:24Z</time>
      </trkpt>
      <trkpt lat="45.02371" lon="6.07032">
        <ele>747.4</ele>
        <time>2026-08-25T07:33:25Z</time>
      </trkpt>
      <trkpt lat="45.02364" lon="6.07027">
        <ele>747.4</ele>
        <time>2026-08-25T07:33:26Z</time>
      </trkpt>
      <trkpt lat="45.02357" lon="6.07022">
        <ele>747.4</ele>
        <time>2026-08-25T07:33:27Z</time>
      </trkpt>
      <trkpt lat="45.02351" lon="6.07016">
        <ele>747.4</ele>
        <time>2026-08-25T07:33:28Z</time>
      </trkpt>
      <trkpt lat="45.02345" lon="6.07011">
        <ele>747.4</ele>
        <time>2026-08-25T07:33:29Z</time>
      </trkpt>
      <trkpt lat="45.02338" lon="6.07004">
        <ele>747.4</ele>
        <time>2026-08-25T07:33:30Z</time>
      </trkpt>
      <trkpt lat="45.02333" lon="6.06998">
        <ele>747.4</ele>
        <time>2026-08-25T07:33:31Z</time>
      </trkpt>
      <trkpt lat="45.02327" lon="6.06992">
        <ele>747.5</ele>
        <time>2026-08-25T07:33:32Z</time>
      </trkpt>
      <trkpt lat="45.02321" lon="6.06985">
        <ele>747.5</ele>
        <time>2026-08-25T07:33:33Z</time>
      </trkpt>
      <trkpt lat="45.02315" lon="6.06979">
        <ele>747.5</ele>
        <time>2026-08-25T07:33:34Z</time>
      </trkpt>
      <trkpt lat="45.02309" lon="6.06973">
        <ele>747.6</ele>
        <time>2026-08-25T07:33:35Z</time>
      </trkpt>
      <trkpt lat="45.02303" lon="6.06967">
        <ele>747.6</ele>
        <time>2026-08-25T07:33:36Z</time>
      </trkpt>
      <trkpt lat="45.02297" lon="6.0696">
        <ele>747.6</ele>
        <time>2026-08-25T07:33:37Z</time>
      </trkpt>
      <trkpt lat="45.02291" lon="6.06954">
        <ele>747.6</ele>
        <time>2026-08-25T07:33:38Z</time>
      </trkpt>
      <trkpt lat="45.02285" lon="6.06948">
        <ele>747.6</ele>
        <time>2026-08-25T07:33:39Z</time>
      </trkpt>
      <trkpt lat="45.02279" lon="6.06942">
        <ele>747.5</ele>
        <time>2026-08-25T07:33:40Z</time>
      </trkpt>
      <trkpt lat="45.02272" lon="6.06936">
        <ele>747.5</ele>
        <time>2026-08-25T07:33:41Z</time>
      </trkpt>
      <trkpt lat="45.02266" lon="6.0693">
        <ele>747.5</ele>
        <time>2026-08-25T07:33:42Z</time>
      </trkpt>
      <trkpt lat="45.02259" lon="6.06924">
        <ele>747.4</ele>
        <time>2026-08-25T07:33:43Z</time>
      </trkpt>
      <trkpt lat="45.02252" lon="6.06919">
        <ele>747.4</ele>
        <time>2026-08-25T07:33:44Z</time>
      </trkpt>
      <trkpt lat="45.02245" lon="6.06914">
        <ele>747.4</ele>
        <time>2026-08-25T07:33:45Z</time>
      </trkpt>
      <trkpt lat="45.02237" lon="6.06909">
        <ele>747.3</ele>
        <time>2026-08-25T07:33:46Z</time>
      </trkpt>
      <trkpt lat="45.0223" lon="6.06905">
        <ele>747.2</ele>
        <time>2026-08-25T07:33:47Z</time>
      </trkpt>
      <trkpt lat="45.02223" lon="6.069">
        <ele>747.1</ele>
        <time>2026-08-25T07:33:48Z</time>
      </trkpt>
      <trkpt lat="45.02216" lon="6.06896">
        <ele>747</ele>
        <time>2026-08-25T07:33:49Z</time>
      </trkpt>
      <trkpt lat="45.02209" lon="6.06892">
        <ele>746.9</ele>
        <time>2026-08-25T07:33:50Z</time>
      </trkpt>
      <trkpt lat="45.02201" lon="6.06888">
        <ele>746.8</ele>
        <time>2026-08-25T07:33:51Z</time>
      </trkpt>
      <trkpt lat="45.02194" lon="6.06885">
        <ele>746.8</ele>
        <time>2026-08-25T07:33:52Z</time>
      </trkpt>
      <trkpt lat="45.02186" lon="6.06882">
        <ele>746.7</ele>
        <time>2026-08-25T07:33:53Z</time>
      </trkpt>
      <trkpt lat="45.02179" lon="6.06878">
        <ele>746.6</ele>
        <time>2026-08-25T07:33:54Z</time>
      </trkpt>
      <trkpt lat="45.02171" lon="6.06875">
        <ele>746.6</ele>
        <time>2026-08-25T07:33:55Z</time>
      </trkpt>
      <trkpt lat="45.02164" lon="6.06872">
        <ele>746.6</ele>
        <time>2026-08-25T07:33:56Z</time>
      </trkpt>
      <trkpt lat="45.02157" lon="6.06869">
        <ele>746.6</ele>
        <time>2026-08-25T07:33:57Z</time>
      </trkpt>
      <trkpt lat="45.02149" lon="6.06865">
        <ele>746.6</ele>
        <time>2026-08-25T07:33:58Z</time>
      </trkpt>
      <trkpt lat="45.02143" lon="6.06861">
        <ele>746.6</ele>
        <time>2026-08-25T07:33:59Z</time>
      </trkpt>
      <trkpt lat="45.02136" lon="6.06855">
        <ele>746.6</ele>
        <time>2026-08-25T07:34:00Z</time>
      </trkpt>
      <trkpt lat="45.0213" lon="6.06849">
        <ele>746.7</ele>
        <time>2026-08-25T07:34:01Z</time>
      </trkpt>
      <trkpt lat="45.02125" lon="6.06842">
        <ele>746.8</ele>
        <time>2026-08-25T07:34:02Z</time>
      </trkpt>
      <trkpt lat="45.0212" lon="6.06834">
        <ele>747</ele>
        <time>2026-08-25T07:34:03Z</time>
      </trkpt>
      <trkpt lat="45.02116" lon="6.06827">
        <ele>747.2</ele>
        <time>2026-08-25T07:34:04Z</time>
      </trkpt>
      <trkpt lat="45.02112" lon="6.06819">
        <ele>747.4</ele>
        <time>2026-08-25T07:34:05Z</time>
      </trkpt>
      <trkpt lat="45.02109" lon="6.06811">
        <ele>747.6</ele>
        <time>2026-08-25T07:34:06Z</time>
      </trkpt>
      <trkpt lat="45.02106" lon="6.06803">
        <ele>747.8</ele>
        <time>2026-08-25T07:34:07Z</time>
      </trkpt>
      <trkpt lat="45.02103" lon="6.06795">
        <ele>748</ele>
        <time>2026-08-25T07:34:08Z</time>
      </trkpt>
      <trkpt lat="45.02101" lon="6.06787">
        <ele>748.3</ele>
        <time>2026-08-25T07:34:09Z</time>
      </trkpt>
      <trkpt lat="45.02099" lon="6.06779">
        <ele>748.5</ele>
        <time>2026-08-25T07:34:10Z</time>
      </trkpt>
      <trkpt lat="45.02097" lon="6.06771">
        <ele>748.7</ele>
        <time>2026-08-25T07:34:11Z</time>
      </trkpt>
      <trkpt lat="45.02095" lon="6.06764">
        <ele>748.9</ele>
        <time>2026-08-25T07:34:12Z</time>
      </trkpt>
      <trkpt lat="45.02093" lon="6.06756">
        <ele>749.1</ele>
        <time>2026-08-25T07:34:13Z</time>
      </trkpt>
      <trkpt lat="45.02092" lon="6.06748">
        <ele>749.3</ele>
        <time>2026-08-25T07:34:14Z</time>
      </trkpt>
      <trkpt lat="45.0209" lon="6.0674">
        <ele>749.5</ele>
        <time>2026-08-25T07:34:15Z</time>
      </trkpt>
      <trkpt lat="45.02087" lon="6.06733">
        <ele>749.7</ele>
        <time>2026-08-25T07:34:16Z</time>
      </trkpt>
      <trkpt lat="45.02085" lon="6.06726">
        <ele>749.9</ele>
        <time>2026-08-25T07:34:17Z</time>
      </trkpt>
      <trkpt lat="45.02082" lon="6.0672">
        <ele>750.1</ele>
        <time>2026-08-25T07:34:18Z</time>
      </trkpt>
      <trkpt lat="45.02079" lon="6.06713">
        <ele>750.2</ele>
        <time>2026-08-25T07:34:19Z</time>
      </trkpt>
      <trkpt lat="45.02075" lon="6.06707">
        <ele>750.4</ele>
        <time>2026-08-25T07:34:20Z</time>
      </trkpt>
      <trkpt lat="45.02071" lon="6.06702">
        <ele>750.6</ele>
        <time>2026-08-25T07:34:21Z</time>
      </trkpt>
      <trkpt lat="45.02067" lon="6.06696">
        <ele>750.7</ele>
        <time>2026-08-25T07:34:22Z</time>
      </trkpt>
      <trkpt lat="45.02063" lon="6.06691">
        <ele>750.9</ele>
        <time>2026-08-25T07:34:23Z</time>
      </trkpt>
      <trkpt lat="45.02058" lon="6.06686">
        <ele>751</ele>
        <time>2026-08-25T07:34:24Z</time>
      </trkpt>
      <trkpt lat="45.02054" lon="6.06681">
        <ele>751.1</ele>
        <time>2026-08-25T07:34:25Z</time>
      </trkpt>
      <trkpt lat="45.02049" lon="6.06678">
        <ele>751.3</ele>
        <time>2026-08-25T07:34:26Z</time>
      </trkpt>
      <trkpt lat="45.02044" lon="6.06675">
        <ele>751.4</ele>
        <time>2026-08-25T07:34:27Z</time>
      </trkpt>
      <trkpt lat="45.02039" lon="6.06672">
        <ele>751.5</ele>
        <time>2026-08-25T07:34:28Z</time>
      </trkpt>
      <trkpt lat="45.02034" lon="6.0667">
        <ele>751.6</ele>
        <time>2026-08-25T07:34:29Z</time>
      </trkpt>
      <trkpt lat="45.02029" lon="6.06668">
        <ele>751.6</ele>
        <time>2026-08-25T07:34:30Z</time>
      </trkpt>
      <trkpt lat="45.02023" lon="6.06666">
        <ele>751.7</ele>
        <time>2026-08-25T07:34:31Z</time>
      </trkpt>
      <trkpt lat="45.02018" lon="6.06665">
        <ele>751.8</ele>
        <time>2026-08-25T07:34:32Z</time>
      </trkpt>
      <trkpt lat="45.02012" lon="6.06665">
        <ele>752</ele>
        <time>2026-08-25T07:34:33Z</time>
      </trkpt>
      <trkpt lat="45.02005" lon="6.06665">
        <ele>752.1</ele>
        <time>2026-08-25T07:34:34Z</time>
      </trkpt>
      <trkpt lat="45.01999" lon="6.06665">
        <ele>752.2</ele>
        <time>2026-08-25T07:34:35Z</time>
      </trkpt>
      <trkpt lat="45.01993" lon="6.06665">
        <ele>752.4</ele>
        <time>2026-08-25T07:34:36Z</time>
      </trkpt>
      <trkpt lat="45.01987" lon="6.06664">
        <ele>752.5</ele>
        <time>2026-08-25T07:34:37Z</time>
      </trkpt>
      <trkpt lat="45.01982" lon="6.06662">
        <ele>752.6</ele>
        <time>2026-08-25T07:34:38Z</time>
      </trkpt>
      <trkpt lat="45.01976" lon="6.0666">
        <ele>752.7</ele>
        <time>2026-08-25T07:34:39Z</time>
      </trkpt>
      <trkpt lat="45.01971" lon="6.06658">
        <ele>752.8</ele>
        <time>2026-08-25T07:34:40Z</time>
      </trkpt>
      <trkpt lat="45.01965" lon="6.06656">
        <ele>752.9</ele>
        <time>2026-08-25T07:34:41Z</time>
      </trkpt>
      <trkpt lat="45.0196" lon="6.06654">
        <ele>753</ele>
        <time>2026-08-25T07:34:42Z</time>
      </trkpt>
      <trkpt lat="45.01954" lon="6.06651">
        <ele>753</ele>
        <time>2026-08-25T07:34:43Z</time>
      </trkpt>
      <trkpt lat="45.01949" lon="6.06649">
        <ele>753</ele>
        <time>2026-08-25T07:34:44Z</time>
      </trkpt>
      <trkpt lat="45.01943" lon="6.06646">
        <ele>753.1</ele>
        <time>2026-08-25T07:34:45Z</time>
      </trkpt>
      <trkpt lat="45.01937" lon="6.06644">
        <ele>753.1</ele>
        <time>2026-08-25T07:34:46Z</time>
      </trkpt>
      <trkpt lat="45.01931" lon="6.06642">
        <ele>753.2</ele>
        <time>2026-08-25T07:34:47Z</time>
      </trkpt>
      <trkpt lat="45.01925" lon="6.0664">
        <ele>753.2</ele>
        <time>2026-08-25T07:34:48Z</time>
      </trkpt>
      <trkpt lat="45.01919" lon="6.06638">
        <ele>753.2</ele>
        <time>2026-08-25T07:34:49Z</time>
      </trkpt>
      <trkpt lat="45.01912" lon="6.06636">
        <ele>753.3</ele>
        <time>2026-08-25T07:34:50Z</time>
      </trkpt>
      <trkpt lat="45.01906" lon="6.06634">
        <ele>753.3</ele>
        <time>2026-08-25T07:34:51Z</time>
      </trkpt>
      <trkpt lat="45.019" lon="6.06632">
        <ele>753.3</ele>
        <time>2026-08-25T07:34:52Z</time>
      </trkpt>
      <trkpt lat="45.01894" lon="6.06629">
        <ele>753.4</ele>
        <time>2026-08-25T07:34:53Z</time>
      </trkpt>
      <trkpt lat="45.01887" lon="6.06627">
        <ele>753.4</ele>
        <time>2026-08-25T07:34:54Z</time>
      </trkpt>
      <trkpt lat="45.01881" lon="6.06625">
        <ele>753.4</ele>
        <time>2026-08-25T07:34:55Z</time>
      </trkpt>
      <trkpt lat="45.01875" lon="6.06621">
        <ele>753.5</ele>
        <time>2026-08-25T07:34:56Z</time>
      </trkpt>
      <trkpt lat="45.0187" lon="6.06618">
        <ele>753.5</ele>
        <time>2026-08-25T07:34:57Z</time>
      </trkpt>
      <trkpt lat="45.01864" lon="6.06614">
        <ele>753.5</ele>
        <time>2026-08-25T07:34:58Z</time>
      </trkpt>
      <trkpt lat="45.01858" lon="6.06609">
        <ele>753.5</ele>
        <time>2026-08-25T07:34:59Z</time>
      </trkpt>
      <trkpt lat="45.01853" lon="6.06605">
        <ele>753.6</ele>
        <time>2026-08-25T07:35:00Z</time>
      </trkpt>
      <trkpt lat="45.01848" lon="6.066">
        <ele>753.6</ele>
        <time>2026-08-25T07:35:01Z</time>
      </trkpt>
      <trkpt lat="45.01842" lon="6.06595">
        <ele>753.7</ele>
        <time>2026-08-25T07:35:02Z</time>
      </trkpt>
      <trkpt lat="45.01837" lon="6.0659">
        <ele>753.7</ele>
        <time>2026-08-25T07:35:03Z</time>
      </trkpt>
      <trkpt lat="45.01832" lon="6.06585">
        <ele>753.8</ele>
        <time>2026-08-25T07:35:04Z</time>
      </trkpt>
      <trkpt lat="45.01826" lon="6.0658">
        <ele>753.8</ele>
        <time>2026-08-25T07:35:05Z</time>
      </trkpt>
      <trkpt lat="45.01821" lon="6.06576">
        <ele>753.9</ele>
        <time>2026-08-25T07:35:06Z</time>
      </trkpt>
      <trkpt lat="45.01815" lon="6.06572">
        <ele>753.9</ele>
        <time>2026-08-25T07:35:07Z</time>
      </trkpt>
      <trkpt lat="45.01809" lon="6.06568">
        <ele>753.9</ele>
        <time>2026-08-25T07:35:08Z</time>
      </trkpt>
      <trkpt lat="45.01803" lon="6.06565">
        <ele>754</ele>
        <time>2026-08-25T07:35:09Z</time>
      </trkpt>
      <trkpt lat="45.01797" lon="6.06563">
        <ele>754</ele>
        <time>2026-08-25T07:35:10Z</time>
      </trkpt>
      <trkpt lat="45.01791" lon="6.0656">
        <ele>754</ele>
        <time>2026-08-25T07:35:11Z</time>
      </trkpt>
      <trkpt lat="45.01785" lon="6.06558">
        <ele>754</ele>
        <time>2026-08-25T07:35:12Z</time>
      </trkpt>
      <trkpt lat="45.01778" lon="6.06556">
        <ele>753.9</ele>
        <time>2026-08-25T07:35:13Z</time>
      </trkpt>
      <trkpt lat="45.01772" lon="6.06554">
        <ele>753.9</ele>
        <time>2026-08-25T07:35:14Z</time>
      </trkpt>
      <trkpt lat="45.01766" lon="6.06552">
        <ele>753.9</ele>
        <time>2026-08-25T07:35:15Z</time>
      </trkpt>
      <trkpt lat="45.0176" lon="6.06549">
        <ele>753.9</ele>
        <time>2026-08-25T07:35:16Z</time>
      </trkpt>
      <trkpt lat="45.01754" lon="6.06546">
        <ele>753.9</ele>
        <time>2026-08-25T07:35:17Z</time>
      </trkpt>
      <trkpt lat="45.01747" lon="6.06543">
        <ele>753.8</ele>
        <time>2026-08-25T07:35:18Z</time>
      </trkpt>
      <trkpt lat="45.01741" lon="6.0654">
        <ele>753.8</ele>
        <time>2026-08-25T07:35:19Z</time>
      </trkpt>
      <trkpt lat="45.01735" lon="6.06538">
        <ele>753.9</ele>
        <time>2026-08-25T07:35:20Z</time>
      </trkpt>
      <trkpt lat="45.01728" lon="6.06534">
        <ele>753.9</ele>
        <time>2026-08-25T07:35:21Z</time>
      </trkpt>
      <trkpt lat="45.01722" lon="6.06532">
        <ele>753.9</ele>
        <time>2026-08-25T07:35:22Z</time>
      </trkpt>
      <trkpt lat="45.01715" lon="6.06529">
        <ele>753.9</ele>
        <time>2026-08-25T07:35:23Z</time>
      </trkpt>
      <trkpt lat="45.01709" lon="6.06526">
        <ele>753.9</ele>
        <time>2026-08-25T07:35:24Z</time>
      </trkpt>
      <trkpt lat="45.01702" lon="6.06524">
        <ele>753.9</ele>
        <time>2026-08-25T07:35:25Z</time>
      </trkpt>
      <trkpt lat="45.01696" lon="6.06522">
        <ele>753.9</ele>
        <time>2026-08-25T07:35:26Z</time>
      </trkpt>
      <trkpt lat="45.01689" lon="6.06519">
        <ele>753.9</ele>
        <time>2026-08-25T07:35:27Z</time>
      </trkpt>
      <trkpt lat="45.01683" lon="6.06517">
        <ele>753.9</ele>
        <time>2026-08-25T07:35:28Z</time>
      </trkpt>
      <trkpt lat="45.01676" lon="6.06515">
        <ele>753.9</ele>
        <time>2026-08-25T07:35:29Z</time>
      </trkpt>
      <trkpt lat="45.01669" lon="6.06513">
        <ele>753.9</ele>
        <time>2026-08-25T07:35:30Z</time>
      </trkpt>
      <trkpt lat="45.01663" lon="6.06511">
        <ele>754</ele>
        <time>2026-08-25T07:35:31Z</time>
      </trkpt>
      <trkpt lat="45.01656" lon="6.06509">
        <ele>754</ele>
        <time>2026-08-25T07:35:32Z</time>
      </trkpt>
      <trkpt lat="45.0165" lon="6.06508">
        <ele>754</ele>
        <time>2026-08-25T07:35:33Z</time>
      </trkpt>
      <trkpt lat="45.01644" lon="6.06507">
        <ele>754</ele>
        <time>2026-08-25T07:35:34Z</time>
      </trkpt>
      <trkpt lat="45.01638" lon="6.06505">
        <ele>754.1</ele>
        <time>2026-08-25T07:35:35Z</time>
      </trkpt>
      <trkpt lat="45.01631" lon="6.06504">
        <ele>754.1</ele>
        <time>2026-08-25T07:35:36Z</time>
      </trkpt>
      <trkpt lat="45.01624" lon="6.06503">
        <ele>754.1</ele>
        <time>2026-08-25T07:35:37Z</time>
      </trkpt>
      <trkpt lat="45.01617" lon="6.06503">
        <ele>754.2</ele>
        <time>2026-08-25T07:35:38Z</time>
      </trkpt>
      <trkpt lat="45.01612" lon="6.06502">
        <ele>754.2</ele>
        <time>2026-08-25T07:35:39Z</time>
      </trkpt>
      <trkpt lat="45.01607" lon="6.06502">
        <ele>754.2</ele>
        <time>2026-08-25T07:35:40Z</time>
      </trkpt>
      <trkpt lat="45.01597" lon="6.06501">
        <ele>754.3</ele>
        <time>2026-08-25T07:35:41Z</time>
      </trkpt>
      <trkpt lat="45.0159" lon="6.06499">
        <ele>754.3</ele>
        <time>2026-08-25T07:35:42Z</time>
      </trkpt>
      <trkpt lat="45.01584" lon="6.06498">
        <ele>754.4</ele>
        <time>2026-08-25T07:35:43Z</time>
      </trkpt>
      <trkpt lat="45.01577" lon="6.06497">
        <ele>754.5</ele>
        <time>2026-08-25T07:35:44Z</time>
      </trkpt>
      <trkpt lat="45.01571" lon="6.06497">
        <ele>754.6</ele>
        <time>2026-08-25T07:35:45Z</time>
      </trkpt>
      <trkpt lat="45.01564" lon="6.06496">
        <ele>754.6</ele>
        <time>2026-08-25T07:35:46Z</time>
      </trkpt>
      <trkpt lat="45.01557" lon="6.06494">
        <ele>754.7</ele>
        <time>2026-08-25T07:35:47Z</time>
      </trkpt>
      <trkpt lat="45.01551" lon="6.06494">
        <ele>754.8</ele>
        <time>2026-08-25T07:35:48Z</time>
      </trkpt>
      <trkpt lat="45.01545" lon="6.06492">
        <ele>754.9</ele>
        <time>2026-08-25T07:35:49Z</time>
      </trkpt>
      <trkpt lat="45.01539" lon="6.06491">
        <ele>755</ele>
        <time>2026-08-25T07:35:50Z</time>
      </trkpt>
      <trkpt lat="45.01533" lon="6.0649">
        <ele>755.1</ele>
        <time>2026-08-25T07:35:51Z</time>
      </trkpt>
      <trkpt lat="45.01527" lon="6.06489">
        <ele>755.3</ele>
        <time>2026-08-25T07:35:52Z</time>
      </trkpt>
      <trkpt lat="45.0152" lon="6.06488">
        <ele>755.4</ele>
        <time>2026-08-25T07:35:53Z</time>
      </trkpt>
      <trkpt lat="45.01514" lon="6.06487">
        <ele>755.5</ele>
        <time>2026-08-25T07:35:54Z</time>
      </trkpt>
      <trkpt lat="45.01509" lon="6.06486">
        <ele>755.7</ele>
        <time>2026-08-25T07:35:55Z</time>
      </trkpt>
      <trkpt lat="45.01503" lon="6.06485">
        <ele>755.8</ele>
        <time>2026-08-25T07:35:56Z</time>
      </trkpt>
      <trkpt lat="45.01497" lon="6.06485">
        <ele>755.9</ele>
        <time>2026-08-25T07:35:57Z</time>
      </trkpt>
      <trkpt lat="45.01491" lon="6.06484">
        <ele>756.1</ele>
        <time>2026-08-25T07:35:58Z</time>
      </trkpt>
      <trkpt lat="45.01485" lon="6.06484">
        <ele>756.2</ele>
        <time>2026-08-25T07:35:59Z</time>
      </trkpt>
      <trkpt lat="45.0148" lon="6.06483">
        <ele>756.4</ele>
        <time>2026-08-25T07:36:00Z</time>
      </trkpt>
      <trkpt lat="45.01474" lon="6.06484">
        <ele>756.5</ele>
        <time>2026-08-25T07:36:01Z</time>
      </trkpt>
      <trkpt lat="45.01469" lon="6.06484">
        <ele>756.7</ele>
        <time>2026-08-25T07:36:02Z</time>
      </trkpt>
      <trkpt lat="45.01464" lon="6.06484">
        <ele>756.8</ele>
        <time>2026-08-25T07:36:03Z</time>
      </trkpt>
      <trkpt lat="45.01459" lon="6.06486">
        <ele>757</ele>
        <time>2026-08-25T07:36:04Z</time>
      </trkpt>
      <trkpt lat="45.01454" lon="6.06487">
        <ele>757.2</ele>
        <time>2026-08-25T07:36:05Z</time>
      </trkpt>
      <trkpt lat="45.01449" lon="6.06489">
        <ele>757.4</ele>
        <time>2026-08-25T07:36:06Z</time>
      </trkpt>
      <trkpt lat="45.01444" lon="6.0649">
        <ele>757.6</ele>
        <time>2026-08-25T07:36:07Z</time>
      </trkpt>
      <trkpt lat="45.01439" lon="6.06492">
        <ele>757.8</ele>
        <time>2026-08-25T07:36:08Z</time>
      </trkpt>
      <trkpt lat="45.01433" lon="6.06494">
        <ele>758</ele>
        <time>2026-08-25T07:36:09Z</time>
      </trkpt>
      <trkpt lat="45.01428" lon="6.06496">
        <ele>758.2</ele>
        <time>2026-08-25T07:36:10Z</time>
      </trkpt>
      <trkpt lat="45.01423" lon="6.06498">
        <ele>758.3</ele>
        <time>2026-08-25T07:36:11Z</time>
      </trkpt>
      <trkpt lat="45.01418" lon="6.06501">
        <ele>758.5</ele>
        <time>2026-08-25T07:36:12Z</time>
      </trkpt>
      <trkpt lat="45.01413" lon="6.06503">
        <ele>758.7</ele>
        <time>2026-08-25T07:36:13Z</time>
      </trkpt>
      <trkpt lat="45.01408" lon="6.06505">
        <ele>758.9</ele>
        <time>2026-08-25T07:36:14Z</time>
      </trkpt>
      <trkpt lat="45.01403" lon="6.06507">
        <ele>759.1</ele>
        <time>2026-08-25T07:36:15Z</time>
      </trkpt>
      <trkpt lat="45.01398" lon="6.0651">
        <ele>759.3</ele>
        <time>2026-08-25T07:36:16Z</time>
      </trkpt>
      <trkpt lat="45.01393" lon="6.06512">
        <ele>759.5</ele>
        <time>2026-08-25T07:36:17Z</time>
      </trkpt>
      <trkpt lat="45.01389" lon="6.06515">
        <ele>759.7</ele>
        <time>2026-08-25T07:36:18Z</time>
      </trkpt>
      <trkpt lat="45.01384" lon="6.06517">
        <ele>759.8</ele>
        <time>2026-08-25T07:36:19Z</time>
      </trkpt>
      <trkpt lat="45.0138" lon="6.0652">
        <ele>760</ele>
        <time>2026-08-25T07:36:20Z</time>
      </trkpt>
      <trkpt lat="45.01375" lon="6.06523">
        <ele>760.2</ele>
        <time>2026-08-25T07:36:21Z</time>
      </trkpt>
      <trkpt lat="45.01371" lon="6.06526">
        <ele>760.4</ele>
        <time>2026-08-25T07:36:22Z</time>
      </trkpt>
      <trkpt lat="45.01367" lon="6.06529">
        <ele>760.5</ele>
        <time>2026-08-25T07:36:23Z</time>
      </trkpt>
      <trkpt lat="45.01363" lon="6.06532">
        <ele>760.7</ele>
        <time>2026-08-25T07:36:24Z</time>
      </trkpt>
      <trkpt lat="45.0136" lon="6.06536">
        <ele>760.9</ele>
        <time>2026-08-25T07:36:25Z</time>
      </trkpt>
      <trkpt lat="45.01356" lon="6.06541">
        <ele>761</ele>
        <time>2026-08-25T07:36:26Z</time>
      </trkpt>
      <trkpt lat="45.01352" lon="6.06545">
        <ele>761.2</ele>
        <time>2026-08-25T07:36:27Z</time>
      </trkpt>
      <trkpt lat="45.01349" lon="6.06549">
        <ele>761.3</ele>
        <time>2026-08-25T07:36:28Z</time>
      </trkpt>
      <trkpt lat="45.01345" lon="6.06554">
        <ele>761.5</ele>
        <time>2026-08-25T07:36:29Z</time>
      </trkpt>
      <trkpt lat="45.01342" lon="6.06558">
        <ele>761.6</ele>
        <time>2026-08-25T07:36:30Z</time>
      </trkpt>
      <trkpt lat="45.01339" lon="6.06563">
        <ele>761.8</ele>
        <time>2026-08-25T07:36:31Z</time>
      </trkpt>
      <trkpt lat="45.01335" lon="6.06567">
        <ele>761.9</ele>
        <time>2026-08-25T07:36:32Z</time>
      </trkpt>
      <trkpt lat="45.0133" lon="6.06572">
        <ele>762.1</ele>
        <time>2026-08-25T07:36:33Z</time>
      </trkpt>
      <trkpt lat="45.01326" lon="6.06576">
        <ele>762.2</ele>
        <time>2026-08-25T07:36:34Z</time>
      </trkpt>
      <trkpt lat="45.01322" lon="6.0658">
        <ele>762.4</ele>
        <time>2026-08-25T07:36:35Z</time>
      </trkpt>
      <trkpt lat="45.01317" lon="6.06582">
        <ele>762.5</ele>
        <time>2026-08-25T07:36:36Z</time>
      </trkpt>
      <trkpt lat="45.01313" lon="6.06584">
        <ele>762.7</ele>
        <time>2026-08-25T07:36:37Z</time>
      </trkpt>
      <trkpt lat="45.01308" lon="6.06587">
        <ele>762.8</ele>
        <time>2026-08-25T07:36:38Z</time>
      </trkpt>
      <trkpt lat="45.01303" lon="6.0659">
        <ele>763</ele>
        <time>2026-08-25T07:36:39Z</time>
      </trkpt>
      <trkpt lat="45.01299" lon="6.06592">
        <ele>763.1</ele>
        <time>2026-08-25T07:36:40Z</time>
      </trkpt>
      <trkpt lat="45.01295" lon="6.06594">
        <ele>763.3</ele>
        <time>2026-08-25T07:36:41Z</time>
      </trkpt>
      <trkpt lat="45.01291" lon="6.06596">
        <ele>763.4</ele>
        <time>2026-08-25T07:36:42Z</time>
      </trkpt>
      <trkpt lat="45.01287" lon="6.06598">
        <ele>763.6</ele>
        <time>2026-08-25T07:36:43Z</time>
      </trkpt>
      <trkpt lat="45.01282" lon="6.066">
        <ele>763.7</ele>
        <time>2026-08-25T07:36:44Z</time>
      </trkpt>
      <trkpt lat="45.01278" lon="6.06602">
        <ele>763.9</ele>
        <time>2026-08-25T07:36:45Z</time>
      </trkpt>
      <trkpt lat="45.01274" lon="6.06605">
        <ele>764.1</ele>
        <time>2026-08-25T07:36:46Z</time>
      </trkpt>
      <trkpt lat="45.01269" lon="6.06607">
        <ele>764.2</ele>
        <time>2026-08-25T07:36:47Z</time>
      </trkpt>
      <trkpt lat="45.01265" lon="6.06608">
        <ele>764.4</ele>
        <time>2026-08-25T07:36:48Z</time>
      </trkpt>
      <trkpt lat="45.01261" lon="6.0661">
        <ele>764.5</ele>
        <time>2026-08-25T07:36:49Z</time>
      </trkpt>
      <trkpt lat="45.01257" lon="6.06612">
        <ele>764.6</ele>
        <time>2026-08-25T07:36:50Z</time>
      </trkpt>
      <trkpt lat="45.01253" lon="6.06614">
        <ele>764.8</ele>
        <time>2026-08-25T07:36:51Z</time>
      </trkpt>
      <trkpt lat="45.01249" lon="6.06616">
        <ele>764.9</ele>
        <time>2026-08-25T07:36:52Z</time>
      </trkpt>
      <trkpt lat="45.01245" lon="6.06617">
        <ele>765</ele>
        <time>2026-08-25T07:36:53Z</time>
      </trkpt>
      <trkpt lat="45.0124" lon="6.06619">
        <ele>765.1</ele>
        <time>2026-08-25T07:36:54Z</time>
      </trkpt>
      <trkpt lat="45.01236" lon="6.0662">
        <ele>765.2</ele>
        <time>2026-08-25T07:36:55Z</time>
      </trkpt>
      <trkpt lat="45.01232" lon="6.06622">
        <ele>765.3</ele>
        <time>2026-08-25T07:36:56Z</time>
      </trkpt>
      <trkpt lat="45.01227" lon="6.06624">
        <ele>765.5</ele>
        <time>2026-08-25T07:36:57Z</time>
      </trkpt>
      <trkpt lat="45.01223" lon="6.06625">
        <ele>765.6</ele>
        <time>2026-08-25T07:36:58Z</time>
      </trkpt>
      <trkpt lat="45.01219" lon="6.06627">
        <ele>765.7</ele>
        <time>2026-08-25T07:36:59Z</time>
      </trkpt>
      <trkpt lat="45.01215" lon="6.06628">
        <ele>765.8</ele>
        <time>2026-08-25T07:37:00Z</time>
      </trkpt>
      <trkpt lat="45.01211" lon="6.0663">
        <ele>765.9</ele>
        <time>2026-08-25T07:37:01Z</time>
      </trkpt>
      <trkpt lat="45.01207" lon="6.06632">
        <ele>766</ele>
        <time>2026-08-25T07:37:02Z</time>
      </trkpt>
      <trkpt lat="45.01202" lon="6.06634">
        <ele>766.1</ele>
        <time>2026-08-25T07:37:03Z</time>
      </trkpt>
      <trkpt lat="45.01198" lon="6.06636">
        <ele>766.2</ele>
        <time>2026-08-25T07:37:04Z</time>
      </trkpt>
      <trkpt lat="45.01193" lon="6.06637">
        <ele>766.3</ele>
        <time>2026-08-25T07:37:05Z</time>
      </trkpt>
      <trkpt lat="45.01189" lon="6.06639">
        <ele>766.4</ele>
        <time>2026-08-25T07:37:06Z</time>
      </trkpt>
      <trkpt lat="45.01185" lon="6.06641">
        <ele>766.5</ele>
        <time>2026-08-25T07:37:07Z</time>
      </trkpt>
      <trkpt lat="45.0118" lon="6.06642">
        <ele>766.6</ele>
        <time>2026-08-25T07:37:08Z</time>
      </trkpt>
      <trkpt lat="45.01176" lon="6.06644">
        <ele>766.7</ele>
        <time>2026-08-25T07:37:09Z</time>
      </trkpt>
      <trkpt lat="45.01171" lon="6.06646">
        <ele>766.8</ele>
        <time>2026-08-25T07:37:10Z</time>
      </trkpt>
      <trkpt lat="45.01167" lon="6.06648">
        <ele>766.9</ele>
        <time>2026-08-25T07:37:11Z</time>
      </trkpt>
      <trkpt lat="45.01162" lon="6.0665">
        <ele>767</ele>
        <time>2026-08-25T07:37:12Z</time>
      </trkpt>
      <trkpt lat="45.01157" lon="6.06651">
        <ele>767.2</ele>
        <time>2026-08-25T07:37:13Z</time>
      </trkpt>
      <trkpt lat="45.01153" lon="6.06652">
        <ele>767.3</ele>
        <time>2026-08-25T07:37:14Z</time>
      </trkpt>
      <trkpt lat="45.01148" lon="6.06654">
        <ele>767.4</ele>
        <time>2026-08-25T07:37:15Z</time>
      </trkpt>
      <trkpt lat="45.01144" lon="6.06656">
        <ele>767.5</ele>
        <time>2026-08-25T07:37:16Z</time>
      </trkpt>
      <trkpt lat="45.01139" lon="6.06657">
        <ele>767.6</ele>
        <time>2026-08-25T07:37:17Z</time>
      </trkpt>
      <trkpt lat="45.01135" lon="6.06659">
        <ele>767.7</ele>
        <time>2026-08-25T07:37:18Z</time>
      </trkpt>
      <trkpt lat="45.0113" lon="6.0666">
        <ele>767.8</ele>
        <time>2026-08-25T07:37:19Z</time>
      </trkpt>
      <trkpt lat="45.01125" lon="6.06661">
        <ele>767.9</ele>
        <time>2026-08-25T07:37:20Z</time>
      </trkpt>
      <trkpt lat="45.01121" lon="6.06663">
        <ele>768.1</ele>
        <time>2026-08-25T07:37:21Z</time>
      </trkpt>
      <trkpt lat="45.01116" lon="6.06664">
        <ele>768.2</ele>
        <time>2026-08-25T07:37:22Z</time>
      </trkpt>
      <trkpt lat="45.01112" lon="6.06666">
        <ele>768.2</ele>
        <time>2026-08-25T07:37:23Z</time>
      </trkpt>
      <trkpt lat="45.01108" lon="6.06667">
        <ele>768.3</ele>
        <time>2026-08-25T07:37:24Z</time>
      </trkpt>
      <trkpt lat="45.01103" lon="6.06669">
        <ele>768.4</ele>
        <time>2026-08-25T07:37:25Z</time>
      </trkpt>
      <trkpt lat="45.01098" lon="6.0667">
        <ele>768.5</ele>
        <time>2026-08-25T07:37:26Z</time>
      </trkpt>
      <trkpt lat="45.01093" lon="6.06671">
        <ele>768.6</ele>
        <time>2026-08-25T07:37:27Z</time>
      </trkpt>
      <trkpt lat="45.01088" lon="6.06673">
        <ele>768.7</ele>
        <time>2026-08-25T07:37:28Z</time>
      </trkpt>
      <trkpt lat="45.01083" lon="6.06675">
        <ele>768.8</ele>
        <time>2026-08-25T07:37:29Z</time>
      </trkpt>
      <trkpt lat="45.01079" lon="6.06677">
        <ele>768.9</ele>
        <time>2026-08-25T07:37:30Z</time>
      </trkpt>
      <trkpt lat="45.01075" lon="6.06679">
        <ele>769</ele>
        <time>2026-08-25T07:37:31Z</time>
      </trkpt>
      <trkpt lat="45.0107" lon="6.06682">
        <ele>769.1</ele>
        <time>2026-08-25T07:37:32Z</time>
      </trkpt>
      <trkpt lat="45.01065" lon="6.06684">
        <ele>769.2</ele>
        <time>2026-08-25T07:37:33Z</time>
      </trkpt>
      <trkpt lat="45.01061" lon="6.06686">
        <ele>769.3</ele>
        <time>2026-08-25T07:37:34Z</time>
      </trkpt>
      <trkpt lat="45.01056" lon="6.06688">
        <ele>769.4</ele>
        <time>2026-08-25T07:37:35Z</time>
      </trkpt>
      <trkpt lat="45.01051" lon="6.06691">
        <ele>769.4</ele>
        <time>2026-08-25T07:37:36Z</time>
      </trkpt>
      <trkpt lat="45.01046" lon="6.06693">
        <ele>769.5</ele>
        <time>2026-08-25T07:37:37Z</time>
      </trkpt>
      <trkpt lat="45.01041" lon="6.06695">
        <ele>769.6</ele>
        <time>2026-08-25T07:37:38Z</time>
      </trkpt>
      <trkpt lat="45.01036" lon="6.06697">
        <ele>769.7</ele>
        <time>2026-08-25T07:37:39Z</time>
      </trkpt>
      <trkpt lat="45.01032" lon="6.06699">
        <ele>769.8</ele>
        <time>2026-08-25T07:37:40Z</time>
      </trkpt>
      <trkpt lat="45.01027" lon="6.06702">
        <ele>769.9</ele>
        <time>2026-08-25T07:37:41Z</time>
      </trkpt>
      <trkpt lat="45.01022" lon="6.06704">
        <ele>770</ele>
        <time>2026-08-25T07:37:42Z</time>
      </trkpt>
      <trkpt lat="45.01018" lon="6.06706">
        <ele>770.1</ele>
        <time>2026-08-25T07:37:43Z</time>
      </trkpt>
      <trkpt lat="45.01013" lon="6.06708">
        <ele>770.2</ele>
        <time>2026-08-25T07:37:44Z</time>
      </trkpt>
      <trkpt lat="45.01008" lon="6.0671">
        <ele>770.3</ele>
        <time>2026-08-25T07:37:45Z</time>
      </trkpt>
      <trkpt lat="45.01004" lon="6.06713">
        <ele>770.3</ele>
        <time>2026-08-25T07:37:46Z</time>
      </trkpt>
      <trkpt lat="45.00999" lon="6.06715">
        <ele>770.4</ele>
        <time>2026-08-25T07:37:47Z</time>
      </trkpt>
      <trkpt lat="45.00995" lon="6.06717">
        <ele>770.5</ele>
        <time>2026-08-25T07:37:48Z</time>
      </trkpt>
      <trkpt lat="45.0099" lon="6.06719">
        <ele>770.6</ele>
        <time>2026-08-25T07:37:49Z</time>
      </trkpt>
      <trkpt lat="45.00985" lon="6.06721">
        <ele>770.7</ele>
        <time>2026-08-25T07:37:50Z</time>
      </trkpt>
      <trkpt lat="45.0098" lon="6.06723">
        <ele>770.7</ele>
        <time>2026-08-25T07:37:51Z</time>
      </trkpt>
      <trkpt lat="45.00976" lon="6.06725">
        <ele>770.8</ele>
        <time>2026-08-25T07:37:52Z</time>
      </trkpt>
      <trkpt lat="45.00971" lon="6.06727">
        <ele>770.9</ele>
        <time>2026-08-25T07:37:53Z</time>
      </trkpt>
      <trkpt lat="45.00966" lon="6.06729">
        <ele>771</ele>
        <time>2026-08-25T07:37:54Z</time>
      </trkpt>
      <trkpt lat="45.00961" lon="6.06731">
        <ele>771.1</ele>
        <time>2026-08-25T07:37:55Z</time>
      </trkpt>
      <trkpt lat="45.00956" lon="6.06732">
        <ele>771.2</ele>
        <time>2026-08-25T07:37:56Z</time>
      </trkpt>
      <trkpt lat="45.00952" lon="6.06734">
        <ele>771.3</ele>
        <time>2026-08-25T07:37:57Z</time>
      </trkpt>
      <trkpt lat="45.00947" lon="6.06736">
        <ele>771.4</ele>
        <time>2026-08-25T07:37:58Z</time>
      </trkpt>
      <trkpt lat="45.00943" lon="6.06737">
        <ele>771.6</ele>
        <time>2026-08-25T07:37:59Z</time>
      </trkpt>
      <trkpt lat="45.00938" lon="6.06739">
        <ele>771.7</ele>
        <time>2026-08-25T07:38:00Z</time>
      </trkpt>
      <trkpt lat="45.00933" lon="6.06741">
        <ele>771.8</ele>
        <time>2026-08-25T07:38:01Z</time>
      </trkpt>
      <trkpt lat="45.00928" lon="6.06743">
        <ele>771.9</ele>
        <time>2026-08-25T07:38:02Z</time>
      </trkpt>
      <trkpt lat="45.00923" lon="6.06745">
        <ele>772</ele>
        <time>2026-08-25T07:38:03Z</time>
      </trkpt>
      <trkpt lat="45.00918" lon="6.06747">
        <ele>772.2</ele>
        <time>2026-08-25T07:38:04Z</time>
      </trkpt>
      <trkpt lat="45.00913" lon="6.06749">
        <ele>772.3</ele>
        <time>2026-08-25T07:38:05Z</time>
      </trkpt>
      <trkpt lat="45.00908" lon="6.06751">
        <ele>772.4</ele>
        <time>2026-08-25T07:38:06Z</time>
      </trkpt>
      <trkpt lat="45.00903" lon="6.06753">
        <ele>772.6</ele>
        <time>2026-08-25T07:38:07Z</time>
      </trkpt>
      <trkpt lat="45.00899" lon="6.06755">
        <ele>772.7</ele>
        <time>2026-08-25T07:38:08Z</time>
      </trkpt>
      <trkpt lat="45.00894" lon="6.06757">
        <ele>772.7</ele>
        <time>2026-08-25T07:38:09Z</time>
      </trkpt>
      <trkpt lat="45.00889" lon="6.06759">
        <ele>772.8</ele>
        <time>2026-08-25T07:38:10Z</time>
      </trkpt>
      <trkpt lat="45.00884" lon="6.06761">
        <ele>772.9</ele>
        <time>2026-08-25T07:38:11Z</time>
      </trkpt>
      <trkpt lat="45.00879" lon="6.06764">
        <ele>772.9</ele>
        <time>2026-08-25T07:38:12Z</time>
      </trkpt>
      <trkpt lat="45.00874" lon="6.06766">
        <ele>773</ele>
        <time>2026-08-25T07:38:13Z</time>
      </trkpt>
      <trkpt lat="45.00869" lon="6.06768">
        <ele>773</ele>
        <time>2026-08-25T07:38:14Z</time>
      </trkpt>
      <trkpt lat="45.00865" lon="6.0677">
        <ele>773.1</ele>
        <time>2026-08-25T07:38:15Z</time>
      </trkpt>
      <trkpt lat="45.0086" lon="6.06772">
        <ele>773.2</ele>
        <time>2026-08-25T07:38:16Z</time>
      </trkpt>
      <trkpt lat="45.00856" lon="6.06774">
        <ele>773.3</ele>
        <time>2026-08-25T07:38:17Z</time>
      </trkpt>
      <trkpt lat="45.00851" lon="6.06776">
        <ele>773.4</ele>
        <time>2026-08-25T07:38:18Z</time>
      </trkpt>
      <trkpt lat="45.00846" lon="6.06779">
        <ele>773.5</ele>
        <time>2026-08-25T07:38:19Z</time>
      </trkpt>
      <trkpt lat="45.00842" lon="6.06781">
        <ele>773.6</ele>
        <time>2026-08-25T07:38:20Z</time>
      </trkpt>
      <trkpt lat="45.00837" lon="6.06783">
        <ele>773.7</ele>
        <time>2026-08-25T07:38:21Z</time>
      </trkpt>
      <trkpt lat="45.00833" lon="6.06786">
        <ele>773.8</ele>
        <time>2026-08-25T07:38:22Z</time>
      </trkpt>
      <trkpt lat="45.00829" lon="6.06787">
        <ele>774</ele>
        <time>2026-08-25T07:38:23Z</time>
      </trkpt>
      <trkpt lat="45.00825" lon="6.06789">
        <ele>774.1</ele>
        <time>2026-08-25T07:38:24Z</time>
      </trkpt>
      <trkpt lat="45.00821" lon="6.06791">
        <ele>774.2</ele>
        <time>2026-08-25T07:38:25Z</time>
      </trkpt>
      <trkpt lat="45.00817" lon="6.06793">
        <ele>774.3</ele>
        <time>2026-08-25T07:38:26Z</time>
      </trkpt>
      <trkpt lat="45.00812" lon="6.06795">
        <ele>774.4</ele>
        <time>2026-08-25T07:38:27Z</time>
      </trkpt>
      <trkpt lat="45.00808" lon="6.06797">
        <ele>774.5</ele>
        <time>2026-08-25T07:38:28Z</time>
      </trkpt>
      <trkpt lat="45.00804" lon="6.06798">
        <ele>774.6</ele>
        <time>2026-08-25T07:38:29Z</time>
      </trkpt>
      <trkpt lat="45.008" lon="6.06801">
        <ele>774.8</ele>
        <time>2026-08-25T07:38:30Z</time>
      </trkpt>
      <trkpt lat="45.00796" lon="6.06803">
        <ele>775</ele>
        <time>2026-08-25T07:38:31Z</time>
      </trkpt>
      <trkpt lat="45.00792" lon="6.06806">
        <ele>775.1</ele>
        <time>2026-08-25T07:38:32Z</time>
      </trkpt>
      <trkpt lat="45.00788" lon="6.06808">
        <ele>775.3</ele>
        <time>2026-08-25T07:38:33Z</time>
      </trkpt>
      <trkpt lat="45.00784" lon="6.0681">
        <ele>775.4</ele>
        <time>2026-08-25T07:38:34Z</time>
      </trkpt>
      <trkpt lat="45.0078" lon="6.06813">
        <ele>775.6</ele>
        <time>2026-08-25T07:38:35Z</time>
      </trkpt>
      <trkpt lat="45.00776" lon="6.06816">
        <ele>775.7</ele>
        <time>2026-08-25T07:38:36Z</time>
      </trkpt>
      <trkpt lat="45.00772" lon="6.06819">
        <ele>775.9</ele>
        <time>2026-08-25T07:38:37Z</time>
      </trkpt>
      <trkpt lat="45.00768" lon="6.06823">
        <ele>776</ele>
        <time>2026-08-25T07:38:38Z</time>
      </trkpt>
      <trkpt lat="45.00763" lon="6.06826">
        <ele>776.2</ele>
        <time>2026-08-25T07:38:39Z</time>
      </trkpt>
      <trkpt lat="45.00759" lon="6.06829">
        <ele>776.3</ele>
        <time>2026-08-25T07:38:40Z</time>
      </trkpt>
      <trkpt lat="45.00755" lon="6.06831">
        <ele>776.5</ele>
        <time>2026-08-25T07:38:41Z</time>
      </trkpt>
      <trkpt lat="45.00751" lon="6.06834">
        <ele>776.6</ele>
        <time>2026-08-25T07:38:42Z</time>
      </trkpt>
      <trkpt lat="45.00747" lon="6.06837">
        <ele>776.8</ele>
        <time>2026-08-25T07:38:43Z</time>
      </trkpt>
      <trkpt lat="45.00743" lon="6.0684">
        <ele>777</ele>
        <time>2026-08-25T07:38:44Z</time>
      </trkpt>
      <trkpt lat="45.00739" lon="6.06843">
        <ele>777.2</ele>
        <time>2026-08-25T07:38:45Z</time>
      </trkpt>
      <trkpt lat="45.00735" lon="6.06845">
        <ele>777.3</ele>
        <time>2026-08-25T07:38:46Z</time>
      </trkpt>
      <trkpt lat="45.00731" lon="6.06848">
        <ele>777.5</ele>
        <time>2026-08-25T07:38:47Z</time>
      </trkpt>
      <trkpt lat="45.00728" lon="6.0685">
        <ele>777.7</ele>
        <time>2026-08-25T07:38:48Z</time>
      </trkpt>
      <trkpt lat="45.00724" lon="6.06852">
        <ele>777.9</ele>
        <time>2026-08-25T07:38:49Z</time>
      </trkpt>
      <trkpt lat="45.0072" lon="6.06854">
        <ele>778.1</ele>
        <time>2026-08-25T07:38:50Z</time>
      </trkpt>
      <trkpt lat="45.00717" lon="6.06857">
        <ele>778.4</ele>
        <time>2026-08-25T07:38:51Z</time>
      </trkpt>
      <trkpt lat="45.00713" lon="6.06859">
        <ele>778.6</ele>
        <time>2026-08-25T07:38:52Z</time>
      </trkpt>
      <trkpt lat="45.00709" lon="6.06862">
        <ele>778.9</ele>
        <time>2026-08-25T07:38:53Z</time>
      </trkpt>
      <trkpt lat="45.00707" lon="6.06865">
        <ele>779.1</ele>
        <time>2026-08-25T07:38:54Z</time>
      </trkpt>
      <trkpt lat="45.00704" lon="6.06868">
        <ele>779.3</ele>
        <time>2026-08-25T07:38:55Z</time>
      </trkpt>
      <trkpt lat="45.00701" lon="6.06872">
        <ele>779.6</ele>
        <time>2026-08-25T07:38:56Z</time>
      </trkpt>
      <trkpt lat="45.00698" lon="6.06875">
        <ele>779.9</ele>
        <time>2026-08-25T07:38:57Z</time>
      </trkpt>
      <trkpt lat="45.00696" lon="6.06879">
        <ele>780.1</ele>
        <time>2026-08-25T07:38:58Z</time>
      </trkpt>
      <trkpt lat="45.00694" lon="6.06882">
        <ele>780.4</ele>
        <time>2026-08-25T07:38:59Z</time>
      </trkpt>
      <trkpt lat="45.00691" lon="6.06885">
        <ele>780.6</ele>
        <time>2026-08-25T07:39:00Z</time>
      </trkpt>
      <trkpt lat="45.00688" lon="6.06888">
        <ele>780.9</ele>
        <time>2026-08-25T07:39:01Z</time>
      </trkpt>
      <trkpt lat="45.00686" lon="6.06891">
        <ele>781.1</ele>
        <time>2026-08-25T07:39:02Z</time>
      </trkpt>
      <trkpt lat="45.00684" lon="6.06894">
        <ele>781.4</ele>
        <time>2026-08-25T07:39:03Z</time>
      </trkpt>
      <trkpt lat="45.00682" lon="6.06898">
        <ele>781.6</ele>
        <time>2026-08-25T07:39:04Z</time>
      </trkpt>
      <trkpt lat="45.00679" lon="6.06902">
        <ele>781.9</ele>
        <time>2026-08-25T07:39:05Z</time>
      </trkpt>
      <trkpt lat="45.00677" lon="6.06905">
        <ele>782.1</ele>
        <time>2026-08-25T07:39:06Z</time>
      </trkpt>
      <trkpt lat="45.00675" lon="6.06909">
        <ele>782.3</ele>
        <time>2026-08-25T07:39:07Z</time>
      </trkpt>
      <trkpt lat="45.00672" lon="6.06912">
        <ele>782.6</ele>
        <time>2026-08-25T07:39:08Z</time>
      </trkpt>
      <trkpt lat="45.0067" lon="6.06916">
        <ele>782.8</ele>
        <time>2026-08-25T07:39:09Z</time>
      </trkpt>
      <trkpt lat="45.00668" lon="6.0692">
        <ele>783</ele>
        <time>2026-08-25T07:39:10Z</time>
      </trkpt>
      <trkpt lat="45.00666" lon="6.06923">
        <ele>783.3</ele>
        <time>2026-08-25T07:39:11Z</time>
      </trkpt>
      <trkpt lat="45.00664" lon="6.06927">
        <ele>783.4</ele>
        <time>2026-08-25T07:39:12Z</time>
      </trkpt>
      <trkpt lat="45.00662" lon="6.06931">
        <ele>783.7</ele>
        <time>2026-08-25T07:39:13Z</time>
      </trkpt>
      <trkpt lat="45.0066" lon="6.06935">
        <ele>783.9</ele>
        <time>2026-08-25T07:39:14Z</time>
      </trkpt>
      <trkpt lat="45.00658" lon="6.06939">
        <ele>784.2</ele>
        <time>2026-08-25T07:39:15Z</time>
      </trkpt>
      <trkpt lat="45.00656" lon="6.06942">
        <ele>784.4</ele>
        <time>2026-08-25T07:39:16Z</time>
      </trkpt>
      <trkpt lat="45.00653" lon="6.06945">
        <ele>784.7</ele>
        <time>2026-08-25T07:39:17Z</time>
      </trkpt>
      <trkpt lat="45.00651" lon="6.06948">
        <ele>784.9</ele>
        <time>2026-08-25T07:39:18Z</time>
      </trkpt>
      <trkpt lat="45.00649" lon="6.06951">
        <ele>785.1</ele>
        <time>2026-08-25T07:39:19Z</time>
      </trkpt>
      <trkpt lat="45.00647" lon="6.06953">
        <ele>785.3</ele>
        <time>2026-08-25T07:39:20Z</time>
      </trkpt>
      <trkpt lat="45.00645" lon="6.06956">
        <ele>785.6</ele>
        <time>2026-08-25T07:39:21Z</time>
      </trkpt>
      <trkpt lat="45.00643" lon="6.06959">
        <ele>785.8</ele>
        <time>2026-08-25T07:39:22Z</time>
      </trkpt>
      <trkpt lat="45.00641" lon="6.06961">
        <ele>786</ele>
        <time>2026-08-25T07:39:23Z</time>
      </trkpt>
      <trkpt lat="45.00639" lon="6.06963">
        <ele>786.2</ele>
        <time>2026-08-25T07:39:24Z</time>
      </trkpt>
      <trkpt lat="45.00637" lon="6.06965">
        <ele>786.4</ele>
        <time>2026-08-25T07:39:25Z</time>
      </trkpt>
      <trkpt lat="45.00635" lon="6.06968">
        <ele>786.6</ele>
        <time>2026-08-25T07:39:26Z</time>
      </trkpt>
      <trkpt lat="45.00632" lon="6.0697">
        <ele>786.9</ele>
        <time>2026-08-25T07:39:27Z</time>
      </trkpt>
      <trkpt lat="45.0063" lon="6.06972">
        <ele>787.1</ele>
        <time>2026-08-25T07:39:28Z</time>
      </trkpt>
      <trkpt lat="45.00628" lon="6.06974">
        <ele>787.3</ele>
        <time>2026-08-25T07:39:29Z</time>
      </trkpt>
      <trkpt lat="45.00625" lon="6.06976">
        <ele>787.5</ele>
        <time>2026-08-25T07:39:30Z</time>
      </trkpt>
      <trkpt lat="45.00622" lon="6.06979">
        <ele>787.8</ele>
        <time>2026-08-25T07:39:31Z</time>
      </trkpt>
      <trkpt lat="45.0062" lon="6.06981">
        <ele>788</ele>
        <time>2026-08-25T07:39:32Z</time>
      </trkpt>
      <trkpt lat="45.00618" lon="6.06984">
        <ele>788.3</ele>
        <time>2026-08-25T07:39:33Z</time>
      </trkpt>
      <trkpt lat="45.00615" lon="6.06986">
        <ele>788.5</ele>
        <time>2026-08-25T07:39:34Z</time>
      </trkpt>
      <trkpt lat="45.00613" lon="6.06987">
        <ele>788.7</ele>
        <time>2026-08-25T07:39:35Z</time>
      </trkpt>
      <trkpt lat="45.00611" lon="6.06988">
        <ele>788.8</ele>
        <time>2026-08-25T07:39:36Z</time>
      </trkpt>
      <trkpt lat="45.00609" lon="6.06989">
        <ele>789</ele>
        <time>2026-08-25T07:39:37Z</time>
      </trkpt>
      <trkpt lat="45.00606" lon="6.06991">
        <ele>789.3</ele>
        <time>2026-08-25T07:39:38Z</time>
      </trkpt>
      <trkpt lat="45.00604" lon="6.06993">
        <ele>789.5</ele>
        <time>2026-08-25T07:39:39Z</time>
      </trkpt>
      <trkpt lat="45.00602" lon="6.06995">
        <ele>789.7</ele>
        <time>2026-08-25T07:39:40Z</time>
      </trkpt>
      <trkpt lat="45.00599" lon="6.06996">
        <ele>789.9</ele>
        <time>2026-08-25T07:39:41Z</time>
      </trkpt>
      <trkpt lat="45.00597" lon="6.06998">
        <ele>790.2</ele>
        <time>2026-08-25T07:39:42Z</time>
      </trkpt>
      <trkpt lat="45.00594" lon="6.07">
        <ele>790.4</ele>
        <time>2026-08-25T07:39:43Z</time>
      </trkpt>
      <trkpt lat="45.00592" lon="6.07003">
        <ele>790.7</ele>
        <time>2026-08-25T07:39:44Z</time>
      </trkpt>
      <trkpt lat="45.00589" lon="6.07004">
        <ele>790.9</ele>
        <time>2026-08-25T07:39:45Z</time>
      </trkpt>
      <trkpt lat="45.00587" lon="6.07005">
        <ele>791.1</ele>
        <time>2026-08-25T07:39:46Z</time>
      </trkpt>
      <trkpt lat="45.00585" lon="6.07007">
        <ele>791.4</ele>
        <time>2026-08-25T07:39:47Z</time>
      </trkpt>
      <trkpt lat="45.00582" lon="6.07008">
        <ele>791.6</ele>
        <time>2026-08-25T07:39:48Z</time>
      </trkpt>
      <trkpt lat="45.0058" lon="6.07009">
        <ele>791.8</ele>
        <time>2026-08-25T07:39:49Z</time>
      </trkpt>
      <trkpt lat="45.00578" lon="6.0701">
        <ele>792</ele>
        <time>2026-08-25T07:39:50Z</time>
      </trkpt>
      <trkpt lat="45.00575" lon="6.07011">
        <ele>792.2</ele>
        <time>2026-08-25T07:39:51Z</time>
      </trkpt>
      <trkpt lat="45.00573" lon="6.07012">
        <ele>792.5</ele>
        <time>2026-08-25T07:39:52Z</time>
      </trkpt>
      <trkpt lat="45.0057" lon="6.07014">
        <ele>792.7</ele>
        <time>2026-08-25T07:39:53Z</time>
      </trkpt>
      <trkpt lat="45.00567" lon="6.07014">
        <ele>793</ele>
        <time>2026-08-25T07:39:54Z</time>
      </trkpt>
      <trkpt lat="45.00564" lon="6.07015">
        <ele>793.2</ele>
        <time>2026-08-25T07:39:55Z</time>
      </trkpt>
      <trkpt lat="45.00561" lon="6.07015">
        <ele>793.5</ele>
        <time>2026-08-25T07:39:56Z</time>
      </trkpt>
      <trkpt lat="45.00558" lon="6.07016">
        <ele>793.7</ele>
        <time>2026-08-25T07:39:57Z</time>
      </trkpt>
      <trkpt lat="45.00555" lon="6.07017">
        <ele>794</ele>
        <time>2026-08-25T07:39:58Z</time>
      </trkpt>
      <trkpt lat="45.00552" lon="6.07018">
        <ele>794.3</ele>
        <time>2026-08-25T07:39:59Z</time>
      </trkpt>
      <trkpt lat="45.0055" lon="6.0702">
        <ele>794.5</ele>
        <time>2026-08-25T07:40:00Z</time>
      </trkpt>
      <trkpt lat="45.00547" lon="6.0702">
        <ele>794.7</ele>
        <time>2026-08-25T07:40:01Z</time>
      </trkpt>
      <trkpt lat="45.00545" lon="6.07021">
        <ele>794.8</ele>
        <time>2026-08-25T07:40:02Z</time>
      </trkpt>
      <trkpt lat="45.00543" lon="6.07021">
        <ele>795</ele>
        <time>2026-08-25T07:40:03Z</time>
      </trkpt>
      <trkpt lat="45.00541" lon="6.07022">
        <ele>795.2</ele>
        <time>2026-08-25T07:40:04Z</time>
      </trkpt>
      <trkpt lat="45.00539" lon="6.07024">
        <ele>795.4</ele>
        <time>2026-08-25T07:40:05Z</time>
      </trkpt>
      <trkpt lat="45.00536" lon="6.07025">
        <ele>795.7</ele>
        <time>2026-08-25T07:40:06Z</time>
      </trkpt>
      <trkpt lat="45.00533" lon="6.07026">
        <ele>795.9</ele>
        <time>2026-08-25T07:40:07Z</time>
      </trkpt>
      <trkpt lat="45.00531" lon="6.07027">
        <ele>796.1</ele>
        <time>2026-08-25T07:40:08Z</time>
      </trkpt>
      <trkpt lat="45.00528" lon="6.07028">
        <ele>796.3</ele>
        <time>2026-08-25T07:40:09Z</time>
      </trkpt>
      <trkpt lat="45.00526" lon="6.0703">
        <ele>796.5</ele>
        <time>2026-08-25T07:40:10Z</time>
      </trkpt>
      <trkpt lat="45.00524" lon="6.07031">
        <ele>796.7</ele>
        <time>2026-08-25T07:40:11Z</time>
      </trkpt>
      <trkpt lat="45.00522" lon="6.07033">
        <ele>796.9</ele>
        <time>2026-08-25T07:40:12Z</time>
      </trkpt>
      <trkpt lat="45.0052" lon="6.07035">
        <ele>797</ele>
        <time>2026-08-25T07:40:13Z</time>
      </trkpt>
      <trkpt lat="45.00518" lon="6.07036">
        <ele>797.2</ele>
        <time>2026-08-25T07:40:14Z</time>
      </trkpt>
      <trkpt lat="45.00516" lon="6.07038">
        <ele>797.4</ele>
        <time>2026-08-25T07:40:15Z</time>
      </trkpt>
      <trkpt lat="45.00514" lon="6.0704">
        <ele>797.6</ele>
        <time>2026-08-25T07:40:16Z</time>
      </trkpt>
      <trkpt lat="45.00511" lon="6.07041">
        <ele>797.8</ele>
        <time>2026-08-25T07:40:17Z</time>
      </trkpt>
      <trkpt lat="45.00509" lon="6.07043">
        <ele>798</ele>
        <time>2026-08-25T07:40:18Z</time>
      </trkpt>
      <trkpt lat="45.00507" lon="6.07045">
        <ele>798.2</ele>
        <time>2026-08-25T07:40:19Z</time>
      </trkpt>
      <trkpt lat="45.00504" lon="6.07047">
        <ele>798.4</ele>
        <time>2026-08-25T07:40:20Z</time>
      </trkpt>
      <trkpt lat="45.00502" lon="6.07049">
        <ele>798.7</ele>
        <time>2026-08-25T07:40:21Z</time>
      </trkpt>
      <trkpt lat="45.00499" lon="6.0705">
        <ele>798.9</ele>
        <time>2026-08-25T07:40:22Z</time>
      </trkpt>
      <trkpt lat="45.00497" lon="6.07052">
        <ele>799.1</ele>
        <time>2026-08-25T07:40:23Z</time>
      </trkpt>
      <trkpt lat="45.00495" lon="6.07054">
        <ele>799.3</ele>
        <time>2026-08-25T07:40:24Z</time>
      </trkpt>
      <trkpt lat="45.00492" lon="6.07056">
        <ele>799.5</ele>
        <time>2026-08-25T07:40:25Z</time>
      </trkpt>
      <trkpt lat="45.0049" lon="6.07057">
        <ele>799.7</ele>
        <time>2026-08-25T07:40:26Z</time>
      </trkpt>
      <trkpt lat="45.00487" lon="6.07058">
        <ele>799.9</ele>
        <time>2026-08-25T07:40:27Z</time>
      </trkpt>
      <trkpt lat="45.00485" lon="6.07059">
        <ele>800.2</ele>
        <time>2026-08-25T07:40:28Z</time>
      </trkpt>
      <trkpt lat="45.00482" lon="6.07059">
        <ele>800.4</ele>
        <time>2026-08-25T07:40:29Z</time>
      </trkpt>
      <trkpt lat="45.0048" lon="6.07061">
        <ele>800.6</ele>
        <time>2026-08-25T07:40:30Z</time>
      </trkpt>
      <trkpt lat="45.00478" lon="6.07061">
        <ele>800.7</ele>
        <time>2026-08-25T07:40:31Z</time>
      </trkpt>
      <trkpt lat="45.00476" lon="6.07062">
        <ele>800.9</ele>
        <time>2026-08-25T07:40:32Z</time>
      </trkpt>
      <trkpt lat="45.00474" lon="6.07063">
        <ele>801.1</ele>
        <time>2026-08-25T07:40:33Z</time>
      </trkpt>
      <trkpt lat="45.00472" lon="6.07064">
        <ele>801.3</ele>
        <time>2026-08-25T07:40:34Z</time>
      </trkpt>
      <trkpt lat="45.00469" lon="6.07065">
        <ele>801.5</ele>
        <time>2026-08-25T07:40:35Z</time>
      </trkpt>
      <trkpt lat="45.00467" lon="6.07065">
        <ele>801.7</ele>
        <time>2026-08-25T07:40:36Z</time>
      </trkpt>
      <trkpt lat="45.00465" lon="6.07066">
        <ele>801.9</ele>
        <time>2026-08-25T07:40:37Z</time>
      </trkpt>
      <trkpt lat="45.00463" lon="6.07067">
        <ele>802.1</ele>
        <time>2026-08-25T07:40:38Z</time>
      </trkpt>
      <trkpt lat="45.0046" lon="6.07067">
        <ele>802.3</ele>
        <time>2026-08-25T07:40:39Z</time>
      </trkpt>
      <trkpt lat="45.00458" lon="6.07068">
        <ele>802.5</ele>
        <time>2026-08-25T07:40:40Z</time>
      </trkpt>
      <trkpt lat="45.00455" lon="6.07069">
        <ele>802.7</ele>
        <time>2026-08-25T07:40:41Z</time>
      </trkpt>
      <trkpt lat="45.00453" lon="6.07071">
        <ele>802.9</ele>
        <time>2026-08-25T07:40:42Z</time>
      </trkpt>
      <trkpt lat="45.00451" lon="6.07072">
        <ele>803.1</ele>
        <time>2026-08-25T07:40:43Z</time>
      </trkpt>
      <trkpt lat="45.00449" lon="6.07073">
        <ele>803.3</ele>
        <time>2026-08-25T07:40:44Z</time>
      </trkpt>
      <trkpt lat="45.00446" lon="6.07074">
        <ele>803.5</ele>
        <time>2026-08-25T07:40:45Z</time>
      </trkpt>
      <trkpt lat="45.00444" lon="6.07075">
        <ele>803.7</ele>
        <time>2026-08-25T07:40:46Z</time>
      </trkpt>
      <trkpt lat="45.00441" lon="6.07076">
        <ele>803.9</ele>
        <time>2026-08-25T07:40:47Z</time>
      </trkpt>
      <trkpt lat="45.00439" lon="6.07077">
        <ele>804.1</ele>
        <time>2026-08-25T07:40:48Z</time>
      </trkpt>
      <trkpt lat="45.00437" lon="6.07078">
        <ele>804.3</ele>
        <time>2026-08-25T07:40:49Z</time>
      </trkpt>
      <trkpt lat="45.00434" lon="6.0708">
        <ele>804.5</ele>
        <time>2026-08-25T07:40:50Z</time>
      </trkpt>
      <trkpt lat="45.00432" lon="6.07082">
        <ele>804.7</ele>
        <time>2026-08-25T07:40:51Z</time>
      </trkpt>
      <trkpt lat="45.00429" lon="6.07083">
        <ele>804.9</ele>
        <time>2026-08-25T07:40:52Z</time>
      </trkpt>
      <trkpt lat="45.00427" lon="6.07085">
        <ele>805.1</ele>
        <time>2026-08-25T07:40:53Z</time>
      </trkpt>
      <trkpt lat="45.00424" lon="6.07087">
        <ele>805.3</ele>
        <time>2026-08-25T07:40:54Z</time>
      </trkpt>
      <trkpt lat="45.00422" lon="6.07088">
        <ele>805.5</ele>
        <time>2026-08-25T07:40:55Z</time>
      </trkpt>
      <trkpt lat="45.0042" lon="6.0709">
        <ele>805.7</ele>
        <time>2026-08-25T07:40:56Z</time>
      </trkpt>
      <trkpt lat="45.00417" lon="6.07091">
        <ele>805.9</ele>
        <time>2026-08-25T07:40:57Z</time>
      </trkpt>
      <trkpt lat="45.00415" lon="6.07093">
        <ele>806.1</ele>
        <time>2026-08-25T07:40:58Z</time>
      </trkpt>
      <trkpt lat="45.00413" lon="6.07095">
        <ele>806.4</ele>
        <time>2026-08-25T07:40:59Z</time>
      </trkpt>
      <trkpt lat="45.0041" lon="6.07097">
        <ele>806.6</ele>
        <time>2026-08-25T07:41:00Z</time>
      </trkpt>
      <trkpt lat="45.00408" lon="6.07099">
        <ele>806.8</ele>
        <time>2026-08-25T07:41:01Z</time>
      </trkpt>
      <trkpt lat="45.00406" lon="6.07101">
        <ele>807</ele>
        <time>2026-08-25T07:41:02Z</time>
      </trkpt>
      <trkpt lat="45.00404" lon="6.07103">
        <ele>807.2</ele>
        <time>2026-08-25T07:41:03Z</time>
      </trkpt>
      <trkpt lat="45.00403" lon="6.07105">
        <ele>807.4</ele>
        <time>2026-08-25T07:41:04Z</time>
      </trkpt>
      <trkpt lat="45.00401" lon="6.07107">
        <ele>807.6</ele>
        <time>2026-08-25T07:41:05Z</time>
      </trkpt>
      <trkpt lat="45.00399" lon="6.07109">
        <ele>807.8</ele>
        <time>2026-08-25T07:41:06Z</time>
      </trkpt>
      <trkpt lat="45.00397" lon="6.07111">
        <ele>808</ele>
        <time>2026-08-25T07:41:07Z</time>
      </trkpt>
      <trkpt lat="45.00395" lon="6.07114">
        <ele>808.2</ele>
        <time>2026-08-25T07:41:08Z</time>
      </trkpt>
      <trkpt lat="45.00394" lon="6.07116">
        <ele>808.4</ele>
        <time>2026-08-25T07:41:09Z</time>
      </trkpt>
      <trkpt lat="45.00392" lon="6.07119">
        <ele>808.6</ele>
        <time>2026-08-25T07:41:10Z</time>
      </trkpt>
      <trkpt lat="45.0039" lon="6.07121">
        <ele>808.7</ele>
        <time>2026-08-25T07:41:11Z</time>
      </trkpt>
      <trkpt lat="45.00388" lon="6.07123">
        <ele>808.9</ele>
        <time>2026-08-25T07:41:12Z</time>
      </trkpt>
      <trkpt lat="45.00386" lon="6.07125">
        <ele>809.1</ele>
        <time>2026-08-25T07:41:13Z</time>
      </trkpt>
      <trkpt lat="45.00384" lon="6.07128">
        <ele>809.3</ele>
        <time>2026-08-25T07:41:14Z</time>
      </trkpt>
      <trkpt lat="45.00382" lon="6.0713">
        <ele>809.5</ele>
        <time>2026-08-25T07:41:15Z</time>
      </trkpt>
      <trkpt lat="45.0038" lon="6.07132">
        <ele>809.7</ele>
        <time>2026-08-25T07:41:16Z</time>
      </trkpt>
      <trkpt lat="45.00377" lon="6.07134">
        <ele>809.9</ele>
        <time>2026-08-25T07:41:17Z</time>
      </trkpt>
      <trkpt lat="45.00375" lon="6.07136">
        <ele>810.1</ele>
        <time>2026-08-25T07:41:18Z</time>
      </trkpt>
      <trkpt lat="45.00373" lon="6.07138">
        <ele>810.3</ele>
        <time>2026-08-25T07:41:19Z</time>
      </trkpt>
      <trkpt lat="45.00371" lon="6.0714">
        <ele>810.4</ele>
        <time>2026-08-25T07:41:20Z</time>
      </trkpt>
      <trkpt lat="45.00368" lon="6.07142">
        <ele>810.6</ele>
        <time>2026-08-25T07:41:21Z</time>
      </trkpt>
      <trkpt lat="45.00366" lon="6.07143">
        <ele>810.8</ele>
        <time>2026-08-25T07:41:22Z</time>
      </trkpt>
      <trkpt lat="45.00363" lon="6.07145">
        <ele>811</ele>
        <time>2026-08-25T07:41:23Z</time>
      </trkpt>
      <trkpt lat="45.00361" lon="6.07146">
        <ele>811.2</ele>
        <time>2026-08-25T07:41:24Z</time>
      </trkpt>
      <trkpt lat="45.00358" lon="6.07148">
        <ele>811.4</ele>
        <time>2026-08-25T07:41:25Z</time>
      </trkpt>
      <trkpt lat="45.00355" lon="6.07149">
        <ele>811.5</ele>
        <time>2026-08-25T07:41:26Z</time>
      </trkpt>
      <trkpt lat="45.00353" lon="6.07149">
        <ele>811.7</ele>
        <time>2026-08-25T07:41:27Z</time>
      </trkpt>
      <trkpt lat="45.0035" lon="6.0715">
        <ele>811.9</ele>
        <time>2026-08-25T07:41:28Z</time>
      </trkpt>
      <trkpt lat="45.00347" lon="6.07151">
        <ele>812.1</ele>
        <time>2026-08-25T07:41:29Z</time>
      </trkpt>
      <trkpt lat="45.00344" lon="6.07152">
        <ele>812.3</ele>
        <time>2026-08-25T07:41:30Z</time>
      </trkpt>
      <trkpt lat="45.00342" lon="6.07152">
        <ele>812.5</ele>
        <time>2026-08-25T07:41:31Z</time>
      </trkpt>
      <trkpt lat="45.00339" lon="6.07153">
        <ele>812.6</ele>
        <time>2026-08-25T07:41:32Z</time>
      </trkpt>
      <trkpt lat="45.00337" lon="6.07153">
        <ele>812.8</ele>
        <time>2026-08-25T07:41:33Z</time>
      </trkpt>
      <trkpt lat="45.00334" lon="6.07154">
        <ele>813</ele>
        <time>2026-08-25T07:41:34Z</time>
      </trkpt>
      <trkpt lat="45.00331" lon="6.07154">
        <ele>813.2</ele>
        <time>2026-08-25T07:41:35Z</time>
      </trkpt>
      <trkpt lat="45.00329" lon="6.07155">
        <ele>813.4</ele>
        <time>2026-08-25T07:41:36Z</time>
      </trkpt>
      <trkpt lat="45.00326" lon="6.07156">
        <ele>813.6</ele>
        <time>2026-08-25T07:41:37Z</time>
      </trkpt>
      <trkpt lat="45.00323" lon="6.07156">
        <ele>813.8</ele>
        <time>2026-08-25T07:41:38Z</time>
      </trkpt>
      <trkpt lat="45.00321" lon="6.07157">
        <ele>814</ele>
        <time>2026-08-25T07:41:39Z</time>
      </trkpt>
      <trkpt lat="45.00319" lon="6.07158">
        <ele>814.1</ele>
        <time>2026-08-25T07:41:40Z</time>
      </trkpt>
      <trkpt lat="45.00317" lon="6.07158">
        <ele>814.3</ele>
        <time>2026-08-25T07:41:41Z</time>
      </trkpt>
      <trkpt lat="45.00314" lon="6.07158">
        <ele>814.6</ele>
        <time>2026-08-25T07:41:42Z</time>
      </trkpt>
      <trkpt lat="45.00312" lon="6.07159">
        <ele>814.8</ele>
        <time>2026-08-25T07:41:43Z</time>
      </trkpt>
      <trkpt lat="45.00309" lon="6.0716">
        <ele>815</ele>
        <time>2026-08-25T07:41:44Z</time>
      </trkpt>
      <trkpt lat="45.00307" lon="6.0716">
        <ele>815.2</ele>
        <time>2026-08-25T07:41:45Z</time>
      </trkpt>
      <trkpt lat="45.00304" lon="6.0716">
        <ele>815.4</ele>
        <time>2026-08-25T07:41:46Z</time>
      </trkpt>
      <trkpt lat="45.00302" lon="6.07161">
        <ele>815.6</ele>
        <time>2026-08-25T07:41:47Z</time>
      </trkpt>
      <trkpt lat="45.003" lon="6.07161">
        <ele>815.8</ele>
        <time>2026-08-25T07:41:48Z</time>
      </trkpt>
      <trkpt lat="45.00297" lon="6.07162">
        <ele>816</ele>
        <time>2026-08-25T07:41:49Z</time>
      </trkpt>
      <trkpt lat="45.00295" lon="6.07163">
        <ele>816.2</ele>
        <time>2026-08-25T07:41:50Z</time>
      </trkpt>
      <trkpt lat="45.00292" lon="6.07163">
        <ele>816.4</ele>
        <time>2026-08-25T07:41:51Z</time>
      </trkpt>
      <trkpt lat="45.0029" lon="6.07164">
        <ele>816.6</ele>
        <time>2026-08-25T07:41:52Z</time>
      </trkpt>
      <trkpt lat="45.00287" lon="6.07165">
        <ele>816.8</ele>
        <time>2026-08-25T07:41:53Z</time>
      </trkpt>
      <trkpt lat="45.00285" lon="6.07165">
        <ele>817</ele>
        <time>2026-08-25T07:41:54Z</time>
      </trkpt>
      <trkpt lat="45.00283" lon="6.07166">
        <ele>817.2</ele>
        <time>2026-08-25T07:41:55Z</time>
      </trkpt>
      <trkpt lat="45.0028" lon="6.07167">
        <ele>817.4</ele>
        <time>2026-08-25T07:41:56Z</time>
      </trkpt>
      <trkpt lat="45.00278" lon="6.07167">
        <ele>817.5</ele>
        <time>2026-08-25T07:41:57Z</time>
      </trkpt>
      <trkpt lat="45.00276" lon="6.07167">
        <ele>817.7</ele>
        <time>2026-08-25T07:41:58Z</time>
      </trkpt>
      <trkpt lat="45.00273" lon="6.07168">
        <ele>817.9</ele>
        <time>2026-08-25T07:41:59Z</time>
      </trkpt>
      <trkpt lat="45.00271" lon="6.07168">
        <ele>818.1</ele>
        <time>2026-08-25T07:42:00Z</time>
      </trkpt>
      <trkpt lat="45.00268" lon="6.07169">
        <ele>818.3</ele>
        <time>2026-08-25T07:42:01Z</time>
      </trkpt>
      <trkpt lat="45.00266" lon="6.07169">
        <ele>818.5</ele>
        <time>2026-08-25T07:42:02Z</time>
      </trkpt>
      <trkpt lat="45.00263" lon="6.0717">
        <ele>818.7</ele>
        <time>2026-08-25T07:42:03Z</time>
      </trkpt>
      <trkpt lat="45.00261" lon="6.07171">
        <ele>818.9</ele>
        <time>2026-08-25T07:42:04Z</time>
      </trkpt>
      <trkpt lat="45.00258" lon="6.07171">
        <ele>819.1</ele>
        <time>2026-08-25T07:42:05Z</time>
      </trkpt>
      <trkpt lat="45.00256" lon="6.07172">
        <ele>819.3</ele>
        <time>2026-08-25T07:42:06Z</time>
      </trkpt>
      <trkpt lat="45.00254" lon="6.07172">
        <ele>819.5</ele>
        <time>2026-08-25T07:42:07Z</time>
      </trkpt>
      <trkpt lat="45.00252" lon="6.07172">
        <ele>819.7</ele>
        <time>2026-08-25T07:42:08Z</time>
      </trkpt>
      <trkpt lat="45.0025" lon="6.07173">
        <ele>819.9</ele>
        <time>2026-08-25T07:42:09Z</time>
      </trkpt>
      <trkpt lat="45.00247" lon="6.07174">
        <ele>820.1</ele>
        <time>2026-08-25T07:42:10Z</time>
      </trkpt>
      <trkpt lat="45.00245" lon="6.07175">
        <ele>820.3</ele>
        <time>2026-08-25T07:42:11Z</time>
      </trkpt>
      <trkpt lat="45.00243" lon="6.07175">
        <ele>820.5</ele>
        <time>2026-08-25T07:42:12Z</time>
      </trkpt>
      <trkpt lat="45.0024" lon="6.07176">
        <ele>820.7</ele>
        <time>2026-08-25T07:42:13Z</time>
      </trkpt>
      <trkpt lat="45.00238" lon="6.07177">
        <ele>820.9</ele>
        <time>2026-08-25T07:42:14Z</time>
      </trkpt>
      <trkpt lat="45.00236" lon="6.07178">
        <ele>821.1</ele>
        <time>2026-08-25T07:42:15Z</time>
      </trkpt>
      <trkpt lat="45.00233" lon="6.07178">
        <ele>821.3</ele>
        <time>2026-08-25T07:42:16Z</time>
      </trkpt>
      <trkpt lat="45.0023" lon="6.0718">
        <ele>821.5</ele>
        <time>2026-08-25T07:42:17Z</time>
      </trkpt>
      <trkpt lat="45.00228" lon="6.0718">
        <ele>821.8</ele>
        <time>2026-08-25T07:42:18Z</time>
      </trkpt>
      <trkpt lat="45.00225" lon="6.07181">
        <ele>822</ele>
        <time>2026-08-25T07:42:19Z</time>
      </trkpt>
      <trkpt lat="45.00223" lon="6.07182">
        <ele>822.2</ele>
        <time>2026-08-25T07:42:20Z</time>
      </trkpt>
      <trkpt lat="45.00221" lon="6.07183">
        <ele>822.4</ele>
        <time>2026-08-25T07:42:21Z</time>
      </trkpt>
      <trkpt lat="45.00218" lon="6.07184">
        <ele>822.6</ele>
        <time>2026-08-25T07:42:22Z</time>
      </trkpt>
      <trkpt lat="45.00216" lon="6.07185">
        <ele>822.8</ele>
        <time>2026-08-25T07:42:23Z</time>
      </trkpt>
      <trkpt lat="45.00213" lon="6.07186">
        <ele>823</ele>
        <time>2026-08-25T07:42:24Z</time>
      </trkpt>
      <trkpt lat="45.00211" lon="6.07187">
        <ele>823.2</ele>
        <time>2026-08-25T07:42:25Z</time>
      </trkpt>
      <trkpt lat="45.00209" lon="6.07188">
        <ele>823.4</ele>
        <time>2026-08-25T07:42:26Z</time>
      </trkpt>
      <trkpt lat="45.00206" lon="6.07189">
        <ele>823.6</ele>
        <time>2026-08-25T07:42:27Z</time>
      </trkpt>
      <trkpt lat="45.00204" lon="6.0719">
        <ele>823.7</ele>
        <time>2026-08-25T07:42:28Z</time>
      </trkpt>
      <trkpt lat="45.00202" lon="6.0719">
        <ele>824</ele>
        <time>2026-08-25T07:42:29Z</time>
      </trkpt>
      <trkpt lat="45.00199" lon="6.0719">
        <ele>824.2</ele>
        <time>2026-08-25T07:42:30Z</time>
      </trkpt>
      <trkpt lat="45.00197" lon="6.07191">
        <ele>824.4</ele>
        <time>2026-08-25T07:42:31Z</time>
      </trkpt>
      <trkpt lat="45.00195" lon="6.07192">
        <ele>824.6</ele>
        <time>2026-08-25T07:42:32Z</time>
      </trkpt>
      <trkpt lat="45.00193" lon="6.07192">
        <ele>824.8</ele>
        <time>2026-08-25T07:42:33Z</time>
      </trkpt>
      <trkpt lat="45.0019" lon="6.07193">
        <ele>825</ele>
        <time>2026-08-25T07:42:34Z</time>
      </trkpt>
      <trkpt lat="45.00188" lon="6.07194">
        <ele>825.2</ele>
        <time>2026-08-25T07:42:35Z</time>
      </trkpt>
      <trkpt lat="45.00186" lon="6.07194">
        <ele>825.4</ele>
        <time>2026-08-25T07:42:36Z</time>
      </trkpt>
      <trkpt lat="45.00183" lon="6.07195">
        <ele>825.6</ele>
        <time>2026-08-25T07:42:37Z</time>
      </trkpt>
      <trkpt lat="45.00181" lon="6.07196">
        <ele>825.8</ele>
        <time>2026-08-25T07:42:38Z</time>
      </trkpt>
      <trkpt lat="45.00178" lon="6.07197">
        <ele>826</ele>
        <time>2026-08-25T07:42:39Z</time>
      </trkpt>
      <trkpt lat="45.00176" lon="6.07199">
        <ele>826.2</ele>
        <time>2026-08-25T07:42:40Z</time>
      </trkpt>
      <trkpt lat="45.00173" lon="6.072">
        <ele>826.5</ele>
        <time>2026-08-25T07:42:41Z</time>
      </trkpt>
      <trkpt lat="45.0017" lon="6.07201">
        <ele>826.7</ele>
        <time>2026-08-25T07:42:42Z</time>
      </trkpt>
      <trkpt lat="45.00168" lon="6.07201">
        <ele>826.9</ele>
        <time>2026-08-25T07:42:43Z</time>
      </trkpt>
      <trkpt lat="45.00166" lon="6.07202">
        <ele>827.1</ele>
        <time>2026-08-25T07:42:44Z</time>
      </trkpt>
      <trkpt lat="45.00164" lon="6.07202">
        <ele>827.3</ele>
        <time>2026-08-25T07:42:45Z</time>
      </trkpt>
      <trkpt lat="45.00162" lon="6.07201">
        <ele>827.5</ele>
        <time>2026-08-25T07:42:46Z</time>
      </trkpt>
      <trkpt lat="45.0016" lon="6.07201">
        <ele>827.7</ele>
        <time>2026-08-25T07:42:47Z</time>
      </trkpt>
      <trkpt lat="45.00157" lon="6.07201">
        <ele>827.9</ele>
        <time>2026-08-25T07:42:48Z</time>
      </trkpt>
      <trkpt lat="45.00155" lon="6.07201">
        <ele>828.1</ele>
        <time>2026-08-25T07:42:49Z</time>
      </trkpt>
      <trkpt lat="45.00153" lon="6.07201">
        <ele>828.2</ele>
        <time>2026-08-25T07:42:50Z</time>
      </trkpt>
      <trkpt lat="45.00151" lon="6.07201">
        <ele>828.4</ele>
        <time>2026-08-25T07:42:51Z</time>
      </trkpt>
      <trkpt lat="45.00148" lon="6.072">
        <ele>828.7</ele>
        <time>2026-08-25T07:42:52Z</time>
      </trkpt>
      <trkpt lat="45.00145" lon="6.07201">
        <ele>828.9</ele>
        <time>2026-08-25T07:42:53Z</time>
      </trkpt>
      <trkpt lat="45.00143" lon="6.07201">
        <ele>829.2</ele>
        <time>2026-08-25T07:42:54Z</time>
      </trkpt>
      <trkpt lat="45.0014" lon="6.07201">
        <ele>829.5</ele>
        <time>2026-08-25T07:42:55Z</time>
      </trkpt>
      <trkpt lat="45.00138" lon="6.07201">
        <ele>829.7</ele>
        <time>2026-08-25T07:42:56Z</time>
      </trkpt>
      <trkpt lat="45.00135" lon="6.072">
        <ele>829.9</ele>
        <time>2026-08-25T07:42:57Z</time>
      </trkpt>
      <trkpt lat="45.00133" lon="6.072">
        <ele>830.2</ele>
        <time>2026-08-25T07:42:58Z</time>
      </trkpt>
      <trkpt lat="45.00131" lon="6.072">
        <ele>830.4</ele>
        <time>2026-08-25T07:42:59Z</time>
      </trkpt>
      <trkpt lat="45.00129" lon="6.072">
        <ele>830.6</ele>
        <time>2026-08-25T07:43:00Z</time>
      </trkpt>
      <trkpt lat="45.00127" lon="6.07199">
        <ele>830.8</ele>
        <time>2026-08-25T07:43:01Z</time>
      </trkpt>
      <trkpt lat="45.00124" lon="6.07199">
        <ele>831</ele>
        <time>2026-08-25T07:43:02Z</time>
      </trkpt>
      <trkpt lat="45.00122" lon="6.07199">
        <ele>831.2</ele>
        <time>2026-08-25T07:43:03Z</time>
      </trkpt>
      <trkpt lat="45.00119" lon="6.07199">
        <ele>831.5</ele>
        <time>2026-08-25T07:43:04Z</time>
      </trkpt>
      <trkpt lat="45.00116" lon="6.07199">
        <ele>831.7</ele>
        <time>2026-08-25T07:43:05Z</time>
      </trkpt>
      <trkpt lat="45.00114" lon="6.072">
        <ele>832</ele>
        <time>2026-08-25T07:43:06Z</time>
      </trkpt>
      <trkpt lat="45.00111" lon="6.072">
        <ele>832.2</ele>
        <time>2026-08-25T07:43:07Z</time>
      </trkpt>
      <trkpt lat="45.00109" lon="6.072">
        <ele>832.4</ele>
        <time>2026-08-25T07:43:08Z</time>
      </trkpt>
      <trkpt lat="45.00106" lon="6.072">
        <ele>832.6</ele>
        <time>2026-08-25T07:43:09Z</time>
      </trkpt>
      <trkpt lat="45.00104" lon="6.07201">
        <ele>832.8</ele>
        <time>2026-08-25T07:43:10Z</time>
      </trkpt>
      <trkpt lat="45.00101" lon="6.07201">
        <ele>833</ele>
        <time>2026-08-25T07:43:11Z</time>
      </trkpt>
      <trkpt lat="45.00099" lon="6.07201">
        <ele>833.2</ele>
        <time>2026-08-25T07:43:12Z</time>
      </trkpt>
      <trkpt lat="45.00096" lon="6.07202">
        <ele>833.4</ele>
        <time>2026-08-25T07:43:13Z</time>
      </trkpt>
      <trkpt lat="45.00093" lon="6.07202">
        <ele>833.6</ele>
        <time>2026-08-25T07:43:14Z</time>
      </trkpt>
      <trkpt lat="45.00091" lon="6.07202">
        <ele>833.8</ele>
        <time>2026-08-25T07:43:15Z</time>
      </trkpt>
      <trkpt lat="45.00089" lon="6.07202">
        <ele>833.9</ele>
        <time>2026-08-25T07:43:16Z</time>
      </trkpt>
      <trkpt lat="45.00087" lon="6.07203">
        <ele>834.1</ele>
        <time>2026-08-25T07:43:17Z</time>
      </trkpt>
      <trkpt lat="45.00084" lon="6.07203">
        <ele>834.3</ele>
        <time>2026-08-25T07:43:18Z</time>
      </trkpt>
      <trkpt lat="45.00082" lon="6.07203">
        <ele>834.5</ele>
        <time>2026-08-25T07:43:19Z</time>
      </trkpt>
      <trkpt lat="45.0008" lon="6.07204">
        <ele>834.6</ele>
        <time>2026-08-25T07:43:20Z</time>
      </trkpt>
      <trkpt lat="45.00077" lon="6.07204">
        <ele>834.8</ele>
        <time>2026-08-25T07:43:21Z</time>
      </trkpt>
      <trkpt lat="45.00075" lon="6.07204">
        <ele>835</ele>
        <time>2026-08-25T07:43:22Z</time>
      </trkpt>
      <trkpt lat="45.00073" lon="6.07204">
        <ele>835.2</ele>
        <time>2026-08-25T07:43:23Z</time>
      </trkpt>
      <trkpt lat="45.0007" lon="6.07204">
        <ele>835.3</ele>
        <time>2026-08-25T07:43:24Z</time>
      </trkpt>
      <trkpt lat="45.00068" lon="6.07205">
        <ele>835.5</ele>
        <time>2026-08-25T07:43:25Z</time>
      </trkpt>
      <trkpt lat="45.00066" lon="6.07205">
        <ele>835.6</ele>
        <time>2026-08-25T07:43:26Z</time>
      </trkpt>
      <trkpt lat="45.00064" lon="6.07204">
        <ele>835.8</ele>
        <time>2026-08-25T07:43:27Z</time>
      </trkpt>
      <trkpt lat="45.00062" lon="6.07204">
        <ele>835.9</ele>
        <time>2026-08-25T07:43:28Z</time>
      </trkpt>
      <trkpt lat="45.0006" lon="6.07204">
        <ele>836.1</ele>
        <time>2026-08-25T07:43:29Z</time>
      </trkpt>
      <trkpt lat="45.00058" lon="6.07204">
        <ele>836.2</ele>
        <time>2026-08-25T07:43:30Z</time>
      </trkpt>
      <trkpt lat="45.00056" lon="6.07205">
        <ele>836.4</ele>
        <time>2026-08-25T07:43:31Z</time>
      </trkpt>
      <trkpt lat="45.00053" lon="6.07206">
        <ele>836.6</ele>
        <time>2026-08-25T07:43:32Z</time>
      </trkpt>
      <trkpt lat="45.0005" lon="6.07207">
        <ele>836.8</ele>
        <time>2026-08-25T07:43:33Z</time>
      </trkpt>
      <trkpt lat="45.00047" lon="6.07209">
        <ele>837.1</ele>
        <time>2026-08-25T07:43:34Z</time>
      </trkpt>
      <trkpt lat="45.00045" lon="6.0721">
        <ele>837.2</ele>
        <time>2026-08-25T07:43:35Z</time>
      </trkpt>
      <trkpt lat="45.00043" lon="6.07211">
        <ele>837.4</ele>
        <time>2026-08-25T07:43:36Z</time>
      </trkpt>
      <trkpt lat="45.0004" lon="6.07212">
        <ele>837.6</ele>
        <time>2026-08-25T07:43:37Z</time>
      </trkpt>
      <trkpt lat="45.00037" lon="6.07213">
        <ele>837.8</ele>
        <time>2026-08-25T07:43:38Z</time>
      </trkpt>
      <trkpt lat="45.00035" lon="6.07215">
        <ele>838</ele>
        <time>2026-08-25T07:43:39Z</time>
      </trkpt>
      <trkpt lat="45.00032" lon="6.07216">
        <ele>838.2</ele>
        <time>2026-08-25T07:43:40Z</time>
      </trkpt>
      <trkpt lat="45.0003" lon="6.07217">
        <ele>838.4</ele>
        <time>2026-08-25T07:43:41Z</time>
      </trkpt>
      <trkpt lat="45.00028" lon="6.07218">
        <ele>838.5</ele>
        <time>2026-08-25T07:43:42Z</time>
      </trkpt>
      <trkpt lat="45.00026" lon="6.07219">
        <ele>838.7</ele>
        <time>2026-08-25T07:43:43Z</time>
      </trkpt>
      <trkpt lat="45.00023" lon="6.07221">
        <ele>838.9</ele>
        <time>2026-08-25T07:43:44Z</time>
      </trkpt>
      <trkpt lat="45.00021" lon="6.07222">
        <ele>839.1</ele>
        <time>2026-08-25T07:43:45Z</time>
      </trkpt>
      <trkpt lat="45.00019" lon="6.07222">
        <ele>839.3</ele>
        <time>2026-08-25T07:43:46Z</time>
      </trkpt>
      <trkpt lat="45.00017" lon="6.07223">
        <ele>839.4</ele>
        <time>2026-08-25T07:43:47Z</time>
      </trkpt>
      <trkpt lat="45.00015" lon="6.07224">
        <ele>839.6</ele>
        <time>2026-08-25T07:43:48Z</time>
      </trkpt>
      <trkpt lat="45.00013" lon="6.07224">
        <ele>839.7</ele>
        <time>2026-08-25T07:43:49Z</time>
      </trkpt>
      <trkpt lat="45.00011" lon="6.07225">
        <ele>839.9</ele>
        <time>2026-08-25T07:43:50Z</time>
      </trkpt>
      <trkpt lat="45.00009" lon="6.07226">
        <ele>840</ele>
        <time>2026-08-25T07:43:51Z</time>
      </trkpt>
      <trkpt lat="45.00007" lon="6.07227">
        <ele>840.2</ele>
        <time>2026-08-25T07:43:52Z</time>
      </trkpt>
      <trkpt lat="45.00004" lon="6.07228">
        <ele>840.4</ele>
        <time>2026-08-25T07:43:53Z</time>
      </trkpt>
      <trkpt lat="45.00002" lon="6.0723">
        <ele>840.6</ele>
        <time>2026-08-25T07:43:54Z</time>
      </trkpt>
      <trkpt lat="44.99999" lon="6.07231">
        <ele>840.9</ele>
        <time>2026-08-25T07:43:55Z</time>
      </trkpt>
      <trkpt lat="44.99996" lon="6.07232">
        <ele>841.1</ele>
        <time>2026-08-25T07:43:56Z</time>
      </trkpt>
      <trkpt lat="44.99993" lon="6.07233">
        <ele>841.3</ele>
        <time>2026-08-25T07:43:57Z</time>
      </trkpt>
      <trkpt lat="44.99991" lon="6.07234">
        <ele>841.5</ele>
        <time>2026-08-25T07:43:58Z</time>
      </trkpt>
      <trkpt lat="44.99988" lon="6.07235">
        <ele>841.7</ele>
        <time>2026-08-25T07:43:59Z</time>
      </trkpt>
      <trkpt lat="44.99986" lon="6.07236">
        <ele>841.9</ele>
        <time>2026-08-25T07:44:00Z</time>
      </trkpt>
      <trkpt lat="44.99984" lon="6.07237">
        <ele>842.1</ele>
        <time>2026-08-25T07:44:01Z</time>
      </trkpt>
      <trkpt lat="44.99981" lon="6.07238">
        <ele>842.2</ele>
        <time>2026-08-25T07:44:02Z</time>
      </trkpt>
      <trkpt lat="44.99979" lon="6.0724">
        <ele>842.4</ele>
        <time>2026-08-25T07:44:03Z</time>
      </trkpt>
      <trkpt lat="44.99977" lon="6.07241">
        <ele>842.6</ele>
        <time>2026-08-25T07:44:04Z</time>
      </trkpt>
      <trkpt lat="44.99974" lon="6.07241">
        <ele>842.8</ele>
        <time>2026-08-25T07:44:05Z</time>
      </trkpt>
      <trkpt lat="44.99971" lon="6.07243">
        <ele>843</ele>
        <time>2026-08-25T07:44:06Z</time>
      </trkpt>
      <trkpt lat="44.99969" lon="6.07244">
        <ele>843.3</ele>
        <time>2026-08-25T07:44:07Z</time>
      </trkpt>
      <trkpt lat="44.99966" lon="6.07244">
        <ele>843.5</ele>
        <time>2026-08-25T07:44:08Z</time>
      </trkpt>
      <trkpt lat="44.99963" lon="6.07244">
        <ele>843.7</ele>
        <time>2026-08-25T07:44:09Z</time>
      </trkpt>
      <trkpt lat="44.99961" lon="6.07245">
        <ele>843.9</ele>
        <time>2026-08-25T07:44:10Z</time>
      </trkpt>
      <trkpt lat="44.99958" lon="6.07245">
        <ele>844.1</ele>
        <time>2026-08-25T07:44:11Z</time>
      </trkpt>
      <trkpt lat="44.99956" lon="6.07244">
        <ele>844.3</ele>
        <time>2026-08-25T07:44:12Z</time>
      </trkpt>
      <trkpt lat="44.99954" lon="6.07244">
        <ele>844.5</ele>
        <time>2026-08-25T07:44:13Z</time>
      </trkpt>
      <trkpt lat="44.99951" lon="6.07244">
        <ele>844.7</ele>
        <time>2026-08-25T07:44:14Z</time>
      </trkpt>
      <trkpt lat="44.99949" lon="6.07244">
        <ele>844.9</ele>
        <time>2026-08-25T07:44:15Z</time>
      </trkpt>
      <trkpt lat="44.99947" lon="6.07243">
        <ele>845.1</ele>
        <time>2026-08-25T07:44:16Z</time>
      </trkpt>
      <trkpt lat="44.99944" lon="6.07242">
        <ele>845.3</ele>
        <time>2026-08-25T07:44:17Z</time>
      </trkpt>
      <trkpt lat="44.99941" lon="6.07242">
        <ele>845.5</ele>
        <time>2026-08-25T07:44:18Z</time>
      </trkpt>
      <trkpt lat="44.99939" lon="6.07242">
        <ele>845.8</ele>
        <time>2026-08-25T07:44:19Z</time>
      </trkpt>
      <trkpt lat="44.99936" lon="6.07241">
        <ele>846</ele>
        <time>2026-08-25T07:44:20Z</time>
      </trkpt>
      <trkpt lat="44.99934" lon="6.07242">
        <ele>846.2</ele>
        <time>2026-08-25T07:44:21Z</time>
      </trkpt>
      <trkpt lat="44.99931" lon="6.07242">
        <ele>846.4</ele>
        <time>2026-08-25T07:44:22Z</time>
      </trkpt>
      <trkpt lat="44.99929" lon="6.07243">
        <ele>846.6</ele>
        <time>2026-08-25T07:44:23Z</time>
      </trkpt>
      <trkpt lat="44.99926" lon="6.07243">
        <ele>846.8</ele>
        <time>2026-08-25T07:44:24Z</time>
      </trkpt>
      <trkpt lat="44.99924" lon="6.07244">
        <ele>847</ele>
        <time>2026-08-25T07:44:25Z</time>
      </trkpt>
      <trkpt lat="44.99921" lon="6.07245">
        <ele>847.2</ele>
        <time>2026-08-25T07:44:26Z</time>
      </trkpt>
      <trkpt lat="44.99919" lon="6.07246">
        <ele>847.4</ele>
        <time>2026-08-25T07:44:27Z</time>
      </trkpt>
      <trkpt lat="44.99916" lon="6.07247">
        <ele>847.6</ele>
        <time>2026-08-25T07:44:28Z</time>
      </trkpt>
      <trkpt lat="44.99914" lon="6.07249">
        <ele>847.8</ele>
        <time>2026-08-25T07:44:29Z</time>
      </trkpt>
      <trkpt lat="44.99911" lon="6.0725">
        <ele>848</ele>
        <time>2026-08-25T07:44:30Z</time>
      </trkpt>
      <trkpt lat="44.99908" lon="6.07251">
        <ele>848.2</ele>
        <time>2026-08-25T07:44:31Z</time>
      </trkpt>
      <trkpt lat="44.99906" lon="6.07253">
        <ele>848.4</ele>
        <time>2026-08-25T07:44:32Z</time>
      </trkpt>
      <trkpt lat="44.99904" lon="6.07254">
        <ele>848.5</ele>
        <time>2026-08-25T07:44:33Z</time>
      </trkpt>
      <trkpt lat="44.99902" lon="6.07256">
        <ele>848.7</ele>
        <time>2026-08-25T07:44:34Z</time>
      </trkpt>
      <trkpt lat="44.99899" lon="6.07258">
        <ele>848.9</ele>
        <time>2026-08-25T07:44:35Z</time>
      </trkpt>
      <trkpt lat="44.99897" lon="6.07259">
        <ele>849.1</ele>
        <time>2026-08-25T07:44:36Z</time>
      </trkpt>
      <trkpt lat="44.99895" lon="6.07261">
        <ele>849.2</ele>
        <time>2026-08-25T07:44:37Z</time>
      </trkpt>
      <trkpt lat="44.99892" lon="6.07263">
        <ele>849.4</ele>
        <time>2026-08-25T07:44:38Z</time>
      </trkpt>
      <trkpt lat="44.9989" lon="6.07265">
        <ele>849.6</ele>
        <time>2026-08-25T07:44:39Z</time>
      </trkpt>
      <trkpt lat="44.99888" lon="6.07266">
        <ele>849.7</ele>
        <time>2026-08-25T07:44:40Z</time>
      </trkpt>
      <trkpt lat="44.99885" lon="6.07268">
        <ele>849.9</ele>
        <time>2026-08-25T07:44:41Z</time>
      </trkpt>
      <trkpt lat="44.99883" lon="6.07269">
        <ele>850.1</ele>
        <time>2026-08-25T07:44:42Z</time>
      </trkpt>
      <trkpt lat="44.99881" lon="6.07271">
        <ele>850.2</ele>
        <time>2026-08-25T07:44:43Z</time>
      </trkpt>
      <trkpt lat="44.99879" lon="6.07272">
        <ele>850.4</ele>
        <time>2026-08-25T07:44:44Z</time>
      </trkpt>
      <trkpt lat="44.99877" lon="6.07274">
        <ele>850.6</ele>
        <time>2026-08-25T07:44:45Z</time>
      </trkpt>
      <trkpt lat="44.99875" lon="6.07275">
        <ele>850.7</ele>
        <time>2026-08-25T07:44:46Z</time>
      </trkpt>
      <trkpt lat="44.99873" lon="6.07276">
        <ele>850.9</ele>
        <time>2026-08-25T07:44:47Z</time>
      </trkpt>
      <trkpt lat="44.9987" lon="6.07278">
        <ele>851.1</ele>
        <time>2026-08-25T07:44:48Z</time>
      </trkpt>
      <trkpt lat="44.99868" lon="6.0728">
        <ele>851.3</ele>
        <time>2026-08-25T07:44:49Z</time>
      </trkpt>
      <trkpt lat="44.99866" lon="6.07281">
        <ele>851.5</ele>
        <time>2026-08-25T07:44:50Z</time>
      </trkpt>
      <trkpt lat="44.99864" lon="6.07282">
        <ele>851.6</ele>
        <time>2026-08-25T07:44:51Z</time>
      </trkpt>
      <trkpt lat="44.99862" lon="6.07284">
        <ele>851.8</ele>
        <time>2026-08-25T07:44:52Z</time>
      </trkpt>
      <trkpt lat="44.99859" lon="6.07286">
        <ele>852</ele>
        <time>2026-08-25T07:44:53Z</time>
      </trkpt>
      <trkpt lat="44.99857" lon="6.07287">
        <ele>852.2</ele>
        <time>2026-08-25T07:44:54Z</time>
      </trkpt>
      <trkpt lat="44.99855" lon="6.07289">
        <ele>852.4</ele>
        <time>2026-08-25T07:44:55Z</time>
      </trkpt>
      <trkpt lat="44.99853" lon="6.07291">
        <ele>852.6</ele>
        <time>2026-08-25T07:44:56Z</time>
      </trkpt>
      <trkpt lat="44.99851" lon="6.07293">
        <ele>852.8</ele>
        <time>2026-08-25T07:44:57Z</time>
      </trkpt>
      <trkpt lat="44.99848" lon="6.07294">
        <ele>853</ele>
        <time>2026-08-25T07:44:58Z</time>
      </trkpt>
      <trkpt lat="44.99846" lon="6.07296">
        <ele>853.2</ele>
        <time>2026-08-25T07:44:59Z</time>
      </trkpt>
      <trkpt lat="44.99844" lon="6.07298">
        <ele>853.3</ele>
        <time>2026-08-25T07:45:00Z</time>
      </trkpt>
      <trkpt lat="44.99842" lon="6.073">
        <ele>853.5</ele>
        <time>2026-08-25T07:45:01Z</time>
      </trkpt>
      <trkpt lat="44.9984" lon="6.07302">
        <ele>853.7</ele>
        <time>2026-08-25T07:45:02Z</time>
      </trkpt>
      <trkpt lat="44.99838" lon="6.07304">
        <ele>853.9</ele>
        <time>2026-08-25T07:45:03Z</time>
      </trkpt>
      <trkpt lat="44.99836" lon="6.07307">
        <ele>854.1</ele>
        <time>2026-08-25T07:45:04Z</time>
      </trkpt>
      <trkpt lat="44.99834" lon="6.07309">
        <ele>854.3</ele>
        <time>2026-08-25T07:45:05Z</time>
      </trkpt>
      <trkpt lat="44.99833" lon="6.07312">
        <ele>854.5</ele>
        <time>2026-08-25T07:45:06Z</time>
      </trkpt>
      <trkpt lat="44.99831" lon="6.07315">
        <ele>854.6</ele>
        <time>2026-08-25T07:45:07Z</time>
      </trkpt>
      <trkpt lat="44.99829" lon="6.07317">
        <ele>854.8</ele>
        <time>2026-08-25T07:45:08Z</time>
      </trkpt>
      <trkpt lat="44.99827" lon="6.0732">
        <ele>855</ele>
        <time>2026-08-25T07:45:09Z</time>
      </trkpt>
      <trkpt lat="44.99826" lon="6.07323">
        <ele>855.2</ele>
        <time>2026-08-25T07:45:10Z</time>
      </trkpt>
      <trkpt lat="44.99824" lon="6.07326">
        <ele>855.4</ele>
        <time>2026-08-25T07:45:11Z</time>
      </trkpt>
      <trkpt lat="44.99823" lon="6.07328">
        <ele>855.6</ele>
        <time>2026-08-25T07:45:12Z</time>
      </trkpt>
      <trkpt lat="44.99821" lon="6.07331">
        <ele>855.8</ele>
        <time>2026-08-25T07:45:13Z</time>
      </trkpt>
      <trkpt lat="44.99819" lon="6.07334">
        <ele>855.9</ele>
        <time>2026-08-25T07:45:14Z</time>
      </trkpt>
      <trkpt lat="44.99818" lon="6.07337">
        <ele>856.2</ele>
        <time>2026-08-25T07:45:15Z</time>
      </trkpt>
      <trkpt lat="44.99816" lon="6.0734">
        <ele>856.4</ele>
        <time>2026-08-25T07:45:16Z</time>
      </trkpt>
      <trkpt lat="44.99815" lon="6.07344">
        <ele>856.6</ele>
        <time>2026-08-25T07:45:17Z</time>
      </trkpt>
      <trkpt lat="44.99813" lon="6.07346">
        <ele>856.7</ele>
        <time>2026-08-25T07:45:18Z</time>
      </trkpt>
      <trkpt lat="44.99811" lon="6.07349">
        <ele>856.9</ele>
        <time>2026-08-25T07:45:19Z</time>
      </trkpt>
      <trkpt lat="44.9981" lon="6.07352">
        <ele>857.1</ele>
        <time>2026-08-25T07:45:20Z</time>
      </trkpt>
      <trkpt lat="44.99809" lon="6.07355">
        <ele>857.3</ele>
        <time>2026-08-25T07:45:21Z</time>
      </trkpt>
      <trkpt lat="44.99808" lon="6.07358">
        <ele>857.5</ele>
        <time>2026-08-25T07:45:22Z</time>
      </trkpt>
      <trkpt lat="44.99806" lon="6.07361">
        <ele>857.7</ele>
        <time>2026-08-25T07:45:23Z</time>
      </trkpt>
      <trkpt lat="44.99805" lon="6.07364">
        <ele>857.9</ele>
        <time>2026-08-25T07:45:24Z</time>
      </trkpt>
      <trkpt lat="44.99803" lon="6.07365">
        <ele>858.1</ele>
        <time>2026-08-25T07:45:25Z</time>
      </trkpt>
      <trkpt lat="44.99801" lon="6.07367">
        <ele>858.3</ele>
        <time>2026-08-25T07:45:26Z</time>
      </trkpt>
      <trkpt lat="44.99799" lon="6.07369">
        <ele>858.4</ele>
        <time>2026-08-25T07:45:27Z</time>
      </trkpt>
      <trkpt lat="44.99797" lon="6.07372">
        <ele>858.7</ele>
        <time>2026-08-25T07:45:28Z</time>
      </trkpt>
      <trkpt lat="44.99795" lon="6.07374">
        <ele>858.8</ele>
        <time>2026-08-25T07:45:29Z</time>
      </trkpt>
      <trkpt lat="44.99793" lon="6.07376">
        <ele>859</ele>
        <time>2026-08-25T07:45:30Z</time>
      </trkpt>
      <trkpt lat="44.99791" lon="6.07377">
        <ele>859.2</ele>
        <time>2026-08-25T07:45:31Z</time>
      </trkpt>
      <trkpt lat="44.99789" lon="6.07379">
        <ele>859.4</ele>
        <time>2026-08-25T07:45:32Z</time>
      </trkpt>
      <trkpt lat="44.99786" lon="6.07381">
        <ele>859.7</ele>
        <time>2026-08-25T07:45:33Z</time>
      </trkpt>
      <trkpt lat="44.99784" lon="6.07382">
        <ele>859.9</ele>
        <time>2026-08-25T07:45:34Z</time>
      </trkpt>
      <trkpt lat="44.99782" lon="6.07384">
        <ele>860</ele>
        <time>2026-08-25T07:45:35Z</time>
      </trkpt>
      <trkpt lat="44.9978" lon="6.07385">
        <ele>860.2</ele>
        <time>2026-08-25T07:45:36Z</time>
      </trkpt>
      <trkpt lat="44.99778" lon="6.07387">
        <ele>860.4</ele>
        <time>2026-08-25T07:45:37Z</time>
      </trkpt>
      <trkpt lat="44.99776" lon="6.07388">
        <ele>860.6</ele>
        <time>2026-08-25T07:45:38Z</time>
      </trkpt>
      <trkpt lat="44.99774" lon="6.0739">
        <ele>860.8</ele>
        <time>2026-08-25T07:45:39Z</time>
      </trkpt>
      <trkpt lat="44.99772" lon="6.07391">
        <ele>861</ele>
        <time>2026-08-25T07:45:40Z</time>
      </trkpt>
      <trkpt lat="44.99769" lon="6.07393">
        <ele>861.2</ele>
        <time>2026-08-25T07:45:41Z</time>
      </trkpt>
      <trkpt lat="44.99767" lon="6.07395">
        <ele>861.4</ele>
        <time>2026-08-25T07:45:42Z</time>
      </trkpt>
      <trkpt lat="44.99765" lon="6.07397">
        <ele>861.6</ele>
        <time>2026-08-25T07:45:43Z</time>
      </trkpt>
      <trkpt lat="44.99762" lon="6.07398">
        <ele>861.8</ele>
        <time>2026-08-25T07:45:44Z</time>
      </trkpt>
      <trkpt lat="44.99759" lon="6.074">
        <ele>862.1</ele>
        <time>2026-08-25T07:45:45Z</time>
      </trkpt>
      <trkpt lat="44.99757" lon="6.07402">
        <ele>862.3</ele>
        <time>2026-08-25T07:45:46Z</time>
      </trkpt>
      <trkpt lat="44.99755" lon="6.07404">
        <ele>862.5</ele>
        <time>2026-08-25T07:45:47Z</time>
      </trkpt>
      <trkpt lat="44.99752" lon="6.07406">
        <ele>862.7</ele>
        <time>2026-08-25T07:45:48Z</time>
      </trkpt>
      <trkpt lat="44.9975" lon="6.07408">
        <ele>862.9</ele>
        <time>2026-08-25T07:45:49Z</time>
      </trkpt>
      <trkpt lat="44.99748" lon="6.0741">
        <ele>863.1</ele>
        <time>2026-08-25T07:45:50Z</time>
      </trkpt>
      <trkpt lat="44.99746" lon="6.07412">
        <ele>863.3</ele>
        <time>2026-08-25T07:45:51Z</time>
      </trkpt>
      <trkpt lat="44.99744" lon="6.07413">
        <ele>863.5</ele>
        <time>2026-08-25T07:45:52Z</time>
      </trkpt>
      <trkpt lat="44.99742" lon="6.07415">
        <ele>863.6</ele>
        <time>2026-08-25T07:45:53Z</time>
      </trkpt>
      <trkpt lat="44.9974" lon="6.07416">
        <ele>863.8</ele>
        <time>2026-08-25T07:45:54Z</time>
      </trkpt>
      <trkpt lat="44.99738" lon="6.07418">
        <ele>864.1</ele>
        <time>2026-08-25T07:45:55Z</time>
      </trkpt>
      <trkpt lat="44.99736" lon="6.0742">
        <ele>864.3</ele>
        <time>2026-08-25T07:45:56Z</time>
      </trkpt>
      <trkpt lat="44.99733" lon="6.07421">
        <ele>864.5</ele>
        <time>2026-08-25T07:45:57Z</time>
      </trkpt>
      <trkpt lat="44.99731" lon="6.07423">
        <ele>864.7</ele>
        <time>2026-08-25T07:45:58Z</time>
      </trkpt>
      <trkpt lat="44.99729" lon="6.07424">
        <ele>864.9</ele>
        <time>2026-08-25T07:45:59Z</time>
      </trkpt>
      <trkpt lat="44.99727" lon="6.07426">
        <ele>865.1</ele>
        <time>2026-08-25T07:46:00Z</time>
      </trkpt>
      <trkpt lat="44.99724" lon="6.07427">
        <ele>865.3</ele>
        <time>2026-08-25T07:46:01Z</time>
      </trkpt>
      <trkpt lat="44.99722" lon="6.07428">
        <ele>865.6</ele>
        <time>2026-08-25T07:46:02Z</time>
      </trkpt>
      <trkpt lat="44.9972" lon="6.07428">
        <ele>865.8</ele>
        <time>2026-08-25T07:46:03Z</time>
      </trkpt>
      <trkpt lat="44.99717" lon="6.07429">
        <ele>866</ele>
        <time>2026-08-25T07:46:04Z</time>
      </trkpt>
      <trkpt lat="44.99715" lon="6.0743">
        <ele>866.2</ele>
        <time>2026-08-25T07:46:05Z</time>
      </trkpt>
      <trkpt lat="44.99712" lon="6.07431">
        <ele>866.4</ele>
        <time>2026-08-25T07:46:06Z</time>
      </trkpt>
      <trkpt lat="44.9971" lon="6.07431">
        <ele>866.6</ele>
        <time>2026-08-25T07:46:07Z</time>
      </trkpt>
      <trkpt lat="44.99708" lon="6.07432">
        <ele>866.8</ele>
        <time>2026-08-25T07:46:08Z</time>
      </trkpt>
      <trkpt lat="44.99705" lon="6.07433">
        <ele>867</ele>
        <time>2026-08-25T07:46:09Z</time>
      </trkpt>
      <trkpt lat="44.99703" lon="6.07434">
        <ele>867.2</ele>
        <time>2026-08-25T07:46:10Z</time>
      </trkpt>
      <trkpt lat="44.997" lon="6.07434">
        <ele>867.4</ele>
        <time>2026-08-25T07:46:11Z</time>
      </trkpt>
      <trkpt lat="44.99698" lon="6.07435">
        <ele>867.6</ele>
        <time>2026-08-25T07:46:12Z</time>
      </trkpt>
      <trkpt lat="44.99695" lon="6.07436">
        <ele>867.8</ele>
        <time>2026-08-25T07:46:13Z</time>
      </trkpt>
      <trkpt lat="44.99693" lon="6.07436">
        <ele>868</ele>
        <time>2026-08-25T07:46:14Z</time>
      </trkpt>
      <trkpt lat="44.9969" lon="6.07437">
        <ele>868.3</ele>
        <time>2026-08-25T07:46:15Z</time>
      </trkpt>
      <trkpt lat="44.99688" lon="6.07437">
        <ele>868.5</ele>
        <time>2026-08-25T07:46:16Z</time>
      </trkpt>
      <trkpt lat="44.99686" lon="6.07438">
        <ele>868.6</ele>
        <time>2026-08-25T07:46:17Z</time>
      </trkpt>
      <trkpt lat="44.99683" lon="6.07439">
        <ele>868.9</ele>
        <time>2026-08-25T07:46:18Z</time>
      </trkpt>
      <trkpt lat="44.99681" lon="6.07439">
        <ele>869</ele>
        <time>2026-08-25T07:46:19Z</time>
      </trkpt>
      <trkpt lat="44.99679" lon="6.0744">
        <ele>869.2</ele>
        <time>2026-08-25T07:46:20Z</time>
      </trkpt>
      <trkpt lat="44.99676" lon="6.07441">
        <ele>869.4</ele>
        <time>2026-08-25T07:46:21Z</time>
      </trkpt>
      <trkpt lat="44.99674" lon="6.07442">
        <ele>869.7</ele>
        <time>2026-08-25T07:46:22Z</time>
      </trkpt>
      <trkpt lat="44.99671" lon="6.07443">
        <ele>869.9</ele>
        <time>2026-08-25T07:46:23Z</time>
      </trkpt>
      <trkpt lat="44.99669" lon="6.07444">
        <ele>870</ele>
        <time>2026-08-25T07:46:24Z</time>
      </trkpt>
      <trkpt lat="44.99667" lon="6.07445">
        <ele>870.2</ele>
        <time>2026-08-25T07:46:25Z</time>
      </trkpt>
      <trkpt lat="44.99665" lon="6.07446">
        <ele>870.4</ele>
        <time>2026-08-25T07:46:26Z</time>
      </trkpt>
      <trkpt lat="44.99662" lon="6.07447">
        <ele>870.6</ele>
        <time>2026-08-25T07:46:27Z</time>
      </trkpt>
      <trkpt lat="44.9966" lon="6.07448">
        <ele>870.8</ele>
        <time>2026-08-25T07:46:28Z</time>
      </trkpt>
      <trkpt lat="44.99658" lon="6.0745">
        <ele>871</ele>
        <time>2026-08-25T07:46:29Z</time>
      </trkpt>
      <trkpt lat="44.99655" lon="6.07451">
        <ele>871.2</ele>
        <time>2026-08-25T07:46:30Z</time>
      </trkpt>
      <trkpt lat="44.99653" lon="6.07453">
        <ele>871.4</ele>
        <time>2026-08-25T07:46:31Z</time>
      </trkpt>
      <trkpt lat="44.99651" lon="6.07455">
        <ele>871.6</ele>
        <time>2026-08-25T07:46:32Z</time>
      </trkpt>
      <trkpt lat="44.99648" lon="6.07457">
        <ele>871.8</ele>
        <time>2026-08-25T07:46:33Z</time>
      </trkpt>
      <trkpt lat="44.99645" lon="6.07459">
        <ele>871.9</ele>
        <time>2026-08-25T07:46:34Z</time>
      </trkpt>
      <trkpt lat="44.99643" lon="6.07461">
        <ele>872.1</ele>
        <time>2026-08-25T07:46:35Z</time>
      </trkpt>
      <trkpt lat="44.99641" lon="6.07463">
        <ele>872.2</ele>
        <time>2026-08-25T07:46:36Z</time>
      </trkpt>
      <trkpt lat="44.99639" lon="6.07465">
        <ele>872.4</ele>
        <time>2026-08-25T07:46:37Z</time>
      </trkpt>
      <trkpt lat="44.99637" lon="6.07468">
        <ele>872.5</ele>
        <time>2026-08-25T07:46:38Z</time>
      </trkpt>
      <trkpt lat="44.99634" lon="6.0747">
        <ele>872.6</ele>
        <time>2026-08-25T07:46:39Z</time>
      </trkpt>
      <trkpt lat="44.99632" lon="6.07473">
        <ele>872.7</ele>
        <time>2026-08-25T07:46:40Z</time>
      </trkpt>
      <trkpt lat="44.9963" lon="6.07476">
        <ele>872.8</ele>
        <time>2026-08-25T07:46:41Z</time>
      </trkpt>
      <trkpt lat="44.99627" lon="6.07478">
        <ele>872.9</ele>
        <time>2026-08-25T07:46:42Z</time>
      </trkpt>
      <trkpt lat="44.99625" lon="6.07481">
        <ele>873.1</ele>
        <time>2026-08-25T07:46:43Z</time>
      </trkpt>
      <trkpt lat="44.99622" lon="6.07485">
        <ele>873.2</ele>
        <time>2026-08-25T07:46:44Z</time>
      </trkpt>
      <trkpt lat="44.9962" lon="6.07488">
        <ele>873.3</ele>
        <time>2026-08-25T07:46:45Z</time>
      </trkpt>
      <trkpt lat="44.99618" lon="6.07491">
        <ele>873.4</ele>
        <time>2026-08-25T07:46:46Z</time>
      </trkpt>
      <trkpt lat="44.99616" lon="6.07495">
        <ele>873.5</ele>
        <time>2026-08-25T07:46:47Z</time>
      </trkpt>
      <trkpt lat="44.99614" lon="6.07498">
        <ele>873.6</ele>
        <time>2026-08-25T07:46:48Z</time>
      </trkpt>
      <trkpt lat="44.99612" lon="6.07502">
        <ele>873.7</ele>
        <time>2026-08-25T07:46:49Z</time>
      </trkpt>
      <trkpt lat="44.9961" lon="6.07507">
        <ele>873.8</ele>
        <time>2026-08-25T07:46:50Z</time>
      </trkpt>
      <trkpt lat="44.99609" lon="6.0751">
        <ele>873.9</ele>
        <time>2026-08-25T07:46:51Z</time>
      </trkpt>
      <trkpt lat="44.99607" lon="6.07514">
        <ele>874.1</ele>
        <time>2026-08-25T07:46:52Z</time>
      </trkpt>
      <trkpt lat="44.99605" lon="6.07519">
        <ele>874.2</ele>
        <time>2026-08-25T07:46:53Z</time>
      </trkpt>
      <trkpt lat="44.99604" lon="6.07523">
        <ele>874.3</ele>
        <time>2026-08-25T07:46:54Z</time>
      </trkpt>
      <trkpt lat="44.99603" lon="6.07527">
        <ele>874.5</ele>
        <time>2026-08-25T07:46:55Z</time>
      </trkpt>
      <trkpt lat="44.99601" lon="6.07532">
        <ele>874.6</ele>
        <time>2026-08-25T07:46:56Z</time>
      </trkpt>
      <trkpt lat="44.996" lon="6.07536">
        <ele>874.8</ele>
        <time>2026-08-25T07:46:57Z</time>
      </trkpt>
      <trkpt lat="44.99598" lon="6.0754">
        <ele>874.9</ele>
        <time>2026-08-25T07:46:58Z</time>
      </trkpt>
      <trkpt lat="44.99597" lon="6.07545">
        <ele>875</ele>
        <time>2026-08-25T07:46:59Z</time>
      </trkpt>
      <trkpt lat="44.99596" lon="6.07549">
        <ele>875.2</ele>
        <time>2026-08-25T07:47:00Z</time>
      </trkpt>
      <trkpt lat="44.99595" lon="6.07553">
        <ele>875.3</ele>
        <time>2026-08-25T07:47:01Z</time>
      </trkpt>
      <trkpt lat="44.99594" lon="6.07558">
        <ele>875.5</ele>
        <time>2026-08-25T07:47:02Z</time>
      </trkpt>
      <trkpt lat="44.99593" lon="6.07562">
        <ele>875.6</ele>
        <time>2026-08-25T07:47:03Z</time>
      </trkpt>
      <trkpt lat="44.99592" lon="6.07566">
        <ele>875.7</ele>
        <time>2026-08-25T07:47:04Z</time>
      </trkpt>
      <trkpt lat="44.99591" lon="6.07571">
        <ele>875.9</ele>
        <time>2026-08-25T07:47:05Z</time>
      </trkpt>
      <trkpt lat="44.9959" lon="6.07575">
        <ele>876</ele>
        <time>2026-08-25T07:47:06Z</time>
      </trkpt>
      <trkpt lat="44.99589" lon="6.07579">
        <ele>876.1</ele>
        <time>2026-08-25T07:47:07Z</time>
      </trkpt>
      <trkpt lat="44.99587" lon="6.07583">
        <ele>876.2</ele>
        <time>2026-08-25T07:47:08Z</time>
      </trkpt>
      <trkpt lat="44.99586" lon="6.07587">
        <ele>876.3</ele>
        <time>2026-08-25T07:47:09Z</time>
      </trkpt>
      <trkpt lat="44.99585" lon="6.07591">
        <ele>876.4</ele>
        <time>2026-08-25T07:47:10Z</time>
      </trkpt>
      <trkpt lat="44.99584" lon="6.07596">
        <ele>876.5</ele>
        <time>2026-08-25T07:47:11Z</time>
      </trkpt>
      <trkpt lat="44.99583" lon="6.076">
        <ele>876.6</ele>
        <time>2026-08-25T07:47:12Z</time>
      </trkpt>
      <trkpt lat="44.99581" lon="6.07604">
        <ele>876.6</ele>
        <time>2026-08-25T07:47:13Z</time>
      </trkpt>
      <trkpt lat="44.9958" lon="6.07609">
        <ele>876.7</ele>
        <time>2026-08-25T07:47:14Z</time>
      </trkpt>
      <trkpt lat="44.99579" lon="6.07613">
        <ele>876.7</ele>
        <time>2026-08-25T07:47:15Z</time>
      </trkpt>
      <trkpt lat="44.99577" lon="6.07618">
        <ele>876.7</ele>
        <time>2026-08-25T07:47:16Z</time>
      </trkpt>
      <trkpt lat="44.99576" lon="6.07622">
        <ele>876.7</ele>
        <time>2026-08-25T07:47:17Z</time>
      </trkpt>
      <trkpt lat="44.99574" lon="6.07627">
        <ele>876.7</ele>
        <time>2026-08-25T07:47:18Z</time>
      </trkpt>
      <trkpt lat="44.99572" lon="6.07633">
        <ele>876.7</ele>
        <time>2026-08-25T07:47:19Z</time>
      </trkpt>
      <trkpt lat="44.9957" lon="6.07638">
        <ele>876.6</ele>
        <time>2026-08-25T07:47:20Z</time>
      </trkpt>
      <trkpt lat="44.99566" lon="6.07644">
        <ele>876.6</ele>
        <time>2026-08-25T07:47:21Z</time>
      </trkpt>
      <trkpt lat="44.99563" lon="6.0765">
        <ele>876.5</ele>
        <time>2026-08-25T07:47:22Z</time>
      </trkpt>
      <trkpt lat="44.9956" lon="6.07656">
        <ele>876.3</ele>
        <time>2026-08-25T07:47:23Z</time>
      </trkpt>
      <trkpt lat="44.99557" lon="6.07663">
        <ele>876.1</ele>
        <time>2026-08-25T07:47:24Z</time>
      </trkpt>
      <trkpt lat="44.99554" lon="6.07669">
        <ele>875.8</ele>
        <time>2026-08-25T07:47:25Z</time>
      </trkpt>
      <trkpt lat="44.99551" lon="6.07675">
        <ele>875.5</ele>
        <time>2026-08-25T07:47:26Z</time>
      </trkpt>
      <trkpt lat="44.99547" lon="6.0768">
        <ele>875.2</ele>
        <time>2026-08-25T07:47:27Z</time>
      </trkpt>
      <trkpt lat="44.99544" lon="6.07686">
        <ele>874.8</ele>
        <time>2026-08-25T07:47:28Z</time>
      </trkpt>
      <trkpt lat="44.9954" lon="6.07693">
        <ele>874.4</ele>
        <time>2026-08-25T07:47:29Z</time>
      </trkpt>
      <trkpt lat="44.99537" lon="6.07699">
        <ele>874</ele>
        <time>2026-08-25T07:47:30Z</time>
      </trkpt>
      <trkpt lat="44.99533" lon="6.07707">
        <ele>873.7</ele>
        <time>2026-08-25T07:47:31Z</time>
      </trkpt>
      <trkpt lat="44.9953" lon="6.07715">
        <ele>873.4</ele>
        <time>2026-08-25T07:47:32Z</time>
      </trkpt>
      <trkpt lat="44.99527" lon="6.07724">
        <ele>873.1</ele>
        <time>2026-08-25T07:47:33Z</time>
      </trkpt>
      <trkpt lat="44.99524" lon="6.07733">
        <ele>872.5</ele>
        <time>2026-08-25T07:47:34Z</time>
      </trkpt>
      <trkpt lat="44.9952" lon="6.07743">
        <ele>872</ele>
        <time>2026-08-25T07:47:35Z</time>
      </trkpt>
      <trkpt lat="44.99516" lon="6.07752">
        <ele>871.4</ele>
        <time>2026-08-25T07:47:36Z</time>
      </trkpt>
      <trkpt lat="44.99513" lon="6.07763">
        <ele>870.7</ele>
        <time>2026-08-25T07:47:37Z</time>
      </trkpt>
      <trkpt lat="44.99509" lon="6.07775">
        <ele>869.9</ele>
        <time>2026-08-25T07:47:38Z</time>
      </trkpt>
      <trkpt lat="44.99507" lon="6.07787">
        <ele>869.1</ele>
        <time>2026-08-25T07:47:39Z</time>
      </trkpt>
      <trkpt lat="44.99504" lon="6.078">
        <ele>868.3</ele>
        <time>2026-08-25T07:47:40Z</time>
      </trkpt>
      <trkpt lat="44.99502" lon="6.07814">
        <ele>867.4</ele>
        <time>2026-08-25T07:47:41Z</time>
      </trkpt>
      <trkpt lat="44.99501" lon="6.07828">
        <ele>866.4</ele>
        <time>2026-08-25T07:47:42Z</time>
      </trkpt>
      <trkpt lat="44.99499" lon="6.07842">
        <ele>865.5</ele>
        <time>2026-08-25T07:47:43Z</time>
      </trkpt>
      <trkpt lat="44.99498" lon="6.07857">
        <ele>864.6</ele>
        <time>2026-08-25T07:47:44Z</time>
      </trkpt>
      <trkpt lat="44.99496" lon="6.07872">
        <ele>863.7</ele>
        <time>2026-08-25T07:47:45Z</time>
      </trkpt>
      <trkpt lat="44.99493" lon="6.07887">
        <ele>863</ele>
        <time>2026-08-25T07:47:46Z</time>
      </trkpt>
      <trkpt lat="44.9949" lon="6.07902">
        <ele>862.7</ele>
        <time>2026-08-25T07:47:47Z</time>
      </trkpt>
      <trkpt lat="44.99485" lon="6.07916">
        <ele>862.5</ele>
        <time>2026-08-25T07:47:48Z</time>
      </trkpt>
      <trkpt lat="44.99479" lon="6.0793">
        <ele>862</ele>
        <time>2026-08-25T07:47:49Z</time>
      </trkpt>
      <trkpt lat="44.99472" lon="6.07941">
        <ele>861.6</ele>
        <time>2026-08-25T07:47:50Z</time>
      </trkpt>
      <trkpt lat="44.99464" lon="6.07951">
        <ele>861.3</ele>
        <time>2026-08-25T07:47:51Z</time>
      </trkpt>
      <trkpt lat="44.99455" lon="6.0796">
        <ele>860.9</ele>
        <time>2026-08-25T07:47:52Z</time>
      </trkpt>
      <trkpt lat="44.99447" lon="6.0797">
        <ele>860.6</ele>
        <time>2026-08-25T07:47:53Z</time>
      </trkpt>
      <trkpt lat="44.99439" lon="6.0798">
        <ele>860.2</ele>
        <time>2026-08-25T07:47:54Z</time>
      </trkpt>
      <trkpt lat="44.99432" lon="6.07991">
        <ele>859.9</ele>
        <time>2026-08-25T07:47:55Z</time>
      </trkpt>
      <trkpt lat="44.99425" lon="6.08003">
        <ele>859.5</ele>
        <time>2026-08-25T07:47:56Z</time>
      </trkpt>
      <trkpt lat="44.99419" lon="6.08014">
        <ele>859.1</ele>
        <time>2026-08-25T07:47:57Z</time>
      </trkpt>
      <trkpt lat="44.99411" lon="6.08025">
        <ele>858.8</ele>
        <time>2026-08-25T07:47:58Z</time>
      </trkpt>
      <trkpt lat="44.99404" lon="6.08036">
        <ele>858.5</ele>
        <time>2026-08-25T07:47:59Z</time>
      </trkpt>
      <trkpt lat="44.99396" lon="6.08046">
        <ele>858.2</ele>
        <time>2026-08-25T07:48:00Z</time>
      </trkpt>
      <trkpt lat="44.99389" lon="6.08056">
        <ele>858</ele>
        <time>2026-08-25T07:48:01Z</time>
      </trkpt>
      <trkpt lat="44.99381" lon="6.08066">
        <ele>857.8</ele>
        <time>2026-08-25T07:48:02Z</time>
      </trkpt>
      <trkpt lat="44.99373" lon="6.08076">
        <ele>857.6</ele>
        <time>2026-08-25T07:48:03Z</time>
      </trkpt>
      <trkpt lat="44.99366" lon="6.08086">
        <ele>857.5</ele>
        <time>2026-08-25T07:48:04Z</time>
      </trkpt>
      <trkpt lat="44.99359" lon="6.08097">
        <ele>857.4</ele>
        <time>2026-08-25T07:48:05Z</time>
      </trkpt>
      <trkpt lat="44.99352" lon="6.08108">
        <ele>857.4</ele>
        <time>2026-08-25T07:48:06Z</time>
      </trkpt>
      <trkpt lat="44.99345" lon="6.08119">
        <ele>857.4</ele>
        <time>2026-08-25T07:48:07Z</time>
      </trkpt>
      <trkpt lat="44.99339" lon="6.08131">
        <ele>857.3</ele>
        <time>2026-08-25T07:48:08Z</time>
      </trkpt>
      <trkpt lat="44.99334" lon="6.08143">
        <ele>857</ele>
        <time>2026-08-25T07:48:09Z</time>
      </trkpt>
      <trkpt lat="44.99328" lon="6.08155">
        <ele>856.7</ele>
        <time>2026-08-25T07:48:10Z</time>
      </trkpt>
      <trkpt lat="44.99323" lon="6.08166">
        <ele>856.5</ele>
        <time>2026-08-25T07:48:11Z</time>
      </trkpt>
      <trkpt lat="44.99319" lon="6.08178">
        <ele>856.4</ele>
        <time>2026-08-25T07:48:12Z</time>
      </trkpt>
      <trkpt lat="44.99314" lon="6.08189">
        <ele>856.3</ele>
        <time>2026-08-25T07:48:13Z</time>
      </trkpt>
      <trkpt lat="44.9931" lon="6.08199">
        <ele>856.3</ele>
        <time>2026-08-25T07:48:14Z</time>
      </trkpt>
      <trkpt lat="44.99305" lon="6.0821">
        <ele>856.3</ele>
        <time>2026-08-25T07:48:15Z</time>
      </trkpt>
      <trkpt lat="44.993" lon="6.0822">
        <ele>856.3</ele>
        <time>2026-08-25T07:48:16Z</time>
      </trkpt>
      <trkpt lat="44.99296" lon="6.08229">
        <ele>856.3</ele>
        <time>2026-08-25T07:48:17Z</time>
      </trkpt>
      <trkpt lat="44.99291" lon="6.08239">
        <ele>856.4</ele>
        <time>2026-08-25T07:48:18Z</time>
      </trkpt>
      <trkpt lat="44.99287" lon="6.08248">
        <ele>856.5</ele>
        <time>2026-08-25T07:48:19Z</time>
      </trkpt>
      <trkpt lat="44.99283" lon="6.08257">
        <ele>856.7</ele>
        <time>2026-08-25T07:48:20Z</time>
      </trkpt>
      <trkpt lat="44.9928" lon="6.08265">
        <ele>856.8</ele>
        <time>2026-08-25T07:48:21Z</time>
      </trkpt>
      <trkpt lat="44.99276" lon="6.08273">
        <ele>857</ele>
        <time>2026-08-25T07:48:22Z</time>
      </trkpt>
      <trkpt lat="44.99273" lon="6.08281">
        <ele>857.1</ele>
        <time>2026-08-25T07:48:23Z</time>
      </trkpt>
      <trkpt lat="44.99269" lon="6.08288">
        <ele>857.3</ele>
        <time>2026-08-25T07:48:24Z</time>
      </trkpt>
      <trkpt lat="44.99266" lon="6.08295">
        <ele>857.5</ele>
        <time>2026-08-25T07:48:25Z</time>
      </trkpt>
      <trkpt lat="44.99263" lon="6.08302">
        <ele>857.7</ele>
        <time>2026-08-25T07:48:26Z</time>
      </trkpt>
      <trkpt lat="44.99261" lon="6.08308">
        <ele>857.8</ele>
        <time>2026-08-25T07:48:27Z</time>
      </trkpt>
      <trkpt lat="44.99258" lon="6.08314">
        <ele>858</ele>
        <time>2026-08-25T07:48:28Z</time>
      </trkpt>
      <trkpt lat="44.99256" lon="6.08319">
        <ele>858.2</ele>
        <time>2026-08-25T07:48:29Z</time>
      </trkpt>
      <trkpt lat="44.99253" lon="6.08324">
        <ele>858.4</ele>
        <time>2026-08-25T07:48:30Z</time>
      </trkpt>
      <trkpt lat="44.99251" lon="6.08329">
        <ele>858.6</ele>
        <time>2026-08-25T07:48:31Z</time>
      </trkpt>
      <trkpt lat="44.99247" lon="6.08335">
        <ele>858.8</ele>
        <time>2026-08-25T07:48:32Z</time>
      </trkpt>
      <trkpt lat="44.99245" lon="6.08342">
        <ele>859.1</ele>
        <time>2026-08-25T07:48:33Z</time>
      </trkpt>
      <trkpt lat="44.99242" lon="6.08349">
        <ele>859.4</ele>
        <time>2026-08-25T07:48:34Z</time>
      </trkpt>
      <trkpt lat="44.99239" lon="6.08357">
        <ele>859.7</ele>
        <time>2026-08-25T07:48:35Z</time>
      </trkpt>
      <trkpt lat="44.99237" lon="6.08363">
        <ele>859.9</ele>
        <time>2026-08-25T07:48:36Z</time>
      </trkpt>
      <trkpt lat="44.99235" lon="6.08369">
        <ele>860.2</ele>
        <time>2026-08-25T07:48:37Z</time>
      </trkpt>
      <trkpt lat="44.99232" lon="6.08375">
        <ele>860.4</ele>
        <time>2026-08-25T07:48:38Z</time>
      </trkpt>
      <trkpt lat="44.9923" lon="6.0838">
        <ele>860.6</ele>
        <time>2026-08-25T07:48:39Z</time>
      </trkpt>
      <trkpt lat="44.99228" lon="6.08385">
        <ele>860.8</ele>
        <time>2026-08-25T07:48:40Z</time>
      </trkpt>
      <trkpt lat="44.99227" lon="6.0839">
        <ele>861</ele>
        <time>2026-08-25T07:48:41Z</time>
      </trkpt>
      <trkpt lat="44.99224" lon="6.08395">
        <ele>861.3</ele>
        <time>2026-08-25T07:48:42Z</time>
      </trkpt>
      <trkpt lat="44.99222" lon="6.084">
        <ele>861.5</ele>
        <time>2026-08-25T07:48:43Z</time>
      </trkpt>
      <trkpt lat="44.9922" lon="6.08405">
        <ele>861.7</ele>
        <time>2026-08-25T07:48:44Z</time>
      </trkpt>
      <trkpt lat="44.99218" lon="6.08409">
        <ele>861.9</ele>
        <time>2026-08-25T07:48:45Z</time>
      </trkpt>
      <trkpt lat="44.99216" lon="6.08414">
        <ele>862.1</ele>
        <time>2026-08-25T07:48:46Z</time>
      </trkpt>
      <trkpt lat="44.99213" lon="6.08419">
        <ele>862.3</ele>
        <time>2026-08-25T07:48:47Z</time>
      </trkpt>
      <trkpt lat="44.99211" lon="6.08424">
        <ele>862.5</ele>
        <time>2026-08-25T07:48:48Z</time>
      </trkpt>
      <trkpt lat="44.99209" lon="6.08429">
        <ele>862.7</ele>
        <time>2026-08-25T07:48:49Z</time>
      </trkpt>
      <trkpt lat="44.99207" lon="6.08434">
        <ele>862.9</ele>
        <time>2026-08-25T07:48:50Z</time>
      </trkpt>
      <trkpt lat="44.99205" lon="6.08439">
        <ele>863.1</ele>
        <time>2026-08-25T07:48:51Z</time>
      </trkpt>
      <trkpt lat="44.99203" lon="6.08444">
        <ele>863.3</ele>
        <time>2026-08-25T07:48:52Z</time>
      </trkpt>
      <trkpt lat="44.99201" lon="6.08449">
        <ele>863.5</ele>
        <time>2026-08-25T07:48:53Z</time>
      </trkpt>
      <trkpt lat="44.992" lon="6.08454">
        <ele>863.7</ele>
        <time>2026-08-25T07:48:54Z</time>
      </trkpt>
      <trkpt lat="44.99198" lon="6.0846">
        <ele>863.9</ele>
        <time>2026-08-25T07:48:55Z</time>
      </trkpt>
      <trkpt lat="44.99197" lon="6.08465">
        <ele>864.1</ele>
        <time>2026-08-25T07:48:56Z</time>
      </trkpt>
      <trkpt lat="44.99196" lon="6.08471">
        <ele>864.3</ele>
        <time>2026-08-25T07:48:57Z</time>
      </trkpt>
      <trkpt lat="44.99195" lon="6.08476">
        <ele>864.5</ele>
        <time>2026-08-25T07:48:58Z</time>
      </trkpt>
      <trkpt lat="44.99195" lon="6.08481">
        <ele>864.7</ele>
        <time>2026-08-25T07:48:59Z</time>
      </trkpt>
      <trkpt lat="44.99194" lon="6.08486">
        <ele>864.9</ele>
        <time>2026-08-25T07:49:00Z</time>
      </trkpt>
      <trkpt lat="44.99194" lon="6.08491">
        <ele>865.1</ele>
        <time>2026-08-25T07:49:01Z</time>
      </trkpt>
      <trkpt lat="44.99194" lon="6.08497">
        <ele>865.2</ele>
        <time>2026-08-25T07:49:02Z</time>
      </trkpt>
      <trkpt lat="44.99194" lon="6.08502">
        <ele>865.4</ele>
        <time>2026-08-25T07:49:03Z</time>
      </trkpt>
      <trkpt lat="44.99195" lon="6.08507">
        <ele>865.6</ele>
        <time>2026-08-25T07:49:04Z</time>
      </trkpt>
      <trkpt lat="44.99195" lon="6.08512">
        <ele>865.7</ele>
        <time>2026-08-25T07:49:05Z</time>
      </trkpt>
      <trkpt lat="44.99196" lon="6.08517">
        <ele>865.9</ele>
        <time>2026-08-25T07:49:06Z</time>
      </trkpt>
      <trkpt lat="44.99197" lon="6.08523">
        <ele>866</ele>
        <time>2026-08-25T07:49:07Z</time>
      </trkpt>
      <trkpt lat="44.99198" lon="6.08529">
        <ele>866.2</ele>
        <time>2026-08-25T07:49:08Z</time>
      </trkpt>
      <trkpt lat="44.99199" lon="6.08536">
        <ele>866.3</ele>
        <time>2026-08-25T07:49:09Z</time>
      </trkpt>
      <trkpt lat="44.992" lon="6.08541">
        <ele>866.5</ele>
        <time>2026-08-25T07:49:10Z</time>
      </trkpt>
      <trkpt lat="44.99201" lon="6.08547">
        <ele>866.6</ele>
        <time>2026-08-25T07:49:11Z</time>
      </trkpt>
      <trkpt lat="44.99201" lon="6.08553">
        <ele>866.8</ele>
        <time>2026-08-25T07:49:12Z</time>
      </trkpt>
      <trkpt lat="44.99202" lon="6.08558">
        <ele>866.9</ele>
        <time>2026-08-25T07:49:13Z</time>
      </trkpt>
      <trkpt lat="44.99203" lon="6.08564">
        <ele>867</ele>
        <time>2026-08-25T07:49:14Z</time>
      </trkpt>
      <trkpt lat="44.99203" lon="6.0857">
        <ele>867.2</ele>
        <time>2026-08-25T07:49:15Z</time>
      </trkpt>
      <trkpt lat="44.99204" lon="6.08576">
        <ele>867.3</ele>
        <time>2026-08-25T07:49:16Z</time>
      </trkpt>
      <trkpt lat="44.99205" lon="6.08582">
        <ele>867.5</ele>
        <time>2026-08-25T07:49:17Z</time>
      </trkpt>
      <trkpt lat="44.99206" lon="6.08588">
        <ele>867.6</ele>
        <time>2026-08-25T07:49:18Z</time>
      </trkpt>
      <trkpt lat="44.99206" lon="6.08593">
        <ele>867.7</ele>
        <time>2026-08-25T07:49:19Z</time>
      </trkpt>
      <trkpt lat="44.99207" lon="6.08598">
        <ele>867.9</ele>
        <time>2026-08-25T07:49:20Z</time>
      </trkpt>
      <trkpt lat="44.99208" lon="6.08604">
        <ele>868</ele>
        <time>2026-08-25T07:49:21Z</time>
      </trkpt>
      <trkpt lat="44.99209" lon="6.08611">
        <ele>868.2</ele>
        <time>2026-08-25T07:49:22Z</time>
      </trkpt>
      <trkpt lat="44.9921" lon="6.08616">
        <ele>868.3</ele>
        <time>2026-08-25T07:49:23Z</time>
      </trkpt>
      <trkpt lat="44.99211" lon="6.08622">
        <ele>868.5</ele>
        <time>2026-08-25T07:49:24Z</time>
      </trkpt>
      <trkpt lat="44.99212" lon="6.08628">
        <ele>868.7</ele>
        <time>2026-08-25T07:49:25Z</time>
      </trkpt>
      <trkpt lat="44.99213" lon="6.08634">
        <ele>868.8</ele>
        <time>2026-08-25T07:49:26Z</time>
      </trkpt>
      <trkpt lat="44.99214" lon="6.08639">
        <ele>869</ele>
        <time>2026-08-25T07:49:27Z</time>
      </trkpt>
      <trkpt lat="44.99215" lon="6.08644">
        <ele>869.2</ele>
        <time>2026-08-25T07:49:28Z</time>
      </trkpt>
      <trkpt lat="44.99216" lon="6.08649">
        <ele>869.3</ele>
        <time>2026-08-25T07:49:29Z</time>
      </trkpt>
      <trkpt lat="44.99217" lon="6.08654">
        <ele>869.5</ele>
        <time>2026-08-25T07:49:30Z</time>
      </trkpt>
      <trkpt lat="44.99217" lon="6.08659">
        <ele>869.7</ele>
        <time>2026-08-25T07:49:31Z</time>
      </trkpt>
      <trkpt lat="44.99217" lon="6.08664">
        <ele>869.9</ele>
        <time>2026-08-25T07:49:32Z</time>
      </trkpt>
      <trkpt lat="44.99217" lon="6.08669">
        <ele>870</ele>
        <time>2026-08-25T07:49:33Z</time>
      </trkpt>
      <trkpt lat="44.99216" lon="6.08674">
        <ele>870.2</ele>
        <time>2026-08-25T07:49:34Z</time>
      </trkpt>
      <trkpt lat="44.99215" lon="6.08678">
        <ele>870.3</ele>
        <time>2026-08-25T07:49:35Z</time>
      </trkpt>
      <trkpt lat="44.99214" lon="6.08683">
        <ele>870.5</ele>
        <time>2026-08-25T07:49:36Z</time>
      </trkpt>
      <trkpt lat="44.99213" lon="6.08687">
        <ele>870.6</ele>
        <time>2026-08-25T07:49:37Z</time>
      </trkpt>
      <trkpt lat="44.99212" lon="6.08692">
        <ele>870.8</ele>
        <time>2026-08-25T07:49:38Z</time>
      </trkpt>
      <trkpt lat="44.9921" lon="6.08697">
        <ele>870.9</ele>
        <time>2026-08-25T07:49:39Z</time>
      </trkpt>
      <trkpt lat="44.99209" lon="6.08701">
        <ele>871.1</ele>
        <time>2026-08-25T07:49:40Z</time>
      </trkpt>
      <trkpt lat="44.99207" lon="6.08706">
        <ele>871.3</ele>
        <time>2026-08-25T07:49:41Z</time>
      </trkpt>
      <trkpt lat="44.99205" lon="6.0871">
        <ele>871.5</ele>
        <time>2026-08-25T07:49:42Z</time>
      </trkpt>
      <trkpt lat="44.99203" lon="6.08714">
        <ele>871.7</ele>
        <time>2026-08-25T07:49:43Z</time>
      </trkpt>
      <trkpt lat="44.99201" lon="6.08719">
        <ele>871.9</ele>
        <time>2026-08-25T07:49:44Z</time>
      </trkpt>
      <trkpt lat="44.99199" lon="6.08724">
        <ele>872.2</ele>
        <time>2026-08-25T07:49:45Z</time>
      </trkpt>
      <trkpt lat="44.99196" lon="6.08728">
        <ele>872.4</ele>
        <time>2026-08-25T07:49:46Z</time>
      </trkpt>
      <trkpt lat="44.99194" lon="6.08733">
        <ele>872.6</ele>
        <time>2026-08-25T07:49:47Z</time>
      </trkpt>
      <trkpt lat="44.99192" lon="6.08737">
        <ele>872.8</ele>
        <time>2026-08-25T07:49:48Z</time>
      </trkpt>
      <trkpt lat="44.9919" lon="6.08741">
        <ele>873</ele>
        <time>2026-08-25T07:49:49Z</time>
      </trkpt>
      <trkpt lat="44.99188" lon="6.08745">
        <ele>873.3</ele>
        <time>2026-08-25T07:49:50Z</time>
      </trkpt>
      <trkpt lat="44.99185" lon="6.08749">
        <ele>873.5</ele>
        <time>2026-08-25T07:49:51Z</time>
      </trkpt>
      <trkpt lat="44.99182" lon="6.08754">
        <ele>873.7</ele>
        <time>2026-08-25T07:49:52Z</time>
      </trkpt>
      <trkpt lat="44.9918" lon="6.08757">
        <ele>873.9</ele>
        <time>2026-08-25T07:49:53Z</time>
      </trkpt>
      <trkpt lat="44.99177" lon="6.08761">
        <ele>874.1</ele>
        <time>2026-08-25T07:49:54Z</time>
      </trkpt>
      <trkpt lat="44.99175" lon="6.08765">
        <ele>874.3</ele>
        <time>2026-08-25T07:49:55Z</time>
      </trkpt>
      <trkpt lat="44.99172" lon="6.08768">
        <ele>874.5</ele>
        <time>2026-08-25T07:49:56Z</time>
      </trkpt>
      <trkpt lat="44.9917" lon="6.08772">
        <ele>874.6</ele>
        <time>2026-08-25T07:49:57Z</time>
      </trkpt>
      <trkpt lat="44.99168" lon="6.08775">
        <ele>874.8</ele>
        <time>2026-08-25T07:49:58Z</time>
      </trkpt>
      <trkpt lat="44.99165" lon="6.08779">
        <ele>875</ele>
        <time>2026-08-25T07:49:59Z</time>
      </trkpt>
      <trkpt lat="44.99163" lon="6.08783">
        <ele>875.2</ele>
        <time>2026-08-25T07:50:00Z</time>
      </trkpt>
      <trkpt lat="44.99161" lon="6.08787">
        <ele>875.3</ele>
        <time>2026-08-25T07:50:01Z</time>
      </trkpt>
      <trkpt lat="44.99159" lon="6.08791">
        <ele>875.5</ele>
        <time>2026-08-25T07:50:02Z</time>
      </trkpt>
      <trkpt lat="44.99157" lon="6.08795">
        <ele>875.7</ele>
        <time>2026-08-25T07:50:03Z</time>
      </trkpt>
      <trkpt lat="44.99155" lon="6.08799">
        <ele>875.9</ele>
        <time>2026-08-25T07:50:04Z</time>
      </trkpt>
      <trkpt lat="44.99153" lon="6.08804">
        <ele>876.1</ele>
        <time>2026-08-25T07:50:05Z</time>
      </trkpt>
      <trkpt lat="44.99151" lon="6.08808">
        <ele>876.3</ele>
        <time>2026-08-25T07:50:06Z</time>
      </trkpt>
      <trkpt lat="44.99149" lon="6.08813">
        <ele>876.5</ele>
        <time>2026-08-25T07:50:07Z</time>
      </trkpt>
      <trkpt lat="44.99147" lon="6.08817">
        <ele>876.7</ele>
        <time>2026-08-25T07:50:08Z</time>
      </trkpt>
      <trkpt lat="44.99146" lon="6.08821">
        <ele>876.9</ele>
        <time>2026-08-25T07:50:09Z</time>
      </trkpt>
      <trkpt lat="44.99144" lon="6.08826">
        <ele>877.1</ele>
        <time>2026-08-25T07:50:10Z</time>
      </trkpt>
      <trkpt lat="44.99142" lon="6.0883">
        <ele>877.3</ele>
        <time>2026-08-25T07:50:11Z</time>
      </trkpt>
      <trkpt lat="44.9914" lon="6.08834">
        <ele>877.5</ele>
        <time>2026-08-25T07:50:12Z</time>
      </trkpt>
      <trkpt lat="44.99138" lon="6.08838">
        <ele>877.7</ele>
        <time>2026-08-25T07:50:13Z</time>
      </trkpt>
      <trkpt lat="44.99137" lon="6.08843">
        <ele>877.9</ele>
        <time>2026-08-25T07:50:14Z</time>
      </trkpt>
      <trkpt lat="44.99135" lon="6.08847">
        <ele>878.1</ele>
        <time>2026-08-25T07:50:15Z</time>
      </trkpt>
      <trkpt lat="44.99133" lon="6.08851">
        <ele>878.3</ele>
        <time>2026-08-25T07:50:16Z</time>
      </trkpt>
      <trkpt lat="44.9913" lon="6.08856">
        <ele>878.5</ele>
        <time>2026-08-25T07:50:17Z</time>
      </trkpt>
      <trkpt lat="44.99128" lon="6.0886">
        <ele>878.7</ele>
        <time>2026-08-25T07:50:18Z</time>
      </trkpt>
      <trkpt lat="44.99126" lon="6.08864">
        <ele>878.9</ele>
        <time>2026-08-25T07:50:19Z</time>
      </trkpt>
      <trkpt lat="44.99124" lon="6.08868">
        <ele>879.1</ele>
        <time>2026-08-25T07:50:20Z</time>
      </trkpt>
      <trkpt lat="44.99122" lon="6.08872">
        <ele>879.2</ele>
        <time>2026-08-25T07:50:21Z</time>
      </trkpt>
      <trkpt lat="44.9912" lon="6.08876">
        <ele>879.4</ele>
        <time>2026-08-25T07:50:22Z</time>
      </trkpt>
      <trkpt lat="44.99118" lon="6.0888">
        <ele>879.6</ele>
        <time>2026-08-25T07:50:23Z</time>
      </trkpt>
      <trkpt lat="44.99116" lon="6.08884">
        <ele>879.8</ele>
        <time>2026-08-25T07:50:24Z</time>
      </trkpt>
      <trkpt lat="44.99114" lon="6.08888">
        <ele>880</ele>
        <time>2026-08-25T07:50:25Z</time>
      </trkpt>
      <trkpt lat="44.99112" lon="6.08893">
        <ele>880.2</ele>
        <time>2026-08-25T07:50:26Z</time>
      </trkpt>
      <trkpt lat="44.9911" lon="6.08897">
        <ele>880.4</ele>
        <time>2026-08-25T07:50:27Z</time>
      </trkpt>
      <trkpt lat="44.99108" lon="6.08902">
        <ele>880.6</ele>
        <time>2026-08-25T07:50:28Z</time>
      </trkpt>
      <trkpt lat="44.99106" lon="6.08906">
        <ele>880.8</ele>
        <time>2026-08-25T07:50:29Z</time>
      </trkpt>
      <trkpt lat="44.99105" lon="6.0891">
        <ele>881</ele>
        <time>2026-08-25T07:50:30Z</time>
      </trkpt>
      <trkpt lat="44.99103" lon="6.08914">
        <ele>881.1</ele>
        <time>2026-08-25T07:50:31Z</time>
      </trkpt>
      <trkpt lat="44.99101" lon="6.08918">
        <ele>881.3</ele>
        <time>2026-08-25T07:50:32Z</time>
      </trkpt>
      <trkpt lat="44.99099" lon="6.08921">
        <ele>881.4</ele>
        <time>2026-08-25T07:50:33Z</time>
      </trkpt>
      <trkpt lat="44.99097" lon="6.08926">
        <ele>881.5</ele>
        <time>2026-08-25T07:50:34Z</time>
      </trkpt>
      <trkpt lat="44.99095" lon="6.0893">
        <ele>881.6</ele>
        <time>2026-08-25T07:50:35Z</time>
      </trkpt>
      <trkpt lat="44.99093" lon="6.08934">
        <ele>881.7</ele>
        <time>2026-08-25T07:50:36Z</time>
      </trkpt>
      <trkpt lat="44.9909" lon="6.08939">
        <ele>881.8</ele>
        <time>2026-08-25T07:50:37Z</time>
      </trkpt>
      <trkpt lat="44.99088" lon="6.08943">
        <ele>882</ele>
        <time>2026-08-25T07:50:38Z</time>
      </trkpt>
      <trkpt lat="44.99085" lon="6.08949">
        <ele>882.1</ele>
        <time>2026-08-25T07:50:39Z</time>
      </trkpt>
      <trkpt lat="44.99082" lon="6.08954">
        <ele>882.2</ele>
        <time>2026-08-25T07:50:40Z</time>
      </trkpt>
      <trkpt lat="44.9908" lon="6.08959">
        <ele>882.3</ele>
        <time>2026-08-25T07:50:41Z</time>
      </trkpt>
      <trkpt lat="44.99077" lon="6.08965">
        <ele>882.5</ele>
        <time>2026-08-25T07:50:42Z</time>
      </trkpt>
      <trkpt lat="44.99074" lon="6.0897">
        <ele>882.6</ele>
        <time>2026-08-25T07:50:43Z</time>
      </trkpt>
      <trkpt lat="44.99071" lon="6.08975">
        <ele>882.8</ele>
        <time>2026-08-25T07:50:44Z</time>
      </trkpt>
      <trkpt lat="44.99069" lon="6.0898">
        <ele>882.9</ele>
        <time>2026-08-25T07:50:45Z</time>
      </trkpt>
      <trkpt lat="44.99067" lon="6.08986">
        <ele>883.1</ele>
        <time>2026-08-25T07:50:46Z</time>
      </trkpt>
      <trkpt lat="44.99066" lon="6.08992">
        <ele>883.3</ele>
        <time>2026-08-25T07:50:47Z</time>
      </trkpt>
      <trkpt lat="44.99065" lon="6.08997">
        <ele>883.5</ele>
        <time>2026-08-25T07:50:48Z</time>
      </trkpt>
      <trkpt lat="44.99064" lon="6.09002">
        <ele>883.6</ele>
        <time>2026-08-25T07:50:49Z</time>
      </trkpt>
      <trkpt lat="44.99063" lon="6.09006">
        <ele>883.8</ele>
        <time>2026-08-25T07:50:50Z</time>
      </trkpt>
      <trkpt lat="44.99063" lon="6.09011">
        <ele>883.9</ele>
        <time>2026-08-25T07:50:51Z</time>
      </trkpt>
      <trkpt lat="44.99063" lon="6.09016">
        <ele>884.1</ele>
        <time>2026-08-25T07:50:52Z</time>
      </trkpt>
      <trkpt lat="44.99063" lon="6.0902">
        <ele>884.3</ele>
        <time>2026-08-25T07:50:53Z</time>
      </trkpt>
      <trkpt lat="44.99063" lon="6.09025">
        <ele>884.4</ele>
        <time>2026-08-25T07:50:54Z</time>
      </trkpt>
      <trkpt lat="44.99063" lon="6.09031">
        <ele>884.5</ele>
        <time>2026-08-25T07:50:55Z</time>
      </trkpt>
      <trkpt lat="44.99063" lon="6.09037">
        <ele>884.6</ele>
        <time>2026-08-25T07:50:56Z</time>
      </trkpt>
      <trkpt lat="44.99063" lon="6.09043">
        <ele>884.8</ele>
        <time>2026-08-25T07:50:57Z</time>
      </trkpt>
      <trkpt lat="44.99063" lon="6.0905">
        <ele>884.9</ele>
        <time>2026-08-25T07:50:58Z</time>
      </trkpt>
      <trkpt lat="44.99063" lon="6.09056">
        <ele>884.9</ele>
        <time>2026-08-25T07:50:59Z</time>
      </trkpt>
      <trkpt lat="44.99063" lon="6.09063">
        <ele>885</ele>
        <time>2026-08-25T07:51:00Z</time>
      </trkpt>
      <trkpt lat="44.99064" lon="6.09069">
        <ele>885.1</ele>
        <time>2026-08-25T07:51:01Z</time>
      </trkpt>
      <trkpt lat="44.99064" lon="6.09076">
        <ele>885.2</ele>
        <time>2026-08-25T07:51:02Z</time>
      </trkpt>
      <trkpt lat="44.99064" lon="6.09082">
        <ele>885.2</ele>
        <time>2026-08-25T07:51:03Z</time>
      </trkpt>
      <trkpt lat="44.99064" lon="6.09089">
        <ele>885.3</ele>
        <time>2026-08-25T07:51:04Z</time>
      </trkpt>
      <trkpt lat="44.99064" lon="6.09096">
        <ele>885.4</ele>
        <time>2026-08-25T07:51:05Z</time>
      </trkpt>
      <trkpt lat="44.99065" lon="6.09103">
        <ele>885.4</ele>
        <time>2026-08-25T07:51:06Z</time>
      </trkpt>
      <trkpt lat="44.99066" lon="6.09109">
        <ele>885.5</ele>
        <time>2026-08-25T07:51:07Z</time>
      </trkpt>
      <trkpt lat="44.99066" lon="6.09116">
        <ele>885.6</ele>
        <time>2026-08-25T07:51:08Z</time>
      </trkpt>
      <trkpt lat="44.99067" lon="6.09122">
        <ele>885.7</ele>
        <time>2026-08-25T07:51:09Z</time>
      </trkpt>
      <trkpt lat="44.99068" lon="6.09128">
        <ele>885.8</ele>
        <time>2026-08-25T07:51:10Z</time>
      </trkpt>
      <trkpt lat="44.99069" lon="6.09134">
        <ele>885.9</ele>
        <time>2026-08-25T07:51:11Z</time>
      </trkpt>
      <trkpt lat="44.9907" lon="6.0914">
        <ele>885.9</ele>
        <time>2026-08-25T07:51:12Z</time>
      </trkpt>
      <trkpt lat="44.99071" lon="6.09145">
        <ele>886</ele>
        <time>2026-08-25T07:51:13Z</time>
      </trkpt>
      <trkpt lat="44.99072" lon="6.09151">
        <ele>886.1</ele>
        <time>2026-08-25T07:51:14Z</time>
      </trkpt>
      <trkpt lat="44.99073" lon="6.09156">
        <ele>886.1</ele>
        <time>2026-08-25T07:51:15Z</time>
      </trkpt>
      <trkpt lat="44.99075" lon="6.09163">
        <ele>886.2</ele>
        <time>2026-08-25T07:51:16Z</time>
      </trkpt>
      <trkpt lat="44.99076" lon="6.09169">
        <ele>886.2</ele>
        <time>2026-08-25T07:51:17Z</time>
      </trkpt>
      <trkpt lat="44.99078" lon="6.09176">
        <ele>886.2</ele>
        <time>2026-08-25T07:51:18Z</time>
      </trkpt>
      <trkpt lat="44.99079" lon="6.09184">
        <ele>886.3</ele>
        <time>2026-08-25T07:51:19Z</time>
      </trkpt>
      <trkpt lat="44.99081" lon="6.0919">
        <ele>886.3</ele>
        <time>2026-08-25T07:51:20Z</time>
      </trkpt>
      <trkpt lat="44.99083" lon="6.09197">
        <ele>886.3</ele>
        <time>2026-08-25T07:51:21Z</time>
      </trkpt>
      <trkpt lat="44.99084" lon="6.09204">
        <ele>886.4</ele>
        <time>2026-08-25T07:51:22Z</time>
      </trkpt>
      <trkpt lat="44.99086" lon="6.09211">
        <ele>886.4</ele>
        <time>2026-08-25T07:51:23Z</time>
      </trkpt>
      <trkpt lat="44.99087" lon="6.09218">
        <ele>886.5</ele>
        <time>2026-08-25T07:51:24Z</time>
      </trkpt>
      <trkpt lat="44.99089" lon="6.09225">
        <ele>886.5</ele>
        <time>2026-08-25T07:51:25Z</time>
      </trkpt>
      <trkpt lat="44.9909" lon="6.09233">
        <ele>886.6</ele>
        <time>2026-08-25T07:51:26Z</time>
      </trkpt>
      <trkpt lat="44.9909" lon="6.0924">
        <ele>886.7</ele>
        <time>2026-08-25T07:51:27Z</time>
      </trkpt>
      <trkpt lat="44.9909" lon="6.09247">
        <ele>886.7</ele>
        <time>2026-08-25T07:51:28Z</time>
      </trkpt>
      <trkpt lat="44.99091" lon="6.09254">
        <ele>886.8</ele>
        <time>2026-08-25T07:51:29Z</time>
      </trkpt>
      <trkpt lat="44.99091" lon="6.09262">
        <ele>886.9</ele>
        <time>2026-08-25T07:51:30Z</time>
      </trkpt>
      <trkpt lat="44.99091" lon="6.09269">
        <ele>887</ele>
        <time>2026-08-25T07:51:31Z</time>
      </trkpt>
      <trkpt lat="44.9909" lon="6.09277">
        <ele>887.1</ele>
        <time>2026-08-25T07:51:32Z</time>
      </trkpt>
      <trkpt lat="44.99089" lon="6.09284">
        <ele>887.2</ele>
        <time>2026-08-25T07:51:33Z</time>
      </trkpt>
      <trkpt lat="44.99088" lon="6.09291">
        <ele>887.3</ele>
        <time>2026-08-25T07:51:34Z</time>
      </trkpt>
      <trkpt lat="44.99087" lon="6.09298">
        <ele>887.4</ele>
        <time>2026-08-25T07:51:35Z</time>
      </trkpt>
      <trkpt lat="44.99086" lon="6.09304">
        <ele>887.5</ele>
        <time>2026-08-25T07:51:36Z</time>
      </trkpt>
      <trkpt lat="44.99085" lon="6.09311">
        <ele>887.6</ele>
        <time>2026-08-25T07:51:37Z</time>
      </trkpt>
      <trkpt lat="44.99084" lon="6.09319">
        <ele>887.7</ele>
        <time>2026-08-25T07:51:38Z</time>
      </trkpt>
      <trkpt lat="44.99083" lon="6.09326">
        <ele>887.8</ele>
        <time>2026-08-25T07:51:39Z</time>
      </trkpt>
      <trkpt lat="44.99081" lon="6.09333">
        <ele>887.8</ele>
        <time>2026-08-25T07:51:40Z</time>
      </trkpt>
      <trkpt lat="44.9908" lon="6.0934">
        <ele>887.9</ele>
        <time>2026-08-25T07:51:41Z</time>
      </trkpt>
      <trkpt lat="44.99079" lon="6.09348">
        <ele>888</ele>
        <time>2026-08-25T07:51:42Z</time>
      </trkpt>
      <trkpt lat="44.99077" lon="6.09355">
        <ele>888</ele>
        <time>2026-08-25T07:51:43Z</time>
      </trkpt>
      <trkpt lat="44.99076" lon="6.09362">
        <ele>888.1</ele>
        <time>2026-08-25T07:51:44Z</time>
      </trkpt>
      <trkpt lat="44.99074" lon="6.0937">
        <ele>888.2</ele>
        <time>2026-08-25T07:51:45Z</time>
      </trkpt>
      <trkpt lat="44.99072" lon="6.09377">
        <ele>888.2</ele>
        <time>2026-08-25T07:51:46Z</time>
      </trkpt>
      <trkpt lat="44.9907" lon="6.09385">
        <ele>888.3</ele>
        <time>2026-08-25T07:51:47Z</time>
      </trkpt>
      <trkpt lat="44.99068" lon="6.09391">
        <ele>888.4</ele>
        <time>2026-08-25T07:51:48Z</time>
      </trkpt>
      <trkpt lat="44.99065" lon="6.09398">
        <ele>888.5</ele>
        <time>2026-08-25T07:51:49Z</time>
      </trkpt>
      <trkpt lat="44.99063" lon="6.09404">
        <ele>888.6</ele>
        <time>2026-08-25T07:51:50Z</time>
      </trkpt>
      <trkpt lat="44.9906" lon="6.0941">
        <ele>888.7</ele>
        <time>2026-08-25T07:51:51Z</time>
      </trkpt>
      <trkpt lat="44.99057" lon="6.09417">
        <ele>888.8</ele>
        <time>2026-08-25T07:51:52Z</time>
      </trkpt>
      <trkpt lat="44.99055" lon="6.09423">
        <ele>888.9</ele>
        <time>2026-08-25T07:51:53Z</time>
      </trkpt>
      <trkpt lat="44.99052" lon="6.0943">
        <ele>889</ele>
        <time>2026-08-25T07:51:54Z</time>
      </trkpt>
      <trkpt lat="44.9905" lon="6.09437">
        <ele>889</ele>
        <time>2026-08-25T07:51:55Z</time>
      </trkpt>
      <trkpt lat="44.99047" lon="6.09443">
        <ele>889.1</ele>
        <time>2026-08-25T07:51:56Z</time>
      </trkpt>
      <trkpt lat="44.99045" lon="6.0945">
        <ele>889.2</ele>
        <time>2026-08-25T07:51:57Z</time>
      </trkpt>
      <trkpt lat="44.99042" lon="6.09456">
        <ele>889.3</ele>
        <time>2026-08-25T07:51:58Z</time>
      </trkpt>
      <trkpt lat="44.9904" lon="6.09463">
        <ele>889.4</ele>
        <time>2026-08-25T07:51:59Z</time>
      </trkpt>
      <trkpt lat="44.99037" lon="6.0947">
        <ele>889.5</ele>
        <time>2026-08-25T07:52:00Z</time>
      </trkpt>
      <trkpt lat="44.99035" lon="6.09478">
        <ele>889.6</ele>
        <time>2026-08-25T07:52:01Z</time>
      </trkpt>
      <trkpt lat="44.99034" lon="6.09484">
        <ele>889.7</ele>
        <time>2026-08-25T07:52:02Z</time>
      </trkpt>
      <trkpt lat="44.99032" lon="6.09491">
        <ele>889.8</ele>
        <time>2026-08-25T07:52:03Z</time>
      </trkpt>
      <trkpt lat="44.99031" lon="6.09498">
        <ele>889.9</ele>
        <time>2026-08-25T07:52:04Z</time>
      </trkpt>
      <trkpt lat="44.9903" lon="6.09505">
        <ele>889.9</ele>
        <time>2026-08-25T07:52:05Z</time>
      </trkpt>
      <trkpt lat="44.99029" lon="6.09512">
        <ele>890</ele>
        <time>2026-08-25T07:52:06Z</time>
      </trkpt>
      <trkpt lat="44.99028" lon="6.0952">
        <ele>890.1</ele>
        <time>2026-08-25T07:52:07Z</time>
      </trkpt>
      <trkpt lat="44.99027" lon="6.09527">
        <ele>890.1</ele>
        <time>2026-08-25T07:52:08Z</time>
      </trkpt>
      <trkpt lat="44.99026" lon="6.09534">
        <ele>890.2</ele>
        <time>2026-08-25T07:52:09Z</time>
      </trkpt>
      <trkpt lat="44.99026" lon="6.09542">
        <ele>890.3</ele>
        <time>2026-08-25T07:52:10Z</time>
      </trkpt>
      <trkpt lat="44.99025" lon="6.0955">
        <ele>890.4</ele>
        <time>2026-08-25T07:52:11Z</time>
      </trkpt>
      <trkpt lat="44.99024" lon="6.09558">
        <ele>890.5</ele>
        <time>2026-08-25T07:52:12Z</time>
      </trkpt>
      <trkpt lat="44.99023" lon="6.09565">
        <ele>890.6</ele>
        <time>2026-08-25T07:52:13Z</time>
      </trkpt>
      <trkpt lat="44.99021" lon="6.09573">
        <ele>890.8</ele>
        <time>2026-08-25T07:52:14Z</time>
      </trkpt>
      <trkpt lat="44.9902" lon="6.0958">
        <ele>890.9</ele>
        <time>2026-08-25T07:52:15Z</time>
      </trkpt>
      <trkpt lat="44.99018" lon="6.09587">
        <ele>891.1</ele>
        <time>2026-08-25T07:52:16Z</time>
      </trkpt>
      <trkpt lat="44.99017" lon="6.09594">
        <ele>891.3</ele>
        <time>2026-08-25T07:52:17Z</time>
      </trkpt>
      <trkpt lat="44.99015" lon="6.09601">
        <ele>891.5</ele>
        <time>2026-08-25T07:52:18Z</time>
      </trkpt>
      <trkpt lat="44.99013" lon="6.09607">
        <ele>891.7</ele>
        <time>2026-08-25T07:52:19Z</time>
      </trkpt>
      <trkpt lat="44.99011" lon="6.09614">
        <ele>892</ele>
        <time>2026-08-25T07:52:20Z</time>
      </trkpt>
      <trkpt lat="44.99009" lon="6.0962">
        <ele>892.2</ele>
        <time>2026-08-25T07:52:21Z</time>
      </trkpt>
      <trkpt lat="44.99006" lon="6.09626">
        <ele>892.4</ele>
        <time>2026-08-25T07:52:22Z</time>
      </trkpt>
      <trkpt lat="44.99004" lon="6.09631">
        <ele>892.7</ele>
        <time>2026-08-25T07:52:23Z</time>
      </trkpt>
      <trkpt lat="44.99002" lon="6.09637">
        <ele>892.9</ele>
        <time>2026-08-25T07:52:24Z</time>
      </trkpt>
      <trkpt lat="44.98999" lon="6.09642">
        <ele>893.1</ele>
        <time>2026-08-25T07:52:25Z</time>
      </trkpt>
      <trkpt lat="44.98997" lon="6.09648">
        <ele>893.4</ele>
        <time>2026-08-25T07:52:26Z</time>
      </trkpt>
      <trkpt lat="44.98995" lon="6.09654">
        <ele>893.6</ele>
        <time>2026-08-25T07:52:27Z</time>
      </trkpt>
      <trkpt lat="44.98993" lon="6.09659">
        <ele>893.8</ele>
        <time>2026-08-25T07:52:28Z</time>
      </trkpt>
      <trkpt lat="44.9899" lon="6.09664">
        <ele>894.1</ele>
        <time>2026-08-25T07:52:29Z</time>
      </trkpt>
      <trkpt lat="44.98988" lon="6.0967">
        <ele>894.3</ele>
        <time>2026-08-25T07:52:30Z</time>
      </trkpt>
      <trkpt lat="44.98986" lon="6.09675">
        <ele>894.5</ele>
        <time>2026-08-25T07:52:31Z</time>
      </trkpt>
      <trkpt lat="44.98983" lon="6.09681">
        <ele>894.8</ele>
        <time>2026-08-25T07:52:32Z</time>
      </trkpt>
      <trkpt lat="44.98981" lon="6.09687">
        <ele>895</ele>
        <time>2026-08-25T07:52:33Z</time>
      </trkpt>
      <trkpt lat="44.98979" lon="6.09693">
        <ele>895.2</ele>
        <time>2026-08-25T07:52:34Z</time>
      </trkpt>
      <trkpt lat="44.98977" lon="6.09699">
        <ele>895.4</ele>
        <time>2026-08-25T07:52:35Z</time>
      </trkpt>
      <trkpt lat="44.98975" lon="6.09704">
        <ele>895.6</ele>
        <time>2026-08-25T07:52:36Z</time>
      </trkpt>
      <trkpt lat="44.98973" lon="6.09711">
        <ele>895.8</ele>
        <time>2026-08-25T07:52:37Z</time>
      </trkpt>
      <trkpt lat="44.9897" lon="6.09717">
        <ele>895.9</ele>
        <time>2026-08-25T07:52:38Z</time>
      </trkpt>
      <trkpt lat="44.98968" lon="6.09723">
        <ele>896.1</ele>
        <time>2026-08-25T07:52:39Z</time>
      </trkpt>
      <trkpt lat="44.98966" lon="6.09728">
        <ele>896.3</ele>
        <time>2026-08-25T07:52:40Z</time>
      </trkpt>
      <trkpt lat="44.98964" lon="6.09734">
        <ele>896.5</ele>
        <time>2026-08-25T07:52:41Z</time>
      </trkpt>
      <trkpt lat="44.98962" lon="6.0974">
        <ele>896.7</ele>
        <time>2026-08-25T07:52:42Z</time>
      </trkpt>
      <trkpt lat="44.9896" lon="6.09746">
        <ele>896.9</ele>
        <time>2026-08-25T07:52:43Z</time>
      </trkpt>
      <trkpt lat="44.98958" lon="6.09752">
        <ele>897.1</ele>
        <time>2026-08-25T07:52:44Z</time>
      </trkpt>
      <trkpt lat="44.98955" lon="6.09758">
        <ele>897.3</ele>
        <time>2026-08-25T07:52:45Z</time>
      </trkpt>
      <trkpt lat="44.98953" lon="6.09764">
        <ele>897.4</ele>
        <time>2026-08-25T07:52:46Z</time>
      </trkpt>
      <trkpt lat="44.9895" lon="6.09769">
        <ele>897.6</ele>
        <time>2026-08-25T07:52:47Z</time>
      </trkpt>
      <trkpt lat="44.98948" lon="6.09775">
        <ele>897.8</ele>
        <time>2026-08-25T07:52:48Z</time>
      </trkpt>
      <trkpt lat="44.98945" lon="6.0978">
        <ele>898</ele>
        <time>2026-08-25T07:52:49Z</time>
      </trkpt>
      <trkpt lat="44.98942" lon="6.09786">
        <ele>898.1</ele>
        <time>2026-08-25T07:52:50Z</time>
      </trkpt>
      <trkpt lat="44.9894" lon="6.09792">
        <ele>898.3</ele>
        <time>2026-08-25T07:52:51Z</time>
      </trkpt>
      <trkpt lat="44.98938" lon="6.09797">
        <ele>898.5</ele>
        <time>2026-08-25T07:52:52Z</time>
      </trkpt>
      <trkpt lat="44.98935" lon="6.09803">
        <ele>898.7</ele>
        <time>2026-08-25T07:52:53Z</time>
      </trkpt>
      <trkpt lat="44.98933" lon="6.09809">
        <ele>898.9</ele>
        <time>2026-08-25T07:52:54Z</time>
      </trkpt>
      <trkpt lat="44.98931" lon="6.09814">
        <ele>899.1</ele>
        <time>2026-08-25T07:52:55Z</time>
      </trkpt>
      <trkpt lat="44.98928" lon="6.0982">
        <ele>899.3</ele>
        <time>2026-08-25T07:52:56Z</time>
      </trkpt>
      <trkpt lat="44.98926" lon="6.09826">
        <ele>899.4</ele>
        <time>2026-08-25T07:52:57Z</time>
      </trkpt>
      <trkpt lat="44.98923" lon="6.09832">
        <ele>899.6</ele>
        <time>2026-08-25T07:52:58Z</time>
      </trkpt>
      <trkpt lat="44.98921" lon="6.09837">
        <ele>899.8</ele>
        <time>2026-08-25T07:52:59Z</time>
      </trkpt>
      <trkpt lat="44.98919" lon="6.09843">
        <ele>900</ele>
        <time>2026-08-25T07:53:00Z</time>
      </trkpt>
      <trkpt lat="44.98917" lon="6.09849">
        <ele>900.1</ele>
        <time>2026-08-25T07:53:01Z</time>
      </trkpt>
      <trkpt lat="44.98916" lon="6.09855">
        <ele>900.3</ele>
        <time>2026-08-25T07:53:02Z</time>
      </trkpt>
      <trkpt lat="44.98914" lon="6.09861">
        <ele>900.4</ele>
        <time>2026-08-25T07:53:03Z</time>
      </trkpt>
      <trkpt lat="44.98913" lon="6.09867">
        <ele>900.6</ele>
        <time>2026-08-25T07:53:04Z</time>
      </trkpt>
      <trkpt lat="44.98911" lon="6.09874">
        <ele>900.8</ele>
        <time>2026-08-25T07:53:05Z</time>
      </trkpt>
      <trkpt lat="44.9891" lon="6.0988">
        <ele>900.9</ele>
        <time>2026-08-25T07:53:06Z</time>
      </trkpt>
      <trkpt lat="44.9891" lon="6.09886">
        <ele>901.1</ele>
        <time>2026-08-25T07:53:07Z</time>
      </trkpt>
      <trkpt lat="44.9891" lon="6.09893">
        <ele>901.2</ele>
        <time>2026-08-25T07:53:08Z</time>
      </trkpt>
      <trkpt lat="44.9891" lon="6.09899">
        <ele>901.4</ele>
        <time>2026-08-25T07:53:09Z</time>
      </trkpt>
      <trkpt lat="44.98911" lon="6.09905">
        <ele>901.5</ele>
        <time>2026-08-25T07:53:10Z</time>
      </trkpt>
      <trkpt lat="44.98912" lon="6.09911">
        <ele>901.6</ele>
        <time>2026-08-25T07:53:11Z</time>
      </trkpt>
      <trkpt lat="44.98913" lon="6.09917">
        <ele>901.7</ele>
        <time>2026-08-25T07:53:12Z</time>
      </trkpt>
      <trkpt lat="44.98914" lon="6.09923">
        <ele>901.8</ele>
        <time>2026-08-25T07:53:13Z</time>
      </trkpt>
      <trkpt lat="44.98916" lon="6.09929">
        <ele>901.9</ele>
        <time>2026-08-25T07:53:14Z</time>
      </trkpt>
      <trkpt lat="44.98917" lon="6.09935">
        <ele>901.9</ele>
        <time>2026-08-25T07:53:15Z</time>
      </trkpt>
      <trkpt lat="44.98919" lon="6.09941">
        <ele>902</ele>
        <time>2026-08-25T07:53:16Z</time>
      </trkpt>
      <trkpt lat="44.98921" lon="6.09947">
        <ele>902</ele>
        <time>2026-08-25T07:53:17Z</time>
      </trkpt>
      <trkpt lat="44.98924" lon="6.09953">
        <ele>902</ele>
        <time>2026-08-25T07:53:18Z</time>
      </trkpt>
      <trkpt lat="44.98925" lon="6.0996">
        <ele>902</ele>
        <time>2026-08-25T07:53:19Z</time>
      </trkpt>
      <trkpt lat="44.98927" lon="6.09966">
        <ele>902</ele>
        <time>2026-08-25T07:53:20Z</time>
      </trkpt>
      <trkpt lat="44.98929" lon="6.09973">
        <ele>902.1</ele>
        <time>2026-08-25T07:53:21Z</time>
      </trkpt>
      <trkpt lat="44.98931" lon="6.0998">
        <ele>902.1</ele>
        <time>2026-08-25T07:53:22Z</time>
      </trkpt>
      <trkpt lat="44.98933" lon="6.09987">
        <ele>902.1</ele>
        <time>2026-08-25T07:53:23Z</time>
      </trkpt>
      <trkpt lat="44.98935" lon="6.09994">
        <ele>902.1</ele>
        <time>2026-08-25T07:53:24Z</time>
      </trkpt>
      <trkpt lat="44.98937" lon="6.10002">
        <ele>902.1</ele>
        <time>2026-08-25T07:53:25Z</time>
      </trkpt>
      <trkpt lat="44.98939" lon="6.1001">
        <ele>902.2</ele>
        <time>2026-08-25T07:53:26Z</time>
      </trkpt>
      <trkpt lat="44.98941" lon="6.10017">
        <ele>902.2</ele>
        <time>2026-08-25T07:53:27Z</time>
      </trkpt>
      <trkpt lat="44.98942" lon="6.10024">
        <ele>902.3</ele>
        <time>2026-08-25T07:53:28Z</time>
      </trkpt>
      <trkpt lat="44.98944" lon="6.10031">
        <ele>902.4</ele>
        <time>2026-08-25T07:53:29Z</time>
      </trkpt>
      <trkpt lat="44.98947" lon="6.10038">
        <ele>902.5</ele>
        <time>2026-08-25T07:53:30Z</time>
      </trkpt>
      <trkpt lat="44.98949" lon="6.10044">
        <ele>902.6</ele>
        <time>2026-08-25T07:53:31Z</time>
      </trkpt>
      <trkpt lat="44.98951" lon="6.10051">
        <ele>902.7</ele>
        <time>2026-08-25T07:53:32Z</time>
      </trkpt>
      <trkpt lat="44.98954" lon="6.10058">
        <ele>902.8</ele>
        <time>2026-08-25T07:53:33Z</time>
      </trkpt>
      <trkpt lat="44.98956" lon="6.10064">
        <ele>902.9</ele>
        <time>2026-08-25T07:53:34Z</time>
      </trkpt>
      <trkpt lat="44.98959" lon="6.10071">
        <ele>903</ele>
        <time>2026-08-25T07:53:35Z</time>
      </trkpt>
      <trkpt lat="44.98961" lon="6.10077">
        <ele>903</ele>
        <time>2026-08-25T07:53:36Z</time>
      </trkpt>
      <trkpt lat="44.98963" lon="6.10084">
        <ele>903.1</ele>
        <time>2026-08-25T07:53:37Z</time>
      </trkpt>
      <trkpt lat="44.98965" lon="6.10091">
        <ele>903.2</ele>
        <time>2026-08-25T07:53:38Z</time>
      </trkpt>
      <trkpt lat="44.98967" lon="6.10098">
        <ele>903.3</ele>
        <time>2026-08-25T07:53:39Z</time>
      </trkpt>
      <trkpt lat="44.9897" lon="6.10104">
        <ele>903.4</ele>
        <time>2026-08-25T07:53:40Z</time>
      </trkpt>
      <trkpt lat="44.98972" lon="6.10111">
        <ele>903.5</ele>
        <time>2026-08-25T07:53:41Z</time>
      </trkpt>
      <trkpt lat="44.98974" lon="6.10117">
        <ele>903.6</ele>
        <time>2026-08-25T07:53:42Z</time>
      </trkpt>
      <trkpt lat="44.98975" lon="6.10124">
        <ele>903.7</ele>
        <time>2026-08-25T07:53:43Z</time>
      </trkpt>
      <trkpt lat="44.98976" lon="6.10131">
        <ele>903.8</ele>
        <time>2026-08-25T07:53:44Z</time>
      </trkpt>
      <trkpt lat="44.98977" lon="6.10138">
        <ele>903.9</ele>
        <time>2026-08-25T07:53:45Z</time>
      </trkpt>
      <trkpt lat="44.98976" lon="6.10146">
        <ele>903.9</ele>
        <time>2026-08-25T07:53:46Z</time>
      </trkpt>
      <trkpt lat="44.98975" lon="6.10153">
        <ele>904</ele>
        <time>2026-08-25T07:53:47Z</time>
      </trkpt>
      <trkpt lat="44.98974" lon="6.1016">
        <ele>904</ele>
        <time>2026-08-25T07:53:48Z</time>
      </trkpt>
      <trkpt lat="44.98973" lon="6.10167">
        <ele>904</ele>
        <time>2026-08-25T07:53:49Z</time>
      </trkpt>
      <trkpt lat="44.98971" lon="6.10175">
        <ele>904.1</ele>
        <time>2026-08-25T07:53:50Z</time>
      </trkpt>
      <trkpt lat="44.9897" lon="6.10182">
        <ele>904.1</ele>
        <time>2026-08-25T07:53:51Z</time>
      </trkpt>
      <trkpt lat="44.98968" lon="6.10189">
        <ele>904.2</ele>
        <time>2026-08-25T07:53:52Z</time>
      </trkpt>
      <trkpt lat="44.98966" lon="6.10197">
        <ele>904.3</ele>
        <time>2026-08-25T07:53:53Z</time>
      </trkpt>
      <trkpt lat="44.98964" lon="6.10204">
        <ele>904.3</ele>
        <time>2026-08-25T07:53:54Z</time>
      </trkpt>
      <trkpt lat="44.98962" lon="6.10211">
        <ele>904.4</ele>
        <time>2026-08-25T07:53:55Z</time>
      </trkpt>
      <trkpt lat="44.98959" lon="6.10218">
        <ele>904.4</ele>
        <time>2026-08-25T07:53:56Z</time>
      </trkpt>
      <trkpt lat="44.98956" lon="6.10225">
        <ele>904.5</ele>
        <time>2026-08-25T07:53:57Z</time>
      </trkpt>
      <trkpt lat="44.98952" lon="6.1023">
        <ele>904.5</ele>
        <time>2026-08-25T07:53:58Z</time>
      </trkpt>
      <trkpt lat="44.98948" lon="6.10235">
        <ele>904.5</ele>
        <time>2026-08-25T07:53:59Z</time>
      </trkpt>
      <trkpt lat="44.98944" lon="6.1024">
        <ele>904.6</ele>
        <time>2026-08-25T07:54:00Z</time>
      </trkpt>
      <trkpt lat="44.98939" lon="6.10245">
        <ele>904.5</ele>
        <time>2026-08-25T07:54:01Z</time>
      </trkpt>
      <trkpt lat="44.98934" lon="6.10249">
        <ele>904.5</ele>
        <time>2026-08-25T07:54:02Z</time>
      </trkpt>
      <trkpt lat="44.98929" lon="6.10254">
        <ele>904.4</ele>
        <time>2026-08-25T07:54:03Z</time>
      </trkpt>
      <trkpt lat="44.98923" lon="6.10259">
        <ele>904.4</ele>
        <time>2026-08-25T07:54:04Z</time>
      </trkpt>
      <trkpt lat="44.98918" lon="6.10263">
        <ele>904.5</ele>
        <time>2026-08-25T07:54:05Z</time>
      </trkpt>
      <trkpt lat="44.98913" lon="6.10267">
        <ele>904.5</ele>
        <time>2026-08-25T07:54:06Z</time>
      </trkpt>
      <trkpt lat="44.98908" lon="6.10272">
        <ele>904.6</ele>
        <time>2026-08-25T07:54:07Z</time>
      </trkpt>
      <trkpt lat="44.98903" lon="6.10276">
        <ele>904.6</ele>
        <time>2026-08-25T07:54:08Z</time>
      </trkpt>
      <trkpt lat="44.98897" lon="6.10281">
        <ele>904.7</ele>
        <time>2026-08-25T07:54:09Z</time>
      </trkpt>
      <trkpt lat="44.98892" lon="6.10286">
        <ele>904.8</ele>
        <time>2026-08-25T07:54:10Z</time>
      </trkpt>
      <trkpt lat="44.98888" lon="6.10291">
        <ele>904.9</ele>
        <time>2026-08-25T07:54:11Z</time>
      </trkpt>
      <trkpt lat="44.98883" lon="6.10296">
        <ele>905</ele>
        <time>2026-08-25T07:54:12Z</time>
      </trkpt>
      <trkpt lat="44.98879" lon="6.10301">
        <ele>905.1</ele>
        <time>2026-08-25T07:54:13Z</time>
      </trkpt>
      <trkpt lat="44.98875" lon="6.10306">
        <ele>905.3</ele>
        <time>2026-08-25T07:54:14Z</time>
      </trkpt>
      <trkpt lat="44.9887" lon="6.10311">
        <ele>905.4</ele>
        <time>2026-08-25T07:54:15Z</time>
      </trkpt>
      <trkpt lat="44.98866" lon="6.10316">
        <ele>905.6</ele>
        <time>2026-08-25T07:54:16Z</time>
      </trkpt>
      <trkpt lat="44.98863" lon="6.10321">
        <ele>905.8</ele>
        <time>2026-08-25T07:54:17Z</time>
      </trkpt>
      <trkpt lat="44.98859" lon="6.10326">
        <ele>906</ele>
        <time>2026-08-25T07:54:18Z</time>
      </trkpt>
      <trkpt lat="44.98855" lon="6.10331">
        <ele>906.2</ele>
        <time>2026-08-25T07:54:19Z</time>
      </trkpt>
      <trkpt lat="44.98852" lon="6.10336">
        <ele>906.4</ele>
        <time>2026-08-25T07:54:20Z</time>
      </trkpt>
      <trkpt lat="44.98848" lon="6.10341">
        <ele>906.6</ele>
        <time>2026-08-25T07:54:21Z</time>
      </trkpt>
      <trkpt lat="44.98845" lon="6.10346">
        <ele>906.8</ele>
        <time>2026-08-25T07:54:22Z</time>
      </trkpt>
      <trkpt lat="44.98841" lon="6.10351">
        <ele>907</ele>
        <time>2026-08-25T07:54:23Z</time>
      </trkpt>
      <trkpt lat="44.98838" lon="6.10355">
        <ele>907.2</ele>
        <time>2026-08-25T07:54:24Z</time>
      </trkpt>
      <trkpt lat="44.98835" lon="6.1036">
        <ele>907.4</ele>
        <time>2026-08-25T07:54:25Z</time>
      </trkpt>
      <trkpt lat="44.98832" lon="6.10365">
        <ele>907.5</ele>
        <time>2026-08-25T07:54:26Z</time>
      </trkpt>
      <trkpt lat="44.98829" lon="6.10369">
        <ele>907.7</ele>
        <time>2026-08-25T07:54:27Z</time>
      </trkpt>
      <trkpt lat="44.98826" lon="6.10373">
        <ele>907.9</ele>
        <time>2026-08-25T07:54:28Z</time>
      </trkpt>
      <trkpt lat="44.98822" lon="6.10378">
        <ele>908.1</ele>
        <time>2026-08-25T07:54:29Z</time>
      </trkpt>
      <trkpt lat="44.98819" lon="6.10383">
        <ele>908.3</ele>
        <time>2026-08-25T07:54:30Z</time>
      </trkpt>
      <trkpt lat="44.98817" lon="6.10388">
        <ele>908.4</ele>
        <time>2026-08-25T07:54:31Z</time>
      </trkpt>
      <trkpt lat="44.98814" lon="6.10393">
        <ele>908.6</ele>
        <time>2026-08-25T07:54:32Z</time>
      </trkpt>
      <trkpt lat="44.98811" lon="6.10398">
        <ele>908.8</ele>
        <time>2026-08-25T07:54:33Z</time>
      </trkpt>
      <trkpt lat="44.98809" lon="6.10403">
        <ele>909</ele>
        <time>2026-08-25T07:54:34Z</time>
      </trkpt>
      <trkpt lat="44.98806" lon="6.10408">
        <ele>909.2</ele>
        <time>2026-08-25T07:54:35Z</time>
      </trkpt>
      <trkpt lat="44.98804" lon="6.10413">
        <ele>909.4</ele>
        <time>2026-08-25T07:54:36Z</time>
      </trkpt>
      <trkpt lat="44.98801" lon="6.10417">
        <ele>909.6</ele>
        <time>2026-08-25T07:54:37Z</time>
      </trkpt>
      <trkpt lat="44.98799" lon="6.10422">
        <ele>909.7</ele>
        <time>2026-08-25T07:54:38Z</time>
      </trkpt>
      <trkpt lat="44.98796" lon="6.10426">
        <ele>909.9</ele>
        <time>2026-08-25T07:54:39Z</time>
      </trkpt>
      <trkpt lat="44.98793" lon="6.10431">
        <ele>910.1</ele>
        <time>2026-08-25T07:54:40Z</time>
      </trkpt>
      <trkpt lat="44.98791" lon="6.10436">
        <ele>910.3</ele>
        <time>2026-08-25T07:54:41Z</time>
      </trkpt>
      <trkpt lat="44.98788" lon="6.1044">
        <ele>910.5</ele>
        <time>2026-08-25T07:54:42Z</time>
      </trkpt>
      <trkpt lat="44.98786" lon="6.10444">
        <ele>910.6</ele>
        <time>2026-08-25T07:54:43Z</time>
      </trkpt>
      <trkpt lat="44.98783" lon="6.10448">
        <ele>910.8</ele>
        <time>2026-08-25T07:54:44Z</time>
      </trkpt>
      <trkpt lat="44.9878" lon="6.10452">
        <ele>911</ele>
        <time>2026-08-25T07:54:45Z</time>
      </trkpt>
      <trkpt lat="44.98777" lon="6.10455">
        <ele>911.2</ele>
        <time>2026-08-25T07:54:46Z</time>
      </trkpt>
      <trkpt lat="44.98774" lon="6.1046">
        <ele>911.4</ele>
        <time>2026-08-25T07:54:47Z</time>
      </trkpt>
      <trkpt lat="44.98772" lon="6.10465">
        <ele>911.7</ele>
        <time>2026-08-25T07:54:48Z</time>
      </trkpt>
      <trkpt lat="44.98769" lon="6.10468">
        <ele>911.9</ele>
        <time>2026-08-25T07:54:49Z</time>
      </trkpt>
      <trkpt lat="44.98767" lon="6.10472">
        <ele>912.1</ele>
        <time>2026-08-25T07:54:50Z</time>
      </trkpt>
      <trkpt lat="44.98765" lon="6.10475">
        <ele>912.3</ele>
        <time>2026-08-25T07:54:51Z</time>
      </trkpt>
      <trkpt lat="44.98763" lon="6.10478">
        <ele>912.6</ele>
        <time>2026-08-25T07:54:52Z</time>
      </trkpt>
      <trkpt lat="44.98761" lon="6.10482">
        <ele>912.8</ele>
        <time>2026-08-25T07:54:53Z</time>
      </trkpt>
      <trkpt lat="44.98759" lon="6.10486">
        <ele>913.1</ele>
        <time>2026-08-25T07:54:54Z</time>
      </trkpt>
      <trkpt lat="44.98757" lon="6.10489">
        <ele>913.3</ele>
        <time>2026-08-25T07:54:55Z</time>
      </trkpt>
      <trkpt lat="44.98755" lon="6.10493">
        <ele>913.6</ele>
        <time>2026-08-25T07:54:56Z</time>
      </trkpt>
      <trkpt lat="44.98753" lon="6.10497">
        <ele>913.8</ele>
        <time>2026-08-25T07:54:57Z</time>
      </trkpt>
      <trkpt lat="44.98751" lon="6.10501">
        <ele>914.1</ele>
        <time>2026-08-25T07:54:58Z</time>
      </trkpt>
      <trkpt lat="44.9875" lon="6.10504">
        <ele>914.3</ele>
        <time>2026-08-25T07:54:59Z</time>
      </trkpt>
      <trkpt lat="44.98748" lon="6.10508">
        <ele>914.6</ele>
        <time>2026-08-25T07:55:00Z</time>
      </trkpt>
      <trkpt lat="44.98747" lon="6.10512">
        <ele>914.8</ele>
        <time>2026-08-25T07:55:01Z</time>
      </trkpt>
      <trkpt lat="44.98746" lon="6.10516">
        <ele>915.1</ele>
        <time>2026-08-25T07:55:02Z</time>
      </trkpt>
      <trkpt lat="44.98744" lon="6.1052">
        <ele>915.3</ele>
        <time>2026-08-25T07:55:03Z</time>
      </trkpt>
      <trkpt lat="44.98743" lon="6.10524">
        <ele>915.5</ele>
        <time>2026-08-25T07:55:04Z</time>
      </trkpt>
      <trkpt lat="44.98742" lon="6.10529">
        <ele>915.8</ele>
        <time>2026-08-25T07:55:05Z</time>
      </trkpt>
      <trkpt lat="44.98742" lon="6.10533">
        <ele>916</ele>
        <time>2026-08-25T07:55:06Z</time>
      </trkpt>
      <trkpt lat="44.98741" lon="6.10538">
        <ele>916.3</ele>
        <time>2026-08-25T07:55:07Z</time>
      </trkpt>
      <trkpt lat="44.9874" lon="6.10542">
        <ele>916.5</ele>
        <time>2026-08-25T07:55:08Z</time>
      </trkpt>
      <trkpt lat="44.98739" lon="6.10547">
        <ele>916.8</ele>
        <time>2026-08-25T07:55:09Z</time>
      </trkpt>
      <trkpt lat="44.98738" lon="6.1055">
        <ele>917</ele>
        <time>2026-08-25T07:55:10Z</time>
      </trkpt>
      <trkpt lat="44.98737" lon="6.10554">
        <ele>917.2</ele>
        <time>2026-08-25T07:55:11Z</time>
      </trkpt>
      <trkpt lat="44.98736" lon="6.10558">
        <ele>917.4</ele>
        <time>2026-08-25T07:55:12Z</time>
      </trkpt>
      <trkpt lat="44.98734" lon="6.10561">
        <ele>917.6</ele>
        <time>2026-08-25T07:55:13Z</time>
      </trkpt>
      <trkpt lat="44.98732" lon="6.10565">
        <ele>917.8</ele>
        <time>2026-08-25T07:55:14Z</time>
      </trkpt>
      <trkpt lat="44.9873" lon="6.10568">
        <ele>918</ele>
        <time>2026-08-25T07:55:15Z</time>
      </trkpt>
      <trkpt lat="44.98728" lon="6.10571">
        <ele>918.2</ele>
        <time>2026-08-25T07:55:16Z</time>
      </trkpt>
      <trkpt lat="44.98725" lon="6.10574">
        <ele>918.5</ele>
        <time>2026-08-25T07:55:17Z</time>
      </trkpt>
      <trkpt lat="44.98722" lon="6.10577">
        <ele>918.7</ele>
        <time>2026-08-25T07:55:18Z</time>
      </trkpt>
      <trkpt lat="44.9872" lon="6.10579">
        <ele>918.9</ele>
        <time>2026-08-25T07:55:19Z</time>
      </trkpt>
      <trkpt lat="44.98717" lon="6.10582">
        <ele>919.2</ele>
        <time>2026-08-25T07:55:20Z</time>
      </trkpt>
      <trkpt lat="44.98714" lon="6.10585">
        <ele>919.5</ele>
        <time>2026-08-25T07:55:21Z</time>
      </trkpt>
      <trkpt lat="44.98712" lon="6.10588">
        <ele>919.8</ele>
        <time>2026-08-25T07:55:22Z</time>
      </trkpt>
      <trkpt lat="44.9871" lon="6.1059">
        <ele>920</ele>
        <time>2026-08-25T07:55:23Z</time>
      </trkpt>
      <trkpt lat="44.98708" lon="6.10592">
        <ele>920.3</ele>
        <time>2026-08-25T07:55:24Z</time>
      </trkpt>
      <trkpt lat="44.98706" lon="6.10595">
        <ele>920.5</ele>
        <time>2026-08-25T07:55:25Z</time>
      </trkpt>
      <trkpt lat="44.98705" lon="6.10599">
        <ele>920.8</ele>
        <time>2026-08-25T07:55:26Z</time>
      </trkpt>
      <trkpt lat="44.98704" lon="6.10603">
        <ele>921.1</ele>
        <time>2026-08-25T07:55:27Z</time>
      </trkpt>
      <trkpt lat="44.98703" lon="6.10608">
        <ele>921.4</ele>
        <time>2026-08-25T07:55:28Z</time>
      </trkpt>
      <trkpt lat="44.98702" lon="6.10612">
        <ele>921.7</ele>
        <time>2026-08-25T07:55:29Z</time>
      </trkpt>
      <trkpt lat="44.98701" lon="6.10617">
        <ele>921.9</ele>
        <time>2026-08-25T07:55:30Z</time>
      </trkpt>
      <trkpt lat="44.98701" lon="6.1062">
        <ele>922.2</ele>
        <time>2026-08-25T07:55:31Z</time>
      </trkpt>
      <trkpt lat="44.987" lon="6.10624">
        <ele>922.4</ele>
        <time>2026-08-25T07:55:32Z</time>
      </trkpt>
      <trkpt lat="44.987" lon="6.10628">
        <ele>922.7</ele>
        <time>2026-08-25T07:55:33Z</time>
      </trkpt>
      <trkpt lat="44.987" lon="6.10632">
        <ele>922.9</ele>
        <time>2026-08-25T07:55:34Z</time>
      </trkpt>
      <trkpt lat="44.98699" lon="6.10637">
        <ele>923.2</ele>
        <time>2026-08-25T07:55:35Z</time>
      </trkpt>
      <trkpt lat="44.98698" lon="6.10641">
        <ele>923.4</ele>
        <time>2026-08-25T07:55:36Z</time>
      </trkpt>
      <trkpt lat="44.98698" lon="6.10646">
        <ele>923.7</ele>
        <time>2026-08-25T07:55:37Z</time>
      </trkpt>
      <trkpt lat="44.98698" lon="6.10651">
        <ele>923.9</ele>
        <time>2026-08-25T07:55:38Z</time>
      </trkpt>
      <trkpt lat="44.98698" lon="6.10654">
        <ele>924.1</ele>
        <time>2026-08-25T07:55:39Z</time>
      </trkpt>
      <trkpt lat="44.98699" lon="6.10657">
        <ele>924.3</ele>
        <time>2026-08-25T07:55:40Z</time>
      </trkpt>
      <trkpt lat="44.987" lon="6.10659">
        <ele>924.4</ele>
        <time>2026-08-25T07:55:41Z</time>
      </trkpt>
      <trkpt lat="44.98701" lon="6.10662">
        <ele>924.6</ele>
        <time>2026-08-25T07:55:42Z</time>
      </trkpt>
      <trkpt lat="44.98702" lon="6.10665">
        <ele>924.8</ele>
        <time>2026-08-25T07:55:43Z</time>
      </trkpt>
      <trkpt lat="44.98703" lon="6.10668">
        <ele>924.9</ele>
        <time>2026-08-25T07:55:44Z</time>
      </trkpt>
      <trkpt lat="44.98704" lon="6.10671">
        <ele>925.1</ele>
        <time>2026-08-25T07:55:45Z</time>
      </trkpt>
      <trkpt lat="44.98705" lon="6.10674">
        <ele>925.2</ele>
        <time>2026-08-25T07:55:46Z</time>
      </trkpt>
      <trkpt lat="44.98706" lon="6.10677">
        <ele>925.4</ele>
        <time>2026-08-25T07:55:47Z</time>
      </trkpt>
      <trkpt lat="44.98708" lon="6.10681">
        <ele>925.6</ele>
        <time>2026-08-25T07:55:48Z</time>
      </trkpt>
      <trkpt lat="44.98709" lon="6.10684">
        <ele>925.8</ele>
        <time>2026-08-25T07:55:49Z</time>
      </trkpt>
      <trkpt lat="44.98711" lon="6.10686">
        <ele>925.9</ele>
        <time>2026-08-25T07:55:50Z</time>
      </trkpt>
      <trkpt lat="44.98712" lon="6.10689">
        <ele>926.1</ele>
        <time>2026-08-25T07:55:51Z</time>
      </trkpt>
      <trkpt lat="44.98713" lon="6.10692">
        <ele>926.2</ele>
        <time>2026-08-25T07:55:52Z</time>
      </trkpt>
      <trkpt lat="44.98714" lon="6.10694">
        <ele>926.4</ele>
        <time>2026-08-25T07:55:53Z</time>
      </trkpt>
      <trkpt lat="44.98716" lon="6.10697">
        <ele>926.5</ele>
        <time>2026-08-25T07:55:54Z</time>
      </trkpt>
      <trkpt lat="44.98717" lon="6.10699">
        <ele>926.7</ele>
        <time>2026-08-25T07:55:55Z</time>
      </trkpt>
      <trkpt lat="44.98718" lon="6.10702">
        <ele>926.8</ele>
        <time>2026-08-25T07:55:56Z</time>
      </trkpt>
      <trkpt lat="44.9872" lon="6.10704">
        <ele>927</ele>
        <time>2026-08-25T07:55:57Z</time>
      </trkpt>
      <trkpt lat="44.98721" lon="6.10707">
        <ele>927.2</ele>
        <time>2026-08-25T07:55:58Z</time>
      </trkpt>
      <trkpt lat="44.98723" lon="6.1071">
        <ele>927.3</ele>
        <time>2026-08-25T07:55:59Z</time>
      </trkpt>
      <trkpt lat="44.98724" lon="6.10713">
        <ele>927.5</ele>
        <time>2026-08-25T07:56:00Z</time>
      </trkpt>
      <trkpt lat="44.98725" lon="6.10716">
        <ele>927.7</ele>
        <time>2026-08-25T07:56:01Z</time>
      </trkpt>
      <trkpt lat="44.98727" lon="6.10719">
        <ele>927.9</ele>
        <time>2026-08-25T07:56:02Z</time>
      </trkpt>
      <trkpt lat="44.98728" lon="6.10722">
        <ele>928.1</ele>
        <time>2026-08-25T07:56:03Z</time>
      </trkpt>
      <trkpt lat="44.98729" lon="6.10725">
        <ele>928.3</ele>
        <time>2026-08-25T07:56:04Z</time>
      </trkpt>
      <trkpt lat="44.9873" lon="6.10728">
        <ele>928.5</ele>
        <time>2026-08-25T07:56:05Z</time>
      </trkpt>
      <trkpt lat="44.98731" lon="6.10731">
        <ele>928.6</ele>
        <time>2026-08-25T07:56:06Z</time>
      </trkpt>
      <trkpt lat="44.98733" lon="6.10734">
        <ele>928.8</ele>
        <time>2026-08-25T07:56:07Z</time>
      </trkpt>
      <trkpt lat="44.98734" lon="6.10737">
        <ele>929</ele>
        <time>2026-08-25T07:56:08Z</time>
      </trkpt>
      <trkpt lat="44.98735" lon="6.1074">
        <ele>929.2</ele>
        <time>2026-08-25T07:56:09Z</time>
      </trkpt>
      <trkpt lat="44.98737" lon="6.10743">
        <ele>929.4</ele>
        <time>2026-08-25T07:56:10Z</time>
      </trkpt>
      <trkpt lat="44.98738" lon="6.10747">
        <ele>929.6</ele>
        <time>2026-08-25T07:56:11Z</time>
      </trkpt>
      <trkpt lat="44.98739" lon="6.1075">
        <ele>929.8</ele>
        <time>2026-08-25T07:56:12Z</time>
      </trkpt>
      <trkpt lat="44.9874" lon="6.10754">
        <ele>930</ele>
        <time>2026-08-25T07:56:13Z</time>
      </trkpt>
      <trkpt lat="44.98741" lon="6.10757">
        <ele>930.2</ele>
        <time>2026-08-25T07:56:14Z</time>
      </trkpt>
      <trkpt lat="44.98742" lon="6.1076">
        <ele>930.4</ele>
        <time>2026-08-25T07:56:15Z</time>
      </trkpt>
      <trkpt lat="44.98743" lon="6.10764">
        <ele>930.6</ele>
        <time>2026-08-25T07:56:16Z</time>
      </trkpt>
      <trkpt lat="44.98744" lon="6.10767">
        <ele>930.8</ele>
        <time>2026-08-25T07:56:17Z</time>
      </trkpt>
      <trkpt lat="44.98745" lon="6.10771">
        <ele>931</ele>
        <time>2026-08-25T07:56:18Z</time>
      </trkpt>
      <trkpt lat="44.98746" lon="6.10774">
        <ele>931.2</ele>
        <time>2026-08-25T07:56:19Z</time>
      </trkpt>
      <trkpt lat="44.98747" lon="6.10777">
        <ele>931.4</ele>
        <time>2026-08-25T07:56:20Z</time>
      </trkpt>
      <trkpt lat="44.98748" lon="6.10781">
        <ele>931.6</ele>
        <time>2026-08-25T07:56:21Z</time>
      </trkpt>
      <trkpt lat="44.98749" lon="6.10784">
        <ele>931.8</ele>
        <time>2026-08-25T07:56:22Z</time>
      </trkpt>
      <trkpt lat="44.9875" lon="6.10787">
        <ele>932</ele>
        <time>2026-08-25T07:56:23Z</time>
      </trkpt>
      <trkpt lat="44.98751" lon="6.1079">
        <ele>932.2</ele>
        <time>2026-08-25T07:56:24Z</time>
      </trkpt>
      <trkpt lat="44.98752" lon="6.10794">
        <ele>932.3</ele>
        <time>2026-08-25T07:56:25Z</time>
      </trkpt>
      <trkpt lat="44.98753" lon="6.10797">
        <ele>932.5</ele>
        <time>2026-08-25T07:56:26Z</time>
      </trkpt>
      <trkpt lat="44.98754" lon="6.10801">
        <ele>932.7</ele>
        <time>2026-08-25T07:56:27Z</time>
      </trkpt>
      <trkpt lat="44.98755" lon="6.10803">
        <ele>932.9</ele>
        <time>2026-08-25T07:56:28Z</time>
      </trkpt>
      <trkpt lat="44.98756" lon="6.10807">
        <ele>933</ele>
        <time>2026-08-25T07:56:29Z</time>
      </trkpt>
      <trkpt lat="44.98757" lon="6.1081">
        <ele>933.2</ele>
        <time>2026-08-25T07:56:30Z</time>
      </trkpt>
      <trkpt lat="44.98758" lon="6.10813">
        <ele>933.4</ele>
        <time>2026-08-25T07:56:31Z</time>
      </trkpt>
      <trkpt lat="44.98759" lon="6.10817">
        <ele>933.6</ele>
        <time>2026-08-25T07:56:32Z</time>
      </trkpt>
      <trkpt lat="44.98761" lon="6.1082">
        <ele>933.7</ele>
        <time>2026-08-25T07:56:33Z</time>
      </trkpt>
      <trkpt lat="44.98762" lon="6.10823">
        <ele>933.9</ele>
        <time>2026-08-25T07:56:34Z</time>
      </trkpt>
      <trkpt lat="44.98764" lon="6.10826">
        <ele>934.1</ele>
        <time>2026-08-25T07:56:35Z</time>
      </trkpt>
      <trkpt lat="44.98765" lon="6.10829">
        <ele>934.2</ele>
        <time>2026-08-25T07:56:36Z</time>
      </trkpt>
      <trkpt lat="44.98767" lon="6.10832">
        <ele>934.4</ele>
        <time>2026-08-25T07:56:37Z</time>
      </trkpt>
      <trkpt lat="44.98768" lon="6.10834">
        <ele>934.5</ele>
        <time>2026-08-25T07:56:38Z</time>
      </trkpt>
      <trkpt lat="44.98769" lon="6.10837">
        <ele>934.7</ele>
        <time>2026-08-25T07:56:39Z</time>
      </trkpt>
      <trkpt lat="44.98771" lon="6.1084">
        <ele>934.9</ele>
        <time>2026-08-25T07:56:40Z</time>
      </trkpt>
      <trkpt lat="44.98773" lon="6.10843">
        <ele>935.1</ele>
        <time>2026-08-25T07:56:41Z</time>
      </trkpt>
      <trkpt lat="44.98775" lon="6.10846">
        <ele>935.2</ele>
        <time>2026-08-25T07:56:42Z</time>
      </trkpt>
      <trkpt lat="44.98776" lon="6.10848">
        <ele>935.4</ele>
        <time>2026-08-25T07:56:43Z</time>
      </trkpt>
      <trkpt lat="44.98778" lon="6.10851">
        <ele>935.6</ele>
        <time>2026-08-25T07:56:44Z</time>
      </trkpt>
      <trkpt lat="44.98779" lon="6.10854">
        <ele>935.8</ele>
        <time>2026-08-25T07:56:45Z</time>
      </trkpt>
      <trkpt lat="44.98781" lon="6.10856">
        <ele>935.9</ele>
        <time>2026-08-25T07:56:46Z</time>
      </trkpt>
      <trkpt lat="44.98782" lon="6.10859">
        <ele>936.1</ele>
        <time>2026-08-25T07:56:47Z</time>
      </trkpt>
      <trkpt lat="44.98784" lon="6.10862">
        <ele>936.3</ele>
        <time>2026-08-25T07:56:48Z</time>
      </trkpt>
      <trkpt lat="44.98785" lon="6.10864">
        <ele>936.5</ele>
        <time>2026-08-25T07:56:49Z</time>
      </trkpt>
      <trkpt lat="44.98787" lon="6.10866">
        <ele>936.6</ele>
        <time>2026-08-25T07:56:50Z</time>
      </trkpt>
      <trkpt lat="44.98789" lon="6.10869">
        <ele>936.8</ele>
        <time>2026-08-25T07:56:51Z</time>
      </trkpt>
      <trkpt lat="44.9879" lon="6.10871">
        <ele>936.9</ele>
        <time>2026-08-25T07:56:52Z</time>
      </trkpt>
      <trkpt lat="44.98792" lon="6.10874">
        <ele>937.1</ele>
        <time>2026-08-25T07:56:53Z</time>
      </trkpt>
      <trkpt lat="44.98793" lon="6.10877">
        <ele>937.3</ele>
        <time>2026-08-25T07:56:54Z</time>
      </trkpt>
      <trkpt lat="44.98795" lon="6.10879">
        <ele>937.5</ele>
        <time>2026-08-25T07:56:55Z</time>
      </trkpt>
      <trkpt lat="44.98796" lon="6.10882">
        <ele>937.7</ele>
        <time>2026-08-25T07:56:56Z</time>
      </trkpt>
      <trkpt lat="44.98798" lon="6.10885">
        <ele>937.8</ele>
        <time>2026-08-25T07:56:57Z</time>
      </trkpt>
      <trkpt lat="44.988" lon="6.10887">
        <ele>938</ele>
        <time>2026-08-25T07:56:58Z</time>
      </trkpt>
      <trkpt lat="44.98801" lon="6.1089">
        <ele>938.2</ele>
        <time>2026-08-25T07:56:59Z</time>
      </trkpt>
      <trkpt lat="44.98802" lon="6.10893">
        <ele>938.4</ele>
        <time>2026-08-25T07:57:00Z</time>
      </trkpt>
      <trkpt lat="44.98803" lon="6.10896">
        <ele>938.5</ele>
        <time>2026-08-25T07:57:01Z</time>
      </trkpt>
      <trkpt lat="44.98804" lon="6.10899">
        <ele>938.7</ele>
        <time>2026-08-25T07:57:02Z</time>
      </trkpt>
      <trkpt lat="44.98805" lon="6.10902">
        <ele>938.8</ele>
        <time>2026-08-25T07:57:03Z</time>
      </trkpt>
      <trkpt lat="44.98806" lon="6.10905">
        <ele>939</ele>
        <time>2026-08-25T07:57:04Z</time>
      </trkpt>
      <trkpt lat="44.98807" lon="6.10908">
        <ele>939.2</ele>
        <time>2026-08-25T07:57:05Z</time>
      </trkpt>
      <trkpt lat="44.98808" lon="6.10911">
        <ele>939.4</ele>
        <time>2026-08-25T07:57:06Z</time>
      </trkpt>
      <trkpt lat="44.98809" lon="6.10915">
        <ele>939.6</ele>
        <time>2026-08-25T07:57:07Z</time>
      </trkpt>
      <trkpt lat="44.9881" lon="6.10918">
        <ele>939.7</ele>
        <time>2026-08-25T07:57:08Z</time>
      </trkpt>
      <trkpt lat="44.98811" lon="6.10921">
        <ele>939.9</ele>
        <time>2026-08-25T07:57:09Z</time>
      </trkpt>
      <trkpt lat="44.98812" lon="6.10924">
        <ele>940.1</ele>
        <time>2026-08-25T07:57:10Z</time>
      </trkpt>
      <trkpt lat="44.98812" lon="6.10927">
        <ele>940.2</ele>
        <time>2026-08-25T07:57:11Z</time>
      </trkpt>
      <trkpt lat="44.98813" lon="6.1093">
        <ele>940.4</ele>
        <time>2026-08-25T07:57:12Z</time>
      </trkpt>
      <trkpt lat="44.98813" lon="6.10933">
        <ele>940.6</ele>
        <time>2026-08-25T07:57:13Z</time>
      </trkpt>
      <trkpt lat="44.98814" lon="6.10936">
        <ele>940.7</ele>
        <time>2026-08-25T07:57:14Z</time>
      </trkpt>
      <trkpt lat="44.98814" lon="6.10939">
        <ele>940.9</ele>
        <time>2026-08-25T07:57:15Z</time>
      </trkpt>
      <trkpt lat="44.98814" lon="6.10943">
        <ele>941.1</ele>
        <time>2026-08-25T07:57:16Z</time>
      </trkpt>
      <trkpt lat="44.98815" lon="6.10946">
        <ele>941.3</ele>
        <time>2026-08-25T07:57:17Z</time>
      </trkpt>
      <trkpt lat="44.98815" lon="6.1095">
        <ele>941.5</ele>
        <time>2026-08-25T07:57:18Z</time>
      </trkpt>
      <trkpt lat="44.98815" lon="6.10953">
        <ele>941.7</ele>
        <time>2026-08-25T07:57:19Z</time>
      </trkpt>
      <trkpt lat="44.98815" lon="6.10956">
        <ele>941.9</ele>
        <time>2026-08-25T07:57:20Z</time>
      </trkpt>
      <trkpt lat="44.98815" lon="6.1096">
        <ele>942.1</ele>
        <time>2026-08-25T07:57:21Z</time>
      </trkpt>
      <trkpt lat="44.98816" lon="6.10963">
        <ele>942.2</ele>
        <time>2026-08-25T07:57:22Z</time>
      </trkpt>
      <trkpt lat="44.98816" lon="6.10967">
        <ele>942.4</ele>
        <time>2026-08-25T07:57:23Z</time>
      </trkpt>
      <trkpt lat="44.98817" lon="6.1097">
        <ele>942.6</ele>
        <time>2026-08-25T07:57:24Z</time>
      </trkpt>
      <trkpt lat="44.98817" lon="6.10973">
        <ele>942.8</ele>
        <time>2026-08-25T07:57:25Z</time>
      </trkpt>
      <trkpt lat="44.98818" lon="6.10976">
        <ele>943</ele>
        <time>2026-08-25T07:57:26Z</time>
      </trkpt>
      <trkpt lat="44.98818" lon="6.1098">
        <ele>943.2</ele>
        <time>2026-08-25T07:57:27Z</time>
      </trkpt>
      <trkpt lat="44.98819" lon="6.10983">
        <ele>943.3</ele>
        <time>2026-08-25T07:57:28Z</time>
      </trkpt>
      <trkpt lat="44.9882" lon="6.10986">
        <ele>943.5</ele>
        <time>2026-08-25T07:57:29Z</time>
      </trkpt>
      <trkpt lat="44.98821" lon="6.10989">
        <ele>943.7</ele>
        <time>2026-08-25T07:57:30Z</time>
      </trkpt>
      <trkpt lat="44.98822" lon="6.10992">
        <ele>943.9</ele>
        <time>2026-08-25T07:57:31Z</time>
      </trkpt>
      <trkpt lat="44.98823" lon="6.10996">
        <ele>944.1</ele>
        <time>2026-08-25T07:57:32Z</time>
      </trkpt>
      <trkpt lat="44.98824" lon="6.10999">
        <ele>944.2</ele>
        <time>2026-08-25T07:57:33Z</time>
      </trkpt>
      <trkpt lat="44.98825" lon="6.11002">
        <ele>944.4</ele>
        <time>2026-08-25T07:57:34Z</time>
      </trkpt>
      <trkpt lat="44.98826" lon="6.11005">
        <ele>944.5</ele>
        <time>2026-08-25T07:57:35Z</time>
      </trkpt>
      <trkpt lat="44.98828" lon="6.11008">
        <ele>944.7</ele>
        <time>2026-08-25T07:57:36Z</time>
      </trkpt>
      <trkpt lat="44.98829" lon="6.11011">
        <ele>944.9</ele>
        <time>2026-08-25T07:57:37Z</time>
      </trkpt>
      <trkpt lat="44.9883" lon="6.11014">
        <ele>945</ele>
        <time>2026-08-25T07:57:38Z</time>
      </trkpt>
      <trkpt lat="44.98831" lon="6.11017">
        <ele>945.1</ele>
        <time>2026-08-25T07:57:39Z</time>
      </trkpt>
      <trkpt lat="44.98833" lon="6.1102">
        <ele>945.3</ele>
        <time>2026-08-25T07:57:40Z</time>
      </trkpt>
      <trkpt lat="44.98834" lon="6.11024">
        <ele>945.4</ele>
        <time>2026-08-25T07:57:41Z</time>
      </trkpt>
      <trkpt lat="44.98835" lon="6.11027">
        <ele>945.5</ele>
        <time>2026-08-25T07:57:42Z</time>
      </trkpt>
      <trkpt lat="44.98836" lon="6.11031">
        <ele>945.6</ele>
        <time>2026-08-25T07:57:43Z</time>
      </trkpt>
      <trkpt lat="44.98836" lon="6.11036">
        <ele>945.8</ele>
        <time>2026-08-25T07:57:44Z</time>
      </trkpt>
      <trkpt lat="44.98836" lon="6.1104">
        <ele>945.9</ele>
        <time>2026-08-25T07:57:45Z</time>
      </trkpt>
      <trkpt lat="44.98835" lon="6.11044">
        <ele>945.9</ele>
        <time>2026-08-25T07:57:46Z</time>
      </trkpt>
      <trkpt lat="44.98834" lon="6.11048">
        <ele>945.9</ele>
        <time>2026-08-25T07:57:47Z</time>
      </trkpt>
      <trkpt lat="44.98833" lon="6.11052">
        <ele>945.9</ele>
        <time>2026-08-25T07:57:48Z</time>
      </trkpt>
      <trkpt lat="44.98831" lon="6.11055">
        <ele>945.9</ele>
        <time>2026-08-25T07:57:49Z</time>
      </trkpt>
      <trkpt lat="44.98829" lon="6.11058">
        <ele>946.1</ele>
        <time>2026-08-25T07:57:50Z</time>
      </trkpt>
      <trkpt lat="44.98827" lon="6.1106">
        <ele>946.2</ele>
        <time>2026-08-25T07:57:51Z</time>
      </trkpt>
      <trkpt lat="44.98825" lon="6.11062">
        <ele>946.3</ele>
        <time>2026-08-25T07:57:52Z</time>
      </trkpt>
      <trkpt lat="44.98822" lon="6.11065">
        <ele>946.5</ele>
        <time>2026-08-25T07:57:53Z</time>
      </trkpt>
      <trkpt lat="44.9882" lon="6.11067">
        <ele>946.6</ele>
        <time>2026-08-25T07:57:54Z</time>
      </trkpt>
      <trkpt lat="44.98817" lon="6.1107">
        <ele>946.8</ele>
        <time>2026-08-25T07:57:55Z</time>
      </trkpt>
      <trkpt lat="44.98815" lon="6.11073">
        <ele>946.9</ele>
        <time>2026-08-25T07:57:56Z</time>
      </trkpt>
      <trkpt lat="44.98813" lon="6.11076">
        <ele>947.1</ele>
        <time>2026-08-25T07:57:57Z</time>
      </trkpt>
      <trkpt lat="44.9881" lon="6.11078">
        <ele>947.2</ele>
        <time>2026-08-25T07:57:58Z</time>
      </trkpt>
      <trkpt lat="44.98808" lon="6.11081">
        <ele>947.3</ele>
        <time>2026-08-25T07:57:59Z</time>
      </trkpt>
      <trkpt lat="44.98805" lon="6.11083">
        <ele>947.5</ele>
        <time>2026-08-25T07:58:00Z</time>
      </trkpt>
      <trkpt lat="44.98803" lon="6.11087">
        <ele>947.6</ele>
        <time>2026-08-25T07:58:01Z</time>
      </trkpt>
      <trkpt lat="44.98802" lon="6.11089">
        <ele>947.8</ele>
        <time>2026-08-25T07:58:02Z</time>
      </trkpt>
      <trkpt lat="44.988" lon="6.11093">
        <ele>947.9</ele>
        <time>2026-08-25T07:58:03Z</time>
      </trkpt>
      <trkpt lat="44.98798" lon="6.11097">
        <ele>948.1</ele>
        <time>2026-08-25T07:58:04Z</time>
      </trkpt>
      <trkpt lat="44.98797" lon="6.111">
        <ele>948.3</ele>
        <time>2026-08-25T07:58:05Z</time>
      </trkpt>
      <trkpt lat="44.98796" lon="6.11104">
        <ele>948.4</ele>
        <time>2026-08-25T07:58:06Z</time>
      </trkpt>
      <trkpt lat="44.98795" lon="6.11107">
        <ele>948.6</ele>
        <time>2026-08-25T07:58:07Z</time>
      </trkpt>
      <trkpt lat="44.98793" lon="6.1111">
        <ele>948.8</ele>
        <time>2026-08-25T07:58:08Z</time>
      </trkpt>
      <trkpt lat="44.98792" lon="6.11114">
        <ele>948.9</ele>
        <time>2026-08-25T07:58:09Z</time>
      </trkpt>
      <trkpt lat="44.98791" lon="6.11118">
        <ele>949.1</ele>
        <time>2026-08-25T07:58:10Z</time>
      </trkpt>
      <trkpt lat="44.9879" lon="6.11122">
        <ele>949.3</ele>
        <time>2026-08-25T07:58:11Z</time>
      </trkpt>
      <trkpt lat="44.98789" lon="6.11126">
        <ele>949.5</ele>
        <time>2026-08-25T07:58:12Z</time>
      </trkpt>
      <trkpt lat="44.98789" lon="6.1113">
        <ele>949.7</ele>
        <time>2026-08-25T07:58:13Z</time>
      </trkpt>
      <trkpt lat="44.98788" lon="6.11134">
        <ele>949.9</ele>
        <time>2026-08-25T07:58:14Z</time>
      </trkpt>
      <trkpt lat="44.98787" lon="6.11137">
        <ele>950</ele>
        <time>2026-08-25T07:58:15Z</time>
      </trkpt>
      <trkpt lat="44.98787" lon="6.11141">
        <ele>950.2</ele>
        <time>2026-08-25T07:58:16Z</time>
      </trkpt>
      <trkpt lat="44.98786" lon="6.11144">
        <ele>950.4</ele>
        <time>2026-08-25T07:58:17Z</time>
      </trkpt>
      <trkpt lat="44.98786" lon="6.11148">
        <ele>950.5</ele>
        <time>2026-08-25T07:58:18Z</time>
      </trkpt>
      <trkpt lat="44.98785" lon="6.11152">
        <ele>950.7</ele>
        <time>2026-08-25T07:58:19Z</time>
      </trkpt>
      <trkpt lat="44.98785" lon="6.11156">
        <ele>950.9</ele>
        <time>2026-08-25T07:58:20Z</time>
      </trkpt>
      <trkpt lat="44.98784" lon="6.11159">
        <ele>951</ele>
        <time>2026-08-25T07:58:21Z</time>
      </trkpt>
      <trkpt lat="44.98784" lon="6.11163">
        <ele>951.2</ele>
        <time>2026-08-25T07:58:22Z</time>
      </trkpt>
      <trkpt lat="44.98783" lon="6.11167">
        <ele>951.4</ele>
        <time>2026-08-25T07:58:23Z</time>
      </trkpt>
      <trkpt lat="44.98783" lon="6.11171">
        <ele>951.5</ele>
        <time>2026-08-25T07:58:24Z</time>
      </trkpt>
      <trkpt lat="44.98783" lon="6.11175">
        <ele>951.7</ele>
        <time>2026-08-25T07:58:25Z</time>
      </trkpt>
      <trkpt lat="44.98783" lon="6.11178">
        <ele>951.9</ele>
        <time>2026-08-25T07:58:26Z</time>
      </trkpt>
      <trkpt lat="44.98783" lon="6.11182">
        <ele>952</ele>
        <time>2026-08-25T07:58:27Z</time>
      </trkpt>
      <trkpt lat="44.98782" lon="6.11185">
        <ele>952.2</ele>
        <time>2026-08-25T07:58:28Z</time>
      </trkpt>
      <trkpt lat="44.98782" lon="6.11188">
        <ele>952.4</ele>
        <time>2026-08-25T07:58:29Z</time>
      </trkpt>
      <trkpt lat="44.98782" lon="6.11193">
        <ele>952.5</ele>
        <time>2026-08-25T07:58:30Z</time>
      </trkpt>
      <trkpt lat="44.98781" lon="6.11196">
        <ele>952.7</ele>
        <time>2026-08-25T07:58:31Z</time>
      </trkpt>
      <trkpt lat="44.98781" lon="6.112">
        <ele>952.9</ele>
        <time>2026-08-25T07:58:32Z</time>
      </trkpt>
      <trkpt lat="44.98781" lon="6.11204">
        <ele>953.1</ele>
        <time>2026-08-25T07:58:33Z</time>
      </trkpt>
      <trkpt lat="44.98782" lon="6.11208">
        <ele>953.3</ele>
        <time>2026-08-25T07:58:34Z</time>
      </trkpt>
      <trkpt lat="44.98782" lon="6.11212">
        <ele>953.6</ele>
        <time>2026-08-25T07:58:35Z</time>
      </trkpt>
      <trkpt lat="44.98782" lon="6.11216">
        <ele>953.8</ele>
        <time>2026-08-25T07:58:36Z</time>
      </trkpt>
      <trkpt lat="44.98782" lon="6.11219">
        <ele>954</ele>
        <time>2026-08-25T07:58:37Z</time>
      </trkpt>
      <trkpt lat="44.98782" lon="6.11223">
        <ele>954.2</ele>
        <time>2026-08-25T07:58:38Z</time>
      </trkpt>
      <trkpt lat="44.98782" lon="6.11226">
        <ele>954.4</ele>
        <time>2026-08-25T07:58:39Z</time>
      </trkpt>
      <trkpt lat="44.98782" lon="6.11229">
        <ele>954.6</ele>
        <time>2026-08-25T07:58:40Z</time>
      </trkpt>
      <trkpt lat="44.98782" lon="6.11232">
        <ele>954.8</ele>
        <time>2026-08-25T07:58:41Z</time>
      </trkpt>
      <trkpt lat="44.98782" lon="6.11235">
        <ele>955</ele>
        <time>2026-08-25T07:58:42Z</time>
      </trkpt>
      <trkpt lat="44.98782" lon="6.11239">
        <ele>955.2</ele>
        <time>2026-08-25T07:58:43Z</time>
      </trkpt>
      <trkpt lat="44.98782" lon="6.11242">
        <ele>955.5</ele>
        <time>2026-08-25T07:58:44Z</time>
      </trkpt>
      <trkpt lat="44.98782" lon="6.11246">
        <ele>955.7</ele>
        <time>2026-08-25T07:58:45Z</time>
      </trkpt>
      <trkpt lat="44.98783" lon="6.1125">
        <ele>955.9</ele>
        <time>2026-08-25T07:58:46Z</time>
      </trkpt>
      <trkpt lat="44.98783" lon="6.11253">
        <ele>956.1</ele>
        <time>2026-08-25T07:58:47Z</time>
      </trkpt>
      <trkpt lat="44.98783" lon="6.11257">
        <ele>956.4</ele>
        <time>2026-08-25T07:58:48Z</time>
      </trkpt>
      <trkpt lat="44.98784" lon="6.1126">
        <ele>956.6</ele>
        <time>2026-08-25T07:58:49Z</time>
      </trkpt>
      <trkpt lat="44.98784" lon="6.11263">
        <ele>956.8</ele>
        <time>2026-08-25T07:58:50Z</time>
      </trkpt>
      <trkpt lat="44.98785" lon="6.11267">
        <ele>957</ele>
        <time>2026-08-25T07:58:51Z</time>
      </trkpt>
      <trkpt lat="44.98785" lon="6.11271">
        <ele>957.3</ele>
        <time>2026-08-25T07:58:52Z</time>
      </trkpt>
      <trkpt lat="44.98786" lon="6.11274">
        <ele>957.5</ele>
        <time>2026-08-25T07:58:53Z</time>
      </trkpt>
      <trkpt lat="44.98786" lon="6.11277">
        <ele>957.7</ele>
        <time>2026-08-25T07:58:54Z</time>
      </trkpt>
      <trkpt lat="44.98787" lon="6.1128">
        <ele>957.9</ele>
        <time>2026-08-25T07:58:55Z</time>
      </trkpt>
      <trkpt lat="44.98788" lon="6.11283">
        <ele>958.1</ele>
        <time>2026-08-25T07:58:56Z</time>
      </trkpt>
      <trkpt lat="44.98789" lon="6.11286">
        <ele>958.3</ele>
        <time>2026-08-25T07:58:57Z</time>
      </trkpt>
      <trkpt lat="44.98791" lon="6.11289">
        <ele>958.5</ele>
        <time>2026-08-25T07:58:58Z</time>
      </trkpt>
      <trkpt lat="44.98792" lon="6.11292">
        <ele>958.7</ele>
        <time>2026-08-25T07:58:59Z</time>
      </trkpt>
      <trkpt lat="44.98793" lon="6.11295">
        <ele>958.9</ele>
        <time>2026-08-25T07:59:00Z</time>
      </trkpt>
      <trkpt lat="44.98794" lon="6.11298">
        <ele>959.1</ele>
        <time>2026-08-25T07:59:01Z</time>
      </trkpt>
      <trkpt lat="44.98796" lon="6.11301">
        <ele>959.3</ele>
        <time>2026-08-25T07:59:02Z</time>
      </trkpt>
      <trkpt lat="44.98797" lon="6.11305">
        <ele>959.5</ele>
        <time>2026-08-25T07:59:03Z</time>
      </trkpt>
      <trkpt lat="44.98798" lon="6.11308">
        <ele>959.6</ele>
        <time>2026-08-25T07:59:04Z</time>
      </trkpt>
      <trkpt lat="44.98799" lon="6.11311">
        <ele>959.8</ele>
        <time>2026-08-25T07:59:05Z</time>
      </trkpt>
      <trkpt lat="44.988" lon="6.11314">
        <ele>960</ele>
        <time>2026-08-25T07:59:06Z</time>
      </trkpt>
      <trkpt lat="44.98801" lon="6.11318">
        <ele>960.2</ele>
        <time>2026-08-25T07:59:07Z</time>
      </trkpt>
      <trkpt lat="44.98802" lon="6.11321">
        <ele>960.3</ele>
        <time>2026-08-25T07:59:08Z</time>
      </trkpt>
      <trkpt lat="44.98803" lon="6.11324">
        <ele>960.5</ele>
        <time>2026-08-25T07:59:09Z</time>
      </trkpt>
      <trkpt lat="44.98803" lon="6.11327">
        <ele>960.6</ele>
        <time>2026-08-25T07:59:10Z</time>
      </trkpt>
      <trkpt lat="44.98803" lon="6.11329">
        <ele>960.8</ele>
        <time>2026-08-25T07:59:11Z</time>
      </trkpt>
      <trkpt lat="44.98803" lon="6.11332">
        <ele>960.9</ele>
        <time>2026-08-25T07:59:12Z</time>
      </trkpt>
      <trkpt lat="44.98802" lon="6.11335">
        <ele>961</ele>
        <time>2026-08-25T07:59:13Z</time>
      </trkpt>
      <trkpt lat="44.98801" lon="6.11338">
        <ele>961.1</ele>
        <time>2026-08-25T07:59:14Z</time>
      </trkpt>
      <trkpt lat="44.98801" lon="6.11341">
        <ele>961.3</ele>
        <time>2026-08-25T07:59:15Z</time>
      </trkpt>
      <trkpt lat="44.988" lon="6.11344">
        <ele>961.4</ele>
        <time>2026-08-25T07:59:16Z</time>
      </trkpt>
      <trkpt lat="44.98799" lon="6.11348">
        <ele>961.5</ele>
        <time>2026-08-25T07:59:17Z</time>
      </trkpt>
      <trkpt lat="44.98798" lon="6.11352">
        <ele>961.7</ele>
        <time>2026-08-25T07:59:18Z</time>
      </trkpt>
      <trkpt lat="44.98797" lon="6.11356">
        <ele>961.8</ele>
        <time>2026-08-25T07:59:19Z</time>
      </trkpt>
      <trkpt lat="44.98796" lon="6.1136">
        <ele>961.9</ele>
        <time>2026-08-25T07:59:20Z</time>
      </trkpt>
      <trkpt lat="44.98794" lon="6.11363">
        <ele>962</ele>
        <time>2026-08-25T07:59:21Z</time>
      </trkpt>
      <trkpt lat="44.98793" lon="6.11367">
        <ele>962.1</ele>
        <time>2026-08-25T07:59:22Z</time>
      </trkpt>
      <trkpt lat="44.9879" lon="6.1137">
        <ele>962.1</ele>
        <time>2026-08-25T07:59:23Z</time>
      </trkpt>
      <trkpt lat="44.98788" lon="6.11373">
        <ele>962.2</ele>
        <time>2026-08-25T07:59:24Z</time>
      </trkpt>
      <trkpt lat="44.98786" lon="6.11376">
        <ele>962.2</ele>
        <time>2026-08-25T07:59:25Z</time>
      </trkpt>
      <trkpt lat="44.98783" lon="6.1138">
        <ele>962.3</ele>
        <time>2026-08-25T07:59:26Z</time>
      </trkpt>
      <trkpt lat="44.98781" lon="6.11383">
        <ele>962.3</ele>
        <time>2026-08-25T07:59:27Z</time>
      </trkpt>
      <trkpt lat="44.98778" lon="6.11387">
        <ele>962.3</ele>
        <time>2026-08-25T07:59:28Z</time>
      </trkpt>
      <trkpt lat="44.98776" lon="6.11391">
        <ele>962.3</ele>
        <time>2026-08-25T07:59:29Z</time>
      </trkpt>
      <trkpt lat="44.98773" lon="6.11395">
        <ele>962.2</ele>
        <time>2026-08-25T07:59:30Z</time>
      </trkpt>
      <trkpt lat="44.98771" lon="6.11399">
        <ele>962.2</ele>
        <time>2026-08-25T07:59:31Z</time>
      </trkpt>
      <trkpt lat="44.98769" lon="6.11404">
        <ele>962.1</ele>
        <time>2026-08-25T07:59:32Z</time>
      </trkpt>
      <trkpt lat="44.98767" lon="6.11409">
        <ele>962</ele>
        <time>2026-08-25T07:59:33Z</time>
      </trkpt>
      <trkpt lat="44.98764" lon="6.11414">
        <ele>962</ele>
        <time>2026-08-25T07:59:34Z</time>
      </trkpt>
      <trkpt lat="44.98762" lon="6.11419">
        <ele>961.9</ele>
        <time>2026-08-25T07:59:35Z</time>
      </trkpt>
      <trkpt lat="44.9876" lon="6.11425">
        <ele>961.8</ele>
        <time>2026-08-25T07:59:36Z</time>
      </trkpt>
      <trkpt lat="44.98758" lon="6.11431">
        <ele>961.8</ele>
        <time>2026-08-25T07:59:37Z</time>
      </trkpt>
      <trkpt lat="44.98755" lon="6.11437">
        <ele>961.7</ele>
        <time>2026-08-25T07:59:38Z</time>
      </trkpt>
      <trkpt lat="44.98753" lon="6.11443">
        <ele>961.7</ele>
        <time>2026-08-25T07:59:39Z</time>
      </trkpt>
      <trkpt lat="44.98752" lon="6.11449">
        <ele>961.6</ele>
        <time>2026-08-25T07:59:40Z</time>
      </trkpt>
      <trkpt lat="44.9875" lon="6.11455">
        <ele>961.6</ele>
        <time>2026-08-25T07:59:41Z</time>
      </trkpt>
      <trkpt lat="44.98749" lon="6.11461">
        <ele>961.5</ele>
        <time>2026-08-25T07:59:42Z</time>
      </trkpt>
      <trkpt lat="44.98748" lon="6.11467">
        <ele>961.4</ele>
        <time>2026-08-25T07:59:43Z</time>
      </trkpt>
      <trkpt lat="44.98747" lon="6.11473">
        <ele>961.4</ele>
        <time>2026-08-25T07:59:44Z</time>
      </trkpt>
      <trkpt lat="44.98746" lon="6.11479">
        <ele>961.3</ele>
        <time>2026-08-25T07:59:45Z</time>
      </trkpt>
      <trkpt lat="44.98745" lon="6.11485">
        <ele>961.2</ele>
        <time>2026-08-25T07:59:46Z</time>
      </trkpt>
      <trkpt lat="44.98745" lon="6.11492">
        <ele>961.2</ele>
        <time>2026-08-25T07:59:47Z</time>
      </trkpt>
      <trkpt lat="44.98744" lon="6.11498">
        <ele>961.1</ele>
        <time>2026-08-25T07:59:48Z</time>
      </trkpt>
      <trkpt lat="44.98744" lon="6.11505">
        <ele>961</ele>
        <time>2026-08-25T07:59:49Z</time>
      </trkpt>
      <trkpt lat="44.98743" lon="6.11511">
        <ele>961</ele>
        <time>2026-08-25T07:59:50Z</time>
      </trkpt>
      <trkpt lat="44.98743" lon="6.11518">
        <ele>960.9</ele>
        <time>2026-08-25T07:59:51Z</time>
      </trkpt>
      <trkpt lat="44.98743" lon="6.11524">
        <ele>960.8</ele>
        <time>2026-08-25T07:59:52Z</time>
      </trkpt>
      <trkpt lat="44.98743" lon="6.1153">
        <ele>960.8</ele>
        <time>2026-08-25T07:59:53Z</time>
      </trkpt>
      <trkpt lat="44.98743" lon="6.11536">
        <ele>960.7</ele>
        <time>2026-08-25T07:59:54Z</time>
      </trkpt>
      <trkpt lat="44.98743" lon="6.11543">
        <ele>960.6</ele>
        <time>2026-08-25T07:59:55Z</time>
      </trkpt>
      <trkpt lat="44.98743" lon="6.11549">
        <ele>960.5</ele>
        <time>2026-08-25T07:59:56Z</time>
      </trkpt>
      <trkpt lat="44.98742" lon="6.11556">
        <ele>960.5</ele>
        <time>2026-08-25T07:59:57Z</time>
      </trkpt>
      <trkpt lat="44.9874" lon="6.11563">
        <ele>960.5</ele>
        <time>2026-08-25T07:59:58Z</time>
      </trkpt>
      <trkpt lat="44.98739" lon="6.1157">
        <ele>960.5</ele>
        <time>2026-08-25T07:59:59Z</time>
      </trkpt>
      <trkpt lat="44.98739" lon="6.11578">
        <ele>960.6</ele>
        <time>2026-08-25T08:00:00Z</time>
      </trkpt>
      <trkpt lat="44.98742" lon="6.11583">
        <ele>961</ele>
        <time>2026-08-25T08:00:01Z</time>
      </trkpt>
      <trkpt lat="44.98745" lon="6.11585">
        <ele>961.3</ele>
        <time>2026-08-25T08:00:02Z</time>
      </trkpt>
      <trkpt lat="44.98747" lon="6.11586">
        <ele>961.6</ele>
        <time>2026-08-25T08:00:03Z</time>
      </trkpt>
      <trkpt lat="44.98749" lon="6.11589">
        <ele>961.9</ele>
        <time>2026-08-25T08:00:04Z</time>
      </trkpt>
      <trkpt lat="44.9875" lon="6.11592">
        <ele>962.2</ele>
        <time>2026-08-25T08:00:05Z</time>
      </trkpt>
      <trkpt lat="44.9875" lon="6.11594">
        <ele>962.5</ele>
        <time>2026-08-25T08:00:06Z</time>
      </trkpt>
      <trkpt lat="44.9875" lon="6.11596">
        <ele>962.8</ele>
        <time>2026-08-25T08:00:07Z</time>
      </trkpt>
      <trkpt lat="44.98749" lon="6.11599">
        <ele>963.1</ele>
        <time>2026-08-25T08:00:08Z</time>
      </trkpt>
      <trkpt lat="44.98749" lon="6.116">
        <ele>963.3</ele>
        <time>2026-08-25T08:00:09Z</time>
      </trkpt>
      <trkpt lat="44.98749" lon="6.11602">
        <ele>963.6</ele>
        <time>2026-08-25T08:00:10Z</time>
      </trkpt>
      <trkpt lat="44.98748" lon="6.11604">
        <ele>963.8</ele>
        <time>2026-08-25T08:00:11Z</time>
      </trkpt>
      <trkpt lat="44.98748" lon="6.11606">
        <ele>964</ele>
        <time>2026-08-25T08:00:12Z</time>
      </trkpt>
      <trkpt lat="44.98747" lon="6.11607">
        <ele>964.3</ele>
        <time>2026-08-25T08:00:13Z</time>
      </trkpt>
      <trkpt lat="44.98746" lon="6.11609">
        <ele>965.7</ele>
        <time>2026-08-25T08:00:14Z</time>
      </trkpt>
      <trkpt lat="44.98744" lon="6.11612">
        <ele>967.5</ele>
        <time>2026-08-25T08:00:15Z</time>
      </trkpt>
      <trkpt lat="44.98743" lon="6.11614">
        <ele>969</ele>
        <time>2026-08-25T08:00:16Z</time>
      </trkpt>
      <trkpt lat="44.98743" lon="6.11615">
        <ele>969.3</ele>
        <time>2026-08-25T08:00:17Z</time>
      </trkpt>
      <trkpt lat="44.98742" lon="6.11616">
        <ele>969.8</ele>
        <time>2026-08-25T08:00:18Z</time>
      </trkpt>
      <trkpt lat="44.98778" lon="6.11617">
        <ele>972.9</ele>
        <time>2026-08-25T08:06:06Z</time>
      </trkpt>
      <trkpt lat="44.9878" lon="6.11618">
        <ele>973.3</ele>
        <time>2026-08-25T08:06:07Z</time>
      </trkpt>
      <trkpt lat="44.98783" lon="6.11619">
        <ele>973.9</ele>
        <time>2026-08-25T08:06:08Z</time>
      </trkpt>
      <trkpt lat="44.98786" lon="6.1162">
        <ele>974.6</ele>
        <time>2026-08-25T08:06:09Z</time>
      </trkpt>
      <trkpt lat="44.9879" lon="6.11621">
        <ele>975.2</ele>
        <time>2026-08-25T08:06:10Z</time>
      </trkpt>
      <trkpt lat="44.98794" lon="6.11622">
        <ele>976</ele>
        <time>2026-08-25T08:06:11Z</time>
      </trkpt>
      <trkpt lat="44.98798" lon="6.11623">
        <ele>976.9</ele>
        <time>2026-08-25T08:06:12Z</time>
      </trkpt>
      <trkpt lat="44.98802" lon="6.11623">
        <ele>977.8</ele>
        <time>2026-08-25T08:06:13Z</time>
      </trkpt>
      <trkpt lat="44.98805" lon="6.11624">
        <ele>978.5</ele>
        <time>2026-08-25T08:06:14Z</time>
      </trkpt>
      <trkpt lat="44.98809" lon="6.11624">
        <ele>979.4</ele>
        <time>2026-08-25T08:06:15Z</time>
      </trkpt>
      <trkpt lat="44.98813" lon="6.11625">
        <ele>980.1</ele>
        <time>2026-08-25T08:06:16Z</time>
      </trkpt>
      <trkpt lat="44.98816" lon="6.11625">
        <ele>980.9</ele>
        <time>2026-08-25T08:06:17Z</time>
      </trkpt>
      <trkpt lat="44.9882" lon="6.11626">
        <ele>981.7</ele>
        <time>2026-08-25T08:06:18Z</time>
      </trkpt>
      <trkpt lat="44.98823" lon="6.11627">
        <ele>982.5</ele>
        <time>2026-08-25T08:06:19Z</time>
      </trkpt>
      <trkpt lat="44.98827" lon="6.11628">
        <ele>983.2</ele>
        <time>2026-08-25T08:06:20Z</time>
      </trkpt>
      <trkpt lat="44.9883" lon="6.11629">
        <ele>984</ele>
        <time>2026-08-25T08:06:21Z</time>
      </trkpt>
      <trkpt lat="44.98834" lon="6.11629">
        <ele>984.8</ele>
        <time>2026-08-25T08:06:22Z</time>
      </trkpt>
      <trkpt lat="44.98837" lon="6.1163">
        <ele>985.6</ele>
        <time>2026-08-25T08:06:23Z</time>
      </trkpt>
      <trkpt lat="44.98841" lon="6.11631">
        <ele>986.3</ele>
        <time>2026-08-25T08:06:24Z</time>
      </trkpt>
      <trkpt lat="44.98844" lon="6.11631">
        <ele>987</ele>
        <time>2026-08-25T08:06:25Z</time>
      </trkpt>
      <trkpt lat="44.98847" lon="6.11632">
        <ele>987.7</ele>
        <time>2026-08-25T08:06:26Z</time>
      </trkpt>
      <trkpt lat="44.98851" lon="6.11633">
        <ele>988.4</ele>
        <time>2026-08-25T08:06:27Z</time>
      </trkpt>
      <trkpt lat="44.98855" lon="6.11634">
        <ele>989.2</ele>
        <time>2026-08-25T08:06:28Z</time>
      </trkpt>
      <trkpt lat="44.98859" lon="6.11635">
        <ele>990</ele>
        <time>2026-08-25T08:06:29Z</time>
      </trkpt>
      <trkpt lat="44.98862" lon="6.11636">
        <ele>990.7</ele>
        <time>2026-08-25T08:06:30Z</time>
      </trkpt>
      <trkpt lat="44.98866" lon="6.11636">
        <ele>991.4</ele>
        <time>2026-08-25T08:06:31Z</time>
      </trkpt>
      <trkpt lat="44.9887" lon="6.11637">
        <ele>992.1</ele>
        <time>2026-08-25T08:06:32Z</time>
      </trkpt>
      <trkpt lat="44.98873" lon="6.11638">
        <ele>992.8</ele>
        <time>2026-08-25T08:06:33Z</time>
      </trkpt>
      <trkpt lat="44.98877" lon="6.11639">
        <ele>993.4</ele>
        <time>2026-08-25T08:06:34Z</time>
      </trkpt>
      <trkpt lat="44.9888" lon="6.1164">
        <ele>994</ele>
        <time>2026-08-25T08:06:35Z</time>
      </trkpt>
      <trkpt lat="44.98884" lon="6.1164">
        <ele>994.6</ele>
        <time>2026-08-25T08:06:36Z</time>
      </trkpt>
      <trkpt lat="44.98888" lon="6.11641">
        <ele>995.3</ele>
        <time>2026-08-25T08:06:37Z</time>
      </trkpt>
      <trkpt lat="44.98891" lon="6.11642">
        <ele>996</ele>
        <time>2026-08-25T08:06:38Z</time>
      </trkpt>
      <trkpt lat="44.98895" lon="6.11643">
        <ele>996.7</ele>
        <time>2026-08-25T08:06:39Z</time>
      </trkpt>
      <trkpt lat="44.98899" lon="6.11644">
        <ele>997.4</ele>
        <time>2026-08-25T08:06:40Z</time>
      </trkpt>
      <trkpt lat="44.98903" lon="6.11645">
        <ele>998.1</ele>
        <time>2026-08-25T08:06:41Z</time>
      </trkpt>
      <trkpt lat="44.98907" lon="6.11645">
        <ele>998.9</ele>
        <time>2026-08-25T08:06:42Z</time>
      </trkpt>
      <trkpt lat="44.98911" lon="6.11646">
        <ele>999.6</ele>
        <time>2026-08-25T08:06:43Z</time>
      </trkpt>
      <trkpt lat="44.98915" lon="6.11647">
        <ele>1000.3</ele>
        <time>2026-08-25T08:06:44Z</time>
      </trkpt>
      <trkpt lat="44.98918" lon="6.11647">
        <ele>1001.1</ele>
        <time>2026-08-25T08:06:45Z</time>
      </trkpt>
      <trkpt lat="44.98922" lon="6.11648">
        <ele>1001.8</ele>
        <time>2026-08-25T08:06:46Z</time>
      </trkpt>
      <trkpt lat="44.98926" lon="6.11649">
        <ele>1002.5</ele>
        <time>2026-08-25T08:06:47Z</time>
      </trkpt>
      <trkpt lat="44.9893" lon="6.1165">
        <ele>1003.3</ele>
        <time>2026-08-25T08:06:48Z</time>
      </trkpt>
      <trkpt lat="44.98934" lon="6.11651">
        <ele>1004.1</ele>
        <time>2026-08-25T08:06:49Z</time>
      </trkpt>
      <trkpt lat="44.98937" lon="6.11651">
        <ele>1004.7</ele>
        <time>2026-08-25T08:06:50Z</time>
      </trkpt>
      <trkpt lat="44.98941" lon="6.11652">
        <ele>1005.4</ele>
        <time>2026-08-25T08:06:51Z</time>
      </trkpt>
      <trkpt lat="44.98945" lon="6.11653">
        <ele>1006.2</ele>
        <time>2026-08-25T08:06:52Z</time>
      </trkpt>
      <trkpt lat="44.98948" lon="6.11654">
        <ele>1006.9</ele>
        <time>2026-08-25T08:06:53Z</time>
      </trkpt>
      <trkpt lat="44.98952" lon="6.11655">
        <ele>1007.7</ele>
        <time>2026-08-25T08:06:54Z</time>
      </trkpt>
      <trkpt lat="44.98955" lon="6.11656">
        <ele>1008.4</ele>
        <time>2026-08-25T08:06:55Z</time>
      </trkpt>
      <trkpt lat="44.98958" lon="6.11657">
        <ele>1009</ele>
        <time>2026-08-25T08:06:56Z</time>
      </trkpt>
      <trkpt lat="44.98962" lon="6.11658">
        <ele>1009.7</ele>
        <time>2026-08-25T08:06:57Z</time>
      </trkpt>
      <trkpt lat="44.98965" lon="6.11659">
        <ele>1010.4</ele>
        <time>2026-08-25T08:06:58Z</time>
      </trkpt>
      <trkpt lat="44.98969" lon="6.1166">
        <ele>1011.1</ele>
        <time>2026-08-25T08:06:59Z</time>
      </trkpt>
      <trkpt lat="44.98972" lon="6.11662">
        <ele>1011.9</ele>
        <time>2026-08-25T08:07:00Z</time>
      </trkpt>
      <trkpt lat="44.98976" lon="6.11663">
        <ele>1012.6</ele>
        <time>2026-08-25T08:07:01Z</time>
      </trkpt>
      <trkpt lat="44.98979" lon="6.11664">
        <ele>1013.3</ele>
        <time>2026-08-25T08:07:02Z</time>
      </trkpt>
      <trkpt lat="44.98982" lon="6.11665">
        <ele>1014</ele>
        <time>2026-08-25T08:07:03Z</time>
      </trkpt>
      <trkpt lat="44.98986" lon="6.11666">
        <ele>1014.7</ele>
        <time>2026-08-25T08:07:04Z</time>
      </trkpt>
      <trkpt lat="44.98989" lon="6.11667">
        <ele>1015.4</ele>
        <time>2026-08-25T08:07:05Z</time>
      </trkpt>
      <trkpt lat="44.98994" lon="6.11668">
        <ele>1016.3</ele>
        <time>2026-08-25T08:07:06Z</time>
      </trkpt>
      <trkpt lat="44.98998" lon="6.11668">
        <ele>1017.2</ele>
        <time>2026-08-25T08:07:07Z</time>
      </trkpt>
      <trkpt lat="44.99001" lon="6.11669">
        <ele>1018.1</ele>
        <time>2026-08-25T08:07:08Z</time>
      </trkpt>
      <trkpt lat="44.99005" lon="6.11669">
        <ele>1018.9</ele>
        <time>2026-08-25T08:07:09Z</time>
      </trkpt>
      <trkpt lat="44.99009" lon="6.11671">
        <ele>1019.8</ele>
        <time>2026-08-25T08:07:10Z</time>
      </trkpt>
      <trkpt lat="44.99012" lon="6.11671">
        <ele>1020.6</ele>
        <time>2026-08-25T08:07:11Z</time>
      </trkpt>
      <trkpt lat="44.99016" lon="6.11672">
        <ele>1021.4</ele>
        <time>2026-08-25T08:07:12Z</time>
      </trkpt>
      <trkpt lat="44.9902" lon="6.11673">
        <ele>1022.3</ele>
        <time>2026-08-25T08:07:13Z</time>
      </trkpt>
      <trkpt lat="44.99023" lon="6.11674">
        <ele>1023.2</ele>
        <time>2026-08-25T08:07:14Z</time>
      </trkpt>
      <trkpt lat="44.99027" lon="6.11675">
        <ele>1024.2</ele>
        <time>2026-08-25T08:07:15Z</time>
      </trkpt>
      <trkpt lat="44.99031" lon="6.11676">
        <ele>1025.1</ele>
        <time>2026-08-25T08:07:16Z</time>
      </trkpt>
      <trkpt lat="44.99035" lon="6.11676">
        <ele>1026</ele>
        <time>2026-08-25T08:07:17Z</time>
      </trkpt>
      <trkpt lat="44.99039" lon="6.11677">
        <ele>1027</ele>
        <time>2026-08-25T08:07:18Z</time>
      </trkpt>
      <trkpt lat="44.99042" lon="6.11678">
        <ele>1027.9</ele>
        <time>2026-08-25T08:07:19Z</time>
      </trkpt>
      <trkpt lat="44.99046" lon="6.11679">
        <ele>1028.7</ele>
        <time>2026-08-25T08:07:20Z</time>
      </trkpt>
      <trkpt lat="44.99049" lon="6.1168">
        <ele>1029.4</ele>
        <time>2026-08-25T08:07:21Z</time>
      </trkpt>
      <trkpt lat="44.99053" lon="6.1168">
        <ele>1030.3</ele>
        <time>2026-08-25T08:07:22Z</time>
      </trkpt>
      <trkpt lat="44.99057" lon="6.11681">
        <ele>1031.1</ele>
        <time>2026-08-25T08:07:23Z</time>
      </trkpt>
      <trkpt lat="44.9906" lon="6.11682">
        <ele>1031.8</ele>
        <time>2026-08-25T08:07:24Z</time>
      </trkpt>
      <trkpt lat="44.99064" lon="6.11683">
        <ele>1032.5</ele>
        <time>2026-08-25T08:07:25Z</time>
      </trkpt>
      <trkpt lat="44.99068" lon="6.11684">
        <ele>1033.2</ele>
        <time>2026-08-25T08:07:26Z</time>
      </trkpt>
      <trkpt lat="44.99072" lon="6.11684">
        <ele>1034</ele>
        <time>2026-08-25T08:07:27Z</time>
      </trkpt>
      <trkpt lat="44.99075" lon="6.11685">
        <ele>1034.6</ele>
        <time>2026-08-25T08:07:28Z</time>
      </trkpt>
      <trkpt lat="44.99079" lon="6.11686">
        <ele>1035.3</ele>
        <time>2026-08-25T08:07:29Z</time>
      </trkpt>
      <trkpt lat="44.99083" lon="6.11687">
        <ele>1036.1</ele>
        <time>2026-08-25T08:07:30Z</time>
      </trkpt>
      <trkpt lat="44.99087" lon="6.11688">
        <ele>1036.8</ele>
        <time>2026-08-25T08:07:31Z</time>
      </trkpt>
      <trkpt lat="44.99091" lon="6.11689">
        <ele>1037.5</ele>
        <time>2026-08-25T08:07:32Z</time>
      </trkpt>
      <trkpt lat="44.99094" lon="6.11689">
        <ele>1038.2</ele>
        <time>2026-08-25T08:07:33Z</time>
      </trkpt>
      <trkpt lat="44.99098" lon="6.1169">
        <ele>1038.9</ele>
        <time>2026-08-25T08:07:34Z</time>
      </trkpt>
      <trkpt lat="44.99101" lon="6.11691">
        <ele>1039.6</ele>
        <time>2026-08-25T08:07:35Z</time>
      </trkpt>
      <trkpt lat="44.99105" lon="6.11692">
        <ele>1040.4</ele>
        <time>2026-08-25T08:07:36Z</time>
      </trkpt>
      <trkpt lat="44.99108" lon="6.11693">
        <ele>1041.2</ele>
        <time>2026-08-25T08:07:37Z</time>
      </trkpt>
      <trkpt lat="44.99112" lon="6.11694">
        <ele>1042</ele>
        <time>2026-08-25T08:07:38Z</time>
      </trkpt>
      <trkpt lat="44.99115" lon="6.11695">
        <ele>1042.9</ele>
        <time>2026-08-25T08:07:39Z</time>
      </trkpt>
      <trkpt lat="44.99119" lon="6.11695">
        <ele>1043.8</ele>
        <time>2026-08-25T08:07:40Z</time>
      </trkpt>
      <trkpt lat="44.99122" lon="6.11696">
        <ele>1044.6</ele>
        <time>2026-08-25T08:07:41Z</time>
      </trkpt>
      <trkpt lat="44.99126" lon="6.11697">
        <ele>1045.5</ele>
        <time>2026-08-25T08:07:42Z</time>
      </trkpt>
      <trkpt lat="44.9913" lon="6.11697">
        <ele>1046.5</ele>
        <time>2026-08-25T08:07:43Z</time>
      </trkpt>
      <trkpt lat="44.99133" lon="6.11698">
        <ele>1047.4</ele>
        <time>2026-08-25T08:07:44Z</time>
      </trkpt>
      <trkpt lat="44.99137" lon="6.11699">
        <ele>1048.4</ele>
        <time>2026-08-25T08:07:45Z</time>
      </trkpt>
      <trkpt lat="44.99141" lon="6.11699">
        <ele>1049.4</ele>
        <time>2026-08-25T08:07:46Z</time>
      </trkpt>
      <trkpt lat="44.99144" lon="6.11701">
        <ele>1050.4</ele>
        <time>2026-08-25T08:07:47Z</time>
      </trkpt>
      <trkpt lat="44.99148" lon="6.11702">
        <ele>1051.4</ele>
        <time>2026-08-25T08:07:48Z</time>
      </trkpt>
      <trkpt lat="44.99152" lon="6.11703">
        <ele>1052.4</ele>
        <time>2026-08-25T08:07:49Z</time>
      </trkpt>
      <trkpt lat="44.99155" lon="6.11703">
        <ele>1053.5</ele>
        <time>2026-08-25T08:07:50Z</time>
      </trkpt>
      <trkpt lat="44.99159" lon="6.11704">
        <ele>1054.6</ele>
        <time>2026-08-25T08:07:51Z</time>
      </trkpt>
      <trkpt lat="44.99162" lon="6.11705">
        <ele>1055.6</ele>
        <time>2026-08-25T08:07:52Z</time>
      </trkpt>
      <trkpt lat="44.99166" lon="6.11706">
        <ele>1056.8</ele>
        <time>2026-08-25T08:07:53Z</time>
      </trkpt>
      <trkpt lat="44.9917" lon="6.11706">
        <ele>1058</ele>
        <time>2026-08-25T08:07:54Z</time>
      </trkpt>
      <trkpt lat="44.99173" lon="6.11707">
        <ele>1059.1</ele>
        <time>2026-08-25T08:07:55Z</time>
      </trkpt>
      <trkpt lat="44.99177" lon="6.11708">
        <ele>1060.2</ele>
        <time>2026-08-25T08:07:56Z</time>
      </trkpt>
      <trkpt lat="44.9918" lon="6.11709">
        <ele>1061.4</ele>
        <time>2026-08-25T08:07:57Z</time>
      </trkpt>
      <trkpt lat="44.99184" lon="6.1171">
        <ele>1062.7</ele>
        <time>2026-08-25T08:07:58Z</time>
      </trkpt>
      <trkpt lat="44.99187" lon="6.11711">
        <ele>1064</ele>
        <time>2026-08-25T08:07:59Z</time>
      </trkpt>
      <trkpt lat="44.99191" lon="6.11712">
        <ele>1065.4</ele>
        <time>2026-08-25T08:08:00Z</time>
      </trkpt>
      <trkpt lat="44.99195" lon="6.11712">
        <ele>1066.9</ele>
        <time>2026-08-25T08:08:01Z</time>
      </trkpt>
      <trkpt lat="44.99199" lon="6.11713">
        <ele>1068.3</ele>
        <time>2026-08-25T08:08:02Z</time>
      </trkpt>
      <trkpt lat="44.99202" lon="6.11714">
        <ele>1069.7</ele>
        <time>2026-08-25T08:08:03Z</time>
      </trkpt>
      <trkpt lat="44.99205" lon="6.11716">
        <ele>1071.2</ele>
        <time>2026-08-25T08:08:04Z</time>
      </trkpt>
      <trkpt lat="44.99209" lon="6.11717">
        <ele>1072.6</ele>
        <time>2026-08-25T08:08:05Z</time>
      </trkpt>
      <trkpt lat="44.99212" lon="6.11718">
        <ele>1074.1</ele>
        <time>2026-08-25T08:08:06Z</time>
      </trkpt>
      <trkpt lat="44.99215" lon="6.11718">
        <ele>1075.6</ele>
        <time>2026-08-25T08:08:07Z</time>
      </trkpt>
      <trkpt lat="44.99219" lon="6.11718">
        <ele>1077.1</ele>
        <time>2026-08-25T08:08:08Z</time>
      </trkpt>
      <trkpt lat="44.99222" lon="6.11719">
        <ele>1078.6</ele>
        <time>2026-08-25T08:08:09Z</time>
      </trkpt>
      <trkpt lat="44.99225" lon="6.11719">
        <ele>1080.1</ele>
        <time>2026-08-25T08:08:10Z</time>
      </trkpt>
      <trkpt lat="44.99228" lon="6.1172">
        <ele>1081.5</ele>
        <time>2026-08-25T08:08:11Z</time>
      </trkpt>
      <trkpt lat="44.99231" lon="6.11721">
        <ele>1083</ele>
        <time>2026-08-25T08:08:12Z</time>
      </trkpt>
      <trkpt lat="44.99234" lon="6.11721">
        <ele>1084.8</ele>
        <time>2026-08-25T08:08:13Z</time>
      </trkpt>
      <trkpt lat="44.99238" lon="6.11722">
        <ele>1086.6</ele>
        <time>2026-08-25T08:08:14Z</time>
      </trkpt>
      <trkpt lat="44.99241" lon="6.11722">
        <ele>1088.3</ele>
        <time>2026-08-25T08:08:15Z</time>
      </trkpt>
      <trkpt lat="44.99244" lon="6.11723">
        <ele>1089.9</ele>
        <time>2026-08-25T08:08:16Z</time>
      </trkpt>
      <trkpt lat="44.99247" lon="6.11724">
        <ele>1091.6</ele>
        <time>2026-08-25T08:08:17Z</time>
      </trkpt>
      <trkpt lat="44.9925" lon="6.11724">
        <ele>1093.4</ele>
        <time>2026-08-25T08:08:18Z</time>
      </trkpt>
      <trkpt lat="44.99253" lon="6.11725">
        <ele>1095.1</ele>
        <time>2026-08-25T08:08:19Z</time>
      </trkpt>
      <trkpt lat="44.99256" lon="6.11726">
        <ele>1097</ele>
        <time>2026-08-25T08:08:20Z</time>
      </trkpt>
      <trkpt lat="44.99259" lon="6.11726">
        <ele>1098.8</ele>
        <time>2026-08-25T08:08:21Z</time>
      </trkpt>
      <trkpt lat="44.99262" lon="6.11727">
        <ele>1100.6</ele>
        <time>2026-08-25T08:08:22Z</time>
      </trkpt>
      <trkpt lat="44.99265" lon="6.11728">
        <ele>1102.5</ele>
        <time>2026-08-25T08:08:23Z</time>
      </trkpt>
      <trkpt lat="44.99268" lon="6.11728">
        <ele>1104.3</ele>
        <time>2026-08-25T08:08:24Z</time>
      </trkpt>
      <trkpt lat="44.99271" lon="6.11729">
        <ele>1106.2</ele>
        <time>2026-08-25T08:08:25Z</time>
      </trkpt>
      <trkpt lat="44.99274" lon="6.1173">
        <ele>1108.3</ele>
        <time>2026-08-25T08:08:26Z</time>
      </trkpt>
      <trkpt lat="44.99277" lon="6.1173">
        <ele>1110.2</ele>
        <time>2026-08-25T08:08:27Z</time>
      </trkpt>
      <trkpt lat="44.9928" lon="6.11731">
        <ele>1112.2</ele>
        <time>2026-08-25T08:08:28Z</time>
      </trkpt>
      <trkpt lat="44.99283" lon="6.11731">
        <ele>1114.1</ele>
        <time>2026-08-25T08:08:29Z</time>
      </trkpt>
      <trkpt lat="44.99286" lon="6.11732">
        <ele>1116.1</ele>
        <time>2026-08-25T08:08:30Z</time>
      </trkpt>
      <trkpt lat="44.99289" lon="6.11733">
        <ele>1118.2</ele>
        <time>2026-08-25T08:08:31Z</time>
      </trkpt>
      <trkpt lat="44.99292" lon="6.11734">
        <ele>1120.4</ele>
        <time>2026-08-25T08:08:32Z</time>
      </trkpt>
      <trkpt lat="44.99295" lon="6.11735">
        <ele>1122.7</ele>
        <time>2026-08-25T08:08:33Z</time>
      </trkpt>
      <trkpt lat="44.99298" lon="6.11736">
        <ele>1124.8</ele>
        <time>2026-08-25T08:08:34Z</time>
      </trkpt>
      <trkpt lat="44.99301" lon="6.11736">
        <ele>1126.8</ele>
        <time>2026-08-25T08:08:35Z</time>
      </trkpt>
      <trkpt lat="44.99304" lon="6.11737">
        <ele>1128.8</ele>
        <time>2026-08-25T08:08:36Z</time>
      </trkpt>
      <trkpt lat="44.99307" lon="6.11737">
        <ele>1130.9</ele>
        <time>2026-08-25T08:08:37Z</time>
      </trkpt>
      <trkpt lat="44.99309" lon="6.11738">
        <ele>1132.8</ele>
        <time>2026-08-25T08:08:38Z</time>
      </trkpt>
      <trkpt lat="44.99312" lon="6.11738">
        <ele>1134.8</ele>
        <time>2026-08-25T08:08:39Z</time>
      </trkpt>
      <trkpt lat="44.99315" lon="6.11739">
        <ele>1136.7</ele>
        <time>2026-08-25T08:08:40Z</time>
      </trkpt>
      <trkpt lat="44.99318" lon="6.11739">
        <ele>1138.7</ele>
        <time>2026-08-25T08:08:41Z</time>
      </trkpt>
      <trkpt lat="44.9932" lon="6.1174">
        <ele>1140.7</ele>
        <time>2026-08-25T08:08:42Z</time>
      </trkpt>
      <trkpt lat="44.99323" lon="6.11741">
        <ele>1142.7</ele>
        <time>2026-08-25T08:08:43Z</time>
      </trkpt>
      <trkpt lat="44.99326" lon="6.11741">
        <ele>1144.7</ele>
        <time>2026-08-25T08:08:44Z</time>
      </trkpt>
      <trkpt lat="44.99329" lon="6.11742">
        <ele>1146.8</ele>
        <time>2026-08-25T08:08:45Z</time>
      </trkpt>
      <trkpt lat="44.99332" lon="6.11743">
        <ele>1148.8</ele>
        <time>2026-08-25T08:08:46Z</time>
      </trkpt>
      <trkpt lat="44.99335" lon="6.11743">
        <ele>1150.8</ele>
        <time>2026-08-25T08:08:47Z</time>
      </trkpt>
      <trkpt lat="44.99338" lon="6.11744">
        <ele>1152.8</ele>
        <time>2026-08-25T08:08:48Z</time>
      </trkpt>
      <trkpt lat="44.99341" lon="6.11745">
        <ele>1154.6</ele>
        <time>2026-08-25T08:08:49Z</time>
      </trkpt>
      <trkpt lat="44.99344" lon="6.11746">
        <ele>1156.7</ele>
        <time>2026-08-25T08:08:50Z</time>
      </trkpt>
      <trkpt lat="44.99347" lon="6.11746">
        <ele>1158.5</ele>
        <time>2026-08-25T08:08:51Z</time>
      </trkpt>
      <trkpt lat="44.9935" lon="6.11747">
        <ele>1160.4</ele>
        <time>2026-08-25T08:08:52Z</time>
      </trkpt>
      <trkpt lat="44.99353" lon="6.11748">
        <ele>1162.3</ele>
        <time>2026-08-25T08:08:53Z</time>
      </trkpt>
      <trkpt lat="44.99356" lon="6.11749">
        <ele>1164.3</ele>
        <time>2026-08-25T08:08:54Z</time>
      </trkpt>
      <trkpt lat="44.99359" lon="6.11749">
        <ele>1166.1</ele>
        <time>2026-08-25T08:08:55Z</time>
      </trkpt>
      <trkpt lat="44.99362" lon="6.1175">
        <ele>1168</ele>
        <time>2026-08-25T08:08:56Z</time>
      </trkpt>
      <trkpt lat="44.99365" lon="6.1175">
        <ele>1169.7</ele>
        <time>2026-08-25T08:08:57Z</time>
      </trkpt>
      <trkpt lat="44.99368" lon="6.11751">
        <ele>1171.4</ele>
        <time>2026-08-25T08:08:58Z</time>
      </trkpt>
      <trkpt lat="44.99371" lon="6.11752">
        <ele>1172.8</ele>
        <time>2026-08-25T08:08:59Z</time>
      </trkpt>
      <trkpt lat="44.99373" lon="6.11752">
        <ele>1174.3</ele>
        <time>2026-08-25T08:09:00Z</time>
      </trkpt>
      <trkpt lat="44.99376" lon="6.11753">
        <ele>1175.9</ele>
        <time>2026-08-25T08:09:01Z</time>
      </trkpt>
      <trkpt lat="44.9938" lon="6.11754">
        <ele>1177.7</ele>
        <time>2026-08-25T08:09:02Z</time>
      </trkpt>
      <trkpt lat="44.99384" lon="6.11755">
        <ele>1179.7</ele>
        <time>2026-08-25T08:09:03Z</time>
      </trkpt>
      <trkpt lat="44.99387" lon="6.11756">
        <ele>1181.3</ele>
        <time>2026-08-25T08:09:04Z</time>
      </trkpt>
      <trkpt lat="44.99391" lon="6.11757">
        <ele>1183.1</ele>
        <time>2026-08-25T08:09:05Z</time>
      </trkpt>
      <trkpt lat="44.99395" lon="6.11758">
        <ele>1184.8</ele>
        <time>2026-08-25T08:09:06Z</time>
      </trkpt>
      <trkpt lat="44.99399" lon="6.11759">
        <ele>1186.5</ele>
        <time>2026-08-25T08:09:07Z</time>
      </trkpt>
      <trkpt lat="44.99403" lon="6.1176">
        <ele>1188</ele>
        <time>2026-08-25T08:09:08Z</time>
      </trkpt>
      <trkpt lat="44.99407" lon="6.1176">
        <ele>1189.4</ele>
        <time>2026-08-25T08:09:09Z</time>
      </trkpt>
      <trkpt lat="44.9941" lon="6.11761">
        <ele>1190.8</ele>
        <time>2026-08-25T08:09:10Z</time>
      </trkpt>
      <trkpt lat="44.99414" lon="6.11762">
        <ele>1192.1</ele>
        <time>2026-08-25T08:09:11Z</time>
      </trkpt>
      <trkpt lat="44.99418" lon="6.11762">
        <ele>1193.4</ele>
        <time>2026-08-25T08:09:12Z</time>
      </trkpt>
      <trkpt lat="44.99422" lon="6.11763">
        <ele>1194.7</ele>
        <time>2026-08-25T08:09:13Z</time>
      </trkpt>
      <trkpt lat="44.99425" lon="6.11764">
        <ele>1196</ele>
        <time>2026-08-25T08:09:14Z</time>
      </trkpt>
      <trkpt lat="44.99429" lon="6.11764">
        <ele>1197.2</ele>
        <time>2026-08-25T08:09:15Z</time>
      </trkpt>
      <trkpt lat="44.99433" lon="6.11765">
        <ele>1198.4</ele>
        <time>2026-08-25T08:09:16Z</time>
      </trkpt>
      <trkpt lat="44.99437" lon="6.11766">
        <ele>1199.6</ele>
        <time>2026-08-25T08:09:17Z</time>
      </trkpt>
      <trkpt lat="44.9944" lon="6.11766">
        <ele>1200.6</ele>
        <time>2026-08-25T08:09:18Z</time>
      </trkpt>
      <trkpt lat="44.99443" lon="6.11767">
        <ele>1201.6</ele>
        <time>2026-08-25T08:09:19Z</time>
      </trkpt>
      <trkpt lat="44.99446" lon="6.11768">
        <ele>1202.4</ele>
        <time>2026-08-25T08:09:20Z</time>
      </trkpt>
      <trkpt lat="44.99449" lon="6.11769">
        <ele>1203.2</ele>
        <time>2026-08-25T08:09:21Z</time>
      </trkpt>
      <trkpt lat="44.99452" lon="6.11769">
        <ele>1204.1</ele>
        <time>2026-08-25T08:09:22Z</time>
      </trkpt>
      <trkpt lat="44.99455" lon="6.1177">
        <ele>1204.8</ele>
        <time>2026-08-25T08:09:23Z</time>
      </trkpt>
      <trkpt lat="44.99457" lon="6.1177">
        <ele>1205.5</ele>
        <time>2026-08-25T08:09:24Z</time>
      </trkpt>
      <trkpt lat="44.99459" lon="6.11771">
        <ele>1206</ele>
        <time>2026-08-25T08:09:25Z</time>
      </trkpt>
      <trkpt lat="44.99461" lon="6.11771">
        <ele>1206.6</ele>
        <time>2026-08-25T08:09:26Z</time>
      </trkpt>
      <trkpt lat="44.99463" lon="6.11772">
        <ele>1207.2</ele>
        <time>2026-08-25T08:09:27Z</time>
      </trkpt>
      <trkpt lat="44.99465" lon="6.11773">
        <ele>1207.8</ele>
        <time>2026-08-25T08:09:28Z</time>
      </trkpt>
      <trkpt lat="44.99467" lon="6.11773">
        <ele>1208.3</ele>
        <time>2026-08-25T08:09:29Z</time>
      </trkpt>
      <trkpt lat="44.99469" lon="6.11773">
        <ele>1208.9</ele>
        <time>2026-08-25T08:09:30Z</time>
      </trkpt>
      <trkpt lat="44.99471" lon="6.11774">
        <ele>1209.5</ele>
        <time>2026-08-25T08:09:31Z</time>
      </trkpt>
      <trkpt lat="44.99473" lon="6.11775">
        <ele>1210.2</ele>
        <time>2026-08-25T08:09:32Z</time>
      </trkpt>
      <trkpt lat="44.99476" lon="6.11775">
        <ele>1210.9</ele>
        <time>2026-08-25T08:09:33Z</time>
      </trkpt>
      <trkpt lat="44.99478" lon="6.11776">
        <ele>1211.5</ele>
        <time>2026-08-25T08:09:34Z</time>
      </trkpt>
      <trkpt lat="44.9948" lon="6.11776">
        <ele>1212.2</ele>
        <time>2026-08-25T08:09:35Z</time>
      </trkpt>
      <trkpt lat="44.99482" lon="6.11777">
        <ele>1212.8</ele>
        <time>2026-08-25T08:09:36Z</time>
      </trkpt>
      <trkpt lat="44.99484" lon="6.11777">
        <ele>1213.4</ele>
        <time>2026-08-25T08:09:37Z</time>
      </trkpt>
      <trkpt lat="44.99486" lon="6.11778">
        <ele>1214.1</ele>
        <time>2026-08-25T08:09:38Z</time>
      </trkpt>
      <trkpt lat="44.99489" lon="6.11778">
        <ele>1214.9</ele>
        <time>2026-08-25T08:09:39Z</time>
      </trkpt>
      <trkpt lat="44.99491" lon="6.11779">
        <ele>1215.6</ele>
        <time>2026-08-25T08:09:40Z</time>
      </trkpt>
      <trkpt lat="44.99493" lon="6.1178">
        <ele>1216.3</ele>
        <time>2026-08-25T08:09:41Z</time>
      </trkpt>
      <trkpt lat="44.99495" lon="6.11781">
        <ele>1217</ele>
        <time>2026-08-25T08:09:42Z</time>
      </trkpt>
      <trkpt lat="44.99497" lon="6.11781">
        <ele>1217.6</ele>
        <time>2026-08-25T08:09:43Z</time>
      </trkpt>
      <trkpt lat="44.99499" lon="6.11782">
        <ele>1218.3</ele>
        <time>2026-08-25T08:09:44Z</time>
      </trkpt>
      <trkpt lat="44.99501" lon="6.11782">
        <ele>1218.9</ele>
        <time>2026-08-25T08:09:45Z</time>
      </trkpt>
      <trkpt lat="44.99502" lon="6.11782">
        <ele>1219.4</ele>
        <time>2026-08-25T08:09:46Z</time>
      </trkpt>
      <trkpt lat="44.99504" lon="6.11783">
        <ele>1220.1</ele>
        <time>2026-08-25T08:09:47Z</time>
      </trkpt>
      <trkpt lat="44.99506" lon="6.11784">
        <ele>1220.8</ele>
        <time>2026-08-25T08:09:48Z</time>
      </trkpt>
      <trkpt lat="44.99508" lon="6.11784">
        <ele>1221.6</ele>
        <time>2026-08-25T08:09:49Z</time>
      </trkpt>
      <trkpt lat="44.99511" lon="6.11784">
        <ele>1222.6</ele>
        <time>2026-08-25T08:09:50Z</time>
      </trkpt>
      <trkpt lat="44.99513" lon="6.11785">
        <ele>1223.5</ele>
        <time>2026-08-25T08:09:51Z</time>
      </trkpt>
      <trkpt lat="44.99515" lon="6.11785">
        <ele>1224.4</ele>
        <time>2026-08-25T08:09:52Z</time>
      </trkpt>
      <trkpt lat="44.99518" lon="6.11785">
        <ele>1225.2</ele>
        <time>2026-08-25T08:09:53Z</time>
      </trkpt>
      <trkpt lat="44.9952" lon="6.11785">
        <ele>1226</ele>
        <time>2026-08-25T08:09:54Z</time>
      </trkpt>
      <trkpt lat="44.99522" lon="6.11786">
        <ele>1226.9</ele>
        <time>2026-08-25T08:09:55Z</time>
      </trkpt>
      <trkpt lat="44.99524" lon="6.11786">
        <ele>1227.7</ele>
        <time>2026-08-25T08:09:56Z</time>
      </trkpt>
      <trkpt lat="44.99526" lon="6.11787">
        <ele>1228.6</ele>
        <time>2026-08-25T08:09:57Z</time>
      </trkpt>
      <trkpt lat="44.99528" lon="6.11787">
        <ele>1229.5</ele>
        <time>2026-08-25T08:09:58Z</time>
      </trkpt>
      <trkpt lat="44.9953" lon="6.11788">
        <ele>1230.4</ele>
        <time>2026-08-25T08:09:59Z</time>
      </trkpt>
      <trkpt lat="44.99532" lon="6.11788">
        <ele>1231.3</ele>
        <time>2026-08-25T08:10:00Z</time>
      </trkpt>
      <trkpt lat="44.99533" lon="6.11789">
        <ele>1232.1</ele>
        <time>2026-08-25T08:10:01Z</time>
      </trkpt>
      <trkpt lat="44.99535" lon="6.11789">
        <ele>1233</ele>
        <time>2026-08-25T08:10:02Z</time>
      </trkpt>
      <trkpt lat="44.99537" lon="6.1179">
        <ele>1233.8</ele>
        <time>2026-08-25T08:10:03Z</time>
      </trkpt>
      <trkpt lat="44.99539" lon="6.1179">
        <ele>1234.6</ele>
        <time>2026-08-25T08:10:04Z</time>
      </trkpt>
      <trkpt lat="44.9954" lon="6.1179">
        <ele>1235.4</ele>
        <time>2026-08-25T08:10:05Z</time>
      </trkpt>
      <trkpt lat="44.99542" lon="6.11791">
        <ele>1236.1</ele>
        <time>2026-08-25T08:10:06Z</time>
      </trkpt>
      <trkpt lat="44.99544" lon="6.11791">
        <ele>1237.1</ele>
        <time>2026-08-25T08:10:07Z</time>
      </trkpt>
      <trkpt lat="44.99546" lon="6.11792">
        <ele>1238.4</ele>
        <time>2026-08-25T08:10:08Z</time>
      </trkpt>
      <trkpt lat="44.99549" lon="6.11793">
        <ele>1239.6</ele>
        <time>2026-08-25T08:10:09Z</time>
      </trkpt>
      <trkpt lat="44.99551" lon="6.11794">
        <ele>1241.1</ele>
        <time>2026-08-25T08:10:10Z</time>
      </trkpt>
      <trkpt lat="44.99554" lon="6.11794">
        <ele>1242.7</ele>
        <time>2026-08-25T08:10:11Z</time>
      </trkpt>
      <trkpt lat="44.99557" lon="6.11795">
        <ele>1244.1</ele>
        <time>2026-08-25T08:10:12Z</time>
      </trkpt>
      <trkpt lat="44.9956" lon="6.11795">
        <ele>1245.7</ele>
        <time>2026-08-25T08:10:13Z</time>
      </trkpt>
      <trkpt lat="44.99564" lon="6.11796">
        <ele>1247.5</ele>
        <time>2026-08-25T08:10:14Z</time>
      </trkpt>
      <trkpt lat="44.99566" lon="6.11796">
        <ele>1249</ele>
        <time>2026-08-25T08:10:15Z</time>
      </trkpt>
      <trkpt lat="44.9957" lon="6.11797">
        <ele>1250.7</ele>
        <time>2026-08-25T08:10:16Z</time>
      </trkpt>
      <trkpt lat="44.99573" lon="6.11798">
        <ele>1252.4</ele>
        <time>2026-08-25T08:10:17Z</time>
      </trkpt>
      <trkpt lat="44.99576" lon="6.11798">
        <ele>1254.2</ele>
        <time>2026-08-25T08:10:18Z</time>
      </trkpt>
      <trkpt lat="44.99579" lon="6.11799">
        <ele>1255.9</ele>
        <time>2026-08-25T08:10:19Z</time>
      </trkpt>
      <trkpt lat="44.99582" lon="6.118">
        <ele>1257.7</ele>
        <time>2026-08-25T08:10:20Z</time>
      </trkpt>
      <trkpt lat="44.99586" lon="6.11801">
        <ele>1259.4</ele>
        <time>2026-08-25T08:10:21Z</time>
      </trkpt>
      <trkpt lat="44.99589" lon="6.11802">
        <ele>1261.4</ele>
        <time>2026-08-25T08:10:22Z</time>
      </trkpt>
      <trkpt lat="44.99592" lon="6.11803">
        <ele>1263.2</ele>
        <time>2026-08-25T08:10:23Z</time>
      </trkpt>
      <trkpt lat="44.99596" lon="6.11804">
        <ele>1265</ele>
        <time>2026-08-25T08:10:24Z</time>
      </trkpt>
      <trkpt lat="44.99599" lon="6.11805">
        <ele>1266.8</ele>
        <time>2026-08-25T08:10:25Z</time>
      </trkpt>
      <trkpt lat="44.99602" lon="6.11805">
        <ele>1268.5</ele>
        <time>2026-08-25T08:10:26Z</time>
      </trkpt>
      <trkpt lat="44.99605" lon="6.11806">
        <ele>1270.2</ele>
        <time>2026-08-25T08:10:27Z</time>
      </trkpt>
      <trkpt lat="44.99608" lon="6.11807">
        <ele>1272</ele>
        <time>2026-08-25T08:10:28Z</time>
      </trkpt>
      <trkpt lat="44.99612" lon="6.11808">
        <ele>1273.8</ele>
        <time>2026-08-25T08:10:29Z</time>
      </trkpt>
      <trkpt lat="44.99615" lon="6.11809">
        <ele>1275.5</ele>
        <time>2026-08-25T08:10:30Z</time>
      </trkpt>
      <trkpt lat="44.99618" lon="6.11809">
        <ele>1277.3</ele>
        <time>2026-08-25T08:10:31Z</time>
      </trkpt>
      <trkpt lat="44.99621" lon="6.1181">
        <ele>1278.9</ele>
        <time>2026-08-25T08:10:32Z</time>
      </trkpt>
      <trkpt lat="44.99624" lon="6.1181">
        <ele>1280.5</ele>
        <time>2026-08-25T08:10:33Z</time>
      </trkpt>
      <trkpt lat="44.99627" lon="6.11811">
        <ele>1282</ele>
        <time>2026-08-25T08:10:34Z</time>
      </trkpt>
      <trkpt lat="44.99631" lon="6.11812">
        <ele>1283.6</ele>
        <time>2026-08-25T08:10:35Z</time>
      </trkpt>
      <trkpt lat="44.99634" lon="6.11813">
        <ele>1285.2</ele>
        <time>2026-08-25T08:10:36Z</time>
      </trkpt>
      <trkpt lat="44.99637" lon="6.11813">
        <ele>1286.8</ele>
        <time>2026-08-25T08:10:37Z</time>
      </trkpt>
      <trkpt lat="44.9964" lon="6.11814">
        <ele>1288.2</ele>
        <time>2026-08-25T08:10:38Z</time>
      </trkpt>
      <trkpt lat="44.99643" lon="6.11815">
        <ele>1289.6</ele>
        <time>2026-08-25T08:10:39Z</time>
      </trkpt>
      <trkpt lat="44.99646" lon="6.11815">
        <ele>1291.1</ele>
        <time>2026-08-25T08:10:40Z</time>
      </trkpt>
      <trkpt lat="44.9965" lon="6.11816">
        <ele>1292.6</ele>
        <time>2026-08-25T08:10:41Z</time>
      </trkpt>
      <trkpt lat="44.99652" lon="6.11817">
        <ele>1293.9</ele>
        <time>2026-08-25T08:10:42Z</time>
      </trkpt>
      <trkpt lat="44.99655" lon="6.11818">
        <ele>1295.1</ele>
        <time>2026-08-25T08:10:43Z</time>
      </trkpt>
      <trkpt lat="44.99659" lon="6.11819">
        <ele>1296.9</ele>
        <time>2026-08-25T08:10:44Z</time>
      </trkpt>
      <trkpt lat="44.99663" lon="6.1182">
        <ele>1298.8</ele>
        <time>2026-08-25T08:10:45Z</time>
      </trkpt>
      <trkpt lat="44.99666" lon="6.1182">
        <ele>1300.4</ele>
        <time>2026-08-25T08:10:46Z</time>
      </trkpt>
      <trkpt lat="44.99669" lon="6.11821">
        <ele>1302</ele>
        <time>2026-08-25T08:10:47Z</time>
      </trkpt>
      <trkpt lat="44.99673" lon="6.11822">
        <ele>1303.8</ele>
        <time>2026-08-25T08:10:48Z</time>
      </trkpt>
      <trkpt lat="44.99676" lon="6.11823">
        <ele>1305.6</ele>
        <time>2026-08-25T08:10:49Z</time>
      </trkpt>
      <trkpt lat="44.9968" lon="6.11823">
        <ele>1307.3</ele>
        <time>2026-08-25T08:10:50Z</time>
      </trkpt>
      <trkpt lat="44.99683" lon="6.11824">
        <ele>1309.2</ele>
        <time>2026-08-25T08:10:51Z</time>
      </trkpt>
      <trkpt lat="44.99686" lon="6.11825">
        <ele>1311</ele>
        <time>2026-08-25T08:10:52Z</time>
      </trkpt>
      <trkpt lat="44.9969" lon="6.11826">
        <ele>1312.8</ele>
        <time>2026-08-25T08:10:53Z</time>
      </trkpt>
      <trkpt lat="44.99693" lon="6.11827">
        <ele>1314.6</ele>
        <time>2026-08-25T08:10:54Z</time>
      </trkpt>
      <trkpt lat="44.99696" lon="6.11827">
        <ele>1316.4</ele>
        <time>2026-08-25T08:10:55Z</time>
      </trkpt>
      <trkpt lat="44.997" lon="6.11828">
        <ele>1318.2</ele>
        <time>2026-08-25T08:10:56Z</time>
      </trkpt>
      <trkpt lat="44.99703" lon="6.11829">
        <ele>1320.1</ele>
        <time>2026-08-25T08:10:57Z</time>
      </trkpt>
      <trkpt lat="44.99707" lon="6.11829">
        <ele>1322</ele>
        <time>2026-08-25T08:10:58Z</time>
      </trkpt>
      <trkpt lat="44.9971" lon="6.1183">
        <ele>1323.8</ele>
        <time>2026-08-25T08:10:59Z</time>
      </trkpt>
      <trkpt lat="44.99713" lon="6.11831">
        <ele>1325.6</ele>
        <time>2026-08-25T08:11:00Z</time>
      </trkpt>
      <trkpt lat="44.99717" lon="6.11832">
        <ele>1327.5</ele>
        <time>2026-08-25T08:11:01Z</time>
      </trkpt>
      <trkpt lat="44.9972" lon="6.11832">
        <ele>1329.4</ele>
        <time>2026-08-25T08:11:02Z</time>
      </trkpt>
      <trkpt lat="44.99723" lon="6.11833">
        <ele>1331.2</ele>
        <time>2026-08-25T08:11:03Z</time>
      </trkpt>
      <trkpt lat="44.99727" lon="6.11834">
        <ele>1333.1</ele>
        <time>2026-08-25T08:11:04Z</time>
      </trkpt>
      <trkpt lat="44.9973" lon="6.11834">
        <ele>1335</ele>
        <time>2026-08-25T08:11:05Z</time>
      </trkpt>
      <trkpt lat="44.99733" lon="6.11835">
        <ele>1336.8</ele>
        <time>2026-08-25T08:11:06Z</time>
      </trkpt>
      <trkpt lat="44.99737" lon="6.11836">
        <ele>1338.6</ele>
        <time>2026-08-25T08:11:07Z</time>
      </trkpt>
      <trkpt lat="44.9974" lon="6.11837">
        <ele>1340.5</ele>
        <time>2026-08-25T08:11:08Z</time>
      </trkpt>
      <trkpt lat="44.99744" lon="6.11837">
        <ele>1342.5</ele>
        <time>2026-08-25T08:11:09Z</time>
      </trkpt>
      <trkpt lat="44.99747" lon="6.11838">
        <ele>1344.4</ele>
        <time>2026-08-25T08:11:10Z</time>
      </trkpt>
      <trkpt lat="44.9975" lon="6.11839">
        <ele>1346.2</ele>
        <time>2026-08-25T08:11:11Z</time>
      </trkpt>
      <trkpt lat="44.99753" lon="6.1184">
        <ele>1348.1</ele>
        <time>2026-08-25T08:11:12Z</time>
      </trkpt>
      <trkpt lat="44.99757" lon="6.11841">
        <ele>1349.9</ele>
        <time>2026-08-25T08:11:13Z</time>
      </trkpt>
      <trkpt lat="44.9976" lon="6.11842">
        <ele>1351.8</ele>
        <time>2026-08-25T08:11:14Z</time>
      </trkpt>
      <trkpt lat="44.99763" lon="6.11843">
        <ele>1353.5</ele>
        <time>2026-08-25T08:11:15Z</time>
      </trkpt>
      <trkpt lat="44.99766" lon="6.11843">
        <ele>1355.4</ele>
        <time>2026-08-25T08:11:16Z</time>
      </trkpt>
      <trkpt lat="44.9977" lon="6.11844">
        <ele>1357.3</ele>
        <time>2026-08-25T08:11:17Z</time>
      </trkpt>
      <trkpt lat="44.99773" lon="6.11845">
        <ele>1359</ele>
        <time>2026-08-25T08:11:18Z</time>
      </trkpt>
      <trkpt lat="44.99776" lon="6.11846">
        <ele>1361</ele>
        <time>2026-08-25T08:11:19Z</time>
      </trkpt>
      <trkpt lat="44.99779" lon="6.11847">
        <ele>1362.9</ele>
        <time>2026-08-25T08:11:20Z</time>
      </trkpt>
      <trkpt lat="44.99783" lon="6.11847">
        <ele>1364.9</ele>
        <time>2026-08-25T08:11:21Z</time>
      </trkpt>
      <trkpt lat="44.99786" lon="6.11848">
        <ele>1366.9</ele>
        <time>2026-08-25T08:11:22Z</time>
      </trkpt>
      <trkpt lat="44.99789" lon="6.11849">
        <ele>1368.7</ele>
        <time>2026-08-25T08:11:23Z</time>
      </trkpt>
      <trkpt lat="44.99792" lon="6.1185">
        <ele>1370.6</ele>
        <time>2026-08-25T08:11:24Z</time>
      </trkpt>
      <trkpt lat="44.99796" lon="6.1185">
        <ele>1372.6</ele>
        <time>2026-08-25T08:11:25Z</time>
      </trkpt>
      <trkpt lat="44.99799" lon="6.11851">
        <ele>1374.5</ele>
        <time>2026-08-25T08:11:26Z</time>
      </trkpt>
      <trkpt lat="44.99802" lon="6.11852">
        <ele>1376.4</ele>
        <time>2026-08-25T08:11:27Z</time>
      </trkpt>
      <trkpt lat="44.99805" lon="6.11853">
        <ele>1378.1</ele>
        <time>2026-08-25T08:11:28Z</time>
      </trkpt>
      <trkpt lat="44.99809" lon="6.11854">
        <ele>1380.1</ele>
        <time>2026-08-25T08:11:29Z</time>
      </trkpt>
      <trkpt lat="44.99813" lon="6.11855">
        <ele>1382.4</ele>
        <time>2026-08-25T08:11:30Z</time>
      </trkpt>
      <trkpt lat="44.99816" lon="6.11856">
        <ele>1384.2</ele>
        <time>2026-08-25T08:11:31Z</time>
      </trkpt>
      <trkpt lat="44.9982" lon="6.11857">
        <ele>1385.8</ele>
        <time>2026-08-25T08:11:32Z</time>
      </trkpt>
      <trkpt lat="44.99823" lon="6.11857">
        <ele>1387.5</ele>
        <time>2026-08-25T08:11:33Z</time>
      </trkpt>
      <trkpt lat="44.99827" lon="6.11858">
        <ele>1389.2</ele>
        <time>2026-08-25T08:11:34Z</time>
      </trkpt>
      <trkpt lat="44.9983" lon="6.11858">
        <ele>1390.7</ele>
        <time>2026-08-25T08:11:35Z</time>
      </trkpt>
      <trkpt lat="44.99833" lon="6.11859">
        <ele>1392.2</ele>
        <time>2026-08-25T08:11:36Z</time>
      </trkpt>
      <trkpt lat="44.99836" lon="6.11859">
        <ele>1393.8</ele>
        <time>2026-08-25T08:11:37Z</time>
      </trkpt>
      <trkpt lat="44.9984" lon="6.1186">
        <ele>1395.4</ele>
        <time>2026-08-25T08:11:38Z</time>
      </trkpt>
      <trkpt lat="44.99843" lon="6.11861">
        <ele>1397</ele>
        <time>2026-08-25T08:11:39Z</time>
      </trkpt>
      <trkpt lat="44.99846" lon="6.11862">
        <ele>1398.5</ele>
        <time>2026-08-25T08:11:40Z</time>
      </trkpt>
      <trkpt lat="44.9985" lon="6.11862">
        <ele>1400.2</ele>
        <time>2026-08-25T08:11:41Z</time>
      </trkpt>
      <trkpt lat="44.99853" lon="6.11863">
        <ele>1401.8</ele>
        <time>2026-08-25T08:11:42Z</time>
      </trkpt>
      <trkpt lat="44.99856" lon="6.11863">
        <ele>1403.5</ele>
        <time>2026-08-25T08:11:43Z</time>
      </trkpt>
      <trkpt lat="44.9986" lon="6.11864">
        <ele>1405.3</ele>
        <time>2026-08-25T08:11:44Z</time>
      </trkpt>
      <trkpt lat="44.99863" lon="6.11865">
        <ele>1407.2</ele>
        <time>2026-08-25T08:11:45Z</time>
      </trkpt>
      <trkpt lat="44.99866" lon="6.11866">
        <ele>1409</ele>
        <time>2026-08-25T08:11:46Z</time>
      </trkpt>
      <trkpt lat="44.9987" lon="6.11867">
        <ele>1410.9</ele>
        <time>2026-08-25T08:11:47Z</time>
      </trkpt>
      <trkpt lat="44.99873" lon="6.11867">
        <ele>1412.9</ele>
        <time>2026-08-25T08:11:48Z</time>
      </trkpt>
      <trkpt lat="44.99877" lon="6.11868">
        <ele>1414.9</ele>
        <time>2026-08-25T08:11:49Z</time>
      </trkpt>
      <trkpt lat="44.9988" lon="6.11869">
        <ele>1416.8</ele>
        <time>2026-08-25T08:11:50Z</time>
      </trkpt>
      <trkpt lat="44.99883" lon="6.1187">
        <ele>1418.8</ele>
        <time>2026-08-25T08:11:51Z</time>
      </trkpt>
      <trkpt lat="44.99886" lon="6.1187">
        <ele>1420.6</ele>
        <time>2026-08-25T08:11:52Z</time>
      </trkpt>
      <trkpt lat="44.9989" lon="6.11871">
        <ele>1422.6</ele>
        <time>2026-08-25T08:11:53Z</time>
      </trkpt>
      <trkpt lat="44.99893" lon="6.11872">
        <ele>1424.5</ele>
        <time>2026-08-25T08:11:54Z</time>
      </trkpt>
      <trkpt lat="44.99896" lon="6.11873">
        <ele>1426.4</ele>
        <time>2026-08-25T08:11:55Z</time>
      </trkpt>
      <trkpt lat="44.999" lon="6.11874">
        <ele>1428.4</ele>
        <time>2026-08-25T08:11:56Z</time>
      </trkpt>
      <trkpt lat="44.99903" lon="6.11874">
        <ele>1430.4</ele>
        <time>2026-08-25T08:11:57Z</time>
      </trkpt>
      <trkpt lat="44.99906" lon="6.11875">
        <ele>1432.4</ele>
        <time>2026-08-25T08:11:58Z</time>
      </trkpt>
      <trkpt lat="44.9991" lon="6.11876">
        <ele>1434.3</ele>
        <time>2026-08-25T08:11:59Z</time>
      </trkpt>
      <trkpt lat="44.99913" lon="6.11876">
        <ele>1436.1</ele>
        <time>2026-08-25T08:12:00Z</time>
      </trkpt>
      <trkpt lat="44.99916" lon="6.11877">
        <ele>1438</ele>
        <time>2026-08-25T08:12:01Z</time>
      </trkpt>
      <trkpt lat="44.99919" lon="6.11878">
        <ele>1439.9</ele>
        <time>2026-08-25T08:12:02Z</time>
      </trkpt>
      <trkpt lat="44.99922" lon="6.11879">
        <ele>1441.6</ele>
        <time>2026-08-25T08:12:03Z</time>
      </trkpt>
      <trkpt lat="44.99925" lon="6.11879">
        <ele>1443.4</ele>
        <time>2026-08-25T08:12:04Z</time>
      </trkpt>
      <trkpt lat="44.99928" lon="6.1188">
        <ele>1445.3</ele>
        <time>2026-08-25T08:12:05Z</time>
      </trkpt>
      <trkpt lat="44.99932" lon="6.11881">
        <ele>1447.2</ele>
        <time>2026-08-25T08:12:06Z</time>
      </trkpt>
      <trkpt lat="44.99935" lon="6.11882">
        <ele>1449.1</ele>
        <time>2026-08-25T08:12:07Z</time>
      </trkpt>
      <trkpt lat="44.99938" lon="6.11883">
        <ele>1451</ele>
        <time>2026-08-25T08:12:08Z</time>
      </trkpt>
      <trkpt lat="44.99941" lon="6.11884">
        <ele>1452.8</ele>
        <time>2026-08-25T08:12:09Z</time>
      </trkpt>
      <trkpt lat="44.99944" lon="6.11885">
        <ele>1454.6</ele>
        <time>2026-08-25T08:12:10Z</time>
      </trkpt>
      <trkpt lat="44.99947" lon="6.11886">
        <ele>1456.2</ele>
        <time>2026-08-25T08:12:11Z</time>
      </trkpt>
      <trkpt lat="44.99951" lon="6.11887">
        <ele>1458.2</ele>
        <time>2026-08-25T08:12:12Z</time>
      </trkpt>
      <trkpt lat="44.99955" lon="6.11887">
        <ele>1460.5</ele>
        <time>2026-08-25T08:12:13Z</time>
      </trkpt>
      <trkpt lat="44.99959" lon="6.11888">
        <ele>1462.5</ele>
        <time>2026-08-25T08:12:14Z</time>
      </trkpt>
      <trkpt lat="44.99962" lon="6.11889">
        <ele>1464.5</ele>
        <time>2026-08-25T08:12:15Z</time>
      </trkpt>
      <trkpt lat="44.99966" lon="6.1189">
        <ele>1466.4</ele>
        <time>2026-08-25T08:12:16Z</time>
      </trkpt>
      <trkpt lat="44.99969" lon="6.11891">
        <ele>1468.3</ele>
        <time>2026-08-25T08:12:17Z</time>
      </trkpt>
      <trkpt lat="44.99973" lon="6.11891">
        <ele>1470.3</ele>
        <time>2026-08-25T08:12:18Z</time>
      </trkpt>
      <trkpt lat="44.99976" lon="6.11892">
        <ele>1472.1</ele>
        <time>2026-08-25T08:12:19Z</time>
      </trkpt>
      <trkpt lat="44.99979" lon="6.11893">
        <ele>1473.9</ele>
        <time>2026-08-25T08:12:20Z</time>
      </trkpt>
      <trkpt lat="44.99983" lon="6.11894">
        <ele>1475.8</ele>
        <time>2026-08-25T08:12:21Z</time>
      </trkpt>
      <trkpt lat="44.99986" lon="6.11894">
        <ele>1477.7</ele>
        <time>2026-08-25T08:12:22Z</time>
      </trkpt>
      <trkpt lat="44.99989" lon="6.11895">
        <ele>1479.6</ele>
        <time>2026-08-25T08:12:23Z</time>
      </trkpt>
      <trkpt lat="44.99993" lon="6.11896">
        <ele>1481.4</ele>
        <time>2026-08-25T08:12:24Z</time>
      </trkpt>
      <trkpt lat="44.99996" lon="6.11897">
        <ele>1483.3</ele>
        <time>2026-08-25T08:12:25Z</time>
      </trkpt>
      <trkpt lat="45" lon="6.11897">
        <ele>1485.2</ele>
        <time>2026-08-25T08:12:26Z</time>
      </trkpt>
      <trkpt lat="45.00003" lon="6.11898">
        <ele>1487.1</ele>
        <time>2026-08-25T08:12:27Z</time>
      </trkpt>
      <trkpt lat="45.00007" lon="6.11899">
        <ele>1488.9</ele>
        <time>2026-08-25T08:12:28Z</time>
      </trkpt>
      <trkpt lat="45.0001" lon="6.119">
        <ele>1490.7</ele>
        <time>2026-08-25T08:12:29Z</time>
      </trkpt>
      <trkpt lat="45.00013" lon="6.119">
        <ele>1492.4</ele>
        <time>2026-08-25T08:12:30Z</time>
      </trkpt>
      <trkpt lat="45.00017" lon="6.11901">
        <ele>1494.3</ele>
        <time>2026-08-25T08:12:31Z</time>
      </trkpt>
      <trkpt lat="45.0002" lon="6.11902">
        <ele>1496.2</ele>
        <time>2026-08-25T08:12:32Z</time>
      </trkpt>
      <trkpt lat="45.00024" lon="6.11903">
        <ele>1498.2</ele>
        <time>2026-08-25T08:12:33Z</time>
      </trkpt>
      <trkpt lat="45.00028" lon="6.11904">
        <ele>1500.1</ele>
        <time>2026-08-25T08:12:34Z</time>
      </trkpt>
      <trkpt lat="45.00031" lon="6.11905">
        <ele>1501.9</ele>
        <time>2026-08-25T08:12:35Z</time>
      </trkpt>
      <trkpt lat="45.00034" lon="6.11905">
        <ele>1503.8</ele>
        <time>2026-08-25T08:12:36Z</time>
      </trkpt>
      <trkpt lat="45.00038" lon="6.11906">
        <ele>1505.7</ele>
        <time>2026-08-25T08:12:37Z</time>
      </trkpt>
      <trkpt lat="45.00041" lon="6.11907">
        <ele>1507.7</ele>
        <time>2026-08-25T08:12:38Z</time>
      </trkpt>
      <trkpt lat="45.00045" lon="6.11908">
        <ele>1509.6</ele>
        <time>2026-08-25T08:12:39Z</time>
      </trkpt>
      <trkpt lat="45.00048" lon="6.11908">
        <ele>1511.4</ele>
        <time>2026-08-25T08:12:40Z</time>
      </trkpt>
      <trkpt lat="45.00051" lon="6.11909">
        <ele>1513.3</ele>
        <time>2026-08-25T08:12:41Z</time>
      </trkpt>
      <trkpt lat="45.00055" lon="6.1191">
        <ele>1515.3</ele>
        <time>2026-08-25T08:12:42Z</time>
      </trkpt>
      <trkpt lat="45.00058" lon="6.11911">
        <ele>1517.3</ele>
        <time>2026-08-25T08:12:43Z</time>
      </trkpt>
      <trkpt lat="45.00061" lon="6.11911">
        <ele>1519.4</ele>
        <time>2026-08-25T08:12:44Z</time>
      </trkpt>
      <trkpt lat="45.00065" lon="6.11912">
        <ele>1521.5</ele>
        <time>2026-08-25T08:12:45Z</time>
      </trkpt>
      <trkpt lat="45.00068" lon="6.11913">
        <ele>1523.6</ele>
        <time>2026-08-25T08:12:46Z</time>
      </trkpt>
      <trkpt lat="45.00072" lon="6.11914">
        <ele>1525.5</ele>
        <time>2026-08-25T08:12:47Z</time>
      </trkpt>
      <trkpt lat="45.00075" lon="6.11915">
        <ele>1527.5</ele>
        <time>2026-08-25T08:12:48Z</time>
      </trkpt>
      <trkpt lat="45.00079" lon="6.11915">
        <ele>1529.6</ele>
        <time>2026-08-25T08:12:49Z</time>
      </trkpt>
      <trkpt lat="45.00082" lon="6.11916">
        <ele>1531.7</ele>
        <time>2026-08-25T08:12:50Z</time>
      </trkpt>
      <trkpt lat="45.00085" lon="6.11917">
        <ele>1533.6</ele>
        <time>2026-08-25T08:12:51Z</time>
      </trkpt>
      <trkpt lat="45.00089" lon="6.11918">
        <ele>1535.4</ele>
        <time>2026-08-25T08:12:52Z</time>
      </trkpt>
      <trkpt lat="45.00092" lon="6.11919">
        <ele>1537.3</ele>
        <time>2026-08-25T08:12:53Z</time>
      </trkpt>
      <trkpt lat="45.00095" lon="6.1192">
        <ele>1539.2</ele>
        <time>2026-08-25T08:12:54Z</time>
      </trkpt>
      <trkpt lat="45.00099" lon="6.11921">
        <ele>1541</ele>
        <time>2026-08-25T08:12:55Z</time>
      </trkpt>
      <trkpt lat="45.00102" lon="6.11921">
        <ele>1542.6</ele>
        <time>2026-08-25T08:12:56Z</time>
      </trkpt>
      <trkpt lat="45.00105" lon="6.11922">
        <ele>1544.3</ele>
        <time>2026-08-25T08:12:57Z</time>
      </trkpt>
      <trkpt lat="45.00109" lon="6.11923">
        <ele>1546.3</ele>
        <time>2026-08-25T08:12:58Z</time>
      </trkpt>
      <trkpt lat="45.00112" lon="6.11924">
        <ele>1548.1</ele>
        <time>2026-08-25T08:12:59Z</time>
      </trkpt>
      <trkpt lat="45.00116" lon="6.11925">
        <ele>1549.8</ele>
        <time>2026-08-25T08:13:00Z</time>
      </trkpt>
      <trkpt lat="45.00119" lon="6.11925">
        <ele>1551.5</ele>
        <time>2026-08-25T08:13:01Z</time>
      </trkpt>
      <trkpt lat="45.00123" lon="6.11926">
        <ele>1553.2</ele>
        <time>2026-08-25T08:13:02Z</time>
      </trkpt>
      <trkpt lat="45.00127" lon="6.11927">
        <ele>1555</ele>
        <time>2026-08-25T08:13:03Z</time>
      </trkpt>
      <trkpt lat="45.0013" lon="6.11928">
        <ele>1556.6</ele>
        <time>2026-08-25T08:13:04Z</time>
      </trkpt>
      <trkpt lat="45.00134" lon="6.11929">
        <ele>1558.3</ele>
        <time>2026-08-25T08:13:05Z</time>
      </trkpt>
      <trkpt lat="45.00137" lon="6.11929">
        <ele>1559.9</ele>
        <time>2026-08-25T08:13:06Z</time>
      </trkpt>
      <trkpt lat="45.0014" lon="6.1193">
        <ele>1561.5</ele>
        <time>2026-08-25T08:13:07Z</time>
      </trkpt>
      <trkpt lat="45.00144" lon="6.11931">
        <ele>1563.1</ele>
        <time>2026-08-25T08:13:08Z</time>
      </trkpt>
      <trkpt lat="45.00147" lon="6.11932">
        <ele>1564.7</ele>
        <time>2026-08-25T08:13:09Z</time>
      </trkpt>
      <trkpt lat="45.00151" lon="6.11933">
        <ele>1566.4</ele>
        <time>2026-08-25T08:13:10Z</time>
      </trkpt>
      <trkpt lat="45.00154" lon="6.11933">
        <ele>1568.1</ele>
        <time>2026-08-25T08:13:11Z</time>
      </trkpt>
      <trkpt lat="45.00158" lon="6.11934">
        <ele>1569.7</ele>
        <time>2026-08-25T08:13:12Z</time>
      </trkpt>
      <trkpt lat="45.00161" lon="6.11935">
        <ele>1571.4</ele>
        <time>2026-08-25T08:13:13Z</time>
      </trkpt>
      <trkpt lat="45.00165" lon="6.11936">
        <ele>1573</ele>
        <time>2026-08-25T08:13:14Z</time>
      </trkpt>
      <trkpt lat="45.00168" lon="6.11937">
        <ele>1574.8</ele>
        <time>2026-08-25T08:13:15Z</time>
      </trkpt>
      <trkpt lat="45.00172" lon="6.11937">
        <ele>1576.5</ele>
        <time>2026-08-25T08:13:16Z</time>
      </trkpt>
      <trkpt lat="45.00175" lon="6.11938">
        <ele>1578.3</ele>
        <time>2026-08-25T08:13:17Z</time>
      </trkpt>
      <trkpt lat="45.00179" lon="6.11939">
        <ele>1580</ele>
        <time>2026-08-25T08:13:18Z</time>
      </trkpt>
      <trkpt lat="45.00182" lon="6.1194">
        <ele>1581.8</ele>
        <time>2026-08-25T08:13:19Z</time>
      </trkpt>
      <trkpt lat="45.00186" lon="6.11941">
        <ele>1583.5</ele>
        <time>2026-08-25T08:13:20Z</time>
      </trkpt>
      <trkpt lat="45.00189" lon="6.11942">
        <ele>1585.4</ele>
        <time>2026-08-25T08:13:21Z</time>
      </trkpt>
      <trkpt lat="45.00193" lon="6.11943">
        <ele>1587.3</ele>
        <time>2026-08-25T08:13:22Z</time>
      </trkpt>
      <trkpt lat="45.00196" lon="6.11943">
        <ele>1589.3</ele>
        <time>2026-08-25T08:13:23Z</time>
      </trkpt>
      <trkpt lat="45.002" lon="6.11944">
        <ele>1591.3</ele>
        <time>2026-08-25T08:13:24Z</time>
      </trkpt>
      <trkpt lat="45.00203" lon="6.11945">
        <ele>1593.1</ele>
        <time>2026-08-25T08:13:25Z</time>
      </trkpt>
      <trkpt lat="45.00207" lon="6.11946">
        <ele>1595</ele>
        <time>2026-08-25T08:13:26Z</time>
      </trkpt>
      <trkpt lat="45.0021" lon="6.11947">
        <ele>1596.8</ele>
        <time>2026-08-25T08:13:27Z</time>
      </trkpt>
      <trkpt lat="45.00213" lon="6.11948">
        <ele>1598.8</ele>
        <time>2026-08-25T08:13:28Z</time>
      </trkpt>
      <trkpt lat="45.00217" lon="6.11948">
        <ele>1600.8</ele>
        <time>2026-08-25T08:13:29Z</time>
      </trkpt>
      <trkpt lat="45.0022" lon="6.11949">
        <ele>1602.9</ele>
        <time>2026-08-25T08:13:30Z</time>
      </trkpt>
      <trkpt lat="45.00223" lon="6.1195">
        <ele>1604.9</ele>
        <time>2026-08-25T08:13:31Z</time>
      </trkpt>
      <trkpt lat="45.00227" lon="6.11951">
        <ele>1607</ele>
        <time>2026-08-25T08:13:32Z</time>
      </trkpt>
      <trkpt lat="45.0023" lon="6.11951">
        <ele>1609.1</ele>
        <time>2026-08-25T08:13:33Z</time>
      </trkpt>
      <trkpt lat="45.00233" lon="6.11952">
        <ele>1610.9</ele>
        <time>2026-08-25T08:13:34Z</time>
      </trkpt>
      <trkpt lat="45.00236" lon="6.11953">
        <ele>1612.5</ele>
        <time>2026-08-25T08:13:35Z</time>
      </trkpt>
      <trkpt lat="45.0024" lon="6.11954">
        <ele>1614.7</ele>
        <time>2026-08-25T08:13:36Z</time>
      </trkpt>
      <trkpt lat="45.00243" lon="6.11955">
        <ele>1616.8</ele>
        <time>2026-08-25T08:13:37Z</time>
      </trkpt>
      <trkpt lat="45.00247" lon="6.11956">
        <ele>1618.9</ele>
        <time>2026-08-25T08:13:38Z</time>
      </trkpt>
      <trkpt lat="45.00251" lon="6.11957">
        <ele>1621.2</ele>
        <time>2026-08-25T08:13:39Z</time>
      </trkpt>
      <trkpt lat="45.00254" lon="6.11958">
        <ele>1623.4</ele>
        <time>2026-08-25T08:13:40Z</time>
      </trkpt>
      <trkpt lat="45.00258" lon="6.11959">
        <ele>1625.2</ele>
        <time>2026-08-25T08:13:41Z</time>
      </trkpt>
      <trkpt lat="45.00261" lon="6.11959">
        <ele>1627.3</ele>
        <time>2026-08-25T08:13:42Z</time>
      </trkpt>
      <trkpt lat="45.00264" lon="6.11959">
        <ele>1628.5</ele>
        <time>2026-08-25T08:13:43Z</time>
      </trkpt>
      <trkpt lat="45.00266" lon="6.11959">
        <ele>1629.2</ele>
        <time>2026-08-25T08:13:44Z</time>
      </trkpt>
      <trkpt lat="45.00266" lon="6.1196">
        <ele>1629.4</ele>
        <time>2026-08-25T08:13:45Z</time>
      </trkpt>
      <trkpt lat="45.00268" lon="6.1196">
        <ele>1629.6</ele>
        <time>2026-08-25T08:13:46Z</time>
      </trkpt>
      <trkpt lat="45.00268" lon="6.1196">
        <ele>1629.7</ele>
        <time>2026-08-25T08:13:47Z</time>
      </trkpt>
      <trkpt lat="45.00269" lon="6.1196">
        <ele>1629.7</ele>
        <time>2026-08-25T08:13:48Z</time>
      </trkpt>
      <trkpt lat="45.00316" lon="6.11978">
        <ele>1636.2</ele>
        <time>2026-08-25T08:14:55Z</time>
      </trkpt>
      <trkpt lat="45.00318" lon="6.11978">
        <ele>1636.4</ele>
        <time>2026-08-25T08:14:56Z</time>
      </trkpt>
      <trkpt lat="45.0032" lon="6.11979">
        <ele>1636.5</ele>
        <time>2026-08-25T08:14:57Z</time>
      </trkpt>
      <trkpt lat="45.00322" lon="6.1198">
        <ele>1636.7</ele>
        <time>2026-08-25T08:14:58Z</time>
      </trkpt>
      <trkpt lat="45.00324" lon="6.11982">
        <ele>1637</ele>
        <time>2026-08-25T08:14:59Z</time>
      </trkpt>
      <trkpt lat="45.00325" lon="6.11983">
        <ele>1637.1</ele>
        <time>2026-08-25T08:15:00Z</time>
      </trkpt>
      <trkpt lat="45.00327" lon="6.11984">
        <ele>1637.3</ele>
        <time>2026-08-25T08:15:01Z</time>
      </trkpt>
      <trkpt lat="45.00328" lon="6.11986">
        <ele>1637.5</ele>
        <time>2026-08-25T08:15:02Z</time>
      </trkpt>
      <trkpt lat="45.0033" lon="6.11987">
        <ele>1637.7</ele>
        <time>2026-08-25T08:15:03Z</time>
      </trkpt>
      <trkpt lat="45.00332" lon="6.11989">
        <ele>1637.9</ele>
        <time>2026-08-25T08:15:04Z</time>
      </trkpt>
      <trkpt lat="45.00334" lon="6.1199">
        <ele>1638.1</ele>
        <time>2026-08-25T08:15:05Z</time>
      </trkpt>
      <trkpt lat="45.00336" lon="6.11992">
        <ele>1638.4</ele>
        <time>2026-08-25T08:15:06Z</time>
      </trkpt>
      <trkpt lat="45.00338" lon="6.11993">
        <ele>1638.6</ele>
        <time>2026-08-25T08:15:07Z</time>
      </trkpt>
      <trkpt lat="45.00339" lon="6.11995">
        <ele>1638.8</ele>
        <time>2026-08-25T08:15:08Z</time>
      </trkpt>
      <trkpt lat="45.00341" lon="6.11996">
        <ele>1639</ele>
        <time>2026-08-25T08:15:09Z</time>
      </trkpt>
      <trkpt lat="45.00343" lon="6.11997">
        <ele>1639.2</ele>
        <time>2026-08-25T08:15:10Z</time>
      </trkpt>
      <trkpt lat="45.00346" lon="6.11998">
        <ele>1639.5</ele>
        <time>2026-08-25T08:15:11Z</time>
      </trkpt>
      <trkpt lat="45.00348" lon="6.11999">
        <ele>1639.6</ele>
        <time>2026-08-25T08:15:12Z</time>
      </trkpt>
      <trkpt lat="45.00351" lon="6.12">
        <ele>1639.7</ele>
        <time>2026-08-25T08:15:13Z</time>
      </trkpt>
      <trkpt lat="45.00353" lon="6.12001">
        <ele>1639.8</ele>
        <time>2026-08-25T08:15:14Z</time>
      </trkpt>
      <trkpt lat="45.00355" lon="6.12002">
        <ele>1640</ele>
        <time>2026-08-25T08:15:15Z</time>
      </trkpt>
      <trkpt lat="45.00357" lon="6.12004">
        <ele>1640.1</ele>
        <time>2026-08-25T08:15:16Z</time>
      </trkpt>
      <trkpt lat="45.00359" lon="6.12006">
        <ele>1640.2</ele>
        <time>2026-08-25T08:15:17Z</time>
      </trkpt>
      <trkpt lat="45.00361" lon="6.12007">
        <ele>1640.3</ele>
        <time>2026-08-25T08:15:18Z</time>
      </trkpt>
      <trkpt lat="45.00364" lon="6.12008">
        <ele>1640.4</ele>
        <time>2026-08-25T08:15:19Z</time>
      </trkpt>
      <trkpt lat="45.00366" lon="6.12009">
        <ele>1640.6</ele>
        <time>2026-08-25T08:15:20Z</time>
      </trkpt>
      <trkpt lat="45.00368" lon="6.1201">
        <ele>1640.8</ele>
        <time>2026-08-25T08:15:21Z</time>
      </trkpt>
      <trkpt lat="45.0037" lon="6.12011">
        <ele>1640.9</ele>
        <time>2026-08-25T08:15:22Z</time>
      </trkpt>
      <trkpt lat="45.00372" lon="6.12012">
        <ele>1641.1</ele>
        <time>2026-08-25T08:15:23Z</time>
      </trkpt>
      <trkpt lat="45.00374" lon="6.12013">
        <ele>1641.3</ele>
        <time>2026-08-25T08:15:24Z</time>
      </trkpt>
      <trkpt lat="45.00377" lon="6.12014">
        <ele>1641.5</ele>
        <time>2026-08-25T08:15:25Z</time>
      </trkpt>
      <trkpt lat="45.00379" lon="6.12015">
        <ele>1641.7</ele>
        <time>2026-08-25T08:15:26Z</time>
      </trkpt>
      <trkpt lat="45.00382" lon="6.12017">
        <ele>1641.9</ele>
        <time>2026-08-25T08:15:27Z</time>
      </trkpt>
      <trkpt lat="45.00384" lon="6.12018">
        <ele>1642.1</ele>
        <time>2026-08-25T08:15:28Z</time>
      </trkpt>
      <trkpt lat="45.00386" lon="6.12019">
        <ele>1642.3</ele>
        <time>2026-08-25T08:15:29Z</time>
      </trkpt>
      <trkpt lat="45.00389" lon="6.12021">
        <ele>1642.6</ele>
        <time>2026-08-25T08:15:30Z</time>
      </trkpt>
      <trkpt lat="45.00391" lon="6.12022">
        <ele>1642.8</ele>
        <time>2026-08-25T08:15:31Z</time>
      </trkpt>
      <trkpt lat="45.00394" lon="6.12023">
        <ele>1643</ele>
        <time>2026-08-25T08:15:32Z</time>
      </trkpt>
      <trkpt lat="45.00396" lon="6.12024">
        <ele>1643.2</ele>
        <time>2026-08-25T08:15:33Z</time>
      </trkpt>
      <trkpt lat="45.00399" lon="6.12025">
        <ele>1643.5</ele>
        <time>2026-08-25T08:15:34Z</time>
      </trkpt>
      <trkpt lat="45.00402" lon="6.12026">
        <ele>1643.8</ele>
        <time>2026-08-25T08:15:35Z</time>
      </trkpt>
      <trkpt lat="45.00404" lon="6.12027">
        <ele>1644</ele>
        <time>2026-08-25T08:15:36Z</time>
      </trkpt>
      <trkpt lat="45.00407" lon="6.12028">
        <ele>1644.3</ele>
        <time>2026-08-25T08:15:37Z</time>
      </trkpt>
      <trkpt lat="45.0041" lon="6.12029">
        <ele>1644.5</ele>
        <time>2026-08-25T08:15:38Z</time>
      </trkpt>
      <trkpt lat="45.00412" lon="6.1203">
        <ele>1644.8</ele>
        <time>2026-08-25T08:15:39Z</time>
      </trkpt>
      <trkpt lat="45.00415" lon="6.12031">
        <ele>1645</ele>
        <time>2026-08-25T08:15:40Z</time>
      </trkpt>
      <trkpt lat="45.00417" lon="6.12033">
        <ele>1645.3</ele>
        <time>2026-08-25T08:15:41Z</time>
      </trkpt>
      <trkpt lat="45.00419" lon="6.12033">
        <ele>1645.5</ele>
        <time>2026-08-25T08:15:42Z</time>
      </trkpt>
      <trkpt lat="45.00422" lon="6.12035">
        <ele>1645.8</ele>
        <time>2026-08-25T08:15:43Z</time>
      </trkpt>
      <trkpt lat="45.00425" lon="6.12036">
        <ele>1646</ele>
        <time>2026-08-25T08:15:44Z</time>
      </trkpt>
      <trkpt lat="45.00427" lon="6.12037">
        <ele>1646.2</ele>
        <time>2026-08-25T08:15:45Z</time>
      </trkpt>
      <trkpt lat="45.0043" lon="6.12039">
        <ele>1646.5</ele>
        <time>2026-08-25T08:15:46Z</time>
      </trkpt>
      <trkpt lat="45.00433" lon="6.12041">
        <ele>1646.8</ele>
        <time>2026-08-25T08:15:47Z</time>
      </trkpt>
      <trkpt lat="45.00435" lon="6.12044">
        <ele>1647</ele>
        <time>2026-08-25T08:15:48Z</time>
      </trkpt>
      <trkpt lat="45.00437" lon="6.12046">
        <ele>1647.3</ele>
        <time>2026-08-25T08:15:49Z</time>
      </trkpt>
      <trkpt lat="45.00439" lon="6.12049">
        <ele>1647.3</ele>
        <time>2026-08-25T08:15:50Z</time>
      </trkpt>
      <trkpt lat="45.00441" lon="6.12051">
        <ele>1647.4</ele>
        <time>2026-08-25T08:15:51Z</time>
      </trkpt>
      <trkpt lat="45.00443" lon="6.12054">
        <ele>1647.5</ele>
        <time>2026-08-25T08:15:52Z</time>
      </trkpt>
      <trkpt lat="45.00444" lon="6.12056">
        <ele>1647.6</ele>
        <time>2026-08-25T08:15:53Z</time>
      </trkpt>
      <trkpt lat="45.00446" lon="6.12059">
        <ele>1647.7</ele>
        <time>2026-08-25T08:15:54Z</time>
      </trkpt>
      <trkpt lat="45.00448" lon="6.12062">
        <ele>1647.8</ele>
        <time>2026-08-25T08:15:55Z</time>
      </trkpt>
      <trkpt lat="45.0045" lon="6.12065">
        <ele>1648</ele>
        <time>2026-08-25T08:15:56Z</time>
      </trkpt>
      <trkpt lat="45.00453" lon="6.12068">
        <ele>1648.1</ele>
        <time>2026-08-25T08:15:57Z</time>
      </trkpt>
      <trkpt lat="45.00454" lon="6.12071">
        <ele>1648.2</ele>
        <time>2026-08-25T08:15:58Z</time>
      </trkpt>
      <trkpt lat="45.00457" lon="6.12073">
        <ele>1648.3</ele>
        <time>2026-08-25T08:15:59Z</time>
      </trkpt>
      <trkpt lat="45.00459" lon="6.12076">
        <ele>1648.4</ele>
        <time>2026-08-25T08:16:00Z</time>
      </trkpt>
      <trkpt lat="45.0046" lon="6.12079">
        <ele>1648.5</ele>
        <time>2026-08-25T08:16:01Z</time>
      </trkpt>
      <trkpt lat="45.00462" lon="6.12082">
        <ele>1648.6</ele>
        <time>2026-08-25T08:16:02Z</time>
      </trkpt>
      <trkpt lat="45.00463" lon="6.12086">
        <ele>1648.7</ele>
        <time>2026-08-25T08:16:03Z</time>
      </trkpt>
      <trkpt lat="45.00464" lon="6.1209">
        <ele>1648.9</ele>
        <time>2026-08-25T08:16:04Z</time>
      </trkpt>
      <trkpt lat="45.00465" lon="6.12094">
        <ele>1649</ele>
        <time>2026-08-25T08:16:05Z</time>
      </trkpt>
      <trkpt lat="45.00465" lon="6.12098">
        <ele>1649.1</ele>
        <time>2026-08-25T08:16:06Z</time>
      </trkpt>
      <trkpt lat="45.00466" lon="6.12102">
        <ele>1649.1</ele>
        <time>2026-08-25T08:16:07Z</time>
      </trkpt>
      <trkpt lat="45.00466" lon="6.12106">
        <ele>1649.2</ele>
        <time>2026-08-25T08:16:08Z</time>
      </trkpt>
      <trkpt lat="45.00466" lon="6.12109">
        <ele>1649.2</ele>
        <time>2026-08-25T08:16:09Z</time>
      </trkpt>
      <trkpt lat="45.00465" lon="6.12114">
        <ele>1649.3</ele>
        <time>2026-08-25T08:16:10Z</time>
      </trkpt>
      <trkpt lat="45.00465" lon="6.12118">
        <ele>1649.4</ele>
        <time>2026-08-25T08:16:11Z</time>
      </trkpt>
      <trkpt lat="45.00464" lon="6.12122">
        <ele>1649.4</ele>
        <time>2026-08-25T08:16:12Z</time>
      </trkpt>
      <trkpt lat="45.00464" lon="6.12125">
        <ele>1649.5</ele>
        <time>2026-08-25T08:16:13Z</time>
      </trkpt>
      <trkpt lat="45.00463" lon="6.12129">
        <ele>1649.6</ele>
        <time>2026-08-25T08:16:14Z</time>
      </trkpt>
      <trkpt lat="45.00462" lon="6.12132">
        <ele>1649.6</ele>
        <time>2026-08-25T08:16:15Z</time>
      </trkpt>
      <trkpt lat="45.00462" lon="6.12136">
        <ele>1649.7</ele>
        <time>2026-08-25T08:16:16Z</time>
      </trkpt>
      <trkpt lat="45.00461" lon="6.12139">
        <ele>1649.7</ele>
        <time>2026-08-25T08:16:17Z</time>
      </trkpt>
      <trkpt lat="45.0046" lon="6.12143">
        <ele>1649.8</ele>
        <time>2026-08-25T08:16:18Z</time>
      </trkpt>
      <trkpt lat="45.0046" lon="6.12147">
        <ele>1649.8</ele>
        <time>2026-08-25T08:16:19Z</time>
      </trkpt>
      <trkpt lat="45.00459" lon="6.12152">
        <ele>1649.9</ele>
        <time>2026-08-25T08:16:20Z</time>
      </trkpt>
      <trkpt lat="45.00459" lon="6.12156">
        <ele>1649.9</ele>
        <time>2026-08-25T08:16:21Z</time>
      </trkpt>
      <trkpt lat="45.00458" lon="6.1216">
        <ele>1650</ele>
        <time>2026-08-25T08:16:22Z</time>
      </trkpt>
      <trkpt lat="45.00458" lon="6.12165">
        <ele>1650</ele>
        <time>2026-08-25T08:16:23Z</time>
      </trkpt>
      <trkpt lat="45.00458" lon="6.12169">
        <ele>1650.1</ele>
        <time>2026-08-25T08:16:24Z</time>
      </trkpt>
      <trkpt lat="45.00459" lon="6.12174">
        <ele>1650.1</ele>
        <time>2026-08-25T08:16:25Z</time>
      </trkpt>
      <trkpt lat="45.00459" lon="6.12179">
        <ele>1650.2</ele>
        <time>2026-08-25T08:16:26Z</time>
      </trkpt>
      <trkpt lat="45.0046" lon="6.12184">
        <ele>1650.2</ele>
        <time>2026-08-25T08:16:27Z</time>
      </trkpt>
      <trkpt lat="45.00461" lon="6.12189">
        <ele>1650.3</ele>
        <time>2026-08-25T08:16:28Z</time>
      </trkpt>
      <trkpt lat="45.00462" lon="6.12193">
        <ele>1650.3</ele>
        <time>2026-08-25T08:16:29Z</time>
      </trkpt>
      <trkpt lat="45.00463" lon="6.12198">
        <ele>1650.4</ele>
        <time>2026-08-25T08:16:30Z</time>
      </trkpt>
      <trkpt lat="45.00464" lon="6.12203">
        <ele>1650.4</ele>
        <time>2026-08-25T08:16:31Z</time>
      </trkpt>
      <trkpt lat="45.00465" lon="6.12207">
        <ele>1650.5</ele>
        <time>2026-08-25T08:16:32Z</time>
      </trkpt>
      <trkpt lat="45.00465" lon="6.12211">
        <ele>1650.5</ele>
        <time>2026-08-25T08:16:33Z</time>
      </trkpt>
      <trkpt lat="45.00465" lon="6.12215">
        <ele>1650.5</ele>
        <time>2026-08-25T08:16:34Z</time>
      </trkpt>
      <trkpt lat="45.00466" lon="6.1222">
        <ele>1650.5</ele>
        <time>2026-08-25T08:16:35Z</time>
      </trkpt>
      <trkpt lat="45.00466" lon="6.12224">
        <ele>1650.5</ele>
        <time>2026-08-25T08:16:36Z</time>
      </trkpt>
      <trkpt lat="45.00467" lon="6.12229">
        <ele>1650.4</ele>
        <time>2026-08-25T08:16:37Z</time>
      </trkpt>
      <trkpt lat="45.00468" lon="6.12234">
        <ele>1650.4</ele>
        <time>2026-08-25T08:16:38Z</time>
      </trkpt>
      <trkpt lat="45.00468" lon="6.12239">
        <ele>1650.4</ele>
        <time>2026-08-25T08:16:39Z</time>
      </trkpt>
      <trkpt lat="45.00469" lon="6.12243">
        <ele>1650.3</ele>
        <time>2026-08-25T08:16:40Z</time>
      </trkpt>
      <trkpt lat="45.0047" lon="6.12248">
        <ele>1650.3</ele>
        <time>2026-08-25T08:16:41Z</time>
      </trkpt>
      <trkpt lat="45.00471" lon="6.12252">
        <ele>1650.3</ele>
        <time>2026-08-25T08:16:42Z</time>
      </trkpt>
      <trkpt lat="45.00472" lon="6.12257">
        <ele>1650.2</ele>
        <time>2026-08-25T08:16:43Z</time>
      </trkpt>
      <trkpt lat="45.00472" lon="6.12262">
        <ele>1650.2</ele>
        <time>2026-08-25T08:16:44Z</time>
      </trkpt>
      <trkpt lat="45.00473" lon="6.12267">
        <ele>1650.1</ele>
        <time>2026-08-25T08:16:45Z</time>
      </trkpt>
      <trkpt lat="45.00473" lon="6.12272">
        <ele>1650</ele>
        <time>2026-08-25T08:16:46Z</time>
      </trkpt>
      <trkpt lat="45.00474" lon="6.12278">
        <ele>1649.9</ele>
        <time>2026-08-25T08:16:47Z</time>
      </trkpt>
      <trkpt lat="45.00474" lon="6.12283">
        <ele>1649.8</ele>
        <time>2026-08-25T08:16:48Z</time>
      </trkpt>
      <trkpt lat="45.00475" lon="6.12289">
        <ele>1649.7</ele>
        <time>2026-08-25T08:16:49Z</time>
      </trkpt>
      <trkpt lat="45.00476" lon="6.12295">
        <ele>1649.6</ele>
        <time>2026-08-25T08:16:50Z</time>
      </trkpt>
      <trkpt lat="45.00476" lon="6.12302">
        <ele>1649.4</ele>
        <time>2026-08-25T08:16:51Z</time>
      </trkpt>
      <trkpt lat="45.00477" lon="6.12309">
        <ele>1649.2</ele>
        <time>2026-08-25T08:16:52Z</time>
      </trkpt>
      <trkpt lat="45.00477" lon="6.12317">
        <ele>1649.1</ele>
        <time>2026-08-25T08:16:53Z</time>
      </trkpt>
      <trkpt lat="45.00478" lon="6.12324">
        <ele>1648.9</ele>
        <time>2026-08-25T08:16:54Z</time>
      </trkpt>
      <trkpt lat="45.00479" lon="6.12332">
        <ele>1648.7</ele>
        <time>2026-08-25T08:16:55Z</time>
      </trkpt>
      <trkpt lat="45.00481" lon="6.12339">
        <ele>1648.7</ele>
        <time>2026-08-25T08:16:56Z</time>
      </trkpt>
      <trkpt lat="45.00482" lon="6.12347">
        <ele>1648.8</ele>
        <time>2026-08-25T08:16:57Z</time>
      </trkpt>
      <trkpt lat="45.00484" lon="6.12354">
        <ele>1648.9</ele>
        <time>2026-08-25T08:16:58Z</time>
      </trkpt>
      <trkpt lat="45.00486" lon="6.1236">
        <ele>1648.9</ele>
        <time>2026-08-25T08:16:59Z</time>
      </trkpt>
      <trkpt lat="45.00488" lon="6.12366">
        <ele>1649</ele>
        <time>2026-08-25T08:17:00Z</time>
      </trkpt>
      <trkpt lat="45.0049" lon="6.12371">
        <ele>1649.1</ele>
        <time>2026-08-25T08:17:01Z</time>
      </trkpt>
      <trkpt lat="45.00492" lon="6.12376">
        <ele>1649.2</ele>
        <time>2026-08-25T08:17:02Z</time>
      </trkpt>
      <trkpt lat="45.00494" lon="6.12381">
        <ele>1649.4</ele>
        <time>2026-08-25T08:17:03Z</time>
      </trkpt>
      <trkpt lat="45.00496" lon="6.12384">
        <ele>1649.5</ele>
        <time>2026-08-25T08:17:04Z</time>
      </trkpt>
      <trkpt lat="45.00498" lon="6.12388">
        <ele>1649.6</ele>
        <time>2026-08-25T08:17:05Z</time>
      </trkpt>
      <trkpt lat="45.00501" lon="6.12391">
        <ele>1649.7</ele>
        <time>2026-08-25T08:17:06Z</time>
      </trkpt>
      <trkpt lat="45.00503" lon="6.12394">
        <ele>1649.8</ele>
        <time>2026-08-25T08:17:07Z</time>
      </trkpt>
      <trkpt lat="45.00505" lon="6.12398">
        <ele>1649.9</ele>
        <time>2026-08-25T08:17:08Z</time>
      </trkpt>
      <trkpt lat="45.00508" lon="6.12401">
        <ele>1650</ele>
        <time>2026-08-25T08:17:09Z</time>
      </trkpt>
      <trkpt lat="45.0051" lon="6.12404">
        <ele>1650.1</ele>
        <time>2026-08-25T08:17:10Z</time>
      </trkpt>
      <trkpt lat="45.00513" lon="6.12406">
        <ele>1650.2</ele>
        <time>2026-08-25T08:17:11Z</time>
      </trkpt>
      <trkpt lat="45.00516" lon="6.12408">
        <ele>1650.4</ele>
        <time>2026-08-25T08:17:12Z</time>
      </trkpt>
      <trkpt lat="45.00518" lon="6.12411">
        <ele>1650.5</ele>
        <time>2026-08-25T08:17:13Z</time>
      </trkpt>
      <trkpt lat="45.00521" lon="6.12412">
        <ele>1650.6</ele>
        <time>2026-08-25T08:17:14Z</time>
      </trkpt>
      <trkpt lat="45.00523" lon="6.12414">
        <ele>1650.7</ele>
        <time>2026-08-25T08:17:15Z</time>
      </trkpt>
      <trkpt lat="45.00526" lon="6.12416">
        <ele>1650.9</ele>
        <time>2026-08-25T08:17:16Z</time>
      </trkpt>
      <trkpt lat="45.00529" lon="6.12417">
        <ele>1651</ele>
        <time>2026-08-25T08:17:17Z</time>
      </trkpt>
      <trkpt lat="45.00532" lon="6.12417">
        <ele>1651.1</ele>
        <time>2026-08-25T08:17:18Z</time>
      </trkpt>
      <trkpt lat="45.00535" lon="6.12418">
        <ele>1651.3</ele>
        <time>2026-08-25T08:17:19Z</time>
      </trkpt>
      <trkpt lat="45.00539" lon="6.12419">
        <ele>1651.4</ele>
        <time>2026-08-25T08:17:20Z</time>
      </trkpt>
      <trkpt lat="45.00542" lon="6.1242">
        <ele>1651.5</ele>
        <time>2026-08-25T08:17:21Z</time>
      </trkpt>
      <trkpt lat="45.00545" lon="6.12421">
        <ele>1651.7</ele>
        <time>2026-08-25T08:17:22Z</time>
      </trkpt>
      <trkpt lat="45.00549" lon="6.12422">
        <ele>1651.8</ele>
        <time>2026-08-25T08:17:23Z</time>
      </trkpt>
      <trkpt lat="45.00552" lon="6.12423">
        <ele>1651.9</ele>
        <time>2026-08-25T08:17:24Z</time>
      </trkpt>
      <trkpt lat="45.00556" lon="6.12423">
        <ele>1652</ele>
        <time>2026-08-25T08:17:25Z</time>
      </trkpt>
      <trkpt lat="45.00559" lon="6.12424">
        <ele>1652.1</ele>
        <time>2026-08-25T08:17:26Z</time>
      </trkpt>
      <trkpt lat="45.00563" lon="6.12425">
        <ele>1652.1</ele>
        <time>2026-08-25T08:17:27Z</time>
      </trkpt>
      <trkpt lat="45.00566" lon="6.12425">
        <ele>1652.2</ele>
        <time>2026-08-25T08:17:28Z</time>
      </trkpt>
      <trkpt lat="45.00569" lon="6.12426">
        <ele>1652.3</ele>
        <time>2026-08-25T08:17:29Z</time>
      </trkpt>
      <trkpt lat="45.00573" lon="6.12426">
        <ele>1652.3</ele>
        <time>2026-08-25T08:17:30Z</time>
      </trkpt>
      <trkpt lat="45.00576" lon="6.12425">
        <ele>1652.4</ele>
        <time>2026-08-25T08:17:31Z</time>
      </trkpt>
      <trkpt lat="45.0058" lon="6.12425">
        <ele>1652.4</ele>
        <time>2026-08-25T08:17:32Z</time>
      </trkpt>
      <trkpt lat="45.00584" lon="6.12425">
        <ele>1652.5</ele>
        <time>2026-08-25T08:17:33Z</time>
      </trkpt>
      <trkpt lat="45.00587" lon="6.12424">
        <ele>1652.5</ele>
        <time>2026-08-25T08:17:34Z</time>
      </trkpt>
      <trkpt lat="45.00591" lon="6.12422">
        <ele>1652.5</ele>
        <time>2026-08-25T08:17:35Z</time>
      </trkpt>
      <trkpt lat="45.00594" lon="6.1242">
        <ele>1652.4</ele>
        <time>2026-08-25T08:17:36Z</time>
      </trkpt>
      <trkpt lat="45.00598" lon="6.12419">
        <ele>1652.4</ele>
        <time>2026-08-25T08:17:37Z</time>
      </trkpt>
      <trkpt lat="45.00602" lon="6.12417">
        <ele>1652.4</ele>
        <time>2026-08-25T08:17:38Z</time>
      </trkpt>
      <trkpt lat="45.00605" lon="6.12414">
        <ele>1652.3</ele>
        <time>2026-08-25T08:17:39Z</time>
      </trkpt>
      <trkpt lat="45.00609" lon="6.12412">
        <ele>1652.3</ele>
        <time>2026-08-25T08:17:40Z</time>
      </trkpt>
      <trkpt lat="45.00612" lon="6.12408">
        <ele>1652.2</ele>
        <time>2026-08-25T08:17:41Z</time>
      </trkpt>
      <trkpt lat="45.00616" lon="6.12404">
        <ele>1652.1</ele>
        <time>2026-08-25T08:17:42Z</time>
      </trkpt>
      <trkpt lat="45.00619" lon="6.124">
        <ele>1652</ele>
        <time>2026-08-25T08:17:43Z</time>
      </trkpt>
      <trkpt lat="45.00623" lon="6.12396">
        <ele>1651.9</ele>
        <time>2026-08-25T08:17:44Z</time>
      </trkpt>
      <trkpt lat="45.00626" lon="6.1239">
        <ele>1651.8</ele>
        <time>2026-08-25T08:17:45Z</time>
      </trkpt>
      <trkpt lat="45.00629" lon="6.12385">
        <ele>1651.6</ele>
        <time>2026-08-25T08:17:46Z</time>
      </trkpt>
      <trkpt lat="45.00632" lon="6.12379">
        <ele>1651.5</ele>
        <time>2026-08-25T08:17:47Z</time>
      </trkpt>
      <trkpt lat="45.00635" lon="6.12373">
        <ele>1651.4</ele>
        <time>2026-08-25T08:17:48Z</time>
      </trkpt>
      <trkpt lat="45.00637" lon="6.12366">
        <ele>1651.3</ele>
        <time>2026-08-25T08:17:49Z</time>
      </trkpt>
      <trkpt lat="45.0064" lon="6.1236">
        <ele>1651.2</ele>
        <time>2026-08-25T08:17:50Z</time>
      </trkpt>
      <trkpt lat="45.00642" lon="6.12353">
        <ele>1651.1</ele>
        <time>2026-08-25T08:17:51Z</time>
      </trkpt>
      <trkpt lat="45.00645" lon="6.12347">
        <ele>1651</ele>
        <time>2026-08-25T08:17:52Z</time>
      </trkpt>
      <trkpt lat="45.00647" lon="6.12341">
        <ele>1650.9</ele>
        <time>2026-08-25T08:17:53Z</time>
      </trkpt>
      <trkpt lat="45.0065" lon="6.12335">
        <ele>1650.8</ele>
        <time>2026-08-25T08:17:54Z</time>
      </trkpt>
      <trkpt lat="45.00654" lon="6.12329">
        <ele>1650.7</ele>
        <time>2026-08-25T08:17:55Z</time>
      </trkpt>
      <trkpt lat="45.00657" lon="6.12324">
        <ele>1650.7</ele>
        <time>2026-08-25T08:17:56Z</time>
      </trkpt>
      <trkpt lat="45.00661" lon="6.12319">
        <ele>1650.6</ele>
        <time>2026-08-25T08:17:57Z</time>
      </trkpt>
      <trkpt lat="45.00666" lon="6.12314">
        <ele>1650.5</ele>
        <time>2026-08-25T08:17:58Z</time>
      </trkpt>
      <trkpt lat="45.00671" lon="6.1231">
        <ele>1650.5</ele>
        <time>2026-08-25T08:17:59Z</time>
      </trkpt>
      <trkpt lat="45.00676" lon="6.12308">
        <ele>1650.5</ele>
        <time>2026-08-25T08:18:00Z</time>
      </trkpt>
      <trkpt lat="45.00682" lon="6.12309">
        <ele>1650.5</ele>
        <time>2026-08-25T08:18:01Z</time>
      </trkpt>
      <trkpt lat="45.00687" lon="6.12309">
        <ele>1650.5</ele>
        <time>2026-08-25T08:18:02Z</time>
      </trkpt>
      <trkpt lat="45.00692" lon="6.12311">
        <ele>1650.5</ele>
        <time>2026-08-25T08:18:03Z</time>
      </trkpt>
      <trkpt lat="45.00697" lon="6.12312">
        <ele>1650.5</ele>
        <time>2026-08-25T08:18:04Z</time>
      </trkpt>
      <trkpt lat="45.00701" lon="6.12314">
        <ele>1650.6</ele>
        <time>2026-08-25T08:18:05Z</time>
      </trkpt>
      <trkpt lat="45.00706" lon="6.12315">
        <ele>1650.6</ele>
        <time>2026-08-25T08:18:06Z</time>
      </trkpt>
      <trkpt lat="45.00711" lon="6.12315">
        <ele>1650.6</ele>
        <time>2026-08-25T08:18:07Z</time>
      </trkpt>
      <trkpt lat="45.00716" lon="6.12315">
        <ele>1650.6</ele>
        <time>2026-08-25T08:18:08Z</time>
      </trkpt>
      <trkpt lat="45.0072" lon="6.12315">
        <ele>1650.7</ele>
        <time>2026-08-25T08:18:09Z</time>
      </trkpt>
      <trkpt lat="45.00725" lon="6.12314">
        <ele>1650.7</ele>
        <time>2026-08-25T08:18:10Z</time>
      </trkpt>
      <trkpt lat="45.00729" lon="6.12314">
        <ele>1650.7</ele>
        <time>2026-08-25T08:18:11Z</time>
      </trkpt>
      <trkpt lat="45.00734" lon="6.12313">
        <ele>1650.7</ele>
        <time>2026-08-25T08:18:12Z</time>
      </trkpt>
      <trkpt lat="45.00739" lon="6.12311">
        <ele>1650.8</ele>
        <time>2026-08-25T08:18:13Z</time>
      </trkpt>
      <trkpt lat="45.00744" lon="6.1231">
        <ele>1650.8</ele>
        <time>2026-08-25T08:18:14Z</time>
      </trkpt>
      <trkpt lat="45.00748" lon="6.12309">
        <ele>1650.8</ele>
        <time>2026-08-25T08:18:15Z</time>
      </trkpt>
      <trkpt lat="45.00753" lon="6.12308">
        <ele>1650.9</ele>
        <time>2026-08-25T08:18:16Z</time>
      </trkpt>
      <trkpt lat="45.00758" lon="6.12307">
        <ele>1650.9</ele>
        <time>2026-08-25T08:18:17Z</time>
      </trkpt>
      <trkpt lat="45.00763" lon="6.12306">
        <ele>1651</ele>
        <time>2026-08-25T08:18:18Z</time>
      </trkpt>
      <trkpt lat="45.00768" lon="6.12306">
        <ele>1651</ele>
        <time>2026-08-25T08:18:19Z</time>
      </trkpt>
      <trkpt lat="45.00774" lon="6.12306">
        <ele>1651</ele>
        <time>2026-08-25T08:18:20Z</time>
      </trkpt>
      <trkpt lat="45.00779" lon="6.12307">
        <ele>1651.1</ele>
        <time>2026-08-25T08:18:21Z</time>
      </trkpt>
      <trkpt lat="45.00784" lon="6.12307">
        <ele>1651.1</ele>
        <time>2026-08-25T08:18:22Z</time>
      </trkpt>
      <trkpt lat="45.0079" lon="6.12307">
        <ele>1651.2</ele>
        <time>2026-08-25T08:18:23Z</time>
      </trkpt>
      <trkpt lat="45.00795" lon="6.12307">
        <ele>1651.2</ele>
        <time>2026-08-25T08:18:24Z</time>
      </trkpt>
      <trkpt lat="45.008" lon="6.12307">
        <ele>1651.3</ele>
        <time>2026-08-25T08:18:25Z</time>
      </trkpt>
      <trkpt lat="45.00806" lon="6.12308">
        <ele>1651.4</ele>
        <time>2026-08-25T08:18:26Z</time>
      </trkpt>
      <trkpt lat="45.00811" lon="6.12307">
        <ele>1651.4</ele>
        <time>2026-08-25T08:18:27Z</time>
      </trkpt>
      <trkpt lat="45.00816" lon="6.12308">
        <ele>1651.5</ele>
        <time>2026-08-25T08:18:28Z</time>
      </trkpt>
      <trkpt lat="45.00821" lon="6.12309">
        <ele>1651.5</ele>
        <time>2026-08-25T08:18:29Z</time>
      </trkpt>
      <trkpt lat="45.00826" lon="6.1231">
        <ele>1651.6</ele>
        <time>2026-08-25T08:18:30Z</time>
      </trkpt>
      <trkpt lat="45.00831" lon="6.12312">
        <ele>1651.6</ele>
        <time>2026-08-25T08:18:31Z</time>
      </trkpt>
      <trkpt lat="45.00835" lon="6.12313">
        <ele>1651.7</ele>
        <time>2026-08-25T08:18:32Z</time>
      </trkpt>
      <trkpt lat="45.0084" lon="6.12315">
        <ele>1651.7</ele>
        <time>2026-08-25T08:18:33Z</time>
      </trkpt>
      <trkpt lat="45.00845" lon="6.12316">
        <ele>1651.7</ele>
        <time>2026-08-25T08:18:34Z</time>
      </trkpt>
      <trkpt lat="45.0085" lon="6.12318">
        <ele>1651.8</ele>
        <time>2026-08-25T08:18:35Z</time>
      </trkpt>
      <trkpt lat="45.00855" lon="6.1232">
        <ele>1651.8</ele>
        <time>2026-08-25T08:18:36Z</time>
      </trkpt>
      <trkpt lat="45.00861" lon="6.12322">
        <ele>1651.9</ele>
        <time>2026-08-25T08:18:37Z</time>
      </trkpt>
      <trkpt lat="45.00865" lon="6.12325">
        <ele>1651.9</ele>
        <time>2026-08-25T08:18:38Z</time>
      </trkpt>
      <trkpt lat="45.00871" lon="6.12328">
        <ele>1652</ele>
        <time>2026-08-25T08:18:39Z</time>
      </trkpt>
      <trkpt lat="45.00875" lon="6.12331">
        <ele>1652</ele>
        <time>2026-08-25T08:18:40Z</time>
      </trkpt>
      <trkpt lat="45.0088" lon="6.12334">
        <ele>1652</ele>
        <time>2026-08-25T08:18:41Z</time>
      </trkpt>
      <trkpt lat="45.00885" lon="6.12338">
        <ele>1652.1</ele>
        <time>2026-08-25T08:18:42Z</time>
      </trkpt>
      <trkpt lat="45.00889" lon="6.12342">
        <ele>1652.1</ele>
        <time>2026-08-25T08:18:43Z</time>
      </trkpt>
      <trkpt lat="45.00894" lon="6.12346">
        <ele>1652.2</ele>
        <time>2026-08-25T08:18:44Z</time>
      </trkpt>
      <trkpt lat="45.00899" lon="6.12349">
        <ele>1652.2</ele>
        <time>2026-08-25T08:18:45Z</time>
      </trkpt>
      <trkpt lat="45.00903" lon="6.12353">
        <ele>1652.3</ele>
        <time>2026-08-25T08:18:46Z</time>
      </trkpt>
      <trkpt lat="45.00908" lon="6.12357">
        <ele>1652.3</ele>
        <time>2026-08-25T08:18:47Z</time>
      </trkpt>
      <trkpt lat="45.00912" lon="6.12361">
        <ele>1652.4</ele>
        <time>2026-08-25T08:18:48Z</time>
      </trkpt>
      <trkpt lat="45.00916" lon="6.12364">
        <ele>1652.4</ele>
        <time>2026-08-25T08:18:49Z</time>
      </trkpt>
      <trkpt lat="45.0092" lon="6.12368">
        <ele>1652.4</ele>
        <time>2026-08-25T08:18:50Z</time>
      </trkpt>
      <trkpt lat="45.00925" lon="6.12372">
        <ele>1652.5</ele>
        <time>2026-08-25T08:18:51Z</time>
      </trkpt>
      <trkpt lat="45.00929" lon="6.12376">
        <ele>1652.5</ele>
        <time>2026-08-25T08:18:52Z</time>
      </trkpt>
      <trkpt lat="45.00934" lon="6.1238">
        <ele>1652.6</ele>
        <time>2026-08-25T08:18:53Z</time>
      </trkpt>
      <trkpt lat="45.00938" lon="6.12384">
        <ele>1652.6</ele>
        <time>2026-08-25T08:18:54Z</time>
      </trkpt>
      <trkpt lat="45.00942" lon="6.12387">
        <ele>1652.7</ele>
        <time>2026-08-25T08:18:55Z</time>
      </trkpt>
      <trkpt lat="45.00947" lon="6.12391">
        <ele>1652.8</ele>
        <time>2026-08-25T08:18:56Z</time>
      </trkpt>
      <trkpt lat="45.00951" lon="6.12395">
        <ele>1652.8</ele>
        <time>2026-08-25T08:18:57Z</time>
      </trkpt>
      <trkpt lat="45.00956" lon="6.12398">
        <ele>1652.9</ele>
        <time>2026-08-25T08:18:58Z</time>
      </trkpt>
      <trkpt lat="45.00961" lon="6.12401">
        <ele>1652.9</ele>
        <time>2026-08-25T08:18:59Z</time>
      </trkpt>
      <trkpt lat="45.00965" lon="6.12404">
        <ele>1653</ele>
        <time>2026-08-25T08:19:00Z</time>
      </trkpt>
      <trkpt lat="45.0097" lon="6.12406">
        <ele>1653.1</ele>
        <time>2026-08-25T08:19:01Z</time>
      </trkpt>
      <trkpt lat="45.00975" lon="6.12409">
        <ele>1653.2</ele>
        <time>2026-08-25T08:19:02Z</time>
      </trkpt>
      <trkpt lat="45.0098" lon="6.12412">
        <ele>1653.3</ele>
        <time>2026-08-25T08:19:03Z</time>
      </trkpt>
      <trkpt lat="45.00984" lon="6.12415">
        <ele>1653.3</ele>
        <time>2026-08-25T08:19:04Z</time>
      </trkpt>
      <trkpt lat="45.00989" lon="6.12418">
        <ele>1653.4</ele>
        <time>2026-08-25T08:19:05Z</time>
      </trkpt>
      <trkpt lat="45.00994" lon="6.12421">
        <ele>1653.5</ele>
        <time>2026-08-25T08:19:06Z</time>
      </trkpt>
      <trkpt lat="45.00999" lon="6.12424">
        <ele>1653.6</ele>
        <time>2026-08-25T08:19:07Z</time>
      </trkpt>
      <trkpt lat="45.01004" lon="6.12427">
        <ele>1653.7</ele>
        <time>2026-08-25T08:19:08Z</time>
      </trkpt>
      <trkpt lat="45.01008" lon="6.1243">
        <ele>1653.7</ele>
        <time>2026-08-25T08:19:09Z</time>
      </trkpt>
      <trkpt lat="45.01012" lon="6.12433">
        <ele>1653.8</ele>
        <time>2026-08-25T08:19:10Z</time>
      </trkpt>
      <trkpt lat="45.01017" lon="6.12437">
        <ele>1653.9</ele>
        <time>2026-08-25T08:19:11Z</time>
      </trkpt>
      <trkpt lat="45.01021" lon="6.1244">
        <ele>1654</ele>
        <time>2026-08-25T08:19:12Z</time>
      </trkpt>
      <trkpt lat="45.01025" lon="6.12444">
        <ele>1654.1</ele>
        <time>2026-08-25T08:19:13Z</time>
      </trkpt>
      <trkpt lat="45.0103" lon="6.12447">
        <ele>1654.3</ele>
        <time>2026-08-25T08:19:14Z</time>
      </trkpt>
      <trkpt lat="45.01034" lon="6.1245">
        <ele>1654.4</ele>
        <time>2026-08-25T08:19:15Z</time>
      </trkpt>
      <trkpt lat="45.01038" lon="6.12454">
        <ele>1654.5</ele>
        <time>2026-08-25T08:19:16Z</time>
      </trkpt>
      <trkpt lat="45.01042" lon="6.12458">
        <ele>1654.6</ele>
        <time>2026-08-25T08:19:17Z</time>
      </trkpt>
      <trkpt lat="45.01046" lon="6.12461">
        <ele>1654.7</ele>
        <time>2026-08-25T08:19:18Z</time>
      </trkpt>
      <trkpt lat="45.0105" lon="6.12464">
        <ele>1654.8</ele>
        <time>2026-08-25T08:19:19Z</time>
      </trkpt>
      <trkpt lat="45.01053" lon="6.12466">
        <ele>1654.9</ele>
        <time>2026-08-25T08:19:20Z</time>
      </trkpt>
      <trkpt lat="45.01057" lon="6.12469">
        <ele>1655</ele>
        <time>2026-08-25T08:19:21Z</time>
      </trkpt>
      <trkpt lat="45.0106" lon="6.12471">
        <ele>1655</ele>
        <time>2026-08-25T08:19:22Z</time>
      </trkpt>
      <trkpt lat="45.01064" lon="6.12474">
        <ele>1655.1</ele>
        <time>2026-08-25T08:19:23Z</time>
      </trkpt>
      <trkpt lat="45.01067" lon="6.12476">
        <ele>1655.1</ele>
        <time>2026-08-25T08:19:24Z</time>
      </trkpt>
      <trkpt lat="45.01071" lon="6.12477">
        <ele>1655.2</ele>
        <time>2026-08-25T08:19:25Z</time>
      </trkpt>
      <trkpt lat="45.01075" lon="6.12477">
        <ele>1655.3</ele>
        <time>2026-08-25T08:19:26Z</time>
      </trkpt>
      <trkpt lat="45.01078" lon="6.12475">
        <ele>1655.3</ele>
        <time>2026-08-25T08:19:27Z</time>
      </trkpt>
      <trkpt lat="45.01081" lon="6.1247">
        <ele>1655.4</ele>
        <time>2026-08-25T08:19:28Z</time>
      </trkpt>
      <trkpt lat="45.01083" lon="6.12465">
        <ele>1655.4</ele>
        <time>2026-08-25T08:19:29Z</time>
      </trkpt>
      <trkpt lat="45.01085" lon="6.1246">
        <ele>1655.5</ele>
        <time>2026-08-25T08:19:30Z</time>
      </trkpt>
      <trkpt lat="45.01087" lon="6.12454">
        <ele>1655.5</ele>
        <time>2026-08-25T08:19:31Z</time>
      </trkpt>
      <trkpt lat="45.01089" lon="6.12448">
        <ele>1655.6</ele>
        <time>2026-08-25T08:19:32Z</time>
      </trkpt>
      <trkpt lat="45.01091" lon="6.12442">
        <ele>1655.6</ele>
        <time>2026-08-25T08:19:33Z</time>
      </trkpt>
      <trkpt lat="45.01093" lon="6.12435">
        <ele>1655.7</ele>
        <time>2026-08-25T08:19:34Z</time>
      </trkpt>
      <trkpt lat="45.01095" lon="6.12428">
        <ele>1655.7</ele>
        <time>2026-08-25T08:19:35Z</time>
      </trkpt>
      <trkpt lat="45.01098" lon="6.12423">
        <ele>1655.9</ele>
        <time>2026-08-25T08:19:36Z</time>
      </trkpt>
      <trkpt lat="45.01103" lon="6.12419">
        <ele>1656</ele>
        <time>2026-08-25T08:19:37Z</time>
      </trkpt>
      <trkpt lat="45.01108" lon="6.1242">
        <ele>1656</ele>
        <time>2026-08-25T08:19:38Z</time>
      </trkpt>
      <trkpt lat="45.01112" lon="6.12422">
        <ele>1656.1</ele>
        <time>2026-08-25T08:19:39Z</time>
      </trkpt>
      <trkpt lat="45.01116" lon="6.12425">
        <ele>1656.1</ele>
        <time>2026-08-25T08:19:40Z</time>
      </trkpt>
      <trkpt lat="45.0112" lon="6.12427">
        <ele>1656.2</ele>
        <time>2026-08-25T08:19:41Z</time>
      </trkpt>
      <trkpt lat="45.01124" lon="6.1243">
        <ele>1656.2</ele>
        <time>2026-08-25T08:19:42Z</time>
      </trkpt>
      <trkpt lat="45.01129" lon="6.12433">
        <ele>1656.3</ele>
        <time>2026-08-25T08:19:43Z</time>
      </trkpt>
      <trkpt lat="45.01133" lon="6.12435">
        <ele>1656.3</ele>
        <time>2026-08-25T08:19:44Z</time>
      </trkpt>
      <trkpt lat="45.01137" lon="6.12436">
        <ele>1656.3</ele>
        <time>2026-08-25T08:19:45Z</time>
      </trkpt>
      <trkpt lat="45.01141" lon="6.12439">
        <ele>1656.4</ele>
        <time>2026-08-25T08:19:46Z</time>
      </trkpt>
      <trkpt lat="45.01146" lon="6.12441">
        <ele>1656.4</ele>
        <time>2026-08-25T08:19:47Z</time>
      </trkpt>
      <trkpt lat="45.0115" lon="6.12442">
        <ele>1656.5</ele>
        <time>2026-08-25T08:19:48Z</time>
      </trkpt>
      <trkpt lat="45.01155" lon="6.12443">
        <ele>1656.5</ele>
        <time>2026-08-25T08:19:49Z</time>
      </trkpt>
      <trkpt lat="45.01159" lon="6.12445">
        <ele>1656.6</ele>
        <time>2026-08-25T08:19:50Z</time>
      </trkpt>
      <trkpt lat="45.01164" lon="6.12447">
        <ele>1656.6</ele>
        <time>2026-08-25T08:19:51Z</time>
      </trkpt>
      <trkpt lat="45.01168" lon="6.12448">
        <ele>1656.7</ele>
        <time>2026-08-25T08:19:52Z</time>
      </trkpt>
      <trkpt lat="45.01173" lon="6.1245">
        <ele>1656.7</ele>
        <time>2026-08-25T08:19:53Z</time>
      </trkpt>
      <trkpt lat="45.01178" lon="6.12451">
        <ele>1656.7</ele>
        <time>2026-08-25T08:19:54Z</time>
      </trkpt>
      <trkpt lat="45.01182" lon="6.12453">
        <ele>1656.8</ele>
        <time>2026-08-25T08:19:55Z</time>
      </trkpt>
      <trkpt lat="45.01187" lon="6.12454">
        <ele>1656.8</ele>
        <time>2026-08-25T08:19:56Z</time>
      </trkpt>
      <trkpt lat="45.01192" lon="6.12455">
        <ele>1656.8</ele>
        <time>2026-08-25T08:19:57Z</time>
      </trkpt>
      <trkpt lat="45.01197" lon="6.12457">
        <ele>1656.9</ele>
        <time>2026-08-25T08:19:58Z</time>
      </trkpt>
      <trkpt lat="45.01201" lon="6.12458">
        <ele>1656.9</ele>
        <time>2026-08-25T08:19:59Z</time>
      </trkpt>
      <trkpt lat="45.01205" lon="6.12459">
        <ele>1656.9</ele>
        <time>2026-08-25T08:20:00Z</time>
      </trkpt>
      <trkpt lat="45.01209" lon="6.1246">
        <ele>1657</ele>
        <time>2026-08-25T08:20:01Z</time>
      </trkpt>
      <trkpt lat="45.01213" lon="6.12461">
        <ele>1657</ele>
        <time>2026-08-25T08:20:02Z</time>
      </trkpt>
      <trkpt lat="45.01217" lon="6.12461">
        <ele>1657.1</ele>
        <time>2026-08-25T08:20:03Z</time>
      </trkpt>
      <trkpt lat="45.01221" lon="6.12462">
        <ele>1657.1</ele>
        <time>2026-08-25T08:20:04Z</time>
      </trkpt>
      <trkpt lat="45.01225" lon="6.12462">
        <ele>1657.1</ele>
        <time>2026-08-25T08:20:05Z</time>
      </trkpt>
      <trkpt lat="45.01229" lon="6.12463">
        <ele>1657.1</ele>
        <time>2026-08-25T08:20:06Z</time>
      </trkpt>
      <trkpt lat="45.01234" lon="6.12463">
        <ele>1657.2</ele>
        <time>2026-08-25T08:20:07Z</time>
      </trkpt>
      <trkpt lat="45.01238" lon="6.12463">
        <ele>1657.2</ele>
        <time>2026-08-25T08:20:08Z</time>
      </trkpt>
      <trkpt lat="45.01242" lon="6.12463">
        <ele>1657.2</ele>
        <time>2026-08-25T08:20:09Z</time>
      </trkpt>
      <trkpt lat="45.01246" lon="6.12464">
        <ele>1657.2</ele>
        <time>2026-08-25T08:20:10Z</time>
      </trkpt>
      <trkpt lat="45.0125" lon="6.12465">
        <ele>1657.2</ele>
        <time>2026-08-25T08:20:11Z</time>
      </trkpt>
      <trkpt lat="45.01253" lon="6.12466">
        <ele>1657.2</ele>
        <time>2026-08-25T08:20:12Z</time>
      </trkpt>
      <trkpt lat="45.01258" lon="6.12467">
        <ele>1657.2</ele>
        <time>2026-08-25T08:20:13Z</time>
      </trkpt>
      <trkpt lat="45.01262" lon="6.12468">
        <ele>1657.2</ele>
        <time>2026-08-25T08:20:14Z</time>
      </trkpt>
      <trkpt lat="45.01266" lon="6.12469">
        <ele>1657.2</ele>
        <time>2026-08-25T08:20:15Z</time>
      </trkpt>
      <trkpt lat="45.0127" lon="6.12468">
        <ele>1657.2</ele>
        <time>2026-08-25T08:20:16Z</time>
      </trkpt>
      <trkpt lat="45.01273" lon="6.12468">
        <ele>1657.1</ele>
        <time>2026-08-25T08:20:17Z</time>
      </trkpt>
      <trkpt lat="45.01277" lon="6.12468">
        <ele>1657.1</ele>
        <time>2026-08-25T08:20:18Z</time>
      </trkpt>
      <trkpt lat="45.0128" lon="6.12468">
        <ele>1657.1</ele>
        <time>2026-08-25T08:20:19Z</time>
      </trkpt>
      <trkpt lat="45.01283" lon="6.12468">
        <ele>1657.1</ele>
        <time>2026-08-25T08:20:20Z</time>
      </trkpt>
      <trkpt lat="45.01287" lon="6.12468">
        <ele>1657.1</ele>
        <time>2026-08-25T08:20:21Z</time>
      </trkpt>
      <trkpt lat="45.01291" lon="6.12469">
        <ele>1657.1</ele>
        <time>2026-08-25T08:20:22Z</time>
      </trkpt>
      <trkpt lat="45.01294" lon="6.12469">
        <ele>1657.1</ele>
        <time>2026-08-25T08:20:23Z</time>
      </trkpt>
      <trkpt lat="45.01298" lon="6.12469">
        <ele>1657.1</ele>
        <time>2026-08-25T08:20:24Z</time>
      </trkpt>
      <trkpt lat="45.01301" lon="6.1247">
        <ele>1657.1</ele>
        <time>2026-08-25T08:20:25Z</time>
      </trkpt>
      <trkpt lat="45.01305" lon="6.1247">
        <ele>1657.1</ele>
        <time>2026-08-25T08:20:26Z</time>
      </trkpt>
      <trkpt lat="45.01308" lon="6.1247">
        <ele>1657.1</ele>
        <time>2026-08-25T08:20:27Z</time>
      </trkpt>
      <trkpt lat="45.01312" lon="6.1247">
        <ele>1657.1</ele>
        <time>2026-08-25T08:20:28Z</time>
      </trkpt>
      <trkpt lat="45.01316" lon="6.1247">
        <ele>1657.1</ele>
        <time>2026-08-25T08:20:29Z</time>
      </trkpt>
      <trkpt lat="45.01319" lon="6.12469">
        <ele>1657.1</ele>
        <time>2026-08-25T08:20:30Z</time>
      </trkpt>
      <trkpt lat="45.01322" lon="6.12469">
        <ele>1657.1</ele>
        <time>2026-08-25T08:20:31Z</time>
      </trkpt>
      <trkpt lat="45.01325" lon="6.12469">
        <ele>1657.1</ele>
        <time>2026-08-25T08:20:32Z</time>
      </trkpt>
      <trkpt lat="45.01328" lon="6.12469">
        <ele>1657.1</ele>
        <time>2026-08-25T08:20:33Z</time>
      </trkpt>
      <trkpt lat="45.01331" lon="6.12469">
        <ele>1657.1</ele>
        <time>2026-08-25T08:20:34Z</time>
      </trkpt>
      <trkpt lat="45.01334" lon="6.12469">
        <ele>1657.1</ele>
        <time>2026-08-25T08:20:35Z</time>
      </trkpt>
      <trkpt lat="45.01336" lon="6.12468">
        <ele>1657.2</ele>
        <time>2026-08-25T08:20:36Z</time>
      </trkpt>
      <trkpt lat="45.01339" lon="6.12469">
        <ele>1657.2</ele>
        <time>2026-08-25T08:20:37Z</time>
      </trkpt>
      <trkpt lat="45.0134" lon="6.12469">
        <ele>1657.2</ele>
        <time>2026-08-25T08:20:38Z</time>
      </trkpt>
      <trkpt lat="45.01341" lon="6.12469">
        <ele>1657.2</ele>
        <time>2026-08-25T08:20:39Z</time>
      </trkpt>
      <trkpt lat="45.01342" lon="6.12469">
        <ele>1657.2</ele>
        <time>2026-08-25T08:20:40Z</time>
      </trkpt>
      <trkpt lat="45.01342" lon="6.12469">
        <ele>1657.2</ele>
        <time>2026-08-25T08:20:41Z</time>
      </trkpt>
      <trkpt lat="45.01344" lon="6.12471">
        <ele>1657.2</ele>
        <time>2026-08-25T08:21:04Z</time>
      </trkpt>
      <trkpt lat="45.01345" lon="6.12473">
        <ele>1657.2</ele>
        <time>2026-08-25T08:21:05Z</time>
      </trkpt>
      <trkpt lat="45.01347" lon="6.12474">
        <ele>1657.3</ele>
        <time>2026-08-25T08:21:06Z</time>
      </trkpt>
      <trkpt lat="45.01348" lon="6.12474">
        <ele>1657.3</ele>
        <time>2026-08-25T08:21:07Z</time>
      </trkpt>
      <trkpt lat="45.01349" lon="6.12473">
        <ele>1657.3</ele>
        <time>2026-08-25T08:21:08Z</time>
      </trkpt>
      <trkpt lat="45.01349" lon="6.12473">
        <ele>1657.3</ele>
        <time>2026-08-25T08:21:09Z</time>
      </trkpt>
      <trkpt lat="45.01352" lon="6.12476">
        <ele>1657.3</ele>
        <time>2026-08-25T08:21:35Z</time>
      </trkpt>
      <trkpt lat="45.01354" lon="6.12476">
        <ele>1657.3</ele>
        <time>2026-08-25T08:21:36Z</time>
      </trkpt>
      <trkpt lat="45.01356" lon="6.12476">
        <ele>1657.4</ele>
        <time>2026-08-25T08:21:37Z</time>
      </trkpt>
      <trkpt lat="45.01359" lon="6.12475">
        <ele>1657.4</ele>
        <time>2026-08-25T08:21:38Z</time>
      </trkpt>
      <trkpt lat="45.01361" lon="6.12474">
        <ele>1657.4</ele>
        <time>2026-08-25T08:21:39Z</time>
      </trkpt>
      <trkpt lat="45.01363" lon="6.12471">
        <ele>1657.5</ele>
        <time>2026-08-25T08:21:40Z</time>
      </trkpt>
      <trkpt lat="45.01365" lon="6.12469">
        <ele>1657.5</ele>
        <time>2026-08-25T08:21:41Z</time>
      </trkpt>
      <trkpt lat="45.01368" lon="6.12466">
        <ele>1657.6</ele>
        <time>2026-08-25T08:21:42Z</time>
      </trkpt>
      <trkpt lat="45.01371" lon="6.12464">
        <ele>1657.6</ele>
        <time>2026-08-25T08:21:43Z</time>
      </trkpt>
      <trkpt lat="45.01374" lon="6.12462">
        <ele>1657.7</ele>
        <time>2026-08-25T08:21:44Z</time>
      </trkpt>
      <trkpt lat="45.01377" lon="6.12459">
        <ele>1657.8</ele>
        <time>2026-08-25T08:21:45Z</time>
      </trkpt>
      <trkpt lat="45.0138" lon="6.12457">
        <ele>1657.9</ele>
        <time>2026-08-25T08:21:46Z</time>
      </trkpt>
      <trkpt lat="45.01383" lon="6.12454">
        <ele>1657.9</ele>
        <time>2026-08-25T08:21:47Z</time>
      </trkpt>
      <trkpt lat="45.01387" lon="6.12454">
        <ele>1658</ele>
        <time>2026-08-25T08:21:48Z</time>
      </trkpt>
      <trkpt lat="45.01391" lon="6.12453">
        <ele>1658.1</ele>
        <time>2026-08-25T08:21:49Z</time>
      </trkpt>
      <trkpt lat="45.01394" lon="6.12452">
        <ele>1658.2</ele>
        <time>2026-08-25T08:21:50Z</time>
      </trkpt>
      <trkpt lat="45.01398" lon="6.1245">
        <ele>1658.3</ele>
        <time>2026-08-25T08:21:51Z</time>
      </trkpt>
      <trkpt lat="45.01401" lon="6.12448">
        <ele>1658.4</ele>
        <time>2026-08-25T08:21:52Z</time>
      </trkpt>
      <trkpt lat="45.01405" lon="6.12446">
        <ele>1658.4</ele>
        <time>2026-08-25T08:21:53Z</time>
      </trkpt>
      <trkpt lat="45.01409" lon="6.12444">
        <ele>1658.5</ele>
        <time>2026-08-25T08:21:54Z</time>
      </trkpt>
      <trkpt lat="45.01412" lon="6.12442">
        <ele>1658.6</ele>
        <time>2026-08-25T08:21:55Z</time>
      </trkpt>
      <trkpt lat="45.01415" lon="6.1244">
        <ele>1658.6</ele>
        <time>2026-08-25T08:21:56Z</time>
      </trkpt>
      <trkpt lat="45.01419" lon="6.12438">
        <ele>1658.7</ele>
        <time>2026-08-25T08:21:57Z</time>
      </trkpt>
      <trkpt lat="45.01423" lon="6.12436">
        <ele>1658.8</ele>
        <time>2026-08-25T08:21:58Z</time>
      </trkpt>
      <trkpt lat="45.01427" lon="6.12434">
        <ele>1658.9</ele>
        <time>2026-08-25T08:21:59Z</time>
      </trkpt>
      <trkpt lat="45.01431" lon="6.12432">
        <ele>1659</ele>
        <time>2026-08-25T08:22:00Z</time>
      </trkpt>
      <trkpt lat="45.01435" lon="6.1243">
        <ele>1659.1</ele>
        <time>2026-08-25T08:22:01Z</time>
      </trkpt>
      <trkpt lat="45.01439" lon="6.12429">
        <ele>1659.2</ele>
        <time>2026-08-25T08:22:02Z</time>
      </trkpt>
      <trkpt lat="45.01443" lon="6.12427">
        <ele>1659.2</ele>
        <time>2026-08-25T08:22:03Z</time>
      </trkpt>
      <trkpt lat="45.01447" lon="6.12426">
        <ele>1659.3</ele>
        <time>2026-08-25T08:22:04Z</time>
      </trkpt>
      <trkpt lat="45.01451" lon="6.12424">
        <ele>1659.4</ele>
        <time>2026-08-25T08:22:05Z</time>
      </trkpt>
      <trkpt lat="45.01454" lon="6.12422">
        <ele>1659.4</ele>
        <time>2026-08-25T08:22:06Z</time>
      </trkpt>
      <trkpt lat="45.01458" lon="6.12421">
        <ele>1659.4</ele>
        <time>2026-08-25T08:22:07Z</time>
      </trkpt>
      <trkpt lat="45.01462" lon="6.1242">
        <ele>1659.5</ele>
        <time>2026-08-25T08:22:08Z</time>
      </trkpt>
      <trkpt lat="45.01466" lon="6.12419">
        <ele>1659.5</ele>
        <time>2026-08-25T08:22:09Z</time>
      </trkpt>
      <trkpt lat="45.0147" lon="6.12418">
        <ele>1659.5</ele>
        <time>2026-08-25T08:22:10Z</time>
      </trkpt>
      <trkpt lat="45.01474" lon="6.12418">
        <ele>1659.5</ele>
        <time>2026-08-25T08:22:11Z</time>
      </trkpt>
      <trkpt lat="45.01479" lon="6.12418">
        <ele>1659.5</ele>
        <time>2026-08-25T08:22:12Z</time>
      </trkpt>
      <trkpt lat="45.01483" lon="6.12418">
        <ele>1659.5</ele>
        <time>2026-08-25T08:22:13Z</time>
      </trkpt>
      <trkpt lat="45.01488" lon="6.12418">
        <ele>1659.5</ele>
        <time>2026-08-25T08:22:14Z</time>
      </trkpt>
      <trkpt lat="45.01493" lon="6.12418">
        <ele>1659.5</ele>
        <time>2026-08-25T08:22:15Z</time>
      </trkpt>
      <trkpt lat="45.01498" lon="6.12418">
        <ele>1659.4</ele>
        <time>2026-08-25T08:22:16Z</time>
      </trkpt>
      <trkpt lat="45.01503" lon="6.12417">
        <ele>1659.4</ele>
        <time>2026-08-25T08:22:17Z</time>
      </trkpt>
      <trkpt lat="45.01507" lon="6.12417">
        <ele>1659.4</ele>
        <time>2026-08-25T08:22:18Z</time>
      </trkpt>
      <trkpt lat="45.01512" lon="6.12417">
        <ele>1659.3</ele>
        <time>2026-08-25T08:22:19Z</time>
      </trkpt>
      <trkpt lat="45.01517" lon="6.12418">
        <ele>1659.3</ele>
        <time>2026-08-25T08:22:20Z</time>
      </trkpt>
      <trkpt lat="45.01522" lon="6.1242">
        <ele>1659.2</ele>
        <time>2026-08-25T08:22:21Z</time>
      </trkpt>
      <trkpt lat="45.01527" lon="6.12421">
        <ele>1659.2</ele>
        <time>2026-08-25T08:22:22Z</time>
      </trkpt>
      <trkpt lat="45.01532" lon="6.12423">
        <ele>1659.1</ele>
        <time>2026-08-25T08:22:23Z</time>
      </trkpt>
      <trkpt lat="45.01537" lon="6.12425">
        <ele>1659</ele>
        <time>2026-08-25T08:22:24Z</time>
      </trkpt>
      <trkpt lat="45.01543" lon="6.12427">
        <ele>1659</ele>
        <time>2026-08-25T08:22:25Z</time>
      </trkpt>
      <trkpt lat="45.01548" lon="6.12428">
        <ele>1658.9</ele>
        <time>2026-08-25T08:22:26Z</time>
      </trkpt>
      <trkpt lat="45.01553" lon="6.1243">
        <ele>1658.8</ele>
        <time>2026-08-25T08:22:27Z</time>
      </trkpt>
      <trkpt lat="45.01558" lon="6.12433">
        <ele>1658.7</ele>
        <time>2026-08-25T08:22:28Z</time>
      </trkpt>
      <trkpt lat="45.01564" lon="6.12435">
        <ele>1658.6</ele>
        <time>2026-08-25T08:22:29Z</time>
      </trkpt>
      <trkpt lat="45.01569" lon="6.12438">
        <ele>1658.5</ele>
        <time>2026-08-25T08:22:30Z</time>
      </trkpt>
      <trkpt lat="45.01574" lon="6.1244">
        <ele>1658.5</ele>
        <time>2026-08-25T08:22:31Z</time>
      </trkpt>
      <trkpt lat="45.0158" lon="6.12443">
        <ele>1658.4</ele>
        <time>2026-08-25T08:22:32Z</time>
      </trkpt>
      <trkpt lat="45.01586" lon="6.12446">
        <ele>1658.3</ele>
        <time>2026-08-25T08:22:33Z</time>
      </trkpt>
      <trkpt lat="45.01591" lon="6.12447">
        <ele>1658.2</ele>
        <time>2026-08-25T08:22:34Z</time>
      </trkpt>
      <trkpt lat="45.01597" lon="6.12449">
        <ele>1658.1</ele>
        <time>2026-08-25T08:22:35Z</time>
      </trkpt>
      <trkpt lat="45.01603" lon="6.12451">
        <ele>1657.9</ele>
        <time>2026-08-25T08:22:36Z</time>
      </trkpt>
      <trkpt lat="45.01608" lon="6.12453">
        <ele>1657.8</ele>
        <time>2026-08-25T08:22:37Z</time>
      </trkpt>
      <trkpt lat="45.01614" lon="6.12455">
        <ele>1657.6</ele>
        <time>2026-08-25T08:22:38Z</time>
      </trkpt>
      <trkpt lat="45.0162" lon="6.12456">
        <ele>1657.4</ele>
        <time>2026-08-25T08:22:39Z</time>
      </trkpt>
      <trkpt lat="45.01626" lon="6.12458">
        <ele>1657.2</ele>
        <time>2026-08-25T08:22:40Z</time>
      </trkpt>
      <trkpt lat="45.01632" lon="6.12459">
        <ele>1657.1</ele>
        <time>2026-08-25T08:22:41Z</time>
      </trkpt>
      <trkpt lat="45.01638" lon="6.1246">
        <ele>1656.9</ele>
        <time>2026-08-25T08:22:42Z</time>
      </trkpt>
      <trkpt lat="45.01645" lon="6.12462">
        <ele>1656.7</ele>
        <time>2026-08-25T08:22:43Z</time>
      </trkpt>
      <trkpt lat="45.01651" lon="6.12464">
        <ele>1656.5</ele>
        <time>2026-08-25T08:22:44Z</time>
      </trkpt>
      <trkpt lat="45.01658" lon="6.12466">
        <ele>1656.3</ele>
        <time>2026-08-25T08:22:45Z</time>
      </trkpt>
      <trkpt lat="45.01664" lon="6.12468">
        <ele>1656.1</ele>
        <time>2026-08-25T08:22:46Z</time>
      </trkpt>
      <trkpt lat="45.0167" lon="6.1247">
        <ele>1655.9</ele>
        <time>2026-08-25T08:22:47Z</time>
      </trkpt>
      <trkpt lat="45.01676" lon="6.12472">
        <ele>1655.8</ele>
        <time>2026-08-25T08:22:48Z</time>
      </trkpt>
      <trkpt lat="45.01683" lon="6.12473">
        <ele>1655.7</ele>
        <time>2026-08-25T08:22:49Z</time>
      </trkpt>
      <trkpt lat="45.01688" lon="6.12476">
        <ele>1655.6</ele>
        <time>2026-08-25T08:22:50Z</time>
      </trkpt>
      <trkpt lat="45.01694" lon="6.12479">
        <ele>1655.5</ele>
        <time>2026-08-25T08:22:51Z</time>
      </trkpt>
      <trkpt lat="45.017" lon="6.12482">
        <ele>1655.4</ele>
        <time>2026-08-25T08:22:52Z</time>
      </trkpt>
      <trkpt lat="45.01706" lon="6.12484">
        <ele>1655.3</ele>
        <time>2026-08-25T08:22:53Z</time>
      </trkpt>
      <trkpt lat="45.01711" lon="6.12489">
        <ele>1655.2</ele>
        <time>2026-08-25T08:22:54Z</time>
      </trkpt>
      <trkpt lat="45.01715" lon="6.12494">
        <ele>1655.2</ele>
        <time>2026-08-25T08:22:55Z</time>
      </trkpt>
      <trkpt lat="45.01719" lon="6.125">
        <ele>1655.1</ele>
        <time>2026-08-25T08:22:56Z</time>
      </trkpt>
      <trkpt lat="45.01724" lon="6.12504">
        <ele>1655.1</ele>
        <time>2026-08-25T08:22:57Z</time>
      </trkpt>
      <trkpt lat="45.01729" lon="6.12507">
        <ele>1655.1</ele>
        <time>2026-08-25T08:22:58Z</time>
      </trkpt>
      <trkpt lat="45.01733" lon="6.12512">
        <ele>1655.1</ele>
        <time>2026-08-25T08:22:59Z</time>
      </trkpt>
      <trkpt lat="45.01736" lon="6.12518">
        <ele>1655.1</ele>
        <time>2026-08-25T08:23:00Z</time>
      </trkpt>
      <trkpt lat="45.01738" lon="6.12525">
        <ele>1655.1</ele>
        <time>2026-08-25T08:23:01Z</time>
      </trkpt>
      <trkpt lat="45.0174" lon="6.1253">
        <ele>1655.1</ele>
        <time>2026-08-25T08:23:02Z</time>
      </trkpt>
      <trkpt lat="45.01744" lon="6.12535">
        <ele>1655.1</ele>
        <time>2026-08-25T08:23:03Z</time>
      </trkpt>
      <trkpt lat="45.01748" lon="6.12538">
        <ele>1655</ele>
        <time>2026-08-25T08:23:04Z</time>
      </trkpt>
      <trkpt lat="45.01752" lon="6.12539">
        <ele>1655</ele>
        <time>2026-08-25T08:23:05Z</time>
      </trkpt>
      <trkpt lat="45.01757" lon="6.12539">
        <ele>1654.9</ele>
        <time>2026-08-25T08:23:06Z</time>
      </trkpt>
      <trkpt lat="45.01762" lon="6.12537">
        <ele>1654.8</ele>
        <time>2026-08-25T08:23:07Z</time>
      </trkpt>
      <trkpt lat="45.01766" lon="6.12533">
        <ele>1654.7</ele>
        <time>2026-08-25T08:23:08Z</time>
      </trkpt>
      <trkpt lat="45.01769" lon="6.12527">
        <ele>1654.5</ele>
        <time>2026-08-25T08:23:09Z</time>
      </trkpt>
      <trkpt lat="45.01771" lon="6.12522">
        <ele>1654.4</ele>
        <time>2026-08-25T08:23:10Z</time>
      </trkpt>
      <trkpt lat="45.01774" lon="6.12516">
        <ele>1654.2</ele>
        <time>2026-08-25T08:23:11Z</time>
      </trkpt>
      <trkpt lat="45.01777" lon="6.1251">
        <ele>1654.1</ele>
        <time>2026-08-25T08:23:12Z</time>
      </trkpt>
      <trkpt lat="45.01779" lon="6.12505">
        <ele>1653.9</ele>
        <time>2026-08-25T08:23:13Z</time>
      </trkpt>
      <trkpt lat="45.01781" lon="6.125">
        <ele>1653.7</ele>
        <time>2026-08-25T08:23:14Z</time>
      </trkpt>
      <trkpt lat="45.01783" lon="6.12496">
        <ele>1653.6</ele>
        <time>2026-08-25T08:23:15Z</time>
      </trkpt>
      <trkpt lat="45.01785" lon="6.12491">
        <ele>1653.5</ele>
        <time>2026-08-25T08:23:16Z</time>
      </trkpt>
      <trkpt lat="45.01787" lon="6.12488">
        <ele>1653.3</ele>
        <time>2026-08-25T08:23:17Z</time>
      </trkpt>
      <trkpt lat="45.01788" lon="6.12483">
        <ele>1653.2</ele>
        <time>2026-08-25T08:23:18Z</time>
      </trkpt>
      <trkpt lat="45.01791" lon="6.12478">
        <ele>1653</ele>
        <time>2026-08-25T08:23:19Z</time>
      </trkpt>
      <trkpt lat="45.01794" lon="6.12474">
        <ele>1652.9</ele>
        <time>2026-08-25T08:23:20Z</time>
      </trkpt>
      <trkpt lat="45.01797" lon="6.1247">
        <ele>1652.6</ele>
        <time>2026-08-25T08:23:21Z</time>
      </trkpt>
      <trkpt lat="45.01802" lon="6.12466">
        <ele>1652.2</ele>
        <time>2026-08-25T08:23:22Z</time>
      </trkpt>
      <trkpt lat="45.01807" lon="6.12464">
        <ele>1651.8</ele>
        <time>2026-08-25T08:23:23Z</time>
      </trkpt>
      <trkpt lat="45.01813" lon="6.12462">
        <ele>1651.3</ele>
        <time>2026-08-25T08:23:24Z</time>
      </trkpt>
      <trkpt lat="45.01818" lon="6.12461">
        <ele>1650.9</ele>
        <time>2026-08-25T08:23:25Z</time>
      </trkpt>
      <trkpt lat="45.01825" lon="6.1246">
        <ele>1650.4</ele>
        <time>2026-08-25T08:23:26Z</time>
      </trkpt>
      <trkpt lat="45.01831" lon="6.12459">
        <ele>1649.8</ele>
        <time>2026-08-25T08:23:27Z</time>
      </trkpt>
      <trkpt lat="45.01838" lon="6.12458">
        <ele>1649.2</ele>
        <time>2026-08-25T08:23:28Z</time>
      </trkpt>
      <trkpt lat="45.01845" lon="6.12457">
        <ele>1648.7</ele>
        <time>2026-08-25T08:23:29Z</time>
      </trkpt>
      <trkpt lat="45.01853" lon="6.12456">
        <ele>1648.4</ele>
        <time>2026-08-25T08:23:30Z</time>
      </trkpt>
      <trkpt lat="45.01861" lon="6.12454">
        <ele>1648.1</ele>
        <time>2026-08-25T08:23:31Z</time>
      </trkpt>
      <trkpt lat="45.01868" lon="6.12453">
        <ele>1647.8</ele>
        <time>2026-08-25T08:23:32Z</time>
      </trkpt>
      <trkpt lat="45.01874" lon="6.12451">
        <ele>1647.3</ele>
        <time>2026-08-25T08:23:33Z</time>
      </trkpt>
      <trkpt lat="45.01881" lon="6.1245">
        <ele>1646.6</ele>
        <time>2026-08-25T08:23:34Z</time>
      </trkpt>
      <trkpt lat="45.01888" lon="6.12448">
        <ele>1645.9</ele>
        <time>2026-08-25T08:23:35Z</time>
      </trkpt>
      <trkpt lat="45.01895" lon="6.12445">
        <ele>1645.2</ele>
        <time>2026-08-25T08:23:36Z</time>
      </trkpt>
      <trkpt lat="45.01903" lon="6.12441">
        <ele>1644.4</ele>
        <time>2026-08-25T08:23:37Z</time>
      </trkpt>
      <trkpt lat="45.01909" lon="6.12436">
        <ele>1643.6</ele>
        <time>2026-08-25T08:23:38Z</time>
      </trkpt>
      <trkpt lat="45.01917" lon="6.1243">
        <ele>1642.7</ele>
        <time>2026-08-25T08:23:39Z</time>
      </trkpt>
      <trkpt lat="45.01924" lon="6.12424">
        <ele>1641.8</ele>
        <time>2026-08-25T08:23:40Z</time>
      </trkpt>
      <trkpt lat="45.01931" lon="6.12418">
        <ele>1640.9</ele>
        <time>2026-08-25T08:23:41Z</time>
      </trkpt>
      <trkpt lat="45.01939" lon="6.12411">
        <ele>1640</ele>
        <time>2026-08-25T08:23:42Z</time>
      </trkpt>
      <trkpt lat="45.01946" lon="6.12404">
        <ele>1639</ele>
        <time>2026-08-25T08:23:43Z</time>
      </trkpt>
      <trkpt lat="45.01954" lon="6.12398">
        <ele>1638.1</ele>
        <time>2026-08-25T08:23:44Z</time>
      </trkpt>
      <trkpt lat="45.01961" lon="6.12391">
        <ele>1637.2</ele>
        <time>2026-08-25T08:23:45Z</time>
      </trkpt>
      <trkpt lat="45.01968" lon="6.12384">
        <ele>1636.3</ele>
        <time>2026-08-25T08:23:46Z</time>
      </trkpt>
      <trkpt lat="45.01976" lon="6.12378">
        <ele>1635.3</ele>
        <time>2026-08-25T08:23:47Z</time>
      </trkpt>
      <trkpt lat="45.01984" lon="6.12372">
        <ele>1634.4</ele>
        <time>2026-08-25T08:23:48Z</time>
      </trkpt>
      <trkpt lat="45.01992" lon="6.12366">
        <ele>1633.8</ele>
        <time>2026-08-25T08:23:49Z</time>
      </trkpt>
      <trkpt lat="45.02" lon="6.12362">
        <ele>1633.1</ele>
        <time>2026-08-25T08:23:50Z</time>
      </trkpt>
      <trkpt lat="45.0201" lon="6.12358">
        <ele>1632</ele>
        <time>2026-08-25T08:23:51Z</time>
      </trkpt>
      <trkpt lat="45.0202" lon="6.12355">
        <ele>1631</ele>
        <time>2026-08-25T08:23:52Z</time>
      </trkpt>
      <trkpt lat="45.02029" lon="6.12353">
        <ele>1630</ele>
        <time>2026-08-25T08:23:53Z</time>
      </trkpt>
      <trkpt lat="45.02036" lon="6.1235">
        <ele>1629.2</ele>
        <time>2026-08-25T08:23:54Z</time>
      </trkpt>
      <trkpt lat="45.02044" lon="6.12347">
        <ele>1628.8</ele>
        <time>2026-08-25T08:23:55Z</time>
      </trkpt>
      <trkpt lat="45.0205" lon="6.12345">
        <ele>1628.7</ele>
        <time>2026-08-25T08:23:56Z</time>
      </trkpt>
      <trkpt lat="45.02055" lon="6.12344">
        <ele>1628.6</ele>
        <time>2026-08-25T08:23:57Z</time>
      </trkpt>
      <trkpt lat="45.0206" lon="6.12343">
        <ele>1628.5</ele>
        <time>2026-08-25T08:23:58Z</time>
      </trkpt>
      <trkpt lat="45.02063" lon="6.12344">
        <ele>1628.4</ele>
        <time>2026-08-25T08:23:59Z</time>
      </trkpt>
      <trkpt lat="45.02067" lon="6.12343">
        <ele>1628</ele>
        <time>2026-08-25T08:24:00Z</time>
      </trkpt>
      <trkpt lat="45.0207" lon="6.12342">
        <ele>1627.7</ele>
        <time>2026-08-25T08:24:01Z</time>
      </trkpt>
      <trkpt lat="45.02072" lon="6.12339">
        <ele>1627.4</ele>
        <time>2026-08-25T08:24:02Z</time>
      </trkpt>
      <trkpt lat="45.02073" lon="6.12337">
        <ele>1627.2</ele>
        <time>2026-08-25T08:24:03Z</time>
      </trkpt>
      <trkpt lat="45.02074" lon="6.12335">
        <ele>1627</ele>
        <time>2026-08-25T08:24:04Z</time>
      </trkpt>
      <trkpt lat="45.02074" lon="6.12334">
        <ele>1626.9</ele>
        <time>2026-08-25T08:24:05Z</time>
      </trkpt>
      <trkpt lat="45.02074" lon="6.12334">
        <ele>1626.9</ele>
        <time>2026-08-25T08:24:06Z</time>
      </trkpt>
      <trkpt lat="45.02074" lon="6.12334">
        <ele>1626.9</ele>
        <time>2026-08-25T08:24:07Z</time>
      </trkpt>
      <trkpt lat="45.02076" lon="6.1233">
        <ele>1626.4</ele>
        <time>2026-08-25T08:24:40Z</time>
      </trkpt>
      <trkpt lat="45.02077" lon="6.12327">
        <ele>1626.1</ele>
        <time>2026-08-25T08:24:41Z</time>
      </trkpt>
      <trkpt lat="45.0208" lon="6.12324">
        <ele>1625.6</ele>
        <time>2026-08-25T08:24:42Z</time>
      </trkpt>
      <trkpt lat="45.02083" lon="6.12322">
        <ele>1625.1</ele>
        <time>2026-08-25T08:24:43Z</time>
      </trkpt>
      <trkpt lat="45.02087" lon="6.12318">
        <ele>1624.5</ele>
        <time>2026-08-25T08:24:44Z</time>
      </trkpt>
      <trkpt lat="45.02091" lon="6.12313">
        <ele>1623.9</ele>
        <time>2026-08-25T08:24:45Z</time>
      </trkpt>
      <trkpt lat="45.02094" lon="6.12309">
        <ele>1623.2</ele>
        <time>2026-08-25T08:24:46Z</time>
      </trkpt>
      <trkpt lat="45.02098" lon="6.12305">
        <ele>1622.6</ele>
        <time>2026-08-25T08:24:47Z</time>
      </trkpt>
      <trkpt lat="45.02102" lon="6.12301">
        <ele>1622.1</ele>
        <time>2026-08-25T08:24:48Z</time>
      </trkpt>
      <trkpt lat="45.02106" lon="6.12298">
        <ele>1621.4</ele>
        <time>2026-08-25T08:24:49Z</time>
      </trkpt>
      <trkpt lat="45.02112" lon="6.12294">
        <ele>1620.6</ele>
        <time>2026-08-25T08:24:50Z</time>
      </trkpt>
      <trkpt lat="45.02118" lon="6.1229">
        <ele>1619.7</ele>
        <time>2026-08-25T08:24:51Z</time>
      </trkpt>
      <trkpt lat="45.02125" lon="6.12286">
        <ele>1619</ele>
        <time>2026-08-25T08:24:52Z</time>
      </trkpt>
      <trkpt lat="45.02132" lon="6.12281">
        <ele>1618.3</ele>
        <time>2026-08-25T08:24:53Z</time>
      </trkpt>
      <trkpt lat="45.0214" lon="6.12276">
        <ele>1617.5</ele>
        <time>2026-08-25T08:24:54Z</time>
      </trkpt>
      <trkpt lat="45.02148" lon="6.1227">
        <ele>1616.6</ele>
        <time>2026-08-25T08:24:55Z</time>
      </trkpt>
      <trkpt lat="45.02157" lon="6.12265">
        <ele>1615.8</ele>
        <time>2026-08-25T08:24:56Z</time>
      </trkpt>
      <trkpt lat="45.02167" lon="6.1226">
        <ele>1614.8</ele>
        <time>2026-08-25T08:24:57Z</time>
      </trkpt>
      <trkpt lat="45.02177" lon="6.12255">
        <ele>1613.9</ele>
        <time>2026-08-25T08:24:58Z</time>
      </trkpt>
      <trkpt lat="45.02187" lon="6.1225">
        <ele>1612.8</ele>
        <time>2026-08-25T08:24:59Z</time>
      </trkpt>
      <trkpt lat="45.02197" lon="6.12245">
        <ele>1611.8</ele>
        <time>2026-08-25T08:25:00Z</time>
      </trkpt>
      <trkpt lat="45.02208" lon="6.12239">
        <ele>1610.8</ele>
        <time>2026-08-25T08:25:01Z</time>
      </trkpt>
      <trkpt lat="45.02219" lon="6.12234">
        <ele>1609.7</ele>
        <time>2026-08-25T08:25:02Z</time>
      </trkpt>
      <trkpt lat="45.02231" lon="6.12229">
        <ele>1608.5</ele>
        <time>2026-08-25T08:25:03Z</time>
      </trkpt>
      <trkpt lat="45.02242" lon="6.12223">
        <ele>1607.4</ele>
        <time>2026-08-25T08:25:04Z</time>
      </trkpt>
      <trkpt lat="45.02254" lon="6.12217">
        <ele>1606.2</ele>
        <time>2026-08-25T08:25:05Z</time>
      </trkpt>
      <trkpt lat="45.02266" lon="6.12212">
        <ele>1605</ele>
        <time>2026-08-25T08:25:06Z</time>
      </trkpt>
      <trkpt lat="45.02278" lon="6.12205">
        <ele>1603.7</ele>
        <time>2026-08-25T08:25:07Z</time>
      </trkpt>
      <trkpt lat="45.02289" lon="6.12196">
        <ele>1602.5</ele>
        <time>2026-08-25T08:25:08Z</time>
      </trkpt>
      <trkpt lat="45.02299" lon="6.12186">
        <ele>1601.3</ele>
        <time>2026-08-25T08:25:09Z</time>
      </trkpt>
      <trkpt lat="45.02309" lon="6.12173">
        <ele>1600.2</ele>
        <time>2026-08-25T08:25:10Z</time>
      </trkpt>
      <trkpt lat="45.02318" lon="6.12159">
        <ele>1599.1</ele>
        <time>2026-08-25T08:25:11Z</time>
      </trkpt>
      <trkpt lat="45.02327" lon="6.12145">
        <ele>1597.9</ele>
        <time>2026-08-25T08:25:12Z</time>
      </trkpt>
      <trkpt lat="45.02339" lon="6.12134">
        <ele>1596.6</ele>
        <time>2026-08-25T08:25:13Z</time>
      </trkpt>
      <trkpt lat="45.02351" lon="6.12126">
        <ele>1595.3</ele>
        <time>2026-08-25T08:25:14Z</time>
      </trkpt>
      <trkpt lat="45.02364" lon="6.12119">
        <ele>1594.1</ele>
        <time>2026-08-25T08:25:15Z</time>
      </trkpt>
      <trkpt lat="45.02377" lon="6.12113">
        <ele>1592.9</ele>
        <time>2026-08-25T08:25:16Z</time>
      </trkpt>
      <trkpt lat="45.02391" lon="6.12109">
        <ele>1591.5</ele>
        <time>2026-08-25T08:25:17Z</time>
      </trkpt>
      <trkpt lat="45.02405" lon="6.12104">
        <ele>1590.2</ele>
        <time>2026-08-25T08:25:18Z</time>
      </trkpt>
      <trkpt lat="45.02419" lon="6.12098">
        <ele>1588.8</ele>
        <time>2026-08-25T08:25:19Z</time>
      </trkpt>
      <trkpt lat="45.02433" lon="6.12092">
        <ele>1587.4</ele>
        <time>2026-08-25T08:25:20Z</time>
      </trkpt>
      <trkpt lat="45.02448" lon="6.12086">
        <ele>1585.9</ele>
        <time>2026-08-25T08:25:21Z</time>
      </trkpt>
      <trkpt lat="45.02463" lon="6.1208">
        <ele>1584.5</ele>
        <time>2026-08-25T08:25:22Z</time>
      </trkpt>
      <trkpt lat="45.02478" lon="6.12074">
        <ele>1583.2</ele>
        <time>2026-08-25T08:25:23Z</time>
      </trkpt>
      <trkpt lat="45.02494" lon="6.12067">
        <ele>1581.8</ele>
        <time>2026-08-25T08:25:24Z</time>
      </trkpt>
      <trkpt lat="45.02509" lon="6.1206">
        <ele>1580.5</ele>
        <time>2026-08-25T08:25:25Z</time>
      </trkpt>
      <trkpt lat="45.02524" lon="6.12053">
        <ele>1579.2</ele>
        <time>2026-08-25T08:25:26Z</time>
      </trkpt>
      <trkpt lat="45.02539" lon="6.12047">
        <ele>1577.8</ele>
        <time>2026-08-25T08:25:27Z</time>
      </trkpt>
      <trkpt lat="45.02553" lon="6.12041">
        <ele>1576.6</ele>
        <time>2026-08-25T08:25:28Z</time>
      </trkpt>
      <trkpt lat="45.02567" lon="6.12036">
        <ele>1575.3</ele>
        <time>2026-08-25T08:25:29Z</time>
      </trkpt>
      <trkpt lat="45.02582" lon="6.12032">
        <ele>1574</ele>
        <time>2026-08-25T08:25:30Z</time>
      </trkpt>
      <trkpt lat="45.02597" lon="6.12029">
        <ele>1572.6</ele>
        <time>2026-08-25T08:25:31Z</time>
      </trkpt>
      <trkpt lat="45.02612" lon="6.12027">
        <ele>1571.2</ele>
        <time>2026-08-25T08:25:32Z</time>
      </trkpt>
      <trkpt lat="45.02627" lon="6.12027">
        <ele>1570</ele>
        <time>2026-08-25T08:25:33Z</time>
      </trkpt>
      <trkpt lat="45.02642" lon="6.12028">
        <ele>1568.7</ele>
        <time>2026-08-25T08:25:34Z</time>
      </trkpt>
      <trkpt lat="45.02658" lon="6.12029">
        <ele>1567.5</ele>
        <time>2026-08-25T08:25:35Z</time>
      </trkpt>
      <trkpt lat="45.02673" lon="6.12031">
        <ele>1566.2</ele>
        <time>2026-08-25T08:25:36Z</time>
      </trkpt>
      <trkpt lat="45.02689" lon="6.12031">
        <ele>1564.9</ele>
        <time>2026-08-25T08:25:37Z</time>
      </trkpt>
      <trkpt lat="45.02704" lon="6.12029">
        <ele>1563.6</ele>
        <time>2026-08-25T08:25:38Z</time>
      </trkpt>
      <trkpt lat="45.0272" lon="6.12027">
        <ele>1562.2</ele>
        <time>2026-08-25T08:25:39Z</time>
      </trkpt>
      <trkpt lat="45.02736" lon="6.12024">
        <ele>1560.8</ele>
        <time>2026-08-25T08:25:40Z</time>
      </trkpt>
      <trkpt lat="45.02752" lon="6.12022">
        <ele>1559.3</ele>
        <time>2026-08-25T08:25:41Z</time>
      </trkpt>
      <trkpt lat="45.02767" lon="6.12019">
        <ele>1557.9</ele>
        <time>2026-08-25T08:25:42Z</time>
      </trkpt>
      <trkpt lat="45.02783" lon="6.12016">
        <ele>1556.5</ele>
        <time>2026-08-25T08:25:43Z</time>
      </trkpt>
      <trkpt lat="45.02799" lon="6.12012">
        <ele>1555.1</ele>
        <time>2026-08-25T08:25:44Z</time>
      </trkpt>
      <trkpt lat="45.02814" lon="6.12006">
        <ele>1553.7</ele>
        <time>2026-08-25T08:25:45Z</time>
      </trkpt>
      <trkpt lat="45.02829" lon="6.11998">
        <ele>1552.4</ele>
        <time>2026-08-25T08:25:46Z</time>
      </trkpt>
      <trkpt lat="45.02844" lon="6.1199">
        <ele>1551.1</ele>
        <time>2026-08-25T08:25:47Z</time>
      </trkpt>
      <trkpt lat="45.02859" lon="6.11983">
        <ele>1549.9</ele>
        <time>2026-08-25T08:25:48Z</time>
      </trkpt>
      <trkpt lat="45.02874" lon="6.11978">
        <ele>1548.6</ele>
        <time>2026-08-25T08:25:49Z</time>
      </trkpt>
      <trkpt lat="45.02888" lon="6.11976">
        <ele>1547.3</ele>
        <time>2026-08-25T08:25:50Z</time>
      </trkpt>
      <trkpt lat="45.02902" lon="6.11973">
        <ele>1546.1</ele>
        <time>2026-08-25T08:25:51Z</time>
      </trkpt>
      <trkpt lat="45.02916" lon="6.11967">
        <ele>1545</ele>
        <time>2026-08-25T08:25:52Z</time>
      </trkpt>
      <trkpt lat="45.02928" lon="6.11956">
        <ele>1543.8</ele>
        <time>2026-08-25T08:25:53Z</time>
      </trkpt>
      <trkpt lat="45.02938" lon="6.11943">
        <ele>1542.7</ele>
        <time>2026-08-25T08:25:54Z</time>
      </trkpt>
      <trkpt lat="45.02948" lon="6.11929">
        <ele>1541.4</ele>
        <time>2026-08-25T08:25:55Z</time>
      </trkpt>
      <trkpt lat="45.02958" lon="6.11914">
        <ele>1540.1</ele>
        <time>2026-08-25T08:25:56Z</time>
      </trkpt>
      <trkpt lat="45.02968" lon="6.11899">
        <ele>1538.6</ele>
        <time>2026-08-25T08:25:57Z</time>
      </trkpt>
      <trkpt lat="45.02978" lon="6.11884">
        <ele>1537.1</ele>
        <time>2026-08-25T08:25:58Z</time>
      </trkpt>
      <trkpt lat="45.02988" lon="6.11867">
        <ele>1535.7</ele>
        <time>2026-08-25T08:25:59Z</time>
      </trkpt>
      <trkpt lat="45.02998" lon="6.11851">
        <ele>1534.4</ele>
        <time>2026-08-25T08:26:00Z</time>
      </trkpt>
      <trkpt lat="45.03008" lon="6.11835">
        <ele>1533.2</ele>
        <time>2026-08-25T08:26:01Z</time>
      </trkpt>
      <trkpt lat="45.03018" lon="6.11818">
        <ele>1531.9</ele>
        <time>2026-08-25T08:26:02Z</time>
      </trkpt>
      <trkpt lat="45.03028" lon="6.11802">
        <ele>1530.7</ele>
        <time>2026-08-25T08:26:03Z</time>
      </trkpt>
      <trkpt lat="45.03038" lon="6.11787">
        <ele>1529.6</ele>
        <time>2026-08-25T08:26:04Z</time>
      </trkpt>
      <trkpt lat="45.03049" lon="6.11772">
        <ele>1528.4</ele>
        <time>2026-08-25T08:26:05Z</time>
      </trkpt>
      <trkpt lat="45.03058" lon="6.11757">
        <ele>1527.2</ele>
        <time>2026-08-25T08:26:06Z</time>
      </trkpt>
      <trkpt lat="45.03066" lon="6.11743">
        <ele>1526.2</ele>
        <time>2026-08-25T08:26:07Z</time>
      </trkpt>
      <trkpt lat="45.03072" lon="6.11729">
        <ele>1525.4</ele>
        <time>2026-08-25T08:26:08Z</time>
      </trkpt>
      <trkpt lat="45.03076" lon="6.11715">
        <ele>1524.8</ele>
        <time>2026-08-25T08:26:09Z</time>
      </trkpt>
      <trkpt lat="45.03078" lon="6.11703">
        <ele>1524.5</ele>
        <time>2026-08-25T08:26:10Z</time>
      </trkpt>
      <trkpt lat="45.03084" lon="6.11695">
        <ele>1524.1</ele>
        <time>2026-08-25T08:26:11Z</time>
      </trkpt>
      <trkpt lat="45.03091" lon="6.11694">
        <ele>1523.7</ele>
        <time>2026-08-25T08:26:12Z</time>
      </trkpt>
      <trkpt lat="45.03096" lon="6.11701">
        <ele>1523.3</ele>
        <time>2026-08-25T08:26:13Z</time>
      </trkpt>
      <trkpt lat="45.03096" lon="6.1171">
        <ele>1522.9</ele>
        <time>2026-08-25T08:26:14Z</time>
      </trkpt>
      <trkpt lat="45.03093" lon="6.11718">
        <ele>1522.4</ele>
        <time>2026-08-25T08:26:15Z</time>
      </trkpt>
      <trkpt lat="45.03087" lon="6.11728">
        <ele>1521.7</ele>
        <time>2026-08-25T08:26:16Z</time>
      </trkpt>
      <trkpt lat="45.03081" lon="6.11739">
        <ele>1520.8</ele>
        <time>2026-08-25T08:26:17Z</time>
      </trkpt>
      <trkpt lat="45.03075" lon="6.11751">
        <ele>1519.9</ele>
        <time>2026-08-25T08:26:18Z</time>
      </trkpt>
      <trkpt lat="45.03069" lon="6.11764">
        <ele>1519</ele>
        <time>2026-08-25T08:26:19Z</time>
      </trkpt>
      <trkpt lat="45.03063" lon="6.11777">
        <ele>1518.1</ele>
        <time>2026-08-25T08:26:20Z</time>
      </trkpt>
      <trkpt lat="45.03058" lon="6.11791">
        <ele>1517.1</ele>
        <time>2026-08-25T08:26:21Z</time>
      </trkpt>
      <trkpt lat="45.03053" lon="6.11805">
        <ele>1516.2</ele>
        <time>2026-08-25T08:26:22Z</time>
      </trkpt>
      <trkpt lat="45.03047" lon="6.1182">
        <ele>1515.2</ele>
        <time>2026-08-25T08:26:23Z</time>
      </trkpt>
      <trkpt lat="45.03042" lon="6.11836">
        <ele>1514.1</ele>
        <time>2026-08-25T08:26:24Z</time>
      </trkpt>
      <trkpt lat="45.03037" lon="6.11852">
        <ele>1513</ele>
        <time>2026-08-25T08:26:25Z</time>
      </trkpt>
      <trkpt lat="45.03031" lon="6.11869">
        <ele>1512</ele>
        <time>2026-08-25T08:26:26Z</time>
      </trkpt>
      <trkpt lat="45.03025" lon="6.11886">
        <ele>1510.9</ele>
        <time>2026-08-25T08:26:27Z</time>
      </trkpt>
      <trkpt lat="45.0302" lon="6.11904">
        <ele>1509.8</ele>
        <time>2026-08-25T08:26:28Z</time>
      </trkpt>
      <trkpt lat="45.03015" lon="6.11923">
        <ele>1508.6</ele>
        <time>2026-08-25T08:26:29Z</time>
      </trkpt>
      <trkpt lat="45.0301" lon="6.11941">
        <ele>1507.3</ele>
        <time>2026-08-25T08:26:30Z</time>
      </trkpt>
      <trkpt lat="45.03005" lon="6.11961">
        <ele>1506.1</ele>
        <time>2026-08-25T08:26:31Z</time>
      </trkpt>
      <trkpt lat="45.03" lon="6.1198">
        <ele>1504.9</ele>
        <time>2026-08-25T08:26:32Z</time>
      </trkpt>
      <trkpt lat="45.02994" lon="6.11998">
        <ele>1503.7</ele>
        <time>2026-08-25T08:26:33Z</time>
      </trkpt>
      <trkpt lat="45.02989" lon="6.12017">
        <ele>1502.5</ele>
        <time>2026-08-25T08:26:34Z</time>
      </trkpt>
      <trkpt lat="45.02983" lon="6.12033">
        <ele>1501.4</ele>
        <time>2026-08-25T08:26:35Z</time>
      </trkpt>
      <trkpt lat="45.02978" lon="6.12049">
        <ele>1500.4</ele>
        <time>2026-08-25T08:26:36Z</time>
      </trkpt>
      <trkpt lat="45.0297" lon="6.12065">
        <ele>1499.3</ele>
        <time>2026-08-25T08:26:37Z</time>
      </trkpt>
      <trkpt lat="45.02961" lon="6.12078">
        <ele>1498.2</ele>
        <time>2026-08-25T08:26:38Z</time>
      </trkpt>
      <trkpt lat="45.0295" lon="6.12089">
        <ele>1497</ele>
        <time>2026-08-25T08:26:39Z</time>
      </trkpt>
      <trkpt lat="45.02937" lon="6.12096">
        <ele>1495.7</ele>
        <time>2026-08-25T08:26:40Z</time>
      </trkpt>
      <trkpt lat="45.02923" lon="6.121">
        <ele>1494.4</ele>
        <time>2026-08-25T08:26:41Z</time>
      </trkpt>
      <trkpt lat="45.02908" lon="6.12103">
        <ele>1493</ele>
        <time>2026-08-25T08:26:42Z</time>
      </trkpt>
      <trkpt lat="45.02894" lon="6.1211">
        <ele>1492.5</ele>
        <time>2026-08-25T08:26:43Z</time>
      </trkpt>
      <trkpt lat="45.02881" lon="6.12122">
        <ele>1491.6</ele>
        <time>2026-08-25T08:26:44Z</time>
      </trkpt>
      <trkpt lat="45.02868" lon="6.12132">
        <ele>1490.7</ele>
        <time>2026-08-25T08:26:45Z</time>
      </trkpt>
      <trkpt lat="45.02855" lon="6.12137">
        <ele>1489.9</ele>
        <time>2026-08-25T08:26:46Z</time>
      </trkpt>
      <trkpt lat="45.02843" lon="6.12139">
        <ele>1489.2</ele>
        <time>2026-08-25T08:26:47Z</time>
      </trkpt>
      <trkpt lat="45.02834" lon="6.12145">
        <ele>1488.7</ele>
        <time>2026-08-25T08:26:48Z</time>
      </trkpt>
      <trkpt lat="45.0283" lon="6.12156">
        <ele>1488.2</ele>
        <time>2026-08-25T08:26:49Z</time>
      </trkpt>
      <trkpt lat="45.02832" lon="6.12168">
        <ele>1487.7</ele>
        <time>2026-08-25T08:26:50Z</time>
      </trkpt>
      <trkpt lat="45.02838" lon="6.12174">
        <ele>1486.9</ele>
        <time>2026-08-25T08:26:51Z</time>
      </trkpt>
      <trkpt lat="45.02846" lon="6.12174">
        <ele>1486.2</ele>
        <time>2026-08-25T08:26:52Z</time>
      </trkpt>
      <trkpt lat="45.02854" lon="6.1217">
        <ele>1485.4</ele>
        <time>2026-08-25T08:26:53Z</time>
      </trkpt>
      <trkpt lat="45.02861" lon="6.12164">
        <ele>1484.6</ele>
        <time>2026-08-25T08:26:54Z</time>
      </trkpt>
      <trkpt lat="45.02869" lon="6.12158">
        <ele>1483.7</ele>
        <time>2026-08-25T08:26:55Z</time>
      </trkpt>
      <trkpt lat="45.02878" lon="6.12154">
        <ele>1482.8</ele>
        <time>2026-08-25T08:26:56Z</time>
      </trkpt>
      <trkpt lat="45.02888" lon="6.12149">
        <ele>1481.9</ele>
        <time>2026-08-25T08:26:57Z</time>
      </trkpt>
      <trkpt lat="45.02898" lon="6.12145">
        <ele>1480.8</ele>
        <time>2026-08-25T08:26:58Z</time>
      </trkpt>
      <trkpt lat="45.02909" lon="6.12147">
        <ele>1479.8</ele>
        <time>2026-08-25T08:26:59Z</time>
      </trkpt>
      <trkpt lat="45.0292" lon="6.12151">
        <ele>1478.7</ele>
        <time>2026-08-25T08:27:00Z</time>
      </trkpt>
      <trkpt lat="45.02932" lon="6.12153">
        <ele>1477.5</ele>
        <time>2026-08-25T08:27:01Z</time>
      </trkpt>
      <trkpt lat="45.02944" lon="6.12152">
        <ele>1476.2</ele>
        <time>2026-08-25T08:27:02Z</time>
      </trkpt>
      <trkpt lat="45.02956" lon="6.1215">
        <ele>1475</ele>
        <time>2026-08-25T08:27:03Z</time>
      </trkpt>
      <trkpt lat="45.02969" lon="6.12148">
        <ele>1473.7</ele>
        <time>2026-08-25T08:27:04Z</time>
      </trkpt>
      <trkpt lat="45.02982" lon="6.12145">
        <ele>1472.4</ele>
        <time>2026-08-25T08:27:05Z</time>
      </trkpt>
      <trkpt lat="45.02994" lon="6.12141">
        <ele>1471.2</ele>
        <time>2026-08-25T08:27:06Z</time>
      </trkpt>
      <trkpt lat="45.03007" lon="6.12132">
        <ele>1470</ele>
        <time>2026-08-25T08:27:07Z</time>
      </trkpt>
      <trkpt lat="45.03018" lon="6.12119">
        <ele>1469</ele>
        <time>2026-08-25T08:27:08Z</time>
      </trkpt>
      <trkpt lat="45.03026" lon="6.12105">
        <ele>1468.3</ele>
        <time>2026-08-25T08:27:09Z</time>
      </trkpt>
      <trkpt lat="45.03032" lon="6.1209">
        <ele>1467.7</ele>
        <time>2026-08-25T08:27:10Z</time>
      </trkpt>
      <trkpt lat="45.03033" lon="6.12077">
        <ele>1467.3</ele>
        <time>2026-08-25T08:27:11Z</time>
      </trkpt>
      <trkpt lat="45.03036" lon="6.12065">
        <ele>1466.9</ele>
        <time>2026-08-25T08:27:12Z</time>
      </trkpt>
      <trkpt lat="45.03042" lon="6.1206">
        <ele>1466.4</ele>
        <time>2026-08-25T08:27:13Z</time>
      </trkpt>
      <trkpt lat="45.03049" lon="6.12063">
        <ele>1465.9</ele>
        <time>2026-08-25T08:27:14Z</time>
      </trkpt>
      <trkpt lat="45.03052" lon="6.12072">
        <ele>1465.3</ele>
        <time>2026-08-25T08:27:15Z</time>
      </trkpt>
      <trkpt lat="45.03051" lon="6.12082">
        <ele>1464.6</ele>
        <time>2026-08-25T08:27:16Z</time>
      </trkpt>
      <trkpt lat="45.03046" lon="6.1209">
        <ele>1464</ele>
        <time>2026-08-25T08:27:17Z</time>
      </trkpt>
      <trkpt lat="45.03041" lon="6.12099">
        <ele>1463.3</ele>
        <time>2026-08-25T08:27:18Z</time>
      </trkpt>
      <trkpt lat="45.03036" lon="6.12109">
        <ele>1462.7</ele>
        <time>2026-08-25T08:27:19Z</time>
      </trkpt>
      <trkpt lat="45.03031" lon="6.12119">
        <ele>1462</ele>
        <time>2026-08-25T08:27:20Z</time>
      </trkpt>
      <trkpt lat="45.03025" lon="6.12128">
        <ele>1461.3</ele>
        <time>2026-08-25T08:27:21Z</time>
      </trkpt>
      <trkpt lat="45.03018" lon="6.12138">
        <ele>1460.5</ele>
        <time>2026-08-25T08:27:22Z</time>
      </trkpt>
      <trkpt lat="45.03011" lon="6.12149">
        <ele>1459.6</ele>
        <time>2026-08-25T08:27:23Z</time>
      </trkpt>
      <trkpt lat="45.03003" lon="6.12158">
        <ele>1458.6</ele>
        <time>2026-08-25T08:27:24Z</time>
      </trkpt>
      <trkpt lat="45.02994" lon="6.12167">
        <ele>1457.7</ele>
        <time>2026-08-25T08:27:25Z</time>
      </trkpt>
      <trkpt lat="45.02985" lon="6.12176">
        <ele>1456.6</ele>
        <time>2026-08-25T08:27:26Z</time>
      </trkpt>
      <trkpt lat="45.02975" lon="6.12185">
        <ele>1455.6</ele>
        <time>2026-08-25T08:27:27Z</time>
      </trkpt>
      <trkpt lat="45.02964" lon="6.12193">
        <ele>1454.5</ele>
        <time>2026-08-25T08:27:28Z</time>
      </trkpt>
      <trkpt lat="45.02953" lon="6.122">
        <ele>1453.5</ele>
        <time>2026-08-25T08:27:29Z</time>
      </trkpt>
      <trkpt lat="45.0294" lon="6.12205">
        <ele>1452.5</ele>
        <time>2026-08-25T08:27:30Z</time>
      </trkpt>
      <trkpt lat="45.02927" lon="6.12207">
        <ele>1451.6</ele>
        <time>2026-08-25T08:27:31Z</time>
      </trkpt>
      <trkpt lat="45.02914" lon="6.1221">
        <ele>1450.7</ele>
        <time>2026-08-25T08:27:32Z</time>
      </trkpt>
      <trkpt lat="45.02901" lon="6.12212">
        <ele>1449.9</ele>
        <time>2026-08-25T08:27:33Z</time>
      </trkpt>
      <trkpt lat="45.02889" lon="6.12213">
        <ele>1449.1</ele>
        <time>2026-08-25T08:27:34Z</time>
      </trkpt>
      <trkpt lat="45.02879" lon="6.12218">
        <ele>1448.5</ele>
        <time>2026-08-25T08:27:35Z</time>
      </trkpt>
      <trkpt lat="45.02872" lon="6.12227">
        <ele>1447.9</ele>
        <time>2026-08-25T08:27:36Z</time>
      </trkpt>
      <trkpt lat="45.0287" lon="6.12236">
        <ele>1447.3</ele>
        <time>2026-08-25T08:27:37Z</time>
      </trkpt>
      <trkpt lat="45.02871" lon="6.12246">
        <ele>1446.8</ele>
        <time>2026-08-25T08:27:38Z</time>
      </trkpt>
      <trkpt lat="45.02875" lon="6.12252">
        <ele>1446.3</ele>
        <time>2026-08-25T08:27:39Z</time>
      </trkpt>
      <trkpt lat="45.02881" lon="6.12254">
        <ele>1445.7</ele>
        <time>2026-08-25T08:27:40Z</time>
      </trkpt>
      <trkpt lat="45.02888" lon="6.12251">
        <ele>1445.1</ele>
        <time>2026-08-25T08:27:41Z</time>
      </trkpt>
      <trkpt lat="45.02894" lon="6.12247">
        <ele>1444.5</ele>
        <time>2026-08-25T08:27:42Z</time>
      </trkpt>
      <trkpt lat="45.029" lon="6.12241">
        <ele>1443.8</ele>
        <time>2026-08-25T08:27:43Z</time>
      </trkpt>
      <trkpt lat="45.02908" lon="6.12236">
        <ele>1443</ele>
        <time>2026-08-25T08:27:44Z</time>
      </trkpt>
      <trkpt lat="45.02917" lon="6.12234">
        <ele>1442</ele>
        <time>2026-08-25T08:27:45Z</time>
      </trkpt>
      <trkpt lat="45.02927" lon="6.12235">
        <ele>1441.1</ele>
        <time>2026-08-25T08:27:46Z</time>
      </trkpt>
      <trkpt lat="45.02938" lon="6.12236">
        <ele>1440</ele>
        <time>2026-08-25T08:27:47Z</time>
      </trkpt>
      <trkpt lat="45.02949" lon="6.12235">
        <ele>1439</ele>
        <time>2026-08-25T08:27:48Z</time>
      </trkpt>
      <trkpt lat="45.0296" lon="6.12233">
        <ele>1438</ele>
        <time>2026-08-25T08:27:49Z</time>
      </trkpt>
      <trkpt lat="45.02971" lon="6.12231">
        <ele>1437</ele>
        <time>2026-08-25T08:27:50Z</time>
      </trkpt>
      <trkpt lat="45.02983" lon="6.12229">
        <ele>1436</ele>
        <time>2026-08-25T08:27:51Z</time>
      </trkpt>
      <trkpt lat="45.02995" lon="6.12227">
        <ele>1434.9</ele>
        <time>2026-08-25T08:27:52Z</time>
      </trkpt>
      <trkpt lat="45.03007" lon="6.12224">
        <ele>1433.8</ele>
        <time>2026-08-25T08:27:53Z</time>
      </trkpt>
      <trkpt lat="45.03019" lon="6.1222">
        <ele>1432.7</ele>
        <time>2026-08-25T08:27:54Z</time>
      </trkpt>
      <trkpt lat="45.03032" lon="6.12216">
        <ele>1431.6</ele>
        <time>2026-08-25T08:27:55Z</time>
      </trkpt>
      <trkpt lat="45.03045" lon="6.12211">
        <ele>1430.4</ele>
        <time>2026-08-25T08:27:56Z</time>
      </trkpt>
      <trkpt lat="45.03058" lon="6.12205">
        <ele>1429.2</ele>
        <time>2026-08-25T08:27:57Z</time>
      </trkpt>
      <trkpt lat="45.0307" lon="6.12197">
        <ele>1427.9</ele>
        <time>2026-08-25T08:27:58Z</time>
      </trkpt>
      <trkpt lat="45.03081" lon="6.12186">
        <ele>1426.7</ele>
        <time>2026-08-25T08:27:59Z</time>
      </trkpt>
      <trkpt lat="45.0309" lon="6.12172">
        <ele>1425.4</ele>
        <time>2026-08-25T08:28:00Z</time>
      </trkpt>
      <trkpt lat="45.03097" lon="6.12154">
        <ele>1424.1</ele>
        <time>2026-08-25T08:28:01Z</time>
      </trkpt>
      <trkpt lat="45.03103" lon="6.12135">
        <ele>1422.8</ele>
        <time>2026-08-25T08:28:02Z</time>
      </trkpt>
      <trkpt lat="45.03109" lon="6.12117">
        <ele>1421.5</ele>
        <time>2026-08-25T08:28:03Z</time>
      </trkpt>
      <trkpt lat="45.03116" lon="6.12099">
        <ele>1420</ele>
        <time>2026-08-25T08:28:04Z</time>
      </trkpt>
      <trkpt lat="45.03125" lon="6.12082">
        <ele>1418.5</ele>
        <time>2026-08-25T08:28:05Z</time>
      </trkpt>
      <trkpt lat="45.03134" lon="6.12066">
        <ele>1417</ele>
        <time>2026-08-25T08:28:06Z</time>
      </trkpt>
      <trkpt lat="45.03142" lon="6.12048">
        <ele>1415.6</ele>
        <time>2026-08-25T08:28:07Z</time>
      </trkpt>
      <trkpt lat="45.03152" lon="6.12031">
        <ele>1414.2</ele>
        <time>2026-08-25T08:28:08Z</time>
      </trkpt>
      <trkpt lat="45.03163" lon="6.12015">
        <ele>1412.7</ele>
        <time>2026-08-25T08:28:09Z</time>
      </trkpt>
      <trkpt lat="45.03174" lon="6.11999">
        <ele>1411.2</ele>
        <time>2026-08-25T08:28:10Z</time>
      </trkpt>
      <trkpt lat="45.03185" lon="6.11984">
        <ele>1409.7</ele>
        <time>2026-08-25T08:28:11Z</time>
      </trkpt>
      <trkpt lat="45.03197" lon="6.11968">
        <ele>1408.3</ele>
        <time>2026-08-25T08:28:12Z</time>
      </trkpt>
      <trkpt lat="45.03208" lon="6.11952">
        <ele>1406.9</ele>
        <time>2026-08-25T08:28:13Z</time>
      </trkpt>
      <trkpt lat="45.03218" lon="6.11934">
        <ele>1405.5</ele>
        <time>2026-08-25T08:28:14Z</time>
      </trkpt>
      <trkpt lat="45.03228" lon="6.11917">
        <ele>1404.1</ele>
        <time>2026-08-25T08:28:15Z</time>
      </trkpt>
      <trkpt lat="45.03238" lon="6.119">
        <ele>1402.7</ele>
        <time>2026-08-25T08:28:16Z</time>
      </trkpt>
      <trkpt lat="45.03247" lon="6.11884">
        <ele>1401.4</ele>
        <time>2026-08-25T08:28:17Z</time>
      </trkpt>
      <trkpt lat="45.03257" lon="6.11868">
        <ele>1400.1</ele>
        <time>2026-08-25T08:28:18Z</time>
      </trkpt>
      <trkpt lat="45.03266" lon="6.11852">
        <ele>1398.9</ele>
        <time>2026-08-25T08:28:19Z</time>
      </trkpt>
      <trkpt lat="45.03273" lon="6.11835">
        <ele>1397.6</ele>
        <time>2026-08-25T08:28:20Z</time>
      </trkpt>
      <trkpt lat="45.03279" lon="6.11816">
        <ele>1396.4</ele>
        <time>2026-08-25T08:28:21Z</time>
      </trkpt>
      <trkpt lat="45.03284" lon="6.11797">
        <ele>1395.1</ele>
        <time>2026-08-25T08:28:22Z</time>
      </trkpt>
      <trkpt lat="45.03288" lon="6.11778">
        <ele>1393.8</ele>
        <time>2026-08-25T08:28:23Z</time>
      </trkpt>
      <trkpt lat="45.0329" lon="6.11758">
        <ele>1392.5</ele>
        <time>2026-08-25T08:28:24Z</time>
      </trkpt>
      <trkpt lat="45.03291" lon="6.11736">
        <ele>1391.1</ele>
        <time>2026-08-25T08:28:25Z</time>
      </trkpt>
      <trkpt lat="45.03291" lon="6.11715">
        <ele>1389.7</ele>
        <time>2026-08-25T08:28:26Z</time>
      </trkpt>
      <trkpt lat="45.03289" lon="6.11694">
        <ele>1388.4</ele>
        <time>2026-08-25T08:28:27Z</time>
      </trkpt>
      <trkpt lat="45.03287" lon="6.11673">
        <ele>1386.9</ele>
        <time>2026-08-25T08:28:28Z</time>
      </trkpt>
      <trkpt lat="45.03284" lon="6.11652">
        <ele>1385.5</ele>
        <time>2026-08-25T08:28:29Z</time>
      </trkpt>
      <trkpt lat="45.03281" lon="6.11631">
        <ele>1384.2</ele>
        <time>2026-08-25T08:28:30Z</time>
      </trkpt>
      <trkpt lat="45.03278" lon="6.11611">
        <ele>1383</ele>
        <time>2026-08-25T08:28:31Z</time>
      </trkpt>
      <trkpt lat="45.03277" lon="6.11592">
        <ele>1381.8</ele>
        <time>2026-08-25T08:28:32Z</time>
      </trkpt>
      <trkpt lat="45.03278" lon="6.11572">
        <ele>1380.4</ele>
        <time>2026-08-25T08:28:33Z</time>
      </trkpt>
      <trkpt lat="45.03281" lon="6.11551">
        <ele>1378.8</ele>
        <time>2026-08-25T08:28:34Z</time>
      </trkpt>
      <trkpt lat="45.03286" lon="6.11532">
        <ele>1377.4</ele>
        <time>2026-08-25T08:28:35Z</time>
      </trkpt>
      <trkpt lat="45.03292" lon="6.11513">
        <ele>1375.9</ele>
        <time>2026-08-25T08:28:36Z</time>
      </trkpt>
      <trkpt lat="45.03299" lon="6.11495">
        <ele>1374.5</ele>
        <time>2026-08-25T08:28:37Z</time>
      </trkpt>
      <trkpt lat="45.03307" lon="6.11476">
        <ele>1373</ele>
        <time>2026-08-25T08:28:38Z</time>
      </trkpt>
      <trkpt lat="45.03314" lon="6.11457">
        <ele>1371.6</ele>
        <time>2026-08-25T08:28:39Z</time>
      </trkpt>
      <trkpt lat="45.03321" lon="6.11437">
        <ele>1370.3</ele>
        <time>2026-08-25T08:28:40Z</time>
      </trkpt>
      <trkpt lat="45.03326" lon="6.11417">
        <ele>1369</ele>
        <time>2026-08-25T08:28:41Z</time>
      </trkpt>
      <trkpt lat="45.03331" lon="6.11396">
        <ele>1367.8</ele>
        <time>2026-08-25T08:28:42Z</time>
      </trkpt>
      <trkpt lat="45.03335" lon="6.11375">
        <ele>1366.5</ele>
        <time>2026-08-25T08:28:43Z</time>
      </trkpt>
      <trkpt lat="45.03339" lon="6.11354">
        <ele>1365.1</ele>
        <time>2026-08-25T08:28:44Z</time>
      </trkpt>
      <trkpt lat="45.03342" lon="6.11334">
        <ele>1363.8</ele>
        <time>2026-08-25T08:28:45Z</time>
      </trkpt>
      <trkpt lat="45.03346" lon="6.11314">
        <ele>1362.7</ele>
        <time>2026-08-25T08:28:46Z</time>
      </trkpt>
      <trkpt lat="45.03348" lon="6.11296">
        <ele>1361.6</ele>
        <time>2026-08-25T08:28:47Z</time>
      </trkpt>
      <trkpt lat="45.0335" lon="6.1128">
        <ele>1360.7</ele>
        <time>2026-08-25T08:28:48Z</time>
      </trkpt>
      <trkpt lat="45.03351" lon="6.11266">
        <ele>1360</ele>
        <time>2026-08-25T08:28:49Z</time>
      </trkpt>
      <trkpt lat="45.03349" lon="6.11254">
        <ele>1359.4</ele>
        <time>2026-08-25T08:28:50Z</time>
      </trkpt>
      <trkpt lat="45.03347" lon="6.11244">
        <ele>1359</ele>
        <time>2026-08-25T08:28:51Z</time>
      </trkpt>
      <trkpt lat="45.03345" lon="6.11235">
        <ele>1358.6</ele>
        <time>2026-08-25T08:28:52Z</time>
      </trkpt>
      <trkpt lat="45.03347" lon="6.11226">
        <ele>1358.3</ele>
        <time>2026-08-25T08:28:53Z</time>
      </trkpt>
      <trkpt lat="45.03352" lon="6.11221">
        <ele>1357.9</ele>
        <time>2026-08-25T08:28:54Z</time>
      </trkpt>
      <trkpt lat="45.03358" lon="6.11222">
        <ele>1357.5</ele>
        <time>2026-08-25T08:28:55Z</time>
      </trkpt>
      <trkpt lat="45.03362" lon="6.11227">
        <ele>1357.1</ele>
        <time>2026-08-25T08:28:56Z</time>
      </trkpt>
      <trkpt lat="45.03363" lon="6.11234">
        <ele>1356.7</ele>
        <time>2026-08-25T08:28:57Z</time>
      </trkpt>
      <trkpt lat="45.03364" lon="6.11243">
        <ele>1356.1</ele>
        <time>2026-08-25T08:28:58Z</time>
      </trkpt>
      <trkpt lat="45.03364" lon="6.11252">
        <ele>1355.6</ele>
        <time>2026-08-25T08:28:59Z</time>
      </trkpt>
      <trkpt lat="45.03364" lon="6.11262">
        <ele>1355</ele>
        <time>2026-08-25T08:29:00Z</time>
      </trkpt>
      <trkpt lat="45.03364" lon="6.11272">
        <ele>1354.3</ele>
        <time>2026-08-25T08:29:01Z</time>
      </trkpt>
      <trkpt lat="45.03365" lon="6.11283">
        <ele>1353.6</ele>
        <time>2026-08-25T08:29:02Z</time>
      </trkpt>
      <trkpt lat="45.03365" lon="6.11295">
        <ele>1352.8</ele>
        <time>2026-08-25T08:29:03Z</time>
      </trkpt>
      <trkpt lat="45.03366" lon="6.11308">
        <ele>1352</ele>
        <time>2026-08-25T08:29:04Z</time>
      </trkpt>
      <trkpt lat="45.03366" lon="6.11323">
        <ele>1350.9</ele>
        <time>2026-08-25T08:29:05Z</time>
      </trkpt>
      <trkpt lat="45.03367" lon="6.11339">
        <ele>1349.8</ele>
        <time>2026-08-25T08:29:06Z</time>
      </trkpt>
      <trkpt lat="45.03368" lon="6.11355">
        <ele>1348.7</ele>
        <time>2026-08-25T08:29:07Z</time>
      </trkpt>
      <trkpt lat="45.0337" lon="6.11372">
        <ele>1347.5</ele>
        <time>2026-08-25T08:29:08Z</time>
      </trkpt>
      <trkpt lat="45.03372" lon="6.1139">
        <ele>1346.3</ele>
        <time>2026-08-25T08:29:09Z</time>
      </trkpt>
      <trkpt lat="45.03374" lon="6.11408">
        <ele>1345</ele>
        <time>2026-08-25T08:29:10Z</time>
      </trkpt>
      <trkpt lat="45.03375" lon="6.11427">
        <ele>1343.6</ele>
        <time>2026-08-25T08:29:11Z</time>
      </trkpt>
      <trkpt lat="45.03375" lon="6.11446">
        <ele>1342.1</ele>
        <time>2026-08-25T08:29:12Z</time>
      </trkpt>
      <trkpt lat="45.03375" lon="6.11466">
        <ele>1340.6</ele>
        <time>2026-08-25T08:29:13Z</time>
      </trkpt>
      <trkpt lat="45.03375" lon="6.11486">
        <ele>1339.2</ele>
        <time>2026-08-25T08:29:14Z</time>
      </trkpt>
      <trkpt lat="45.03375" lon="6.11507">
        <ele>1337.7</ele>
        <time>2026-08-25T08:29:15Z</time>
      </trkpt>
      <trkpt lat="45.03373" lon="6.11528">
        <ele>1336.4</ele>
        <time>2026-08-25T08:29:16Z</time>
      </trkpt>
      <trkpt lat="45.03372" lon="6.11549">
        <ele>1335.2</ele>
        <time>2026-08-25T08:29:17Z</time>
      </trkpt>
      <trkpt lat="45.03369" lon="6.11569">
        <ele>1334.1</ele>
        <time>2026-08-25T08:29:18Z</time>
      </trkpt>
      <trkpt lat="45.03367" lon="6.11589">
        <ele>1332.9</ele>
        <time>2026-08-25T08:29:19Z</time>
      </trkpt>
      <trkpt lat="45.03364" lon="6.11609">
        <ele>1331.6</ele>
        <time>2026-08-25T08:29:20Z</time>
      </trkpt>
      <trkpt lat="45.03362" lon="6.11628">
        <ele>1330.3</ele>
        <time>2026-08-25T08:29:21Z</time>
      </trkpt>
      <trkpt lat="45.03362" lon="6.11647">
        <ele>1329</ele>
        <time>2026-08-25T08:29:22Z</time>
      </trkpt>
      <trkpt lat="45.03363" lon="6.11668">
        <ele>1327.6</ele>
        <time>2026-08-25T08:29:23Z</time>
      </trkpt>
      <trkpt lat="45.03366" lon="6.11687">
        <ele>1326.4</ele>
        <time>2026-08-25T08:29:24Z</time>
      </trkpt>
      <trkpt lat="45.03369" lon="6.11706">
        <ele>1325</ele>
        <time>2026-08-25T08:29:25Z</time>
      </trkpt>
      <trkpt lat="45.03372" lon="6.11726">
        <ele>1323.6</ele>
        <time>2026-08-25T08:29:26Z</time>
      </trkpt>
      <trkpt lat="45.03375" lon="6.11746">
        <ele>1322.1</ele>
        <time>2026-08-25T08:29:27Z</time>
      </trkpt>
      <trkpt lat="45.03376" lon="6.11766">
        <ele>1320.7</ele>
        <time>2026-08-25T08:29:28Z</time>
      </trkpt>
      <trkpt lat="45.03378" lon="6.11788">
        <ele>1319.3</ele>
        <time>2026-08-25T08:29:29Z</time>
      </trkpt>
      <trkpt lat="45.03378" lon="6.11809">
        <ele>1317.9</ele>
        <time>2026-08-25T08:29:30Z</time>
      </trkpt>
      <trkpt lat="45.03377" lon="6.11831">
        <ele>1316.5</ele>
        <time>2026-08-25T08:29:31Z</time>
      </trkpt>
      <trkpt lat="45.03376" lon="6.11853">
        <ele>1315.1</ele>
        <time>2026-08-25T08:29:32Z</time>
      </trkpt>
      <trkpt lat="45.03373" lon="6.11874">
        <ele>1313.7</ele>
        <time>2026-08-25T08:29:33Z</time>
      </trkpt>
      <trkpt lat="45.03372" lon="6.11895">
        <ele>1312.3</ele>
        <time>2026-08-25T08:29:34Z</time>
      </trkpt>
      <trkpt lat="45.03371" lon="6.11916">
        <ele>1310.9</ele>
        <time>2026-08-25T08:29:35Z</time>
      </trkpt>
      <trkpt lat="45.03371" lon="6.11938">
        <ele>1309.5</ele>
        <time>2026-08-25T08:29:36Z</time>
      </trkpt>
      <trkpt lat="45.03371" lon="6.1196">
        <ele>1308.1</ele>
        <time>2026-08-25T08:29:37Z</time>
      </trkpt>
      <trkpt lat="45.0337" lon="6.11982">
        <ele>1306.7</ele>
        <time>2026-08-25T08:29:38Z</time>
      </trkpt>
      <trkpt lat="45.03367" lon="6.12005">
        <ele>1305.2</ele>
        <time>2026-08-25T08:29:39Z</time>
      </trkpt>
      <trkpt lat="45.03363" lon="6.12027">
        <ele>1303.7</ele>
        <time>2026-08-25T08:29:40Z</time>
      </trkpt>
      <trkpt lat="45.0336" lon="6.12048">
        <ele>1302.1</ele>
        <time>2026-08-25T08:29:41Z</time>
      </trkpt>
      <trkpt lat="45.03358" lon="6.12071">
        <ele>1300.5</ele>
        <time>2026-08-25T08:29:42Z</time>
      </trkpt>
      <trkpt lat="45.03357" lon="6.12094">
        <ele>1298.9</ele>
        <time>2026-08-25T08:29:43Z</time>
      </trkpt>
      <trkpt lat="45.03356" lon="6.12117">
        <ele>1297.3</ele>
        <time>2026-08-25T08:29:44Z</time>
      </trkpt>
      <trkpt lat="45.03354" lon="6.12141">
        <ele>1295.7</ele>
        <time>2026-08-25T08:29:45Z</time>
      </trkpt>
      <trkpt lat="45.03352" lon="6.12164">
        <ele>1294.1</ele>
        <time>2026-08-25T08:29:46Z</time>
      </trkpt>
      <trkpt lat="45.0335" lon="6.12188">
        <ele>1292.5</ele>
        <time>2026-08-25T08:29:47Z</time>
      </trkpt>
      <trkpt lat="45.03348" lon="6.12211">
        <ele>1291.4</ele>
        <time>2026-08-25T08:29:48Z</time>
      </trkpt>
      <trkpt lat="45.03346" lon="6.12234">
        <ele>1290.3</ele>
        <time>2026-08-25T08:29:49Z</time>
      </trkpt>
      <trkpt lat="45.03344" lon="6.12257">
        <ele>1289.4</ele>
        <time>2026-08-25T08:29:50Z</time>
      </trkpt>
      <trkpt lat="45.03341" lon="6.12279">
        <ele>1288.6</ele>
        <time>2026-08-25T08:29:51Z</time>
      </trkpt>
      <trkpt lat="45.03336" lon="6.123">
        <ele>1287.8</ele>
        <time>2026-08-25T08:29:52Z</time>
      </trkpt>
      <trkpt lat="45.03332" lon="6.1232">
        <ele>1287.1</ele>
        <time>2026-08-25T08:29:53Z</time>
      </trkpt>
      <trkpt lat="45.03328" lon="6.1234">
        <ele>1286.4</ele>
        <time>2026-08-25T08:29:54Z</time>
      </trkpt>
      <trkpt lat="45.03322" lon="6.12358">
        <ele>1285.7</ele>
        <time>2026-08-25T08:29:55Z</time>
      </trkpt>
      <trkpt lat="45.03315" lon="6.12374">
        <ele>1284.9</ele>
        <time>2026-08-25T08:29:56Z</time>
      </trkpt>
      <trkpt lat="45.03306" lon="6.12389">
        <ele>1284.2</ele>
        <time>2026-08-25T08:29:57Z</time>
      </trkpt>
      <trkpt lat="45.03295" lon="6.124">
        <ele>1283.4</ele>
        <time>2026-08-25T08:29:58Z</time>
      </trkpt>
      <trkpt lat="45.03282" lon="6.12407">
        <ele>1282.5</ele>
        <time>2026-08-25T08:29:59Z</time>
      </trkpt>
      <trkpt lat="45.03269" lon="6.12411">
        <ele>1281.7</ele>
        <time>2026-08-25T08:30:00Z</time>
      </trkpt>
      <trkpt lat="45.03257" lon="6.12416">
        <ele>1280.9</ele>
        <time>2026-08-25T08:30:01Z</time>
      </trkpt>
      <trkpt lat="45.03244" lon="6.1242">
        <ele>1280.1</ele>
        <time>2026-08-25T08:30:02Z</time>
      </trkpt>
      <trkpt lat="45.0323" lon="6.12424">
        <ele>1279.3</ele>
        <time>2026-08-25T08:30:03Z</time>
      </trkpt>
      <trkpt lat="45.03217" lon="6.12428">
        <ele>1278.5</ele>
        <time>2026-08-25T08:30:04Z</time>
      </trkpt>
      <trkpt lat="45.03205" lon="6.12436">
        <ele>1277.8</ele>
        <time>2026-08-25T08:30:05Z</time>
      </trkpt>
      <trkpt lat="45.03195" lon="6.12448">
        <ele>1277.2</ele>
        <time>2026-08-25T08:30:06Z</time>
      </trkpt>
      <trkpt lat="45.03189" lon="6.12462">
        <ele>1276.7</ele>
        <time>2026-08-25T08:30:07Z</time>
      </trkpt>
      <trkpt lat="45.03187" lon="6.12479">
        <ele>1276.3</ele>
        <time>2026-08-25T08:30:08Z</time>
      </trkpt>
      <trkpt lat="45.03189" lon="6.12496">
        <ele>1276.1</ele>
        <time>2026-08-25T08:30:09Z</time>
      </trkpt>
      <trkpt lat="45.03193" lon="6.12511">
        <ele>1276</ele>
        <time>2026-08-25T08:30:10Z</time>
      </trkpt>
      <trkpt lat="45.03197" lon="6.12526">
        <ele>1276.1</ele>
        <time>2026-08-25T08:30:11Z</time>
      </trkpt>
      <trkpt lat="45.03202" lon="6.1254">
        <ele>1276.4</ele>
        <time>2026-08-25T08:30:12Z</time>
      </trkpt>
      <trkpt lat="45.03206" lon="6.12553">
        <ele>1276.9</ele>
        <time>2026-08-25T08:30:13Z</time>
      </trkpt>
      <trkpt lat="45.03211" lon="6.12565">
        <ele>1277.6</ele>
        <time>2026-08-25T08:30:14Z</time>
      </trkpt>
      <trkpt lat="45.03215" lon="6.12576">
        <ele>1278.3</ele>
        <time>2026-08-25T08:30:15Z</time>
      </trkpt>
      <trkpt lat="45.0322" lon="6.12587">
        <ele>1279.1</ele>
        <time>2026-08-25T08:30:16Z</time>
      </trkpt>
      <trkpt lat="45.03224" lon="6.12598">
        <ele>1279.9</ele>
        <time>2026-08-25T08:30:17Z</time>
      </trkpt>
      <trkpt lat="45.03228" lon="6.12609">
        <ele>1280.8</ele>
        <time>2026-08-25T08:30:18Z</time>
      </trkpt>
      <trkpt lat="45.03231" lon="6.12621">
        <ele>1281.7</ele>
        <time>2026-08-25T08:30:19Z</time>
      </trkpt>
      <trkpt lat="45.03235" lon="6.1263">
        <ele>1282.5</ele>
        <time>2026-08-25T08:30:20Z</time>
      </trkpt>
      <trkpt lat="45.03239" lon="6.12639">
        <ele>1283.2</ele>
        <time>2026-08-25T08:30:21Z</time>
      </trkpt>
      <trkpt lat="45.03243" lon="6.12646">
        <ele>1283.9</ele>
        <time>2026-08-25T08:30:22Z</time>
      </trkpt>
      <trkpt lat="45.03246" lon="6.12654">
        <ele>1284.6</ele>
        <time>2026-08-25T08:30:23Z</time>
      </trkpt>
      <trkpt lat="45.03249" lon="6.1266">
        <ele>1285.1</ele>
        <time>2026-08-25T08:30:24Z</time>
      </trkpt>
      <trkpt lat="45.03252" lon="6.12665">
        <ele>1285.6</ele>
        <time>2026-08-25T08:30:25Z</time>
      </trkpt>
      <trkpt lat="45.03255" lon="6.12671">
        <ele>1286.1</ele>
        <time>2026-08-25T08:30:26Z</time>
      </trkpt>
      <trkpt lat="45.03256" lon="6.12677">
        <ele>1286.5</ele>
        <time>2026-08-25T08:30:27Z</time>
      </trkpt>
      <trkpt lat="45.03258" lon="6.12683">
        <ele>1287</ele>
        <time>2026-08-25T08:30:28Z</time>
      </trkpt>
      <trkpt lat="45.0326" lon="6.12688">
        <ele>1287.4</ele>
        <time>2026-08-25T08:30:29Z</time>
      </trkpt>
      <trkpt lat="45.03263" lon="6.12692">
        <ele>1287.8</ele>
        <time>2026-08-25T08:30:30Z</time>
      </trkpt>
      <trkpt lat="45.03265" lon="6.12697">
        <ele>1288.2</ele>
        <time>2026-08-25T08:30:31Z</time>
      </trkpt>
      <trkpt lat="45.03267" lon="6.12702">
        <ele>1288.6</ele>
        <time>2026-08-25T08:30:32Z</time>
      </trkpt>
      <trkpt lat="45.03269" lon="6.12706">
        <ele>1288.9</ele>
        <time>2026-08-25T08:30:33Z</time>
      </trkpt>
      <trkpt lat="45.0327" lon="6.12711">
        <ele>1289.2</ele>
        <time>2026-08-25T08:30:34Z</time>
      </trkpt>
      <trkpt lat="45.03272" lon="6.12715">
        <ele>1289.6</ele>
        <time>2026-08-25T08:30:35Z</time>
      </trkpt>
      <trkpt lat="45.03274" lon="6.12719">
        <ele>1289.9</ele>
        <time>2026-08-25T08:30:36Z</time>
      </trkpt>
      <trkpt lat="45.03275" lon="6.12724">
        <ele>1290.2</ele>
        <time>2026-08-25T08:30:37Z</time>
      </trkpt>
      <trkpt lat="45.03277" lon="6.12727">
        <ele>1290.5</ele>
        <time>2026-08-25T08:30:38Z</time>
      </trkpt>
      <trkpt lat="45.03279" lon="6.1273">
        <ele>1290.7</ele>
        <time>2026-08-25T08:30:39Z</time>
      </trkpt>
      <trkpt lat="45.03281" lon="6.12734">
        <ele>1291</ele>
        <time>2026-08-25T08:30:40Z</time>
      </trkpt>
      <trkpt lat="45.03283" lon="6.12737">
        <ele>1291.3</ele>
        <time>2026-08-25T08:30:41Z</time>
      </trkpt>
      <trkpt lat="45.03284" lon="6.12741">
        <ele>1291.5</ele>
        <time>2026-08-25T08:30:42Z</time>
      </trkpt>
      <trkpt lat="45.03287" lon="6.12746">
        <ele>1291.8</ele>
        <time>2026-08-25T08:30:43Z</time>
      </trkpt>
      <trkpt lat="45.03288" lon="6.12749">
        <ele>1292</ele>
        <time>2026-08-25T08:30:44Z</time>
      </trkpt>
      <trkpt lat="45.0329" lon="6.12753">
        <ele>1292.3</ele>
        <time>2026-08-25T08:30:45Z</time>
      </trkpt>
      <trkpt lat="45.03293" lon="6.12757">
        <ele>1292.5</ele>
        <time>2026-08-25T08:30:46Z</time>
      </trkpt>
      <trkpt lat="45.03295" lon="6.12761">
        <ele>1292.7</ele>
        <time>2026-08-25T08:30:47Z</time>
      </trkpt>
      <trkpt lat="45.03297" lon="6.12766">
        <ele>1293</ele>
        <time>2026-08-25T08:30:48Z</time>
      </trkpt>
      <trkpt lat="45.033" lon="6.12769">
        <ele>1293.2</ele>
        <time>2026-08-25T08:30:49Z</time>
      </trkpt>
      <trkpt lat="45.03303" lon="6.12774">
        <ele>1293.5</ele>
        <time>2026-08-25T08:30:50Z</time>
      </trkpt>
      <trkpt lat="45.03305" lon="6.12778">
        <ele>1293.7</ele>
        <time>2026-08-25T08:30:51Z</time>
      </trkpt>
      <trkpt lat="45.03307" lon="6.12782">
        <ele>1293.8</ele>
        <time>2026-08-25T08:30:52Z</time>
      </trkpt>
      <trkpt lat="45.03309" lon="6.12785">
        <ele>1294</ele>
        <time>2026-08-25T08:30:53Z</time>
      </trkpt>
      <trkpt lat="45.03312" lon="6.12789">
        <ele>1294.1</ele>
        <time>2026-08-25T08:30:54Z</time>
      </trkpt>
      <trkpt lat="45.03314" lon="6.12792">
        <ele>1294.3</ele>
        <time>2026-08-25T08:30:55Z</time>
      </trkpt>
      <trkpt lat="45.03316" lon="6.12795">
        <ele>1294.4</ele>
        <time>2026-08-25T08:30:56Z</time>
      </trkpt>
      <trkpt lat="45.03318" lon="6.12798">
        <ele>1294.5</ele>
        <time>2026-08-25T08:30:57Z</time>
      </trkpt>
      <trkpt lat="45.0332" lon="6.12801">
        <ele>1294.6</ele>
        <time>2026-08-25T08:30:58Z</time>
      </trkpt>
      <trkpt lat="45.03321" lon="6.12803">
        <ele>1294.7</ele>
        <time>2026-08-25T08:30:59Z</time>
      </trkpt>
      <trkpt lat="45.03324" lon="6.12805">
        <ele>1294.8</ele>
        <time>2026-08-25T08:31:00Z</time>
      </trkpt>
      <trkpt lat="45.03327" lon="6.12809">
        <ele>1294.9</ele>
        <time>2026-08-25T08:31:01Z</time>
      </trkpt>
      <trkpt lat="45.03329" lon="6.12812">
        <ele>1294.9</ele>
        <time>2026-08-25T08:31:02Z</time>
      </trkpt>
      <trkpt lat="45.03332" lon="6.12816">
        <ele>1295</ele>
        <time>2026-08-25T08:31:03Z</time>
      </trkpt>
      <trkpt lat="45.03334" lon="6.1282">
        <ele>1295</ele>
        <time>2026-08-25T08:31:04Z</time>
      </trkpt>
      <trkpt lat="45.03337" lon="6.12824">
        <ele>1295</ele>
        <time>2026-08-25T08:31:05Z</time>
      </trkpt>
      <trkpt lat="45.0334" lon="6.12828">
        <ele>1294.9</ele>
        <time>2026-08-25T08:31:06Z</time>
      </trkpt>
      <trkpt lat="45.03343" lon="6.12833">
        <ele>1294.9</ele>
        <time>2026-08-25T08:31:07Z</time>
      </trkpt>
      <trkpt lat="45.03346" lon="6.12837">
        <ele>1294.8</ele>
        <time>2026-08-25T08:31:08Z</time>
      </trkpt>
      <trkpt lat="45.03349" lon="6.12842">
        <ele>1294.8</ele>
        <time>2026-08-25T08:31:09Z</time>
      </trkpt>
      <trkpt lat="45.03353" lon="6.12846">
        <ele>1294.7</ele>
        <time>2026-08-25T08:31:10Z</time>
      </trkpt>
      <trkpt lat="45.03356" lon="6.1285">
        <ele>1294.6</ele>
        <time>2026-08-25T08:31:11Z</time>
      </trkpt>
      <trkpt lat="45.0336" lon="6.12854">
        <ele>1294.5</ele>
        <time>2026-08-25T08:31:12Z</time>
      </trkpt>
      <trkpt lat="45.03363" lon="6.12858">
        <ele>1294.4</ele>
        <time>2026-08-25T08:31:13Z</time>
      </trkpt>
      <trkpt lat="45.03367" lon="6.12862">
        <ele>1294.3</ele>
        <time>2026-08-25T08:31:14Z</time>
      </trkpt>
      <trkpt lat="45.03371" lon="6.12867">
        <ele>1294.1</ele>
        <time>2026-08-25T08:31:15Z</time>
      </trkpt>
      <trkpt lat="45.03376" lon="6.12871">
        <ele>1293.9</ele>
        <time>2026-08-25T08:31:16Z</time>
      </trkpt>
      <trkpt lat="45.03381" lon="6.12875">
        <ele>1293.6</ele>
        <time>2026-08-25T08:31:17Z</time>
      </trkpt>
      <trkpt lat="45.03386" lon="6.12879">
        <ele>1293.3</ele>
        <time>2026-08-25T08:31:18Z</time>
      </trkpt>
      <trkpt lat="45.03392" lon="6.12883">
        <ele>1293</ele>
        <time>2026-08-25T08:31:19Z</time>
      </trkpt>
      <trkpt lat="45.03398" lon="6.12888">
        <ele>1292.6</ele>
        <time>2026-08-25T08:31:20Z</time>
      </trkpt>
      <trkpt lat="45.03404" lon="6.12893">
        <ele>1292.2</ele>
        <time>2026-08-25T08:31:21Z</time>
      </trkpt>
      <trkpt lat="45.0341" lon="6.12898">
        <ele>1291.7</ele>
        <time>2026-08-25T08:31:22Z</time>
      </trkpt>
      <trkpt lat="45.03417" lon="6.12903">
        <ele>1291.1</ele>
        <time>2026-08-25T08:31:23Z</time>
      </trkpt>
      <trkpt lat="45.03424" lon="6.12909">
        <ele>1290.5</ele>
        <time>2026-08-25T08:31:24Z</time>
      </trkpt>
      <trkpt lat="45.03431" lon="6.12915">
        <ele>1289.9</ele>
        <time>2026-08-25T08:31:25Z</time>
      </trkpt>
      <trkpt lat="45.03439" lon="6.12921">
        <ele>1289.1</ele>
        <time>2026-08-25T08:31:26Z</time>
      </trkpt>
      <trkpt lat="45.03446" lon="6.12928">
        <ele>1288.3</ele>
        <time>2026-08-25T08:31:27Z</time>
      </trkpt>
      <trkpt lat="45.03454" lon="6.12937">
        <ele>1287.5</ele>
        <time>2026-08-25T08:31:28Z</time>
      </trkpt>
      <trkpt lat="45.03462" lon="6.12946">
        <ele>1286.6</ele>
        <time>2026-08-25T08:31:29Z</time>
      </trkpt>
      <trkpt lat="45.03469" lon="6.12956">
        <ele>1285.7</ele>
        <time>2026-08-25T08:31:30Z</time>
      </trkpt>
      <trkpt lat="45.03475" lon="6.12966">
        <ele>1284.8</ele>
        <time>2026-08-25T08:31:31Z</time>
      </trkpt>
      <trkpt lat="45.03481" lon="6.12979">
        <ele>1283.8</ele>
        <time>2026-08-25T08:31:32Z</time>
      </trkpt>
      <trkpt lat="45.03487" lon="6.12993">
        <ele>1282.8</ele>
        <time>2026-08-25T08:31:33Z</time>
      </trkpt>
      <trkpt lat="45.03493" lon="6.13008">
        <ele>1281.7</ele>
        <time>2026-08-25T08:31:34Z</time>
      </trkpt>
      <trkpt lat="45.03499" lon="6.13022">
        <ele>1280.6</ele>
        <time>2026-08-25T08:31:35Z</time>
      </trkpt>
      <trkpt lat="45.03505" lon="6.13037">
        <ele>1279.6</ele>
        <time>2026-08-25T08:31:36Z</time>
      </trkpt>
      <trkpt lat="45.03511" lon="6.13052">
        <ele>1278.5</ele>
        <time>2026-08-25T08:31:37Z</time>
      </trkpt>
      <trkpt lat="45.03517" lon="6.13067">
        <ele>1277.3</ele>
        <time>2026-08-25T08:31:38Z</time>
      </trkpt>
      <trkpt lat="45.03525" lon="6.13081">
        <ele>1276.2</ele>
        <time>2026-08-25T08:31:39Z</time>
      </trkpt>
      <trkpt lat="45.03534" lon="6.13094">
        <ele>1275.1</ele>
        <time>2026-08-25T08:31:40Z</time>
      </trkpt>
      <trkpt lat="45.03542" lon="6.13107">
        <ele>1274</ele>
        <time>2026-08-25T08:31:41Z</time>
      </trkpt>
      <trkpt lat="45.03551" lon="6.1312">
        <ele>1272.9</ele>
        <time>2026-08-25T08:31:42Z</time>
      </trkpt>
      <trkpt lat="45.0356" lon="6.13133">
        <ele>1271.9</ele>
        <time>2026-08-25T08:31:43Z</time>
      </trkpt>
      <trkpt lat="45.03569" lon="6.13147">
        <ele>1270.8</ele>
        <time>2026-08-25T08:31:44Z</time>
      </trkpt>
      <trkpt lat="45.03579" lon="6.13161">
        <ele>1269.8</ele>
        <time>2026-08-25T08:31:45Z</time>
      </trkpt>
      <trkpt lat="45.03587" lon="6.13175">
        <ele>1268.7</ele>
        <time>2026-08-25T08:31:46Z</time>
      </trkpt>
      <trkpt lat="45.03594" lon="6.13191">
        <ele>1267.7</ele>
        <time>2026-08-25T08:31:47Z</time>
      </trkpt>
      <trkpt lat="45.03598" lon="6.13207">
        <ele>1266.8</ele>
        <time>2026-08-25T08:31:48Z</time>
      </trkpt>
      <trkpt lat="45.03601" lon="6.13223">
        <ele>1265.9</ele>
        <time>2026-08-25T08:31:49Z</time>
      </trkpt>
      <trkpt lat="45.03604" lon="6.13239">
        <ele>1265</ele>
        <time>2026-08-25T08:31:50Z</time>
      </trkpt>
      <trkpt lat="45.03608" lon="6.13253">
        <ele>1264.1</ele>
        <time>2026-08-25T08:31:51Z</time>
      </trkpt>
      <trkpt lat="45.03615" lon="6.13265">
        <ele>1263.2</ele>
        <time>2026-08-25T08:31:52Z</time>
      </trkpt>
      <trkpt lat="45.03624" lon="6.13273">
        <ele>1262.3</ele>
        <time>2026-08-25T08:31:53Z</time>
      </trkpt>
      <trkpt lat="45.03634" lon="6.13278">
        <ele>1262.2</ele>
        <time>2026-08-25T08:31:54Z</time>
      </trkpt>
      <trkpt lat="45.03645" lon="6.13278">
        <ele>1261.5</ele>
        <time>2026-08-25T08:31:55Z</time>
      </trkpt>
      <trkpt lat="45.03655" lon="6.13272">
        <ele>1260.7</ele>
        <time>2026-08-25T08:31:56Z</time>
      </trkpt>
      <trkpt lat="45.03664" lon="6.13264">
        <ele>1260.6</ele>
        <time>2026-08-25T08:31:57Z</time>
      </trkpt>
      <trkpt lat="45.03672" lon="6.13254">
        <ele>1261.2</ele>
        <time>2026-08-25T08:31:58Z</time>
      </trkpt>
      <trkpt lat="45.0368" lon="6.13245">
        <ele>1261.5</ele>
        <time>2026-08-25T08:31:59Z</time>
      </trkpt>
      <trkpt lat="45.03687" lon="6.13234">
        <ele>1261.4</ele>
        <time>2026-08-25T08:32:00Z</time>
      </trkpt>
      <trkpt lat="45.03696" lon="6.13224">
        <ele>1260.1</ele>
        <time>2026-08-25T08:32:01Z</time>
      </trkpt>
      <trkpt lat="45.03706" lon="6.13218">
        <ele>1258.9</ele>
        <time>2026-08-25T08:32:02Z</time>
      </trkpt>
      <trkpt lat="45.03717" lon="6.13215">
        <ele>1257.9</ele>
        <time>2026-08-25T08:32:03Z</time>
      </trkpt>
      <trkpt lat="45.03728" lon="6.13214">
        <ele>1256.9</ele>
        <time>2026-08-25T08:32:04Z</time>
      </trkpt>
      <trkpt lat="45.0374" lon="6.13212">
        <ele>1255.8</ele>
        <time>2026-08-25T08:32:05Z</time>
      </trkpt>
      <trkpt lat="45.03751" lon="6.1321">
        <ele>1254.7</ele>
        <time>2026-08-25T08:32:06Z</time>
      </trkpt>
      <trkpt lat="45.03764" lon="6.13207">
        <ele>1253.5</ele>
        <time>2026-08-25T08:32:07Z</time>
      </trkpt>
      <trkpt lat="45.03775" lon="6.13205">
        <ele>1252.4</ele>
        <time>2026-08-25T08:32:08Z</time>
      </trkpt>
      <trkpt lat="45.03788" lon="6.13204">
        <ele>1251.2</ele>
        <time>2026-08-25T08:32:09Z</time>
      </trkpt>
      <trkpt lat="45.03801" lon="6.13203">
        <ele>1250</ele>
        <time>2026-08-25T08:32:10Z</time>
      </trkpt>
      <trkpt lat="45.03814" lon="6.13204">
        <ele>1248.7</ele>
        <time>2026-08-25T08:32:11Z</time>
      </trkpt>
      <trkpt lat="45.03826" lon="6.13204">
        <ele>1247.5</ele>
        <time>2026-08-25T08:32:12Z</time>
      </trkpt>
      <trkpt lat="45.03839" lon="6.13205">
        <ele>1246.2</ele>
        <time>2026-08-25T08:32:13Z</time>
      </trkpt>
      <trkpt lat="45.03852" lon="6.13207">
        <ele>1244.9</ele>
        <time>2026-08-25T08:32:14Z</time>
      </trkpt>
      <trkpt lat="45.03866" lon="6.1321">
        <ele>1243.6</ele>
        <time>2026-08-25T08:32:15Z</time>
      </trkpt>
      <trkpt lat="45.03879" lon="6.13213">
        <ele>1242.3</ele>
        <time>2026-08-25T08:32:16Z</time>
      </trkpt>
      <trkpt lat="45.03892" lon="6.13216">
        <ele>1241.3</ele>
        <time>2026-08-25T08:32:17Z</time>
      </trkpt>
      <trkpt lat="45.03905" lon="6.1322">
        <ele>1240.2</ele>
        <time>2026-08-25T08:32:18Z</time>
      </trkpt>
      <trkpt lat="45.03917" lon="6.13224">
        <ele>1239.1</ele>
        <time>2026-08-25T08:32:19Z</time>
      </trkpt>
      <trkpt lat="45.0393" lon="6.13227">
        <ele>1237.9</ele>
        <time>2026-08-25T08:32:20Z</time>
      </trkpt>
      <trkpt lat="45.03944" lon="6.13229">
        <ele>1236.7</ele>
        <time>2026-08-25T08:32:21Z</time>
      </trkpt>
      <trkpt lat="45.03957" lon="6.1323">
        <ele>1235.5</ele>
        <time>2026-08-25T08:32:22Z</time>
      </trkpt>
      <trkpt lat="45.03971" lon="6.13231">
        <ele>1234.3</ele>
        <time>2026-08-25T08:32:23Z</time>
      </trkpt>
      <trkpt lat="45.03984" lon="6.13232">
        <ele>1233.2</ele>
        <time>2026-08-25T08:32:24Z</time>
      </trkpt>
      <trkpt lat="45.03998" lon="6.13232">
        <ele>1232</ele>
        <time>2026-08-25T08:32:25Z</time>
      </trkpt>
      <trkpt lat="45.04012" lon="6.13233">
        <ele>1230.7</ele>
        <time>2026-08-25T08:32:26Z</time>
      </trkpt>
      <trkpt lat="45.04026" lon="6.13233">
        <ele>1229.4</ele>
        <time>2026-08-25T08:32:27Z</time>
      </trkpt>
      <trkpt lat="45.04041" lon="6.13233">
        <ele>1228.1</ele>
        <time>2026-08-25T08:32:28Z</time>
      </trkpt>
      <trkpt lat="45.04055" lon="6.13234">
        <ele>1226.8</ele>
        <time>2026-08-25T08:32:29Z</time>
      </trkpt>
      <trkpt lat="45.04069" lon="6.13236">
        <ele>1225.5</ele>
        <time>2026-08-25T08:32:30Z</time>
      </trkpt>
      <trkpt lat="45.04083" lon="6.1324">
        <ele>1224.2</ele>
        <time>2026-08-25T08:32:31Z</time>
      </trkpt>
      <trkpt lat="45.04097" lon="6.13243">
        <ele>1223</ele>
        <time>2026-08-25T08:32:32Z</time>
      </trkpt>
      <trkpt lat="45.0411" lon="6.13246">
        <ele>1221.8</ele>
        <time>2026-08-25T08:32:33Z</time>
      </trkpt>
      <trkpt lat="45.04122" lon="6.13249">
        <ele>1220.7</ele>
        <time>2026-08-25T08:32:34Z</time>
      </trkpt>
      <trkpt lat="45.04134" lon="6.1325">
        <ele>1219.8</ele>
        <time>2026-08-25T08:32:35Z</time>
      </trkpt>
      <trkpt lat="45.04145" lon="6.13251">
        <ele>1219</ele>
        <time>2026-08-25T08:32:36Z</time>
      </trkpt>
      <trkpt lat="45.04155" lon="6.13251">
        <ele>1218.3</ele>
        <time>2026-08-25T08:32:37Z</time>
      </trkpt>
      <trkpt lat="45.04165" lon="6.1325">
        <ele>1217.6</ele>
        <time>2026-08-25T08:32:38Z</time>
      </trkpt>
      <trkpt lat="45.04174" lon="6.1325">
        <ele>1217.1</ele>
        <time>2026-08-25T08:32:39Z</time>
      </trkpt>
      <trkpt lat="45.04183" lon="6.1325">
        <ele>1216.5</ele>
        <time>2026-08-25T08:32:40Z</time>
      </trkpt>
      <trkpt lat="45.04193" lon="6.1325">
        <ele>1216.1</ele>
        <time>2026-08-25T08:32:41Z</time>
      </trkpt>
      <trkpt lat="45.04202" lon="6.1325">
        <ele>1215.7</ele>
        <time>2026-08-25T08:32:42Z</time>
      </trkpt>
      <trkpt lat="45.04212" lon="6.13249">
        <ele>1215.3</ele>
        <time>2026-08-25T08:32:43Z</time>
      </trkpt>
      <trkpt lat="45.04221" lon="6.13249">
        <ele>1215.1</ele>
        <time>2026-08-25T08:32:44Z</time>
      </trkpt>
      <trkpt lat="45.04231" lon="6.13248">
        <ele>1214.9</ele>
        <time>2026-08-25T08:32:45Z</time>
      </trkpt>
      <trkpt lat="45.04241" lon="6.13245">
        <ele>1214.7</ele>
        <time>2026-08-25T08:32:46Z</time>
      </trkpt>
      <trkpt lat="45.0425" lon="6.13242">
        <ele>1214.5</ele>
        <time>2026-08-25T08:32:47Z</time>
      </trkpt>
      <trkpt lat="45.04259" lon="6.13237">
        <ele>1214.3</ele>
        <time>2026-08-25T08:32:48Z</time>
      </trkpt>
      <trkpt lat="45.04267" lon="6.13234">
        <ele>1214</ele>
        <time>2026-08-25T08:32:49Z</time>
      </trkpt>
      <trkpt lat="45.04274" lon="6.13235">
        <ele>1213.7</ele>
        <time>2026-08-25T08:32:50Z</time>
      </trkpt>
      <trkpt lat="45.04278" lon="6.1324">
        <ele>1213.4</ele>
        <time>2026-08-25T08:32:51Z</time>
      </trkpt>
      <trkpt lat="45.04277" lon="6.13249">
        <ele>1212.9</ele>
        <time>2026-08-25T08:32:52Z</time>
      </trkpt>
      <trkpt lat="45.04272" lon="6.13254">
        <ele>1212.4</ele>
        <time>2026-08-25T08:32:53Z</time>
      </trkpt>
      <trkpt lat="45.04266" lon="6.13256">
        <ele>1211.8</ele>
        <time>2026-08-25T08:32:54Z</time>
      </trkpt>
      <trkpt lat="45.04259" lon="6.13257">
        <ele>1211.1</ele>
        <time>2026-08-25T08:32:55Z</time>
      </trkpt>
      <trkpt lat="45.04251" lon="6.13259">
        <ele>1210.4</ele>
        <time>2026-08-25T08:32:56Z</time>
      </trkpt>
      <trkpt lat="45.04243" lon="6.13262">
        <ele>1209.7</ele>
        <time>2026-08-25T08:32:57Z</time>
      </trkpt>
      <trkpt lat="45.04235" lon="6.13264">
        <ele>1208.9</ele>
        <time>2026-08-25T08:32:58Z</time>
      </trkpt>
      <trkpt lat="45.04227" lon="6.13266">
        <ele>1208.1</ele>
        <time>2026-08-25T08:32:59Z</time>
      </trkpt>
      <trkpt lat="45.04218" lon="6.13269">
        <ele>1207.3</ele>
        <time>2026-08-25T08:33:00Z</time>
      </trkpt>
      <trkpt lat="45.04209" lon="6.13272">
        <ele>1206.5</ele>
        <time>2026-08-25T08:33:01Z</time>
      </trkpt>
      <trkpt lat="45.04202" lon="6.13277">
        <ele>1205.8</ele>
        <time>2026-08-25T08:33:02Z</time>
      </trkpt>
      <trkpt lat="45.04197" lon="6.13282">
        <ele>1205.2</ele>
        <time>2026-08-25T08:33:03Z</time>
      </trkpt>
      <trkpt lat="45.04193" lon="6.13287">
        <ele>1204.8</ele>
        <time>2026-08-25T08:33:04Z</time>
      </trkpt>
      <trkpt lat="45.04191" lon="6.13289">
        <ele>1204.5</ele>
        <time>2026-08-25T08:33:05Z</time>
      </trkpt>
      <trkpt lat="45.0419" lon="6.13289">
        <ele>1204.5</ele>
        <time>2026-08-25T08:33:06Z</time>
      </trkpt>
      <trkpt lat="45.0419" lon="6.13289">
        <ele>1204.5</ele>
        <time>2026-08-25T08:33:07Z</time>
      </trkpt>
      <trkpt lat="45.04189" lon="6.13289">
        <ele>1204.4</ele>
        <time>2026-08-25T08:33:08Z</time>
      </trkpt>
      <trkpt lat="45.0418" lon="6.13289">
        <ele>1203.5</ele>
        <time>2026-08-25T08:33:34Z</time>
      </trkpt>
      <trkpt lat="45.04179" lon="6.13289">
        <ele>1203.5</ele>
        <time>2026-08-25T08:33:35Z</time>
      </trkpt>
      <trkpt lat="45.04175" lon="6.13287">
        <ele>1203.1</ele>
        <time>2026-08-25T08:33:36Z</time>
      </trkpt>
      <trkpt lat="45.04169" lon="6.13287">
        <ele>1202.6</ele>
        <time>2026-08-25T08:33:37Z</time>
      </trkpt>
      <trkpt lat="45.04163" lon="6.13287">
        <ele>1202</ele>
        <time>2026-08-25T08:33:38Z</time>
      </trkpt>
      <trkpt lat="45.04157" lon="6.13287">
        <ele>1201.4</ele>
        <time>2026-08-25T08:33:39Z</time>
      </trkpt>
      <trkpt lat="45.04149" lon="6.13288">
        <ele>1200.7</ele>
        <time>2026-08-25T08:33:40Z</time>
      </trkpt>
      <trkpt lat="45.04141" lon="6.1329">
        <ele>1199.9</ele>
        <time>2026-08-25T08:33:41Z</time>
      </trkpt>
      <trkpt lat="45.04133" lon="6.13294">
        <ele>1199.1</ele>
        <time>2026-08-25T08:33:42Z</time>
      </trkpt>
      <trkpt lat="45.04125" lon="6.13298">
        <ele>1198.3</ele>
        <time>2026-08-25T08:33:43Z</time>
      </trkpt>
      <trkpt lat="45.04116" lon="6.13303">
        <ele>1197.5</ele>
        <time>2026-08-25T08:33:44Z</time>
      </trkpt>
      <trkpt lat="45.04107" lon="6.13307">
        <ele>1196.7</ele>
        <time>2026-08-25T08:33:45Z</time>
      </trkpt>
      <trkpt lat="45.04097" lon="6.13311">
        <ele>1195.7</ele>
        <time>2026-08-25T08:33:46Z</time>
      </trkpt>
      <trkpt lat="45.04087" lon="6.13314">
        <ele>1194.8</ele>
        <time>2026-08-25T08:33:47Z</time>
      </trkpt>
      <trkpt lat="45.04076" lon="6.13316">
        <ele>1193.8</ele>
        <time>2026-08-25T08:33:48Z</time>
      </trkpt>
      <trkpt lat="45.04065" lon="6.13318">
        <ele>1192.7</ele>
        <time>2026-08-25T08:33:49Z</time>
      </trkpt>
      <trkpt lat="45.04054" lon="6.1332">
        <ele>1191.7</ele>
        <time>2026-08-25T08:33:50Z</time>
      </trkpt>
      <trkpt lat="45.04042" lon="6.13323">
        <ele>1190.6</ele>
        <time>2026-08-25T08:33:51Z</time>
      </trkpt>
      <trkpt lat="45.0403" lon="6.13327">
        <ele>1189.6</ele>
        <time>2026-08-25T08:33:52Z</time>
      </trkpt>
      <trkpt lat="45.04018" lon="6.13332">
        <ele>1188.4</ele>
        <time>2026-08-25T08:33:53Z</time>
      </trkpt>
      <trkpt lat="45.04005" lon="6.13338">
        <ele>1187.3</ele>
        <time>2026-08-25T08:33:54Z</time>
      </trkpt>
      <trkpt lat="45.03993" lon="6.13345">
        <ele>1186.2</ele>
        <time>2026-08-25T08:33:55Z</time>
      </trkpt>
      <trkpt lat="45.03981" lon="6.13354">
        <ele>1185.1</ele>
        <time>2026-08-25T08:33:56Z</time>
      </trkpt>
      <trkpt lat="45.03969" lon="6.13362">
        <ele>1184</ele>
        <time>2026-08-25T08:33:57Z</time>
      </trkpt>
      <trkpt lat="45.03955" lon="6.13367">
        <ele>1182.8</ele>
        <time>2026-08-25T08:33:58Z</time>
      </trkpt>
      <trkpt lat="45.03942" lon="6.13368">
        <ele>1181.5</ele>
        <time>2026-08-25T08:33:59Z</time>
      </trkpt>
      <trkpt lat="45.03928" lon="6.13366">
        <ele>1180.3</ele>
        <time>2026-08-25T08:34:00Z</time>
      </trkpt>
      <trkpt lat="45.03914" lon="6.1336">
        <ele>1179.1</ele>
        <time>2026-08-25T08:34:01Z</time>
      </trkpt>
      <trkpt lat="45.03901" lon="6.13353">
        <ele>1177.9</ele>
        <time>2026-08-25T08:34:02Z</time>
      </trkpt>
      <trkpt lat="45.03887" lon="6.13348">
        <ele>1176.6</ele>
        <time>2026-08-25T08:34:03Z</time>
      </trkpt>
      <trkpt lat="45.03872" lon="6.13344">
        <ele>1175.4</ele>
        <time>2026-08-25T08:34:04Z</time>
      </trkpt>
      <trkpt lat="45.03858" lon="6.13343">
        <ele>1174.1</ele>
        <time>2026-08-25T08:34:05Z</time>
      </trkpt>
      <trkpt lat="45.03843" lon="6.13345">
        <ele>1172.8</ele>
        <time>2026-08-25T08:34:06Z</time>
      </trkpt>
      <trkpt lat="45.03829" lon="6.13351">
        <ele>1171.4</ele>
        <time>2026-08-25T08:34:07Z</time>
      </trkpt>
      <trkpt lat="45.03816" lon="6.13362">
        <ele>1170</ele>
        <time>2026-08-25T08:34:08Z</time>
      </trkpt>
      <trkpt lat="45.03804" lon="6.13374">
        <ele>1168.6</ele>
        <time>2026-08-25T08:34:09Z</time>
      </trkpt>
      <trkpt lat="45.03792" lon="6.13388">
        <ele>1167.1</ele>
        <time>2026-08-25T08:34:10Z</time>
      </trkpt>
      <trkpt lat="45.03782" lon="6.13403">
        <ele>1165.7</ele>
        <time>2026-08-25T08:34:11Z</time>
      </trkpt>
      <trkpt lat="45.03774" lon="6.13421">
        <ele>1164.4</ele>
        <time>2026-08-25T08:34:12Z</time>
      </trkpt>
      <trkpt lat="45.03768" lon="6.1344">
        <ele>1163</ele>
        <time>2026-08-25T08:34:13Z</time>
      </trkpt>
      <trkpt lat="45.03763" lon="6.13461">
        <ele>1161.6</ele>
        <time>2026-08-25T08:34:14Z</time>
      </trkpt>
      <trkpt lat="45.03758" lon="6.13481">
        <ele>1160.2</ele>
        <time>2026-08-25T08:34:15Z</time>
      </trkpt>
      <trkpt lat="45.03754" lon="6.13502">
        <ele>1158.9</ele>
        <time>2026-08-25T08:34:16Z</time>
      </trkpt>
      <trkpt lat="45.03748" lon="6.13523">
        <ele>1157.4</ele>
        <time>2026-08-25T08:34:17Z</time>
      </trkpt>
      <trkpt lat="45.03743" lon="6.13545">
        <ele>1156</ele>
        <time>2026-08-25T08:34:18Z</time>
      </trkpt>
      <trkpt lat="45.03738" lon="6.13567">
        <ele>1154.7</ele>
        <time>2026-08-25T08:34:19Z</time>
      </trkpt>
      <trkpt lat="45.03734" lon="6.13588">
        <ele>1153.6</ele>
        <time>2026-08-25T08:34:20Z</time>
      </trkpt>
      <trkpt lat="45.0373" lon="6.13608">
        <ele>1152.5</ele>
        <time>2026-08-25T08:34:21Z</time>
      </trkpt>
      <trkpt lat="45.03724" lon="6.13626">
        <ele>1151.4</ele>
        <time>2026-08-25T08:34:22Z</time>
      </trkpt>
      <trkpt lat="45.03718" lon="6.13641">
        <ele>1150.6</ele>
        <time>2026-08-25T08:34:23Z</time>
      </trkpt>
      <trkpt lat="45.03713" lon="6.13654">
        <ele>1150</ele>
        <time>2026-08-25T08:34:24Z</time>
      </trkpt>
      <trkpt lat="45.0371" lon="6.13666">
        <ele>1149.4</ele>
        <time>2026-08-25T08:34:25Z</time>
      </trkpt>
      <trkpt lat="45.03711" lon="6.13679">
        <ele>1148.8</ele>
        <time>2026-08-25T08:34:26Z</time>
      </trkpt>
      <trkpt lat="45.03715" lon="6.13688">
        <ele>1148.3</ele>
        <time>2026-08-25T08:34:27Z</time>
      </trkpt>
      <trkpt lat="45.03722" lon="6.13692">
        <ele>1147.8</ele>
        <time>2026-08-25T08:34:28Z</time>
      </trkpt>
      <trkpt lat="45.03729" lon="6.1369">
        <ele>1147.3</ele>
        <time>2026-08-25T08:34:29Z</time>
      </trkpt>
      <trkpt lat="45.03734" lon="6.13683">
        <ele>1146.8</ele>
        <time>2026-08-25T08:34:30Z</time>
      </trkpt>
      <trkpt lat="45.03738" lon="6.13673">
        <ele>1146.1</ele>
        <time>2026-08-25T08:34:31Z</time>
      </trkpt>
      <trkpt lat="45.03741" lon="6.13661">
        <ele>1145.4</ele>
        <time>2026-08-25T08:34:32Z</time>
      </trkpt>
      <trkpt lat="45.03744" lon="6.13647">
        <ele>1144.5</ele>
        <time>2026-08-25T08:34:33Z</time>
      </trkpt>
      <trkpt lat="45.03748" lon="6.13632">
        <ele>1143.6</ele>
        <time>2026-08-25T08:34:34Z</time>
      </trkpt>
      <trkpt lat="45.03753" lon="6.13617">
        <ele>1142.5</ele>
        <time>2026-08-25T08:34:35Z</time>
      </trkpt>
      <trkpt lat="45.0376" lon="6.13601">
        <ele>1141.4</ele>
        <time>2026-08-25T08:34:36Z</time>
      </trkpt>
      <trkpt lat="45.03766" lon="6.13585">
        <ele>1140.2</ele>
        <time>2026-08-25T08:34:37Z</time>
      </trkpt>
      <trkpt lat="45.03772" lon="6.13568">
        <ele>1139</ele>
        <time>2026-08-25T08:34:38Z</time>
      </trkpt>
      <trkpt lat="45.0378" lon="6.13553">
        <ele>1137.8</ele>
        <time>2026-08-25T08:34:39Z</time>
      </trkpt>
      <trkpt lat="45.03788" lon="6.13537">
        <ele>1136.7</ele>
        <time>2026-08-25T08:34:40Z</time>
      </trkpt>
      <trkpt lat="45.03797" lon="6.13522">
        <ele>1135.6</ele>
        <time>2026-08-25T08:34:41Z</time>
      </trkpt>
      <trkpt lat="45.03807" lon="6.13508">
        <ele>1134.5</ele>
        <time>2026-08-25T08:34:42Z</time>
      </trkpt>
      <trkpt lat="45.03819" lon="6.13498">
        <ele>1133.4</ele>
        <time>2026-08-25T08:34:43Z</time>
      </trkpt>
      <trkpt lat="45.03833" lon="6.13493">
        <ele>1132.1</ele>
        <time>2026-08-25T08:34:44Z</time>
      </trkpt>
      <trkpt lat="45.03847" lon="6.1349">
        <ele>1130.8</ele>
        <time>2026-08-25T08:34:45Z</time>
      </trkpt>
      <trkpt lat="45.03862" lon="6.13491">
        <ele>1129.5</ele>
        <time>2026-08-25T08:34:46Z</time>
      </trkpt>
      <trkpt lat="45.03876" lon="6.13493">
        <ele>1128.3</ele>
        <time>2026-08-25T08:34:47Z</time>
      </trkpt>
      <trkpt lat="45.0389" lon="6.13497">
        <ele>1127.1</ele>
        <time>2026-08-25T08:34:48Z</time>
      </trkpt>
      <trkpt lat="45.03904" lon="6.13502">
        <ele>1126</ele>
        <time>2026-08-25T08:34:49Z</time>
      </trkpt>
      <trkpt lat="45.03918" lon="6.13507">
        <ele>1124.9</ele>
        <time>2026-08-25T08:34:50Z</time>
      </trkpt>
      <trkpt lat="45.03932" lon="6.13511">
        <ele>1124</ele>
        <time>2026-08-25T08:34:51Z</time>
      </trkpt>
      <trkpt lat="45.03944" lon="6.13513">
        <ele>1123.2</ele>
        <time>2026-08-25T08:34:52Z</time>
      </trkpt>
      <trkpt lat="45.03955" lon="6.13511">
        <ele>1122.6</ele>
        <time>2026-08-25T08:34:53Z</time>
      </trkpt>
      <trkpt lat="45.03964" lon="6.13506">
        <ele>1122.3</ele>
        <time>2026-08-25T08:34:54Z</time>
      </trkpt>
      <trkpt lat="45.03973" lon="6.13503">
        <ele>1122</ele>
        <time>2026-08-25T08:34:55Z</time>
      </trkpt>
      <trkpt lat="45.03979" lon="6.13507">
        <ele>1121.8</ele>
        <time>2026-08-25T08:34:56Z</time>
      </trkpt>
      <trkpt lat="45.03981" lon="6.13517">
        <ele>1121.5</ele>
        <time>2026-08-25T08:34:57Z</time>
      </trkpt>
      <trkpt lat="45.03978" lon="6.13527">
        <ele>1121.1</ele>
        <time>2026-08-25T08:34:58Z</time>
      </trkpt>
      <trkpt lat="45.03972" lon="6.13531">
        <ele>1120.5</ele>
        <time>2026-08-25T08:34:59Z</time>
      </trkpt>
      <trkpt lat="45.03965" lon="6.13532">
        <ele>1119.9</ele>
        <time>2026-08-25T08:35:00Z</time>
      </trkpt>
      <trkpt lat="45.03956" lon="6.13532">
        <ele>1119.1</ele>
        <time>2026-08-25T08:35:01Z</time>
      </trkpt>
      <trkpt lat="45.03947" lon="6.13532">
        <ele>1118.2</ele>
        <time>2026-08-25T08:35:02Z</time>
      </trkpt>
      <trkpt lat="45.03937" lon="6.13534">
        <ele>1117.1</ele>
        <time>2026-08-25T08:35:03Z</time>
      </trkpt>
      <trkpt lat="45.03925" lon="6.13535">
        <ele>1115.9</ele>
        <time>2026-08-25T08:35:04Z</time>
      </trkpt>
      <trkpt lat="45.03913" lon="6.13536">
        <ele>1114.7</ele>
        <time>2026-08-25T08:35:05Z</time>
      </trkpt>
      <trkpt lat="45.03901" lon="6.13537">
        <ele>1113.3</ele>
        <time>2026-08-25T08:35:06Z</time>
      </trkpt>
      <trkpt lat="45.0389" lon="6.13543">
        <ele>1112</ele>
        <time>2026-08-25T08:35:07Z</time>
      </trkpt>
      <trkpt lat="45.0388" lon="6.13553">
        <ele>1110.8</ele>
        <time>2026-08-25T08:35:08Z</time>
      </trkpt>
      <trkpt lat="45.03871" lon="6.13565">
        <ele>1109.6</ele>
        <time>2026-08-25T08:35:09Z</time>
      </trkpt>
      <trkpt lat="45.03865" lon="6.13577">
        <ele>1108.7</ele>
        <time>2026-08-25T08:35:10Z</time>
      </trkpt>
      <trkpt lat="45.0386" lon="6.1359">
        <ele>1107.9</ele>
        <time>2026-08-25T08:35:11Z</time>
      </trkpt>
      <trkpt lat="45.03858" lon="6.13601">
        <ele>1107.2</ele>
        <time>2026-08-25T08:35:12Z</time>
      </trkpt>
      <trkpt lat="45.03856" lon="6.13613">
        <ele>1106.6</ele>
        <time>2026-08-25T08:35:13Z</time>
      </trkpt>
      <trkpt lat="45.03855" lon="6.13625">
        <ele>1106</ele>
        <time>2026-08-25T08:35:14Z</time>
      </trkpt>
      <trkpt lat="45.03859" lon="6.13633">
        <ele>1105.5</ele>
        <time>2026-08-25T08:35:15Z</time>
      </trkpt>
      <trkpt lat="45.03864" lon="6.13638">
        <ele>1105</ele>
        <time>2026-08-25T08:35:16Z</time>
      </trkpt>
      <trkpt lat="45.0387" lon="6.13638">
        <ele>1104.5</ele>
        <time>2026-08-25T08:35:17Z</time>
      </trkpt>
      <trkpt lat="45.03875" lon="6.13633">
        <ele>1103.9</ele>
        <time>2026-08-25T08:35:18Z</time>
      </trkpt>
      <trkpt lat="45.03878" lon="6.13625">
        <ele>1103.3</ele>
        <time>2026-08-25T08:35:19Z</time>
      </trkpt>
      <trkpt lat="45.03881" lon="6.13616">
        <ele>1102.7</ele>
        <time>2026-08-25T08:35:20Z</time>
      </trkpt>
      <trkpt lat="45.03886" lon="6.13605">
        <ele>1101.8</ele>
        <time>2026-08-25T08:35:21Z</time>
      </trkpt>
      <trkpt lat="45.03893" lon="6.13594">
        <ele>1100.9</ele>
        <time>2026-08-25T08:35:22Z</time>
      </trkpt>
      <trkpt lat="45.03903" lon="6.13588">
        <ele>1099.8</ele>
        <time>2026-08-25T08:35:23Z</time>
      </trkpt>
      <trkpt lat="45.03913" lon="6.13583">
        <ele>1098.8</ele>
        <time>2026-08-25T08:35:24Z</time>
      </trkpt>
      <trkpt lat="45.03924" lon="6.13583">
        <ele>1097.8</ele>
        <time>2026-08-25T08:35:25Z</time>
      </trkpt>
      <trkpt lat="45.03935" lon="6.13585">
        <ele>1096.6</ele>
        <time>2026-08-25T08:35:26Z</time>
      </trkpt>
      <trkpt lat="45.03949" lon="6.13587">
        <ele>1095.2</ele>
        <time>2026-08-25T08:35:27Z</time>
      </trkpt>
      <trkpt lat="45.03962" lon="6.13591">
        <ele>1093.8</ele>
        <time>2026-08-25T08:35:28Z</time>
      </trkpt>
      <trkpt lat="45.03976" lon="6.13595">
        <ele>1092.3</ele>
        <time>2026-08-25T08:35:29Z</time>
      </trkpt>
      <trkpt lat="45.0399" lon="6.13598">
        <ele>1090.9</ele>
        <time>2026-08-25T08:35:30Z</time>
      </trkpt>
      <trkpt lat="45.04004" lon="6.13602">
        <ele>1089.5</ele>
        <time>2026-08-25T08:35:31Z</time>
      </trkpt>
      <trkpt lat="45.04018" lon="6.13604">
        <ele>1088.1</ele>
        <time>2026-08-25T08:35:32Z</time>
      </trkpt>
      <trkpt lat="45.04033" lon="6.13606">
        <ele>1086.8</ele>
        <time>2026-08-25T08:35:33Z</time>
      </trkpt>
      <trkpt lat="45.04047" lon="6.13607">
        <ele>1085.5</ele>
        <time>2026-08-25T08:35:34Z</time>
      </trkpt>
      <trkpt lat="45.04062" lon="6.13609">
        <ele>1084.2</ele>
        <time>2026-08-25T08:35:35Z</time>
      </trkpt>
      <trkpt lat="45.04076" lon="6.1361">
        <ele>1083</ele>
        <time>2026-08-25T08:35:36Z</time>
      </trkpt>
      <trkpt lat="45.0409" lon="6.13612">
        <ele>1081.8</ele>
        <time>2026-08-25T08:35:37Z</time>
      </trkpt>
      <trkpt lat="45.04104" lon="6.13615">
        <ele>1080.7</ele>
        <time>2026-08-25T08:35:38Z</time>
      </trkpt>
      <trkpt lat="45.04117" lon="6.13618">
        <ele>1079.6</ele>
        <time>2026-08-25T08:35:39Z</time>
      </trkpt>
      <trkpt lat="45.0413" lon="6.13618">
        <ele>1078.4</ele>
        <time>2026-08-25T08:35:40Z</time>
      </trkpt>
      <trkpt lat="45.04144" lon="6.13614">
        <ele>1077.3</ele>
        <time>2026-08-25T08:35:41Z</time>
      </trkpt>
      <trkpt lat="45.04157" lon="6.13609">
        <ele>1076.1</ele>
        <time>2026-08-25T08:35:42Z</time>
      </trkpt>
      <trkpt lat="45.04171" lon="6.13605">
        <ele>1075</ele>
        <time>2026-08-25T08:35:43Z</time>
      </trkpt>
      <trkpt lat="45.04186" lon="6.13603">
        <ele>1073.8</ele>
        <time>2026-08-25T08:35:44Z</time>
      </trkpt>
      <trkpt lat="45.042" lon="6.13605">
        <ele>1072.5</ele>
        <time>2026-08-25T08:35:45Z</time>
      </trkpt>
      <trkpt lat="45.04215" lon="6.13607">
        <ele>1071.1</ele>
        <time>2026-08-25T08:35:46Z</time>
      </trkpt>
      <trkpt lat="45.04229" lon="6.13609">
        <ele>1069.8</ele>
        <time>2026-08-25T08:35:47Z</time>
      </trkpt>
      <trkpt lat="45.04245" lon="6.13608">
        <ele>1068.6</ele>
        <time>2026-08-25T08:35:48Z</time>
      </trkpt>
      <trkpt lat="45.0426" lon="6.13607">
        <ele>1067.5</ele>
        <time>2026-08-25T08:35:49Z</time>
      </trkpt>
      <trkpt lat="45.04276" lon="6.13605">
        <ele>1066.3</ele>
        <time>2026-08-25T08:35:50Z</time>
      </trkpt>
      <trkpt lat="45.04291" lon="6.13604">
        <ele>1065</ele>
        <time>2026-08-25T08:35:51Z</time>
      </trkpt>
      <trkpt lat="45.04307" lon="6.13602">
        <ele>1063.7</ele>
        <time>2026-08-25T08:35:52Z</time>
      </trkpt>
      <trkpt lat="45.04322" lon="6.13598">
        <ele>1062.4</ele>
        <time>2026-08-25T08:35:53Z</time>
      </trkpt>
      <trkpt lat="45.04336" lon="6.13592">
        <ele>1061.2</ele>
        <time>2026-08-25T08:35:54Z</time>
      </trkpt>
      <trkpt lat="45.0435" lon="6.13583">
        <ele>1060</ele>
        <time>2026-08-25T08:35:55Z</time>
      </trkpt>
      <trkpt lat="45.04364" lon="6.13576">
        <ele>1058.7</ele>
        <time>2026-08-25T08:35:56Z</time>
      </trkpt>
      <trkpt lat="45.04378" lon="6.1357">
        <ele>1057.4</ele>
        <time>2026-08-25T08:35:57Z</time>
      </trkpt>
      <trkpt lat="45.04392" lon="6.13567">
        <ele>1056.2</ele>
        <time>2026-08-25T08:35:58Z</time>
      </trkpt>
      <trkpt lat="45.04406" lon="6.13567">
        <ele>1054.4</ele>
        <time>2026-08-25T08:35:59Z</time>
      </trkpt>
      <trkpt lat="45.0442" lon="6.1357">
        <ele>1052.4</ele>
        <time>2026-08-25T08:36:00Z</time>
      </trkpt>
      <trkpt lat="45.04432" lon="6.13576">
        <ele>1050.5</ele>
        <time>2026-08-25T08:36:01Z</time>
      </trkpt>
      <trkpt lat="45.04443" lon="6.13584">
        <ele>1048.8</ele>
        <time>2026-08-25T08:36:02Z</time>
      </trkpt>
      <trkpt lat="45.04453" lon="6.13593">
        <ele>1047.2</ele>
        <time>2026-08-25T08:36:03Z</time>
      </trkpt>
      <trkpt lat="45.04461" lon="6.13603">
        <ele>1045.9</ele>
        <time>2026-08-25T08:36:04Z</time>
      </trkpt>
      <trkpt lat="45.04468" lon="6.13612">
        <ele>1044.8</ele>
        <time>2026-08-25T08:36:05Z</time>
      </trkpt>
      <trkpt lat="45.04474" lon="6.13621">
        <ele>1043.8</ele>
        <time>2026-08-25T08:36:06Z</time>
      </trkpt>
      <trkpt lat="45.0448" lon="6.13628">
        <ele>1043.1</ele>
        <time>2026-08-25T08:36:07Z</time>
      </trkpt>
      <trkpt lat="45.04485" lon="6.13635">
        <ele>1042.5</ele>
        <time>2026-08-25T08:36:08Z</time>
      </trkpt>
      <trkpt lat="45.04487" lon="6.13641">
        <ele>1042</ele>
        <time>2026-08-25T08:36:09Z</time>
      </trkpt>
      <trkpt lat="45.04489" lon="6.13648">
        <ele>1041.6</ele>
        <time>2026-08-25T08:36:10Z</time>
      </trkpt>
      <trkpt lat="45.04491" lon="6.13653">
        <ele>1041.4</ele>
        <time>2026-08-25T08:36:11Z</time>
      </trkpt>
      <trkpt lat="45.04494" lon="6.13656">
        <ele>1039.8</ele>
        <time>2026-08-25T08:36:12Z</time>
      </trkpt>
      <trkpt lat="45.04496" lon="6.13657">
        <ele>1038.7</ele>
        <time>2026-08-25T08:36:13Z</time>
      </trkpt>
      <trkpt lat="45.04498" lon="6.13658">
        <ele>1038.1</ele>
        <time>2026-08-25T08:36:14Z</time>
      </trkpt>
      <trkpt lat="45.04498" lon="6.13658">
        <ele>1038</ele>
        <time>2026-08-25T08:36:15Z</time>
      </trkpt>
      <trkpt lat="45.04498" lon="6.13658">
        <ele>1038</ele>
        <time>2026-08-25T08:36:16Z</time>
      </trkpt>
      <trkpt lat="45.04502" lon="6.13661">
        <ele>1037.5</ele>
        <time>2026-08-25T08:37:27Z</time>
      </trkpt>
      <trkpt lat="45.04503" lon="6.13663">
        <ele>1037.3</ele>
        <time>2026-08-25T08:37:28Z</time>
      </trkpt>
      <trkpt lat="45.04504" lon="6.13667">
        <ele>1037.1</ele>
        <time>2026-08-25T08:37:29Z</time>
      </trkpt>
      <trkpt lat="45.04504" lon="6.1367">
        <ele>1036.8</ele>
        <time>2026-08-25T08:37:30Z</time>
      </trkpt>
      <trkpt lat="45.04504" lon="6.13674">
        <ele>1036.6</ele>
        <time>2026-08-25T08:37:31Z</time>
      </trkpt>
      <trkpt lat="45.04504" lon="6.13679">
        <ele>1036.3</ele>
        <time>2026-08-25T08:37:32Z</time>
      </trkpt>
      <trkpt lat="45.04504" lon="6.13683">
        <ele>1036</ele>
        <time>2026-08-25T08:37:33Z</time>
      </trkpt>
      <trkpt lat="45.04505" lon="6.13688">
        <ele>1035.8</ele>
        <time>2026-08-25T08:37:34Z</time>
      </trkpt>
      <trkpt lat="45.04506" lon="6.13693">
        <ele>1035.5</ele>
        <time>2026-08-25T08:37:35Z</time>
      </trkpt>
      <trkpt lat="45.04507" lon="6.13698">
        <ele>1035.2</ele>
        <time>2026-08-25T08:37:36Z</time>
      </trkpt>
      <trkpt lat="45.04508" lon="6.13703">
        <ele>1034.9</ele>
        <time>2026-08-25T08:37:37Z</time>
      </trkpt>
      <trkpt lat="45.0451" lon="6.13708">
        <ele>1034.7</ele>
        <time>2026-08-25T08:37:38Z</time>
      </trkpt>
      <trkpt lat="45.04511" lon="6.13712">
        <ele>1034.4</ele>
        <time>2026-08-25T08:37:39Z</time>
      </trkpt>
      <trkpt lat="45.04512" lon="6.13717">
        <ele>1034.1</ele>
        <time>2026-08-25T08:37:40Z</time>
      </trkpt>
      <trkpt lat="45.04514" lon="6.13722">
        <ele>1033.9</ele>
        <time>2026-08-25T08:37:41Z</time>
      </trkpt>
      <trkpt lat="45.04515" lon="6.13727">
        <ele>1033.6</ele>
        <time>2026-08-25T08:37:42Z</time>
      </trkpt>
      <trkpt lat="45.04518" lon="6.13731">
        <ele>1033.3</ele>
        <time>2026-08-25T08:37:43Z</time>
      </trkpt>
      <trkpt lat="45.0452" lon="6.13736">
        <ele>1033</ele>
        <time>2026-08-25T08:37:44Z</time>
      </trkpt>
      <trkpt lat="45.04522" lon="6.1374">
        <ele>1032.7</ele>
        <time>2026-08-25T08:37:45Z</time>
      </trkpt>
      <trkpt lat="45.04524" lon="6.13744">
        <ele>1032.5</ele>
        <time>2026-08-25T08:37:46Z</time>
      </trkpt>
      <trkpt lat="45.04526" lon="6.13748">
        <ele>1032.2</ele>
        <time>2026-08-25T08:37:47Z</time>
      </trkpt>
      <trkpt lat="45.04529" lon="6.13751">
        <ele>1032</ele>
        <time>2026-08-25T08:37:48Z</time>
      </trkpt>
      <trkpt lat="45.04532" lon="6.13755">
        <ele>1031.7</ele>
        <time>2026-08-25T08:37:49Z</time>
      </trkpt>
      <trkpt lat="45.04536" lon="6.13759">
        <ele>1031.4</ele>
        <time>2026-08-25T08:37:50Z</time>
      </trkpt>
      <trkpt lat="45.04539" lon="6.13763">
        <ele>1031</ele>
        <time>2026-08-25T08:37:51Z</time>
      </trkpt>
      <trkpt lat="45.04543" lon="6.13767">
        <ele>1030.7</ele>
        <time>2026-08-25T08:37:52Z</time>
      </trkpt>
      <trkpt lat="45.04548" lon="6.1377">
        <ele>1030.4</ele>
        <time>2026-08-25T08:37:53Z</time>
      </trkpt>
      <trkpt lat="45.04552" lon="6.13774">
        <ele>1030</ele>
        <time>2026-08-25T08:37:54Z</time>
      </trkpt>
      <trkpt lat="45.04556" lon="6.13777">
        <ele>1029.7</ele>
        <time>2026-08-25T08:37:55Z</time>
      </trkpt>
      <trkpt lat="45.04561" lon="6.13781">
        <ele>1029.3</ele>
        <time>2026-08-25T08:37:56Z</time>
      </trkpt>
      <trkpt lat="45.04566" lon="6.13783">
        <ele>1028.9</ele>
        <time>2026-08-25T08:37:57Z</time>
      </trkpt>
      <trkpt lat="45.04571" lon="6.13786">
        <ele>1028.5</ele>
        <time>2026-08-25T08:37:58Z</time>
      </trkpt>
      <trkpt lat="45.04576" lon="6.13788">
        <ele>1028</ele>
        <time>2026-08-25T08:37:59Z</time>
      </trkpt>
      <trkpt lat="45.04582" lon="6.13789">
        <ele>1027.6</ele>
        <time>2026-08-25T08:38:00Z</time>
      </trkpt>
      <trkpt lat="45.04587" lon="6.13791">
        <ele>1027.1</ele>
        <time>2026-08-25T08:38:01Z</time>
      </trkpt>
      <trkpt lat="45.04593" lon="6.13792">
        <ele>1026.5</ele>
        <time>2026-08-25T08:38:02Z</time>
      </trkpt>
      <trkpt lat="45.04598" lon="6.13793">
        <ele>1026</ele>
        <time>2026-08-25T08:38:03Z</time>
      </trkpt>
      <trkpt lat="45.04604" lon="6.13793">
        <ele>1025.5</ele>
        <time>2026-08-25T08:38:04Z</time>
      </trkpt>
      <trkpt lat="45.0461" lon="6.13794">
        <ele>1024.9</ele>
        <time>2026-08-25T08:38:05Z</time>
      </trkpt>
      <trkpt lat="45.04616" lon="6.13795">
        <ele>1024.4</ele>
        <time>2026-08-25T08:38:06Z</time>
      </trkpt>
      <trkpt lat="45.04622" lon="6.13797">
        <ele>1023.8</ele>
        <time>2026-08-25T08:38:07Z</time>
      </trkpt>
      <trkpt lat="45.04628" lon="6.13798">
        <ele>1023.3</ele>
        <time>2026-08-25T08:38:08Z</time>
      </trkpt>
      <trkpt lat="45.04634" lon="6.13799">
        <ele>1022.7</ele>
        <time>2026-08-25T08:38:09Z</time>
      </trkpt>
      <trkpt lat="45.0464" lon="6.138">
        <ele>1022.1</ele>
        <time>2026-08-25T08:38:10Z</time>
      </trkpt>
      <trkpt lat="45.04646" lon="6.13801">
        <ele>1021.5</ele>
        <time>2026-08-25T08:38:11Z</time>
      </trkpt>
      <trkpt lat="45.04653" lon="6.13803">
        <ele>1020.9</ele>
        <time>2026-08-25T08:38:12Z</time>
      </trkpt>
      <trkpt lat="45.04659" lon="6.13804">
        <ele>1020.4</ele>
        <time>2026-08-25T08:38:13Z</time>
      </trkpt>
      <trkpt lat="45.04665" lon="6.13805">
        <ele>1019.8</ele>
        <time>2026-08-25T08:38:14Z</time>
      </trkpt>
      <trkpt lat="45.04672" lon="6.13805">
        <ele>1019.3</ele>
        <time>2026-08-25T08:38:15Z</time>
      </trkpt>
      <trkpt lat="45.04679" lon="6.13806">
        <ele>1018.7</ele>
        <time>2026-08-25T08:38:16Z</time>
      </trkpt>
      <trkpt lat="45.04685" lon="6.13808">
        <ele>1018.1</ele>
        <time>2026-08-25T08:38:17Z</time>
      </trkpt>
      <trkpt lat="45.04691" lon="6.13812">
        <ele>1018.7</ele>
        <time>2026-08-25T08:38:18Z</time>
      </trkpt>
      <trkpt lat="45.04697" lon="6.13817">
        <ele>1019.2</ele>
        <time>2026-08-25T08:38:19Z</time>
      </trkpt>
      <trkpt lat="45.04701" lon="6.13824">
        <ele>1019.8</ele>
        <time>2026-08-25T08:38:20Z</time>
      </trkpt>
      <trkpt lat="45.04703" lon="6.13833">
        <ele>1020.4</ele>
        <time>2026-08-25T08:38:21Z</time>
      </trkpt>
      <trkpt lat="45.04704" lon="6.13842">
        <ele>1020.9</ele>
        <time>2026-08-25T08:38:22Z</time>
      </trkpt>
      <trkpt lat="45.04703" lon="6.13851">
        <ele>1021.7</ele>
        <time>2026-08-25T08:38:23Z</time>
      </trkpt>
      <trkpt lat="45.04703" lon="6.13859">
        <ele>1022.5</ele>
        <time>2026-08-25T08:38:24Z</time>
      </trkpt>
      <trkpt lat="45.04703" lon="6.13866">
        <ele>1023.1</ele>
        <time>2026-08-25T08:38:25Z</time>
      </trkpt>
      <trkpt lat="45.04704" lon="6.13873">
        <ele>1023.9</ele>
        <time>2026-08-25T08:38:26Z</time>
      </trkpt>
      <trkpt lat="45.04705" lon="6.13881">
        <ele>1024.6</ele>
        <time>2026-08-25T08:38:27Z</time>
      </trkpt>
      <trkpt lat="45.04707" lon="6.13888">
        <ele>1025.4</ele>
        <time>2026-08-25T08:38:28Z</time>
      </trkpt>
      <trkpt lat="45.04709" lon="6.13894">
        <ele>1026.1</ele>
        <time>2026-08-25T08:38:29Z</time>
      </trkpt>
      <trkpt lat="45.04711" lon="6.139">
        <ele>1026.9</ele>
        <time>2026-08-25T08:38:30Z</time>
      </trkpt>
      <trkpt lat="45.04714" lon="6.13906">
        <ele>1027.6</ele>
        <time>2026-08-25T08:38:31Z</time>
      </trkpt>
      <trkpt lat="45.04716" lon="6.13911">
        <ele>1028.3</ele>
        <time>2026-08-25T08:38:32Z</time>
      </trkpt>
      <trkpt lat="45.04719" lon="6.13917">
        <ele>1029</ele>
        <time>2026-08-25T08:38:33Z</time>
      </trkpt>
      <trkpt lat="45.04721" lon="6.13922">
        <ele>1029.7</ele>
        <time>2026-08-25T08:38:34Z</time>
      </trkpt>
      <trkpt lat="45.04724" lon="6.13928">
        <ele>1030.4</ele>
        <time>2026-08-25T08:38:35Z</time>
      </trkpt>
      <trkpt lat="45.04726" lon="6.13933">
        <ele>1031.1</ele>
        <time>2026-08-25T08:38:36Z</time>
      </trkpt>
      <trkpt lat="45.04728" lon="6.13938">
        <ele>1031.8</ele>
        <time>2026-08-25T08:38:37Z</time>
      </trkpt>
      <trkpt lat="45.0473" lon="6.13943">
        <ele>1032.4</ele>
        <time>2026-08-25T08:38:38Z</time>
      </trkpt>
      <trkpt lat="45.04733" lon="6.13949">
        <ele>1033.2</ele>
        <time>2026-08-25T08:38:39Z</time>
      </trkpt>
      <trkpt lat="45.04735" lon="6.13953">
        <ele>1033.8</ele>
        <time>2026-08-25T08:38:40Z</time>
      </trkpt>
      <trkpt lat="45.04737" lon="6.13958">
        <ele>1034.5</ele>
        <time>2026-08-25T08:38:41Z</time>
      </trkpt>
      <trkpt lat="45.04739" lon="6.13963">
        <ele>1035.2</ele>
        <time>2026-08-25T08:38:42Z</time>
      </trkpt>
      <trkpt lat="45.04741" lon="6.13968">
        <ele>1035.9</ele>
        <time>2026-08-25T08:38:43Z</time>
      </trkpt>
      <trkpt lat="45.04742" lon="6.13973">
        <ele>1036.4</ele>
        <time>2026-08-25T08:38:44Z</time>
      </trkpt>
      <trkpt lat="45.04743" lon="6.13977">
        <ele>1037</ele>
        <time>2026-08-25T08:38:45Z</time>
      </trkpt>
      <trkpt lat="45.04743" lon="6.13982">
        <ele>1037.5</ele>
        <time>2026-08-25T08:38:46Z</time>
      </trkpt>
      <trkpt lat="45.04743" lon="6.13986">
        <ele>1038.1</ele>
        <time>2026-08-25T08:38:47Z</time>
      </trkpt>
      <trkpt lat="45.04744" lon="6.1399">
        <ele>1038.5</ele>
        <time>2026-08-25T08:38:48Z</time>
      </trkpt>
      <trkpt lat="45.04744" lon="6.13994">
        <ele>1039</ele>
        <time>2026-08-25T08:38:49Z</time>
      </trkpt>
      <trkpt lat="45.04744" lon="6.13998">
        <ele>1039.5</ele>
        <time>2026-08-25T08:38:50Z</time>
      </trkpt>
      <trkpt lat="45.04745" lon="6.14002">
        <ele>1040</ele>
        <time>2026-08-25T08:38:51Z</time>
      </trkpt>
      <trkpt lat="45.04745" lon="6.14007">
        <ele>1040.5</ele>
        <time>2026-08-25T08:38:52Z</time>
      </trkpt>
      <trkpt lat="45.04745" lon="6.14011">
        <ele>1041</ele>
        <time>2026-08-25T08:38:53Z</time>
      </trkpt>
      <trkpt lat="45.04746" lon="6.14015">
        <ele>1041.5</ele>
        <time>2026-08-25T08:38:54Z</time>
      </trkpt>
      <trkpt lat="45.04746" lon="6.1402">
        <ele>1042.1</ele>
        <time>2026-08-25T08:38:55Z</time>
      </trkpt>
      <trkpt lat="45.04746" lon="6.14024">
        <ele>1042.6</ele>
        <time>2026-08-25T08:38:56Z</time>
      </trkpt>
      <trkpt lat="45.04747" lon="6.14029">
        <ele>1043.1</ele>
        <time>2026-08-25T08:38:57Z</time>
      </trkpt>
      <trkpt lat="45.04747" lon="6.14034">
        <ele>1043.6</ele>
        <time>2026-08-25T08:38:58Z</time>
      </trkpt>
      <trkpt lat="45.04747" lon="6.14038">
        <ele>1044.1</ele>
        <time>2026-08-25T08:38:59Z</time>
      </trkpt>
      <trkpt lat="45.04747" lon="6.14042">
        <ele>1044.6</ele>
        <time>2026-08-25T08:39:00Z</time>
      </trkpt>
      <trkpt lat="45.04748" lon="6.14047">
        <ele>1045.1</ele>
        <time>2026-08-25T08:39:01Z</time>
      </trkpt>
      <trkpt lat="45.04748" lon="6.14051">
        <ele>1045.6</ele>
        <time>2026-08-25T08:39:02Z</time>
      </trkpt>
      <trkpt lat="45.04748" lon="6.14055">
        <ele>1046.1</ele>
        <time>2026-08-25T08:39:03Z</time>
      </trkpt>
      <trkpt lat="45.04749" lon="6.1406">
        <ele>1046.6</ele>
        <time>2026-08-25T08:39:04Z</time>
      </trkpt>
      <trkpt lat="45.04749" lon="6.14064">
        <ele>1047.1</ele>
        <time>2026-08-25T08:39:05Z</time>
      </trkpt>
      <trkpt lat="45.0475" lon="6.14068">
        <ele>1047.5</ele>
        <time>2026-08-25T08:39:06Z</time>
      </trkpt>
      <trkpt lat="45.0475" lon="6.14073">
        <ele>1048</ele>
        <time>2026-08-25T08:39:07Z</time>
      </trkpt>
      <trkpt lat="45.04751" lon="6.14077">
        <ele>1048.5</ele>
        <time>2026-08-25T08:39:08Z</time>
      </trkpt>
      <trkpt lat="45.04751" lon="6.14082">
        <ele>1049</ele>
        <time>2026-08-25T08:39:09Z</time>
      </trkpt>
      <trkpt lat="45.04751" lon="6.14086">
        <ele>1049.4</ele>
        <time>2026-08-25T08:39:10Z</time>
      </trkpt>
      <trkpt lat="45.04751" lon="6.14089">
        <ele>1049.9</ele>
        <time>2026-08-25T08:39:11Z</time>
      </trkpt>
      <trkpt lat="45.04751" lon="6.14093">
        <ele>1050.3</ele>
        <time>2026-08-25T08:39:12Z</time>
      </trkpt>
      <trkpt lat="45.04752" lon="6.14098">
        <ele>1050.8</ele>
        <time>2026-08-25T08:39:13Z</time>
      </trkpt>
      <trkpt lat="45.04752" lon="6.14102">
        <ele>1051.3</ele>
        <time>2026-08-25T08:39:14Z</time>
      </trkpt>
      <trkpt lat="45.04753" lon="6.14107">
        <ele>1051.8</ele>
        <time>2026-08-25T08:39:15Z</time>
      </trkpt>
      <trkpt lat="45.04755" lon="6.14111">
        <ele>1052.4</ele>
        <time>2026-08-25T08:39:16Z</time>
      </trkpt>
      <trkpt lat="45.04757" lon="6.14115">
        <ele>1052.9</ele>
        <time>2026-08-25T08:39:17Z</time>
      </trkpt>
      <trkpt lat="45.04761" lon="6.14115">
        <ele>1053.5</ele>
        <time>2026-08-25T08:39:18Z</time>
      </trkpt>
      <trkpt lat="45.04764" lon="6.14114">
        <ele>1053.8</ele>
        <time>2026-08-25T08:39:19Z</time>
      </trkpt>
      <trkpt lat="45.04767" lon="6.14111">
        <ele>1054</ele>
        <time>2026-08-25T08:39:20Z</time>
      </trkpt>
      <trkpt lat="45.04767" lon="6.14106">
        <ele>1054.2</ele>
        <time>2026-08-25T08:39:21Z</time>
      </trkpt>
      <trkpt lat="45.04767" lon="6.14102">
        <ele>1054.4</ele>
        <time>2026-08-25T08:39:22Z</time>
      </trkpt>
      <trkpt lat="45.04767" lon="6.14098">
        <ele>1054.6</ele>
        <time>2026-08-25T08:39:23Z</time>
      </trkpt>
      <trkpt lat="45.04767" lon="6.14094">
        <ele>1054.8</ele>
        <time>2026-08-25T08:39:24Z</time>
      </trkpt>
      <trkpt lat="45.04766" lon="6.14091">
        <ele>1055</ele>
        <time>2026-08-25T08:39:25Z</time>
      </trkpt>
      <trkpt lat="45.04765" lon="6.14088">
        <ele>1055.2</ele>
        <time>2026-08-25T08:39:26Z</time>
      </trkpt>
      <trkpt lat="45.04765" lon="6.14085">
        <ele>1055.4</ele>
        <time>2026-08-25T08:39:27Z</time>
      </trkpt>
      <trkpt lat="45.04764" lon="6.14081">
        <ele>1055.6</ele>
        <time>2026-08-25T08:39:28Z</time>
      </trkpt>
      <trkpt lat="45.04764" lon="6.14079">
        <ele>1055.8</ele>
        <time>2026-08-25T08:39:29Z</time>
      </trkpt>
      <trkpt lat="45.04763" lon="6.14076">
        <ele>1056</ele>
        <time>2026-08-25T08:39:30Z</time>
      </trkpt>
      <trkpt lat="45.04763" lon="6.14074">
        <ele>1056.1</ele>
        <time>2026-08-25T08:39:31Z</time>
      </trkpt>
      <trkpt lat="45.04763" lon="6.14071">
        <ele>1056.4</ele>
        <time>2026-08-25T08:39:32Z</time>
      </trkpt>
      <trkpt lat="45.04763" lon="6.14068">
        <ele>1056.6</ele>
        <time>2026-08-25T08:39:33Z</time>
      </trkpt>
      <trkpt lat="45.04763" lon="6.14064">
        <ele>1056.8</ele>
        <time>2026-08-25T08:39:34Z</time>
      </trkpt>
      <trkpt lat="45.04763" lon="6.14061">
        <ele>1057.1</ele>
        <time>2026-08-25T08:39:35Z</time>
      </trkpt>
      <trkpt lat="45.04763" lon="6.14058">
        <ele>1057.3</ele>
        <time>2026-08-25T08:39:36Z</time>
      </trkpt>
      <trkpt lat="45.04763" lon="6.14054">
        <ele>1057.6</ele>
        <time>2026-08-25T08:39:37Z</time>
      </trkpt>
      <trkpt lat="45.04763" lon="6.14051">
        <ele>1057.8</ele>
        <time>2026-08-25T08:39:38Z</time>
      </trkpt>
      <trkpt lat="45.04764" lon="6.14048">
        <ele>1058.1</ele>
        <time>2026-08-25T08:39:39Z</time>
      </trkpt>
      <trkpt lat="45.04764" lon="6.14045">
        <ele>1058.3</ele>
        <time>2026-08-25T08:39:40Z</time>
      </trkpt>
      <trkpt lat="45.04764" lon="6.14041">
        <ele>1058.6</ele>
        <time>2026-08-25T08:39:41Z</time>
      </trkpt>
      <trkpt lat="45.04764" lon="6.14038">
        <ele>1058.8</ele>
        <time>2026-08-25T08:39:42Z</time>
      </trkpt>
      <trkpt lat="45.04764" lon="6.14036">
        <ele>1059</ele>
        <time>2026-08-25T08:39:43Z</time>
      </trkpt>
      <trkpt lat="45.04764" lon="6.14033">
        <ele>1059.2</ele>
        <time>2026-08-25T08:39:44Z</time>
      </trkpt>
      <trkpt lat="45.04764" lon="6.1403">
        <ele>1059.4</ele>
        <time>2026-08-25T08:39:45Z</time>
      </trkpt>
      <trkpt lat="45.04764" lon="6.14026">
        <ele>1059.7</ele>
        <time>2026-08-25T08:39:46Z</time>
      </trkpt>
      <trkpt lat="45.04763" lon="6.14023">
        <ele>1059.9</ele>
        <time>2026-08-25T08:39:47Z</time>
      </trkpt>
      <trkpt lat="45.04763" lon="6.14019">
        <ele>1060.2</ele>
        <time>2026-08-25T08:39:48Z</time>
      </trkpt>
      <trkpt lat="45.04763" lon="6.14016">
        <ele>1060.5</ele>
        <time>2026-08-25T08:39:49Z</time>
      </trkpt>
      <trkpt lat="45.04763" lon="6.14012">
        <ele>1060.7</ele>
        <time>2026-08-25T08:39:50Z</time>
      </trkpt>
      <trkpt lat="45.04763" lon="6.14009">
        <ele>1061</ele>
        <time>2026-08-25T08:39:51Z</time>
      </trkpt>
      <trkpt lat="45.04763" lon="6.14006">
        <ele>1061.2</ele>
        <time>2026-08-25T08:39:52Z</time>
      </trkpt>
      <trkpt lat="45.04763" lon="6.14003">
        <ele>1061.4</ele>
        <time>2026-08-25T08:39:53Z</time>
      </trkpt>
      <trkpt lat="45.04764" lon="6.14">
        <ele>1061.7</ele>
        <time>2026-08-25T08:39:54Z</time>
      </trkpt>
      <trkpt lat="45.04764" lon="6.13997">
        <ele>1061.9</ele>
        <time>2026-08-25T08:39:55Z</time>
      </trkpt>
      <trkpt lat="45.04764" lon="6.13994">
        <ele>1062.2</ele>
        <time>2026-08-25T08:39:56Z</time>
      </trkpt>
      <trkpt lat="45.04764" lon="6.13991">
        <ele>1062.4</ele>
        <time>2026-08-25T08:39:57Z</time>
      </trkpt>
      <trkpt lat="45.04764" lon="6.13988">
        <ele>1062.7</ele>
        <time>2026-08-25T08:39:58Z</time>
      </trkpt>
      <trkpt lat="45.04765" lon="6.13985">
        <ele>1062.9</ele>
        <time>2026-08-25T08:39:59Z</time>
      </trkpt>
      <trkpt lat="45.04765" lon="6.13981">
        <ele>1063.2</ele>
        <time>2026-08-25T08:40:00Z</time>
      </trkpt>
      <trkpt lat="45.04764" lon="6.13979">
        <ele>1063.4</ele>
        <time>2026-08-25T08:40:01Z</time>
      </trkpt>
      <trkpt lat="45.04764" lon="6.13977">
        <ele>1063.6</ele>
        <time>2026-08-25T08:40:02Z</time>
      </trkpt>
      <trkpt lat="45.04764" lon="6.13975">
        <ele>1063.8</ele>
        <time>2026-08-25T08:40:03Z</time>
      </trkpt>
      <trkpt lat="45.04765" lon="6.13972">
        <ele>1064</ele>
        <time>2026-08-25T08:40:04Z</time>
      </trkpt>
      <trkpt lat="45.04765" lon="6.13969">
        <ele>1064.2</ele>
        <time>2026-08-25T08:40:05Z</time>
      </trkpt>
      <trkpt lat="45.04765" lon="6.13967">
        <ele>1064.4</ele>
        <time>2026-08-25T08:40:06Z</time>
      </trkpt>
      <trkpt lat="45.04765" lon="6.13964">
        <ele>1064.6</ele>
        <time>2026-08-25T08:40:07Z</time>
      </trkpt>
      <trkpt lat="45.04765" lon="6.13961">
        <ele>1064.9</ele>
        <time>2026-08-25T08:40:08Z</time>
      </trkpt>
      <trkpt lat="45.04764" lon="6.13958">
        <ele>1065.1</ele>
        <time>2026-08-25T08:40:09Z</time>
      </trkpt>
      <trkpt lat="45.04765" lon="6.13956">
        <ele>1065.3</ele>
        <time>2026-08-25T08:40:10Z</time>
      </trkpt>
      <trkpt lat="45.04765" lon="6.13954">
        <ele>1065.5</ele>
        <time>2026-08-25T08:40:11Z</time>
      </trkpt>
      <trkpt lat="45.04765" lon="6.13952">
        <ele>1065.7</ele>
        <time>2026-08-25T08:40:12Z</time>
      </trkpt>
      <trkpt lat="45.04765" lon="6.13949">
        <ele>1066</ele>
        <time>2026-08-25T08:40:13Z</time>
      </trkpt>
      <trkpt lat="45.04765" lon="6.13946">
        <ele>1066.2</ele>
        <time>2026-08-25T08:40:14Z</time>
      </trkpt>
      <trkpt lat="45.04764" lon="6.13944">
        <ele>1066.4</ele>
        <time>2026-08-25T08:40:15Z</time>
      </trkpt>
      <trkpt lat="45.04763" lon="6.13942">
        <ele>1066.6</ele>
        <time>2026-08-25T08:40:16Z</time>
      </trkpt>
      <trkpt lat="45.04763" lon="6.13939">
        <ele>1066.9</ele>
        <time>2026-08-25T08:40:17Z</time>
      </trkpt>
      <trkpt lat="45.04762" lon="6.13936">
        <ele>1067.1</ele>
        <time>2026-08-25T08:40:18Z</time>
      </trkpt>
      <trkpt lat="45.04762" lon="6.13933">
        <ele>1067.3</ele>
        <time>2026-08-25T08:40:19Z</time>
      </trkpt>
      <trkpt lat="45.04762" lon="6.13931">
        <ele>1067.6</ele>
        <time>2026-08-25T08:40:20Z</time>
      </trkpt>
      <trkpt lat="45.04762" lon="6.13928">
        <ele>1067.8</ele>
        <time>2026-08-25T08:40:21Z</time>
      </trkpt>
      <trkpt lat="45.04761" lon="6.13925">
        <ele>1068</ele>
        <time>2026-08-25T08:40:22Z</time>
      </trkpt>
      <trkpt lat="45.0476" lon="6.13923">
        <ele>1068.3</ele>
        <time>2026-08-25T08:40:23Z</time>
      </trkpt>
      <trkpt lat="45.04759" lon="6.1392">
        <ele>1068.5</ele>
        <time>2026-08-25T08:40:24Z</time>
      </trkpt>
      <trkpt lat="45.04758" lon="6.13918">
        <ele>1068.7</ele>
        <time>2026-08-25T08:40:25Z</time>
      </trkpt>
      <trkpt lat="45.04757" lon="6.13916">
        <ele>1069</ele>
        <time>2026-08-25T08:40:26Z</time>
      </trkpt>
      <trkpt lat="45.04756" lon="6.13913">
        <ele>1069.2</ele>
        <time>2026-08-25T08:40:27Z</time>
      </trkpt>
      <trkpt lat="45.04756" lon="6.13911">
        <ele>1069.4</ele>
        <time>2026-08-25T08:40:28Z</time>
      </trkpt>
      <trkpt lat="45.04755" lon="6.13908">
        <ele>1069.7</ele>
        <time>2026-08-25T08:40:29Z</time>
      </trkpt>
      <trkpt lat="45.04754" lon="6.13905">
        <ele>1069.9</ele>
        <time>2026-08-25T08:40:30Z</time>
      </trkpt>
      <trkpt lat="45.04754" lon="6.13903">
        <ele>1070.2</ele>
        <time>2026-08-25T08:40:31Z</time>
      </trkpt>
      <trkpt lat="45.04753" lon="6.139">
        <ele>1070.4</ele>
        <time>2026-08-25T08:40:32Z</time>
      </trkpt>
      <trkpt lat="45.04753" lon="6.13897">
        <ele>1070.6</ele>
        <time>2026-08-25T08:40:33Z</time>
      </trkpt>
      <trkpt lat="45.04752" lon="6.13894">
        <ele>1070.9</ele>
        <time>2026-08-25T08:40:34Z</time>
      </trkpt>
      <trkpt lat="45.04752" lon="6.13892">
        <ele>1071.1</ele>
        <time>2026-08-25T08:40:35Z</time>
      </trkpt>
      <trkpt lat="45.04752" lon="6.1389">
        <ele>1071.2</ele>
        <time>2026-08-25T08:40:36Z</time>
      </trkpt>
      <trkpt lat="45.04751" lon="6.13887">
        <ele>1071.5</ele>
        <time>2026-08-25T08:40:37Z</time>
      </trkpt>
      <trkpt lat="45.0475" lon="6.13885">
        <ele>1071.7</ele>
        <time>2026-08-25T08:40:38Z</time>
      </trkpt>
      <trkpt lat="45.0475" lon="6.13883">
        <ele>1071.9</ele>
        <time>2026-08-25T08:40:39Z</time>
      </trkpt>
      <trkpt lat="45.04749" lon="6.1388">
        <ele>1072.3</ele>
        <time>2026-08-25T08:40:40Z</time>
      </trkpt>
      <trkpt lat="45.04749" lon="6.13877">
        <ele>1072.8</ele>
        <time>2026-08-25T08:40:41Z</time>
      </trkpt>
      <trkpt lat="45.04749" lon="6.13875">
        <ele>1073.3</ele>
        <time>2026-08-25T08:40:42Z</time>
      </trkpt>
      <trkpt lat="45.04749" lon="6.13872">
        <ele>1073.8</ele>
        <time>2026-08-25T08:40:43Z</time>
      </trkpt>
      <trkpt lat="45.04749" lon="6.1387">
        <ele>1074.3</ele>
        <time>2026-08-25T08:40:44Z</time>
      </trkpt>
      <trkpt lat="45.04749" lon="6.13867">
        <ele>1074.8</ele>
        <time>2026-08-25T08:40:45Z</time>
      </trkpt>
      <trkpt lat="45.04749" lon="6.13864">
        <ele>1075.3</ele>
        <time>2026-08-25T08:40:46Z</time>
      </trkpt>
      <trkpt lat="45.04749" lon="6.13862">
        <ele>1075.7</ele>
        <time>2026-08-25T08:40:47Z</time>
      </trkpt>
      <trkpt lat="45.04751" lon="6.1386">
        <ele>1076.3</ele>
        <time>2026-08-25T08:40:48Z</time>
      </trkpt>
      <trkpt lat="45.04753" lon="6.13858">
        <ele>1076.9</ele>
        <time>2026-08-25T08:40:49Z</time>
      </trkpt>
      <trkpt lat="45.04755" lon="6.13858">
        <ele>1077.4</ele>
        <time>2026-08-25T08:40:50Z</time>
      </trkpt>
      <trkpt lat="45.04757" lon="6.13858">
        <ele>1077.8</ele>
        <time>2026-08-25T08:40:51Z</time>
      </trkpt>
      <trkpt lat="45.04759" lon="6.13859">
        <ele>1078.4</ele>
        <time>2026-08-25T08:40:52Z</time>
      </trkpt>
      <trkpt lat="45.0476" lon="6.1386">
        <ele>1078.8</ele>
        <time>2026-08-25T08:40:53Z</time>
      </trkpt>
      <trkpt lat="45.04761" lon="6.13862">
        <ele>1078.8</ele>
        <time>2026-08-25T08:40:54Z</time>
      </trkpt>
      <trkpt lat="45.04761" lon="6.13865">
        <ele>1078.8</ele>
        <time>2026-08-25T08:40:55Z</time>
      </trkpt>
      <trkpt lat="45.04761" lon="6.13868">
        <ele>1078.8</ele>
        <time>2026-08-25T08:40:56Z</time>
      </trkpt>
      <trkpt lat="45.04761" lon="6.13871">
        <ele>1078.8</ele>
        <time>2026-08-25T08:40:57Z</time>
      </trkpt>
      <trkpt lat="45.04762" lon="6.13874">
        <ele>1078.8</ele>
        <time>2026-08-25T08:40:58Z</time>
      </trkpt>
      <trkpt lat="45.04762" lon="6.13876">
        <ele>1078.8</ele>
        <time>2026-08-25T08:40:59Z</time>
      </trkpt>
      <trkpt lat="45.04762" lon="6.13879">
        <ele>1078.8</ele>
        <time>2026-08-25T08:41:00Z</time>
      </trkpt>
      <trkpt lat="45.04762" lon="6.13882">
        <ele>1078.8</ele>
        <time>2026-08-25T08:41:01Z</time>
      </trkpt>
      <trkpt lat="45.04762" lon="6.13885">
        <ele>1078.8</ele>
        <time>2026-08-25T08:41:02Z</time>
      </trkpt>
      <trkpt lat="45.04762" lon="6.13889">
        <ele>1078.8</ele>
        <time>2026-08-25T08:41:03Z</time>
      </trkpt>
      <trkpt lat="45.04762" lon="6.13892">
        <ele>1078.8</ele>
        <time>2026-08-25T08:41:04Z</time>
      </trkpt>
      <trkpt lat="45.04763" lon="6.13894">
        <ele>1078.8</ele>
        <time>2026-08-25T08:41:05Z</time>
      </trkpt>
      <trkpt lat="45.04764" lon="6.13897">
        <ele>1078.8</ele>
        <time>2026-08-25T08:41:06Z</time>
      </trkpt>
      <trkpt lat="45.04764" lon="6.13899">
        <ele>1078.8</ele>
        <time>2026-08-25T08:41:07Z</time>
      </trkpt>
      <trkpt lat="45.04765" lon="6.13902">
        <ele>1078.8</ele>
        <time>2026-08-25T08:41:08Z</time>
      </trkpt>
      <trkpt lat="45.04766" lon="6.13904">
        <ele>1078.8</ele>
        <time>2026-08-25T08:41:09Z</time>
      </trkpt>
      <trkpt lat="45.04767" lon="6.13906">
        <ele>1078.8</ele>
        <time>2026-08-25T08:41:10Z</time>
      </trkpt>
      <trkpt lat="45.04768" lon="6.13908">
        <ele>1078.9</ele>
        <time>2026-08-25T08:41:11Z</time>
      </trkpt>
      <trkpt lat="45.0477" lon="6.1391">
        <ele>1078.9</ele>
        <time>2026-08-25T08:41:12Z</time>
      </trkpt>
      <trkpt lat="45.04771" lon="6.13912">
        <ele>1078.9</ele>
        <time>2026-08-25T08:41:13Z</time>
      </trkpt>
      <trkpt lat="45.04772" lon="6.13914">
        <ele>1078.9</ele>
        <time>2026-08-25T08:41:14Z</time>
      </trkpt>
      <trkpt lat="45.04773" lon="6.13916">
        <ele>1079</ele>
        <time>2026-08-25T08:41:15Z</time>
      </trkpt>
      <trkpt lat="45.04774" lon="6.13918">
        <ele>1079</ele>
        <time>2026-08-25T08:41:16Z</time>
      </trkpt>
      <trkpt lat="45.04775" lon="6.1392">
        <ele>1079</ele>
        <time>2026-08-25T08:41:17Z</time>
      </trkpt>
      <trkpt lat="45.04776" lon="6.13923">
        <ele>1079.1</ele>
        <time>2026-08-25T08:41:18Z</time>
      </trkpt>
      <trkpt lat="45.04777" lon="6.13924">
        <ele>1079.1</ele>
        <time>2026-08-25T08:41:19Z</time>
      </trkpt>
      <trkpt lat="45.04778" lon="6.13926">
        <ele>1079.1</ele>
        <time>2026-08-25T08:41:20Z</time>
      </trkpt>
      <trkpt lat="45.04779" lon="6.13927">
        <ele>1079.2</ele>
        <time>2026-08-25T08:41:21Z</time>
      </trkpt>
      <trkpt lat="45.04781" lon="6.13927">
        <ele>1079.2</ele>
        <time>2026-08-25T08:41:22Z</time>
      </trkpt>
      <trkpt lat="45.04782" lon="6.13928">
        <ele>1079.2</ele>
        <time>2026-08-25T08:41:23Z</time>
      </trkpt>
      <trkpt lat="45.04784" lon="6.13928">
        <ele>1079.3</ele>
        <time>2026-08-25T08:41:24Z</time>
      </trkpt>
      <trkpt lat="45.04785" lon="6.1393">
        <ele>1079.3</ele>
        <time>2026-08-25T08:41:25Z</time>
      </trkpt>
      <trkpt lat="45.04785" lon="6.13932">
        <ele>1079.4</ele>
        <time>2026-08-25T08:41:26Z</time>
      </trkpt>
      <trkpt lat="45.04785" lon="6.13934">
        <ele>1079.4</ele>
        <time>2026-08-25T08:41:27Z</time>
      </trkpt>
      <trkpt lat="45.04786" lon="6.13935">
        <ele>1079.4</ele>
        <time>2026-08-25T08:41:28Z</time>
      </trkpt>
      <trkpt lat="45.04787" lon="6.13936">
        <ele>1079.5</ele>
        <time>2026-08-25T08:41:29Z</time>
      </trkpt>
      <trkpt lat="45.04787" lon="6.13938">
        <ele>1079.5</ele>
        <time>2026-08-25T08:41:30Z</time>
      </trkpt>
      <trkpt lat="45.04788" lon="6.1394">
        <ele>1079.5</ele>
        <time>2026-08-25T08:41:31Z</time>
      </trkpt>
      <trkpt lat="45.04788" lon="6.13942">
        <ele>1079.6</ele>
        <time>2026-08-25T08:41:32Z</time>
      </trkpt>
      <trkpt lat="45.04788" lon="6.13944">
        <ele>1079.6</ele>
        <time>2026-08-25T08:41:33Z</time>
      </trkpt>
      <trkpt lat="45.04789" lon="6.13946">
        <ele>1079.7</ele>
        <time>2026-08-25T08:41:34Z</time>
      </trkpt>
      <trkpt lat="45.04789" lon="6.13948">
        <ele>1079.7</ele>
        <time>2026-08-25T08:41:35Z</time>
      </trkpt>
      <trkpt lat="45.0479" lon="6.1395">
        <ele>1079.8</ele>
        <time>2026-08-25T08:41:36Z</time>
      </trkpt>
      <trkpt lat="45.0479" lon="6.13952">
        <ele>1079.8</ele>
        <time>2026-08-25T08:41:37Z</time>
      </trkpt>
      <trkpt lat="45.0479" lon="6.13955">
        <ele>1079.8</ele>
        <time>2026-08-25T08:41:38Z</time>
      </trkpt>
      <trkpt lat="45.0479" lon="6.13957">
        <ele>1079.9</ele>
        <time>2026-08-25T08:41:39Z</time>
      </trkpt>
      <trkpt lat="45.0479" lon="6.1396">
        <ele>1079.9</ele>
        <time>2026-08-25T08:41:40Z</time>
      </trkpt>
      <trkpt lat="45.0479" lon="6.13963">
        <ele>1080</ele>
        <time>2026-08-25T08:41:41Z</time>
      </trkpt>
      <trkpt lat="45.0479" lon="6.13965">
        <ele>1080.1</ele>
        <time>2026-08-25T08:41:42Z</time>
      </trkpt>
      <trkpt lat="45.0479" lon="6.13967">
        <ele>1080.1</ele>
        <time>2026-08-25T08:41:43Z</time>
      </trkpt>
      <trkpt lat="45.04791" lon="6.1397">
        <ele>1080.1</ele>
        <time>2026-08-25T08:41:44Z</time>
      </trkpt>
      <trkpt lat="45.04792" lon="6.13971">
        <ele>1080.2</ele>
        <time>2026-08-25T08:41:45Z</time>
      </trkpt>
      <trkpt lat="45.04792" lon="6.13974">
        <ele>1080.2</ele>
        <time>2026-08-25T08:41:46Z</time>
      </trkpt>
      <trkpt lat="45.04793" lon="6.13977">
        <ele>1080.3</ele>
        <time>2026-08-25T08:41:47Z</time>
      </trkpt>
      <trkpt lat="45.04793" lon="6.13979">
        <ele>1080.3</ele>
        <time>2026-08-25T08:41:48Z</time>
      </trkpt>
      <trkpt lat="45.04793" lon="6.13981">
        <ele>1080.4</ele>
        <time>2026-08-25T08:41:49Z</time>
      </trkpt>
      <trkpt lat="45.04794" lon="6.13984">
        <ele>1080.4</ele>
        <time>2026-08-25T08:41:50Z</time>
      </trkpt>
      <trkpt lat="45.04794" lon="6.13986">
        <ele>1080.5</ele>
        <time>2026-08-25T08:41:51Z</time>
      </trkpt>
      <trkpt lat="45.04794" lon="6.13988">
        <ele>1080.6</ele>
        <time>2026-08-25T08:41:52Z</time>
      </trkpt>
      <trkpt lat="45.04794" lon="6.13991">
        <ele>1080.9</ele>
        <time>2026-08-25T08:41:53Z</time>
      </trkpt>
      <trkpt lat="45.04795" lon="6.13993">
        <ele>1081.1</ele>
        <time>2026-08-25T08:41:54Z</time>
      </trkpt>
      <trkpt lat="45.04795" lon="6.13996">
        <ele>1081.4</ele>
        <time>2026-08-25T08:41:55Z</time>
      </trkpt>
      <trkpt lat="45.04796" lon="6.13997">
        <ele>1081.5</ele>
        <time>2026-08-25T08:41:56Z</time>
      </trkpt>
      <trkpt lat="45.04796" lon="6.14">
        <ele>1081.8</ele>
        <time>2026-08-25T08:41:57Z</time>
      </trkpt>
      <trkpt lat="45.04797" lon="6.14002">
        <ele>1082.1</ele>
        <time>2026-08-25T08:41:58Z</time>
      </trkpt>
      <trkpt lat="45.04798" lon="6.14005">
        <ele>1082.3</ele>
        <time>2026-08-25T08:41:59Z</time>
      </trkpt>
      <trkpt lat="45.04799" lon="6.14007">
        <ele>1082.6</ele>
        <time>2026-08-25T08:42:00Z</time>
      </trkpt>
      <trkpt lat="45.04799" lon="6.14009">
        <ele>1082.8</ele>
        <time>2026-08-25T08:42:01Z</time>
      </trkpt>
      <trkpt lat="45.04799" lon="6.14012">
        <ele>1083</ele>
        <time>2026-08-25T08:42:02Z</time>
      </trkpt>
      <trkpt lat="45.048" lon="6.14014">
        <ele>1083.3</ele>
        <time>2026-08-25T08:42:03Z</time>
      </trkpt>
      <trkpt lat="45.04801" lon="6.14016">
        <ele>1083.5</ele>
        <time>2026-08-25T08:42:04Z</time>
      </trkpt>
      <trkpt lat="45.04802" lon="6.14018">
        <ele>1083.8</ele>
        <time>2026-08-25T08:42:05Z</time>
      </trkpt>
      <trkpt lat="45.04802" lon="6.1402">
        <ele>1084</ele>
        <time>2026-08-25T08:42:06Z</time>
      </trkpt>
      <trkpt lat="45.04803" lon="6.14023">
        <ele>1084.3</ele>
        <time>2026-08-25T08:42:07Z</time>
      </trkpt>
      <trkpt lat="45.04804" lon="6.14025">
        <ele>1084.5</ele>
        <time>2026-08-25T08:42:08Z</time>
      </trkpt>
      <trkpt lat="45.04805" lon="6.14027">
        <ele>1084.8</ele>
        <time>2026-08-25T08:42:09Z</time>
      </trkpt>
      <trkpt lat="45.04805" lon="6.14029">
        <ele>1085</ele>
        <time>2026-08-25T08:42:10Z</time>
      </trkpt>
      <trkpt lat="45.04805" lon="6.14031">
        <ele>1085.2</ele>
        <time>2026-08-25T08:42:11Z</time>
      </trkpt>
      <trkpt lat="45.04806" lon="6.14033">
        <ele>1085.5</ele>
        <time>2026-08-25T08:42:12Z</time>
      </trkpt>
      <trkpt lat="45.04807" lon="6.14035">
        <ele>1085.7</ele>
        <time>2026-08-25T08:42:13Z</time>
      </trkpt>
      <trkpt lat="45.04807" lon="6.14037">
        <ele>1085.9</ele>
        <time>2026-08-25T08:42:14Z</time>
      </trkpt>
      <trkpt lat="45.04808" lon="6.1404">
        <ele>1086.2</ele>
        <time>2026-08-25T08:42:15Z</time>
      </trkpt>
      <trkpt lat="45.04808" lon="6.14042">
        <ele>1086.4</ele>
        <time>2026-08-25T08:42:16Z</time>
      </trkpt>
      <trkpt lat="45.04809" lon="6.14045">
        <ele>1086.7</ele>
        <time>2026-08-25T08:42:17Z</time>
      </trkpt>
      <trkpt lat="45.04809" lon="6.14047">
        <ele>1087</ele>
        <time>2026-08-25T08:42:18Z</time>
      </trkpt>
      <trkpt lat="45.0481" lon="6.1405">
        <ele>1087.2</ele>
        <time>2026-08-25T08:42:19Z</time>
      </trkpt>
      <trkpt lat="45.0481" lon="6.14053">
        <ele>1087.6</ele>
        <time>2026-08-25T08:42:20Z</time>
      </trkpt>
      <trkpt lat="45.0481" lon="6.14056">
        <ele>1087.8</ele>
        <time>2026-08-25T08:42:21Z</time>
      </trkpt>
      <trkpt lat="45.04809" lon="6.14059">
        <ele>1088.1</ele>
        <time>2026-08-25T08:42:22Z</time>
      </trkpt>
      <trkpt lat="45.04809" lon="6.14063">
        <ele>1088.5</ele>
        <time>2026-08-25T08:42:23Z</time>
      </trkpt>
      <trkpt lat="45.04808" lon="6.14067">
        <ele>1088.9</ele>
        <time>2026-08-25T08:42:24Z</time>
      </trkpt>
      <trkpt lat="45.04808" lon="6.1407">
        <ele>1089.2</ele>
        <time>2026-08-25T08:42:25Z</time>
      </trkpt>
      <trkpt lat="45.04808" lon="6.14073">
        <ele>1089.5</ele>
        <time>2026-08-25T08:42:26Z</time>
      </trkpt>
      <trkpt lat="45.04807" lon="6.14076">
        <ele>1089.9</ele>
        <time>2026-08-25T08:42:27Z</time>
      </trkpt>
      <trkpt lat="45.04807" lon="6.14079">
        <ele>1090.2</ele>
        <time>2026-08-25T08:42:28Z</time>
      </trkpt>
      <trkpt lat="45.04807" lon="6.14082">
        <ele>1090.5</ele>
        <time>2026-08-25T08:42:29Z</time>
      </trkpt>
      <trkpt lat="45.04808" lon="6.14085">
        <ele>1090.8</ele>
        <time>2026-08-25T08:42:30Z</time>
      </trkpt>
      <trkpt lat="45.04808" lon="6.14088">
        <ele>1091.1</ele>
        <time>2026-08-25T08:42:31Z</time>
      </trkpt>
      <trkpt lat="45.04808" lon="6.14091">
        <ele>1091.4</ele>
        <time>2026-08-25T08:42:32Z</time>
      </trkpt>
      <trkpt lat="45.04809" lon="6.14093">
        <ele>1091.7</ele>
        <time>2026-08-25T08:42:33Z</time>
      </trkpt>
      <trkpt lat="45.04809" lon="6.14096">
        <ele>1091.9</ele>
        <time>2026-08-25T08:42:34Z</time>
      </trkpt>
      <trkpt lat="45.04809" lon="6.14098">
        <ele>1092.2</ele>
        <time>2026-08-25T08:42:35Z</time>
      </trkpt>
      <trkpt lat="45.04809" lon="6.14101">
        <ele>1092.4</ele>
        <time>2026-08-25T08:42:36Z</time>
      </trkpt>
      <trkpt lat="45.04809" lon="6.14104">
        <ele>1092.7</ele>
        <time>2026-08-25T08:42:37Z</time>
      </trkpt>
      <trkpt lat="45.0481" lon="6.14106">
        <ele>1093</ele>
        <time>2026-08-25T08:42:38Z</time>
      </trkpt>
      <trkpt lat="45.0481" lon="6.14109">
        <ele>1093.3</ele>
        <time>2026-08-25T08:42:39Z</time>
      </trkpt>
      <trkpt lat="45.04811" lon="6.14112">
        <ele>1093.6</ele>
        <time>2026-08-25T08:42:40Z</time>
      </trkpt>
      <trkpt lat="45.04812" lon="6.14114">
        <ele>1093.9</ele>
        <time>2026-08-25T08:42:41Z</time>
      </trkpt>
      <trkpt lat="45.04812" lon="6.14116">
        <ele>1094.2</ele>
        <time>2026-08-25T08:42:42Z</time>
      </trkpt>
      <trkpt lat="45.04813" lon="6.14119">
        <ele>1094.4</ele>
        <time>2026-08-25T08:42:43Z</time>
      </trkpt>
      <trkpt lat="45.04813" lon="6.14121">
        <ele>1094.7</ele>
        <time>2026-08-25T08:42:44Z</time>
      </trkpt>
      <trkpt lat="45.04814" lon="6.14124">
        <ele>1095</ele>
        <time>2026-08-25T08:42:45Z</time>
      </trkpt>
      <trkpt lat="45.04815" lon="6.14126">
        <ele>1095.2</ele>
        <time>2026-08-25T08:42:46Z</time>
      </trkpt>
      <trkpt lat="45.04816" lon="6.14128">
        <ele>1095.5</ele>
        <time>2026-08-25T08:42:47Z</time>
      </trkpt>
      <trkpt lat="45.04817" lon="6.14131">
        <ele>1095.8</ele>
        <time>2026-08-25T08:42:48Z</time>
      </trkpt>
      <trkpt lat="45.04818" lon="6.14134">
        <ele>1096.1</ele>
        <time>2026-08-25T08:42:49Z</time>
      </trkpt>
      <trkpt lat="45.04819" lon="6.14136">
        <ele>1096.4</ele>
        <time>2026-08-25T08:42:50Z</time>
      </trkpt>
      <trkpt lat="45.0482" lon="6.14138">
        <ele>1096.7</ele>
        <time>2026-08-25T08:42:51Z</time>
      </trkpt>
      <trkpt lat="45.04821" lon="6.1414">
        <ele>1097</ele>
        <time>2026-08-25T08:42:52Z</time>
      </trkpt>
      <trkpt lat="45.04822" lon="6.14142">
        <ele>1097.2</ele>
        <time>2026-08-25T08:42:53Z</time>
      </trkpt>
      <trkpt lat="45.04823" lon="6.14144">
        <ele>1097.5</ele>
        <time>2026-08-25T08:42:54Z</time>
      </trkpt>
      <trkpt lat="45.04824" lon="6.14146">
        <ele>1097.8</ele>
        <time>2026-08-25T08:42:55Z</time>
      </trkpt>
      <trkpt lat="45.04826" lon="6.14148">
        <ele>1098</ele>
        <time>2026-08-25T08:42:56Z</time>
      </trkpt>
      <trkpt lat="45.04827" lon="6.1415">
        <ele>1098.3</ele>
        <time>2026-08-25T08:42:57Z</time>
      </trkpt>
      <trkpt lat="45.04828" lon="6.14152">
        <ele>1098.5</ele>
        <time>2026-08-25T08:42:58Z</time>
      </trkpt>
      <trkpt lat="45.04829" lon="6.14154">
        <ele>1098.8</ele>
        <time>2026-08-25T08:42:59Z</time>
      </trkpt>
      <trkpt lat="45.0483" lon="6.14156">
        <ele>1099.1</ele>
        <time>2026-08-25T08:43:00Z</time>
      </trkpt>
      <trkpt lat="45.04831" lon="6.14158">
        <ele>1099.3</ele>
        <time>2026-08-25T08:43:01Z</time>
      </trkpt>
      <trkpt lat="45.04833" lon="6.1416">
        <ele>1099.6</ele>
        <time>2026-08-25T08:43:02Z</time>
      </trkpt>
      <trkpt lat="45.04833" lon="6.14162">
        <ele>1099.8</ele>
        <time>2026-08-25T08:43:03Z</time>
      </trkpt>
      <trkpt lat="45.04834" lon="6.14164">
        <ele>1100</ele>
        <time>2026-08-25T08:43:04Z</time>
      </trkpt>
      <trkpt lat="45.04835" lon="6.14166">
        <ele>1100.3</ele>
        <time>2026-08-25T08:43:05Z</time>
      </trkpt>
      <trkpt lat="45.04836" lon="6.14168">
        <ele>1100.5</ele>
        <time>2026-08-25T08:43:06Z</time>
      </trkpt>
      <trkpt lat="45.04837" lon="6.1417">
        <ele>1100.8</ele>
        <time>2026-08-25T08:43:07Z</time>
      </trkpt>
      <trkpt lat="45.04839" lon="6.14172">
        <ele>1101</ele>
        <time>2026-08-25T08:43:08Z</time>
      </trkpt>
      <trkpt lat="45.0484" lon="6.14173">
        <ele>1101.3</ele>
        <time>2026-08-25T08:43:09Z</time>
      </trkpt>
      <trkpt lat="45.04841" lon="6.14175">
        <ele>1101.5</ele>
        <time>2026-08-25T08:43:10Z</time>
      </trkpt>
      <trkpt lat="45.04841" lon="6.14177">
        <ele>1101.7</ele>
        <time>2026-08-25T08:43:11Z</time>
      </trkpt>
      <trkpt lat="45.04842" lon="6.14179">
        <ele>1101.9</ele>
        <time>2026-08-25T08:43:12Z</time>
      </trkpt>
      <trkpt lat="45.04842" lon="6.14181">
        <ele>1102.1</ele>
        <time>2026-08-25T08:43:13Z</time>
      </trkpt>
      <trkpt lat="45.04843" lon="6.14183">
        <ele>1102.4</ele>
        <time>2026-08-25T08:43:14Z</time>
      </trkpt>
      <trkpt lat="45.04844" lon="6.14185">
        <ele>1102.7</ele>
        <time>2026-08-25T08:43:15Z</time>
      </trkpt>
      <trkpt lat="45.04845" lon="6.14186">
        <ele>1103</ele>
        <time>2026-08-25T08:43:16Z</time>
      </trkpt>
      <trkpt lat="45.04845" lon="6.14188">
        <ele>1103.2</ele>
        <time>2026-08-25T08:43:17Z</time>
      </trkpt>
      <trkpt lat="45.04846" lon="6.1419">
        <ele>1103.4</ele>
        <time>2026-08-25T08:43:18Z</time>
      </trkpt>
      <trkpt lat="45.04847" lon="6.14192">
        <ele>1103.8</ele>
        <time>2026-08-25T08:43:19Z</time>
      </trkpt>
      <trkpt lat="45.04848" lon="6.14194">
        <ele>1104.1</ele>
        <time>2026-08-25T08:43:20Z</time>
      </trkpt>
      <trkpt lat="45.04848" lon="6.14196">
        <ele>1104.3</ele>
        <time>2026-08-25T08:43:21Z</time>
      </trkpt>
      <trkpt lat="45.04849" lon="6.14198">
        <ele>1104.6</ele>
        <time>2026-08-25T08:43:22Z</time>
      </trkpt>
      <trkpt lat="45.04849" lon="6.142">
        <ele>1104.9</ele>
        <time>2026-08-25T08:43:23Z</time>
      </trkpt>
      <trkpt lat="45.04849" lon="6.14202">
        <ele>1105.1</ele>
        <time>2026-08-25T08:43:24Z</time>
      </trkpt>
      <trkpt lat="45.0485" lon="6.14204">
        <ele>1105.4</ele>
        <time>2026-08-25T08:43:25Z</time>
      </trkpt>
      <trkpt lat="45.0485" lon="6.14206">
        <ele>1105.6</ele>
        <time>2026-08-25T08:43:26Z</time>
      </trkpt>
      <trkpt lat="45.04851" lon="6.14208">
        <ele>1105.9</ele>
        <time>2026-08-25T08:43:27Z</time>
      </trkpt>
      <trkpt lat="45.04852" lon="6.14209">
        <ele>1106.1</ele>
        <time>2026-08-25T08:43:28Z</time>
      </trkpt>
      <trkpt lat="45.04852" lon="6.14211">
        <ele>1106.3</ele>
        <time>2026-08-25T08:43:29Z</time>
      </trkpt>
      <trkpt lat="45.04853" lon="6.14213">
        <ele>1106.6</ele>
        <time>2026-08-25T08:43:30Z</time>
      </trkpt>
      <trkpt lat="45.04853" lon="6.14215">
        <ele>1106.8</ele>
        <time>2026-08-25T08:43:31Z</time>
      </trkpt>
      <trkpt lat="45.04853" lon="6.14217">
        <ele>1107</ele>
        <time>2026-08-25T08:43:32Z</time>
      </trkpt>
      <trkpt lat="45.04853" lon="6.14218">
        <ele>1107.3</ele>
        <time>2026-08-25T08:43:33Z</time>
      </trkpt>
      <trkpt lat="45.04854" lon="6.1422">
        <ele>1107.5</ele>
        <time>2026-08-25T08:43:34Z</time>
      </trkpt>
      <trkpt lat="45.04855" lon="6.14222">
        <ele>1107.8</ele>
        <time>2026-08-25T08:43:35Z</time>
      </trkpt>
      <trkpt lat="45.04856" lon="6.14224">
        <ele>1108.1</ele>
        <time>2026-08-25T08:43:36Z</time>
      </trkpt>
      <trkpt lat="45.04856" lon="6.14226">
        <ele>1108.3</ele>
        <time>2026-08-25T08:43:37Z</time>
      </trkpt>
      <trkpt lat="45.04857" lon="6.14228">
        <ele>1108.6</ele>
        <time>2026-08-25T08:43:38Z</time>
      </trkpt>
      <trkpt lat="45.04857" lon="6.1423">
        <ele>1108.8</ele>
        <time>2026-08-25T08:43:39Z</time>
      </trkpt>
      <trkpt lat="45.04857" lon="6.14232">
        <ele>1109.1</ele>
        <time>2026-08-25T08:43:40Z</time>
      </trkpt>
      <trkpt lat="45.04858" lon="6.14233">
        <ele>1109.3</ele>
        <time>2026-08-25T08:43:41Z</time>
      </trkpt>
      <trkpt lat="45.04859" lon="6.14235">
        <ele>1109.6</ele>
        <time>2026-08-25T08:43:42Z</time>
      </trkpt>
      <trkpt lat="45.04859" lon="6.14237">
        <ele>1109.8</ele>
        <time>2026-08-25T08:43:43Z</time>
      </trkpt>
      <trkpt lat="45.04859" lon="6.14238">
        <ele>1110.1</ele>
        <time>2026-08-25T08:43:44Z</time>
      </trkpt>
      <trkpt lat="45.0486" lon="6.1424">
        <ele>1110.3</ele>
        <time>2026-08-25T08:43:45Z</time>
      </trkpt>
      <trkpt lat="45.04861" lon="6.14241">
        <ele>1110.5</ele>
        <time>2026-08-25T08:43:46Z</time>
      </trkpt>
      <trkpt lat="45.04861" lon="6.14243">
        <ele>1110.8</ele>
        <time>2026-08-25T08:43:47Z</time>
      </trkpt>
      <trkpt lat="45.04861" lon="6.14245">
        <ele>1111</ele>
        <time>2026-08-25T08:43:48Z</time>
      </trkpt>
      <trkpt lat="45.04862" lon="6.14247">
        <ele>1111.3</ele>
        <time>2026-08-25T08:43:49Z</time>
      </trkpt>
      <trkpt lat="45.04863" lon="6.14249">
        <ele>1111.6</ele>
        <time>2026-08-25T08:43:50Z</time>
      </trkpt>
      <trkpt lat="45.04864" lon="6.14251">
        <ele>1111.9</ele>
        <time>2026-08-25T08:43:51Z</time>
      </trkpt>
      <trkpt lat="45.04864" lon="6.14253">
        <ele>1112.1</ele>
        <time>2026-08-25T08:43:52Z</time>
      </trkpt>
      <trkpt lat="45.04865" lon="6.14254">
        <ele>1112.4</ele>
        <time>2026-08-25T08:43:53Z</time>
      </trkpt>
      <trkpt lat="45.04865" lon="6.14256">
        <ele>1112.7</ele>
        <time>2026-08-25T08:43:54Z</time>
      </trkpt>
      <trkpt lat="45.04866" lon="6.14258">
        <ele>1113</ele>
        <time>2026-08-25T08:43:55Z</time>
      </trkpt>
      <trkpt lat="45.04867" lon="6.14261">
        <ele>1113.2</ele>
        <time>2026-08-25T08:43:56Z</time>
      </trkpt>
      <trkpt lat="45.04867" lon="6.14262">
        <ele>1113.5</ele>
        <time>2026-08-25T08:43:57Z</time>
      </trkpt>
      <trkpt lat="45.04867" lon="6.14265">
        <ele>1113.8</ele>
        <time>2026-08-25T08:43:58Z</time>
      </trkpt>
      <trkpt lat="45.04867" lon="6.14267">
        <ele>1114.1</ele>
        <time>2026-08-25T08:43:59Z</time>
      </trkpt>
      <trkpt lat="45.04868" lon="6.1427">
        <ele>1114.5</ele>
        <time>2026-08-25T08:44:00Z</time>
      </trkpt>
      <trkpt lat="45.04868" lon="6.14272">
        <ele>1114.7</ele>
        <time>2026-08-25T08:44:01Z</time>
      </trkpt>
      <trkpt lat="45.04868" lon="6.14273">
        <ele>1114.9</ele>
        <time>2026-08-25T08:44:02Z</time>
      </trkpt>
      <trkpt lat="45.04868" lon="6.14275">
        <ele>1115.1</ele>
        <time>2026-08-25T08:44:03Z</time>
      </trkpt>
      <trkpt lat="45.04868" lon="6.14276">
        <ele>1115.3</ele>
        <time>2026-08-25T08:44:04Z</time>
      </trkpt>
      <trkpt lat="45.04869" lon="6.14278">
        <ele>1115.5</ele>
        <time>2026-08-25T08:44:05Z</time>
      </trkpt>
      <trkpt lat="45.04869" lon="6.1428">
        <ele>1115.8</ele>
        <time>2026-08-25T08:44:06Z</time>
      </trkpt>
      <trkpt lat="45.0487" lon="6.14283">
        <ele>1116.2</ele>
        <time>2026-08-25T08:44:07Z</time>
      </trkpt>
      <trkpt lat="45.0487" lon="6.14284">
        <ele>1116.4</ele>
        <time>2026-08-25T08:44:08Z</time>
      </trkpt>
      <trkpt lat="45.04871" lon="6.14286">
        <ele>1116.6</ele>
        <time>2026-08-25T08:44:09Z</time>
      </trkpt>
      <trkpt lat="45.04871" lon="6.14288">
        <ele>1116.9</ele>
        <time>2026-08-25T08:44:10Z</time>
      </trkpt>
      <trkpt lat="45.04872" lon="6.1429">
        <ele>1117.2</ele>
        <time>2026-08-25T08:44:11Z</time>
      </trkpt>
      <trkpt lat="45.04873" lon="6.14292">
        <ele>1117.5</ele>
        <time>2026-08-25T08:44:12Z</time>
      </trkpt>
      <trkpt lat="45.04873" lon="6.14295">
        <ele>1117.8</ele>
        <time>2026-08-25T08:44:13Z</time>
      </trkpt>
      <trkpt lat="45.04873" lon="6.14297">
        <ele>1118.1</ele>
        <time>2026-08-25T08:44:14Z</time>
      </trkpt>
      <trkpt lat="45.04874" lon="6.14298">
        <ele>1118.4</ele>
        <time>2026-08-25T08:44:15Z</time>
      </trkpt>
      <trkpt lat="45.04875" lon="6.14301">
        <ele>1118.7</ele>
        <time>2026-08-25T08:44:16Z</time>
      </trkpt>
      <trkpt lat="45.04875" lon="6.14304">
        <ele>1119.1</ele>
        <time>2026-08-25T08:44:17Z</time>
      </trkpt>
      <trkpt lat="45.04875" lon="6.14305">
        <ele>1119.3</ele>
        <time>2026-08-25T08:44:18Z</time>
      </trkpt>
      <trkpt lat="45.04875" lon="6.14307">
        <ele>1119.6</ele>
        <time>2026-08-25T08:44:19Z</time>
      </trkpt>
      <trkpt lat="45.04875" lon="6.1431">
        <ele>1119.9</ele>
        <time>2026-08-25T08:44:20Z</time>
      </trkpt>
      <trkpt lat="45.04875" lon="6.14312">
        <ele>1120.2</ele>
        <time>2026-08-25T08:44:21Z</time>
      </trkpt>
      <trkpt lat="45.04875" lon="6.14315">
        <ele>1120.6</ele>
        <time>2026-08-25T08:44:22Z</time>
      </trkpt>
      <trkpt lat="45.04875" lon="6.14318">
        <ele>1121</ele>
        <time>2026-08-25T08:44:23Z</time>
      </trkpt>
      <trkpt lat="45.04875" lon="6.14321">
        <ele>1121.4</ele>
        <time>2026-08-25T08:44:24Z</time>
      </trkpt>
      <trkpt lat="45.04875" lon="6.14324">
        <ele>1121.8</ele>
        <time>2026-08-25T08:44:25Z</time>
      </trkpt>
      <trkpt lat="45.04875" lon="6.14326">
        <ele>1122.1</ele>
        <time>2026-08-25T08:44:26Z</time>
      </trkpt>
      <trkpt lat="45.04875" lon="6.14329">
        <ele>1122.5</ele>
        <time>2026-08-25T08:44:27Z</time>
      </trkpt>
      <trkpt lat="45.04875" lon="6.14332">
        <ele>1122.9</ele>
        <time>2026-08-25T08:44:28Z</time>
      </trkpt>
      <trkpt lat="45.04876" lon="6.14335">
        <ele>1123.3</ele>
        <time>2026-08-25T08:44:29Z</time>
      </trkpt>
      <trkpt lat="45.04877" lon="6.14337">
        <ele>1123.7</ele>
        <time>2026-08-25T08:44:30Z</time>
      </trkpt>
      <trkpt lat="45.04878" lon="6.14341">
        <ele>1124.1</ele>
        <time>2026-08-25T08:44:31Z</time>
      </trkpt>
      <trkpt lat="45.04879" lon="6.14342">
        <ele>1124.5</ele>
        <time>2026-08-25T08:44:32Z</time>
      </trkpt>
      <trkpt lat="45.04881" lon="6.14343">
        <ele>1124.9</ele>
        <time>2026-08-25T08:44:33Z</time>
      </trkpt>
      <trkpt lat="45.04884" lon="6.14343">
        <ele>1125.3</ele>
        <time>2026-08-25T08:44:34Z</time>
      </trkpt>
      <trkpt lat="45.04885" lon="6.14342">
        <ele>1125.6</ele>
        <time>2026-08-25T08:44:35Z</time>
      </trkpt>
      <trkpt lat="45.04886" lon="6.1434">
        <ele>1125.9</ele>
        <time>2026-08-25T08:44:36Z</time>
      </trkpt>
      <trkpt lat="45.04887" lon="6.14336">
        <ele>1126.3</ele>
        <time>2026-08-25T08:44:37Z</time>
      </trkpt>
      <trkpt lat="45.04888" lon="6.14332">
        <ele>1126.7</ele>
        <time>2026-08-25T08:44:38Z</time>
      </trkpt>
      <trkpt lat="45.04888" lon="6.14329">
        <ele>1127</ele>
        <time>2026-08-25T08:44:39Z</time>
      </trkpt>
      <trkpt lat="45.04889" lon="6.14326">
        <ele>1127.2</ele>
        <time>2026-08-25T08:44:40Z</time>
      </trkpt>
      <trkpt lat="45.04889" lon="6.14323">
        <ele>1127.5</ele>
        <time>2026-08-25T08:44:41Z</time>
      </trkpt>
      <trkpt lat="45.0489" lon="6.14321">
        <ele>1127.7</ele>
        <time>2026-08-25T08:44:42Z</time>
      </trkpt>
      <trkpt lat="45.0489" lon="6.14319">
        <ele>1127.9</ele>
        <time>2026-08-25T08:44:43Z</time>
      </trkpt>
      <trkpt lat="45.0489" lon="6.14316">
        <ele>1128.2</ele>
        <time>2026-08-25T08:44:44Z</time>
      </trkpt>
      <trkpt lat="45.04889" lon="6.14314">
        <ele>1128.4</ele>
        <time>2026-08-25T08:44:45Z</time>
      </trkpt>
      <trkpt lat="45.04889" lon="6.14311">
        <ele>1128.6</ele>
        <time>2026-08-25T08:44:46Z</time>
      </trkpt>
      <trkpt lat="45.04888" lon="6.14308">
        <ele>1128.8</ele>
        <time>2026-08-25T08:44:47Z</time>
      </trkpt>
      <trkpt lat="45.04889" lon="6.14306">
        <ele>1129.1</ele>
        <time>2026-08-25T08:44:48Z</time>
      </trkpt>
      <trkpt lat="45.04889" lon="6.14303">
        <ele>1129.3</ele>
        <time>2026-08-25T08:44:49Z</time>
      </trkpt>
      <trkpt lat="45.04889" lon="6.143">
        <ele>1129.5</ele>
        <time>2026-08-25T08:44:50Z</time>
      </trkpt>
      <trkpt lat="45.04889" lon="6.14298">
        <ele>1129.8</ele>
        <time>2026-08-25T08:44:51Z</time>
      </trkpt>
      <trkpt lat="45.04889" lon="6.14295">
        <ele>1130</ele>
        <time>2026-08-25T08:44:52Z</time>
      </trkpt>
      <trkpt lat="45.04889" lon="6.14292">
        <ele>1130.3</ele>
        <time>2026-08-25T08:44:53Z</time>
      </trkpt>
      <trkpt lat="45.04889" lon="6.14289">
        <ele>1130.6</ele>
        <time>2026-08-25T08:44:54Z</time>
      </trkpt>
      <trkpt lat="45.04889" lon="6.14286">
        <ele>1130.8</ele>
        <time>2026-08-25T08:44:55Z</time>
      </trkpt>
      <trkpt lat="45.04889" lon="6.14284">
        <ele>1131.1</ele>
        <time>2026-08-25T08:44:56Z</time>
      </trkpt>
      <trkpt lat="45.04888" lon="6.14281">
        <ele>1131.3</ele>
        <time>2026-08-25T08:44:57Z</time>
      </trkpt>
      <trkpt lat="45.04888" lon="6.14279">
        <ele>1131.5</ele>
        <time>2026-08-25T08:44:58Z</time>
      </trkpt>
      <trkpt lat="45.04888" lon="6.14277">
        <ele>1131.8</ele>
        <time>2026-08-25T08:44:59Z</time>
      </trkpt>
      <trkpt lat="45.04888" lon="6.14275">
        <ele>1132</ele>
        <time>2026-08-25T08:45:00Z</time>
      </trkpt>
      <trkpt lat="45.04888" lon="6.14272">
        <ele>1132.2</ele>
        <time>2026-08-25T08:45:01Z</time>
      </trkpt>
      <trkpt lat="45.04888" lon="6.1427">
        <ele>1132.5</ele>
        <time>2026-08-25T08:45:02Z</time>
      </trkpt>
      <trkpt lat="45.04887" lon="6.14268">
        <ele>1132.6</ele>
        <time>2026-08-25T08:45:03Z</time>
      </trkpt>
      <trkpt lat="45.04887" lon="6.14265">
        <ele>1132.8</ele>
        <time>2026-08-25T08:45:04Z</time>
      </trkpt>
      <trkpt lat="45.04887" lon="6.14263">
        <ele>1133</ele>
        <time>2026-08-25T08:45:05Z</time>
      </trkpt>
      <trkpt lat="45.04887" lon="6.1426">
        <ele>1133.1</ele>
        <time>2026-08-25T08:45:06Z</time>
      </trkpt>
      <trkpt lat="45.04887" lon="6.14257">
        <ele>1133.3</ele>
        <time>2026-08-25T08:45:07Z</time>
      </trkpt>
      <trkpt lat="45.04887" lon="6.14255">
        <ele>1133.4</ele>
        <time>2026-08-25T08:45:08Z</time>
      </trkpt>
      <trkpt lat="45.04887" lon="6.14253">
        <ele>1133.6</ele>
        <time>2026-08-25T08:45:09Z</time>
      </trkpt>
      <trkpt lat="45.04886" lon="6.1425">
        <ele>1133.7</ele>
        <time>2026-08-25T08:45:10Z</time>
      </trkpt>
      <trkpt lat="45.04886" lon="6.14248">
        <ele>1133.9</ele>
        <time>2026-08-25T08:45:11Z</time>
      </trkpt>
      <trkpt lat="45.04886" lon="6.14246">
        <ele>1134</ele>
        <time>2026-08-25T08:45:12Z</time>
      </trkpt>
      <trkpt lat="45.04887" lon="6.14243">
        <ele>1134.1</ele>
        <time>2026-08-25T08:45:13Z</time>
      </trkpt>
      <trkpt lat="45.04886" lon="6.14241">
        <ele>1134.3</ele>
        <time>2026-08-25T08:45:14Z</time>
      </trkpt>
      <trkpt lat="45.04886" lon="6.14239">
        <ele>1134.4</ele>
        <time>2026-08-25T08:45:15Z</time>
      </trkpt>
      <trkpt lat="45.04886" lon="6.14236">
        <ele>1134.6</ele>
        <time>2026-08-25T08:45:16Z</time>
      </trkpt>
      <trkpt lat="45.04886" lon="6.14233">
        <ele>1134.8</ele>
        <time>2026-08-25T08:45:17Z</time>
      </trkpt>
      <trkpt lat="45.04886" lon="6.14231">
        <ele>1134.9</ele>
        <time>2026-08-25T08:45:18Z</time>
      </trkpt>
      <trkpt lat="45.04885" lon="6.14228">
        <ele>1135.1</ele>
        <time>2026-08-25T08:45:19Z</time>
      </trkpt>
      <trkpt lat="45.04885" lon="6.14225">
        <ele>1135.3</ele>
        <time>2026-08-25T08:45:20Z</time>
      </trkpt>
      <trkpt lat="45.04885" lon="6.14223">
        <ele>1135.4</ele>
        <time>2026-08-25T08:45:21Z</time>
      </trkpt>
      <trkpt lat="45.04885" lon="6.1422">
        <ele>1135.6</ele>
        <time>2026-08-25T08:45:22Z</time>
      </trkpt>
      <trkpt lat="45.04885" lon="6.14218">
        <ele>1135.8</ele>
        <time>2026-08-25T08:45:23Z</time>
      </trkpt>
      <trkpt lat="45.04885" lon="6.14215">
        <ele>1135.9</ele>
        <time>2026-08-25T08:45:24Z</time>
      </trkpt>
      <trkpt lat="45.04885" lon="6.14213">
        <ele>1136</ele>
        <time>2026-08-25T08:45:25Z</time>
      </trkpt>
      <trkpt lat="45.04885" lon="6.14211">
        <ele>1136.2</ele>
        <time>2026-08-25T08:45:26Z</time>
      </trkpt>
      <trkpt lat="45.04885" lon="6.14208">
        <ele>1136.4</ele>
        <time>2026-08-25T08:45:27Z</time>
      </trkpt>
      <trkpt lat="45.04885" lon="6.14206">
        <ele>1136.5</ele>
        <time>2026-08-25T08:45:28Z</time>
      </trkpt>
      <trkpt lat="45.04885" lon="6.14203">
        <ele>1136.7</ele>
        <time>2026-08-25T08:45:29Z</time>
      </trkpt>
      <trkpt lat="45.04884" lon="6.142">
        <ele>1136.9</ele>
        <time>2026-08-25T08:45:30Z</time>
      </trkpt>
      <trkpt lat="45.04884" lon="6.14198">
        <ele>1137.1</ele>
        <time>2026-08-25T08:45:31Z</time>
      </trkpt>
      <trkpt lat="45.04884" lon="6.14196">
        <ele>1137.2</ele>
        <time>2026-08-25T08:45:32Z</time>
      </trkpt>
      <trkpt lat="45.04884" lon="6.14193">
        <ele>1137.4</ele>
        <time>2026-08-25T08:45:33Z</time>
      </trkpt>
      <trkpt lat="45.04884" lon="6.14191">
        <ele>1137.7</ele>
        <time>2026-08-25T08:45:34Z</time>
      </trkpt>
      <trkpt lat="45.04884" lon="6.14189">
        <ele>1137.9</ele>
        <time>2026-08-25T08:45:35Z</time>
      </trkpt>
      <trkpt lat="45.04884" lon="6.14187">
        <ele>1138.1</ele>
        <time>2026-08-25T08:45:36Z</time>
      </trkpt>
      <trkpt lat="45.04884" lon="6.14185">
        <ele>1138.4</ele>
        <time>2026-08-25T08:45:37Z</time>
      </trkpt>
      <trkpt lat="45.04885" lon="6.14182">
        <ele>1138.7</ele>
        <time>2026-08-25T08:45:38Z</time>
      </trkpt>
      <trkpt lat="45.04885" lon="6.14179">
        <ele>1139</ele>
        <time>2026-08-25T08:45:39Z</time>
      </trkpt>
      <trkpt lat="45.04885" lon="6.14177">
        <ele>1139.3</ele>
        <time>2026-08-25T08:45:40Z</time>
      </trkpt>
      <trkpt lat="45.04885" lon="6.14174">
        <ele>1139.6</ele>
        <time>2026-08-25T08:45:41Z</time>
      </trkpt>
      <trkpt lat="45.04885" lon="6.14171">
        <ele>1139.9</ele>
        <time>2026-08-25T08:45:42Z</time>
      </trkpt>
      <trkpt lat="45.04885" lon="6.14169">
        <ele>1140.2</ele>
        <time>2026-08-25T08:45:43Z</time>
      </trkpt>
      <trkpt lat="45.04886" lon="6.14166">
        <ele>1140.5</ele>
        <time>2026-08-25T08:45:44Z</time>
      </trkpt>
      <trkpt lat="45.04886" lon="6.14164">
        <ele>1140.8</ele>
        <time>2026-08-25T08:45:45Z</time>
      </trkpt>
      <trkpt lat="45.04885" lon="6.14161">
        <ele>1141.1</ele>
        <time>2026-08-25T08:45:46Z</time>
      </trkpt>
      <trkpt lat="45.04885" lon="6.14158">
        <ele>1141.4</ele>
        <time>2026-08-25T08:45:47Z</time>
      </trkpt>
      <trkpt lat="45.04886" lon="6.14156">
        <ele>1141.7</ele>
        <time>2026-08-25T08:45:48Z</time>
      </trkpt>
      <trkpt lat="45.04886" lon="6.14153">
        <ele>1142</ele>
        <time>2026-08-25T08:45:49Z</time>
      </trkpt>
      <trkpt lat="45.04886" lon="6.1415">
        <ele>1142.3</ele>
        <time>2026-08-25T08:45:50Z</time>
      </trkpt>
      <trkpt lat="45.04886" lon="6.14148">
        <ele>1142.6</ele>
        <time>2026-08-25T08:45:51Z</time>
      </trkpt>
      <trkpt lat="45.04886" lon="6.14146">
        <ele>1142.8</ele>
        <time>2026-08-25T08:45:52Z</time>
      </trkpt>
      <trkpt lat="45.04886" lon="6.14143">
        <ele>1143.1</ele>
        <time>2026-08-25T08:45:53Z</time>
      </trkpt>
      <trkpt lat="45.04886" lon="6.14141">
        <ele>1143.3</ele>
        <time>2026-08-25T08:45:54Z</time>
      </trkpt>
      <trkpt lat="45.04886" lon="6.14139">
        <ele>1143.6</ele>
        <time>2026-08-25T08:45:55Z</time>
      </trkpt>
      <trkpt lat="45.04886" lon="6.14137">
        <ele>1143.9</ele>
        <time>2026-08-25T08:45:56Z</time>
      </trkpt>
      <trkpt lat="45.04887" lon="6.14134">
        <ele>1144.2</ele>
        <time>2026-08-25T08:45:57Z</time>
      </trkpt>
      <trkpt lat="45.04887" lon="6.14132">
        <ele>1144.5</ele>
        <time>2026-08-25T08:45:58Z</time>
      </trkpt>
      <trkpt lat="45.04887" lon="6.14129">
        <ele>1144.8</ele>
        <time>2026-08-25T08:45:59Z</time>
      </trkpt>
      <trkpt lat="45.04887" lon="6.14126">
        <ele>1145.1</ele>
        <time>2026-08-25T08:46:00Z</time>
      </trkpt>
      <trkpt lat="45.04888" lon="6.14124">
        <ele>1145.4</ele>
        <time>2026-08-25T08:46:01Z</time>
      </trkpt>
      <trkpt lat="45.04889" lon="6.14122">
        <ele>1145.7</ele>
        <time>2026-08-25T08:46:02Z</time>
      </trkpt>
      <trkpt lat="45.04889" lon="6.14119">
        <ele>1146</ele>
        <time>2026-08-25T08:46:03Z</time>
      </trkpt>
      <trkpt lat="45.0489" lon="6.14116">
        <ele>1146.4</ele>
        <time>2026-08-25T08:46:04Z</time>
      </trkpt>
      <trkpt lat="45.04891" lon="6.14113">
        <ele>1146.7</ele>
        <time>2026-08-25T08:46:05Z</time>
      </trkpt>
      <trkpt lat="45.04891" lon="6.1411">
        <ele>1147</ele>
        <time>2026-08-25T08:46:06Z</time>
      </trkpt>
      <trkpt lat="45.04892" lon="6.14108">
        <ele>1147.1</ele>
        <time>2026-08-25T08:46:07Z</time>
      </trkpt>
      <trkpt lat="45.04893" lon="6.14106">
        <ele>1147.1</ele>
        <time>2026-08-25T08:46:08Z</time>
      </trkpt>
      <trkpt lat="45.04894" lon="6.14105">
        <ele>1147.1</ele>
        <time>2026-08-25T08:46:09Z</time>
      </trkpt>
      <trkpt lat="45.04895" lon="6.14103">
        <ele>1147.1</ele>
        <time>2026-08-25T08:46:10Z</time>
      </trkpt>
      <trkpt lat="45.04895" lon="6.14101">
        <ele>1147.1</ele>
        <time>2026-08-25T08:46:11Z</time>
      </trkpt>
      <trkpt lat="45.04896" lon="6.14099">
        <ele>1147.1</ele>
        <time>2026-08-25T08:46:12Z</time>
      </trkpt>
      <trkpt lat="45.04898" lon="6.14097">
        <ele>1147.1</ele>
        <time>2026-08-25T08:46:13Z</time>
      </trkpt>
      <trkpt lat="45.04899" lon="6.14094">
        <ele>1147</ele>
        <time>2026-08-25T08:46:14Z</time>
      </trkpt>
      <trkpt lat="45.04899" lon="6.14092">
        <ele>1147</ele>
        <time>2026-08-25T08:46:15Z</time>
      </trkpt>
      <trkpt lat="45.049" lon="6.1409">
        <ele>1147</ele>
        <time>2026-08-25T08:46:16Z</time>
      </trkpt>
      <trkpt lat="45.04901" lon="6.14088">
        <ele>1147</ele>
        <time>2026-08-25T08:46:17Z</time>
      </trkpt>
      <trkpt lat="45.04901" lon="6.14086">
        <ele>1146.9</ele>
        <time>2026-08-25T08:46:18Z</time>
      </trkpt>
      <trkpt lat="45.04901" lon="6.14083">
        <ele>1146.9</ele>
        <time>2026-08-25T08:46:19Z</time>
      </trkpt>
      <trkpt lat="45.04902" lon="6.14081">
        <ele>1146.9</ele>
        <time>2026-08-25T08:46:20Z</time>
      </trkpt>
      <trkpt lat="45.04903" lon="6.14079">
        <ele>1146.9</ele>
        <time>2026-08-25T08:46:21Z</time>
      </trkpt>
      <trkpt lat="45.04904" lon="6.14077">
        <ele>1146.8</ele>
        <time>2026-08-25T08:46:22Z</time>
      </trkpt>
      <trkpt lat="45.04904" lon="6.14074">
        <ele>1146.8</ele>
        <time>2026-08-25T08:46:23Z</time>
      </trkpt>
      <trkpt lat="45.04905" lon="6.14071">
        <ele>1146.8</ele>
        <time>2026-08-25T08:46:24Z</time>
      </trkpt>
      <trkpt lat="45.04906" lon="6.14069">
        <ele>1146.8</ele>
        <time>2026-08-25T08:46:25Z</time>
      </trkpt>
      <trkpt lat="45.04907" lon="6.14066">
        <ele>1147.1</ele>
        <time>2026-08-25T08:46:26Z</time>
      </trkpt>
      <trkpt lat="45.04908" lon="6.14064">
        <ele>1147.4</ele>
        <time>2026-08-25T08:46:27Z</time>
      </trkpt>
      <trkpt lat="45.04909" lon="6.14062">
        <ele>1147.7</ele>
        <time>2026-08-25T08:46:28Z</time>
      </trkpt>
      <trkpt lat="45.0491" lon="6.1406">
        <ele>1147.9</ele>
        <time>2026-08-25T08:46:29Z</time>
      </trkpt>
      <trkpt lat="45.04911" lon="6.14057">
        <ele>1148.2</ele>
        <time>2026-08-25T08:46:30Z</time>
      </trkpt>
      <trkpt lat="45.04911" lon="6.14055">
        <ele>1148.5</ele>
        <time>2026-08-25T08:46:31Z</time>
      </trkpt>
      <trkpt lat="45.04912" lon="6.14053">
        <ele>1148.7</ele>
        <time>2026-08-25T08:46:32Z</time>
      </trkpt>
      <trkpt lat="45.04913" lon="6.1405">
        <ele>1149</ele>
        <time>2026-08-25T08:46:33Z</time>
      </trkpt>
      <trkpt lat="45.04914" lon="6.14048">
        <ele>1149.2</ele>
        <time>2026-08-25T08:46:34Z</time>
      </trkpt>
      <trkpt lat="45.04915" lon="6.14046">
        <ele>1149.5</ele>
        <time>2026-08-25T08:46:35Z</time>
      </trkpt>
      <trkpt lat="45.04916" lon="6.14044">
        <ele>1149.8</ele>
        <time>2026-08-25T08:46:36Z</time>
      </trkpt>
      <trkpt lat="45.04918" lon="6.14042">
        <ele>1150</ele>
        <time>2026-08-25T08:46:37Z</time>
      </trkpt>
      <trkpt lat="45.04919" lon="6.1404">
        <ele>1150.3</ele>
        <time>2026-08-25T08:46:38Z</time>
      </trkpt>
      <trkpt lat="45.0492" lon="6.14038">
        <ele>1150.6</ele>
        <time>2026-08-25T08:46:39Z</time>
      </trkpt>
      <trkpt lat="45.04922" lon="6.14037">
        <ele>1150.9</ele>
        <time>2026-08-25T08:46:40Z</time>
      </trkpt>
      <trkpt lat="45.04923" lon="6.14036">
        <ele>1151.2</ele>
        <time>2026-08-25T08:46:41Z</time>
      </trkpt>
      <trkpt lat="45.04925" lon="6.14034">
        <ele>1151.5</ele>
        <time>2026-08-25T08:46:42Z</time>
      </trkpt>
      <trkpt lat="45.04927" lon="6.14033">
        <ele>1151.8</ele>
        <time>2026-08-25T08:46:43Z</time>
      </trkpt>
      <trkpt lat="45.04928" lon="6.1403">
        <ele>1152.1</ele>
        <time>2026-08-25T08:46:44Z</time>
      </trkpt>
      <trkpt lat="45.04929" lon="6.14028">
        <ele>1152.3</ele>
        <time>2026-08-25T08:46:45Z</time>
      </trkpt>
      <trkpt lat="45.0493" lon="6.14026">
        <ele>1152.6</ele>
        <time>2026-08-25T08:46:46Z</time>
      </trkpt>
      <trkpt lat="45.04931" lon="6.14025">
        <ele>1152.9</ele>
        <time>2026-08-25T08:46:47Z</time>
      </trkpt>
      <trkpt lat="45.04932" lon="6.14023">
        <ele>1153.1</ele>
        <time>2026-08-25T08:46:48Z</time>
      </trkpt>
      <trkpt lat="45.04934" lon="6.14022">
        <ele>1153.5</ele>
        <time>2026-08-25T08:46:49Z</time>
      </trkpt>
      <trkpt lat="45.04935" lon="6.1402">
        <ele>1153.8</ele>
        <time>2026-08-25T08:46:50Z</time>
      </trkpt>
      <trkpt lat="45.04937" lon="6.14019">
        <ele>1154.1</ele>
        <time>2026-08-25T08:46:51Z</time>
      </trkpt>
      <trkpt lat="45.04939" lon="6.14018">
        <ele>1154.4</ele>
        <time>2026-08-25T08:46:52Z</time>
      </trkpt>
      <trkpt lat="45.0494" lon="6.14017">
        <ele>1154.7</ele>
        <time>2026-08-25T08:46:53Z</time>
      </trkpt>
      <trkpt lat="45.04942" lon="6.14015">
        <ele>1155.1</ele>
        <time>2026-08-25T08:46:54Z</time>
      </trkpt>
      <trkpt lat="45.04943" lon="6.14012">
        <ele>1155.4</ele>
        <time>2026-08-25T08:46:55Z</time>
      </trkpt>
      <trkpt lat="45.04944" lon="6.1401">
        <ele>1155.7</ele>
        <time>2026-08-25T08:46:56Z</time>
      </trkpt>
      <trkpt lat="45.04946" lon="6.14008">
        <ele>1156</ele>
        <time>2026-08-25T08:46:57Z</time>
      </trkpt>
      <trkpt lat="45.04947" lon="6.14007">
        <ele>1156.3</ele>
        <time>2026-08-25T08:46:58Z</time>
      </trkpt>
      <trkpt lat="45.04948" lon="6.14006">
        <ele>1156.5</ele>
        <time>2026-08-25T08:46:59Z</time>
      </trkpt>
      <trkpt lat="45.04949" lon="6.14005">
        <ele>1156.8</ele>
        <time>2026-08-25T08:47:00Z</time>
      </trkpt>
      <trkpt lat="45.04951" lon="6.14005">
        <ele>1157</ele>
        <time>2026-08-25T08:47:01Z</time>
      </trkpt>
      <trkpt lat="45.04953" lon="6.14005">
        <ele>1157.3</ele>
        <time>2026-08-25T08:47:02Z</time>
      </trkpt>
      <trkpt lat="45.04954" lon="6.14006">
        <ele>1157.5</ele>
        <time>2026-08-25T08:47:03Z</time>
      </trkpt>
      <trkpt lat="45.04955" lon="6.14008">
        <ele>1157.9</ele>
        <time>2026-08-25T08:47:04Z</time>
      </trkpt>
      <trkpt lat="45.04956" lon="6.1401">
        <ele>1158</ele>
        <time>2026-08-25T08:47:05Z</time>
      </trkpt>
      <trkpt lat="45.04956" lon="6.14013">
        <ele>1158.2</ele>
        <time>2026-08-25T08:47:06Z</time>
      </trkpt>
      <trkpt lat="45.04956" lon="6.14016">
        <ele>1158.3</ele>
        <time>2026-08-25T08:47:07Z</time>
      </trkpt>
      <trkpt lat="45.04955" lon="6.14018">
        <ele>1158.4</ele>
        <time>2026-08-25T08:47:08Z</time>
      </trkpt>
      <trkpt lat="45.04954" lon="6.1402">
        <ele>1158.5</ele>
        <time>2026-08-25T08:47:09Z</time>
      </trkpt>
      <trkpt lat="45.04953" lon="6.14023">
        <ele>1158.7</ele>
        <time>2026-08-25T08:47:10Z</time>
      </trkpt>
      <trkpt lat="45.04951" lon="6.14025">
        <ele>1158.8</ele>
        <time>2026-08-25T08:47:11Z</time>
      </trkpt>
      <trkpt lat="45.04949" lon="6.14027">
        <ele>1158.9</ele>
        <time>2026-08-25T08:47:12Z</time>
      </trkpt>
      <trkpt lat="45.04949" lon="6.14029">
        <ele>1159</ele>
        <time>2026-08-25T08:47:13Z</time>
      </trkpt>
      <trkpt lat="45.04947" lon="6.14031">
        <ele>1159.1</ele>
        <time>2026-08-25T08:47:14Z</time>
      </trkpt>
      <trkpt lat="45.04946" lon="6.14032">
        <ele>1159.2</ele>
        <time>2026-08-25T08:47:15Z</time>
      </trkpt>
      <trkpt lat="45.04945" lon="6.14034">
        <ele>1159.3</ele>
        <time>2026-08-25T08:47:16Z</time>
      </trkpt>
      <trkpt lat="45.04945" lon="6.14036">
        <ele>1159.4</ele>
        <time>2026-08-25T08:47:17Z</time>
      </trkpt>
      <trkpt lat="45.04944" lon="6.14039">
        <ele>1159.6</ele>
        <time>2026-08-25T08:47:18Z</time>
      </trkpt>
      <trkpt lat="45.04943" lon="6.14041">
        <ele>1159.7</ele>
        <time>2026-08-25T08:47:19Z</time>
      </trkpt>
      <trkpt lat="45.04942" lon="6.14042">
        <ele>1159.8</ele>
        <time>2026-08-25T08:47:20Z</time>
      </trkpt>
      <trkpt lat="45.04941" lon="6.14044">
        <ele>1159.9</ele>
        <time>2026-08-25T08:47:21Z</time>
      </trkpt>
      <trkpt lat="45.0494" lon="6.14046">
        <ele>1160.1</ele>
        <time>2026-08-25T08:47:22Z</time>
      </trkpt>
      <trkpt lat="45.04939" lon="6.14049">
        <ele>1160.2</ele>
        <time>2026-08-25T08:47:23Z</time>
      </trkpt>
      <trkpt lat="45.04938" lon="6.14051">
        <ele>1160.4</ele>
        <time>2026-08-25T08:47:24Z</time>
      </trkpt>
      <trkpt lat="45.04937" lon="6.14053">
        <ele>1160.5</ele>
        <time>2026-08-25T08:47:25Z</time>
      </trkpt>
      <trkpt lat="45.04936" lon="6.14055">
        <ele>1160.6</ele>
        <time>2026-08-25T08:47:26Z</time>
      </trkpt>
      <trkpt lat="45.04936" lon="6.14057">
        <ele>1160.8</ele>
        <time>2026-08-25T08:47:27Z</time>
      </trkpt>
      <trkpt lat="45.04935" lon="6.14059">
        <ele>1160.9</ele>
        <time>2026-08-25T08:47:28Z</time>
      </trkpt>
      <trkpt lat="45.04935" lon="6.14062">
        <ele>1161.1</ele>
        <time>2026-08-25T08:47:29Z</time>
      </trkpt>
      <trkpt lat="45.04934" lon="6.14064">
        <ele>1161.3</ele>
        <time>2026-08-25T08:47:30Z</time>
      </trkpt>
      <trkpt lat="45.04934" lon="6.14066">
        <ele>1161.5</ele>
        <time>2026-08-25T08:47:31Z</time>
      </trkpt>
      <trkpt lat="45.04933" lon="6.14068">
        <ele>1161.6</ele>
        <time>2026-08-25T08:47:32Z</time>
      </trkpt>
      <trkpt lat="45.04932" lon="6.1407">
        <ele>1161.8</ele>
        <time>2026-08-25T08:47:33Z</time>
      </trkpt>
      <trkpt lat="45.04931" lon="6.14073">
        <ele>1162.1</ele>
        <time>2026-08-25T08:47:34Z</time>
      </trkpt>
      <trkpt lat="45.0493" lon="6.14075">
        <ele>1162.5</ele>
        <time>2026-08-25T08:47:35Z</time>
      </trkpt>
      <trkpt lat="45.0493" lon="6.14078">
        <ele>1163</ele>
        <time>2026-08-25T08:47:36Z</time>
      </trkpt>
      <trkpt lat="45.0493" lon="6.14081">
        <ele>1163.4</ele>
        <time>2026-08-25T08:47:37Z</time>
      </trkpt>
      <trkpt lat="45.0493" lon="6.14083">
        <ele>1163.8</ele>
        <time>2026-08-25T08:47:38Z</time>
      </trkpt>
      <trkpt lat="45.04929" lon="6.14085">
        <ele>1164.2</ele>
        <time>2026-08-25T08:47:39Z</time>
      </trkpt>
      <trkpt lat="45.04929" lon="6.14088">
        <ele>1164.6</ele>
        <time>2026-08-25T08:47:40Z</time>
      </trkpt>
      <trkpt lat="45.04929" lon="6.1409">
        <ele>1165</ele>
        <time>2026-08-25T08:47:41Z</time>
      </trkpt>
      <trkpt lat="45.04929" lon="6.14093">
        <ele>1165.4</ele>
        <time>2026-08-25T08:47:42Z</time>
      </trkpt>
      <trkpt lat="45.04929" lon="6.14096">
        <ele>1165.9</ele>
        <time>2026-08-25T08:47:43Z</time>
      </trkpt>
      <trkpt lat="45.04928" lon="6.14099">
        <ele>1166.3</ele>
        <time>2026-08-25T08:47:44Z</time>
      </trkpt>
      <trkpt lat="45.04928" lon="6.14101">
        <ele>1166.7</ele>
        <time>2026-08-25T08:47:45Z</time>
      </trkpt>
      <trkpt lat="45.04927" lon="6.14103">
        <ele>1167</ele>
        <time>2026-08-25T08:47:46Z</time>
      </trkpt>
      <trkpt lat="45.04927" lon="6.14107">
        <ele>1167.5</ele>
        <time>2026-08-25T08:47:47Z</time>
      </trkpt>
      <trkpt lat="45.04927" lon="6.1411">
        <ele>1168</ele>
        <time>2026-08-25T08:47:48Z</time>
      </trkpt>
      <trkpt lat="45.04927" lon="6.14113">
        <ele>1168.4</ele>
        <time>2026-08-25T08:47:49Z</time>
      </trkpt>
      <trkpt lat="45.04928" lon="6.14116">
        <ele>1168.9</ele>
        <time>2026-08-25T08:47:50Z</time>
      </trkpt>
      <trkpt lat="45.04928" lon="6.14119">
        <ele>1169.3</ele>
        <time>2026-08-25T08:47:51Z</time>
      </trkpt>
      <trkpt lat="45.04928" lon="6.14122">
        <ele>1169.7</ele>
        <time>2026-08-25T08:47:52Z</time>
      </trkpt>
      <trkpt lat="45.04929" lon="6.14124">
        <ele>1170.1</ele>
        <time>2026-08-25T08:47:53Z</time>
      </trkpt>
      <trkpt lat="45.04929" lon="6.14127">
        <ele>1170.5</ele>
        <time>2026-08-25T08:47:54Z</time>
      </trkpt>
      <trkpt lat="45.0493" lon="6.1413">
        <ele>1170.9</ele>
        <time>2026-08-25T08:47:55Z</time>
      </trkpt>
      <trkpt lat="45.04931" lon="6.14132">
        <ele>1171.2</ele>
        <time>2026-08-25T08:47:56Z</time>
      </trkpt>
      <trkpt lat="45.04932" lon="6.14134">
        <ele>1171.2</ele>
        <time>2026-08-25T08:47:57Z</time>
      </trkpt>
      <trkpt lat="45.04932" lon="6.14136">
        <ele>1171.3</ele>
        <time>2026-08-25T08:47:58Z</time>
      </trkpt>
      <trkpt lat="45.04933" lon="6.14138">
        <ele>1171.3</ele>
        <time>2026-08-25T08:47:59Z</time>
      </trkpt>
      <trkpt lat="45.04934" lon="6.14141">
        <ele>1171.4</ele>
        <time>2026-08-25T08:48:00Z</time>
      </trkpt>
      <trkpt lat="45.04935" lon="6.14143">
        <ele>1171.5</ele>
        <time>2026-08-25T08:48:01Z</time>
      </trkpt>
      <trkpt lat="45.04936" lon="6.14146">
        <ele>1171.5</ele>
        <time>2026-08-25T08:48:02Z</time>
      </trkpt>
      <trkpt lat="45.04937" lon="6.14148">
        <ele>1171.6</ele>
        <time>2026-08-25T08:48:03Z</time>
      </trkpt>
      <trkpt lat="45.04938" lon="6.14151">
        <ele>1171.7</ele>
        <time>2026-08-25T08:48:04Z</time>
      </trkpt>
      <trkpt lat="45.04939" lon="6.14154">
        <ele>1171.8</ele>
        <time>2026-08-25T08:48:05Z</time>
      </trkpt>
      <trkpt lat="45.0494" lon="6.14157">
        <ele>1171.9</ele>
        <time>2026-08-25T08:48:06Z</time>
      </trkpt>
      <trkpt lat="45.04941" lon="6.1416">
        <ele>1172</ele>
        <time>2026-08-25T08:48:07Z</time>
      </trkpt>
      <trkpt lat="45.04943" lon="6.14163">
        <ele>1172.1</ele>
        <time>2026-08-25T08:48:08Z</time>
      </trkpt>
      <trkpt lat="45.04944" lon="6.14166">
        <ele>1172.2</ele>
        <time>2026-08-25T08:48:09Z</time>
      </trkpt>
      <trkpt lat="45.04946" lon="6.14169">
        <ele>1172.3</ele>
        <time>2026-08-25T08:48:10Z</time>
      </trkpt>
      <trkpt lat="45.04947" lon="6.14172">
        <ele>1172.4</ele>
        <time>2026-08-25T08:48:11Z</time>
      </trkpt>
      <trkpt lat="45.04948" lon="6.14175">
        <ele>1172.6</ele>
        <time>2026-08-25T08:48:12Z</time>
      </trkpt>
      <trkpt lat="45.04949" lon="6.14178">
        <ele>1172.7</ele>
        <time>2026-08-25T08:48:13Z</time>
      </trkpt>
      <trkpt lat="45.0495" lon="6.14181">
        <ele>1172.8</ele>
        <time>2026-08-25T08:48:14Z</time>
      </trkpt>
      <trkpt lat="45.04951" lon="6.14184">
        <ele>1172.9</ele>
        <time>2026-08-25T08:48:15Z</time>
      </trkpt>
      <trkpt lat="45.04952" lon="6.14187">
        <ele>1173.1</ele>
        <time>2026-08-25T08:48:16Z</time>
      </trkpt>
      <trkpt lat="45.04953" lon="6.1419">
        <ele>1173.2</ele>
        <time>2026-08-25T08:48:17Z</time>
      </trkpt>
      <trkpt lat="45.04955" lon="6.14193">
        <ele>1173.4</ele>
        <time>2026-08-25T08:48:18Z</time>
      </trkpt>
      <trkpt lat="45.04956" lon="6.14196">
        <ele>1173.5</ele>
        <time>2026-08-25T08:48:19Z</time>
      </trkpt>
      <trkpt lat="45.04957" lon="6.14198">
        <ele>1173.6</ele>
        <time>2026-08-25T08:48:20Z</time>
      </trkpt>
      <trkpt lat="45.04958" lon="6.14201">
        <ele>1173.8</ele>
        <time>2026-08-25T08:48:21Z</time>
      </trkpt>
      <trkpt lat="45.04959" lon="6.14204">
        <ele>1174</ele>
        <time>2026-08-25T08:48:22Z</time>
      </trkpt>
      <trkpt lat="45.04961" lon="6.14206">
        <ele>1174.1</ele>
        <time>2026-08-25T08:48:23Z</time>
      </trkpt>
      <trkpt lat="45.04962" lon="6.14209">
        <ele>1174.3</ele>
        <time>2026-08-25T08:48:24Z</time>
      </trkpt>
      <trkpt lat="45.04963" lon="6.14211">
        <ele>1174.5</ele>
        <time>2026-08-25T08:48:25Z</time>
      </trkpt>
      <trkpt lat="45.04964" lon="6.14214">
        <ele>1174.7</ele>
        <time>2026-08-25T08:48:26Z</time>
      </trkpt>
      <trkpt lat="45.04966" lon="6.14216">
        <ele>1174.8</ele>
        <time>2026-08-25T08:48:27Z</time>
      </trkpt>
      <trkpt lat="45.04967" lon="6.14219">
        <ele>1175</ele>
        <time>2026-08-25T08:48:28Z</time>
      </trkpt>
      <trkpt lat="45.04968" lon="6.14221">
        <ele>1175.4</ele>
        <time>2026-08-25T08:48:29Z</time>
      </trkpt>
      <trkpt lat="45.0497" lon="6.14223">
        <ele>1176.2</ele>
        <time>2026-08-25T08:48:30Z</time>
      </trkpt>
      <trkpt lat="45.04972" lon="6.14226">
        <ele>1177</ele>
        <time>2026-08-25T08:48:31Z</time>
      </trkpt>
      <trkpt lat="45.04974" lon="6.14228">
        <ele>1177.6</ele>
        <time>2026-08-25T08:48:32Z</time>
      </trkpt>
      <trkpt lat="45.04976" lon="6.1423">
        <ele>1178.3</ele>
        <time>2026-08-25T08:48:33Z</time>
      </trkpt>
      <trkpt lat="45.04977" lon="6.14231">
        <ele>1179</ele>
        <time>2026-08-25T08:48:34Z</time>
      </trkpt>
      <trkpt lat="45.04978" lon="6.14234">
        <ele>1179.6</ele>
        <time>2026-08-25T08:48:35Z</time>
      </trkpt>
      <trkpt lat="45.0498" lon="6.14236">
        <ele>1180.2</ele>
        <time>2026-08-25T08:48:36Z</time>
      </trkpt>
      <trkpt lat="45.04982" lon="6.14238">
        <ele>1180.4</ele>
        <time>2026-08-25T08:48:37Z</time>
      </trkpt>
      <trkpt lat="45.04983" lon="6.1424">
        <ele>1180.4</ele>
        <time>2026-08-25T08:48:38Z</time>
      </trkpt>
      <trkpt lat="45.04985" lon="6.14243">
        <ele>1180.5</ele>
        <time>2026-08-25T08:48:39Z</time>
      </trkpt>
      <trkpt lat="45.04986" lon="6.14245">
        <ele>1180.6</ele>
        <time>2026-08-25T08:48:40Z</time>
      </trkpt>
      <trkpt lat="45.04987" lon="6.14248">
        <ele>1180.7</ele>
        <time>2026-08-25T08:48:41Z</time>
      </trkpt>
      <trkpt lat="45.04988" lon="6.1425">
        <ele>1180.8</ele>
        <time>2026-08-25T08:48:42Z</time>
      </trkpt>
      <trkpt lat="45.04989" lon="6.14253">
        <ele>1181</ele>
        <time>2026-08-25T08:48:43Z</time>
      </trkpt>
      <trkpt lat="45.0499" lon="6.14255">
        <ele>1181.1</ele>
        <time>2026-08-25T08:48:44Z</time>
      </trkpt>
      <trkpt lat="45.04991" lon="6.14258">
        <ele>1181.3</ele>
        <time>2026-08-25T08:48:45Z</time>
      </trkpt>
      <trkpt lat="45.04992" lon="6.14261">
        <ele>1181.4</ele>
        <time>2026-08-25T08:48:46Z</time>
      </trkpt>
      <trkpt lat="45.04993" lon="6.14263">
        <ele>1181.6</ele>
        <time>2026-08-25T08:48:47Z</time>
      </trkpt>
      <trkpt lat="45.04994" lon="6.14265">
        <ele>1181.7</ele>
        <time>2026-08-25T08:48:48Z</time>
      </trkpt>
      <trkpt lat="45.04995" lon="6.14268">
        <ele>1181.8</ele>
        <time>2026-08-25T08:48:49Z</time>
      </trkpt>
      <trkpt lat="45.04997" lon="6.14269">
        <ele>1181.9</ele>
        <time>2026-08-25T08:48:50Z</time>
      </trkpt>
      <trkpt lat="45.04998" lon="6.14271">
        <ele>1182.1</ele>
        <time>2026-08-25T08:48:51Z</time>
      </trkpt>
      <trkpt lat="45.05" lon="6.14272">
        <ele>1182.1</ele>
        <time>2026-08-25T08:48:52Z</time>
      </trkpt>
      <trkpt lat="45.05001" lon="6.14272">
        <ele>1182.2</ele>
        <time>2026-08-25T08:48:53Z</time>
      </trkpt>
      <trkpt lat="45.05002" lon="6.14272">
        <ele>1182.2</ele>
        <time>2026-08-25T08:48:54Z</time>
      </trkpt>
      <trkpt lat="45.05003" lon="6.14273">
        <ele>1182.3</ele>
        <time>2026-08-25T08:48:55Z</time>
      </trkpt>
      <trkpt lat="45.05005" lon="6.14274">
        <ele>1182.3</ele>
        <time>2026-08-25T08:48:56Z</time>
      </trkpt>
      <trkpt lat="45.05005" lon="6.14274">
        <ele>1182.4</ele>
        <time>2026-08-25T08:48:57Z</time>
      </trkpt>
      <trkpt lat="45.05006" lon="6.14275">
        <ele>1182.4</ele>
        <time>2026-08-25T08:48:58Z</time>
      </trkpt>
      <trkpt lat="45.05007" lon="6.14276">
        <ele>1182.5</ele>
        <time>2026-08-25T08:48:59Z</time>
      </trkpt>
      <trkpt lat="45.05007" lon="6.14276">
        <ele>1182.5</ele>
        <time>2026-08-25T08:49:00Z</time>
      </trkpt>
      <trkpt lat="45.05008" lon="6.14278">
        <ele>1182.5</ele>
        <time>2026-08-25T08:49:01Z</time>
      </trkpt>
      <trkpt lat="45.05008" lon="6.14279">
        <ele>1182.5</ele>
        <time>2026-08-25T08:49:02Z</time>
      </trkpt>
      <trkpt lat="45.05007" lon="6.14279">
        <ele>1182.5</ele>
        <time>2026-08-25T08:49:03Z</time>
      </trkpt>
      <trkpt lat="45.05007" lon="6.1428">
        <ele>1182.5</ele>
        <time>2026-08-25T08:49:04Z</time>
      </trkpt>
      <trkpt lat="45.05007" lon="6.14281">
        <ele>1182.5</ele>
        <time>2026-08-25T08:49:05Z</time>
      </trkpt>
      <trkpt lat="45.05007" lon="6.14281">
        <ele>1182.5</ele>
        <time>2026-08-25T08:49:06Z</time>
      </trkpt>
      <trkpt lat="45.05007" lon="6.14282">
        <ele>1182.5</ele>
        <time>2026-08-25T08:49:07Z</time>
      </trkpt>
      <trkpt lat="45.05007" lon="6.14282">
        <ele>1182.6</ele>
        <time>2026-08-25T08:49:08Z</time>
      </trkpt>
      <trkpt lat="45.05013" lon="6.1428">
        <ele>1182.6</ele>
        <time>2026-08-25T08:52:42Z</time>
      </trkpt>
      <trkpt lat="45.05015" lon="6.14281">
        <ele>1182.7</ele>
        <time>2026-08-25T08:52:43Z</time>
      </trkpt>
      <trkpt lat="45.05017" lon="6.14281">
        <ele>1182.6</ele>
        <time>2026-08-25T08:52:44Z</time>
      </trkpt>
      <trkpt lat="45.05019" lon="6.14282">
        <ele>1182.6</ele>
        <time>2026-08-25T08:52:45Z</time>
      </trkpt>
      <trkpt lat="45.0502" lon="6.14283">
        <ele>1182.6</ele>
        <time>2026-08-25T08:52:46Z</time>
      </trkpt>
      <trkpt lat="45.05022" lon="6.14284">
        <ele>1182.6</ele>
        <time>2026-08-25T08:52:47Z</time>
      </trkpt>
      <trkpt lat="45.05024" lon="6.14284">
        <ele>1182.5</ele>
        <time>2026-08-25T08:52:48Z</time>
      </trkpt>
      <trkpt lat="45.05026" lon="6.14286">
        <ele>1182.5</ele>
        <time>2026-08-25T08:52:49Z</time>
      </trkpt>
      <trkpt lat="45.05028" lon="6.14288">
        <ele>1182.4</ele>
        <time>2026-08-25T08:52:50Z</time>
      </trkpt>
      <trkpt lat="45.05031" lon="6.14289">
        <ele>1182.4</ele>
        <time>2026-08-25T08:52:51Z</time>
      </trkpt>
      <trkpt lat="45.05033" lon="6.14291">
        <ele>1182.3</ele>
        <time>2026-08-25T08:52:52Z</time>
      </trkpt>
      <trkpt lat="45.05035" lon="6.14291">
        <ele>1182.3</ele>
        <time>2026-08-25T08:52:53Z</time>
      </trkpt>
      <trkpt lat="45.05037" lon="6.14292">
        <ele>1182.2</ele>
        <time>2026-08-25T08:52:54Z</time>
      </trkpt>
      <trkpt lat="45.05039" lon="6.14292">
        <ele>1182.1</ele>
        <time>2026-08-25T08:52:55Z</time>
      </trkpt>
      <trkpt lat="45.05042" lon="6.14294">
        <ele>1182.1</ele>
        <time>2026-08-25T08:52:56Z</time>
      </trkpt>
      <trkpt lat="45.05044" lon="6.14296">
        <ele>1182</ele>
        <time>2026-08-25T08:52:57Z</time>
      </trkpt>
      <trkpt lat="45.05047" lon="6.14298">
        <ele>1181.9</ele>
        <time>2026-08-25T08:52:58Z</time>
      </trkpt>
      <trkpt lat="45.0505" lon="6.143">
        <ele>1181.8</ele>
        <time>2026-08-25T08:52:59Z</time>
      </trkpt>
      <trkpt lat="45.05052" lon="6.14302">
        <ele>1181.7</ele>
        <time>2026-08-25T08:53:00Z</time>
      </trkpt>
      <trkpt lat="45.05055" lon="6.14304">
        <ele>1181.7</ele>
        <time>2026-08-25T08:53:01Z</time>
      </trkpt>
      <trkpt lat="45.05058" lon="6.14306">
        <ele>1181.6</ele>
        <time>2026-08-25T08:53:02Z</time>
      </trkpt>
      <trkpt lat="45.05061" lon="6.14308">
        <ele>1181.5</ele>
        <time>2026-08-25T08:53:03Z</time>
      </trkpt>
      <trkpt lat="45.05064" lon="6.1431">
        <ele>1181.4</ele>
        <time>2026-08-25T08:53:04Z</time>
      </trkpt>
      <trkpt lat="45.05067" lon="6.14311">
        <ele>1181.4</ele>
        <time>2026-08-25T08:53:05Z</time>
      </trkpt>
      <trkpt lat="45.0507" lon="6.14311">
        <ele>1181.4</ele>
        <time>2026-08-25T08:53:06Z</time>
      </trkpt>
      <trkpt lat="45.05072" lon="6.14312">
        <ele>1181.4</ele>
        <time>2026-08-25T08:53:07Z</time>
      </trkpt>
      <trkpt lat="45.05076" lon="6.14311">
        <ele>1181.4</ele>
        <time>2026-08-25T08:53:08Z</time>
      </trkpt>
      <trkpt lat="45.05079" lon="6.14311">
        <ele>1181.3</ele>
        <time>2026-08-25T08:53:09Z</time>
      </trkpt>
      <trkpt lat="45.05083" lon="6.14311">
        <ele>1181.2</ele>
        <time>2026-08-25T08:53:10Z</time>
      </trkpt>
      <trkpt lat="45.05086" lon="6.14311">
        <ele>1181.1</ele>
        <time>2026-08-25T08:53:11Z</time>
      </trkpt>
      <trkpt lat="45.0509" lon="6.14311">
        <ele>1181</ele>
        <time>2026-08-25T08:53:12Z</time>
      </trkpt>
      <trkpt lat="45.05094" lon="6.14311">
        <ele>1180.9</ele>
        <time>2026-08-25T08:53:13Z</time>
      </trkpt>
      <trkpt lat="45.05098" lon="6.1431">
        <ele>1180.8</ele>
        <time>2026-08-25T08:53:14Z</time>
      </trkpt>
      <trkpt lat="45.05103" lon="6.14309">
        <ele>1180.7</ele>
        <time>2026-08-25T08:53:15Z</time>
      </trkpt>
      <trkpt lat="45.05108" lon="6.14308">
        <ele>1180.7</ele>
        <time>2026-08-25T08:53:16Z</time>
      </trkpt>
      <trkpt lat="45.05113" lon="6.14307">
        <ele>1180.7</ele>
        <time>2026-08-25T08:53:17Z</time>
      </trkpt>
      <trkpt lat="45.05118" lon="6.14306">
        <ele>1180.6</ele>
        <time>2026-08-25T08:53:18Z</time>
      </trkpt>
      <trkpt lat="45.05123" lon="6.14304">
        <ele>1180.6</ele>
        <time>2026-08-25T08:53:19Z</time>
      </trkpt>
      <trkpt lat="45.05127" lon="6.14303">
        <ele>1180.6</ele>
        <time>2026-08-25T08:53:20Z</time>
      </trkpt>
      <trkpt lat="45.05132" lon="6.14301">
        <ele>1180.6</ele>
        <time>2026-08-25T08:53:21Z</time>
      </trkpt>
      <trkpt lat="45.05135" lon="6.143">
        <ele>1180.6</ele>
        <time>2026-08-25T08:53:22Z</time>
      </trkpt>
      <trkpt lat="45.0514" lon="6.14299">
        <ele>1180.6</ele>
        <time>2026-08-25T08:53:23Z</time>
      </trkpt>
      <trkpt lat="45.05143" lon="6.14298">
        <ele>1180.5</ele>
        <time>2026-08-25T08:53:24Z</time>
      </trkpt>
      <trkpt lat="45.05147" lon="6.14296">
        <ele>1180.4</ele>
        <time>2026-08-25T08:53:25Z</time>
      </trkpt>
      <trkpt lat="45.05151" lon="6.14294">
        <ele>1180.4</ele>
        <time>2026-08-25T08:53:26Z</time>
      </trkpt>
      <trkpt lat="45.05155" lon="6.14292">
        <ele>1180.3</ele>
        <time>2026-08-25T08:53:27Z</time>
      </trkpt>
      <trkpt lat="45.05159" lon="6.1429">
        <ele>1180.3</ele>
        <time>2026-08-25T08:53:28Z</time>
      </trkpt>
      <trkpt lat="45.05163" lon="6.14289">
        <ele>1180.3</ele>
        <time>2026-08-25T08:53:29Z</time>
      </trkpt>
      <trkpt lat="45.05167" lon="6.14288">
        <ele>1180.3</ele>
        <time>2026-08-25T08:53:30Z</time>
      </trkpt>
      <trkpt lat="45.05171" lon="6.14285">
        <ele>1180.3</ele>
        <time>2026-08-25T08:53:31Z</time>
      </trkpt>
      <trkpt lat="45.05174" lon="6.14283">
        <ele>1180.3</ele>
        <time>2026-08-25T08:53:32Z</time>
      </trkpt>
      <trkpt lat="45.05178" lon="6.14281">
        <ele>1180.3</ele>
        <time>2026-08-25T08:53:33Z</time>
      </trkpt>
      <trkpt lat="45.05181" lon="6.1428">
        <ele>1180.4</ele>
        <time>2026-08-25T08:53:34Z</time>
      </trkpt>
      <trkpt lat="45.05185" lon="6.14279">
        <ele>1180.4</ele>
        <time>2026-08-25T08:53:35Z</time>
      </trkpt>
      <trkpt lat="45.05189" lon="6.14277">
        <ele>1180.5</ele>
        <time>2026-08-25T08:53:36Z</time>
      </trkpt>
      <trkpt lat="45.05193" lon="6.14276">
        <ele>1180.6</ele>
        <time>2026-08-25T08:53:37Z</time>
      </trkpt>
      <trkpt lat="45.05197" lon="6.14275">
        <ele>1180.6</ele>
        <time>2026-08-25T08:53:38Z</time>
      </trkpt>
      <trkpt lat="45.05201" lon="6.14275">
        <ele>1180.7</ele>
        <time>2026-08-25T08:53:39Z</time>
      </trkpt>
      <trkpt lat="45.05205" lon="6.14276">
        <ele>1180.8</ele>
        <time>2026-08-25T08:53:40Z</time>
      </trkpt>
      <trkpt lat="45.05209" lon="6.14277">
        <ele>1180.8</ele>
        <time>2026-08-25T08:53:41Z</time>
      </trkpt>
      <trkpt lat="45.05213" lon="6.14278">
        <ele>1180.9</ele>
        <time>2026-08-25T08:53:42Z</time>
      </trkpt>
      <trkpt lat="45.05217" lon="6.14279">
        <ele>1180.9</ele>
        <time>2026-08-25T08:53:43Z</time>
      </trkpt>
      <trkpt lat="45.0522" lon="6.1428">
        <ele>1180.9</ele>
        <time>2026-08-25T08:53:44Z</time>
      </trkpt>
      <trkpt lat="45.05223" lon="6.14282">
        <ele>1180.9</ele>
        <time>2026-08-25T08:53:45Z</time>
      </trkpt>
      <trkpt lat="45.05226" lon="6.14284">
        <ele>1180.9</ele>
        <time>2026-08-25T08:53:46Z</time>
      </trkpt>
      <trkpt lat="45.05229" lon="6.14286">
        <ele>1180.8</ele>
        <time>2026-08-25T08:53:47Z</time>
      </trkpt>
      <trkpt lat="45.05231" lon="6.14289">
        <ele>1180.8</ele>
        <time>2026-08-25T08:53:48Z</time>
      </trkpt>
      <trkpt lat="45.05235" lon="6.14292">
        <ele>1180.8</ele>
        <time>2026-08-25T08:53:49Z</time>
      </trkpt>
      <trkpt lat="45.05238" lon="6.14295">
        <ele>1180.7</ele>
        <time>2026-08-25T08:53:50Z</time>
      </trkpt>
      <trkpt lat="45.0524" lon="6.14298">
        <ele>1180.7</ele>
        <time>2026-08-25T08:53:51Z</time>
      </trkpt>
      <trkpt lat="45.05243" lon="6.143">
        <ele>1180.7</ele>
        <time>2026-08-25T08:53:52Z</time>
      </trkpt>
      <trkpt lat="45.05247" lon="6.14303">
        <ele>1180.8</ele>
        <time>2026-08-25T08:53:53Z</time>
      </trkpt>
      <trkpt lat="45.0525" lon="6.14306">
        <ele>1181</ele>
        <time>2026-08-25T08:53:54Z</time>
      </trkpt>
      <trkpt lat="45.05253" lon="6.14309">
        <ele>1181.1</ele>
        <time>2026-08-25T08:53:55Z</time>
      </trkpt>
      <trkpt lat="45.05256" lon="6.14312">
        <ele>1181.3</ele>
        <time>2026-08-25T08:53:56Z</time>
      </trkpt>
      <trkpt lat="45.05259" lon="6.14315">
        <ele>1181.5</ele>
        <time>2026-08-25T08:53:57Z</time>
      </trkpt>
      <trkpt lat="45.05263" lon="6.14318">
        <ele>1181.6</ele>
        <time>2026-08-25T08:53:58Z</time>
      </trkpt>
      <trkpt lat="45.05266" lon="6.14322">
        <ele>1181.8</ele>
        <time>2026-08-25T08:53:59Z</time>
      </trkpt>
      <trkpt lat="45.05269" lon="6.14325">
        <ele>1181.9</ele>
        <time>2026-08-25T08:54:00Z</time>
      </trkpt>
      <trkpt lat="45.05272" lon="6.14329">
        <ele>1182.1</ele>
        <time>2026-08-25T08:54:01Z</time>
      </trkpt>
      <trkpt lat="45.05276" lon="6.14333">
        <ele>1182.2</ele>
        <time>2026-08-25T08:54:02Z</time>
      </trkpt>
      <trkpt lat="45.05279" lon="6.14337">
        <ele>1182.4</ele>
        <time>2026-08-25T08:54:03Z</time>
      </trkpt>
      <trkpt lat="45.05282" lon="6.1434">
        <ele>1182.5</ele>
        <time>2026-08-25T08:54:04Z</time>
      </trkpt>
      <trkpt lat="45.05285" lon="6.14344">
        <ele>1182.6</ele>
        <time>2026-08-25T08:54:05Z</time>
      </trkpt>
      <trkpt lat="45.05288" lon="6.14348">
        <ele>1182.8</ele>
        <time>2026-08-25T08:54:06Z</time>
      </trkpt>
      <trkpt lat="45.05291" lon="6.14351">
        <ele>1183</ele>
        <time>2026-08-25T08:54:07Z</time>
      </trkpt>
      <trkpt lat="45.05294" lon="6.14355">
        <ele>1183.1</ele>
        <time>2026-08-25T08:54:08Z</time>
      </trkpt>
      <trkpt lat="45.05296" lon="6.14359">
        <ele>1183.3</ele>
        <time>2026-08-25T08:54:09Z</time>
      </trkpt>
      <trkpt lat="45.05299" lon="6.14364">
        <ele>1183.5</ele>
        <time>2026-08-25T08:54:10Z</time>
      </trkpt>
      <trkpt lat="45.05302" lon="6.14368">
        <ele>1183.7</ele>
        <time>2026-08-25T08:54:11Z</time>
      </trkpt>
      <trkpt lat="45.05304" lon="6.14372">
        <ele>1183.9</ele>
        <time>2026-08-25T08:54:12Z</time>
      </trkpt>
      <trkpt lat="45.05306" lon="6.14376">
        <ele>1184.1</ele>
        <time>2026-08-25T08:54:13Z</time>
      </trkpt>
      <trkpt lat="45.05309" lon="6.1438">
        <ele>1184.3</ele>
        <time>2026-08-25T08:54:14Z</time>
      </trkpt>
      <trkpt lat="45.05311" lon="6.14385">
        <ele>1184.6</ele>
        <time>2026-08-25T08:54:15Z</time>
      </trkpt>
      <trkpt lat="45.05314" lon="6.14389">
        <ele>1184.8</ele>
        <time>2026-08-25T08:54:16Z</time>
      </trkpt>
      <trkpt lat="45.05317" lon="6.14394">
        <ele>1185</ele>
        <time>2026-08-25T08:54:17Z</time>
      </trkpt>
      <trkpt lat="45.05319" lon="6.14398">
        <ele>1185.2</ele>
        <time>2026-08-25T08:54:18Z</time>
      </trkpt>
      <trkpt lat="45.05322" lon="6.14402">
        <ele>1185.5</ele>
        <time>2026-08-25T08:54:19Z</time>
      </trkpt>
      <trkpt lat="45.05325" lon="6.14407">
        <ele>1185.7</ele>
        <time>2026-08-25T08:54:20Z</time>
      </trkpt>
      <trkpt lat="45.05328" lon="6.14411">
        <ele>1186</ele>
        <time>2026-08-25T08:54:21Z</time>
      </trkpt>
      <trkpt lat="45.0533" lon="6.14414">
        <ele>1186.3</ele>
        <time>2026-08-25T08:54:22Z</time>
      </trkpt>
      <trkpt lat="45.05333" lon="6.14418">
        <ele>1186.5</ele>
        <time>2026-08-25T08:54:23Z</time>
      </trkpt>
      <trkpt lat="45.05336" lon="6.14421">
        <ele>1186.8</ele>
        <time>2026-08-25T08:54:24Z</time>
      </trkpt>
      <trkpt lat="45.05339" lon="6.14424">
        <ele>1187</ele>
        <time>2026-08-25T08:54:25Z</time>
      </trkpt>
      <trkpt lat="45.05342" lon="6.14427">
        <ele>1187.3</ele>
        <time>2026-08-25T08:54:26Z</time>
      </trkpt>
      <trkpt lat="45.05345" lon="6.14429">
        <ele>1187.6</ele>
        <time>2026-08-25T08:54:27Z</time>
      </trkpt>
      <trkpt lat="45.05348" lon="6.14432">
        <ele>1187.8</ele>
        <time>2026-08-25T08:54:28Z</time>
      </trkpt>
      <trkpt lat="45.05351" lon="6.14434">
        <ele>1188.1</ele>
        <time>2026-08-25T08:54:29Z</time>
      </trkpt>
      <trkpt lat="45.05354" lon="6.14436">
        <ele>1188.3</ele>
        <time>2026-08-25T08:54:30Z</time>
      </trkpt>
      <trkpt lat="45.05358" lon="6.14439">
        <ele>1188.6</ele>
        <time>2026-08-25T08:54:31Z</time>
      </trkpt>
      <trkpt lat="45.05361" lon="6.14441">
        <ele>1188.9</ele>
        <time>2026-08-25T08:54:32Z</time>
      </trkpt>
      <trkpt lat="45.05365" lon="6.14443">
        <ele>1189.1</ele>
        <time>2026-08-25T08:54:33Z</time>
      </trkpt>
      <trkpt lat="45.05369" lon="6.14445">
        <ele>1189.4</ele>
        <time>2026-08-25T08:54:34Z</time>
      </trkpt>
      <trkpt lat="45.05373" lon="6.14447">
        <ele>1189.7</ele>
        <time>2026-08-25T08:54:35Z</time>
      </trkpt>
      <trkpt lat="45.05376" lon="6.1445">
        <ele>1189.9</ele>
        <time>2026-08-25T08:54:36Z</time>
      </trkpt>
      <trkpt lat="45.0538" lon="6.14452">
        <ele>1190.1</ele>
        <time>2026-08-25T08:54:37Z</time>
      </trkpt>
      <trkpt lat="45.05383" lon="6.14453">
        <ele>1190.4</ele>
        <time>2026-08-25T08:54:38Z</time>
      </trkpt>
      <trkpt lat="45.05387" lon="6.14455">
        <ele>1190.5</ele>
        <time>2026-08-25T08:54:39Z</time>
      </trkpt>
      <trkpt lat="45.05391" lon="6.14457">
        <ele>1190.7</ele>
        <time>2026-08-25T08:54:40Z</time>
      </trkpt>
      <trkpt lat="45.05395" lon="6.14458">
        <ele>1190.9</ele>
        <time>2026-08-25T08:54:41Z</time>
      </trkpt>
      <trkpt lat="45.054" lon="6.14459">
        <ele>1191.1</ele>
        <time>2026-08-25T08:54:42Z</time>
      </trkpt>
      <trkpt lat="45.05404" lon="6.14459">
        <ele>1191.3</ele>
        <time>2026-08-25T08:54:43Z</time>
      </trkpt>
      <trkpt lat="45.05409" lon="6.1446">
        <ele>1191.6</ele>
        <time>2026-08-25T08:54:44Z</time>
      </trkpt>
      <trkpt lat="45.05413" lon="6.1446">
        <ele>1191.8</ele>
        <time>2026-08-25T08:54:45Z</time>
      </trkpt>
      <trkpt lat="45.05417" lon="6.14461">
        <ele>1192</ele>
        <time>2026-08-25T08:54:46Z</time>
      </trkpt>
      <trkpt lat="45.05421" lon="6.14462">
        <ele>1192.2</ele>
        <time>2026-08-25T08:54:47Z</time>
      </trkpt>
      <trkpt lat="45.05425" lon="6.14464">
        <ele>1192.4</ele>
        <time>2026-08-25T08:54:48Z</time>
      </trkpt>
      <trkpt lat="45.05428" lon="6.14466">
        <ele>1192.6</ele>
        <time>2026-08-25T08:54:49Z</time>
      </trkpt>
      <trkpt lat="45.05431" lon="6.14469">
        <ele>1192.8</ele>
        <time>2026-08-25T08:54:50Z</time>
      </trkpt>
      <trkpt lat="45.05434" lon="6.14473">
        <ele>1193</ele>
        <time>2026-08-25T08:54:51Z</time>
      </trkpt>
      <trkpt lat="45.05437" lon="6.14476">
        <ele>1193.1</ele>
        <time>2026-08-25T08:54:52Z</time>
      </trkpt>
      <trkpt lat="45.0544" lon="6.1448">
        <ele>1193.3</ele>
        <time>2026-08-25T08:54:53Z</time>
      </trkpt>
      <trkpt lat="45.05442" lon="6.14483">
        <ele>1193.5</ele>
        <time>2026-08-25T08:54:54Z</time>
      </trkpt>
      <trkpt lat="45.05445" lon="6.14487">
        <ele>1193.6</ele>
        <time>2026-08-25T08:54:55Z</time>
      </trkpt>
      <trkpt lat="45.05448" lon="6.14491">
        <ele>1193.8</ele>
        <time>2026-08-25T08:54:56Z</time>
      </trkpt>
      <trkpt lat="45.05451" lon="6.14494">
        <ele>1193.9</ele>
        <time>2026-08-25T08:54:57Z</time>
      </trkpt>
      <trkpt lat="45.05455" lon="6.14497">
        <ele>1194.1</ele>
        <time>2026-08-25T08:54:58Z</time>
      </trkpt>
      <trkpt lat="45.05458" lon="6.145">
        <ele>1194.2</ele>
        <time>2026-08-25T08:54:59Z</time>
      </trkpt>
      <trkpt lat="45.05462" lon="6.14503">
        <ele>1194.4</ele>
        <time>2026-08-25T08:55:00Z</time>
      </trkpt>
      <trkpt lat="45.05466" lon="6.14507">
        <ele>1194.6</ele>
        <time>2026-08-25T08:55:01Z</time>
      </trkpt>
      <trkpt lat="45.05469" lon="6.14509">
        <ele>1194.7</ele>
        <time>2026-08-25T08:55:02Z</time>
      </trkpt>
      <trkpt lat="45.05473" lon="6.14512">
        <ele>1194.9</ele>
        <time>2026-08-25T08:55:03Z</time>
      </trkpt>
      <trkpt lat="45.05477" lon="6.14514">
        <ele>1195.1</ele>
        <time>2026-08-25T08:55:04Z</time>
      </trkpt>
      <trkpt lat="45.05481" lon="6.14516">
        <ele>1195.3</ele>
        <time>2026-08-25T08:55:05Z</time>
      </trkpt>
      <trkpt lat="45.05485" lon="6.14518">
        <ele>1195.5</ele>
        <time>2026-08-25T08:55:06Z</time>
      </trkpt>
      <trkpt lat="45.05489" lon="6.1452">
        <ele>1195.7</ele>
        <time>2026-08-25T08:55:07Z</time>
      </trkpt>
      <trkpt lat="45.05492" lon="6.14522">
        <ele>1195.9</ele>
        <time>2026-08-25T08:55:08Z</time>
      </trkpt>
      <trkpt lat="45.05496" lon="6.14524">
        <ele>1196.1</ele>
        <time>2026-08-25T08:55:09Z</time>
      </trkpt>
      <trkpt lat="45.05499" lon="6.14527">
        <ele>1196.3</ele>
        <time>2026-08-25T08:55:10Z</time>
      </trkpt>
      <trkpt lat="45.05502" lon="6.14529">
        <ele>1196.5</ele>
        <time>2026-08-25T08:55:11Z</time>
      </trkpt>
      <trkpt lat="45.05505" lon="6.14532">
        <ele>1196.7</ele>
        <time>2026-08-25T08:55:12Z</time>
      </trkpt>
      <trkpt lat="45.05509" lon="6.14535">
        <ele>1196.8</ele>
        <time>2026-08-25T08:55:13Z</time>
      </trkpt>
      <trkpt lat="45.05512" lon="6.14537">
        <ele>1197</ele>
        <time>2026-08-25T08:55:14Z</time>
      </trkpt>
      <trkpt lat="45.05516" lon="6.1454">
        <ele>1197.1</ele>
        <time>2026-08-25T08:55:15Z</time>
      </trkpt>
      <trkpt lat="45.0552" lon="6.14542">
        <ele>1197.2</ele>
        <time>2026-08-25T08:55:16Z</time>
      </trkpt>
      <trkpt lat="45.05524" lon="6.14543">
        <ele>1197.3</ele>
        <time>2026-08-25T08:55:17Z</time>
      </trkpt>
      <trkpt lat="45.05529" lon="6.14545">
        <ele>1197.4</ele>
        <time>2026-08-25T08:55:18Z</time>
      </trkpt>
      <trkpt lat="45.05533" lon="6.14547">
        <ele>1197.4</ele>
        <time>2026-08-25T08:55:19Z</time>
      </trkpt>
      <trkpt lat="45.05537" lon="6.14549">
        <ele>1197.3</ele>
        <time>2026-08-25T08:55:20Z</time>
      </trkpt>
      <trkpt lat="45.05542" lon="6.1455">
        <ele>1197.2</ele>
        <time>2026-08-25T08:55:21Z</time>
      </trkpt>
      <trkpt lat="45.05547" lon="6.14552">
        <ele>1197.1</ele>
        <time>2026-08-25T08:55:22Z</time>
      </trkpt>
      <trkpt lat="45.05552" lon="6.14555">
        <ele>1197</ele>
        <time>2026-08-25T08:55:23Z</time>
      </trkpt>
      <trkpt lat="45.05557" lon="6.14558">
        <ele>1196.8</ele>
        <time>2026-08-25T08:55:24Z</time>
      </trkpt>
      <trkpt lat="45.05563" lon="6.14561">
        <ele>1196.5</ele>
        <time>2026-08-25T08:55:25Z</time>
      </trkpt>
      <trkpt lat="45.05569" lon="6.14564">
        <ele>1196.2</ele>
        <time>2026-08-25T08:55:26Z</time>
      </trkpt>
      <trkpt lat="45.05575" lon="6.14567">
        <ele>1195.8</ele>
        <time>2026-08-25T08:55:27Z</time>
      </trkpt>
      <trkpt lat="45.05582" lon="6.14568">
        <ele>1195.3</ele>
        <time>2026-08-25T08:55:28Z</time>
      </trkpt>
      <trkpt lat="45.05589" lon="6.14569">
        <ele>1194.8</ele>
        <time>2026-08-25T08:55:29Z</time>
      </trkpt>
      <trkpt lat="45.05596" lon="6.1457">
        <ele>1194.3</ele>
        <time>2026-08-25T08:55:30Z</time>
      </trkpt>
      <trkpt lat="45.05604" lon="6.14569">
        <ele>1193.6</ele>
        <time>2026-08-25T08:55:31Z</time>
      </trkpt>
      <trkpt lat="45.05613" lon="6.14568">
        <ele>1193</ele>
        <time>2026-08-25T08:55:32Z</time>
      </trkpt>
      <trkpt lat="45.05622" lon="6.14568">
        <ele>1192.3</ele>
        <time>2026-08-25T08:55:33Z</time>
      </trkpt>
      <trkpt lat="45.05632" lon="6.14569">
        <ele>1191.6</ele>
        <time>2026-08-25T08:55:34Z</time>
      </trkpt>
      <trkpt lat="45.05642" lon="6.14571">
        <ele>1190.9</ele>
        <time>2026-08-25T08:55:35Z</time>
      </trkpt>
      <trkpt lat="45.05652" lon="6.14577">
        <ele>1190.2</ele>
        <time>2026-08-25T08:55:36Z</time>
      </trkpt>
      <trkpt lat="45.0566" lon="6.14586">
        <ele>1189.3</ele>
        <time>2026-08-25T08:55:37Z</time>
      </trkpt>
      <trkpt lat="45.05666" lon="6.14598">
        <ele>1188.3</ele>
        <time>2026-08-25T08:55:38Z</time>
      </trkpt>
      <trkpt lat="45.05672" lon="6.14612">
        <ele>1187.2</ele>
        <time>2026-08-25T08:55:39Z</time>
      </trkpt>
      <trkpt lat="45.05679" lon="6.14627">
        <ele>1186.1</ele>
        <time>2026-08-25T08:55:40Z</time>
      </trkpt>
      <trkpt lat="45.05686" lon="6.1464">
        <ele>1184.9</ele>
        <time>2026-08-25T08:55:41Z</time>
      </trkpt>
      <trkpt lat="45.05695" lon="6.14652">
        <ele>1183.7</ele>
        <time>2026-08-25T08:55:42Z</time>
      </trkpt>
      <trkpt lat="45.05706" lon="6.14662">
        <ele>1182.4</ele>
        <time>2026-08-25T08:55:43Z</time>
      </trkpt>
      <trkpt lat="45.05716" lon="6.14673">
        <ele>1181.1</ele>
        <time>2026-08-25T08:55:44Z</time>
      </trkpt>
      <trkpt lat="45.05725" lon="6.14685">
        <ele>1179.7</ele>
        <time>2026-08-25T08:55:45Z</time>
      </trkpt>
      <trkpt lat="45.05733" lon="6.14699">
        <ele>1178.4</ele>
        <time>2026-08-25T08:55:46Z</time>
      </trkpt>
      <trkpt lat="45.05741" lon="6.1471">
        <ele>1177.1</ele>
        <time>2026-08-25T08:55:47Z</time>
      </trkpt>
      <trkpt lat="45.05751" lon="6.14719">
        <ele>1175.7</ele>
        <time>2026-08-25T08:55:48Z</time>
      </trkpt>
      <trkpt lat="45.05762" lon="6.14723">
        <ele>1174.3</ele>
        <time>2026-08-25T08:55:49Z</time>
      </trkpt>
      <trkpt lat="45.05774" lon="6.14725">
        <ele>1172.8</ele>
        <time>2026-08-25T08:55:50Z</time>
      </trkpt>
      <trkpt lat="45.05786" lon="6.14728">
        <ele>1171.3</ele>
        <time>2026-08-25T08:55:51Z</time>
      </trkpt>
      <trkpt lat="45.05798" lon="6.14735">
        <ele>1169.8</ele>
        <time>2026-08-25T08:55:52Z</time>
      </trkpt>
      <trkpt lat="45.05808" lon="6.14745">
        <ele>1168.4</ele>
        <time>2026-08-25T08:55:53Z</time>
      </trkpt>
      <trkpt lat="45.05818" lon="6.14757">
        <ele>1167.4</ele>
        <time>2026-08-25T08:55:54Z</time>
      </trkpt>
      <trkpt lat="45.05828" lon="6.14769">
        <ele>1166.6</ele>
        <time>2026-08-25T08:55:55Z</time>
      </trkpt>
      <trkpt lat="45.05839" lon="6.1478">
        <ele>1166.1</ele>
        <time>2026-08-25T08:55:56Z</time>
      </trkpt>
      <trkpt lat="45.05851" lon="6.14789">
        <ele>1165.6</ele>
        <time>2026-08-25T08:55:57Z</time>
      </trkpt>
      <trkpt lat="45.05862" lon="6.14796">
        <ele>1162.8</ele>
        <time>2026-08-25T08:55:58Z</time>
      </trkpt>
      <trkpt lat="45.05873" lon="6.14803">
        <ele>1161</ele>
        <time>2026-08-25T08:55:59Z</time>
      </trkpt>
      <trkpt lat="45.05882" lon="6.14811">
        <ele>1163.3</ele>
        <time>2026-08-25T08:56:00Z</time>
      </trkpt>
      <trkpt lat="45.05889" lon="6.14817">
        <ele>1165.4</ele>
        <time>2026-08-25T08:56:01Z</time>
      </trkpt>
      <trkpt lat="45.05895" lon="6.14823">
        <ele>1167.3</ele>
        <time>2026-08-25T08:56:02Z</time>
      </trkpt>
      <trkpt lat="45.05901" lon="6.14828">
        <ele>1169.1</ele>
        <time>2026-08-25T08:56:03Z</time>
      </trkpt>
      <trkpt lat="45.05905" lon="6.14831">
        <ele>1170.5</ele>
        <time>2026-08-25T08:56:04Z</time>
      </trkpt>
      <trkpt lat="45.05908" lon="6.14834">
        <ele>1171.7</ele>
        <time>2026-08-25T08:56:05Z</time>
      </trkpt>
      <trkpt lat="45.05911" lon="6.14837">
        <ele>1172.7</ele>
        <time>2026-08-25T08:56:06Z</time>
      </trkpt>
      <trkpt lat="45.05914" lon="6.14839">
        <ele>1173.7</ele>
        <time>2026-08-25T08:56:07Z</time>
      </trkpt>
      <trkpt lat="45.05916" lon="6.14842">
        <ele>1174.7</ele>
        <time>2026-08-25T08:56:08Z</time>
      </trkpt>
      <trkpt lat="45.05919" lon="6.14845">
        <ele>1175.7</ele>
        <time>2026-08-25T08:56:09Z</time>
      </trkpt>
      <trkpt lat="45.05921" lon="6.14847">
        <ele>1176.6</ele>
        <time>2026-08-25T08:56:10Z</time>
      </trkpt>
      <trkpt lat="45.05924" lon="6.14849">
        <ele>1177.4</ele>
        <time>2026-08-25T08:56:11Z</time>
      </trkpt>
      <trkpt lat="45.05926" lon="6.1485">
        <ele>1178</ele>
        <time>2026-08-25T08:56:12Z</time>
      </trkpt>
      <trkpt lat="45.05928" lon="6.14851">
        <ele>1178.7</ele>
        <time>2026-08-25T08:56:13Z</time>
      </trkpt>
      <trkpt lat="45.0593" lon="6.14854">
        <ele>1179.4</ele>
        <time>2026-08-25T08:56:14Z</time>
      </trkpt>
      <trkpt lat="45.05932" lon="6.14856">
        <ele>1180.2</ele>
        <time>2026-08-25T08:56:15Z</time>
      </trkpt>
      <trkpt lat="45.05935" lon="6.14858">
        <ele>1181</ele>
        <time>2026-08-25T08:56:16Z</time>
      </trkpt>
      <trkpt lat="45.05937" lon="6.1486">
        <ele>1181.7</ele>
        <time>2026-08-25T08:56:17Z</time>
      </trkpt>
      <trkpt lat="45.05939" lon="6.14862">
        <ele>1182.3</ele>
        <time>2026-08-25T08:56:18Z</time>
      </trkpt>
      <trkpt lat="45.0594" lon="6.14865">
        <ele>1182.9</ele>
        <time>2026-08-25T08:56:19Z</time>
      </trkpt>
      <trkpt lat="45.05942" lon="6.14866">
        <ele>1183.5</ele>
        <time>2026-08-25T08:56:20Z</time>
      </trkpt>
      <trkpt lat="45.05944" lon="6.14868">
        <ele>1184</ele>
        <time>2026-08-25T08:56:21Z</time>
      </trkpt>
      <trkpt lat="45.05946" lon="6.14871">
        <ele>1184.6</ele>
        <time>2026-08-25T08:56:22Z</time>
      </trkpt>
      <trkpt lat="45.05947" lon="6.14873">
        <ele>1185.1</ele>
        <time>2026-08-25T08:56:23Z</time>
      </trkpt>
      <trkpt lat="45.05949" lon="6.14875">
        <ele>1185.6</ele>
        <time>2026-08-25T08:56:24Z</time>
      </trkpt>
      <trkpt lat="45.0595" lon="6.14877">
        <ele>1186.2</ele>
        <time>2026-08-25T08:56:25Z</time>
      </trkpt>
      <trkpt lat="45.05952" lon="6.14879">
        <ele>1186.7</ele>
        <time>2026-08-25T08:56:26Z</time>
      </trkpt>
      <trkpt lat="45.05953" lon="6.14882">
        <ele>1187.3</ele>
        <time>2026-08-25T08:56:27Z</time>
      </trkpt>
      <trkpt lat="45.05955" lon="6.14884">
        <ele>1187.9</ele>
        <time>2026-08-25T08:56:28Z</time>
      </trkpt>
      <trkpt lat="45.05956" lon="6.14886">
        <ele>1188.5</ele>
        <time>2026-08-25T08:56:29Z</time>
      </trkpt>
      <trkpt lat="45.05958" lon="6.14889">
        <ele>1189.1</ele>
        <time>2026-08-25T08:56:30Z</time>
      </trkpt>
      <trkpt lat="45.05959" lon="6.14891">
        <ele>1189.6</ele>
        <time>2026-08-25T08:56:31Z</time>
      </trkpt>
      <trkpt lat="45.0596" lon="6.14894">
        <ele>1190.1</ele>
        <time>2026-08-25T08:56:32Z</time>
      </trkpt>
      <trkpt lat="45.05961" lon="6.14896">
        <ele>1190.6</ele>
        <time>2026-08-25T08:56:33Z</time>
      </trkpt>
      <trkpt lat="45.05963" lon="6.14898">
        <ele>1191.1</ele>
        <time>2026-08-25T08:56:34Z</time>
      </trkpt>
      <trkpt lat="45.05964" lon="6.14899">
        <ele>1191.6</ele>
        <time>2026-08-25T08:56:35Z</time>
      </trkpt>
      <trkpt lat="45.05966" lon="6.14902">
        <ele>1192.1</ele>
        <time>2026-08-25T08:56:36Z</time>
      </trkpt>
      <trkpt lat="45.05968" lon="6.14904">
        <ele>1192.7</ele>
        <time>2026-08-25T08:56:37Z</time>
      </trkpt>
      <trkpt lat="45.05969" lon="6.14906">
        <ele>1193.2</ele>
        <time>2026-08-25T08:56:38Z</time>
      </trkpt>
      <trkpt lat="45.0597" lon="6.14908">
        <ele>1193.7</ele>
        <time>2026-08-25T08:56:39Z</time>
      </trkpt>
      <trkpt lat="45.05972" lon="6.14911">
        <ele>1194.2</ele>
        <time>2026-08-25T08:56:40Z</time>
      </trkpt>
      <trkpt lat="45.05973" lon="6.14913">
        <ele>1194.7</ele>
        <time>2026-08-25T08:56:41Z</time>
      </trkpt>
      <trkpt lat="45.05974" lon="6.14915">
        <ele>1195.1</ele>
        <time>2026-08-25T08:56:42Z</time>
      </trkpt>
      <trkpt lat="45.05975" lon="6.14918">
        <ele>1195.7</ele>
        <time>2026-08-25T08:56:43Z</time>
      </trkpt>
      <trkpt lat="45.05976" lon="6.1492">
        <ele>1196.1</ele>
        <time>2026-08-25T08:56:44Z</time>
      </trkpt>
      <trkpt lat="45.05977" lon="6.14923">
        <ele>1196.6</ele>
        <time>2026-08-25T08:56:45Z</time>
      </trkpt>
      <trkpt lat="45.05978" lon="6.14926">
        <ele>1197.1</ele>
        <time>2026-08-25T08:56:46Z</time>
      </trkpt>
      <trkpt lat="45.05979" lon="6.14928">
        <ele>1197.5</ele>
        <time>2026-08-25T08:56:47Z</time>
      </trkpt>
      <trkpt lat="45.0598" lon="6.1493">
        <ele>1197.7</ele>
        <time>2026-08-25T08:56:48Z</time>
      </trkpt>
      <trkpt lat="45.0598" lon="6.14934">
        <ele>1198.1</ele>
        <time>2026-08-25T08:56:49Z</time>
      </trkpt>
      <trkpt lat="45.05981" lon="6.14936">
        <ele>1198.4</ele>
        <time>2026-08-25T08:56:50Z</time>
      </trkpt>
      <trkpt lat="45.05981" lon="6.14939">
        <ele>1198.8</ele>
        <time>2026-08-25T08:56:51Z</time>
      </trkpt>
      <trkpt lat="45.05982" lon="6.14943">
        <ele>1199.1</ele>
        <time>2026-08-25T08:56:52Z</time>
      </trkpt>
      <trkpt lat="45.05982" lon="6.14945">
        <ele>1199.4</ele>
        <time>2026-08-25T08:56:53Z</time>
      </trkpt>
      <trkpt lat="45.05983" lon="6.14948">
        <ele>1199.7</ele>
        <time>2026-08-25T08:56:54Z</time>
      </trkpt>
      <trkpt lat="45.05984" lon="6.14951">
        <ele>1200</ele>
        <time>2026-08-25T08:56:55Z</time>
      </trkpt>
      <trkpt lat="45.05985" lon="6.14953">
        <ele>1200.3</ele>
        <time>2026-08-25T08:56:56Z</time>
      </trkpt>
      <trkpt lat="45.05987" lon="6.14954">
        <ele>1200.5</ele>
        <time>2026-08-25T08:56:57Z</time>
      </trkpt>
      <trkpt lat="45.0599" lon="6.14955">
        <ele>1200.8</ele>
        <time>2026-08-25T08:56:58Z</time>
      </trkpt>
      <trkpt lat="45.05992" lon="6.14955">
        <ele>1201.1</ele>
        <time>2026-08-25T08:56:59Z</time>
      </trkpt>
      <trkpt lat="45.05995" lon="6.14954">
        <ele>1201.4</ele>
        <time>2026-08-25T08:57:00Z</time>
      </trkpt>
      <trkpt lat="45.05997" lon="6.14953">
        <ele>1201.6</ele>
        <time>2026-08-25T08:57:01Z</time>
      </trkpt>
      <trkpt lat="45.05999" lon="6.1495">
        <ele>1201.8</ele>
        <time>2026-08-25T08:57:02Z</time>
      </trkpt>
      <trkpt lat="45.06001" lon="6.14947">
        <ele>1202</ele>
        <time>2026-08-25T08:57:03Z</time>
      </trkpt>
      <trkpt lat="45.06001" lon="6.14944">
        <ele>1202.2</ele>
        <time>2026-08-25T08:57:04Z</time>
      </trkpt>
      <trkpt lat="45.06002" lon="6.1494">
        <ele>1202.4</ele>
        <time>2026-08-25T08:57:05Z</time>
      </trkpt>
      <trkpt lat="45.06001" lon="6.14937">
        <ele>1202.5</ele>
        <time>2026-08-25T08:57:06Z</time>
      </trkpt>
      <trkpt lat="45.06" lon="6.14934">
        <ele>1202.6</ele>
        <time>2026-08-25T08:57:07Z</time>
      </trkpt>
      <trkpt lat="45.05999" lon="6.14931">
        <ele>1202.8</ele>
        <time>2026-08-25T08:57:08Z</time>
      </trkpt>
      <trkpt lat="45.05998" lon="6.14928">
        <ele>1202.9</ele>
        <time>2026-08-25T08:57:09Z</time>
      </trkpt>
      <trkpt lat="45.05996" lon="6.14926">
        <ele>1203</ele>
        <time>2026-08-25T08:57:10Z</time>
      </trkpt>
      <trkpt lat="45.05995" lon="6.14923">
        <ele>1203.2</ele>
        <time>2026-08-25T08:57:11Z</time>
      </trkpt>
      <trkpt lat="45.05994" lon="6.1492">
        <ele>1203.3</ele>
        <time>2026-08-25T08:57:12Z</time>
      </trkpt>
      <trkpt lat="45.05993" lon="6.14918">
        <ele>1203.4</ele>
        <time>2026-08-25T08:57:13Z</time>
      </trkpt>
      <trkpt lat="45.05992" lon="6.14915">
        <ele>1203.6</ele>
        <time>2026-08-25T08:57:14Z</time>
      </trkpt>
      <trkpt lat="45.0599" lon="6.14912">
        <ele>1203.7</ele>
        <time>2026-08-25T08:57:15Z</time>
      </trkpt>
      <trkpt lat="45.05989" lon="6.14909">
        <ele>1203.8</ele>
        <time>2026-08-25T08:57:16Z</time>
      </trkpt>
      <trkpt lat="45.05988" lon="6.14906">
        <ele>1204</ele>
        <time>2026-08-25T08:57:17Z</time>
      </trkpt>
      <trkpt lat="45.05987" lon="6.14903">
        <ele>1204.1</ele>
        <time>2026-08-25T08:57:18Z</time>
      </trkpt>
      <trkpt lat="45.05986" lon="6.149">
        <ele>1204.2</ele>
        <time>2026-08-25T08:57:19Z</time>
      </trkpt>
      <trkpt lat="45.05985" lon="6.14898">
        <ele>1204.4</ele>
        <time>2026-08-25T08:57:20Z</time>
      </trkpt>
      <trkpt lat="45.05984" lon="6.14895">
        <ele>1204.5</ele>
        <time>2026-08-25T08:57:21Z</time>
      </trkpt>
      <trkpt lat="45.05983" lon="6.14893">
        <ele>1204.7</ele>
        <time>2026-08-25T08:57:22Z</time>
      </trkpt>
      <trkpt lat="45.05982" lon="6.1489">
        <ele>1204.9</ele>
        <time>2026-08-25T08:57:23Z</time>
      </trkpt>
      <trkpt lat="45.05981" lon="6.14887">
        <ele>1205</ele>
        <time>2026-08-25T08:57:24Z</time>
      </trkpt>
      <trkpt lat="45.0598" lon="6.14885">
        <ele>1205.2</ele>
        <time>2026-08-25T08:57:25Z</time>
      </trkpt>
      <trkpt lat="45.05979" lon="6.14882">
        <ele>1205.4</ele>
        <time>2026-08-25T08:57:26Z</time>
      </trkpt>
      <trkpt lat="45.05978" lon="6.14879">
        <ele>1205.6</ele>
        <time>2026-08-25T08:57:27Z</time>
      </trkpt>
      <trkpt lat="45.05977" lon="6.14877">
        <ele>1205.7</ele>
        <time>2026-08-25T08:57:28Z</time>
      </trkpt>
      <trkpt lat="45.05976" lon="6.14875">
        <ele>1205.9</ele>
        <time>2026-08-25T08:57:29Z</time>
      </trkpt>
      <trkpt lat="45.05974" lon="6.14872">
        <ele>1206.1</ele>
        <time>2026-08-25T08:57:30Z</time>
      </trkpt>
      <trkpt lat="45.05973" lon="6.1487">
        <ele>1206.3</ele>
        <time>2026-08-25T08:57:31Z</time>
      </trkpt>
      <trkpt lat="45.05972" lon="6.14867">
        <ele>1206.4</ele>
        <time>2026-08-25T08:57:32Z</time>
      </trkpt>
      <trkpt lat="45.05971" lon="6.14865">
        <ele>1206.6</ele>
        <time>2026-08-25T08:57:33Z</time>
      </trkpt>
      <trkpt lat="45.0597" lon="6.14863">
        <ele>1206.8</ele>
        <time>2026-08-25T08:57:34Z</time>
      </trkpt>
      <trkpt lat="45.05969" lon="6.1486">
        <ele>1207</ele>
        <time>2026-08-25T08:57:35Z</time>
      </trkpt>
      <trkpt lat="45.05968" lon="6.14857">
        <ele>1207.2</ele>
        <time>2026-08-25T08:57:36Z</time>
      </trkpt>
      <trkpt lat="45.05967" lon="6.14855">
        <ele>1207.4</ele>
        <time>2026-08-25T08:57:37Z</time>
      </trkpt>
      <trkpt lat="45.05966" lon="6.14852">
        <ele>1207.6</ele>
        <time>2026-08-25T08:57:38Z</time>
      </trkpt>
      <trkpt lat="45.05965" lon="6.1485">
        <ele>1207.7</ele>
        <time>2026-08-25T08:57:39Z</time>
      </trkpt>
      <trkpt lat="45.05964" lon="6.14847">
        <ele>1208</ele>
        <time>2026-08-25T08:57:40Z</time>
      </trkpt>
      <trkpt lat="45.05963" lon="6.14845">
        <ele>1208.1</ele>
        <time>2026-08-25T08:57:41Z</time>
      </trkpt>
      <trkpt lat="45.05963" lon="6.14842">
        <ele>1208.3</ele>
        <time>2026-08-25T08:57:42Z</time>
      </trkpt>
      <trkpt lat="45.05962" lon="6.14839">
        <ele>1208.5</ele>
        <time>2026-08-25T08:57:43Z</time>
      </trkpt>
      <trkpt lat="45.05961" lon="6.14837">
        <ele>1208.7</ele>
        <time>2026-08-25T08:57:44Z</time>
      </trkpt>
      <trkpt lat="45.0596" lon="6.14834">
        <ele>1208.9</ele>
        <time>2026-08-25T08:57:45Z</time>
      </trkpt>
      <trkpt lat="45.05959" lon="6.14831">
        <ele>1209.1</ele>
        <time>2026-08-25T08:57:46Z</time>
      </trkpt>
      <trkpt lat="45.05959" lon="6.14828">
        <ele>1209.4</ele>
        <time>2026-08-25T08:57:47Z</time>
      </trkpt>
      <trkpt lat="45.05958" lon="6.14825">
        <ele>1209.6</ele>
        <time>2026-08-25T08:57:48Z</time>
      </trkpt>
      <trkpt lat="45.05957" lon="6.14823">
        <ele>1209.8</ele>
        <time>2026-08-25T08:57:49Z</time>
      </trkpt>
      <trkpt lat="45.05957" lon="6.1482">
        <ele>1210.1</ele>
        <time>2026-08-25T08:57:50Z</time>
      </trkpt>
      <trkpt lat="45.05956" lon="6.14817">
        <ele>1210.3</ele>
        <time>2026-08-25T08:57:51Z</time>
      </trkpt>
      <trkpt lat="45.05955" lon="6.14813">
        <ele>1210.6</ele>
        <time>2026-08-25T08:57:52Z</time>
      </trkpt>
      <trkpt lat="45.05955" lon="6.14811">
        <ele>1210.8</ele>
        <time>2026-08-25T08:57:53Z</time>
      </trkpt>
      <trkpt lat="45.05954" lon="6.14808">
        <ele>1211</ele>
        <time>2026-08-25T08:57:54Z</time>
      </trkpt>
      <trkpt lat="45.05954" lon="6.14805">
        <ele>1211.2</ele>
        <time>2026-08-25T08:57:55Z</time>
      </trkpt>
      <trkpt lat="45.05953" lon="6.14803">
        <ele>1211.4</ele>
        <time>2026-08-25T08:57:56Z</time>
      </trkpt>
      <trkpt lat="45.05952" lon="6.148">
        <ele>1211.6</ele>
        <time>2026-08-25T08:57:57Z</time>
      </trkpt>
      <trkpt lat="45.05952" lon="6.14797">
        <ele>1211.8</ele>
        <time>2026-08-25T08:57:58Z</time>
      </trkpt>
      <trkpt lat="45.05951" lon="6.14795">
        <ele>1212</ele>
        <time>2026-08-25T08:57:59Z</time>
      </trkpt>
      <trkpt lat="45.05951" lon="6.14792">
        <ele>1212.2</ele>
        <time>2026-08-25T08:58:00Z</time>
      </trkpt>
      <trkpt lat="45.05951" lon="6.14789">
        <ele>1212.4</ele>
        <time>2026-08-25T08:58:01Z</time>
      </trkpt>
      <trkpt lat="45.0595" lon="6.14786">
        <ele>1212.6</ele>
        <time>2026-08-25T08:58:02Z</time>
      </trkpt>
      <trkpt lat="45.0595" lon="6.14783">
        <ele>1212.9</ele>
        <time>2026-08-25T08:58:03Z</time>
      </trkpt>
      <trkpt lat="45.05949" lon="6.1478">
        <ele>1213.1</ele>
        <time>2026-08-25T08:58:04Z</time>
      </trkpt>
      <trkpt lat="45.05948" lon="6.14778">
        <ele>1213.3</ele>
        <time>2026-08-25T08:58:05Z</time>
      </trkpt>
      <trkpt lat="45.05947" lon="6.14775">
        <ele>1213.5</ele>
        <time>2026-08-25T08:58:06Z</time>
      </trkpt>
      <trkpt lat="45.05947" lon="6.14772">
        <ele>1213.7</ele>
        <time>2026-08-25T08:58:07Z</time>
      </trkpt>
      <trkpt lat="45.05946" lon="6.1477">
        <ele>1213.9</ele>
        <time>2026-08-25T08:58:08Z</time>
      </trkpt>
      <trkpt lat="45.05945" lon="6.14767">
        <ele>1214.1</ele>
        <time>2026-08-25T08:58:09Z</time>
      </trkpt>
      <trkpt lat="45.05945" lon="6.14764">
        <ele>1214.4</ele>
        <time>2026-08-25T08:58:10Z</time>
      </trkpt>
      <trkpt lat="45.05944" lon="6.14762">
        <ele>1214.6</ele>
        <time>2026-08-25T08:58:11Z</time>
      </trkpt>
      <trkpt lat="45.05943" lon="6.14759">
        <ele>1214.8</ele>
        <time>2026-08-25T08:58:12Z</time>
      </trkpt>
      <trkpt lat="45.05942" lon="6.14757">
        <ele>1215</ele>
        <time>2026-08-25T08:58:13Z</time>
      </trkpt>
      <trkpt lat="45.05941" lon="6.14754">
        <ele>1215.2</ele>
        <time>2026-08-25T08:58:14Z</time>
      </trkpt>
      <trkpt lat="45.0594" lon="6.14751">
        <ele>1215.5</ele>
        <time>2026-08-25T08:58:15Z</time>
      </trkpt>
      <trkpt lat="45.05939" lon="6.14748">
        <ele>1215.7</ele>
        <time>2026-08-25T08:58:16Z</time>
      </trkpt>
      <trkpt lat="45.05938" lon="6.14746">
        <ele>1215.9</ele>
        <time>2026-08-25T08:58:17Z</time>
      </trkpt>
      <trkpt lat="45.05937" lon="6.14744">
        <ele>1216.1</ele>
        <time>2026-08-25T08:58:18Z</time>
      </trkpt>
      <trkpt lat="45.05936" lon="6.14741">
        <ele>1216.3</ele>
        <time>2026-08-25T08:58:19Z</time>
      </trkpt>
      <trkpt lat="45.05935" lon="6.14739">
        <ele>1216.6</ele>
        <time>2026-08-25T08:58:20Z</time>
      </trkpt>
      <trkpt lat="45.05934" lon="6.14736">
        <ele>1216.8</ele>
        <time>2026-08-25T08:58:21Z</time>
      </trkpt>
      <trkpt lat="45.05933" lon="6.14733">
        <ele>1217.1</ele>
        <time>2026-08-25T08:58:22Z</time>
      </trkpt>
      <trkpt lat="45.05932" lon="6.14731">
        <ele>1217.3</ele>
        <time>2026-08-25T08:58:23Z</time>
      </trkpt>
      <trkpt lat="45.05931" lon="6.14728">
        <ele>1217.5</ele>
        <time>2026-08-25T08:58:24Z</time>
      </trkpt>
      <trkpt lat="45.0593" lon="6.14725">
        <ele>1217.8</ele>
        <time>2026-08-25T08:58:25Z</time>
      </trkpt>
      <trkpt lat="45.05929" lon="6.14722">
        <ele>1218</ele>
        <time>2026-08-25T08:58:26Z</time>
      </trkpt>
      <trkpt lat="45.05928" lon="6.14719">
        <ele>1218.2</ele>
        <time>2026-08-25T08:58:27Z</time>
      </trkpt>
      <trkpt lat="45.05927" lon="6.14717">
        <ele>1218.4</ele>
        <time>2026-08-25T08:58:28Z</time>
      </trkpt>
      <trkpt lat="45.05926" lon="6.14715">
        <ele>1218.7</ele>
        <time>2026-08-25T08:58:29Z</time>
      </trkpt>
      <trkpt lat="45.05925" lon="6.14713">
        <ele>1218.9</ele>
        <time>2026-08-25T08:58:30Z</time>
      </trkpt>
      <trkpt lat="45.05924" lon="6.1471">
        <ele>1219.1</ele>
        <time>2026-08-25T08:58:31Z</time>
      </trkpt>
      <trkpt lat="45.05923" lon="6.14707">
        <ele>1219.3</ele>
        <time>2026-08-25T08:58:32Z</time>
      </trkpt>
      <trkpt lat="45.05922" lon="6.14705">
        <ele>1219.6</ele>
        <time>2026-08-25T08:58:33Z</time>
      </trkpt>
      <trkpt lat="45.05921" lon="6.14702">
        <ele>1219.8</ele>
        <time>2026-08-25T08:58:34Z</time>
      </trkpt>
      <trkpt lat="45.0592" lon="6.147">
        <ele>1220</ele>
        <time>2026-08-25T08:58:35Z</time>
      </trkpt>
      <trkpt lat="45.05919" lon="6.14698">
        <ele>1220.2</ele>
        <time>2026-08-25T08:58:36Z</time>
      </trkpt>
      <trkpt lat="45.05918" lon="6.14696">
        <ele>1220.4</ele>
        <time>2026-08-25T08:58:37Z</time>
      </trkpt>
      <trkpt lat="45.05917" lon="6.14693">
        <ele>1220.6</ele>
        <time>2026-08-25T08:58:38Z</time>
      </trkpt>
      <trkpt lat="45.05916" lon="6.14691">
        <ele>1220.8</ele>
        <time>2026-08-25T08:58:39Z</time>
      </trkpt>
      <trkpt lat="45.05915" lon="6.14688">
        <ele>1221.1</ele>
        <time>2026-08-25T08:58:40Z</time>
      </trkpt>
      <trkpt lat="45.05914" lon="6.14685">
        <ele>1221.3</ele>
        <time>2026-08-25T08:58:41Z</time>
      </trkpt>
      <trkpt lat="45.05912" lon="6.14682">
        <ele>1221.6</ele>
        <time>2026-08-25T08:58:42Z</time>
      </trkpt>
      <trkpt lat="45.05911" lon="6.1468">
        <ele>1221.8</ele>
        <time>2026-08-25T08:58:43Z</time>
      </trkpt>
      <trkpt lat="45.05909" lon="6.14678">
        <ele>1222.1</ele>
        <time>2026-08-25T08:58:44Z</time>
      </trkpt>
      <trkpt lat="45.05907" lon="6.14675">
        <ele>1222.3</ele>
        <time>2026-08-25T08:58:45Z</time>
      </trkpt>
      <trkpt lat="45.05906" lon="6.14673">
        <ele>1222.6</ele>
        <time>2026-08-25T08:58:46Z</time>
      </trkpt>
      <trkpt lat="45.05905" lon="6.1467">
        <ele>1222.8</ele>
        <time>2026-08-25T08:58:47Z</time>
      </trkpt>
      <trkpt lat="45.05904" lon="6.14667">
        <ele>1223</ele>
        <time>2026-08-25T08:58:48Z</time>
      </trkpt>
      <trkpt lat="45.05904" lon="6.14664">
        <ele>1223.3</ele>
        <time>2026-08-25T08:58:49Z</time>
      </trkpt>
      <trkpt lat="45.05903" lon="6.14661">
        <ele>1223.5</ele>
        <time>2026-08-25T08:58:50Z</time>
      </trkpt>
      <trkpt lat="45.05904" lon="6.14658">
        <ele>1223.7</ele>
        <time>2026-08-25T08:58:51Z</time>
      </trkpt>
      <trkpt lat="45.05905" lon="6.14655">
        <ele>1224</ele>
        <time>2026-08-25T08:58:52Z</time>
      </trkpt>
      <trkpt lat="45.05907" lon="6.14653">
        <ele>1224.2</ele>
        <time>2026-08-25T08:58:53Z</time>
      </trkpt>
      <trkpt lat="45.05909" lon="6.14653">
        <ele>1224.3</ele>
        <time>2026-08-25T08:58:54Z</time>
      </trkpt>
      <trkpt lat="45.05911" lon="6.14653">
        <ele>1224.5</ele>
        <time>2026-08-25T08:58:55Z</time>
      </trkpt>
      <trkpt lat="45.05913" lon="6.14654">
        <ele>1224.7</ele>
        <time>2026-08-25T08:58:56Z</time>
      </trkpt>
      <trkpt lat="45.05914" lon="6.14656">
        <ele>1224.8</ele>
        <time>2026-08-25T08:58:57Z</time>
      </trkpt>
      <trkpt lat="45.05916" lon="6.14659">
        <ele>1225</ele>
        <time>2026-08-25T08:58:58Z</time>
      </trkpt>
      <trkpt lat="45.05917" lon="6.14662">
        <ele>1225.1</ele>
        <time>2026-08-25T08:58:59Z</time>
      </trkpt>
      <trkpt lat="45.05918" lon="6.14664">
        <ele>1225.2</ele>
        <time>2026-08-25T08:59:00Z</time>
      </trkpt>
      <trkpt lat="45.05919" lon="6.14667">
        <ele>1225.4</ele>
        <time>2026-08-25T08:59:01Z</time>
      </trkpt>
      <trkpt lat="45.05921" lon="6.1467">
        <ele>1225.5</ele>
        <time>2026-08-25T08:59:02Z</time>
      </trkpt>
      <trkpt lat="45.05922" lon="6.14673">
        <ele>1225.6</ele>
        <time>2026-08-25T08:59:03Z</time>
      </trkpt>
      <trkpt lat="45.05924" lon="6.14675">
        <ele>1225.7</ele>
        <time>2026-08-25T08:59:04Z</time>
      </trkpt>
      <trkpt lat="45.05925" lon="6.14678">
        <ele>1225.9</ele>
        <time>2026-08-25T08:59:05Z</time>
      </trkpt>
      <trkpt lat="45.05927" lon="6.1468">
        <ele>1226</ele>
        <time>2026-08-25T08:59:06Z</time>
      </trkpt>
      <trkpt lat="45.05929" lon="6.14682">
        <ele>1226.1</ele>
        <time>2026-08-25T08:59:07Z</time>
      </trkpt>
      <trkpt lat="45.05931" lon="6.14684">
        <ele>1226.3</ele>
        <time>2026-08-25T08:59:08Z</time>
      </trkpt>
      <trkpt lat="45.05933" lon="6.14687">
        <ele>1226.4</ele>
        <time>2026-08-25T08:59:09Z</time>
      </trkpt>
      <trkpt lat="45.05934" lon="6.14689">
        <ele>1226.5</ele>
        <time>2026-08-25T08:59:10Z</time>
      </trkpt>
      <trkpt lat="45.05936" lon="6.14691">
        <ele>1226.7</ele>
        <time>2026-08-25T08:59:11Z</time>
      </trkpt>
      <trkpt lat="45.05938" lon="6.14693">
        <ele>1226.8</ele>
        <time>2026-08-25T08:59:12Z</time>
      </trkpt>
      <trkpt lat="45.0594" lon="6.14694">
        <ele>1227</ele>
        <time>2026-08-25T08:59:13Z</time>
      </trkpt>
      <trkpt lat="45.05942" lon="6.14696">
        <ele>1227.1</ele>
        <time>2026-08-25T08:59:14Z</time>
      </trkpt>
      <trkpt lat="45.05944" lon="6.14698">
        <ele>1227.3</ele>
        <time>2026-08-25T08:59:15Z</time>
      </trkpt>
      <trkpt lat="45.05946" lon="6.147">
        <ele>1227.4</ele>
        <time>2026-08-25T08:59:16Z</time>
      </trkpt>
      <trkpt lat="45.05948" lon="6.14702">
        <ele>1227.6</ele>
        <time>2026-08-25T08:59:17Z</time>
      </trkpt>
      <trkpt lat="45.0595" lon="6.14703">
        <ele>1227.8</ele>
        <time>2026-08-25T08:59:18Z</time>
      </trkpt>
      <trkpt lat="45.05952" lon="6.14705">
        <ele>1227.9</ele>
        <time>2026-08-25T08:59:19Z</time>
      </trkpt>
      <trkpt lat="45.05954" lon="6.14707">
        <ele>1228.1</ele>
        <time>2026-08-25T08:59:20Z</time>
      </trkpt>
      <trkpt lat="45.05956" lon="6.14708">
        <ele>1228.3</ele>
        <time>2026-08-25T08:59:21Z</time>
      </trkpt>
      <trkpt lat="45.05958" lon="6.1471">
        <ele>1228.4</ele>
        <time>2026-08-25T08:59:22Z</time>
      </trkpt>
      <trkpt lat="45.0596" lon="6.14711">
        <ele>1228.6</ele>
        <time>2026-08-25T08:59:23Z</time>
      </trkpt>
      <trkpt lat="45.05962" lon="6.14713">
        <ele>1228.8</ele>
        <time>2026-08-25T08:59:24Z</time>
      </trkpt>
      <trkpt lat="45.05963" lon="6.14714">
        <ele>1228.9</ele>
        <time>2026-08-25T08:59:25Z</time>
      </trkpt>
      <trkpt lat="45.05965" lon="6.14715">
        <ele>1229.1</ele>
        <time>2026-08-25T08:59:26Z</time>
      </trkpt>
      <trkpt lat="45.05967" lon="6.14717">
        <ele>1229.3</ele>
        <time>2026-08-25T08:59:27Z</time>
      </trkpt>
      <trkpt lat="45.05969" lon="6.14719">
        <ele>1229.4</ele>
        <time>2026-08-25T08:59:28Z</time>
      </trkpt>
      <trkpt lat="45.05971" lon="6.1472">
        <ele>1229.6</ele>
        <time>2026-08-25T08:59:29Z</time>
      </trkpt>
      <trkpt lat="45.05974" lon="6.14722">
        <ele>1229.9</ele>
        <time>2026-08-25T08:59:30Z</time>
      </trkpt>
      <trkpt lat="45.05975" lon="6.14724">
        <ele>1230</ele>
        <time>2026-08-25T08:59:31Z</time>
      </trkpt>
      <trkpt lat="45.05977" lon="6.14725">
        <ele>1230.2</ele>
        <time>2026-08-25T08:59:32Z</time>
      </trkpt>
      <trkpt lat="45.05979" lon="6.14727">
        <ele>1230.4</ele>
        <time>2026-08-25T08:59:33Z</time>
      </trkpt>
      <trkpt lat="45.05981" lon="6.14728">
        <ele>1230.6</ele>
        <time>2026-08-25T08:59:34Z</time>
      </trkpt>
      <trkpt lat="45.05983" lon="6.1473">
        <ele>1230.8</ele>
        <time>2026-08-25T08:59:35Z</time>
      </trkpt>
      <trkpt lat="45.05985" lon="6.14732">
        <ele>1231</ele>
        <time>2026-08-25T08:59:36Z</time>
      </trkpt>
      <trkpt lat="45.05987" lon="6.14733">
        <ele>1231.2</ele>
        <time>2026-08-25T08:59:37Z</time>
      </trkpt>
      <trkpt lat="45.05989" lon="6.14734">
        <ele>1231.4</ele>
        <time>2026-08-25T08:59:38Z</time>
      </trkpt>
      <trkpt lat="45.05991" lon="6.14735">
        <ele>1231.6</ele>
        <time>2026-08-25T08:59:39Z</time>
      </trkpt>
      <trkpt lat="45.05993" lon="6.14736">
        <ele>1231.8</ele>
        <time>2026-08-25T08:59:40Z</time>
      </trkpt>
      <trkpt lat="45.05995" lon="6.14738">
        <ele>1232.1</ele>
        <time>2026-08-25T08:59:41Z</time>
      </trkpt>
      <trkpt lat="45.05997" lon="6.14739">
        <ele>1232.3</ele>
        <time>2026-08-25T08:59:42Z</time>
      </trkpt>
      <trkpt lat="45.05999" lon="6.14741">
        <ele>1232.5</ele>
        <time>2026-08-25T08:59:43Z</time>
      </trkpt>
      <trkpt lat="45.06001" lon="6.14743">
        <ele>1232.7</ele>
        <time>2026-08-25T08:59:44Z</time>
      </trkpt>
      <trkpt lat="45.06002" lon="6.14744">
        <ele>1232.9</ele>
        <time>2026-08-25T08:59:45Z</time>
      </trkpt>
      <trkpt lat="45.06004" lon="6.14745">
        <ele>1233.2</ele>
        <time>2026-08-25T08:59:46Z</time>
      </trkpt>
      <trkpt lat="45.06006" lon="6.14746">
        <ele>1233.4</ele>
        <time>2026-08-25T08:59:47Z</time>
      </trkpt>
      <trkpt lat="45.06008" lon="6.14748">
        <ele>1233.6</ele>
        <time>2026-08-25T08:59:48Z</time>
      </trkpt>
      <trkpt lat="45.06011" lon="6.14749">
        <ele>1233.9</ele>
        <time>2026-08-25T08:59:49Z</time>
      </trkpt>
      <trkpt lat="45.06013" lon="6.14751">
        <ele>1234.1</ele>
        <time>2026-08-25T08:59:50Z</time>
      </trkpt>
      <trkpt lat="45.06015" lon="6.14752">
        <ele>1234.3</ele>
        <time>2026-08-25T08:59:51Z</time>
      </trkpt>
      <trkpt lat="45.06016" lon="6.14754">
        <ele>1234.6</ele>
        <time>2026-08-25T08:59:52Z</time>
      </trkpt>
      <trkpt lat="45.06018" lon="6.14756">
        <ele>1234.8</ele>
        <time>2026-08-25T08:59:53Z</time>
      </trkpt>
      <trkpt lat="45.0602" lon="6.14758">
        <ele>1235</ele>
        <time>2026-08-25T08:59:54Z</time>
      </trkpt>
      <trkpt lat="45.06022" lon="6.1476">
        <ele>1235.3</ele>
        <time>2026-08-25T08:59:55Z</time>
      </trkpt>
      <trkpt lat="45.06024" lon="6.14761">
        <ele>1235.6</ele>
        <time>2026-08-25T08:59:56Z</time>
      </trkpt>
      <trkpt lat="45.06026" lon="6.14762">
        <ele>1235.8</ele>
        <time>2026-08-25T08:59:57Z</time>
      </trkpt>
      <trkpt lat="45.06028" lon="6.14764">
        <ele>1236.1</ele>
        <time>2026-08-25T08:59:58Z</time>
      </trkpt>
      <trkpt lat="45.0603" lon="6.14766">
        <ele>1236.3</ele>
        <time>2026-08-25T08:59:59Z</time>
      </trkpt>
      <trkpt lat="45.06032" lon="6.14769">
        <ele>1236.6</ele>
        <time>2026-08-25T09:00:00Z</time>
      </trkpt>
      <trkpt lat="45.06034" lon="6.14771">
        <ele>1236.8</ele>
        <time>2026-08-25T09:00:01Z</time>
      </trkpt>
      <trkpt lat="45.06036" lon="6.14773">
        <ele>1237.1</ele>
        <time>2026-08-25T09:00:02Z</time>
      </trkpt>
      <trkpt lat="45.06037" lon="6.14774">
        <ele>1237.3</ele>
        <time>2026-08-25T09:00:03Z</time>
      </trkpt>
      <trkpt lat="45.06038" lon="6.14777">
        <ele>1237.5</ele>
        <time>2026-08-25T09:00:04Z</time>
      </trkpt>
      <trkpt lat="45.0604" lon="6.14779">
        <ele>1237.7</ele>
        <time>2026-08-25T09:00:05Z</time>
      </trkpt>
      <trkpt lat="45.06042" lon="6.1478">
        <ele>1238</ele>
        <time>2026-08-25T09:00:06Z</time>
      </trkpt>
      <trkpt lat="45.06043" lon="6.14781">
        <ele>1238.1</ele>
        <time>2026-08-25T09:00:07Z</time>
      </trkpt>
      <trkpt lat="45.06045" lon="6.14783">
        <ele>1238.4</ele>
        <time>2026-08-25T09:00:08Z</time>
      </trkpt>
      <trkpt lat="45.06047" lon="6.14784">
        <ele>1238.6</ele>
        <time>2026-08-25T09:00:09Z</time>
      </trkpt>
      <trkpt lat="45.06049" lon="6.14786">
        <ele>1238.8</ele>
        <time>2026-08-25T09:00:10Z</time>
      </trkpt>
      <trkpt lat="45.0605" lon="6.14787">
        <ele>1239</ele>
        <time>2026-08-25T09:00:11Z</time>
      </trkpt>
      <trkpt lat="45.06052" lon="6.14789">
        <ele>1239.2</ele>
        <time>2026-08-25T09:00:12Z</time>
      </trkpt>
      <trkpt lat="45.06053" lon="6.14791">
        <ele>1239.4</ele>
        <time>2026-08-25T09:00:13Z</time>
      </trkpt>
      <trkpt lat="45.06055" lon="6.14792">
        <ele>1239.6</ele>
        <time>2026-08-25T09:00:14Z</time>
      </trkpt>
      <trkpt lat="45.06056" lon="6.14794">
        <ele>1239.8</ele>
        <time>2026-08-25T09:00:15Z</time>
      </trkpt>
      <trkpt lat="45.06058" lon="6.14795">
        <ele>1240</ele>
        <time>2026-08-25T09:00:16Z</time>
      </trkpt>
      <trkpt lat="45.0606" lon="6.14796">
        <ele>1240.2</ele>
        <time>2026-08-25T09:00:17Z</time>
      </trkpt>
      <trkpt lat="45.06061" lon="6.14798">
        <ele>1240.5</ele>
        <time>2026-08-25T09:00:18Z</time>
      </trkpt>
      <trkpt lat="45.06063" lon="6.148">
        <ele>1240.7</ele>
        <time>2026-08-25T09:00:19Z</time>
      </trkpt>
      <trkpt lat="45.06065" lon="6.14801">
        <ele>1240.9</ele>
        <time>2026-08-25T09:00:20Z</time>
      </trkpt>
      <trkpt lat="45.06066" lon="6.14802">
        <ele>1241.1</ele>
        <time>2026-08-25T09:00:21Z</time>
      </trkpt>
      <trkpt lat="45.06068" lon="6.14804">
        <ele>1241.3</ele>
        <time>2026-08-25T09:00:22Z</time>
      </trkpt>
      <trkpt lat="45.0607" lon="6.14805">
        <ele>1241.5</ele>
        <time>2026-08-25T09:00:23Z</time>
      </trkpt>
      <trkpt lat="45.06072" lon="6.14807">
        <ele>1241.7</ele>
        <time>2026-08-25T09:00:24Z</time>
      </trkpt>
      <trkpt lat="45.06073" lon="6.14808">
        <ele>1241.9</ele>
        <time>2026-08-25T09:00:25Z</time>
      </trkpt>
      <trkpt lat="45.06075" lon="6.14809">
        <ele>1242.1</ele>
        <time>2026-08-25T09:00:26Z</time>
      </trkpt>
      <trkpt lat="45.06077" lon="6.1481">
        <ele>1242.3</ele>
        <time>2026-08-25T09:00:27Z</time>
      </trkpt>
      <trkpt lat="45.06078" lon="6.14811">
        <ele>1242.5</ele>
        <time>2026-08-25T09:00:28Z</time>
      </trkpt>
      <trkpt lat="45.0608" lon="6.14813">
        <ele>1242.7</ele>
        <time>2026-08-25T09:00:29Z</time>
      </trkpt>
      <trkpt lat="45.06081" lon="6.14814">
        <ele>1242.9</ele>
        <time>2026-08-25T09:00:30Z</time>
      </trkpt>
      <trkpt lat="45.06083" lon="6.14816">
        <ele>1243.2</ele>
        <time>2026-08-25T09:00:31Z</time>
      </trkpt>
      <trkpt lat="45.06085" lon="6.14817">
        <ele>1243.4</ele>
        <time>2026-08-25T09:00:32Z</time>
      </trkpt>
      <trkpt lat="45.06087" lon="6.14818">
        <ele>1243.6</ele>
        <time>2026-08-25T09:00:33Z</time>
      </trkpt>
      <trkpt lat="45.06088" lon="6.14819">
        <ele>1243.8</ele>
        <time>2026-08-25T09:00:34Z</time>
      </trkpt>
      <trkpt lat="45.0609" lon="6.1482">
        <ele>1244</ele>
        <time>2026-08-25T09:00:35Z</time>
      </trkpt>
      <trkpt lat="45.06092" lon="6.14822">
        <ele>1244.2</ele>
        <time>2026-08-25T09:00:36Z</time>
      </trkpt>
      <trkpt lat="45.06094" lon="6.14823">
        <ele>1244.4</ele>
        <time>2026-08-25T09:00:37Z</time>
      </trkpt>
      <trkpt lat="45.06095" lon="6.14824">
        <ele>1244.6</ele>
        <time>2026-08-25T09:00:38Z</time>
      </trkpt>
      <trkpt lat="45.06097" lon="6.14825">
        <ele>1244.9</ele>
        <time>2026-08-25T09:00:39Z</time>
      </trkpt>
      <trkpt lat="45.06099" lon="6.14826">
        <ele>1245.1</ele>
        <time>2026-08-25T09:00:40Z</time>
      </trkpt>
      <trkpt lat="45.06101" lon="6.14827">
        <ele>1245.3</ele>
        <time>2026-08-25T09:00:41Z</time>
      </trkpt>
      <trkpt lat="45.06103" lon="6.14828">
        <ele>1245.5</ele>
        <time>2026-08-25T09:00:42Z</time>
      </trkpt>
      <trkpt lat="45.06104" lon="6.14828">
        <ele>1245.7</ele>
        <time>2026-08-25T09:00:43Z</time>
      </trkpt>
      <trkpt lat="45.06106" lon="6.14829">
        <ele>1245.9</ele>
        <time>2026-08-25T09:00:44Z</time>
      </trkpt>
      <trkpt lat="45.06108" lon="6.1483">
        <ele>1246.1</ele>
        <time>2026-08-25T09:00:45Z</time>
      </trkpt>
      <trkpt lat="45.0611" lon="6.14831">
        <ele>1246.3</ele>
        <time>2026-08-25T09:00:46Z</time>
      </trkpt>
      <trkpt lat="45.06111" lon="6.14833">
        <ele>1246.5</ele>
        <time>2026-08-25T09:00:47Z</time>
      </trkpt>
      <trkpt lat="45.06113" lon="6.14834">
        <ele>1246.7</ele>
        <time>2026-08-25T09:00:48Z</time>
      </trkpt>
      <trkpt lat="45.06115" lon="6.14835">
        <ele>1246.9</ele>
        <time>2026-08-25T09:00:49Z</time>
      </trkpt>
      <trkpt lat="45.06117" lon="6.14836">
        <ele>1247.1</ele>
        <time>2026-08-25T09:00:50Z</time>
      </trkpt>
      <trkpt lat="45.06119" lon="6.14837">
        <ele>1247.4</ele>
        <time>2026-08-25T09:00:51Z</time>
      </trkpt>
      <trkpt lat="45.06121" lon="6.14839">
        <ele>1247.6</ele>
        <time>2026-08-25T09:00:52Z</time>
      </trkpt>
      <trkpt lat="45.06123" lon="6.1484">
        <ele>1247.8</ele>
        <time>2026-08-25T09:00:53Z</time>
      </trkpt>
      <trkpt lat="45.06125" lon="6.14841">
        <ele>1248</ele>
        <time>2026-08-25T09:00:54Z</time>
      </trkpt>
      <trkpt lat="45.06127" lon="6.14841">
        <ele>1248.2</ele>
        <time>2026-08-25T09:00:55Z</time>
      </trkpt>
      <trkpt lat="45.06129" lon="6.14843">
        <ele>1248.5</ele>
        <time>2026-08-25T09:00:56Z</time>
      </trkpt>
      <trkpt lat="45.06131" lon="6.14844">
        <ele>1248.7</ele>
        <time>2026-08-25T09:00:57Z</time>
      </trkpt>
      <trkpt lat="45.06133" lon="6.14845">
        <ele>1248.9</ele>
        <time>2026-08-25T09:00:58Z</time>
      </trkpt>
      <trkpt lat="45.06135" lon="6.14847">
        <ele>1249.1</ele>
        <time>2026-08-25T09:00:59Z</time>
      </trkpt>
      <trkpt lat="45.06137" lon="6.14848">
        <ele>1249.3</ele>
        <time>2026-08-25T09:01:00Z</time>
      </trkpt>
      <trkpt lat="45.06139" lon="6.14849">
        <ele>1249.5</ele>
        <time>2026-08-25T09:01:01Z</time>
      </trkpt>
      <trkpt lat="45.06141" lon="6.14851">
        <ele>1249.7</ele>
        <time>2026-08-25T09:01:02Z</time>
      </trkpt>
      <trkpt lat="45.06142" lon="6.14852">
        <ele>1249.9</ele>
        <time>2026-08-25T09:01:03Z</time>
      </trkpt>
      <trkpt lat="45.06144" lon="6.14853">
        <ele>1250</ele>
        <time>2026-08-25T09:01:04Z</time>
      </trkpt>
      <trkpt lat="45.06145" lon="6.14854">
        <ele>1250.2</ele>
        <time>2026-08-25T09:01:05Z</time>
      </trkpt>
      <trkpt lat="45.06147" lon="6.14854">
        <ele>1250.3</ele>
        <time>2026-08-25T09:01:06Z</time>
      </trkpt>
      <trkpt lat="45.06148" lon="6.14855">
        <ele>1250.5</ele>
        <time>2026-08-25T09:01:07Z</time>
      </trkpt>
      <trkpt lat="45.0615" lon="6.14856">
        <ele>1250.6</ele>
        <time>2026-08-25T09:01:08Z</time>
      </trkpt>
      <trkpt lat="45.06151" lon="6.14858">
        <ele>1250.8</ele>
        <time>2026-08-25T09:01:09Z</time>
      </trkpt>
      <trkpt lat="45.06153" lon="6.14859">
        <ele>1251</ele>
        <time>2026-08-25T09:01:10Z</time>
      </trkpt>
      <trkpt lat="45.06155" lon="6.1486">
        <ele>1251.2</ele>
        <time>2026-08-25T09:01:11Z</time>
      </trkpt>
      <trkpt lat="45.06157" lon="6.14861">
        <ele>1251.5</ele>
        <time>2026-08-25T09:01:12Z</time>
      </trkpt>
      <trkpt lat="45.06159" lon="6.14863">
        <ele>1251.8</ele>
        <time>2026-08-25T09:01:13Z</time>
      </trkpt>
      <trkpt lat="45.06161" lon="6.14864">
        <ele>1252.1</ele>
        <time>2026-08-25T09:01:14Z</time>
      </trkpt>
      <trkpt lat="45.06163" lon="6.14865">
        <ele>1252.3</ele>
        <time>2026-08-25T09:01:15Z</time>
      </trkpt>
      <trkpt lat="45.06165" lon="6.14866">
        <ele>1252.5</ele>
        <time>2026-08-25T09:01:16Z</time>
      </trkpt>
      <trkpt lat="45.06166" lon="6.14867">
        <ele>1252.8</ele>
        <time>2026-08-25T09:01:17Z</time>
      </trkpt>
      <trkpt lat="45.06168" lon="6.14868">
        <ele>1253</ele>
        <time>2026-08-25T09:01:18Z</time>
      </trkpt>
      <trkpt lat="45.0617" lon="6.14869">
        <ele>1253.3</ele>
        <time>2026-08-25T09:01:19Z</time>
      </trkpt>
      <trkpt lat="45.06172" lon="6.1487">
        <ele>1253.5</ele>
        <time>2026-08-25T09:01:20Z</time>
      </trkpt>
      <trkpt lat="45.06174" lon="6.14871">
        <ele>1253.8</ele>
        <time>2026-08-25T09:01:21Z</time>
      </trkpt>
      <trkpt lat="45.06176" lon="6.14872">
        <ele>1254.1</ele>
        <time>2026-08-25T09:01:22Z</time>
      </trkpt>
      <trkpt lat="45.06178" lon="6.14873">
        <ele>1254.3</ele>
        <time>2026-08-25T09:01:23Z</time>
      </trkpt>
      <trkpt lat="45.0618" lon="6.14874">
        <ele>1254.6</ele>
        <time>2026-08-25T09:01:24Z</time>
      </trkpt>
      <trkpt lat="45.06182" lon="6.14875">
        <ele>1254.9</ele>
        <time>2026-08-25T09:01:25Z</time>
      </trkpt>
      <trkpt lat="45.06184" lon="6.14876">
        <ele>1255.2</ele>
        <time>2026-08-25T09:01:26Z</time>
      </trkpt>
      <trkpt lat="45.06186" lon="6.14877">
        <ele>1255.4</ele>
        <time>2026-08-25T09:01:27Z</time>
      </trkpt>
      <trkpt lat="45.06187" lon="6.14877">
        <ele>1255.7</ele>
        <time>2026-08-25T09:01:28Z</time>
      </trkpt>
      <trkpt lat="45.06189" lon="6.14878">
        <ele>1255.9</ele>
        <time>2026-08-25T09:01:29Z</time>
      </trkpt>
      <trkpt lat="45.06191" lon="6.14878">
        <ele>1256.2</ele>
        <time>2026-08-25T09:01:30Z</time>
      </trkpt>
      <trkpt lat="45.06193" lon="6.14879">
        <ele>1256.5</ele>
        <time>2026-08-25T09:01:31Z</time>
      </trkpt>
      <trkpt lat="45.06195" lon="6.1488">
        <ele>1256.7</ele>
        <time>2026-08-25T09:01:32Z</time>
      </trkpt>
      <trkpt lat="45.06197" lon="6.1488">
        <ele>1257</ele>
        <time>2026-08-25T09:01:33Z</time>
      </trkpt>
      <trkpt lat="45.06199" lon="6.14881">
        <ele>1257.2</ele>
        <time>2026-08-25T09:01:34Z</time>
      </trkpt>
      <trkpt lat="45.06201" lon="6.14882">
        <ele>1257.5</ele>
        <time>2026-08-25T09:01:35Z</time>
      </trkpt>
      <trkpt lat="45.06202" lon="6.14882">
        <ele>1257.7</ele>
        <time>2026-08-25T09:01:36Z</time>
      </trkpt>
      <trkpt lat="45.06204" lon="6.14883">
        <ele>1258</ele>
        <time>2026-08-25T09:01:37Z</time>
      </trkpt>
      <trkpt lat="45.06206" lon="6.14884">
        <ele>1258.2</ele>
        <time>2026-08-25T09:01:38Z</time>
      </trkpt>
      <trkpt lat="45.06208" lon="6.14885">
        <ele>1258.5</ele>
        <time>2026-08-25T09:01:39Z</time>
      </trkpt>
      <trkpt lat="45.0621" lon="6.14886">
        <ele>1258.7</ele>
        <time>2026-08-25T09:01:40Z</time>
      </trkpt>
      <trkpt lat="45.06212" lon="6.14886">
        <ele>1259</ele>
        <time>2026-08-25T09:01:41Z</time>
      </trkpt>
      <trkpt lat="45.06214" lon="6.14887">
        <ele>1259.3</ele>
        <time>2026-08-25T09:01:42Z</time>
      </trkpt>
      <trkpt lat="45.06216" lon="6.14889">
        <ele>1259.5</ele>
        <time>2026-08-25T09:01:43Z</time>
      </trkpt>
      <trkpt lat="45.06218" lon="6.1489">
        <ele>1259.8</ele>
        <time>2026-08-25T09:01:44Z</time>
      </trkpt>
      <trkpt lat="45.06219" lon="6.14892">
        <ele>1260.1</ele>
        <time>2026-08-25T09:01:45Z</time>
      </trkpt>
      <trkpt lat="45.06221" lon="6.14893">
        <ele>1260.3</ele>
        <time>2026-08-25T09:01:46Z</time>
      </trkpt>
      <trkpt lat="45.06223" lon="6.14895">
        <ele>1260.6</ele>
        <time>2026-08-25T09:01:47Z</time>
      </trkpt>
      <trkpt lat="45.06225" lon="6.14896">
        <ele>1260.9</ele>
        <time>2026-08-25T09:01:48Z</time>
      </trkpt>
      <trkpt lat="45.06226" lon="6.14898">
        <ele>1261.1</ele>
        <time>2026-08-25T09:01:49Z</time>
      </trkpt>
      <trkpt lat="45.06228" lon="6.14899">
        <ele>1261.3</ele>
        <time>2026-08-25T09:01:50Z</time>
      </trkpt>
      <trkpt lat="45.0623" lon="6.14901">
        <ele>1261.6</ele>
        <time>2026-08-25T09:01:51Z</time>
      </trkpt>
      <trkpt lat="45.06231" lon="6.14903">
        <ele>1261.9</ele>
        <time>2026-08-25T09:01:52Z</time>
      </trkpt>
      <trkpt lat="45.06233" lon="6.14904">
        <ele>1262.2</ele>
        <time>2026-08-25T09:01:53Z</time>
      </trkpt>
      <trkpt lat="45.06235" lon="6.14906">
        <ele>1262.5</ele>
        <time>2026-08-25T09:01:54Z</time>
      </trkpt>
      <trkpt lat="45.06237" lon="6.14908">
        <ele>1262.7</ele>
        <time>2026-08-25T09:01:55Z</time>
      </trkpt>
      <trkpt lat="45.06238" lon="6.1491">
        <ele>1263</ele>
        <time>2026-08-25T09:01:56Z</time>
      </trkpt>
      <trkpt lat="45.06239" lon="6.14911">
        <ele>1263.2</ele>
        <time>2026-08-25T09:01:57Z</time>
      </trkpt>
      <trkpt lat="45.06241" lon="6.14913">
        <ele>1263.5</ele>
        <time>2026-08-25T09:01:58Z</time>
      </trkpt>
      <trkpt lat="45.06243" lon="6.14914">
        <ele>1263.7</ele>
        <time>2026-08-25T09:01:59Z</time>
      </trkpt>
      <trkpt lat="45.06244" lon="6.14916">
        <ele>1264</ele>
        <time>2026-08-25T09:02:00Z</time>
      </trkpt>
      <trkpt lat="45.06246" lon="6.14917">
        <ele>1264.3</ele>
        <time>2026-08-25T09:02:01Z</time>
      </trkpt>
      <trkpt lat="45.06248" lon="6.14919">
        <ele>1264.6</ele>
        <time>2026-08-25T09:02:02Z</time>
      </trkpt>
      <trkpt lat="45.0625" lon="6.1492">
        <ele>1264.9</ele>
        <time>2026-08-25T09:02:03Z</time>
      </trkpt>
      <trkpt lat="45.06252" lon="6.14921">
        <ele>1265.2</ele>
        <time>2026-08-25T09:02:04Z</time>
      </trkpt>
      <trkpt lat="45.06254" lon="6.14922">
        <ele>1265.5</ele>
        <time>2026-08-25T09:02:05Z</time>
      </trkpt>
      <trkpt lat="45.06256" lon="6.14924">
        <ele>1265.7</ele>
        <time>2026-08-25T09:02:06Z</time>
      </trkpt>
      <trkpt lat="45.06258" lon="6.14925">
        <ele>1266</ele>
        <time>2026-08-25T09:02:07Z</time>
      </trkpt>
      <trkpt lat="45.0626" lon="6.14926">
        <ele>1266.2</ele>
        <time>2026-08-25T09:02:08Z</time>
      </trkpt>
      <trkpt lat="45.06262" lon="6.14927">
        <ele>1266.5</ele>
        <time>2026-08-25T09:02:09Z</time>
      </trkpt>
      <trkpt lat="45.06264" lon="6.14928">
        <ele>1266.8</ele>
        <time>2026-08-25T09:02:10Z</time>
      </trkpt>
      <trkpt lat="45.06266" lon="6.14929">
        <ele>1267.1</ele>
        <time>2026-08-25T09:02:11Z</time>
      </trkpt>
      <trkpt lat="45.06268" lon="6.1493">
        <ele>1267.4</ele>
        <time>2026-08-25T09:02:12Z</time>
      </trkpt>
      <trkpt lat="45.0627" lon="6.14931">
        <ele>1267.6</ele>
        <time>2026-08-25T09:02:13Z</time>
      </trkpt>
      <trkpt lat="45.06272" lon="6.14932">
        <ele>1267.9</ele>
        <time>2026-08-25T09:02:14Z</time>
      </trkpt>
      <trkpt lat="45.06274" lon="6.14933">
        <ele>1268.2</ele>
        <time>2026-08-25T09:02:15Z</time>
      </trkpt>
      <trkpt lat="45.06276" lon="6.14934">
        <ele>1268.4</ele>
        <time>2026-08-25T09:02:16Z</time>
      </trkpt>
      <trkpt lat="45.06278" lon="6.14934">
        <ele>1268.7</ele>
        <time>2026-08-25T09:02:17Z</time>
      </trkpt>
      <trkpt lat="45.0628" lon="6.14935">
        <ele>1269</ele>
        <time>2026-08-25T09:02:18Z</time>
      </trkpt>
      <trkpt lat="45.06282" lon="6.14936">
        <ele>1269.2</ele>
        <time>2026-08-25T09:02:19Z</time>
      </trkpt>
      <trkpt lat="45.06284" lon="6.14937">
        <ele>1269.5</ele>
        <time>2026-08-25T09:02:20Z</time>
      </trkpt>
      <trkpt lat="45.06286" lon="6.14937">
        <ele>1269.7</ele>
        <time>2026-08-25T09:02:21Z</time>
      </trkpt>
      <trkpt lat="45.06288" lon="6.14938">
        <ele>1269.9</ele>
        <time>2026-08-25T09:02:22Z</time>
      </trkpt>
      <trkpt lat="45.06289" lon="6.14939">
        <ele>1270.2</ele>
        <time>2026-08-25T09:02:23Z</time>
      </trkpt>
      <trkpt lat="45.06291" lon="6.1494">
        <ele>1270.4</ele>
        <time>2026-08-25T09:02:24Z</time>
      </trkpt>
      <trkpt lat="45.06293" lon="6.14941">
        <ele>1270.7</ele>
        <time>2026-08-25T09:02:25Z</time>
      </trkpt>
      <trkpt lat="45.06295" lon="6.14942">
        <ele>1271</ele>
        <time>2026-08-25T09:02:26Z</time>
      </trkpt>
      <trkpt lat="45.06297" lon="6.14943">
        <ele>1271.2</ele>
        <time>2026-08-25T09:02:27Z</time>
      </trkpt>
      <trkpt lat="45.06299" lon="6.14944">
        <ele>1271.4</ele>
        <time>2026-08-25T09:02:28Z</time>
      </trkpt>
      <trkpt lat="45.06301" lon="6.14945">
        <ele>1271.7</ele>
        <time>2026-08-25T09:02:29Z</time>
      </trkpt>
      <trkpt lat="45.06303" lon="6.14946">
        <ele>1272</ele>
        <time>2026-08-25T09:02:30Z</time>
      </trkpt>
      <trkpt lat="45.06305" lon="6.14948">
        <ele>1272.3</ele>
        <time>2026-08-25T09:02:31Z</time>
      </trkpt>
      <trkpt lat="45.06306" lon="6.14949">
        <ele>1272.6</ele>
        <time>2026-08-25T09:02:32Z</time>
      </trkpt>
      <trkpt lat="45.06308" lon="6.1495">
        <ele>1272.8</ele>
        <time>2026-08-25T09:02:33Z</time>
      </trkpt>
      <trkpt lat="45.0631" lon="6.14951">
        <ele>1273.1</ele>
        <time>2026-08-25T09:02:34Z</time>
      </trkpt>
      <trkpt lat="45.06312" lon="6.14952">
        <ele>1273.3</ele>
        <time>2026-08-25T09:02:35Z</time>
      </trkpt>
      <trkpt lat="45.06314" lon="6.14954">
        <ele>1273.6</ele>
        <time>2026-08-25T09:02:36Z</time>
      </trkpt>
      <trkpt lat="45.06316" lon="6.14955">
        <ele>1273.9</ele>
        <time>2026-08-25T09:02:37Z</time>
      </trkpt>
      <trkpt lat="45.06318" lon="6.14957">
        <ele>1274.2</ele>
        <time>2026-08-25T09:02:38Z</time>
      </trkpt>
      <trkpt lat="45.06319" lon="6.14959">
        <ele>1274.5</ele>
        <time>2026-08-25T09:02:39Z</time>
      </trkpt>
      <trkpt lat="45.06321" lon="6.1496">
        <ele>1274.7</ele>
        <time>2026-08-25T09:02:40Z</time>
      </trkpt>
      <trkpt lat="45.06323" lon="6.14962">
        <ele>1275</ele>
        <time>2026-08-25T09:02:41Z</time>
      </trkpt>
      <trkpt lat="45.06325" lon="6.14963">
        <ele>1275.3</ele>
        <time>2026-08-25T09:02:42Z</time>
      </trkpt>
      <trkpt lat="45.06327" lon="6.14965">
        <ele>1275.6</ele>
        <time>2026-08-25T09:02:43Z</time>
      </trkpt>
      <trkpt lat="45.06329" lon="6.14967">
        <ele>1275.9</ele>
        <time>2026-08-25T09:02:44Z</time>
      </trkpt>
      <trkpt lat="45.0633" lon="6.14968">
        <ele>1276.2</ele>
        <time>2026-08-25T09:02:45Z</time>
      </trkpt>
      <trkpt lat="45.06332" lon="6.1497">
        <ele>1276.4</ele>
        <time>2026-08-25T09:02:46Z</time>
      </trkpt>
      <trkpt lat="45.06333" lon="6.14971">
        <ele>1276.7</ele>
        <time>2026-08-25T09:02:47Z</time>
      </trkpt>
      <trkpt lat="45.06335" lon="6.14973">
        <ele>1276.9</ele>
        <time>2026-08-25T09:02:48Z</time>
      </trkpt>
      <trkpt lat="45.06336" lon="6.14974">
        <ele>1277.2</ele>
        <time>2026-08-25T09:02:49Z</time>
      </trkpt>
      <trkpt lat="45.06338" lon="6.14976">
        <ele>1277.4</ele>
        <time>2026-08-25T09:02:50Z</time>
      </trkpt>
      <trkpt lat="45.06339" lon="6.14977">
        <ele>1277.6</ele>
        <time>2026-08-25T09:02:51Z</time>
      </trkpt>
      <trkpt lat="45.06341" lon="6.14979">
        <ele>1277.9</ele>
        <time>2026-08-25T09:02:52Z</time>
      </trkpt>
      <trkpt lat="45.06343" lon="6.1498">
        <ele>1278.2</ele>
        <time>2026-08-25T09:02:53Z</time>
      </trkpt>
      <trkpt lat="45.06344" lon="6.14982">
        <ele>1278.4</ele>
        <time>2026-08-25T09:02:54Z</time>
      </trkpt>
      <trkpt lat="45.06346" lon="6.14983">
        <ele>1278.7</ele>
        <time>2026-08-25T09:02:55Z</time>
      </trkpt>
      <trkpt lat="45.06348" lon="6.14985">
        <ele>1279</ele>
        <time>2026-08-25T09:02:56Z</time>
      </trkpt>
      <trkpt lat="45.06349" lon="6.14987">
        <ele>1279.2</ele>
        <time>2026-08-25T09:02:57Z</time>
      </trkpt>
      <trkpt lat="45.06351" lon="6.14988">
        <ele>1279.5</ele>
        <time>2026-08-25T09:02:58Z</time>
      </trkpt>
      <trkpt lat="45.06353" lon="6.1499">
        <ele>1279.8</ele>
        <time>2026-08-25T09:02:59Z</time>
      </trkpt>
      <trkpt lat="45.06354" lon="6.14991">
        <ele>1280</ele>
        <time>2026-08-25T09:03:00Z</time>
      </trkpt>
      <trkpt lat="45.06356" lon="6.14993">
        <ele>1280.3</ele>
        <time>2026-08-25T09:03:01Z</time>
      </trkpt>
      <trkpt lat="45.06358" lon="6.14994">
        <ele>1280.6</ele>
        <time>2026-08-25T09:03:02Z</time>
      </trkpt>
      <trkpt lat="45.06359" lon="6.14996">
        <ele>1280.9</ele>
        <time>2026-08-25T09:03:03Z</time>
      </trkpt>
      <trkpt lat="45.06361" lon="6.14997">
        <ele>1281.1</ele>
        <time>2026-08-25T09:03:04Z</time>
      </trkpt>
      <trkpt lat="45.06363" lon="6.14999">
        <ele>1281.4</ele>
        <time>2026-08-25T09:03:05Z</time>
      </trkpt>
      <trkpt lat="45.06365" lon="6.15001">
        <ele>1281.7</ele>
        <time>2026-08-25T09:03:06Z</time>
      </trkpt>
      <trkpt lat="45.06366" lon="6.15003">
        <ele>1282.1</ele>
        <time>2026-08-25T09:03:07Z</time>
      </trkpt>
      <trkpt lat="45.06368" lon="6.15004">
        <ele>1282.3</ele>
        <time>2026-08-25T09:03:08Z</time>
      </trkpt>
      <trkpt lat="45.0637" lon="6.15006">
        <ele>1282.6</ele>
        <time>2026-08-25T09:03:09Z</time>
      </trkpt>
      <trkpt lat="45.06371" lon="6.15007">
        <ele>1282.9</ele>
        <time>2026-08-25T09:03:10Z</time>
      </trkpt>
      <trkpt lat="45.06373" lon="6.15009">
        <ele>1283.2</ele>
        <time>2026-08-25T09:03:11Z</time>
      </trkpt>
      <trkpt lat="45.06374" lon="6.1501">
        <ele>1283.4</ele>
        <time>2026-08-25T09:03:12Z</time>
      </trkpt>
      <trkpt lat="45.06375" lon="6.15012">
        <ele>1283.6</ele>
        <time>2026-08-25T09:03:13Z</time>
      </trkpt>
      <trkpt lat="45.06377" lon="6.15013">
        <ele>1283.9</ele>
        <time>2026-08-25T09:03:14Z</time>
      </trkpt>
      <trkpt lat="45.06378" lon="6.15015">
        <ele>1284.2</ele>
        <time>2026-08-25T09:03:15Z</time>
      </trkpt>
      <trkpt lat="45.0638" lon="6.15016">
        <ele>1284.5</ele>
        <time>2026-08-25T09:03:16Z</time>
      </trkpt>
      <trkpt lat="45.06382" lon="6.15018">
        <ele>1284.8</ele>
        <time>2026-08-25T09:03:17Z</time>
      </trkpt>
      <trkpt lat="45.06384" lon="6.1502">
        <ele>1285.1</ele>
        <time>2026-08-25T09:03:18Z</time>
      </trkpt>
      <trkpt lat="45.06386" lon="6.15022">
        <ele>1285.5</ele>
        <time>2026-08-25T09:03:19Z</time>
      </trkpt>
      <trkpt lat="45.06388" lon="6.15023">
        <ele>1285.8</ele>
        <time>2026-08-25T09:03:20Z</time>
      </trkpt>
      <trkpt lat="45.06389" lon="6.15025">
        <ele>1286.1</ele>
        <time>2026-08-25T09:03:21Z</time>
      </trkpt>
      <trkpt lat="45.06391" lon="6.15027">
        <ele>1286.4</ele>
        <time>2026-08-25T09:03:22Z</time>
      </trkpt>
      <trkpt lat="45.06392" lon="6.15028">
        <ele>1286.7</ele>
        <time>2026-08-25T09:03:23Z</time>
      </trkpt>
      <trkpt lat="45.06394" lon="6.1503">
        <ele>1287</ele>
        <time>2026-08-25T09:03:24Z</time>
      </trkpt>
      <trkpt lat="45.06395" lon="6.15032">
        <ele>1287.2</ele>
        <time>2026-08-25T09:03:25Z</time>
      </trkpt>
      <trkpt lat="45.06397" lon="6.15034">
        <ele>1287.6</ele>
        <time>2026-08-25T09:03:26Z</time>
      </trkpt>
      <trkpt lat="45.06399" lon="6.15036">
        <ele>1287.9</ele>
        <time>2026-08-25T09:03:27Z</time>
      </trkpt>
      <trkpt lat="45.064" lon="6.15037">
        <ele>1288.2</ele>
        <time>2026-08-25T09:03:28Z</time>
      </trkpt>
      <trkpt lat="45.06402" lon="6.15039">
        <ele>1288.5</ele>
        <time>2026-08-25T09:03:29Z</time>
      </trkpt>
      <trkpt lat="45.06404" lon="6.15041">
        <ele>1288.8</ele>
        <time>2026-08-25T09:03:30Z</time>
      </trkpt>
      <trkpt lat="45.06405" lon="6.15042">
        <ele>1289.1</ele>
        <time>2026-08-25T09:03:31Z</time>
      </trkpt>
      <trkpt lat="45.06407" lon="6.15044">
        <ele>1289.4</ele>
        <time>2026-08-25T09:03:32Z</time>
      </trkpt>
      <trkpt lat="45.06408" lon="6.15045">
        <ele>1289.6</ele>
        <time>2026-08-25T09:03:33Z</time>
      </trkpt>
      <trkpt lat="45.0641" lon="6.15047">
        <ele>1289.9</ele>
        <time>2026-08-25T09:03:34Z</time>
      </trkpt>
      <trkpt lat="45.06411" lon="6.15049">
        <ele>1290.2</ele>
        <time>2026-08-25T09:03:35Z</time>
      </trkpt>
      <trkpt lat="45.06413" lon="6.15051">
        <ele>1290.5</ele>
        <time>2026-08-25T09:03:36Z</time>
      </trkpt>
      <trkpt lat="45.06414" lon="6.15052">
        <ele>1290.8</ele>
        <time>2026-08-25T09:03:37Z</time>
      </trkpt>
      <trkpt lat="45.06416" lon="6.15054">
        <ele>1291.1</ele>
        <time>2026-08-25T09:03:38Z</time>
      </trkpt>
      <trkpt lat="45.06417" lon="6.15056">
        <ele>1291.4</ele>
        <time>2026-08-25T09:03:39Z</time>
      </trkpt>
      <trkpt lat="45.06419" lon="6.15058">
        <ele>1291.6</ele>
        <time>2026-08-25T09:03:40Z</time>
      </trkpt>
      <trkpt lat="45.0642" lon="6.15059">
        <ele>1291.9</ele>
        <time>2026-08-25T09:03:41Z</time>
      </trkpt>
      <trkpt lat="45.06422" lon="6.15061">
        <ele>1292.3</ele>
        <time>2026-08-25T09:03:42Z</time>
      </trkpt>
      <trkpt lat="45.06424" lon="6.15063">
        <ele>1292.6</ele>
        <time>2026-08-25T09:03:43Z</time>
      </trkpt>
      <trkpt lat="45.06425" lon="6.15065">
        <ele>1292.9</ele>
        <time>2026-08-25T09:03:44Z</time>
      </trkpt>
      <trkpt lat="45.06427" lon="6.15067">
        <ele>1293.2</ele>
        <time>2026-08-25T09:03:45Z</time>
      </trkpt>
      <trkpt lat="45.06429" lon="6.15069">
        <ele>1293.5</ele>
        <time>2026-08-25T09:03:46Z</time>
      </trkpt>
      <trkpt lat="45.0643" lon="6.15071">
        <ele>1293.8</ele>
        <time>2026-08-25T09:03:47Z</time>
      </trkpt>
      <trkpt lat="45.06432" lon="6.15073">
        <ele>1294.2</ele>
        <time>2026-08-25T09:03:48Z</time>
      </trkpt>
      <trkpt lat="45.06434" lon="6.15075">
        <ele>1294.5</ele>
        <time>2026-08-25T09:03:49Z</time>
      </trkpt>
      <trkpt lat="45.06436" lon="6.15076">
        <ele>1294.8</ele>
        <time>2026-08-25T09:03:50Z</time>
      </trkpt>
      <trkpt lat="45.06438" lon="6.15078">
        <ele>1295.2</ele>
        <time>2026-08-25T09:03:51Z</time>
      </trkpt>
      <trkpt lat="45.06439" lon="6.1508">
        <ele>1295.5</ele>
        <time>2026-08-25T09:03:52Z</time>
      </trkpt>
      <trkpt lat="45.06441" lon="6.15082">
        <ele>1295.8</ele>
        <time>2026-08-25T09:03:53Z</time>
      </trkpt>
      <trkpt lat="45.06442" lon="6.15083">
        <ele>1296</ele>
        <time>2026-08-25T09:03:54Z</time>
      </trkpt>
      <trkpt lat="45.06444" lon="6.15085">
        <ele>1296.3</ele>
        <time>2026-08-25T09:03:55Z</time>
      </trkpt>
      <trkpt lat="45.06446" lon="6.15087">
        <ele>1296.6</ele>
        <time>2026-08-25T09:03:56Z</time>
      </trkpt>
      <trkpt lat="45.06447" lon="6.15089">
        <ele>1296.9</ele>
        <time>2026-08-25T09:03:57Z</time>
      </trkpt>
      <trkpt lat="45.06449" lon="6.15091">
        <ele>1297.2</ele>
        <time>2026-08-25T09:03:58Z</time>
      </trkpt>
      <trkpt lat="45.06451" lon="6.15092">
        <ele>1297.5</ele>
        <time>2026-08-25T09:03:59Z</time>
      </trkpt>
      <trkpt lat="45.06452" lon="6.15094">
        <ele>1297.8</ele>
        <time>2026-08-25T09:04:00Z</time>
      </trkpt>
      <trkpt lat="45.06454" lon="6.15096">
        <ele>1298.1</ele>
        <time>2026-08-25T09:04:01Z</time>
      </trkpt>
      <trkpt lat="45.06456" lon="6.15098">
        <ele>1298.4</ele>
        <time>2026-08-25T09:04:02Z</time>
      </trkpt>
      <trkpt lat="45.06458" lon="6.151">
        <ele>1298.7</ele>
        <time>2026-08-25T09:04:03Z</time>
      </trkpt>
      <trkpt lat="45.06459" lon="6.15101">
        <ele>1299</ele>
        <time>2026-08-25T09:04:04Z</time>
      </trkpt>
      <trkpt lat="45.06461" lon="6.15103">
        <ele>1299.2</ele>
        <time>2026-08-25T09:04:05Z</time>
      </trkpt>
      <trkpt lat="45.06463" lon="6.15104">
        <ele>1299.5</ele>
        <time>2026-08-25T09:04:06Z</time>
      </trkpt>
      <trkpt lat="45.06465" lon="6.15105">
        <ele>1299.8</ele>
        <time>2026-08-25T09:04:07Z</time>
      </trkpt>
      <trkpt lat="45.06467" lon="6.15107">
        <ele>1300.1</ele>
        <time>2026-08-25T09:04:08Z</time>
      </trkpt>
      <trkpt lat="45.06469" lon="6.15108">
        <ele>1300.4</ele>
        <time>2026-08-25T09:04:09Z</time>
      </trkpt>
      <trkpt lat="45.06471" lon="6.1511">
        <ele>1300.7</ele>
        <time>2026-08-25T09:04:10Z</time>
      </trkpt>
      <trkpt lat="45.06473" lon="6.15111">
        <ele>1301</ele>
        <time>2026-08-25T09:04:11Z</time>
      </trkpt>
      <trkpt lat="45.06475" lon="6.15112">
        <ele>1301.3</ele>
        <time>2026-08-25T09:04:12Z</time>
      </trkpt>
      <trkpt lat="45.06477" lon="6.15113">
        <ele>1301.4</ele>
        <time>2026-08-25T09:04:13Z</time>
      </trkpt>
      <trkpt lat="45.0648" lon="6.15113">
        <ele>1301.4</ele>
        <time>2026-08-25T09:04:14Z</time>
      </trkpt>
      <trkpt lat="45.06482" lon="6.15114">
        <ele>1301.5</ele>
        <time>2026-08-25T09:04:15Z</time>
      </trkpt>
      <trkpt lat="45.06484" lon="6.15115">
        <ele>1301.5</ele>
        <time>2026-08-25T09:04:16Z</time>
      </trkpt>
      <trkpt lat="45.06486" lon="6.15116">
        <ele>1301.6</ele>
        <time>2026-08-25T09:04:17Z</time>
      </trkpt>
      <trkpt lat="45.06488" lon="6.15117">
        <ele>1301.6</ele>
        <time>2026-08-25T09:04:18Z</time>
      </trkpt>
      <trkpt lat="45.0649" lon="6.15118">
        <ele>1301.6</ele>
        <time>2026-08-25T09:04:19Z</time>
      </trkpt>
      <trkpt lat="45.06492" lon="6.1512">
        <ele>1301.7</ele>
        <time>2026-08-25T09:04:20Z</time>
      </trkpt>
      <trkpt lat="45.06493" lon="6.15122">
        <ele>1301.7</ele>
        <time>2026-08-25T09:04:21Z</time>
      </trkpt>
      <trkpt lat="45.06494" lon="6.15123">
        <ele>1301.8</ele>
        <time>2026-08-25T09:04:22Z</time>
      </trkpt>
      <trkpt lat="45.06496" lon="6.15125">
        <ele>1301.9</ele>
        <time>2026-08-25T09:04:23Z</time>
      </trkpt>
      <trkpt lat="45.06497" lon="6.15127">
        <ele>1301.9</ele>
        <time>2026-08-25T09:04:24Z</time>
      </trkpt>
      <trkpt lat="45.06499" lon="6.15129">
        <ele>1302</ele>
        <time>2026-08-25T09:04:25Z</time>
      </trkpt>
      <trkpt lat="45.06501" lon="6.15131">
        <ele>1302</ele>
        <time>2026-08-25T09:04:26Z</time>
      </trkpt>
      <trkpt lat="45.06503" lon="6.15133">
        <ele>1302.1</ele>
        <time>2026-08-25T09:04:27Z</time>
      </trkpt>
      <trkpt lat="45.06504" lon="6.15134">
        <ele>1302.2</ele>
        <time>2026-08-25T09:04:28Z</time>
      </trkpt>
      <trkpt lat="45.06506" lon="6.15135">
        <ele>1302.2</ele>
        <time>2026-08-25T09:04:29Z</time>
      </trkpt>
      <trkpt lat="45.06507" lon="6.15137">
        <ele>1302.3</ele>
        <time>2026-08-25T09:04:30Z</time>
      </trkpt>
      <trkpt lat="45.06509" lon="6.15139">
        <ele>1302.4</ele>
        <time>2026-08-25T09:04:31Z</time>
      </trkpt>
      <trkpt lat="45.06511" lon="6.1514">
        <ele>1302.4</ele>
        <time>2026-08-25T09:04:32Z</time>
      </trkpt>
      <trkpt lat="45.06513" lon="6.15143">
        <ele>1302.5</ele>
        <time>2026-08-25T09:04:33Z</time>
      </trkpt>
      <trkpt lat="45.06516" lon="6.15146">
        <ele>1302.6</ele>
        <time>2026-08-25T09:04:34Z</time>
      </trkpt>
      <trkpt lat="45.06518" lon="6.15148">
        <ele>1302.7</ele>
        <time>2026-08-25T09:04:35Z</time>
      </trkpt>
      <trkpt lat="45.0652" lon="6.1515">
        <ele>1302.8</ele>
        <time>2026-08-25T09:04:36Z</time>
      </trkpt>
      <trkpt lat="45.06521" lon="6.15151">
        <ele>1302.8</ele>
        <time>2026-08-25T09:04:37Z</time>
      </trkpt>
      <trkpt lat="45.06523" lon="6.15152">
        <ele>1302.9</ele>
        <time>2026-08-25T09:04:38Z</time>
      </trkpt>
      <trkpt lat="45.06524" lon="6.15154">
        <ele>1302.9</ele>
        <time>2026-08-25T09:04:39Z</time>
      </trkpt>
      <trkpt lat="45.06525" lon="6.15155">
        <ele>1302.9</ele>
        <time>2026-08-25T09:04:40Z</time>
      </trkpt>
      <trkpt lat="45.06527" lon="6.15157">
        <ele>1303</ele>
        <time>2026-08-25T09:04:41Z</time>
      </trkpt>
      <trkpt lat="45.06529" lon="6.15157">
        <ele>1303</ele>
        <time>2026-08-25T09:04:42Z</time>
      </trkpt>
      <trkpt lat="45.0653" lon="6.15159">
        <ele>1303.1</ele>
        <time>2026-08-25T09:04:43Z</time>
      </trkpt>
      <trkpt lat="45.06532" lon="6.1516">
        <ele>1303.1</ele>
        <time>2026-08-25T09:04:44Z</time>
      </trkpt>
      <trkpt lat="45.06534" lon="6.15162">
        <ele>1303.2</ele>
        <time>2026-08-25T09:04:45Z</time>
      </trkpt>
      <trkpt lat="45.06535" lon="6.15163">
        <ele>1303.2</ele>
        <time>2026-08-25T09:04:46Z</time>
      </trkpt>
      <trkpt lat="45.06537" lon="6.15165">
        <ele>1303.3</ele>
        <time>2026-08-25T09:04:47Z</time>
      </trkpt>
      <trkpt lat="45.06539" lon="6.15166">
        <ele>1303.3</ele>
        <time>2026-08-25T09:04:48Z</time>
      </trkpt>
      <trkpt lat="45.0654" lon="6.15167">
        <ele>1303.4</ele>
        <time>2026-08-25T09:04:49Z</time>
      </trkpt>
      <trkpt lat="45.06542" lon="6.15169">
        <ele>1303.4</ele>
        <time>2026-08-25T09:04:50Z</time>
      </trkpt>
      <trkpt lat="45.06544" lon="6.1517">
        <ele>1303.5</ele>
        <time>2026-08-25T09:04:51Z</time>
      </trkpt>
      <trkpt lat="45.06545" lon="6.15172">
        <ele>1303.5</ele>
        <time>2026-08-25T09:04:52Z</time>
      </trkpt>
      <trkpt lat="45.06547" lon="6.15174">
        <ele>1303.6</ele>
        <time>2026-08-25T09:04:53Z</time>
      </trkpt>
      <trkpt lat="45.06548" lon="6.15176">
        <ele>1303.6</ele>
        <time>2026-08-25T09:04:54Z</time>
      </trkpt>
      <trkpt lat="45.0655" lon="6.15177">
        <ele>1303.7</ele>
        <time>2026-08-25T09:04:55Z</time>
      </trkpt>
      <trkpt lat="45.06552" lon="6.15178">
        <ele>1303.7</ele>
        <time>2026-08-25T09:04:56Z</time>
      </trkpt>
      <trkpt lat="45.06554" lon="6.1518">
        <ele>1303.8</ele>
        <time>2026-08-25T09:04:57Z</time>
      </trkpt>
      <trkpt lat="45.06556" lon="6.15182">
        <ele>1303.9</ele>
        <time>2026-08-25T09:04:58Z</time>
      </trkpt>
      <trkpt lat="45.06557" lon="6.15183">
        <ele>1303.9</ele>
        <time>2026-08-25T09:04:59Z</time>
      </trkpt>
      <trkpt lat="45.06559" lon="6.15185">
        <ele>1304</ele>
        <time>2026-08-25T09:05:00Z</time>
      </trkpt>
      <trkpt lat="45.06561" lon="6.15186">
        <ele>1304.1</ele>
        <time>2026-08-25T09:05:01Z</time>
      </trkpt>
      <trkpt lat="45.06562" lon="6.15188">
        <ele>1304.1</ele>
        <time>2026-08-25T09:05:02Z</time>
      </trkpt>
      <trkpt lat="45.06564" lon="6.15189">
        <ele>1304.2</ele>
        <time>2026-08-25T09:05:03Z</time>
      </trkpt>
      <trkpt lat="45.06566" lon="6.15191">
        <ele>1304.3</ele>
        <time>2026-08-25T09:05:04Z</time>
      </trkpt>
      <trkpt lat="45.06567" lon="6.15193">
        <ele>1304.3</ele>
        <time>2026-08-25T09:05:05Z</time>
      </trkpt>
      <trkpt lat="45.06569" lon="6.15194">
        <ele>1304.4</ele>
        <time>2026-08-25T09:05:06Z</time>
      </trkpt>
      <trkpt lat="45.06571" lon="6.15196">
        <ele>1304.5</ele>
        <time>2026-08-25T09:05:07Z</time>
      </trkpt>
      <trkpt lat="45.06572" lon="6.15197">
        <ele>1304.6</ele>
        <time>2026-08-25T09:05:08Z</time>
      </trkpt>
      <trkpt lat="45.06574" lon="6.15199">
        <ele>1304.7</ele>
        <time>2026-08-25T09:05:09Z</time>
      </trkpt>
      <trkpt lat="45.06576" lon="6.15201">
        <ele>1304.7</ele>
        <time>2026-08-25T09:05:10Z</time>
      </trkpt>
      <trkpt lat="45.06578" lon="6.15203">
        <ele>1304.8</ele>
        <time>2026-08-25T09:05:11Z</time>
      </trkpt>
      <trkpt lat="45.06579" lon="6.15205">
        <ele>1304.9</ele>
        <time>2026-08-25T09:05:12Z</time>
      </trkpt>
      <trkpt lat="45.06581" lon="6.15206">
        <ele>1305</ele>
        <time>2026-08-25T09:05:13Z</time>
      </trkpt>
      <trkpt lat="45.06583" lon="6.15208">
        <ele>1305.1</ele>
        <time>2026-08-25T09:05:14Z</time>
      </trkpt>
      <trkpt lat="45.06584" lon="6.1521">
        <ele>1305.2</ele>
        <time>2026-08-25T09:05:15Z</time>
      </trkpt>
      <trkpt lat="45.06585" lon="6.15212">
        <ele>1305.2</ele>
        <time>2026-08-25T09:05:16Z</time>
      </trkpt>
      <trkpt lat="45.06587" lon="6.15213">
        <ele>1305.3</ele>
        <time>2026-08-25T09:05:17Z</time>
      </trkpt>
      <trkpt lat="45.06589" lon="6.15214">
        <ele>1305.4</ele>
        <time>2026-08-25T09:05:18Z</time>
      </trkpt>
      <trkpt lat="45.06591" lon="6.15216">
        <ele>1305.5</ele>
        <time>2026-08-25T09:05:19Z</time>
      </trkpt>
      <trkpt lat="45.06593" lon="6.15218">
        <ele>1305.6</ele>
        <time>2026-08-25T09:05:20Z</time>
      </trkpt>
      <trkpt lat="45.06594" lon="6.15219">
        <ele>1305.7</ele>
        <time>2026-08-25T09:05:21Z</time>
      </trkpt>
      <trkpt lat="45.06596" lon="6.15221">
        <ele>1305.8</ele>
        <time>2026-08-25T09:05:22Z</time>
      </trkpt>
      <trkpt lat="45.06598" lon="6.15222">
        <ele>1305.9</ele>
        <time>2026-08-25T09:05:23Z</time>
      </trkpt>
      <trkpt lat="45.06599" lon="6.15223">
        <ele>1305.9</ele>
        <time>2026-08-25T09:05:24Z</time>
      </trkpt>
      <trkpt lat="45.06601" lon="6.15224">
        <ele>1306</ele>
        <time>2026-08-25T09:05:25Z</time>
      </trkpt>
      <trkpt lat="45.06602" lon="6.15226">
        <ele>1306.1</ele>
        <time>2026-08-25T09:05:26Z</time>
      </trkpt>
      <trkpt lat="45.06604" lon="6.15228">
        <ele>1306.2</ele>
        <time>2026-08-25T09:05:27Z</time>
      </trkpt>
      <trkpt lat="45.06606" lon="6.1523">
        <ele>1306.3</ele>
        <time>2026-08-25T09:05:28Z</time>
      </trkpt>
      <trkpt lat="45.06608" lon="6.15232">
        <ele>1306.4</ele>
        <time>2026-08-25T09:05:29Z</time>
      </trkpt>
      <trkpt lat="45.06609" lon="6.15233">
        <ele>1306.5</ele>
        <time>2026-08-25T09:05:30Z</time>
      </trkpt>
      <trkpt lat="45.06611" lon="6.15235">
        <ele>1306.6</ele>
        <time>2026-08-25T09:05:31Z</time>
      </trkpt>
      <trkpt lat="45.06612" lon="6.15236">
        <ele>1306.7</ele>
        <time>2026-08-25T09:05:32Z</time>
      </trkpt>
      <trkpt lat="45.06614" lon="6.15237">
        <ele>1306.7</ele>
        <time>2026-08-25T09:05:33Z</time>
      </trkpt>
      <trkpt lat="45.06616" lon="6.15239">
        <ele>1306.9</ele>
        <time>2026-08-25T09:05:34Z</time>
      </trkpt>
      <trkpt lat="45.06617" lon="6.15241">
        <ele>1307</ele>
        <time>2026-08-25T09:05:35Z</time>
      </trkpt>
      <trkpt lat="45.06619" lon="6.15242">
        <ele>1307.1</ele>
        <time>2026-08-25T09:05:36Z</time>
      </trkpt>
      <trkpt lat="45.06621" lon="6.15244">
        <ele>1307.2</ele>
        <time>2026-08-25T09:05:37Z</time>
      </trkpt>
      <trkpt lat="45.06622" lon="6.15245">
        <ele>1307.2</ele>
        <time>2026-08-25T09:05:38Z</time>
      </trkpt>
      <trkpt lat="45.06624" lon="6.15246">
        <ele>1307.3</ele>
        <time>2026-08-25T09:05:39Z</time>
      </trkpt>
      <trkpt lat="45.06626" lon="6.15248">
        <ele>1307.4</ele>
        <time>2026-08-25T09:05:40Z</time>
      </trkpt>
      <trkpt lat="45.06628" lon="6.15249">
        <ele>1307.6</ele>
        <time>2026-08-25T09:05:41Z</time>
      </trkpt>
      <trkpt lat="45.0663" lon="6.15251">
        <ele>1307.7</ele>
        <time>2026-08-25T09:05:42Z</time>
      </trkpt>
      <trkpt lat="45.06632" lon="6.15252">
        <ele>1307.8</ele>
        <time>2026-08-25T09:05:43Z</time>
      </trkpt>
      <trkpt lat="45.06633" lon="6.15253">
        <ele>1307.8</ele>
        <time>2026-08-25T09:05:44Z</time>
      </trkpt>
      <trkpt lat="45.06635" lon="6.15254">
        <ele>1307.9</ele>
        <time>2026-08-25T09:05:45Z</time>
      </trkpt>
      <trkpt lat="45.06637" lon="6.15255">
        <ele>1308</ele>
        <time>2026-08-25T09:05:46Z</time>
      </trkpt>
      <trkpt lat="45.06639" lon="6.15257">
        <ele>1308.1</ele>
        <time>2026-08-25T09:05:47Z</time>
      </trkpt>
      <trkpt lat="45.06641" lon="6.15258">
        <ele>1308.2</ele>
        <time>2026-08-25T09:05:48Z</time>
      </trkpt>
      <trkpt lat="45.06643" lon="6.15259">
        <ele>1308.3</ele>
        <time>2026-08-25T09:05:49Z</time>
      </trkpt>
      <trkpt lat="45.06645" lon="6.1526">
        <ele>1308.4</ele>
        <time>2026-08-25T09:05:50Z</time>
      </trkpt>
      <trkpt lat="45.06646" lon="6.1526">
        <ele>1308.5</ele>
        <time>2026-08-25T09:05:51Z</time>
      </trkpt>
      <trkpt lat="45.06648" lon="6.15261">
        <ele>1308.5</ele>
        <time>2026-08-25T09:05:52Z</time>
      </trkpt>
      <trkpt lat="45.0665" lon="6.15262">
        <ele>1308.6</ele>
        <time>2026-08-25T09:05:53Z</time>
      </trkpt>
      <trkpt lat="45.06652" lon="6.15263">
        <ele>1308.7</ele>
        <time>2026-08-25T09:05:54Z</time>
      </trkpt>
      <trkpt lat="45.06654" lon="6.15264">
        <ele>1308.8</ele>
        <time>2026-08-25T09:05:55Z</time>
      </trkpt>
      <trkpt lat="45.06656" lon="6.15265">
        <ele>1308.9</ele>
        <time>2026-08-25T09:05:56Z</time>
      </trkpt>
      <trkpt lat="45.06658" lon="6.15266">
        <ele>1309</ele>
        <time>2026-08-25T09:05:57Z</time>
      </trkpt>
      <trkpt lat="45.0666" lon="6.15267">
        <ele>1309</ele>
        <time>2026-08-25T09:05:58Z</time>
      </trkpt>
      <trkpt lat="45.06661" lon="6.15269">
        <ele>1309.1</ele>
        <time>2026-08-25T09:05:59Z</time>
      </trkpt>
      <trkpt lat="45.06663" lon="6.1527">
        <ele>1309.2</ele>
        <time>2026-08-25T09:06:00Z</time>
      </trkpt>
      <trkpt lat="45.06664" lon="6.15271">
        <ele>1309.3</ele>
        <time>2026-08-25T09:06:01Z</time>
      </trkpt>
      <trkpt lat="45.06666" lon="6.15272">
        <ele>1309.2</ele>
        <time>2026-08-25T09:06:02Z</time>
      </trkpt>
      <trkpt lat="45.06668" lon="6.15273">
        <ele>1309.1</ele>
        <time>2026-08-25T09:06:03Z</time>
      </trkpt>
      <trkpt lat="45.06669" lon="6.15274">
        <ele>1309</ele>
        <time>2026-08-25T09:06:04Z</time>
      </trkpt>
      <trkpt lat="45.0667" lon="6.15276">
        <ele>1308.8</ele>
        <time>2026-08-25T09:06:05Z</time>
      </trkpt>
      <trkpt lat="45.06672" lon="6.15277">
        <ele>1308.7</ele>
        <time>2026-08-25T09:06:06Z</time>
      </trkpt>
      <trkpt lat="45.06674" lon="6.15278">
        <ele>1308.6</ele>
        <time>2026-08-25T09:06:07Z</time>
      </trkpt>
      <trkpt lat="45.06675" lon="6.1528">
        <ele>1308.4</ele>
        <time>2026-08-25T09:06:08Z</time>
      </trkpt>
      <trkpt lat="45.06677" lon="6.15281">
        <ele>1308.2</ele>
        <time>2026-08-25T09:06:09Z</time>
      </trkpt>
      <trkpt lat="45.06679" lon="6.15283">
        <ele>1308.1</ele>
        <time>2026-08-25T09:06:10Z</time>
      </trkpt>
      <trkpt lat="45.06681" lon="6.15284">
        <ele>1307.9</ele>
        <time>2026-08-25T09:06:11Z</time>
      </trkpt>
      <trkpt lat="45.06682" lon="6.15286">
        <ele>1307.8</ele>
        <time>2026-08-25T09:06:12Z</time>
      </trkpt>
      <trkpt lat="45.06684" lon="6.15287">
        <ele>1307.6</ele>
        <time>2026-08-25T09:06:13Z</time>
      </trkpt>
      <trkpt lat="45.06686" lon="6.15289">
        <ele>1307.5</ele>
        <time>2026-08-25T09:06:14Z</time>
      </trkpt>
      <trkpt lat="45.06687" lon="6.1529">
        <ele>1307.3</ele>
        <time>2026-08-25T09:06:15Z</time>
      </trkpt>
      <trkpt lat="45.06689" lon="6.15292">
        <ele>1307.1</ele>
        <time>2026-08-25T09:06:16Z</time>
      </trkpt>
      <trkpt lat="45.06691" lon="6.15294">
        <ele>1306.9</ele>
        <time>2026-08-25T09:06:17Z</time>
      </trkpt>
      <trkpt lat="45.06693" lon="6.15295">
        <ele>1306.8</ele>
        <time>2026-08-25T09:06:18Z</time>
      </trkpt>
      <trkpt lat="45.06694" lon="6.15297">
        <ele>1306.6</ele>
        <time>2026-08-25T09:06:19Z</time>
      </trkpt>
      <trkpt lat="45.06696" lon="6.15299">
        <ele>1306.4</ele>
        <time>2026-08-25T09:06:20Z</time>
      </trkpt>
      <trkpt lat="45.06698" lon="6.15301">
        <ele>1306.2</ele>
        <time>2026-08-25T09:06:21Z</time>
      </trkpt>
      <trkpt lat="45.067" lon="6.15303">
        <ele>1306.1</ele>
        <time>2026-08-25T09:06:22Z</time>
      </trkpt>
      <trkpt lat="45.06701" lon="6.15305">
        <ele>1305.9</ele>
        <time>2026-08-25T09:06:23Z</time>
      </trkpt>
      <trkpt lat="45.06703" lon="6.15306">
        <ele>1305.7</ele>
        <time>2026-08-25T09:06:24Z</time>
      </trkpt>
      <trkpt lat="45.06705" lon="6.15308">
        <ele>1305.6</ele>
        <time>2026-08-25T09:06:25Z</time>
      </trkpt>
      <trkpt lat="45.06706" lon="6.15309">
        <ele>1305.4</ele>
        <time>2026-08-25T09:06:26Z</time>
      </trkpt>
      <trkpt lat="45.06708" lon="6.15311">
        <ele>1305.3</ele>
        <time>2026-08-25T09:06:27Z</time>
      </trkpt>
      <trkpt lat="45.0671" lon="6.15312">
        <ele>1305.1</ele>
        <time>2026-08-25T09:06:28Z</time>
      </trkpt>
      <trkpt lat="45.06711" lon="6.15314">
        <ele>1305</ele>
        <time>2026-08-25T09:06:29Z</time>
      </trkpt>
      <trkpt lat="45.06713" lon="6.15315">
        <ele>1305.2</ele>
        <time>2026-08-25T09:06:30Z</time>
      </trkpt>
      <trkpt lat="45.06715" lon="6.15317">
        <ele>1305.5</ele>
        <time>2026-08-25T09:06:31Z</time>
      </trkpt>
      <trkpt lat="45.06716" lon="6.15319">
        <ele>1305.8</ele>
        <time>2026-08-25T09:06:32Z</time>
      </trkpt>
      <trkpt lat="45.06718" lon="6.15321">
        <ele>1306.1</ele>
        <time>2026-08-25T09:06:33Z</time>
      </trkpt>
      <trkpt lat="45.0672" lon="6.15322">
        <ele>1306.4</ele>
        <time>2026-08-25T09:06:34Z</time>
      </trkpt>
      <trkpt lat="45.06721" lon="6.15324">
        <ele>1306.6</ele>
        <time>2026-08-25T09:06:35Z</time>
      </trkpt>
      <trkpt lat="45.06723" lon="6.15326">
        <ele>1307</ele>
        <time>2026-08-25T09:06:36Z</time>
      </trkpt>
      <trkpt lat="45.06725" lon="6.15327">
        <ele>1307.3</ele>
        <time>2026-08-25T09:06:37Z</time>
      </trkpt>
      <trkpt lat="45.06727" lon="6.15329">
        <ele>1307.6</ele>
        <time>2026-08-25T09:06:38Z</time>
      </trkpt>
      <trkpt lat="45.06728" lon="6.1533">
        <ele>1307.9</ele>
        <time>2026-08-25T09:06:39Z</time>
      </trkpt>
      <trkpt lat="45.0673" lon="6.15332">
        <ele>1308.2</ele>
        <time>2026-08-25T09:06:40Z</time>
      </trkpt>
      <trkpt lat="45.06732" lon="6.15333">
        <ele>1308.6</ele>
        <time>2026-08-25T09:06:41Z</time>
      </trkpt>
      <trkpt lat="45.06734" lon="6.15335">
        <ele>1308.9</ele>
        <time>2026-08-25T09:06:42Z</time>
      </trkpt>
      <trkpt lat="45.06735" lon="6.15336">
        <ele>1309.2</ele>
        <time>2026-08-25T09:06:43Z</time>
      </trkpt>
      <trkpt lat="45.06737" lon="6.15337">
        <ele>1309.5</ele>
        <time>2026-08-25T09:06:44Z</time>
      </trkpt>
      <trkpt lat="45.06739" lon="6.15339">
        <ele>1309.8</ele>
        <time>2026-08-25T09:06:45Z</time>
      </trkpt>
      <trkpt lat="45.06741" lon="6.1534">
        <ele>1310.1</ele>
        <time>2026-08-25T09:06:46Z</time>
      </trkpt>
      <trkpt lat="45.06743" lon="6.15341">
        <ele>1310.4</ele>
        <time>2026-08-25T09:06:47Z</time>
      </trkpt>
      <trkpt lat="45.06745" lon="6.15343">
        <ele>1310.8</ele>
        <time>2026-08-25T09:06:48Z</time>
      </trkpt>
      <trkpt lat="45.06746" lon="6.15343">
        <ele>1311</ele>
        <time>2026-08-25T09:06:49Z</time>
      </trkpt>
      <trkpt lat="45.06748" lon="6.15344">
        <ele>1311.3</ele>
        <time>2026-08-25T09:06:50Z</time>
      </trkpt>
      <trkpt lat="45.0675" lon="6.15345">
        <ele>1311.6</ele>
        <time>2026-08-25T09:06:51Z</time>
      </trkpt>
      <trkpt lat="45.06752" lon="6.15346">
        <ele>1311.9</ele>
        <time>2026-08-25T09:06:52Z</time>
      </trkpt>
      <trkpt lat="45.06753" lon="6.15346">
        <ele>1312.2</ele>
        <time>2026-08-25T09:06:53Z</time>
      </trkpt>
      <trkpt lat="45.06756" lon="6.15346">
        <ele>1312.5</ele>
        <time>2026-08-25T09:06:54Z</time>
      </trkpt>
      <trkpt lat="45.06758" lon="6.15347">
        <ele>1312.8</ele>
        <time>2026-08-25T09:06:55Z</time>
      </trkpt>
      <trkpt lat="45.0676" lon="6.15347">
        <ele>1313.1</ele>
        <time>2026-08-25T09:06:56Z</time>
      </trkpt>
      <trkpt lat="45.06762" lon="6.15347">
        <ele>1313.4</ele>
        <time>2026-08-25T09:06:57Z</time>
      </trkpt>
      <trkpt lat="45.06764" lon="6.15348">
        <ele>1313.8</ele>
        <time>2026-08-25T09:06:58Z</time>
      </trkpt>
      <trkpt lat="45.06766" lon="6.15347">
        <ele>1314.1</ele>
        <time>2026-08-25T09:06:59Z</time>
      </trkpt>
      <trkpt lat="45.06768" lon="6.15347">
        <ele>1314.4</ele>
        <time>2026-08-25T09:07:00Z</time>
      </trkpt>
      <trkpt lat="45.0677" lon="6.15346">
        <ele>1314.6</ele>
        <time>2026-08-25T09:07:01Z</time>
      </trkpt>
      <trkpt lat="45.06772" lon="6.15346">
        <ele>1314.9</ele>
        <time>2026-08-25T09:07:02Z</time>
      </trkpt>
      <trkpt lat="45.06774" lon="6.15347">
        <ele>1315.2</ele>
        <time>2026-08-25T09:07:03Z</time>
      </trkpt>
      <trkpt lat="45.06776" lon="6.15347">
        <ele>1315.5</ele>
        <time>2026-08-25T09:07:04Z</time>
      </trkpt>
      <trkpt lat="45.06778" lon="6.15347">
        <ele>1315.8</ele>
        <time>2026-08-25T09:07:05Z</time>
      </trkpt>
      <trkpt lat="45.0678" lon="6.15347">
        <ele>1316.1</ele>
        <time>2026-08-25T09:07:06Z</time>
      </trkpt>
      <trkpt lat="45.06782" lon="6.15347">
        <ele>1316.3</ele>
        <time>2026-08-25T09:07:07Z</time>
      </trkpt>
      <trkpt lat="45.06784" lon="6.15348">
        <ele>1316.7</ele>
        <time>2026-08-25T09:07:08Z</time>
      </trkpt>
      <trkpt lat="45.06786" lon="6.15348">
        <ele>1317</ele>
        <time>2026-08-25T09:07:09Z</time>
      </trkpt>
      <trkpt lat="45.06789" lon="6.15348">
        <ele>1317.3</ele>
        <time>2026-08-25T09:07:10Z</time>
      </trkpt>
      <trkpt lat="45.0679" lon="6.15348">
        <ele>1317.5</ele>
        <time>2026-08-25T09:07:11Z</time>
      </trkpt>
      <trkpt lat="45.06792" lon="6.15348">
        <ele>1317.8</ele>
        <time>2026-08-25T09:07:12Z</time>
      </trkpt>
      <trkpt lat="45.06794" lon="6.15348">
        <ele>1318.1</ele>
        <time>2026-08-25T09:07:13Z</time>
      </trkpt>
      <trkpt lat="45.06796" lon="6.15348">
        <ele>1318.3</ele>
        <time>2026-08-25T09:07:14Z</time>
      </trkpt>
      <trkpt lat="45.06798" lon="6.15349">
        <ele>1318.6</ele>
        <time>2026-08-25T09:07:15Z</time>
      </trkpt>
      <trkpt lat="45.068" lon="6.15348">
        <ele>1318.8</ele>
        <time>2026-08-25T09:07:16Z</time>
      </trkpt>
      <trkpt lat="45.06802" lon="6.15349">
        <ele>1319.1</ele>
        <time>2026-08-25T09:07:17Z</time>
      </trkpt>
      <trkpt lat="45.06804" lon="6.15349">
        <ele>1319.4</ele>
        <time>2026-08-25T09:07:18Z</time>
      </trkpt>
      <trkpt lat="45.06807" lon="6.15349">
        <ele>1319.8</ele>
        <time>2026-08-25T09:07:19Z</time>
      </trkpt>
      <trkpt lat="45.06809" lon="6.15349">
        <ele>1320.1</ele>
        <time>2026-08-25T09:07:20Z</time>
      </trkpt>
      <trkpt lat="45.06811" lon="6.15349">
        <ele>1320.4</ele>
        <time>2026-08-25T09:07:21Z</time>
      </trkpt>
      <trkpt lat="45.06813" lon="6.15348">
        <ele>1320.7</ele>
        <time>2026-08-25T09:07:22Z</time>
      </trkpt>
      <trkpt lat="45.06815" lon="6.15349">
        <ele>1321</ele>
        <time>2026-08-25T09:07:23Z</time>
      </trkpt>
      <trkpt lat="45.06817" lon="6.15348">
        <ele>1321.3</ele>
        <time>2026-08-25T09:07:24Z</time>
      </trkpt>
      <trkpt lat="45.06819" lon="6.15349">
        <ele>1321.6</ele>
        <time>2026-08-25T09:07:25Z</time>
      </trkpt>
      <trkpt lat="45.06821" lon="6.15349">
        <ele>1321.9</ele>
        <time>2026-08-25T09:07:26Z</time>
      </trkpt>
      <trkpt lat="45.06823" lon="6.15349">
        <ele>1322.2</ele>
        <time>2026-08-25T09:07:27Z</time>
      </trkpt>
      <trkpt lat="45.06825" lon="6.15349">
        <ele>1322.5</ele>
        <time>2026-08-25T09:07:28Z</time>
      </trkpt>
      <trkpt lat="45.06827" lon="6.15349">
        <ele>1322.8</ele>
        <time>2026-08-25T09:07:29Z</time>
      </trkpt>
      <trkpt lat="45.06829" lon="6.1535">
        <ele>1323.1</ele>
        <time>2026-08-25T09:07:30Z</time>
      </trkpt>
      <trkpt lat="45.06831" lon="6.1535">
        <ele>1323.3</ele>
        <time>2026-08-25T09:07:31Z</time>
      </trkpt>
      <trkpt lat="45.06832" lon="6.15349">
        <ele>1323.6</ele>
        <time>2026-08-25T09:07:32Z</time>
      </trkpt>
      <trkpt lat="45.06834" lon="6.15349">
        <ele>1323.9</ele>
        <time>2026-08-25T09:07:33Z</time>
      </trkpt>
      <trkpt lat="45.06836" lon="6.1535">
        <ele>1324.2</ele>
        <time>2026-08-25T09:07:34Z</time>
      </trkpt>
      <trkpt lat="45.06838" lon="6.15351">
        <ele>1324.5</ele>
        <time>2026-08-25T09:07:35Z</time>
      </trkpt>
      <trkpt lat="45.0684" lon="6.15352">
        <ele>1324.8</ele>
        <time>2026-08-25T09:07:36Z</time>
      </trkpt>
      <trkpt lat="45.06842" lon="6.15352">
        <ele>1325.1</ele>
        <time>2026-08-25T09:07:37Z</time>
      </trkpt>
      <trkpt lat="45.06844" lon="6.15353">
        <ele>1325.4</ele>
        <time>2026-08-25T09:07:38Z</time>
      </trkpt>
      <trkpt lat="45.06846" lon="6.15354">
        <ele>1325.7</ele>
        <time>2026-08-25T09:07:39Z</time>
      </trkpt>
      <trkpt lat="45.06848" lon="6.15354">
        <ele>1326</ele>
        <time>2026-08-25T09:07:40Z</time>
      </trkpt>
      <trkpt lat="45.0685" lon="6.15354">
        <ele>1326.2</ele>
        <time>2026-08-25T09:07:41Z</time>
      </trkpt>
      <trkpt lat="45.06851" lon="6.15355">
        <ele>1326.5</ele>
        <time>2026-08-25T09:07:42Z</time>
      </trkpt>
      <trkpt lat="45.06853" lon="6.15356">
        <ele>1326.8</ele>
        <time>2026-08-25T09:07:43Z</time>
      </trkpt>
      <trkpt lat="45.06855" lon="6.15357">
        <ele>1327.2</ele>
        <time>2026-08-25T09:07:44Z</time>
      </trkpt>
      <trkpt lat="45.06857" lon="6.15359">
        <ele>1327.5</ele>
        <time>2026-08-25T09:07:45Z</time>
      </trkpt>
      <trkpt lat="45.0686" lon="6.1536">
        <ele>1327.9</ele>
        <time>2026-08-25T09:07:46Z</time>
      </trkpt>
      <trkpt lat="45.06861" lon="6.15362">
        <ele>1328.2</ele>
        <time>2026-08-25T09:07:47Z</time>
      </trkpt>
      <trkpt lat="45.06863" lon="6.15363">
        <ele>1328.5</ele>
        <time>2026-08-25T09:07:48Z</time>
      </trkpt>
      <trkpt lat="45.06865" lon="6.15364">
        <ele>1328.8</ele>
        <time>2026-08-25T09:07:49Z</time>
      </trkpt>
      <trkpt lat="45.06866" lon="6.15366">
        <ele>1329.1</ele>
        <time>2026-08-25T09:07:50Z</time>
      </trkpt>
      <trkpt lat="45.06868" lon="6.15367">
        <ele>1329.4</ele>
        <time>2026-08-25T09:07:51Z</time>
      </trkpt>
      <trkpt lat="45.06869" lon="6.15368">
        <ele>1329.6</ele>
        <time>2026-08-25T09:07:52Z</time>
      </trkpt>
      <trkpt lat="45.06871" lon="6.15369">
        <ele>1330</ele>
        <time>2026-08-25T09:07:53Z</time>
      </trkpt>
      <trkpt lat="45.06873" lon="6.15371">
        <ele>1330.3</ele>
        <time>2026-08-25T09:07:54Z</time>
      </trkpt>
      <trkpt lat="45.06875" lon="6.15372">
        <ele>1330.6</ele>
        <time>2026-08-25T09:07:55Z</time>
      </trkpt>
      <trkpt lat="45.06876" lon="6.15372">
        <ele>1330.9</ele>
        <time>2026-08-25T09:07:56Z</time>
      </trkpt>
      <trkpt lat="45.06878" lon="6.15373">
        <ele>1331.2</ele>
        <time>2026-08-25T09:07:57Z</time>
      </trkpt>
      <trkpt lat="45.0688" lon="6.15374">
        <ele>1331.5</ele>
        <time>2026-08-25T09:07:58Z</time>
      </trkpt>
      <trkpt lat="45.06882" lon="6.15375">
        <ele>1331.8</ele>
        <time>2026-08-25T09:07:59Z</time>
      </trkpt>
      <trkpt lat="45.06884" lon="6.15376">
        <ele>1332.1</ele>
        <time>2026-08-25T09:08:00Z</time>
      </trkpt>
      <trkpt lat="45.06886" lon="6.15377">
        <ele>1332.4</ele>
        <time>2026-08-25T09:08:01Z</time>
      </trkpt>
      <trkpt lat="45.06887" lon="6.15377">
        <ele>1332.7</ele>
        <time>2026-08-25T09:08:02Z</time>
      </trkpt>
      <trkpt lat="45.06889" lon="6.15378">
        <ele>1333</ele>
        <time>2026-08-25T09:08:03Z</time>
      </trkpt>
      <trkpt lat="45.06891" lon="6.15379">
        <ele>1333.4</ele>
        <time>2026-08-25T09:08:04Z</time>
      </trkpt>
      <trkpt lat="45.06893" lon="6.1538">
        <ele>1333.7</ele>
        <time>2026-08-25T09:08:05Z</time>
      </trkpt>
      <trkpt lat="45.06895" lon="6.15381">
        <ele>1334</ele>
        <time>2026-08-25T09:08:06Z</time>
      </trkpt>
      <trkpt lat="45.06897" lon="6.15382">
        <ele>1334.3</ele>
        <time>2026-08-25T09:08:07Z</time>
      </trkpt>
      <trkpt lat="45.06899" lon="6.15382">
        <ele>1334.6</ele>
        <time>2026-08-25T09:08:08Z</time>
      </trkpt>
      <trkpt lat="45.06901" lon="6.15383">
        <ele>1334.9</ele>
        <time>2026-08-25T09:08:09Z</time>
      </trkpt>
      <trkpt lat="45.06903" lon="6.15384">
        <ele>1335.2</ele>
        <time>2026-08-25T09:08:10Z</time>
      </trkpt>
      <trkpt lat="45.06904" lon="6.15385">
        <ele>1335.5</ele>
        <time>2026-08-25T09:08:11Z</time>
      </trkpt>
      <trkpt lat="45.06906" lon="6.15386">
        <ele>1335.8</ele>
        <time>2026-08-25T09:08:12Z</time>
      </trkpt>
      <trkpt lat="45.06908" lon="6.15386">
        <ele>1336</ele>
        <time>2026-08-25T09:08:13Z</time>
      </trkpt>
      <trkpt lat="45.0691" lon="6.15386">
        <ele>1336.3</ele>
        <time>2026-08-25T09:08:14Z</time>
      </trkpt>
      <trkpt lat="45.06912" lon="6.15386">
        <ele>1336.5</ele>
        <time>2026-08-25T09:08:15Z</time>
      </trkpt>
      <trkpt lat="45.06914" lon="6.15386">
        <ele>1336.8</ele>
        <time>2026-08-25T09:08:16Z</time>
      </trkpt>
      <trkpt lat="45.06916" lon="6.15386">
        <ele>1337.2</ele>
        <time>2026-08-25T09:08:17Z</time>
      </trkpt>
      <trkpt lat="45.06918" lon="6.15386">
        <ele>1337.5</ele>
        <time>2026-08-25T09:08:18Z</time>
      </trkpt>
      <trkpt lat="45.0692" lon="6.15386">
        <ele>1337.8</ele>
        <time>2026-08-25T09:08:19Z</time>
      </trkpt>
      <trkpt lat="45.06922" lon="6.15386">
        <ele>1338.1</ele>
        <time>2026-08-25T09:08:20Z</time>
      </trkpt>
      <trkpt lat="45.06924" lon="6.15385">
        <ele>1338.4</ele>
        <time>2026-08-25T09:08:21Z</time>
      </trkpt>
      <trkpt lat="45.06927" lon="6.15385">
        <ele>1338.8</ele>
        <time>2026-08-25T09:08:22Z</time>
      </trkpt>
      <trkpt lat="45.06929" lon="6.15384">
        <ele>1339.1</ele>
        <time>2026-08-25T09:08:23Z</time>
      </trkpt>
      <trkpt lat="45.0693" lon="6.15384">
        <ele>1339.3</ele>
        <time>2026-08-25T09:08:24Z</time>
      </trkpt>
      <trkpt lat="45.06932" lon="6.15384">
        <ele>1339.6</ele>
        <time>2026-08-25T09:08:25Z</time>
      </trkpt>
      <trkpt lat="45.06934" lon="6.15384">
        <ele>1339.9</ele>
        <time>2026-08-25T09:08:26Z</time>
      </trkpt>
      <trkpt lat="45.06936" lon="6.15383">
        <ele>1340.2</ele>
        <time>2026-08-25T09:08:27Z</time>
      </trkpt>
      <trkpt lat="45.06938" lon="6.15383">
        <ele>1340.4</ele>
        <time>2026-08-25T09:08:28Z</time>
      </trkpt>
      <trkpt lat="45.0694" lon="6.15382">
        <ele>1340.7</ele>
        <time>2026-08-25T09:08:29Z</time>
      </trkpt>
      <trkpt lat="45.06942" lon="6.15381">
        <ele>1341</ele>
        <time>2026-08-25T09:08:30Z</time>
      </trkpt>
      <trkpt lat="45.06943" lon="6.1538">
        <ele>1341.3</ele>
        <time>2026-08-25T09:08:31Z</time>
      </trkpt>
      <trkpt lat="45.06945" lon="6.15379">
        <ele>1341.5</ele>
        <time>2026-08-25T09:08:32Z</time>
      </trkpt>
      <trkpt lat="45.06947" lon="6.15379">
        <ele>1341.8</ele>
        <time>2026-08-25T09:08:33Z</time>
      </trkpt>
      <trkpt lat="45.06948" lon="6.15378">
        <ele>1342</ele>
        <time>2026-08-25T09:08:34Z</time>
      </trkpt>
      <trkpt lat="45.0695" lon="6.15377">
        <ele>1342.3</ele>
        <time>2026-08-25T09:08:35Z</time>
      </trkpt>
      <trkpt lat="45.06952" lon="6.15377">
        <ele>1342.5</ele>
        <time>2026-08-25T09:08:36Z</time>
      </trkpt>
      <trkpt lat="45.06954" lon="6.15376">
        <ele>1342.8</ele>
        <time>2026-08-25T09:08:37Z</time>
      </trkpt>
      <trkpt lat="45.06956" lon="6.15375">
        <ele>1343.2</ele>
        <time>2026-08-25T09:08:38Z</time>
      </trkpt>
      <trkpt lat="45.06958" lon="6.15374">
        <ele>1343.4</ele>
        <time>2026-08-25T09:08:39Z</time>
      </trkpt>
      <trkpt lat="45.06959" lon="6.15374">
        <ele>1343.7</ele>
        <time>2026-08-25T09:08:40Z</time>
      </trkpt>
      <trkpt lat="45.06961" lon="6.15373">
        <ele>1343.9</ele>
        <time>2026-08-25T09:08:41Z</time>
      </trkpt>
      <trkpt lat="45.06963" lon="6.15373">
        <ele>1344.2</ele>
        <time>2026-08-25T09:08:42Z</time>
      </trkpt>
      <trkpt lat="45.06965" lon="6.15372">
        <ele>1344.5</ele>
        <time>2026-08-25T09:08:43Z</time>
      </trkpt>
      <trkpt lat="45.06967" lon="6.15371">
        <ele>1344.8</ele>
        <time>2026-08-25T09:08:44Z</time>
      </trkpt>
      <trkpt lat="45.06969" lon="6.1537">
        <ele>1345.1</ele>
        <time>2026-08-25T09:08:45Z</time>
      </trkpt>
      <trkpt lat="45.0697" lon="6.1537">
        <ele>1345.3</ele>
        <time>2026-08-25T09:08:46Z</time>
      </trkpt>
      <trkpt lat="45.06972" lon="6.1537">
        <ele>1345.6</ele>
        <time>2026-08-25T09:08:47Z</time>
      </trkpt>
      <trkpt lat="45.06974" lon="6.15369">
        <ele>1345.9</ele>
        <time>2026-08-25T09:08:48Z</time>
      </trkpt>
      <trkpt lat="45.06976" lon="6.15369">
        <ele>1346.1</ele>
        <time>2026-08-25T09:08:49Z</time>
      </trkpt>
      <trkpt lat="45.06978" lon="6.15369">
        <ele>1346.5</ele>
        <time>2026-08-25T09:08:50Z</time>
      </trkpt>
      <trkpt lat="45.0698" lon="6.15368">
        <ele>1346.8</ele>
        <time>2026-08-25T09:08:51Z</time>
      </trkpt>
      <trkpt lat="45.06982" lon="6.15368">
        <ele>1347</ele>
        <time>2026-08-25T09:08:52Z</time>
      </trkpt>
      <trkpt lat="45.06984" lon="6.15367">
        <ele>1347.4</ele>
        <time>2026-08-25T09:08:53Z</time>
      </trkpt>
      <trkpt lat="45.06986" lon="6.15366">
        <ele>1347.7</ele>
        <time>2026-08-25T09:08:54Z</time>
      </trkpt>
      <trkpt lat="45.06987" lon="6.15366">
        <ele>1347.9</ele>
        <time>2026-08-25T09:08:55Z</time>
      </trkpt>
      <trkpt lat="45.06989" lon="6.15366">
        <ele>1348.2</ele>
        <time>2026-08-25T09:08:56Z</time>
      </trkpt>
      <trkpt lat="45.0699" lon="6.15366">
        <ele>1348.4</ele>
        <time>2026-08-25T09:08:57Z</time>
      </trkpt>
      <trkpt lat="45.06992" lon="6.15365">
        <ele>1348.8</ele>
        <time>2026-08-25T09:08:58Z</time>
      </trkpt>
      <trkpt lat="45.06994" lon="6.15365">
        <ele>1349.1</ele>
        <time>2026-08-25T09:08:59Z</time>
      </trkpt>
      <trkpt lat="45.06996" lon="6.15364">
        <ele>1349.3</ele>
        <time>2026-08-25T09:09:00Z</time>
      </trkpt>
      <trkpt lat="45.06998" lon="6.15364">
        <ele>1349.7</ele>
        <time>2026-08-25T09:09:01Z</time>
      </trkpt>
      <trkpt lat="45.07" lon="6.15363">
        <ele>1350</ele>
        <time>2026-08-25T09:09:02Z</time>
      </trkpt>
      <trkpt lat="45.07002" lon="6.15363">
        <ele>1350.3</ele>
        <time>2026-08-25T09:09:03Z</time>
      </trkpt>
      <trkpt lat="45.07003" lon="6.15363">
        <ele>1350.5</ele>
        <time>2026-08-25T09:09:04Z</time>
      </trkpt>
      <trkpt lat="45.07005" lon="6.15363">
        <ele>1350.8</ele>
        <time>2026-08-25T09:09:05Z</time>
      </trkpt>
      <trkpt lat="45.07007" lon="6.15363">
        <ele>1351.1</ele>
        <time>2026-08-25T09:09:06Z</time>
      </trkpt>
      <trkpt lat="45.07008" lon="6.15362">
        <ele>1351.3</ele>
        <time>2026-08-25T09:09:07Z</time>
      </trkpt>
      <trkpt lat="45.0701" lon="6.15362">
        <ele>1351.6</ele>
        <time>2026-08-25T09:09:08Z</time>
      </trkpt>
      <trkpt lat="45.07012" lon="6.15362">
        <ele>1351.9</ele>
        <time>2026-08-25T09:09:09Z</time>
      </trkpt>
      <trkpt lat="45.07014" lon="6.15362">
        <ele>1352.2</ele>
        <time>2026-08-25T09:09:10Z</time>
      </trkpt>
      <trkpt lat="45.07016" lon="6.15362">
        <ele>1352.5</ele>
        <time>2026-08-25T09:09:11Z</time>
      </trkpt>
      <trkpt lat="45.07018" lon="6.15362">
        <ele>1352.8</ele>
        <time>2026-08-25T09:09:12Z</time>
      </trkpt>
      <trkpt lat="45.07019" lon="6.15362">
        <ele>1353.1</ele>
        <time>2026-08-25T09:09:13Z</time>
      </trkpt>
      <trkpt lat="45.07022" lon="6.15362">
        <ele>1353.4</ele>
        <time>2026-08-25T09:09:14Z</time>
      </trkpt>
      <trkpt lat="45.07024" lon="6.15363">
        <ele>1353.7</ele>
        <time>2026-08-25T09:09:15Z</time>
      </trkpt>
      <trkpt lat="45.07026" lon="6.15364">
        <ele>1354</ele>
        <time>2026-08-25T09:09:16Z</time>
      </trkpt>
      <trkpt lat="45.07027" lon="6.15364">
        <ele>1354.2</ele>
        <time>2026-08-25T09:09:17Z</time>
      </trkpt>
      <trkpt lat="45.07029" lon="6.15365">
        <ele>1354.2</ele>
        <time>2026-08-25T09:09:18Z</time>
      </trkpt>
      <trkpt lat="45.07031" lon="6.15365">
        <ele>1354.2</ele>
        <time>2026-08-25T09:09:19Z</time>
      </trkpt>
      <trkpt lat="45.07033" lon="6.15365">
        <ele>1354.6</ele>
        <time>2026-08-25T09:09:20Z</time>
      </trkpt>
      <trkpt lat="45.07035" lon="6.15365">
        <ele>1354.9</ele>
        <time>2026-08-25T09:09:21Z</time>
      </trkpt>
      <trkpt lat="45.07036" lon="6.15366">
        <ele>1355.2</ele>
        <time>2026-08-25T09:09:22Z</time>
      </trkpt>
      <trkpt lat="45.07038" lon="6.15366">
        <ele>1355.5</ele>
        <time>2026-08-25T09:09:23Z</time>
      </trkpt>
      <trkpt lat="45.0704" lon="6.15366">
        <ele>1355.8</ele>
        <time>2026-08-25T09:09:24Z</time>
      </trkpt>
      <trkpt lat="45.07042" lon="6.15367">
        <ele>1356.2</ele>
        <time>2026-08-25T09:09:25Z</time>
      </trkpt>
      <trkpt lat="45.07044" lon="6.15368">
        <ele>1356.6</ele>
        <time>2026-08-25T09:09:26Z</time>
      </trkpt>
      <trkpt lat="45.07045" lon="6.15368">
        <ele>1356.9</ele>
        <time>2026-08-25T09:09:27Z</time>
      </trkpt>
      <trkpt lat="45.07047" lon="6.15369">
        <ele>1357.2</ele>
        <time>2026-08-25T09:09:28Z</time>
      </trkpt>
      <trkpt lat="45.07049" lon="6.1537">
        <ele>1357.6</ele>
        <time>2026-08-25T09:09:29Z</time>
      </trkpt>
      <trkpt lat="45.07051" lon="6.15371">
        <ele>1357.9</ele>
        <time>2026-08-25T09:09:30Z</time>
      </trkpt>
      <trkpt lat="45.07053" lon="6.15371">
        <ele>1358.3</ele>
        <time>2026-08-25T09:09:31Z</time>
      </trkpt>
      <trkpt lat="45.07055" lon="6.15373">
        <ele>1358.6</ele>
        <time>2026-08-25T09:09:32Z</time>
      </trkpt>
      <trkpt lat="45.07056" lon="6.15374">
        <ele>1358.9</ele>
        <time>2026-08-25T09:09:33Z</time>
      </trkpt>
      <trkpt lat="45.07058" lon="6.15375">
        <ele>1359.2</ele>
        <time>2026-08-25T09:09:34Z</time>
      </trkpt>
      <trkpt lat="45.07059" lon="6.15375">
        <ele>1359.5</ele>
        <time>2026-08-25T09:09:35Z</time>
      </trkpt>
      <trkpt lat="45.07061" lon="6.15376">
        <ele>1359.8</ele>
        <time>2026-08-25T09:09:36Z</time>
      </trkpt>
      <trkpt lat="45.07062" lon="6.15377">
        <ele>1360.1</ele>
        <time>2026-08-25T09:09:37Z</time>
      </trkpt>
      <trkpt lat="45.07063" lon="6.15379">
        <ele>1360.4</ele>
        <time>2026-08-25T09:09:38Z</time>
      </trkpt>
      <trkpt lat="45.07065" lon="6.1538">
        <ele>1360.7</ele>
        <time>2026-08-25T09:09:39Z</time>
      </trkpt>
      <trkpt lat="45.07066" lon="6.15381">
        <ele>1361.1</ele>
        <time>2026-08-25T09:09:40Z</time>
      </trkpt>
      <trkpt lat="45.07068" lon="6.15383">
        <ele>1361.5</ele>
        <time>2026-08-25T09:09:41Z</time>
      </trkpt>
      <trkpt lat="45.0707" lon="6.15384">
        <ele>1361.8</ele>
        <time>2026-08-25T09:09:42Z</time>
      </trkpt>
      <trkpt lat="45.07071" lon="6.15385">
        <ele>1362.1</ele>
        <time>2026-08-25T09:09:43Z</time>
      </trkpt>
      <trkpt lat="45.07073" lon="6.15386">
        <ele>1362.4</ele>
        <time>2026-08-25T09:09:44Z</time>
      </trkpt>
      <trkpt lat="45.07075" lon="6.15387">
        <ele>1362.8</ele>
        <time>2026-08-25T09:09:45Z</time>
      </trkpt>
      <trkpt lat="45.07076" lon="6.15389">
        <ele>1363.1</ele>
        <time>2026-08-25T09:09:46Z</time>
      </trkpt>
      <trkpt lat="45.07078" lon="6.1539">
        <ele>1363.5</ele>
        <time>2026-08-25T09:09:47Z</time>
      </trkpt>
      <trkpt lat="45.0708" lon="6.15391">
        <ele>1363.8</ele>
        <time>2026-08-25T09:09:48Z</time>
      </trkpt>
      <trkpt lat="45.07082" lon="6.15392">
        <ele>1364.1</ele>
        <time>2026-08-25T09:09:49Z</time>
      </trkpt>
      <trkpt lat="45.07083" lon="6.15393">
        <ele>1364.4</ele>
        <time>2026-08-25T09:09:50Z</time>
      </trkpt>
      <trkpt lat="45.07085" lon="6.15394">
        <ele>1364.8</ele>
        <time>2026-08-25T09:09:51Z</time>
      </trkpt>
      <trkpt lat="45.07087" lon="6.15396">
        <ele>1365.2</ele>
        <time>2026-08-25T09:09:52Z</time>
      </trkpt>
      <trkpt lat="45.07089" lon="6.15398">
        <ele>1365.6</ele>
        <time>2026-08-25T09:09:53Z</time>
      </trkpt>
      <trkpt lat="45.0709" lon="6.15399">
        <ele>1365.9</ele>
        <time>2026-08-25T09:09:54Z</time>
      </trkpt>
      <trkpt lat="45.07092" lon="6.154">
        <ele>1366.2</ele>
        <time>2026-08-25T09:09:55Z</time>
      </trkpt>
      <trkpt lat="45.07094" lon="6.15401">
        <ele>1366.6</ele>
        <time>2026-08-25T09:09:56Z</time>
      </trkpt>
      <trkpt lat="45.07096" lon="6.15403">
        <ele>1366.9</ele>
        <time>2026-08-25T09:09:57Z</time>
      </trkpt>
      <trkpt lat="45.07097" lon="6.15405">
        <ele>1367.3</ele>
        <time>2026-08-25T09:09:58Z</time>
      </trkpt>
      <trkpt lat="45.07099" lon="6.15406">
        <ele>1367.6</ele>
        <time>2026-08-25T09:09:59Z</time>
      </trkpt>
      <trkpt lat="45.07101" lon="6.15408">
        <ele>1368</ele>
        <time>2026-08-25T09:10:00Z</time>
      </trkpt>
      <trkpt lat="45.07103" lon="6.15409">
        <ele>1368.3</ele>
        <time>2026-08-25T09:10:01Z</time>
      </trkpt>
      <trkpt lat="45.07105" lon="6.1541">
        <ele>1368.6</ele>
        <time>2026-08-25T09:10:02Z</time>
      </trkpt>
      <trkpt lat="45.07107" lon="6.15411">
        <ele>1368.9</ele>
        <time>2026-08-25T09:10:03Z</time>
      </trkpt>
      <trkpt lat="45.07108" lon="6.15412">
        <ele>1369.2</ele>
        <time>2026-08-25T09:10:04Z</time>
      </trkpt>
      <trkpt lat="45.0711" lon="6.15414">
        <ele>1369.5</ele>
        <time>2026-08-25T09:10:05Z</time>
      </trkpt>
      <trkpt lat="45.07112" lon="6.15416">
        <ele>1369.8</ele>
        <time>2026-08-25T09:10:06Z</time>
      </trkpt>
      <trkpt lat="45.07113" lon="6.15418">
        <ele>1370.1</ele>
        <time>2026-08-25T09:10:07Z</time>
      </trkpt>
      <trkpt lat="45.07115" lon="6.1542">
        <ele>1370.4</ele>
        <time>2026-08-25T09:10:08Z</time>
      </trkpt>
      <trkpt lat="45.07116" lon="6.15421">
        <ele>1370.7</ele>
        <time>2026-08-25T09:10:09Z</time>
      </trkpt>
      <trkpt lat="45.07118" lon="6.15423">
        <ele>1370.9</ele>
        <time>2026-08-25T09:10:10Z</time>
      </trkpt>
      <trkpt lat="45.07119" lon="6.15425">
        <ele>1371.2</ele>
        <time>2026-08-25T09:10:11Z</time>
      </trkpt>
      <trkpt lat="45.07121" lon="6.15428">
        <ele>1371.3</ele>
        <time>2026-08-25T09:10:12Z</time>
      </trkpt>
      <trkpt lat="45.07123" lon="6.15431">
        <ele>1371.3</ele>
        <time>2026-08-25T09:10:13Z</time>
      </trkpt>
      <trkpt lat="45.07124" lon="6.15434">
        <ele>1371.3</ele>
        <time>2026-08-25T09:10:14Z</time>
      </trkpt>
      <trkpt lat="45.07125" lon="6.15437">
        <ele>1371.3</ele>
        <time>2026-08-25T09:10:15Z</time>
      </trkpt>
      <trkpt lat="45.07126" lon="6.15441">
        <ele>1371.2</ele>
        <time>2026-08-25T09:10:16Z</time>
      </trkpt>
      <trkpt lat="45.07127" lon="6.15446">
        <ele>1371.2</ele>
        <time>2026-08-25T09:10:17Z</time>
      </trkpt>
      <trkpt lat="45.07128" lon="6.1545">
        <ele>1371.1</ele>
        <time>2026-08-25T09:10:18Z</time>
      </trkpt>
      <trkpt lat="45.07129" lon="6.15455">
        <ele>1371.1</ele>
        <time>2026-08-25T09:10:19Z</time>
      </trkpt>
      <trkpt lat="45.0713" lon="6.15462">
        <ele>1371</ele>
        <time>2026-08-25T09:10:20Z</time>
      </trkpt>
      <trkpt lat="45.07132" lon="6.15468">
        <ele>1370.8</ele>
        <time>2026-08-25T09:10:21Z</time>
      </trkpt>
      <trkpt lat="45.07133" lon="6.15475">
        <ele>1370.6</ele>
        <time>2026-08-25T09:10:22Z</time>
      </trkpt>
      <trkpt lat="45.07135" lon="6.15481">
        <ele>1370.5</ele>
        <time>2026-08-25T09:10:23Z</time>
      </trkpt>
      <trkpt lat="45.07138" lon="6.15487">
        <ele>1370.3</ele>
        <time>2026-08-25T09:10:24Z</time>
      </trkpt>
      <trkpt lat="45.07141" lon="6.15494">
        <ele>1370.2</ele>
        <time>2026-08-25T09:10:25Z</time>
      </trkpt>
      <trkpt lat="45.07143" lon="6.15501">
        <ele>1370</ele>
        <time>2026-08-25T09:10:26Z</time>
      </trkpt>
      <trkpt lat="45.07146" lon="6.15509">
        <ele>1369.8</ele>
        <time>2026-08-25T09:10:27Z</time>
      </trkpt>
      <trkpt lat="45.07148" lon="6.15518">
        <ele>1369.6</ele>
        <time>2026-08-25T09:10:28Z</time>
      </trkpt>
      <trkpt lat="45.07151" lon="6.15527">
        <ele>1369.4</ele>
        <time>2026-08-25T09:10:29Z</time>
      </trkpt>
      <trkpt lat="45.07155" lon="6.15536">
        <ele>1369.2</ele>
        <time>2026-08-25T09:10:30Z</time>
      </trkpt>
      <trkpt lat="45.0716" lon="6.15544">
        <ele>1369.1</ele>
        <time>2026-08-25T09:10:31Z</time>
      </trkpt>
      <trkpt lat="45.07165" lon="6.1555">
        <ele>1369.3</ele>
        <time>2026-08-25T09:10:32Z</time>
      </trkpt>
      <trkpt lat="45.07169" lon="6.15556">
        <ele>1369.6</ele>
        <time>2026-08-25T09:10:33Z</time>
      </trkpt>
      <trkpt lat="45.07173" lon="6.15561">
        <ele>1369.9</ele>
        <time>2026-08-25T09:10:34Z</time>
      </trkpt>
      <trkpt lat="45.07176" lon="6.15565">
        <ele>1370.1</ele>
        <time>2026-08-25T09:10:35Z</time>
      </trkpt>
      <trkpt lat="45.07179" lon="6.15568">
        <ele>1370.3</ele>
        <time>2026-08-25T09:10:36Z</time>
      </trkpt>
      <trkpt lat="45.07182" lon="6.15571">
        <ele>1370.5</ele>
        <time>2026-08-25T09:10:37Z</time>
      </trkpt>
      <trkpt lat="45.07184" lon="6.15575">
        <ele>1370.6</ele>
        <time>2026-08-25T09:10:38Z</time>
      </trkpt>
      <trkpt lat="45.07186" lon="6.15577">
        <ele>1370.7</ele>
        <time>2026-08-25T09:10:39Z</time>
      </trkpt>
      <trkpt lat="45.07188" lon="6.15579">
        <ele>1370.9</ele>
        <time>2026-08-25T09:10:40Z</time>
      </trkpt>
      <trkpt lat="45.07191" lon="6.15582">
        <ele>1371</ele>
        <time>2026-08-25T09:10:41Z</time>
      </trkpt>
      <trkpt lat="45.07193" lon="6.15584">
        <ele>1371.1</ele>
        <time>2026-08-25T09:10:42Z</time>
      </trkpt>
      <trkpt lat="45.07196" lon="6.15587">
        <ele>1371.3</ele>
        <time>2026-08-25T09:10:43Z</time>
      </trkpt>
      <trkpt lat="45.07199" lon="6.15589">
        <ele>1371.4</ele>
        <time>2026-08-25T09:10:44Z</time>
      </trkpt>
      <trkpt lat="45.07202" lon="6.15591">
        <ele>1371.5</ele>
        <time>2026-08-25T09:10:45Z</time>
      </trkpt>
      <trkpt lat="45.07205" lon="6.15594">
        <ele>1371.6</ele>
        <time>2026-08-25T09:10:46Z</time>
      </trkpt>
      <trkpt lat="45.07207" lon="6.15596">
        <ele>1371.7</ele>
        <time>2026-08-25T09:10:47Z</time>
      </trkpt>
      <trkpt lat="45.0721" lon="6.15598">
        <ele>1371.9</ele>
        <time>2026-08-25T09:10:48Z</time>
      </trkpt>
      <trkpt lat="45.07213" lon="6.15601">
        <ele>1372</ele>
        <time>2026-08-25T09:10:49Z</time>
      </trkpt>
      <trkpt lat="45.07216" lon="6.15603">
        <ele>1372.2</ele>
        <time>2026-08-25T09:10:50Z</time>
      </trkpt>
      <trkpt lat="45.07219" lon="6.15606">
        <ele>1372.3</ele>
        <time>2026-08-25T09:10:51Z</time>
      </trkpt>
      <trkpt lat="45.07222" lon="6.1561">
        <ele>1372.5</ele>
        <time>2026-08-25T09:10:52Z</time>
      </trkpt>
      <trkpt lat="45.07224" lon="6.15612">
        <ele>1372.6</ele>
        <time>2026-08-25T09:10:53Z</time>
      </trkpt>
      <trkpt lat="45.07227" lon="6.15615">
        <ele>1372.7</ele>
        <time>2026-08-25T09:10:54Z</time>
      </trkpt>
      <trkpt lat="45.0723" lon="6.15618">
        <ele>1372.8</ele>
        <time>2026-08-25T09:10:55Z</time>
      </trkpt>
      <trkpt lat="45.07233" lon="6.15621">
        <ele>1372.9</ele>
        <time>2026-08-25T09:10:56Z</time>
      </trkpt>
      <trkpt lat="45.07236" lon="6.15624">
        <ele>1372.9</ele>
        <time>2026-08-25T09:10:57Z</time>
      </trkpt>
      <trkpt lat="45.07239" lon="6.15627">
        <ele>1373</ele>
        <time>2026-08-25T09:10:58Z</time>
      </trkpt>
      <trkpt lat="45.07242" lon="6.1563">
        <ele>1373</ele>
        <time>2026-08-25T09:10:59Z</time>
      </trkpt>
      <trkpt lat="45.07246" lon="6.15633">
        <ele>1373</ele>
        <time>2026-08-25T09:11:00Z</time>
      </trkpt>
      <trkpt lat="45.07249" lon="6.15636">
        <ele>1373</ele>
        <time>2026-08-25T09:11:01Z</time>
      </trkpt>
      <trkpt lat="45.07253" lon="6.15639">
        <ele>1373</ele>
        <time>2026-08-25T09:11:02Z</time>
      </trkpt>
      <trkpt lat="45.07256" lon="6.15642">
        <ele>1373</ele>
        <time>2026-08-25T09:11:03Z</time>
      </trkpt>
      <trkpt lat="45.0726" lon="6.15646">
        <ele>1373</ele>
        <time>2026-08-25T09:11:04Z</time>
      </trkpt>
      <trkpt lat="45.07264" lon="6.15649">
        <ele>1373</ele>
        <time>2026-08-25T09:11:05Z</time>
      </trkpt>
      <trkpt lat="45.07267" lon="6.15652">
        <ele>1373</ele>
        <time>2026-08-25T09:11:06Z</time>
      </trkpt>
      <trkpt lat="45.07271" lon="6.15654">
        <ele>1373</ele>
        <time>2026-08-25T09:11:07Z</time>
      </trkpt>
      <trkpt lat="45.07274" lon="6.15657">
        <ele>1373</ele>
        <time>2026-08-25T09:11:08Z</time>
      </trkpt>
      <trkpt lat="45.07278" lon="6.1566">
        <ele>1373.1</ele>
        <time>2026-08-25T09:11:09Z</time>
      </trkpt>
      <trkpt lat="45.07281" lon="6.15663">
        <ele>1373.1</ele>
        <time>2026-08-25T09:11:10Z</time>
      </trkpt>
      <trkpt lat="45.07284" lon="6.15665">
        <ele>1373.1</ele>
        <time>2026-08-25T09:11:11Z</time>
      </trkpt>
      <trkpt lat="45.07288" lon="6.15668">
        <ele>1373.1</ele>
        <time>2026-08-25T09:11:12Z</time>
      </trkpt>
      <trkpt lat="45.07292" lon="6.15671">
        <ele>1373.1</ele>
        <time>2026-08-25T09:11:13Z</time>
      </trkpt>
      <trkpt lat="45.07296" lon="6.15673">
        <ele>1373.1</ele>
        <time>2026-08-25T09:11:14Z</time>
      </trkpt>
      <trkpt lat="45.073" lon="6.15676">
        <ele>1373</ele>
        <time>2026-08-25T09:11:15Z</time>
      </trkpt>
      <trkpt lat="45.07304" lon="6.15678">
        <ele>1373</ele>
        <time>2026-08-25T09:11:16Z</time>
      </trkpt>
      <trkpt lat="45.07308" lon="6.1568">
        <ele>1373</ele>
        <time>2026-08-25T09:11:17Z</time>
      </trkpt>
      <trkpt lat="45.07312" lon="6.15682">
        <ele>1372.9</ele>
        <time>2026-08-25T09:11:18Z</time>
      </trkpt>
      <trkpt lat="45.07316" lon="6.15684">
        <ele>1372.9</ele>
        <time>2026-08-25T09:11:19Z</time>
      </trkpt>
      <trkpt lat="45.0732" lon="6.15687">
        <ele>1372.9</ele>
        <time>2026-08-25T09:11:20Z</time>
      </trkpt>
      <trkpt lat="45.07324" lon="6.15689">
        <ele>1372.9</ele>
        <time>2026-08-25T09:11:21Z</time>
      </trkpt>
      <trkpt lat="45.07329" lon="6.15692">
        <ele>1372.8</ele>
        <time>2026-08-25T09:11:22Z</time>
      </trkpt>
      <trkpt lat="45.07333" lon="6.15694">
        <ele>1372.8</ele>
        <time>2026-08-25T09:11:23Z</time>
      </trkpt>
      <trkpt lat="45.07337" lon="6.15698">
        <ele>1372.8</ele>
        <time>2026-08-25T09:11:24Z</time>
      </trkpt>
      <trkpt lat="45.07341" lon="6.15701">
        <ele>1372.8</ele>
        <time>2026-08-25T09:11:25Z</time>
      </trkpt>
      <trkpt lat="45.07346" lon="6.15705">
        <ele>1372.7</ele>
        <time>2026-08-25T09:11:26Z</time>
      </trkpt>
      <trkpt lat="45.0735" lon="6.15709">
        <ele>1372.7</ele>
        <time>2026-08-25T09:11:27Z</time>
      </trkpt>
      <trkpt lat="45.07355" lon="6.15714">
        <ele>1372.7</ele>
        <time>2026-08-25T09:11:28Z</time>
      </trkpt>
      <trkpt lat="45.07359" lon="6.15718">
        <ele>1372.7</ele>
        <time>2026-08-25T09:11:29Z</time>
      </trkpt>
      <trkpt lat="45.07364" lon="6.15724">
        <ele>1372.7</ele>
        <time>2026-08-25T09:11:30Z</time>
      </trkpt>
      <trkpt lat="45.07369" lon="6.15729">
        <ele>1372.7</ele>
        <time>2026-08-25T09:11:31Z</time>
      </trkpt>
      <trkpt lat="45.07373" lon="6.15734">
        <ele>1372.7</ele>
        <time>2026-08-25T09:11:32Z</time>
      </trkpt>
      <trkpt lat="45.07378" lon="6.15739">
        <ele>1372.7</ele>
        <time>2026-08-25T09:11:33Z</time>
      </trkpt>
      <trkpt lat="45.07383" lon="6.15743">
        <ele>1372.8</ele>
        <time>2026-08-25T09:11:34Z</time>
      </trkpt>
      <trkpt lat="45.07388" lon="6.15747">
        <ele>1372.8</ele>
        <time>2026-08-25T09:11:35Z</time>
      </trkpt>
      <trkpt lat="45.07393" lon="6.1575">
        <ele>1372.8</ele>
        <time>2026-08-25T09:11:36Z</time>
      </trkpt>
      <trkpt lat="45.07399" lon="6.15752">
        <ele>1372.8</ele>
        <time>2026-08-25T09:11:37Z</time>
      </trkpt>
      <trkpt lat="45.07404" lon="6.15753">
        <ele>1372.8</ele>
        <time>2026-08-25T09:11:38Z</time>
      </trkpt>
      <trkpt lat="45.0741" lon="6.15755">
        <ele>1372.7</ele>
        <time>2026-08-25T09:11:39Z</time>
      </trkpt>
      <trkpt lat="45.07415" lon="6.15758">
        <ele>1372.7</ele>
        <time>2026-08-25T09:11:40Z</time>
      </trkpt>
      <trkpt lat="45.0742" lon="6.15762">
        <ele>1372.7</ele>
        <time>2026-08-25T09:11:41Z</time>
      </trkpt>
      <trkpt lat="45.07425" lon="6.15767">
        <ele>1372.8</ele>
        <time>2026-08-25T09:11:42Z</time>
      </trkpt>
      <trkpt lat="45.07429" lon="6.15773">
        <ele>1372.9</ele>
        <time>2026-08-25T09:11:43Z</time>
      </trkpt>
      <trkpt lat="45.07433" lon="6.15778">
        <ele>1373</ele>
        <time>2026-08-25T09:11:44Z</time>
      </trkpt>
      <trkpt lat="45.07437" lon="6.15784">
        <ele>1373.1</ele>
        <time>2026-08-25T09:11:45Z</time>
      </trkpt>
      <trkpt lat="45.07441" lon="6.1579">
        <ele>1373.3</ele>
        <time>2026-08-25T09:11:46Z</time>
      </trkpt>
      <trkpt lat="45.07446" lon="6.15796">
        <ele>1373.4</ele>
        <time>2026-08-25T09:11:47Z</time>
      </trkpt>
      <trkpt lat="45.0745" lon="6.15802">
        <ele>1373.6</ele>
        <time>2026-08-25T09:11:48Z</time>
      </trkpt>
      <trkpt lat="45.07455" lon="6.15807">
        <ele>1373.7</ele>
        <time>2026-08-25T09:11:49Z</time>
      </trkpt>
      <trkpt lat="45.0746" lon="6.15811">
        <ele>1373.9</ele>
        <time>2026-08-25T09:11:50Z</time>
      </trkpt>
      <trkpt lat="45.07465" lon="6.15814">
        <ele>1374.1</ele>
        <time>2026-08-25T09:11:51Z</time>
      </trkpt>
      <trkpt lat="45.0747" lon="6.15815">
        <ele>1374.2</ele>
        <time>2026-08-25T09:11:52Z</time>
      </trkpt>
      <trkpt lat="45.07476" lon="6.15815">
        <ele>1374.3</ele>
        <time>2026-08-25T09:11:53Z</time>
      </trkpt>
      <trkpt lat="45.07481" lon="6.15814">
        <ele>1374.5</ele>
        <time>2026-08-25T09:11:54Z</time>
      </trkpt>
      <trkpt lat="45.07486" lon="6.15814">
        <ele>1374.6</ele>
        <time>2026-08-25T09:11:55Z</time>
      </trkpt>
      <trkpt lat="45.07492" lon="6.15813">
        <ele>1374.7</ele>
        <time>2026-08-25T09:11:56Z</time>
      </trkpt>
      <trkpt lat="45.07498" lon="6.15812">
        <ele>1374.7</ele>
        <time>2026-08-25T09:11:57Z</time>
      </trkpt>
      <trkpt lat="45.07504" lon="6.1581">
        <ele>1374.8</ele>
        <time>2026-08-25T09:11:58Z</time>
      </trkpt>
      <trkpt lat="45.07509" lon="6.15809">
        <ele>1374.9</ele>
        <time>2026-08-25T09:11:59Z</time>
      </trkpt>
      <trkpt lat="45.07515" lon="6.15808">
        <ele>1375</ele>
        <time>2026-08-25T09:12:00Z</time>
      </trkpt>
      <trkpt lat="45.0752" lon="6.15808">
        <ele>1375.1</ele>
        <time>2026-08-25T09:12:01Z</time>
      </trkpt>
      <trkpt lat="45.07526" lon="6.15808">
        <ele>1375.2</ele>
        <time>2026-08-25T09:12:02Z</time>
      </trkpt>
      <trkpt lat="45.07531" lon="6.15809">
        <ele>1375.3</ele>
        <time>2026-08-25T09:12:03Z</time>
      </trkpt>
      <trkpt lat="45.07537" lon="6.1581">
        <ele>1375.5</ele>
        <time>2026-08-25T09:12:04Z</time>
      </trkpt>
      <trkpt lat="45.07542" lon="6.15812">
        <ele>1375.6</ele>
        <time>2026-08-25T09:12:05Z</time>
      </trkpt>
      <trkpt lat="45.07547" lon="6.15814">
        <ele>1375.7</ele>
        <time>2026-08-25T09:12:06Z</time>
      </trkpt>
      <trkpt lat="45.07552" lon="6.15816">
        <ele>1375.9</ele>
        <time>2026-08-25T09:12:07Z</time>
      </trkpt>
      <trkpt lat="45.07556" lon="6.15818">
        <ele>1376</ele>
        <time>2026-08-25T09:12:08Z</time>
      </trkpt>
      <trkpt lat="45.07561" lon="6.1582">
        <ele>1376.1</ele>
        <time>2026-08-25T09:12:09Z</time>
      </trkpt>
      <trkpt lat="45.07565" lon="6.15822">
        <ele>1376.2</ele>
        <time>2026-08-25T09:12:10Z</time>
      </trkpt>
      <trkpt lat="45.07569" lon="6.15824">
        <ele>1376.4</ele>
        <time>2026-08-25T09:12:11Z</time>
      </trkpt>
      <trkpt lat="45.07574" lon="6.15825">
        <ele>1376.5</ele>
        <time>2026-08-25T09:12:12Z</time>
      </trkpt>
      <trkpt lat="45.07578" lon="6.15827">
        <ele>1376.6</ele>
        <time>2026-08-25T09:12:13Z</time>
      </trkpt>
      <trkpt lat="45.07584" lon="6.15829">
        <ele>1376.8</ele>
        <time>2026-08-25T09:12:14Z</time>
      </trkpt>
      <trkpt lat="45.07589" lon="6.15832">
        <ele>1376.9</ele>
        <time>2026-08-25T09:12:15Z</time>
      </trkpt>
      <trkpt lat="45.07593" lon="6.15833">
        <ele>1377</ele>
        <time>2026-08-25T09:12:16Z</time>
      </trkpt>
      <trkpt lat="45.07598" lon="6.15835">
        <ele>1377.1</ele>
        <time>2026-08-25T09:12:17Z</time>
      </trkpt>
      <trkpt lat="45.07603" lon="6.15836">
        <ele>1377.2</ele>
        <time>2026-08-25T09:12:18Z</time>
      </trkpt>
      <trkpt lat="45.07608" lon="6.15836">
        <ele>1377.3</ele>
        <time>2026-08-25T09:12:19Z</time>
      </trkpt>
      <trkpt lat="45.07613" lon="6.15837">
        <ele>1377.4</ele>
        <time>2026-08-25T09:12:20Z</time>
      </trkpt>
      <trkpt lat="45.07618" lon="6.15837">
        <ele>1377.5</ele>
        <time>2026-08-25T09:12:21Z</time>
      </trkpt>
      <trkpt lat="45.07623" lon="6.15836">
        <ele>1377.6</ele>
        <time>2026-08-25T09:12:22Z</time>
      </trkpt>
      <trkpt lat="45.07629" lon="6.15836">
        <ele>1377.7</ele>
        <time>2026-08-25T09:12:23Z</time>
      </trkpt>
      <trkpt lat="45.07634" lon="6.15835">
        <ele>1377.9</ele>
        <time>2026-08-25T09:12:24Z</time>
      </trkpt>
      <trkpt lat="45.07639" lon="6.15834">
        <ele>1378</ele>
        <time>2026-08-25T09:12:25Z</time>
      </trkpt>
      <trkpt lat="45.07643" lon="6.15833">
        <ele>1378.2</ele>
        <time>2026-08-25T09:12:26Z</time>
      </trkpt>
      <trkpt lat="45.07647" lon="6.15831">
        <ele>1378.4</ele>
        <time>2026-08-25T09:12:27Z</time>
      </trkpt>
      <trkpt lat="45.07651" lon="6.15829">
        <ele>1378.5</ele>
        <time>2026-08-25T09:12:28Z</time>
      </trkpt>
      <trkpt lat="45.07655" lon="6.15827">
        <ele>1378.7</ele>
        <time>2026-08-25T09:12:29Z</time>
      </trkpt>
      <trkpt lat="45.07659" lon="6.15824">
        <ele>1378.9</ele>
        <time>2026-08-25T09:12:30Z</time>
      </trkpt>
      <trkpt lat="45.07663" lon="6.1582">
        <ele>1379</ele>
        <time>2026-08-25T09:12:31Z</time>
      </trkpt>
      <trkpt lat="45.07667" lon="6.15817">
        <ele>1379.1</ele>
        <time>2026-08-25T09:12:32Z</time>
      </trkpt>
      <trkpt lat="45.07671" lon="6.15813">
        <ele>1379.3</ele>
        <time>2026-08-25T09:12:33Z</time>
      </trkpt>
      <trkpt lat="45.07675" lon="6.15809">
        <ele>1379.4</ele>
        <time>2026-08-25T09:12:34Z</time>
      </trkpt>
      <trkpt lat="45.07678" lon="6.15806">
        <ele>1379.5</ele>
        <time>2026-08-25T09:12:35Z</time>
      </trkpt>
      <trkpt lat="45.07682" lon="6.15802">
        <ele>1379.6</ele>
        <time>2026-08-25T09:12:36Z</time>
      </trkpt>
      <trkpt lat="45.07686" lon="6.158">
        <ele>1379.7</ele>
        <time>2026-08-25T09:12:37Z</time>
      </trkpt>
      <trkpt lat="45.0769" lon="6.15799">
        <ele>1379.7</ele>
        <time>2026-08-25T09:12:38Z</time>
      </trkpt>
      <trkpt lat="45.07695" lon="6.15798">
        <ele>1379.8</ele>
        <time>2026-08-25T09:12:39Z</time>
      </trkpt>
      <trkpt lat="45.07699" lon="6.15797">
        <ele>1379.9</ele>
        <time>2026-08-25T09:12:40Z</time>
      </trkpt>
      <trkpt lat="45.07703" lon="6.15797">
        <ele>1380</ele>
        <time>2026-08-25T09:12:41Z</time>
      </trkpt>
      <trkpt lat="45.07707" lon="6.15797">
        <ele>1380.1</ele>
        <time>2026-08-25T09:12:42Z</time>
      </trkpt>
      <trkpt lat="45.07711" lon="6.15798">
        <ele>1380.1</ele>
        <time>2026-08-25T09:12:43Z</time>
      </trkpt>
      <trkpt lat="45.07715" lon="6.15798">
        <ele>1380.2</ele>
        <time>2026-08-25T09:12:44Z</time>
      </trkpt>
      <trkpt lat="45.07719" lon="6.15799">
        <ele>1380.3</ele>
        <time>2026-08-25T09:12:45Z</time>
      </trkpt>
      <trkpt lat="45.07723" lon="6.15799">
        <ele>1380.4</ele>
        <time>2026-08-25T09:12:46Z</time>
      </trkpt>
      <trkpt lat="45.07726" lon="6.15799">
        <ele>1380.4</ele>
        <time>2026-08-25T09:12:47Z</time>
      </trkpt>
      <trkpt lat="45.0773" lon="6.15799">
        <ele>1380.5</ele>
        <time>2026-08-25T09:12:48Z</time>
      </trkpt>
      <trkpt lat="45.07734" lon="6.15799">
        <ele>1380.5</ele>
        <time>2026-08-25T09:12:49Z</time>
      </trkpt>
      <trkpt lat="45.07738" lon="6.15799">
        <ele>1380.6</ele>
        <time>2026-08-25T09:12:50Z</time>
      </trkpt>
      <trkpt lat="45.07741" lon="6.15799">
        <ele>1380.7</ele>
        <time>2026-08-25T09:12:51Z</time>
      </trkpt>
      <trkpt lat="45.07745" lon="6.158">
        <ele>1380.7</ele>
        <time>2026-08-25T09:12:52Z</time>
      </trkpt>
      <trkpt lat="45.07749" lon="6.158">
        <ele>1380.8</ele>
        <time>2026-08-25T09:12:53Z</time>
      </trkpt>
      <trkpt lat="45.07753" lon="6.15801">
        <ele>1380.8</ele>
        <time>2026-08-25T09:12:54Z</time>
      </trkpt>
      <trkpt lat="45.07757" lon="6.15801">
        <ele>1380.9</ele>
        <time>2026-08-25T09:12:55Z</time>
      </trkpt>
      <trkpt lat="45.07761" lon="6.15802">
        <ele>1381</ele>
        <time>2026-08-25T09:12:56Z</time>
      </trkpt>
      <trkpt lat="45.07765" lon="6.15802">
        <ele>1381.1</ele>
        <time>2026-08-25T09:12:57Z</time>
      </trkpt>
      <trkpt lat="45.07768" lon="6.15803">
        <ele>1381.2</ele>
        <time>2026-08-25T09:12:58Z</time>
      </trkpt>
      <trkpt lat="45.07771" lon="6.15803">
        <ele>1381.3</ele>
        <time>2026-08-25T09:12:59Z</time>
      </trkpt>
      <trkpt lat="45.07775" lon="6.15803">
        <ele>1381.4</ele>
        <time>2026-08-25T09:13:00Z</time>
      </trkpt>
      <trkpt lat="45.07778" lon="6.15803">
        <ele>1381.5</ele>
        <time>2026-08-25T09:13:01Z</time>
      </trkpt>
      <trkpt lat="45.07781" lon="6.15803">
        <ele>1381.5</ele>
        <time>2026-08-25T09:13:02Z</time>
      </trkpt>
      <trkpt lat="45.07784" lon="6.15803">
        <ele>1381.6</ele>
        <time>2026-08-25T09:13:03Z</time>
      </trkpt>
      <trkpt lat="45.07787" lon="6.15802">
        <ele>1381.7</ele>
        <time>2026-08-25T09:13:04Z</time>
      </trkpt>
      <trkpt lat="45.07791" lon="6.15802">
        <ele>1381.8</ele>
        <time>2026-08-25T09:13:05Z</time>
      </trkpt>
      <trkpt lat="45.07795" lon="6.15802">
        <ele>1381.9</ele>
        <time>2026-08-25T09:13:06Z</time>
      </trkpt>
      <trkpt lat="45.07798" lon="6.15802">
        <ele>1382</ele>
        <time>2026-08-25T09:13:07Z</time>
      </trkpt>
      <trkpt lat="45.07802" lon="6.15803">
        <ele>1382.1</ele>
        <time>2026-08-25T09:13:08Z</time>
      </trkpt>
      <trkpt lat="45.07805" lon="6.15803">
        <ele>1382.2</ele>
        <time>2026-08-25T09:13:09Z</time>
      </trkpt>
      <trkpt lat="45.07809" lon="6.15804">
        <ele>1382.3</ele>
        <time>2026-08-25T09:13:10Z</time>
      </trkpt>
      <trkpt lat="45.07812" lon="6.15805">
        <ele>1382.4</ele>
        <time>2026-08-25T09:13:11Z</time>
      </trkpt>
      <trkpt lat="45.07815" lon="6.15806">
        <ele>1382.4</ele>
        <time>2026-08-25T09:13:12Z</time>
      </trkpt>
      <trkpt lat="45.07818" lon="6.15806">
        <ele>1382.5</ele>
        <time>2026-08-25T09:13:13Z</time>
      </trkpt>
      <trkpt lat="45.07822" lon="6.15808">
        <ele>1382.6</ele>
        <time>2026-08-25T09:13:14Z</time>
      </trkpt>
      <trkpt lat="45.07825" lon="6.1581">
        <ele>1382.7</ele>
        <time>2026-08-25T09:13:15Z</time>
      </trkpt>
      <trkpt lat="45.07828" lon="6.15811">
        <ele>1382.7</ele>
        <time>2026-08-25T09:13:16Z</time>
      </trkpt>
      <trkpt lat="45.07831" lon="6.15813">
        <ele>1382.8</ele>
        <time>2026-08-25T09:13:17Z</time>
      </trkpt>
      <trkpt lat="45.07834" lon="6.15815">
        <ele>1382.9</ele>
        <time>2026-08-25T09:13:18Z</time>
      </trkpt>
      <trkpt lat="45.07838" lon="6.15818">
        <ele>1382.9</ele>
        <time>2026-08-25T09:13:19Z</time>
      </trkpt>
      <trkpt lat="45.07841" lon="6.1582">
        <ele>1383</ele>
        <time>2026-08-25T09:13:20Z</time>
      </trkpt>
      <trkpt lat="45.07844" lon="6.15822">
        <ele>1383.1</ele>
        <time>2026-08-25T09:13:21Z</time>
      </trkpt>
      <trkpt lat="45.07846" lon="6.15824">
        <ele>1383.1</ele>
        <time>2026-08-25T09:13:22Z</time>
      </trkpt>
      <trkpt lat="45.07849" lon="6.15826">
        <ele>1383.2</ele>
        <time>2026-08-25T09:13:23Z</time>
      </trkpt>
      <trkpt lat="45.07852" lon="6.15828">
        <ele>1383.2</ele>
        <time>2026-08-25T09:13:24Z</time>
      </trkpt>
      <trkpt lat="45.07855" lon="6.1583">
        <ele>1383.3</ele>
        <time>2026-08-25T09:13:25Z</time>
      </trkpt>
      <trkpt lat="45.07858" lon="6.15833">
        <ele>1383.4</ele>
        <time>2026-08-25T09:13:26Z</time>
      </trkpt>
      <trkpt lat="45.07861" lon="6.15834">
        <ele>1383.4</ele>
        <time>2026-08-25T09:13:27Z</time>
      </trkpt>
      <trkpt lat="45.07863" lon="6.15837">
        <ele>1383.5</ele>
        <time>2026-08-25T09:13:28Z</time>
      </trkpt>
      <trkpt lat="45.07866" lon="6.15839">
        <ele>1383.6</ele>
        <time>2026-08-25T09:13:29Z</time>
      </trkpt>
      <trkpt lat="45.07869" lon="6.15841">
        <ele>1383.6</ele>
        <time>2026-08-25T09:13:30Z</time>
      </trkpt>
      <trkpt lat="45.07872" lon="6.15843">
        <ele>1383.7</ele>
        <time>2026-08-25T09:13:31Z</time>
      </trkpt>
      <trkpt lat="45.07876" lon="6.15845">
        <ele>1383.8</ele>
        <time>2026-08-25T09:13:32Z</time>
      </trkpt>
      <trkpt lat="45.07878" lon="6.15847">
        <ele>1383.9</ele>
        <time>2026-08-25T09:13:33Z</time>
      </trkpt>
      <trkpt lat="45.07881" lon="6.15849">
        <ele>1383.9</ele>
        <time>2026-08-25T09:13:34Z</time>
      </trkpt>
      <trkpt lat="45.07884" lon="6.15852">
        <ele>1384</ele>
        <time>2026-08-25T09:13:35Z</time>
      </trkpt>
      <trkpt lat="45.07886" lon="6.15854">
        <ele>1384.1</ele>
        <time>2026-08-25T09:13:36Z</time>
      </trkpt>
      <trkpt lat="45.07889" lon="6.15856">
        <ele>1384.2</ele>
        <time>2026-08-25T09:13:37Z</time>
      </trkpt>
      <trkpt lat="45.07891" lon="6.15858">
        <ele>1384.2</ele>
        <time>2026-08-25T09:13:38Z</time>
      </trkpt>
      <trkpt lat="45.07893" lon="6.1586">
        <ele>1384.3</ele>
        <time>2026-08-25T09:13:39Z</time>
      </trkpt>
      <trkpt lat="45.07896" lon="6.15862">
        <ele>1384.4</ele>
        <time>2026-08-25T09:13:40Z</time>
      </trkpt>
      <trkpt lat="45.07898" lon="6.15863">
        <ele>1384.5</ele>
        <time>2026-08-25T09:13:41Z</time>
      </trkpt>
      <trkpt lat="45.07901" lon="6.15865">
        <ele>1384.6</ele>
        <time>2026-08-25T09:13:42Z</time>
      </trkpt>
      <trkpt lat="45.07903" lon="6.15867">
        <ele>1384.6</ele>
        <time>2026-08-25T09:13:43Z</time>
      </trkpt>
      <trkpt lat="45.07906" lon="6.15868">
        <ele>1384.7</ele>
        <time>2026-08-25T09:13:44Z</time>
      </trkpt>
      <trkpt lat="45.07908" lon="6.15869">
        <ele>1384.8</ele>
        <time>2026-08-25T09:13:45Z</time>
      </trkpt>
      <trkpt lat="45.07911" lon="6.15871">
        <ele>1384.9</ele>
        <time>2026-08-25T09:13:46Z</time>
      </trkpt>
      <trkpt lat="45.07914" lon="6.15872">
        <ele>1385</ele>
        <time>2026-08-25T09:13:47Z</time>
      </trkpt>
      <trkpt lat="45.07917" lon="6.15874">
        <ele>1385</ele>
        <time>2026-08-25T09:13:48Z</time>
      </trkpt>
      <trkpt lat="45.0792" lon="6.15876">
        <ele>1385.1</ele>
        <time>2026-08-25T09:13:49Z</time>
      </trkpt>
      <trkpt lat="45.07923" lon="6.15877">
        <ele>1385.2</ele>
        <time>2026-08-25T09:13:50Z</time>
      </trkpt>
      <trkpt lat="45.07926" lon="6.15879">
        <ele>1385.2</ele>
        <time>2026-08-25T09:13:51Z</time>
      </trkpt>
      <trkpt lat="45.07929" lon="6.15881">
        <ele>1385.3</ele>
        <time>2026-08-25T09:13:52Z</time>
      </trkpt>
      <trkpt lat="45.07933" lon="6.15882">
        <ele>1385.3</ele>
        <time>2026-08-25T09:13:53Z</time>
      </trkpt>
      <trkpt lat="45.07936" lon="6.15884">
        <ele>1385.4</ele>
        <time>2026-08-25T09:13:54Z</time>
      </trkpt>
      <trkpt lat="45.07939" lon="6.15885">
        <ele>1385.4</ele>
        <time>2026-08-25T09:13:55Z</time>
      </trkpt>
      <trkpt lat="45.07943" lon="6.15887">
        <ele>1385.5</ele>
        <time>2026-08-25T09:13:56Z</time>
      </trkpt>
      <trkpt lat="45.07946" lon="6.15889">
        <ele>1385.6</ele>
        <time>2026-08-25T09:13:57Z</time>
      </trkpt>
      <trkpt lat="45.07949" lon="6.1589">
        <ele>1385.7</ele>
        <time>2026-08-25T09:13:58Z</time>
      </trkpt>
      <trkpt lat="45.07952" lon="6.15891">
        <ele>1385.7</ele>
        <time>2026-08-25T09:13:59Z</time>
      </trkpt>
      <trkpt lat="45.07955" lon="6.15893">
        <ele>1385.8</ele>
        <time>2026-08-25T09:14:00Z</time>
      </trkpt>
      <trkpt lat="45.07958" lon="6.15894">
        <ele>1385.9</ele>
        <time>2026-08-25T09:14:01Z</time>
      </trkpt>
      <trkpt lat="45.07961" lon="6.15895">
        <ele>1386</ele>
        <time>2026-08-25T09:14:02Z</time>
      </trkpt>
      <trkpt lat="45.07963" lon="6.15896">
        <ele>1386.1</ele>
        <time>2026-08-25T09:14:03Z</time>
      </trkpt>
      <trkpt lat="45.07966" lon="6.15898">
        <ele>1386.1</ele>
        <time>2026-08-25T09:14:04Z</time>
      </trkpt>
      <trkpt lat="45.07968" lon="6.159">
        <ele>1386.2</ele>
        <time>2026-08-25T09:14:05Z</time>
      </trkpt>
      <trkpt lat="45.07971" lon="6.15901">
        <ele>1386.3</ele>
        <time>2026-08-25T09:14:06Z</time>
      </trkpt>
      <trkpt lat="45.07973" lon="6.15903">
        <ele>1386.4</ele>
        <time>2026-08-25T09:14:07Z</time>
      </trkpt>
      <trkpt lat="45.07975" lon="6.15904">
        <ele>1386.4</ele>
        <time>2026-08-25T09:14:08Z</time>
      </trkpt>
      <trkpt lat="45.07978" lon="6.15905">
        <ele>1386.5</ele>
        <time>2026-08-25T09:14:09Z</time>
      </trkpt>
      <trkpt lat="45.07983" lon="6.15906">
        <ele>1386.6</ele>
        <time>2026-08-25T09:14:10Z</time>
      </trkpt>
      <trkpt lat="45.07987" lon="6.15909">
        <ele>1386.7</ele>
        <time>2026-08-25T09:14:11Z</time>
      </trkpt>
      <trkpt lat="45.07991" lon="6.15914">
        <ele>1386.8</ele>
        <time>2026-08-25T09:14:12Z</time>
      </trkpt>
      <trkpt lat="45.07995" lon="6.1592">
        <ele>1386.9</ele>
        <time>2026-08-25T09:14:13Z</time>
      </trkpt>
      <trkpt lat="45.08001" lon="6.15926">
        <ele>1387.1</ele>
        <time>2026-08-25T09:14:14Z</time>
      </trkpt>
      <trkpt lat="45.08007" lon="6.15931">
        <ele>1387.2</ele>
        <time>2026-08-25T09:14:15Z</time>
      </trkpt>
      <trkpt lat="45.08014" lon="6.15937">
        <ele>1387.4</ele>
        <time>2026-08-25T09:14:16Z</time>
      </trkpt>
      <trkpt lat="45.08021" lon="6.15942">
        <ele>1387.5</ele>
        <time>2026-08-25T09:14:17Z</time>
      </trkpt>
      <trkpt lat="45.08027" lon="6.15947">
        <ele>1387.7</ele>
        <time>2026-08-25T09:14:18Z</time>
      </trkpt>
      <trkpt lat="45.08033" lon="6.15952">
        <ele>1388</ele>
        <time>2026-08-25T09:14:19Z</time>
      </trkpt>
      <trkpt lat="45.08039" lon="6.15957">
        <ele>1388.2</ele>
        <time>2026-08-25T09:14:20Z</time>
      </trkpt>
      <trkpt lat="45.08044" lon="6.15962">
        <ele>1388.5</ele>
        <time>2026-08-25T09:14:21Z</time>
      </trkpt>
      <trkpt lat="45.08049" lon="6.15967">
        <ele>1388.7</ele>
        <time>2026-08-25T09:14:22Z</time>
      </trkpt>
      <trkpt lat="45.08054" lon="6.15972">
        <ele>1389</ele>
        <time>2026-08-25T09:14:23Z</time>
      </trkpt>
      <trkpt lat="45.08058" lon="6.15976">
        <ele>1389.2</ele>
        <time>2026-08-25T09:14:24Z</time>
      </trkpt>
      <trkpt lat="45.08062" lon="6.15981">
        <ele>1389.5</ele>
        <time>2026-08-25T09:14:25Z</time>
      </trkpt>
      <trkpt lat="45.08065" lon="6.15985">
        <ele>1389.7</ele>
        <time>2026-08-25T09:14:26Z</time>
      </trkpt>
      <trkpt lat="45.08069" lon="6.15989">
        <ele>1389.9</ele>
        <time>2026-08-25T09:14:27Z</time>
      </trkpt>
      <trkpt lat="45.08072" lon="6.15994">
        <ele>1390.1</ele>
        <time>2026-08-25T09:14:28Z</time>
      </trkpt>
      <trkpt lat="45.08076" lon="6.15999">
        <ele>1390.3</ele>
        <time>2026-08-25T09:14:29Z</time>
      </trkpt>
      <trkpt lat="45.0808" lon="6.16004">
        <ele>1390.5</ele>
        <time>2026-08-25T09:14:30Z</time>
      </trkpt>
      <trkpt lat="45.08084" lon="6.1601">
        <ele>1390.8</ele>
        <time>2026-08-25T09:14:31Z</time>
      </trkpt>
      <trkpt lat="45.08089" lon="6.16014">
        <ele>1391.1</ele>
        <time>2026-08-25T09:14:32Z</time>
      </trkpt>
      <trkpt lat="45.08093" lon="6.16018">
        <ele>1391.4</ele>
        <time>2026-08-25T09:14:33Z</time>
      </trkpt>
      <trkpt lat="45.08097" lon="6.16023">
        <ele>1391.6</ele>
        <time>2026-08-25T09:14:34Z</time>
      </trkpt>
      <trkpt lat="45.081" lon="6.16027">
        <ele>1391.9</ele>
        <time>2026-08-25T09:14:35Z</time>
      </trkpt>
      <trkpt lat="45.08104" lon="6.16031">
        <ele>1392.2</ele>
        <time>2026-08-25T09:14:36Z</time>
      </trkpt>
      <trkpt lat="45.08107" lon="6.16036">
        <ele>1392.4</ele>
        <time>2026-08-25T09:14:37Z</time>
      </trkpt>
      <trkpt lat="45.0811" lon="6.1604">
        <ele>1392.6</ele>
        <time>2026-08-25T09:14:38Z</time>
      </trkpt>
      <trkpt lat="45.08113" lon="6.16044">
        <ele>1392.9</ele>
        <time>2026-08-25T09:14:39Z</time>
      </trkpt>
      <trkpt lat="45.08116" lon="6.16047">
        <ele>1393.1</ele>
        <time>2026-08-25T09:14:40Z</time>
      </trkpt>
      <trkpt lat="45.08119" lon="6.16051">
        <ele>1393.3</ele>
        <time>2026-08-25T09:14:41Z</time>
      </trkpt>
      <trkpt lat="45.08122" lon="6.16055">
        <ele>1393.5</ele>
        <time>2026-08-25T09:14:42Z</time>
      </trkpt>
      <trkpt lat="45.08126" lon="6.16059">
        <ele>1393.7</ele>
        <time>2026-08-25T09:14:43Z</time>
      </trkpt>
      <trkpt lat="45.0813" lon="6.16063">
        <ele>1394</ele>
        <time>2026-08-25T09:14:44Z</time>
      </trkpt>
      <trkpt lat="45.08133" lon="6.16067">
        <ele>1394.2</ele>
        <time>2026-08-25T09:14:45Z</time>
      </trkpt>
      <trkpt lat="45.08137" lon="6.16071">
        <ele>1394.5</ele>
        <time>2026-08-25T09:14:46Z</time>
      </trkpt>
      <trkpt lat="45.08141" lon="6.16075">
        <ele>1394.7</ele>
        <time>2026-08-25T09:14:47Z</time>
      </trkpt>
      <trkpt lat="45.08145" lon="6.16078">
        <ele>1395</ele>
        <time>2026-08-25T09:14:48Z</time>
      </trkpt>
      <trkpt lat="45.08149" lon="6.16082">
        <ele>1395.2</ele>
        <time>2026-08-25T09:14:49Z</time>
      </trkpt>
      <trkpt lat="45.08152" lon="6.16085">
        <ele>1395.5</ele>
        <time>2026-08-25T09:14:50Z</time>
      </trkpt>
      <trkpt lat="45.08156" lon="6.16088">
        <ele>1395.7</ele>
        <time>2026-08-25T09:14:51Z</time>
      </trkpt>
      <trkpt lat="45.0816" lon="6.16091">
        <ele>1395.9</ele>
        <time>2026-08-25T09:14:52Z</time>
      </trkpt>
      <trkpt lat="45.08163" lon="6.16094">
        <ele>1396.1</ele>
        <time>2026-08-25T09:14:53Z</time>
      </trkpt>
      <trkpt lat="45.08167" lon="6.16097">
        <ele>1396.4</ele>
        <time>2026-08-25T09:14:54Z</time>
      </trkpt>
      <trkpt lat="45.08171" lon="6.16099">
        <ele>1396.6</ele>
        <time>2026-08-25T09:14:55Z</time>
      </trkpt>
      <trkpt lat="45.08175" lon="6.16102">
        <ele>1396.8</ele>
        <time>2026-08-25T09:14:56Z</time>
      </trkpt>
      <trkpt lat="45.08178" lon="6.16105">
        <ele>1397</ele>
        <time>2026-08-25T09:14:57Z</time>
      </trkpt>
      <trkpt lat="45.08182" lon="6.16107">
        <ele>1397.2</ele>
        <time>2026-08-25T09:14:58Z</time>
      </trkpt>
      <trkpt lat="45.08185" lon="6.1611">
        <ele>1397.4</ele>
        <time>2026-08-25T09:14:59Z</time>
      </trkpt>
      <trkpt lat="45.08188" lon="6.16113">
        <ele>1397.5</ele>
        <time>2026-08-25T09:15:00Z</time>
      </trkpt>
      <trkpt lat="45.08192" lon="6.16116">
        <ele>1397.8</ele>
        <time>2026-08-25T09:15:01Z</time>
      </trkpt>
      <trkpt lat="45.08196" lon="6.16119">
        <ele>1398</ele>
        <time>2026-08-25T09:15:02Z</time>
      </trkpt>
      <trkpt lat="45.08199" lon="6.16121">
        <ele>1398.2</ele>
        <time>2026-08-25T09:15:03Z</time>
      </trkpt>
      <trkpt lat="45.08203" lon="6.16124">
        <ele>1398.5</ele>
        <time>2026-08-25T09:15:04Z</time>
      </trkpt>
      <trkpt lat="45.08207" lon="6.16127">
        <ele>1398.7</ele>
        <time>2026-08-25T09:15:05Z</time>
      </trkpt>
      <trkpt lat="45.0821" lon="6.1613">
        <ele>1399</ele>
        <time>2026-08-25T09:15:06Z</time>
      </trkpt>
      <trkpt lat="45.08214" lon="6.16132">
        <ele>1399.2</ele>
        <time>2026-08-25T09:15:07Z</time>
      </trkpt>
      <trkpt lat="45.08217" lon="6.16135">
        <ele>1399.5</ele>
        <time>2026-08-25T09:15:08Z</time>
      </trkpt>
      <trkpt lat="45.08221" lon="6.16138">
        <ele>1399.7</ele>
        <time>2026-08-25T09:15:09Z</time>
      </trkpt>
      <trkpt lat="45.08224" lon="6.16141">
        <ele>1399.9</ele>
        <time>2026-08-25T09:15:10Z</time>
      </trkpt>
      <trkpt lat="45.08227" lon="6.16143">
        <ele>1399.9</ele>
        <time>2026-08-25T09:15:11Z</time>
      </trkpt>
      <trkpt lat="45.08231" lon="6.16145">
        <ele>1399.9</ele>
        <time>2026-08-25T09:15:12Z</time>
      </trkpt>
      <trkpt lat="45.08234" lon="6.16147">
        <ele>1400</ele>
        <time>2026-08-25T09:15:13Z</time>
      </trkpt>
      <trkpt lat="45.08238" lon="6.16145">
        <ele>1400</ele>
        <time>2026-08-25T09:15:14Z</time>
      </trkpt>
      <trkpt lat="45.0824" lon="6.16141">
        <ele>1400</ele>
        <time>2026-08-25T09:15:15Z</time>
      </trkpt>
      <trkpt lat="45.0824" lon="6.16136">
        <ele>1400.1</ele>
        <time>2026-08-25T09:15:16Z</time>
      </trkpt>
      <trkpt lat="45.08239" lon="6.16131">
        <ele>1400.2</ele>
        <time>2026-08-25T09:15:17Z</time>
      </trkpt>
      <trkpt lat="45.08237" lon="6.16126">
        <ele>1400.2</ele>
        <time>2026-08-25T09:15:18Z</time>
      </trkpt>
      <trkpt lat="45.08234" lon="6.16123">
        <ele>1400.3</ele>
        <time>2026-08-25T09:15:19Z</time>
      </trkpt>
      <trkpt lat="45.08231" lon="6.16121">
        <ele>1400.3</ele>
        <time>2026-08-25T09:15:20Z</time>
      </trkpt>
      <trkpt lat="45.08227" lon="6.16119">
        <ele>1400.4</ele>
        <time>2026-08-25T09:15:21Z</time>
      </trkpt>
      <trkpt lat="45.08224" lon="6.16116">
        <ele>1400.4</ele>
        <time>2026-08-25T09:15:22Z</time>
      </trkpt>
      <trkpt lat="45.08222" lon="6.16114">
        <ele>1400.5</ele>
        <time>2026-08-25T09:15:23Z</time>
      </trkpt>
      <trkpt lat="45.08219" lon="6.16112">
        <ele>1400.6</ele>
        <time>2026-08-25T09:15:24Z</time>
      </trkpt>
      <trkpt lat="45.08216" lon="6.1611">
        <ele>1400.7</ele>
        <time>2026-08-25T09:15:25Z</time>
      </trkpt>
      <trkpt lat="45.08214" lon="6.16107">
        <ele>1400.7</ele>
        <time>2026-08-25T09:15:26Z</time>
      </trkpt>
      <trkpt lat="45.08212" lon="6.16105">
        <ele>1400.8</ele>
        <time>2026-08-25T09:15:27Z</time>
      </trkpt>
      <trkpt lat="45.08209" lon="6.16102">
        <ele>1400.9</ele>
        <time>2026-08-25T09:15:28Z</time>
      </trkpt>
      <trkpt lat="45.08206" lon="6.16101">
        <ele>1401</ele>
        <time>2026-08-25T09:15:29Z</time>
      </trkpt>
      <trkpt lat="45.08204" lon="6.16099">
        <ele>1401.1</ele>
        <time>2026-08-25T09:15:30Z</time>
      </trkpt>
      <trkpt lat="45.08202" lon="6.16097">
        <ele>1401.2</ele>
        <time>2026-08-25T09:15:31Z</time>
      </trkpt>
      <trkpt lat="45.082" lon="6.16095">
        <ele>1401.3</ele>
        <time>2026-08-25T09:15:32Z</time>
      </trkpt>
      <trkpt lat="45.08197" lon="6.16092">
        <ele>1401.4</ele>
        <time>2026-08-25T09:15:33Z</time>
      </trkpt>
      <trkpt lat="45.08195" lon="6.1609">
        <ele>1401.5</ele>
        <time>2026-08-25T09:15:34Z</time>
      </trkpt>
      <trkpt lat="45.08193" lon="6.16087">
        <ele>1401.7</ele>
        <time>2026-08-25T09:15:35Z</time>
      </trkpt>
      <trkpt lat="45.08191" lon="6.16085">
        <ele>1401.8</ele>
        <time>2026-08-25T09:15:36Z</time>
      </trkpt>
      <trkpt lat="45.08189" lon="6.16082">
        <ele>1402</ele>
        <time>2026-08-25T09:15:37Z</time>
      </trkpt>
      <trkpt lat="45.08187" lon="6.16079">
        <ele>1402.3</ele>
        <time>2026-08-25T09:15:38Z</time>
      </trkpt>
      <trkpt lat="45.08185" lon="6.16076">
        <ele>1402.5</ele>
        <time>2026-08-25T09:15:39Z</time>
      </trkpt>
      <trkpt lat="45.08183" lon="6.16073">
        <ele>1402.7</ele>
        <time>2026-08-25T09:15:40Z</time>
      </trkpt>
      <trkpt lat="45.08181" lon="6.16071">
        <ele>1402.9</ele>
        <time>2026-08-25T09:15:41Z</time>
      </trkpt>
      <trkpt lat="45.08179" lon="6.16068">
        <ele>1403.1</ele>
        <time>2026-08-25T09:15:42Z</time>
      </trkpt>
      <trkpt lat="45.08177" lon="6.16065">
        <ele>1403.4</ele>
        <time>2026-08-25T09:15:43Z</time>
      </trkpt>
      <trkpt lat="45.08175" lon="6.16063">
        <ele>1403.6</ele>
        <time>2026-08-25T09:15:44Z</time>
      </trkpt>
      <trkpt lat="45.08174" lon="6.1606">
        <ele>1403.8</ele>
        <time>2026-08-25T09:15:45Z</time>
      </trkpt>
      <trkpt lat="45.08172" lon="6.16057">
        <ele>1404</ele>
        <time>2026-08-25T09:15:46Z</time>
      </trkpt>
      <trkpt lat="45.08171" lon="6.16054">
        <ele>1404.2</ele>
        <time>2026-08-25T09:15:47Z</time>
      </trkpt>
      <trkpt lat="45.0817" lon="6.16051">
        <ele>1404.4</ele>
        <time>2026-08-25T09:15:48Z</time>
      </trkpt>
      <trkpt lat="45.08168" lon="6.16048">
        <ele>1404.7</ele>
        <time>2026-08-25T09:15:49Z</time>
      </trkpt>
      <trkpt lat="45.08166" lon="6.16045">
        <ele>1404.9</ele>
        <time>2026-08-25T09:15:50Z</time>
      </trkpt>
      <trkpt lat="45.08165" lon="6.16043">
        <ele>1405.2</ele>
        <time>2026-08-25T09:15:51Z</time>
      </trkpt>
      <trkpt lat="45.08163" lon="6.16039">
        <ele>1405.4</ele>
        <time>2026-08-25T09:15:52Z</time>
      </trkpt>
      <trkpt lat="45.08162" lon="6.16036">
        <ele>1405.7</ele>
        <time>2026-08-25T09:15:53Z</time>
      </trkpt>
      <trkpt lat="45.08161" lon="6.16033">
        <ele>1405.9</ele>
        <time>2026-08-25T09:15:54Z</time>
      </trkpt>
      <trkpt lat="45.08159" lon="6.1603">
        <ele>1406.2</ele>
        <time>2026-08-25T09:15:55Z</time>
      </trkpt>
      <trkpt lat="45.08158" lon="6.16027">
        <ele>1406.4</ele>
        <time>2026-08-25T09:15:56Z</time>
      </trkpt>
      <trkpt lat="45.08157" lon="6.16023">
        <ele>1406.7</ele>
        <time>2026-08-25T09:15:57Z</time>
      </trkpt>
      <trkpt lat="45.08156" lon="6.1602">
        <ele>1407</ele>
        <time>2026-08-25T09:15:58Z</time>
      </trkpt>
      <trkpt lat="45.08155" lon="6.16017">
        <ele>1407.3</ele>
        <time>2026-08-25T09:15:59Z</time>
      </trkpt>
      <trkpt lat="45.08154" lon="6.16014">
        <ele>1407.5</ele>
        <time>2026-08-25T09:16:00Z</time>
      </trkpt>
      <trkpt lat="45.08153" lon="6.1601">
        <ele>1407.8</ele>
        <time>2026-08-25T09:16:01Z</time>
      </trkpt>
      <trkpt lat="45.08153" lon="6.16007">
        <ele>1408.1</ele>
        <time>2026-08-25T09:16:02Z</time>
      </trkpt>
      <trkpt lat="45.08151" lon="6.16004">
        <ele>1408.3</ele>
        <time>2026-08-25T09:16:03Z</time>
      </trkpt>
      <trkpt lat="45.0815" lon="6.16001">
        <ele>1408.6</ele>
        <time>2026-08-25T09:16:04Z</time>
      </trkpt>
      <trkpt lat="45.08149" lon="6.15998">
        <ele>1408.8</ele>
        <time>2026-08-25T09:16:05Z</time>
      </trkpt>
      <trkpt lat="45.08148" lon="6.15995">
        <ele>1409.1</ele>
        <time>2026-08-25T09:16:06Z</time>
      </trkpt>
      <trkpt lat="45.08147" lon="6.15992">
        <ele>1409.3</ele>
        <time>2026-08-25T09:16:07Z</time>
      </trkpt>
      <trkpt lat="45.08146" lon="6.15989">
        <ele>1409.6</ele>
        <time>2026-08-25T09:16:08Z</time>
      </trkpt>
      <trkpt lat="45.08144" lon="6.15986">
        <ele>1409.8</ele>
        <time>2026-08-25T09:16:09Z</time>
      </trkpt>
      <trkpt lat="45.08143" lon="6.15984">
        <ele>1410.1</ele>
        <time>2026-08-25T09:16:10Z</time>
      </trkpt>
      <trkpt lat="45.08142" lon="6.15982">
        <ele>1410.3</ele>
        <time>2026-08-25T09:16:11Z</time>
      </trkpt>
      <trkpt lat="45.0814" lon="6.15978">
        <ele>1410.6</ele>
        <time>2026-08-25T09:16:12Z</time>
      </trkpt>
      <trkpt lat="45.08139" lon="6.15975">
        <ele>1410.8</ele>
        <time>2026-08-25T09:16:13Z</time>
      </trkpt>
      <trkpt lat="45.08137" lon="6.15973">
        <ele>1411.1</ele>
        <time>2026-08-25T09:16:14Z</time>
      </trkpt>
      <trkpt lat="45.08134" lon="6.15971">
        <ele>1411.4</ele>
        <time>2026-08-25T09:16:15Z</time>
      </trkpt>
      <trkpt lat="45.08133" lon="6.15968">
        <ele>1411.7</ele>
        <time>2026-08-25T09:16:16Z</time>
      </trkpt>
      <trkpt lat="45.0813" lon="6.15966">
        <ele>1412</ele>
        <time>2026-08-25T09:16:17Z</time>
      </trkpt>
      <trkpt lat="45.08128" lon="6.15964">
        <ele>1412.3</ele>
        <time>2026-08-25T09:16:18Z</time>
      </trkpt>
      <trkpt lat="45.08126" lon="6.15961">
        <ele>1412.6</ele>
        <time>2026-08-25T09:16:19Z</time>
      </trkpt>
      <trkpt lat="45.08124" lon="6.15958">
        <ele>1412.9</ele>
        <time>2026-08-25T09:16:20Z</time>
      </trkpt>
      <trkpt lat="45.08123" lon="6.15955">
        <ele>1413.2</ele>
        <time>2026-08-25T09:16:21Z</time>
      </trkpt>
      <trkpt lat="45.08122" lon="6.15951">
        <ele>1413.4</ele>
        <time>2026-08-25T09:16:22Z</time>
      </trkpt>
      <trkpt lat="45.08124" lon="6.15947">
        <ele>1413.5</ele>
        <time>2026-08-25T09:16:23Z</time>
      </trkpt>
      <trkpt lat="45.08126" lon="6.15944">
        <ele>1413.6</ele>
        <time>2026-08-25T09:16:24Z</time>
      </trkpt>
      <trkpt lat="45.08129" lon="6.15943">
        <ele>1413.7</ele>
        <time>2026-08-25T09:16:25Z</time>
      </trkpt>
      <trkpt lat="45.08132" lon="6.15944">
        <ele>1413.8</ele>
        <time>2026-08-25T09:16:26Z</time>
      </trkpt>
      <trkpt lat="45.08135" lon="6.15946">
        <ele>1413.8</ele>
        <time>2026-08-25T09:16:27Z</time>
      </trkpt>
      <trkpt lat="45.08138" lon="6.15949">
        <ele>1413.9</ele>
        <time>2026-08-25T09:16:28Z</time>
      </trkpt>
      <trkpt lat="45.0814" lon="6.15953">
        <ele>1413.9</ele>
        <time>2026-08-25T09:16:29Z</time>
      </trkpt>
      <trkpt lat="45.08142" lon="6.15956">
        <ele>1413.9</ele>
        <time>2026-08-25T09:16:30Z</time>
      </trkpt>
      <trkpt lat="45.08144" lon="6.15959">
        <ele>1413.9</ele>
        <time>2026-08-25T09:16:31Z</time>
      </trkpt>
      <trkpt lat="45.08146" lon="6.15962">
        <ele>1414</ele>
        <time>2026-08-25T09:16:32Z</time>
      </trkpt>
      <trkpt lat="45.08148" lon="6.15966">
        <ele>1414</ele>
        <time>2026-08-25T09:16:33Z</time>
      </trkpt>
      <trkpt lat="45.0815" lon="6.1597">
        <ele>1414</ele>
        <time>2026-08-25T09:16:34Z</time>
      </trkpt>
      <trkpt lat="45.08152" lon="6.15973">
        <ele>1414.1</ele>
        <time>2026-08-25T09:16:35Z</time>
      </trkpt>
      <trkpt lat="45.08154" lon="6.15976">
        <ele>1414.1</ele>
        <time>2026-08-25T09:16:36Z</time>
      </trkpt>
      <trkpt lat="45.08155" lon="6.1598">
        <ele>1414.2</ele>
        <time>2026-08-25T09:16:37Z</time>
      </trkpt>
      <trkpt lat="45.08157" lon="6.15983">
        <ele>1414.3</ele>
        <time>2026-08-25T09:16:38Z</time>
      </trkpt>
      <trkpt lat="45.08158" lon="6.15986">
        <ele>1414.4</ele>
        <time>2026-08-25T09:16:39Z</time>
      </trkpt>
      <trkpt lat="45.0816" lon="6.15989">
        <ele>1414.5</ele>
        <time>2026-08-25T09:16:40Z</time>
      </trkpt>
      <trkpt lat="45.08162" lon="6.15992">
        <ele>1414.6</ele>
        <time>2026-08-25T09:16:41Z</time>
      </trkpt>
      <trkpt lat="45.08163" lon="6.15995">
        <ele>1414.7</ele>
        <time>2026-08-25T09:16:42Z</time>
      </trkpt>
      <trkpt lat="45.08165" lon="6.15998">
        <ele>1414.8</ele>
        <time>2026-08-25T09:16:43Z</time>
      </trkpt>
      <trkpt lat="45.08167" lon="6.16">
        <ele>1414.9</ele>
        <time>2026-08-25T09:16:44Z</time>
      </trkpt>
      <trkpt lat="45.08169" lon="6.16002">
        <ele>1415</ele>
        <time>2026-08-25T09:16:45Z</time>
      </trkpt>
      <trkpt lat="45.08171" lon="6.16005">
        <ele>1415.1</ele>
        <time>2026-08-25T09:16:46Z</time>
      </trkpt>
      <trkpt lat="45.08173" lon="6.16007">
        <ele>1415.2</ele>
        <time>2026-08-25T09:16:47Z</time>
      </trkpt>
      <trkpt lat="45.08175" lon="6.16009">
        <ele>1415.3</ele>
        <time>2026-08-25T09:16:48Z</time>
      </trkpt>
      <trkpt lat="45.08176" lon="6.16011">
        <ele>1415.4</ele>
        <time>2026-08-25T09:16:49Z</time>
      </trkpt>
      <trkpt lat="45.08178" lon="6.16013">
        <ele>1415.6</ele>
        <time>2026-08-25T09:16:50Z</time>
      </trkpt>
      <trkpt lat="45.08181" lon="6.16015">
        <ele>1415.7</ele>
        <time>2026-08-25T09:16:51Z</time>
      </trkpt>
      <trkpt lat="45.08183" lon="6.16017">
        <ele>1415.8</ele>
        <time>2026-08-25T09:16:52Z</time>
      </trkpt>
      <trkpt lat="45.08185" lon="6.16019">
        <ele>1415.9</ele>
        <time>2026-08-25T09:16:53Z</time>
      </trkpt>
      <trkpt lat="45.08187" lon="6.16021">
        <ele>1416.1</ele>
        <time>2026-08-25T09:16:54Z</time>
      </trkpt>
      <trkpt lat="45.08189" lon="6.16022">
        <ele>1416.2</ele>
        <time>2026-08-25T09:16:55Z</time>
      </trkpt>
      <trkpt lat="45.08192" lon="6.16024">
        <ele>1416.4</ele>
        <time>2026-08-25T09:16:56Z</time>
      </trkpt>
      <trkpt lat="45.08194" lon="6.16025">
        <ele>1416.5</ele>
        <time>2026-08-25T09:16:57Z</time>
      </trkpt>
      <trkpt lat="45.08197" lon="6.16026">
        <ele>1416.6</ele>
        <time>2026-08-25T09:16:58Z</time>
      </trkpt>
      <trkpt lat="45.08199" lon="6.16026">
        <ele>1416.8</ele>
        <time>2026-08-25T09:16:59Z</time>
      </trkpt>
      <trkpt lat="45.08202" lon="6.16028">
        <ele>1416.9</ele>
        <time>2026-08-25T09:17:00Z</time>
      </trkpt>
      <trkpt lat="45.08204" lon="6.16029">
        <ele>1417</ele>
        <time>2026-08-25T09:17:01Z</time>
      </trkpt>
      <trkpt lat="45.08206" lon="6.1603">
        <ele>1417.1</ele>
        <time>2026-08-25T09:17:02Z</time>
      </trkpt>
      <trkpt lat="45.08209" lon="6.1603">
        <ele>1417.3</ele>
        <time>2026-08-25T09:17:03Z</time>
      </trkpt>
      <trkpt lat="45.08211" lon="6.1603">
        <ele>1417.4</ele>
        <time>2026-08-25T09:17:04Z</time>
      </trkpt>
      <trkpt lat="45.08214" lon="6.16031">
        <ele>1417.5</ele>
        <time>2026-08-25T09:17:05Z</time>
      </trkpt>
      <trkpt lat="45.08217" lon="6.16031">
        <ele>1417.7</ele>
        <time>2026-08-25T09:17:06Z</time>
      </trkpt>
      <trkpt lat="45.08219" lon="6.16032">
        <ele>1417.8</ele>
        <time>2026-08-25T09:17:07Z</time>
      </trkpt>
      <trkpt lat="45.08222" lon="6.16032">
        <ele>1417.9</ele>
        <time>2026-08-25T09:17:08Z</time>
      </trkpt>
      <trkpt lat="45.08224" lon="6.16032">
        <ele>1418.1</ele>
        <time>2026-08-25T09:17:09Z</time>
      </trkpt>
      <trkpt lat="45.08227" lon="6.16033">
        <ele>1418.2</ele>
        <time>2026-08-25T09:17:10Z</time>
      </trkpt>
      <trkpt lat="45.08229" lon="6.16034">
        <ele>1418.3</ele>
        <time>2026-08-25T09:17:11Z</time>
      </trkpt>
      <trkpt lat="45.08231" lon="6.16034">
        <ele>1418.4</ele>
        <time>2026-08-25T09:17:12Z</time>
      </trkpt>
      <trkpt lat="45.08234" lon="6.16034">
        <ele>1418.5</ele>
        <time>2026-08-25T09:17:13Z</time>
      </trkpt>
      <trkpt lat="45.08236" lon="6.16034">
        <ele>1418.7</ele>
        <time>2026-08-25T09:17:14Z</time>
      </trkpt>
      <trkpt lat="45.08239" lon="6.16034">
        <ele>1418.8</ele>
        <time>2026-08-25T09:17:15Z</time>
      </trkpt>
      <trkpt lat="45.08242" lon="6.16033">
        <ele>1418.9</ele>
        <time>2026-08-25T09:17:16Z</time>
      </trkpt>
      <trkpt lat="45.08244" lon="6.16033">
        <ele>1419</ele>
        <time>2026-08-25T09:17:17Z</time>
      </trkpt>
      <trkpt lat="45.08246" lon="6.16033">
        <ele>1419.2</ele>
        <time>2026-08-25T09:17:18Z</time>
      </trkpt>
      <trkpt lat="45.08249" lon="6.16033">
        <ele>1419.3</ele>
        <time>2026-08-25T09:17:19Z</time>
      </trkpt>
      <trkpt lat="45.08252" lon="6.16033">
        <ele>1419.4</ele>
        <time>2026-08-25T09:17:20Z</time>
      </trkpt>
      <trkpt lat="45.08254" lon="6.16033">
        <ele>1419.6</ele>
        <time>2026-08-25T09:17:21Z</time>
      </trkpt>
      <trkpt lat="45.08257" lon="6.16033">
        <ele>1419.7</ele>
        <time>2026-08-25T09:17:22Z</time>
      </trkpt>
      <trkpt lat="45.08259" lon="6.16033">
        <ele>1419.8</ele>
        <time>2026-08-25T09:17:23Z</time>
      </trkpt>
      <trkpt lat="45.08262" lon="6.16033">
        <ele>1420</ele>
        <time>2026-08-25T09:17:24Z</time>
      </trkpt>
      <trkpt lat="45.08264" lon="6.16033">
        <ele>1420.1</ele>
        <time>2026-08-25T09:17:25Z</time>
      </trkpt>
      <trkpt lat="45.08267" lon="6.16034">
        <ele>1420.3</ele>
        <time>2026-08-25T09:17:26Z</time>
      </trkpt>
      <trkpt lat="45.08269" lon="6.16034">
        <ele>1420.4</ele>
        <time>2026-08-25T09:17:27Z</time>
      </trkpt>
      <trkpt lat="45.08272" lon="6.16034">
        <ele>1420.6</ele>
        <time>2026-08-25T09:17:28Z</time>
      </trkpt>
      <trkpt lat="45.08274" lon="6.16035">
        <ele>1420.7</ele>
        <time>2026-08-25T09:17:29Z</time>
      </trkpt>
      <trkpt lat="45.08277" lon="6.16035">
        <ele>1420.9</ele>
        <time>2026-08-25T09:17:30Z</time>
      </trkpt>
      <trkpt lat="45.0828" lon="6.16036">
        <ele>1421.1</ele>
        <time>2026-08-25T09:17:31Z</time>
      </trkpt>
      <trkpt lat="45.08282" lon="6.16037">
        <ele>1421.2</ele>
        <time>2026-08-25T09:17:32Z</time>
      </trkpt>
      <trkpt lat="45.08285" lon="6.16038">
        <ele>1421.4</ele>
        <time>2026-08-25T09:17:33Z</time>
      </trkpt>
      <trkpt lat="45.08287" lon="6.16039">
        <ele>1421.6</ele>
        <time>2026-08-25T09:17:34Z</time>
      </trkpt>
      <trkpt lat="45.08289" lon="6.1604">
        <ele>1421.7</ele>
        <time>2026-08-25T09:17:35Z</time>
      </trkpt>
      <trkpt lat="45.08292" lon="6.16042">
        <ele>1421.9</ele>
        <time>2026-08-25T09:17:36Z</time>
      </trkpt>
      <trkpt lat="45.08294" lon="6.16043">
        <ele>1422.1</ele>
        <time>2026-08-25T09:17:37Z</time>
      </trkpt>
      <trkpt lat="45.08297" lon="6.16044">
        <ele>1422.2</ele>
        <time>2026-08-25T09:17:38Z</time>
      </trkpt>
      <trkpt lat="45.08299" lon="6.16045">
        <ele>1422.4</ele>
        <time>2026-08-25T09:17:39Z</time>
      </trkpt>
      <trkpt lat="45.08301" lon="6.16047">
        <ele>1422.6</ele>
        <time>2026-08-25T09:17:40Z</time>
      </trkpt>
      <trkpt lat="45.08303" lon="6.16049">
        <ele>1422.7</ele>
        <time>2026-08-25T09:17:41Z</time>
      </trkpt>
      <trkpt lat="45.08306" lon="6.1605">
        <ele>1422.9</ele>
        <time>2026-08-25T09:17:42Z</time>
      </trkpt>
      <trkpt lat="45.08308" lon="6.16052">
        <ele>1423</ele>
        <time>2026-08-25T09:17:43Z</time>
      </trkpt>
      <trkpt lat="45.0831" lon="6.16053">
        <ele>1423.1</ele>
        <time>2026-08-25T09:17:44Z</time>
      </trkpt>
      <trkpt lat="45.08312" lon="6.16055">
        <ele>1423.3</ele>
        <time>2026-08-25T09:17:45Z</time>
      </trkpt>
      <trkpt lat="45.08314" lon="6.16056">
        <ele>1423.4</ele>
        <time>2026-08-25T09:17:46Z</time>
      </trkpt>
      <trkpt lat="45.08316" lon="6.16058">
        <ele>1423.5</ele>
        <time>2026-08-25T09:17:47Z</time>
      </trkpt>
      <trkpt lat="45.08318" lon="6.1606">
        <ele>1423.6</ele>
        <time>2026-08-25T09:17:48Z</time>
      </trkpt>
      <trkpt lat="45.0832" lon="6.16062">
        <ele>1423.8</ele>
        <time>2026-08-25T09:17:49Z</time>
      </trkpt>
      <trkpt lat="45.08322" lon="6.16064">
        <ele>1423.9</ele>
        <time>2026-08-25T09:17:50Z</time>
      </trkpt>
      <trkpt lat="45.08324" lon="6.16065">
        <ele>1424</ele>
        <time>2026-08-25T09:17:51Z</time>
      </trkpt>
      <trkpt lat="45.08326" lon="6.16067">
        <ele>1424.1</ele>
        <time>2026-08-25T09:17:52Z</time>
      </trkpt>
      <trkpt lat="45.08328" lon="6.16069">
        <ele>1424.2</ele>
        <time>2026-08-25T09:17:53Z</time>
      </trkpt>
      <trkpt lat="45.0833" lon="6.16071">
        <ele>1424.4</ele>
        <time>2026-08-25T09:17:54Z</time>
      </trkpt>
      <trkpt lat="45.08332" lon="6.16074">
        <ele>1424.5</ele>
        <time>2026-08-25T09:17:55Z</time>
      </trkpt>
      <trkpt lat="45.08334" lon="6.16076">
        <ele>1424.6</ele>
        <time>2026-08-25T09:17:56Z</time>
      </trkpt>
      <trkpt lat="45.08336" lon="6.16079">
        <ele>1424.7</ele>
        <time>2026-08-25T09:17:57Z</time>
      </trkpt>
      <trkpt lat="45.08338" lon="6.16081">
        <ele>1424.8</ele>
        <time>2026-08-25T09:17:58Z</time>
      </trkpt>
      <trkpt lat="45.0834" lon="6.16084">
        <ele>1424.9</ele>
        <time>2026-08-25T09:17:59Z</time>
      </trkpt>
      <trkpt lat="45.08342" lon="6.16087">
        <ele>1425</ele>
        <time>2026-08-25T09:18:00Z</time>
      </trkpt>
      <trkpt lat="45.08345" lon="6.16091">
        <ele>1425</ele>
        <time>2026-08-25T09:18:01Z</time>
      </trkpt>
      <trkpt lat="45.08347" lon="6.16094">
        <ele>1425.1</ele>
        <time>2026-08-25T09:18:02Z</time>
      </trkpt>
      <trkpt lat="45.0835" lon="6.16097">
        <ele>1425.2</ele>
        <time>2026-08-25T09:18:03Z</time>
      </trkpt>
      <trkpt lat="45.08353" lon="6.161">
        <ele>1425.1</ele>
        <time>2026-08-25T09:18:04Z</time>
      </trkpt>
      <trkpt lat="45.08356" lon="6.16103">
        <ele>1425</ele>
        <time>2026-08-25T09:18:05Z</time>
      </trkpt>
      <trkpt lat="45.08358" lon="6.16105">
        <ele>1425</ele>
        <time>2026-08-25T09:18:06Z</time>
      </trkpt>
      <trkpt lat="45.08361" lon="6.16108">
        <ele>1424.9</ele>
        <time>2026-08-25T09:18:07Z</time>
      </trkpt>
      <trkpt lat="45.08364" lon="6.1611">
        <ele>1424.8</ele>
        <time>2026-08-25T09:18:08Z</time>
      </trkpt>
      <trkpt lat="45.08366" lon="6.16113">
        <ele>1424.8</ele>
        <time>2026-08-25T09:18:09Z</time>
      </trkpt>
      <trkpt lat="45.08369" lon="6.16115">
        <ele>1424.8</ele>
        <time>2026-08-25T09:18:10Z</time>
      </trkpt>
      <trkpt lat="45.08372" lon="6.16117">
        <ele>1424.7</ele>
        <time>2026-08-25T09:18:11Z</time>
      </trkpt>
      <trkpt lat="45.08375" lon="6.16119">
        <ele>1424.7</ele>
        <time>2026-08-25T09:18:12Z</time>
      </trkpt>
      <trkpt lat="45.08378" lon="6.16121">
        <ele>1424.7</ele>
        <time>2026-08-25T09:18:13Z</time>
      </trkpt>
      <trkpt lat="45.08381" lon="6.16123">
        <ele>1424.7</ele>
        <time>2026-08-25T09:18:14Z</time>
      </trkpt>
      <trkpt lat="45.08384" lon="6.16125">
        <ele>1424.7</ele>
        <time>2026-08-25T09:18:15Z</time>
      </trkpt>
      <trkpt lat="45.08387" lon="6.16126">
        <ele>1424.7</ele>
        <time>2026-08-25T09:18:16Z</time>
      </trkpt>
      <trkpt lat="45.08389" lon="6.16126">
        <ele>1424.9</ele>
        <time>2026-08-25T09:18:17Z</time>
      </trkpt>
      <trkpt lat="45.08392" lon="6.16127">
        <ele>1425.1</ele>
        <time>2026-08-25T09:18:18Z</time>
      </trkpt>
      <trkpt lat="45.08395" lon="6.16128">
        <ele>1425.3</ele>
        <time>2026-08-25T09:18:19Z</time>
      </trkpt>
      <trkpt lat="45.08397" lon="6.16129">
        <ele>1425.5</ele>
        <time>2026-08-25T09:18:20Z</time>
      </trkpt>
      <trkpt lat="45.08399" lon="6.16129">
        <ele>1425.7</ele>
        <time>2026-08-25T09:18:21Z</time>
      </trkpt>
      <trkpt lat="45.08402" lon="6.1613">
        <ele>1425.9</ele>
        <time>2026-08-25T09:18:22Z</time>
      </trkpt>
      <trkpt lat="45.08404" lon="6.16131">
        <ele>1426.1</ele>
        <time>2026-08-25T09:18:23Z</time>
      </trkpt>
      <trkpt lat="45.08407" lon="6.16131">
        <ele>1426.3</ele>
        <time>2026-08-25T09:18:24Z</time>
      </trkpt>
      <trkpt lat="45.08409" lon="6.16131">
        <ele>1426.5</ele>
        <time>2026-08-25T09:18:25Z</time>
      </trkpt>
      <trkpt lat="45.08412" lon="6.16131">
        <ele>1426.8</ele>
        <time>2026-08-25T09:18:26Z</time>
      </trkpt>
      <trkpt lat="45.08414" lon="6.16132">
        <ele>1427</ele>
        <time>2026-08-25T09:18:27Z</time>
      </trkpt>
      <trkpt lat="45.08417" lon="6.16132">
        <ele>1427.2</ele>
        <time>2026-08-25T09:18:28Z</time>
      </trkpt>
      <trkpt lat="45.08419" lon="6.16133">
        <ele>1427.3</ele>
        <time>2026-08-25T09:18:29Z</time>
      </trkpt>
      <trkpt lat="45.08421" lon="6.16133">
        <ele>1427.5</ele>
        <time>2026-08-25T09:18:30Z</time>
      </trkpt>
      <trkpt lat="45.08424" lon="6.16133">
        <ele>1427.7</ele>
        <time>2026-08-25T09:18:31Z</time>
      </trkpt>
      <trkpt lat="45.08426" lon="6.16133">
        <ele>1427.9</ele>
        <time>2026-08-25T09:18:32Z</time>
      </trkpt>
      <trkpt lat="45.08429" lon="6.16133">
        <ele>1428.1</ele>
        <time>2026-08-25T09:18:33Z</time>
      </trkpt>
      <trkpt lat="45.08431" lon="6.16134">
        <ele>1428.3</ele>
        <time>2026-08-25T09:18:34Z</time>
      </trkpt>
      <trkpt lat="45.08433" lon="6.16134">
        <ele>1428.5</ele>
        <time>2026-08-25T09:18:35Z</time>
      </trkpt>
      <trkpt lat="45.08436" lon="6.16134">
        <ele>1428.7</ele>
        <time>2026-08-25T09:18:36Z</time>
      </trkpt>
      <trkpt lat="45.08438" lon="6.16134">
        <ele>1428.9</ele>
        <time>2026-08-25T09:18:37Z</time>
      </trkpt>
      <trkpt lat="45.0844" lon="6.16134">
        <ele>1429.1</ele>
        <time>2026-08-25T09:18:38Z</time>
      </trkpt>
      <trkpt lat="45.08443" lon="6.16135">
        <ele>1429.3</ele>
        <time>2026-08-25T09:18:39Z</time>
      </trkpt>
      <trkpt lat="45.08445" lon="6.16134">
        <ele>1429.5</ele>
        <time>2026-08-25T09:18:40Z</time>
      </trkpt>
      <trkpt lat="45.08448" lon="6.16134">
        <ele>1429.7</ele>
        <time>2026-08-25T09:18:41Z</time>
      </trkpt>
      <trkpt lat="45.0845" lon="6.16133">
        <ele>1429.9</ele>
        <time>2026-08-25T09:18:42Z</time>
      </trkpt>
      <trkpt lat="45.08453" lon="6.16133">
        <ele>1430.2</ele>
        <time>2026-08-25T09:18:43Z</time>
      </trkpt>
      <trkpt lat="45.08455" lon="6.16133">
        <ele>1430.4</ele>
        <time>2026-08-25T09:18:44Z</time>
      </trkpt>
      <trkpt lat="45.08458" lon="6.16133">
        <ele>1430.6</ele>
        <time>2026-08-25T09:18:45Z</time>
      </trkpt>
      <trkpt lat="45.0846" lon="6.16132">
        <ele>1430.8</ele>
        <time>2026-08-25T09:18:46Z</time>
      </trkpt>
      <trkpt lat="45.08462" lon="6.16132">
        <ele>1431</ele>
        <time>2026-08-25T09:18:47Z</time>
      </trkpt>
      <trkpt lat="45.08465" lon="6.16131">
        <ele>1431.2</ele>
        <time>2026-08-25T09:18:48Z</time>
      </trkpt>
      <trkpt lat="45.08467" lon="6.16131">
        <ele>1431.4</ele>
        <time>2026-08-25T09:18:49Z</time>
      </trkpt>
      <trkpt lat="45.08469" lon="6.1613">
        <ele>1431.6</ele>
        <time>2026-08-25T09:18:50Z</time>
      </trkpt>
      <trkpt lat="45.08472" lon="6.1613">
        <ele>1431.8</ele>
        <time>2026-08-25T09:18:51Z</time>
      </trkpt>
      <trkpt lat="45.08474" lon="6.16129">
        <ele>1432</ele>
        <time>2026-08-25T09:18:52Z</time>
      </trkpt>
      <trkpt lat="45.08476" lon="6.16129">
        <ele>1432.2</ele>
        <time>2026-08-25T09:18:53Z</time>
      </trkpt>
      <trkpt lat="45.08478" lon="6.16129">
        <ele>1432.4</ele>
        <time>2026-08-25T09:18:54Z</time>
      </trkpt>
      <trkpt lat="45.08481" lon="6.16128">
        <ele>1432.6</ele>
        <time>2026-08-25T09:18:55Z</time>
      </trkpt>
      <trkpt lat="45.08483" lon="6.16127">
        <ele>1432.8</ele>
        <time>2026-08-25T09:18:56Z</time>
      </trkpt>
      <trkpt lat="45.08485" lon="6.16127">
        <ele>1433</ele>
        <time>2026-08-25T09:18:57Z</time>
      </trkpt>
      <trkpt lat="45.08487" lon="6.16127">
        <ele>1433.2</ele>
        <time>2026-08-25T09:18:58Z</time>
      </trkpt>
      <trkpt lat="45.0849" lon="6.16126">
        <ele>1433.5</ele>
        <time>2026-08-25T09:18:59Z</time>
      </trkpt>
      <trkpt lat="45.08492" lon="6.16126">
        <ele>1433.7</ele>
        <time>2026-08-25T09:19:00Z</time>
      </trkpt>
      <trkpt lat="45.08494" lon="6.16125">
        <ele>1433.9</ele>
        <time>2026-08-25T09:19:01Z</time>
      </trkpt>
      <trkpt lat="45.08497" lon="6.16124">
        <ele>1434.1</ele>
        <time>2026-08-25T09:19:02Z</time>
      </trkpt>
      <trkpt lat="45.08499" lon="6.16124">
        <ele>1434.3</ele>
        <time>2026-08-25T09:19:03Z</time>
      </trkpt>
      <trkpt lat="45.08502" lon="6.16123">
        <ele>1434.5</ele>
        <time>2026-08-25T09:19:04Z</time>
      </trkpt>
      <trkpt lat="45.08504" lon="6.16123">
        <ele>1434.7</ele>
        <time>2026-08-25T09:19:05Z</time>
      </trkpt>
      <trkpt lat="45.08506" lon="6.16123">
        <ele>1434.9</ele>
        <time>2026-08-25T09:19:06Z</time>
      </trkpt>
      <trkpt lat="45.08508" lon="6.16122">
        <ele>1435.1</ele>
        <time>2026-08-25T09:19:07Z</time>
      </trkpt>
      <trkpt lat="45.08511" lon="6.16122">
        <ele>1435.3</ele>
        <time>2026-08-25T09:19:08Z</time>
      </trkpt>
      <trkpt lat="45.08513" lon="6.16121">
        <ele>1435.6</ele>
        <time>2026-08-25T09:19:09Z</time>
      </trkpt>
      <trkpt lat="45.08516" lon="6.1612">
        <ele>1435.8</ele>
        <time>2026-08-25T09:19:10Z</time>
      </trkpt>
      <trkpt lat="45.08518" lon="6.16119">
        <ele>1436.1</ele>
        <time>2026-08-25T09:19:11Z</time>
      </trkpt>
      <trkpt lat="45.08521" lon="6.16119">
        <ele>1436.3</ele>
        <time>2026-08-25T09:19:12Z</time>
      </trkpt>
      <trkpt lat="45.08524" lon="6.16117">
        <ele>1436.6</ele>
        <time>2026-08-25T09:19:13Z</time>
      </trkpt>
      <trkpt lat="45.08526" lon="6.16117">
        <ele>1436.8</ele>
        <time>2026-08-25T09:19:14Z</time>
      </trkpt>
      <trkpt lat="45.08528" lon="6.16116">
        <ele>1437</ele>
        <time>2026-08-25T09:19:15Z</time>
      </trkpt>
      <trkpt lat="45.0853" lon="6.16116">
        <ele>1437.2</ele>
        <time>2026-08-25T09:19:16Z</time>
      </trkpt>
      <trkpt lat="45.08532" lon="6.16115">
        <ele>1437.4</ele>
        <time>2026-08-25T09:19:17Z</time>
      </trkpt>
      <trkpt lat="45.08534" lon="6.16115">
        <ele>1437.6</ele>
        <time>2026-08-25T09:19:18Z</time>
      </trkpt>
      <trkpt lat="45.08536" lon="6.16115">
        <ele>1437.8</ele>
        <time>2026-08-25T09:19:19Z</time>
      </trkpt>
      <trkpt lat="45.08538" lon="6.16116">
        <ele>1438</ele>
        <time>2026-08-25T09:19:20Z</time>
      </trkpt>
      <trkpt lat="45.0854" lon="6.16115">
        <ele>1438.2</ele>
        <time>2026-08-25T09:19:21Z</time>
      </trkpt>
      <trkpt lat="45.08543" lon="6.16114">
        <ele>1438.4</ele>
        <time>2026-08-25T09:19:22Z</time>
      </trkpt>
      <trkpt lat="45.08545" lon="6.16114">
        <ele>1438.7</ele>
        <time>2026-08-25T09:19:23Z</time>
      </trkpt>
      <trkpt lat="45.08547" lon="6.16115">
        <ele>1438.9</ele>
        <time>2026-08-25T09:19:24Z</time>
      </trkpt>
      <trkpt lat="45.0855" lon="6.16115">
        <ele>1439.1</ele>
        <time>2026-08-25T09:19:25Z</time>
      </trkpt>
      <trkpt lat="45.08552" lon="6.16115">
        <ele>1439.3</ele>
        <time>2026-08-25T09:19:26Z</time>
      </trkpt>
      <trkpt lat="45.08554" lon="6.16115">
        <ele>1439.5</ele>
        <time>2026-08-25T09:19:27Z</time>
      </trkpt>
      <trkpt lat="45.08557" lon="6.16115">
        <ele>1439.7</ele>
        <time>2026-08-25T09:19:28Z</time>
      </trkpt>
      <trkpt lat="45.08559" lon="6.16115">
        <ele>1440</ele>
        <time>2026-08-25T09:19:29Z</time>
      </trkpt>
      <trkpt lat="45.08561" lon="6.16116">
        <ele>1440.2</ele>
        <time>2026-08-25T09:19:30Z</time>
      </trkpt>
      <trkpt lat="45.08564" lon="6.16116">
        <ele>1440.4</ele>
        <time>2026-08-25T09:19:31Z</time>
      </trkpt>
      <trkpt lat="45.08566" lon="6.16117">
        <ele>1440.6</ele>
        <time>2026-08-25T09:19:32Z</time>
      </trkpt>
      <trkpt lat="45.08568" lon="6.16117">
        <ele>1440.8</ele>
        <time>2026-08-25T09:19:33Z</time>
      </trkpt>
      <trkpt lat="45.0857" lon="6.16117">
        <ele>1441.1</ele>
        <time>2026-08-25T09:19:34Z</time>
      </trkpt>
      <trkpt lat="45.08573" lon="6.16118">
        <ele>1441.3</ele>
        <time>2026-08-25T09:19:35Z</time>
      </trkpt>
      <trkpt lat="45.08575" lon="6.16118">
        <ele>1441.5</ele>
        <time>2026-08-25T09:19:36Z</time>
      </trkpt>
      <trkpt lat="45.08577" lon="6.16119">
        <ele>1441.7</ele>
        <time>2026-08-25T09:19:37Z</time>
      </trkpt>
      <trkpt lat="45.08579" lon="6.16119">
        <ele>1442</ele>
        <time>2026-08-25T09:19:38Z</time>
      </trkpt>
      <trkpt lat="45.08581" lon="6.16119">
        <ele>1442.2</ele>
        <time>2026-08-25T09:19:39Z</time>
      </trkpt>
      <trkpt lat="45.08584" lon="6.16121">
        <ele>1442.5</ele>
        <time>2026-08-25T09:19:40Z</time>
      </trkpt>
      <trkpt lat="45.08586" lon="6.16122">
        <ele>1442.7</ele>
        <time>2026-08-25T09:19:41Z</time>
      </trkpt>
      <trkpt lat="45.08588" lon="6.16123">
        <ele>1442.9</ele>
        <time>2026-08-25T09:19:42Z</time>
      </trkpt>
      <trkpt lat="45.0859" lon="6.16124">
        <ele>1443.2</ele>
        <time>2026-08-25T09:19:43Z</time>
      </trkpt>
      <trkpt lat="45.08592" lon="6.16124">
        <ele>1443.4</ele>
        <time>2026-08-25T09:19:44Z</time>
      </trkpt>
      <trkpt lat="45.08594" lon="6.16125">
        <ele>1443.7</ele>
        <time>2026-08-25T09:19:45Z</time>
      </trkpt>
      <trkpt lat="45.08596" lon="6.16125">
        <ele>1443.9</ele>
        <time>2026-08-25T09:19:46Z</time>
      </trkpt>
      <trkpt lat="45.08597" lon="6.16126">
        <ele>1444.1</ele>
        <time>2026-08-25T09:19:47Z</time>
      </trkpt>
      <trkpt lat="45.08599" lon="6.16128">
        <ele>1444.4</ele>
        <time>2026-08-25T09:19:48Z</time>
      </trkpt>
      <trkpt lat="45.08602" lon="6.16129">
        <ele>1444.7</ele>
        <time>2026-08-25T09:19:49Z</time>
      </trkpt>
      <trkpt lat="45.08603" lon="6.1613">
        <ele>1444.9</ele>
        <time>2026-08-25T09:19:50Z</time>
      </trkpt>
      <trkpt lat="45.08605" lon="6.16131">
        <ele>1445.2</ele>
        <time>2026-08-25T09:19:51Z</time>
      </trkpt>
      <trkpt lat="45.08607" lon="6.16132">
        <ele>1445.4</ele>
        <time>2026-08-25T09:19:52Z</time>
      </trkpt>
      <trkpt lat="45.08609" lon="6.16134">
        <ele>1445.8</ele>
        <time>2026-08-25T09:19:53Z</time>
      </trkpt>
      <trkpt lat="45.08611" lon="6.16135">
        <ele>1446.1</ele>
        <time>2026-08-25T09:19:54Z</time>
      </trkpt>
      <trkpt lat="45.08614" lon="6.16137">
        <ele>1446.4</ele>
        <time>2026-08-25T09:19:55Z</time>
      </trkpt>
      <trkpt lat="45.08616" lon="6.16139">
        <ele>1446.7</ele>
        <time>2026-08-25T09:19:56Z</time>
      </trkpt>
      <trkpt lat="45.08618" lon="6.1614">
        <ele>1446.9</ele>
        <time>2026-08-25T09:19:57Z</time>
      </trkpt>
      <trkpt lat="45.0862" lon="6.16142">
        <ele>1447.3</ele>
        <time>2026-08-25T09:19:58Z</time>
      </trkpt>
      <trkpt lat="45.08622" lon="6.16144">
        <ele>1447.6</ele>
        <time>2026-08-25T09:19:59Z</time>
      </trkpt>
      <trkpt lat="45.08624" lon="6.16145">
        <ele>1447.8</ele>
        <time>2026-08-25T09:20:00Z</time>
      </trkpt>
      <trkpt lat="45.08627" lon="6.16146">
        <ele>1448.1</ele>
        <time>2026-08-25T09:20:01Z</time>
      </trkpt>
      <trkpt lat="45.08629" lon="6.16146">
        <ele>1448.4</ele>
        <time>2026-08-25T09:20:02Z</time>
      </trkpt>
      <trkpt lat="45.08631" lon="6.16146">
        <ele>1448.6</ele>
        <time>2026-08-25T09:20:03Z</time>
      </trkpt>
      <trkpt lat="45.08634" lon="6.16147">
        <ele>1448.9</ele>
        <time>2026-08-25T09:20:04Z</time>
      </trkpt>
      <trkpt lat="45.08636" lon="6.16146">
        <ele>1449.2</ele>
        <time>2026-08-25T09:20:05Z</time>
      </trkpt>
      <trkpt lat="45.08639" lon="6.16145">
        <ele>1449.4</ele>
        <time>2026-08-25T09:20:06Z</time>
      </trkpt>
      <trkpt lat="45.08641" lon="6.16143">
        <ele>1449.7</ele>
        <time>2026-08-25T09:20:07Z</time>
      </trkpt>
      <trkpt lat="45.08643" lon="6.16142">
        <ele>1449.9</ele>
        <time>2026-08-25T09:20:08Z</time>
      </trkpt>
      <trkpt lat="45.08645" lon="6.1614">
        <ele>1450.2</ele>
        <time>2026-08-25T09:20:09Z</time>
      </trkpt>
      <trkpt lat="45.08647" lon="6.16138">
        <ele>1450.4</ele>
        <time>2026-08-25T09:20:10Z</time>
      </trkpt>
      <trkpt lat="45.08649" lon="6.16136">
        <ele>1450.6</ele>
        <time>2026-08-25T09:20:11Z</time>
      </trkpt>
      <trkpt lat="45.08651" lon="6.16134">
        <ele>1450.8</ele>
        <time>2026-08-25T09:20:12Z</time>
      </trkpt>
      <trkpt lat="45.08654" lon="6.16133">
        <ele>1451.1</ele>
        <time>2026-08-25T09:20:13Z</time>
      </trkpt>
      <trkpt lat="45.08656" lon="6.16131">
        <ele>1451.3</ele>
        <time>2026-08-25T09:20:14Z</time>
      </trkpt>
      <trkpt lat="45.08659" lon="6.1613">
        <ele>1451.5</ele>
        <time>2026-08-25T09:20:15Z</time>
      </trkpt>
      <trkpt lat="45.08661" lon="6.16128">
        <ele>1451.7</ele>
        <time>2026-08-25T09:20:16Z</time>
      </trkpt>
      <trkpt lat="45.08663" lon="6.16126">
        <ele>1451.9</ele>
        <time>2026-08-25T09:20:17Z</time>
      </trkpt>
      <trkpt lat="45.08666" lon="6.16125">
        <ele>1452.1</ele>
        <time>2026-08-25T09:20:18Z</time>
      </trkpt>
      <trkpt lat="45.08668" lon="6.16125">
        <ele>1452.3</ele>
        <time>2026-08-25T09:20:19Z</time>
      </trkpt>
      <trkpt lat="45.0867" lon="6.16124">
        <ele>1452.5</ele>
        <time>2026-08-25T09:20:20Z</time>
      </trkpt>
      <trkpt lat="45.08673" lon="6.16124">
        <ele>1452.6</ele>
        <time>2026-08-25T09:20:21Z</time>
      </trkpt>
      <trkpt lat="45.08676" lon="6.16124">
        <ele>1452.8</ele>
        <time>2026-08-25T09:20:22Z</time>
      </trkpt>
      <trkpt lat="45.08679" lon="6.16125">
        <ele>1453</ele>
        <time>2026-08-25T09:20:23Z</time>
      </trkpt>
      <trkpt lat="45.08681" lon="6.16125">
        <ele>1453.2</ele>
        <time>2026-08-25T09:20:24Z</time>
      </trkpt>
      <trkpt lat="45.08684" lon="6.16125">
        <ele>1453.4</ele>
        <time>2026-08-25T09:20:25Z</time>
      </trkpt>
      <trkpt lat="45.08686" lon="6.16124">
        <ele>1453.6</ele>
        <time>2026-08-25T09:20:26Z</time>
      </trkpt>
      <trkpt lat="45.08688" lon="6.16124">
        <ele>1453.7</ele>
        <time>2026-08-25T09:20:27Z</time>
      </trkpt>
      <trkpt lat="45.0869" lon="6.16124">
        <ele>1453.9</ele>
        <time>2026-08-25T09:20:28Z</time>
      </trkpt>
      <trkpt lat="45.08693" lon="6.16125">
        <ele>1454</ele>
        <time>2026-08-25T09:20:29Z</time>
      </trkpt>
      <trkpt lat="45.08695" lon="6.16125">
        <ele>1454.2</ele>
        <time>2026-08-25T09:20:30Z</time>
      </trkpt>
      <trkpt lat="45.08697" lon="6.16126">
        <ele>1454.4</ele>
        <time>2026-08-25T09:20:31Z</time>
      </trkpt>
      <trkpt lat="45.08699" lon="6.16127">
        <ele>1454.6</ele>
        <time>2026-08-25T09:20:32Z</time>
      </trkpt>
      <trkpt lat="45.08702" lon="6.16127">
        <ele>1454.7</ele>
        <time>2026-08-25T09:20:33Z</time>
      </trkpt>
      <trkpt lat="45.08704" lon="6.16128">
        <ele>1454.9</ele>
        <time>2026-08-25T09:20:34Z</time>
      </trkpt>
      <trkpt lat="45.08706" lon="6.16129">
        <ele>1455.1</ele>
        <time>2026-08-25T09:20:35Z</time>
      </trkpt>
      <trkpt lat="45.08708" lon="6.1613">
        <ele>1455.3</ele>
        <time>2026-08-25T09:20:36Z</time>
      </trkpt>
      <trkpt lat="45.0871" lon="6.16131">
        <ele>1455.5</ele>
        <time>2026-08-25T09:20:37Z</time>
      </trkpt>
      <trkpt lat="45.08712" lon="6.16131">
        <ele>1455.6</ele>
        <time>2026-08-25T09:20:38Z</time>
      </trkpt>
      <trkpt lat="45.08714" lon="6.16132">
        <ele>1455.8</ele>
        <time>2026-08-25T09:20:39Z</time>
      </trkpt>
      <trkpt lat="45.08717" lon="6.16133">
        <ele>1456</ele>
        <time>2026-08-25T09:20:40Z</time>
      </trkpt>
      <trkpt lat="45.08719" lon="6.16133">
        <ele>1456.2</ele>
        <time>2026-08-25T09:20:41Z</time>
      </trkpt>
      <trkpt lat="45.08721" lon="6.16134">
        <ele>1456.4</ele>
        <time>2026-08-25T09:20:42Z</time>
      </trkpt>
      <trkpt lat="45.08723" lon="6.16134">
        <ele>1456.6</ele>
        <time>2026-08-25T09:20:43Z</time>
      </trkpt>
      <trkpt lat="45.08725" lon="6.16135">
        <ele>1456.8</ele>
        <time>2026-08-25T09:20:44Z</time>
      </trkpt>
      <trkpt lat="45.08728" lon="6.16136">
        <ele>1457</ele>
        <time>2026-08-25T09:20:45Z</time>
      </trkpt>
      <trkpt lat="45.0873" lon="6.16136">
        <ele>1457.2</ele>
        <time>2026-08-25T09:20:46Z</time>
      </trkpt>
      <trkpt lat="45.08732" lon="6.16136">
        <ele>1457.5</ele>
        <time>2026-08-25T09:20:47Z</time>
      </trkpt>
      <trkpt lat="45.08735" lon="6.16137">
        <ele>1457.7</ele>
        <time>2026-08-25T09:20:48Z</time>
      </trkpt>
      <trkpt lat="45.08737" lon="6.16137">
        <ele>1457.9</ele>
        <time>2026-08-25T09:20:49Z</time>
      </trkpt>
      <trkpt lat="45.0874" lon="6.16137">
        <ele>1458.2</ele>
        <time>2026-08-25T09:20:50Z</time>
      </trkpt>
      <trkpt lat="45.08742" lon="6.16138">
        <ele>1458.4</ele>
        <time>2026-08-25T09:20:51Z</time>
      </trkpt>
      <trkpt lat="45.08744" lon="6.16139">
        <ele>1458.6</ele>
        <time>2026-08-25T09:20:52Z</time>
      </trkpt>
      <trkpt lat="45.08745" lon="6.16139">
        <ele>1458.7</ele>
        <time>2026-08-25T09:20:53Z</time>
      </trkpt>
      <trkpt lat="45.08747" lon="6.1614">
        <ele>1459</ele>
        <time>2026-08-25T09:20:54Z</time>
      </trkpt>
      <trkpt lat="45.0875" lon="6.16142">
        <ele>1459.2</ele>
        <time>2026-08-25T09:20:55Z</time>
      </trkpt>
      <trkpt lat="45.08752" lon="6.16143">
        <ele>1459.4</ele>
        <time>2026-08-25T09:20:56Z</time>
      </trkpt>
      <trkpt lat="45.08754" lon="6.16144">
        <ele>1459.6</ele>
        <time>2026-08-25T09:20:57Z</time>
      </trkpt>
      <trkpt lat="45.08756" lon="6.16145">
        <ele>1459.8</ele>
        <time>2026-08-25T09:20:58Z</time>
      </trkpt>
      <trkpt lat="45.08759" lon="6.16146">
        <ele>1460</ele>
        <time>2026-08-25T09:20:59Z</time>
      </trkpt>
      <trkpt lat="45.08761" lon="6.16147">
        <ele>1460.3</ele>
        <time>2026-08-25T09:21:00Z</time>
      </trkpt>
      <trkpt lat="45.08763" lon="6.16148">
        <ele>1460.5</ele>
        <time>2026-08-25T09:21:01Z</time>
      </trkpt>
      <trkpt lat="45.08765" lon="6.16149">
        <ele>1460.7</ele>
        <time>2026-08-25T09:21:02Z</time>
      </trkpt>
      <trkpt lat="45.08767" lon="6.16149">
        <ele>1460.9</ele>
        <time>2026-08-25T09:21:03Z</time>
      </trkpt>
      <trkpt lat="45.0877" lon="6.1615">
        <ele>1461.1</ele>
        <time>2026-08-25T09:21:04Z</time>
      </trkpt>
      <trkpt lat="45.08772" lon="6.16151">
        <ele>1461.3</ele>
        <time>2026-08-25T09:21:05Z</time>
      </trkpt>
      <trkpt lat="45.08774" lon="6.16151">
        <ele>1461.5</ele>
        <time>2026-08-25T09:21:06Z</time>
      </trkpt>
      <trkpt lat="45.08776" lon="6.16152">
        <ele>1461.7</ele>
        <time>2026-08-25T09:21:07Z</time>
      </trkpt>
      <trkpt lat="45.08778" lon="6.16153">
        <ele>1461.9</ele>
        <time>2026-08-25T09:21:08Z</time>
      </trkpt>
      <trkpt lat="45.08781" lon="6.16154">
        <ele>1462.2</ele>
        <time>2026-08-25T09:21:09Z</time>
      </trkpt>
      <trkpt lat="45.08783" lon="6.16155">
        <ele>1462.4</ele>
        <time>2026-08-25T09:21:10Z</time>
      </trkpt>
      <trkpt lat="45.08785" lon="6.16156">
        <ele>1462.6</ele>
        <time>2026-08-25T09:21:11Z</time>
      </trkpt>
      <trkpt lat="45.08787" lon="6.16158">
        <ele>1462.9</ele>
        <time>2026-08-25T09:21:12Z</time>
      </trkpt>
      <trkpt lat="45.08789" lon="6.16159">
        <ele>1463.1</ele>
        <time>2026-08-25T09:21:13Z</time>
      </trkpt>
      <trkpt lat="45.08791" lon="6.1616">
        <ele>1463.3</ele>
        <time>2026-08-25T09:21:14Z</time>
      </trkpt>
      <trkpt lat="45.08793" lon="6.16162">
        <ele>1463.6</ele>
        <time>2026-08-25T09:21:15Z</time>
      </trkpt>
      <trkpt lat="45.08795" lon="6.16164">
        <ele>1463.8</ele>
        <time>2026-08-25T09:21:16Z</time>
      </trkpt>
      <trkpt lat="45.08798" lon="6.16166">
        <ele>1464</ele>
        <time>2026-08-25T09:21:17Z</time>
      </trkpt>
      <trkpt lat="45.08799" lon="6.16168">
        <ele>1464.3</ele>
        <time>2026-08-25T09:21:18Z</time>
      </trkpt>
      <trkpt lat="45.08801" lon="6.16169">
        <ele>1464.5</ele>
        <time>2026-08-25T09:21:19Z</time>
      </trkpt>
      <trkpt lat="45.08803" lon="6.1617">
        <ele>1464.7</ele>
        <time>2026-08-25T09:21:20Z</time>
      </trkpt>
      <trkpt lat="45.08805" lon="6.16172">
        <ele>1464.9</ele>
        <time>2026-08-25T09:21:21Z</time>
      </trkpt>
      <trkpt lat="45.08806" lon="6.16174">
        <ele>1465.1</ele>
        <time>2026-08-25T09:21:22Z</time>
      </trkpt>
      <trkpt lat="45.08808" lon="6.16176">
        <ele>1465.3</ele>
        <time>2026-08-25T09:21:23Z</time>
      </trkpt>
      <trkpt lat="45.0881" lon="6.16177">
        <ele>1465.5</ele>
        <time>2026-08-25T09:21:24Z</time>
      </trkpt>
      <trkpt lat="45.08812" lon="6.16179">
        <ele>1465.8</ele>
        <time>2026-08-25T09:21:25Z</time>
      </trkpt>
      <trkpt lat="45.08814" lon="6.1618">
        <ele>1466</ele>
        <time>2026-08-25T09:21:26Z</time>
      </trkpt>
      <trkpt lat="45.08817" lon="6.16182">
        <ele>1466.3</ele>
        <time>2026-08-25T09:21:27Z</time>
      </trkpt>
      <trkpt lat="45.08818" lon="6.16184">
        <ele>1466.4</ele>
        <time>2026-08-25T09:21:28Z</time>
      </trkpt>
      <trkpt lat="45.08821" lon="6.16185">
        <ele>1466.7</ele>
        <time>2026-08-25T09:21:29Z</time>
      </trkpt>
      <trkpt lat="45.08823" lon="6.16188">
        <ele>1467</ele>
        <time>2026-08-25T09:21:30Z</time>
      </trkpt>
      <trkpt lat="45.08825" lon="6.1619">
        <ele>1467.3</ele>
        <time>2026-08-25T09:21:31Z</time>
      </trkpt>
      <trkpt lat="45.08828" lon="6.16193">
        <ele>1467.6</ele>
        <time>2026-08-25T09:21:32Z</time>
      </trkpt>
      <trkpt lat="45.0883" lon="6.16195">
        <ele>1467.8</ele>
        <time>2026-08-25T09:21:33Z</time>
      </trkpt>
      <trkpt lat="45.08832" lon="6.16197">
        <ele>1468</ele>
        <time>2026-08-25T09:21:34Z</time>
      </trkpt>
      <trkpt lat="45.08834" lon="6.16199">
        <ele>1468.3</ele>
        <time>2026-08-25T09:21:35Z</time>
      </trkpt>
      <trkpt lat="45.08835" lon="6.16201">
        <ele>1468.5</ele>
        <time>2026-08-25T09:21:36Z</time>
      </trkpt>
      <trkpt lat="45.08837" lon="6.16203">
        <ele>1468.7</ele>
        <time>2026-08-25T09:21:37Z</time>
      </trkpt>
      <trkpt lat="45.08839" lon="6.16206">
        <ele>1468.9</ele>
        <time>2026-08-25T09:21:38Z</time>
      </trkpt>
      <trkpt lat="45.0884" lon="6.16208">
        <ele>1469.2</ele>
        <time>2026-08-25T09:21:39Z</time>
      </trkpt>
      <trkpt lat="45.08843" lon="6.16209">
        <ele>1469.4</ele>
        <time>2026-08-25T09:21:40Z</time>
      </trkpt>
      <trkpt lat="45.08845" lon="6.16211">
        <ele>1469.6</ele>
        <time>2026-08-25T09:21:41Z</time>
      </trkpt>
      <trkpt lat="45.08847" lon="6.16212">
        <ele>1469.9</ele>
        <time>2026-08-25T09:21:42Z</time>
      </trkpt>
      <trkpt lat="45.08849" lon="6.16214">
        <ele>1470.1</ele>
        <time>2026-08-25T09:21:43Z</time>
      </trkpt>
      <trkpt lat="45.0885" lon="6.16216">
        <ele>1470.3</ele>
        <time>2026-08-25T09:21:44Z</time>
      </trkpt>
      <trkpt lat="45.08852" lon="6.16217">
        <ele>1470.5</ele>
        <time>2026-08-25T09:21:45Z</time>
      </trkpt>
      <trkpt lat="45.08854" lon="6.16219">
        <ele>1470.7</ele>
        <time>2026-08-25T09:21:46Z</time>
      </trkpt>
      <trkpt lat="45.08856" lon="6.16221">
        <ele>1471</ele>
        <time>2026-08-25T09:21:47Z</time>
      </trkpt>
      <trkpt lat="45.08858" lon="6.16223">
        <ele>1471.2</ele>
        <time>2026-08-25T09:21:48Z</time>
      </trkpt>
      <trkpt lat="45.0886" lon="6.16226">
        <ele>1471.4</ele>
        <time>2026-08-25T09:21:49Z</time>
      </trkpt>
      <trkpt lat="45.08861" lon="6.16228">
        <ele>1471.7</ele>
        <time>2026-08-25T09:21:50Z</time>
      </trkpt>
      <trkpt lat="45.08863" lon="6.16231">
        <ele>1471.9</ele>
        <time>2026-08-25T09:21:51Z</time>
      </trkpt>
      <trkpt lat="45.08864" lon="6.16234">
        <ele>1472.2</ele>
        <time>2026-08-25T09:21:52Z</time>
      </trkpt>
      <trkpt lat="45.08866" lon="6.16237">
        <ele>1472.4</ele>
        <time>2026-08-25T09:21:53Z</time>
      </trkpt>
      <trkpt lat="45.08867" lon="6.16239">
        <ele>1472.6</ele>
        <time>2026-08-25T09:21:54Z</time>
      </trkpt>
      <trkpt lat="45.08869" lon="6.16242">
        <ele>1472.9</ele>
        <time>2026-08-25T09:21:55Z</time>
      </trkpt>
      <trkpt lat="45.0887" lon="6.16244">
        <ele>1473.1</ele>
        <time>2026-08-25T09:21:56Z</time>
      </trkpt>
      <trkpt lat="45.08872" lon="6.16247">
        <ele>1473.3</ele>
        <time>2026-08-25T09:21:57Z</time>
      </trkpt>
      <trkpt lat="45.08873" lon="6.1625">
        <ele>1473.5</ele>
        <time>2026-08-25T09:21:58Z</time>
      </trkpt>
      <trkpt lat="45.08875" lon="6.16252">
        <ele>1473.8</ele>
        <time>2026-08-25T09:21:59Z</time>
      </trkpt>
      <trkpt lat="45.08876" lon="6.16254">
        <ele>1474</ele>
        <time>2026-08-25T09:22:00Z</time>
      </trkpt>
      <trkpt lat="45.08878" lon="6.16256">
        <ele>1474.2</ele>
        <time>2026-08-25T09:22:01Z</time>
      </trkpt>
      <trkpt lat="45.0888" lon="6.16259">
        <ele>1474.5</ele>
        <time>2026-08-25T09:22:02Z</time>
      </trkpt>
      <trkpt lat="45.08882" lon="6.16261">
        <ele>1474.8</ele>
        <time>2026-08-25T09:22:03Z</time>
      </trkpt>
      <trkpt lat="45.08884" lon="6.16264">
        <ele>1475</ele>
        <time>2026-08-25T09:22:04Z</time>
      </trkpt>
      <trkpt lat="45.08886" lon="6.16266">
        <ele>1475.3</ele>
        <time>2026-08-25T09:22:05Z</time>
      </trkpt>
      <trkpt lat="45.08888" lon="6.16268">
        <ele>1475.6</ele>
        <time>2026-08-25T09:22:06Z</time>
      </trkpt>
      <trkpt lat="45.0889" lon="6.1627">
        <ele>1475.8</ele>
        <time>2026-08-25T09:22:07Z</time>
      </trkpt>
      <trkpt lat="45.08892" lon="6.16272">
        <ele>1476.1</ele>
        <time>2026-08-25T09:22:08Z</time>
      </trkpt>
      <trkpt lat="45.08894" lon="6.16274">
        <ele>1476.3</ele>
        <time>2026-08-25T09:22:09Z</time>
      </trkpt>
      <trkpt lat="45.08896" lon="6.16275">
        <ele>1476.5</ele>
        <time>2026-08-25T09:22:10Z</time>
      </trkpt>
      <trkpt lat="45.08898" lon="6.16276">
        <ele>1476.7</ele>
        <time>2026-08-25T09:22:11Z</time>
      </trkpt>
      <trkpt lat="45.089" lon="6.16277">
        <ele>1476.9</ele>
        <time>2026-08-25T09:22:12Z</time>
      </trkpt>
      <trkpt lat="45.08902" lon="6.16278">
        <ele>1477.1</ele>
        <time>2026-08-25T09:22:13Z</time>
      </trkpt>
      <trkpt lat="45.08904" lon="6.1628">
        <ele>1477.4</ele>
        <time>2026-08-25T09:22:14Z</time>
      </trkpt>
      <trkpt lat="45.08907" lon="6.16281">
        <ele>1477.6</ele>
        <time>2026-08-25T09:22:15Z</time>
      </trkpt>
      <trkpt lat="45.08909" lon="6.16282">
        <ele>1477.8</ele>
        <time>2026-08-25T09:22:16Z</time>
      </trkpt>
      <trkpt lat="45.08911" lon="6.16283">
        <ele>1478</ele>
        <time>2026-08-25T09:22:17Z</time>
      </trkpt>
      <trkpt lat="45.08912" lon="6.16285">
        <ele>1478.2</ele>
        <time>2026-08-25T09:22:18Z</time>
      </trkpt>
      <trkpt lat="45.08914" lon="6.16286">
        <ele>1478.4</ele>
        <time>2026-08-25T09:22:19Z</time>
      </trkpt>
      <trkpt lat="45.08916" lon="6.16288">
        <ele>1478.6</ele>
        <time>2026-08-25T09:22:20Z</time>
      </trkpt>
      <trkpt lat="45.08918" lon="6.1629">
        <ele>1478.8</ele>
        <time>2026-08-25T09:22:21Z</time>
      </trkpt>
      <trkpt lat="45.08919" lon="6.16291">
        <ele>1479</ele>
        <time>2026-08-25T09:22:22Z</time>
      </trkpt>
      <trkpt lat="45.08921" lon="6.16293">
        <ele>1479.2</ele>
        <time>2026-08-25T09:22:23Z</time>
      </trkpt>
      <trkpt lat="45.08924" lon="6.16295">
        <ele>1479.5</ele>
        <time>2026-08-25T09:22:24Z</time>
      </trkpt>
      <trkpt lat="45.08926" lon="6.16297">
        <ele>1479.7</ele>
        <time>2026-08-25T09:22:25Z</time>
      </trkpt>
      <trkpt lat="45.08928" lon="6.16299">
        <ele>1479.9</ele>
        <time>2026-08-25T09:22:26Z</time>
      </trkpt>
      <trkpt lat="45.0893" lon="6.16301">
        <ele>1480.2</ele>
        <time>2026-08-25T09:22:27Z</time>
      </trkpt>
      <trkpt lat="45.08932" lon="6.16304">
        <ele>1480.4</ele>
        <time>2026-08-25T09:22:28Z</time>
      </trkpt>
      <trkpt lat="45.08933" lon="6.16306">
        <ele>1480.6</ele>
        <time>2026-08-25T09:22:29Z</time>
      </trkpt>
      <trkpt lat="45.08935" lon="6.16309">
        <ele>1480.9</ele>
        <time>2026-08-25T09:22:30Z</time>
      </trkpt>
      <trkpt lat="45.08937" lon="6.1631">
        <ele>1481.1</ele>
        <time>2026-08-25T09:22:31Z</time>
      </trkpt>
      <trkpt lat="45.08939" lon="6.16312">
        <ele>1481.3</ele>
        <time>2026-08-25T09:22:32Z</time>
      </trkpt>
      <trkpt lat="45.0894" lon="6.16314">
        <ele>1481.5</ele>
        <time>2026-08-25T09:22:33Z</time>
      </trkpt>
      <trkpt lat="45.08942" lon="6.16316">
        <ele>1481.7</ele>
        <time>2026-08-25T09:22:34Z</time>
      </trkpt>
      <trkpt lat="45.08943" lon="6.16319">
        <ele>1482</ele>
        <time>2026-08-25T09:22:35Z</time>
      </trkpt>
      <trkpt lat="45.08945" lon="6.1632">
        <ele>1482.2</ele>
        <time>2026-08-25T09:22:36Z</time>
      </trkpt>
      <trkpt lat="45.08947" lon="6.16322">
        <ele>1482.4</ele>
        <time>2026-08-25T09:22:37Z</time>
      </trkpt>
      <trkpt lat="45.08949" lon="6.16324">
        <ele>1482.7</ele>
        <time>2026-08-25T09:22:38Z</time>
      </trkpt>
      <trkpt lat="45.08951" lon="6.16325">
        <ele>1482.9</ele>
        <time>2026-08-25T09:22:39Z</time>
      </trkpt>
      <trkpt lat="45.08953" lon="6.16327">
        <ele>1483.1</ele>
        <time>2026-08-25T09:22:40Z</time>
      </trkpt>
      <trkpt lat="45.08955" lon="6.16329">
        <ele>1483.4</ele>
        <time>2026-08-25T09:22:41Z</time>
      </trkpt>
      <trkpt lat="45.08958" lon="6.1633">
        <ele>1483.7</ele>
        <time>2026-08-25T09:22:42Z</time>
      </trkpt>
      <trkpt lat="45.0896" lon="6.1633">
        <ele>1483.9</ele>
        <time>2026-08-25T09:22:43Z</time>
      </trkpt>
      <trkpt lat="45.08963" lon="6.16331">
        <ele>1484.2</ele>
        <time>2026-08-25T09:22:44Z</time>
      </trkpt>
      <trkpt lat="45.08965" lon="6.16332">
        <ele>1484.4</ele>
        <time>2026-08-25T09:22:45Z</time>
      </trkpt>
      <trkpt lat="45.08967" lon="6.16333">
        <ele>1484.7</ele>
        <time>2026-08-25T09:22:46Z</time>
      </trkpt>
      <trkpt lat="45.0897" lon="6.16334">
        <ele>1484.9</ele>
        <time>2026-08-25T09:22:47Z</time>
      </trkpt>
      <trkpt lat="45.08972" lon="6.16334">
        <ele>1485.1</ele>
        <time>2026-08-25T09:22:48Z</time>
      </trkpt>
      <trkpt lat="45.08974" lon="6.16334">
        <ele>1485.3</ele>
        <time>2026-08-25T09:22:49Z</time>
      </trkpt>
      <trkpt lat="45.08977" lon="6.16335">
        <ele>1485.6</ele>
        <time>2026-08-25T09:22:50Z</time>
      </trkpt>
      <trkpt lat="45.08979" lon="6.16335">
        <ele>1485.8</ele>
        <time>2026-08-25T09:22:51Z</time>
      </trkpt>
      <trkpt lat="45.08981" lon="6.16337">
        <ele>1486</ele>
        <time>2026-08-25T09:22:52Z</time>
      </trkpt>
      <trkpt lat="45.08984" lon="6.16338">
        <ele>1486.2</ele>
        <time>2026-08-25T09:22:53Z</time>
      </trkpt>
      <trkpt lat="45.08986" lon="6.1634">
        <ele>1486.4</ele>
        <time>2026-08-25T09:22:54Z</time>
      </trkpt>
      <trkpt lat="45.08989" lon="6.16342">
        <ele>1486.6</ele>
        <time>2026-08-25T09:22:55Z</time>
      </trkpt>
      <trkpt lat="45.08991" lon="6.16343">
        <ele>1486.8</ele>
        <time>2026-08-25T09:22:56Z</time>
      </trkpt>
      <trkpt lat="45.08993" lon="6.16345">
        <ele>1487</ele>
        <time>2026-08-25T09:22:57Z</time>
      </trkpt>
      <trkpt lat="45.08995" lon="6.16348">
        <ele>1487.2</ele>
        <time>2026-08-25T09:22:58Z</time>
      </trkpt>
      <trkpt lat="45.08997" lon="6.16351">
        <ele>1487.4</ele>
        <time>2026-08-25T09:22:59Z</time>
      </trkpt>
      <trkpt lat="45.08999" lon="6.16353">
        <ele>1487.7</ele>
        <time>2026-08-25T09:23:00Z</time>
      </trkpt>
      <trkpt lat="45.09001" lon="6.16356">
        <ele>1487.9</ele>
        <time>2026-08-25T09:23:01Z</time>
      </trkpt>
      <trkpt lat="45.09003" lon="6.16358">
        <ele>1488.1</ele>
        <time>2026-08-25T09:23:02Z</time>
      </trkpt>
      <trkpt lat="45.09005" lon="6.1636">
        <ele>1488.3</ele>
        <time>2026-08-25T09:23:03Z</time>
      </trkpt>
      <trkpt lat="45.09007" lon="6.16363">
        <ele>1488.5</ele>
        <time>2026-08-25T09:23:04Z</time>
      </trkpt>
      <trkpt lat="45.09009" lon="6.16365">
        <ele>1488.8</ele>
        <time>2026-08-25T09:23:05Z</time>
      </trkpt>
      <trkpt lat="45.09012" lon="6.16367">
        <ele>1489</ele>
        <time>2026-08-25T09:23:06Z</time>
      </trkpt>
      <trkpt lat="45.09014" lon="6.16369">
        <ele>1489.3</ele>
        <time>2026-08-25T09:23:07Z</time>
      </trkpt>
      <trkpt lat="45.09016" lon="6.1637">
        <ele>1489.5</ele>
        <time>2026-08-25T09:23:08Z</time>
      </trkpt>
      <trkpt lat="45.09019" lon="6.16371">
        <ele>1489.7</ele>
        <time>2026-08-25T09:23:09Z</time>
      </trkpt>
      <trkpt lat="45.09021" lon="6.16371">
        <ele>1489.9</ele>
        <time>2026-08-25T09:23:10Z</time>
      </trkpt>
      <trkpt lat="45.09024" lon="6.16371">
        <ele>1490.1</ele>
        <time>2026-08-25T09:23:11Z</time>
      </trkpt>
      <trkpt lat="45.09026" lon="6.1637">
        <ele>1490.2</ele>
        <time>2026-08-25T09:23:12Z</time>
      </trkpt>
      <trkpt lat="45.09029" lon="6.16369">
        <ele>1490.4</ele>
        <time>2026-08-25T09:23:13Z</time>
      </trkpt>
      <trkpt lat="45.09031" lon="6.16367">
        <ele>1490.5</ele>
        <time>2026-08-25T09:23:14Z</time>
      </trkpt>
      <trkpt lat="45.09033" lon="6.16365">
        <ele>1490.7</ele>
        <time>2026-08-25T09:23:15Z</time>
      </trkpt>
      <trkpt lat="45.09035" lon="6.16363">
        <ele>1490.9</ele>
        <time>2026-08-25T09:23:16Z</time>
      </trkpt>
      <trkpt lat="45.09037" lon="6.1636">
        <ele>1491</ele>
        <time>2026-08-25T09:23:17Z</time>
      </trkpt>
      <trkpt lat="45.09039" lon="6.16358">
        <ele>1491.2</ele>
        <time>2026-08-25T09:23:18Z</time>
      </trkpt>
      <trkpt lat="45.09041" lon="6.16355">
        <ele>1491.4</ele>
        <time>2026-08-25T09:23:19Z</time>
      </trkpt>
      <trkpt lat="45.09043" lon="6.16352">
        <ele>1491.6</ele>
        <time>2026-08-25T09:23:20Z</time>
      </trkpt>
      <trkpt lat="45.09045" lon="6.16349">
        <ele>1491.8</ele>
        <time>2026-08-25T09:23:21Z</time>
      </trkpt>
      <trkpt lat="45.09046" lon="6.16347">
        <ele>1492</ele>
        <time>2026-08-25T09:23:22Z</time>
      </trkpt>
      <trkpt lat="45.09048" lon="6.16344">
        <ele>1492.2</ele>
        <time>2026-08-25T09:23:23Z</time>
      </trkpt>
      <trkpt lat="45.0905" lon="6.16341">
        <ele>1492.5</ele>
        <time>2026-08-25T09:23:24Z</time>
      </trkpt>
      <trkpt lat="45.09052" lon="6.16338">
        <ele>1492.7</ele>
        <time>2026-08-25T09:23:25Z</time>
      </trkpt>
      <trkpt lat="45.09053" lon="6.16335">
        <ele>1492.9</ele>
        <time>2026-08-25T09:23:26Z</time>
      </trkpt>
      <trkpt lat="45.09056" lon="6.16333">
        <ele>1493.1</ele>
        <time>2026-08-25T09:23:27Z</time>
      </trkpt>
      <trkpt lat="45.09057" lon="6.16332">
        <ele>1493.3</ele>
        <time>2026-08-25T09:23:28Z</time>
      </trkpt>
      <trkpt lat="45.0906" lon="6.16331">
        <ele>1493.5</ele>
        <time>2026-08-25T09:23:29Z</time>
      </trkpt>
      <trkpt lat="45.09062" lon="6.1633">
        <ele>1493.7</ele>
        <time>2026-08-25T09:23:30Z</time>
      </trkpt>
      <trkpt lat="45.09064" lon="6.16329">
        <ele>1493.9</ele>
        <time>2026-08-25T09:23:31Z</time>
      </trkpt>
      <trkpt lat="45.09066" lon="6.16329">
        <ele>1494.1</ele>
        <time>2026-08-25T09:23:32Z</time>
      </trkpt>
      <trkpt lat="45.09068" lon="6.16329">
        <ele>1494.3</ele>
        <time>2026-08-25T09:23:33Z</time>
      </trkpt>
      <trkpt lat="45.0907" lon="6.16329">
        <ele>1494.5</ele>
        <time>2026-08-25T09:23:34Z</time>
      </trkpt>
      <trkpt lat="45.09072" lon="6.1633">
        <ele>1494.6</ele>
        <time>2026-08-25T09:23:35Z</time>
      </trkpt>
      <trkpt lat="45.09075" lon="6.16331">
        <ele>1494.8</ele>
        <time>2026-08-25T09:23:36Z</time>
      </trkpt>
      <trkpt lat="45.09077" lon="6.16332">
        <ele>1495</ele>
        <time>2026-08-25T09:23:37Z</time>
      </trkpt>
      <trkpt lat="45.09079" lon="6.16333">
        <ele>1495.2</ele>
        <time>2026-08-25T09:23:38Z</time>
      </trkpt>
      <trkpt lat="45.09081" lon="6.16335">
        <ele>1495.4</ele>
        <time>2026-08-25T09:23:39Z</time>
      </trkpt>
      <trkpt lat="45.09083" lon="6.16336">
        <ele>1495.6</ele>
        <time>2026-08-25T09:23:40Z</time>
      </trkpt>
      <trkpt lat="45.09085" lon="6.16338">
        <ele>1495.8</ele>
        <time>2026-08-25T09:23:41Z</time>
      </trkpt>
      <trkpt lat="45.09087" lon="6.16339">
        <ele>1496</ele>
        <time>2026-08-25T09:23:42Z</time>
      </trkpt>
      <trkpt lat="45.09089" lon="6.16341">
        <ele>1496.2</ele>
        <time>2026-08-25T09:23:43Z</time>
      </trkpt>
      <trkpt lat="45.09091" lon="6.16342">
        <ele>1496.4</ele>
        <time>2026-08-25T09:23:44Z</time>
      </trkpt>
      <trkpt lat="45.09093" lon="6.16343">
        <ele>1496.6</ele>
        <time>2026-08-25T09:23:45Z</time>
      </trkpt>
      <trkpt lat="45.09095" lon="6.16344">
        <ele>1496.7</ele>
        <time>2026-08-25T09:23:46Z</time>
      </trkpt>
      <trkpt lat="45.09096" lon="6.16345">
        <ele>1496.9</ele>
        <time>2026-08-25T09:23:47Z</time>
      </trkpt>
      <trkpt lat="45.09098" lon="6.16346">
        <ele>1497.1</ele>
        <time>2026-08-25T09:23:48Z</time>
      </trkpt>
      <trkpt lat="45.09101" lon="6.16347">
        <ele>1497.3</ele>
        <time>2026-08-25T09:23:49Z</time>
      </trkpt>
      <trkpt lat="45.09103" lon="6.16348">
        <ele>1497.6</ele>
        <time>2026-08-25T09:23:50Z</time>
      </trkpt>
      <trkpt lat="45.09106" lon="6.1635">
        <ele>1497.9</ele>
        <time>2026-08-25T09:23:51Z</time>
      </trkpt>
      <trkpt lat="45.09109" lon="6.16352">
        <ele>1498.2</ele>
        <time>2026-08-25T09:23:52Z</time>
      </trkpt>
      <trkpt lat="45.09112" lon="6.16352">
        <ele>1498.5</ele>
        <time>2026-08-25T09:23:53Z</time>
      </trkpt>
      <trkpt lat="45.09115" lon="6.16353">
        <ele>1498.8</ele>
        <time>2026-08-25T09:23:54Z</time>
      </trkpt>
      <trkpt lat="45.09118" lon="6.16355">
        <ele>1499</ele>
        <time>2026-08-25T09:23:55Z</time>
      </trkpt>
      <trkpt lat="45.09121" lon="6.16356">
        <ele>1499.3</ele>
        <time>2026-08-25T09:23:56Z</time>
      </trkpt>
      <trkpt lat="45.09124" lon="6.16357">
        <ele>1499.6</ele>
        <time>2026-08-25T09:23:57Z</time>
      </trkpt>
      <trkpt lat="45.09127" lon="6.16358">
        <ele>1499.9</ele>
        <time>2026-08-25T09:23:58Z</time>
      </trkpt>
      <trkpt lat="45.09129" lon="6.1636">
        <ele>1500.2</ele>
        <time>2026-08-25T09:23:59Z</time>
      </trkpt>
      <trkpt lat="45.09132" lon="6.16361">
        <ele>1500.4</ele>
        <time>2026-08-25T09:24:00Z</time>
      </trkpt>
      <trkpt lat="45.09135" lon="6.16363">
        <ele>1500.7</ele>
        <time>2026-08-25T09:24:01Z</time>
      </trkpt>
      <trkpt lat="45.09137" lon="6.16365">
        <ele>1501</ele>
        <time>2026-08-25T09:24:02Z</time>
      </trkpt>
      <trkpt lat="45.0914" lon="6.16367">
        <ele>1501.3</ele>
        <time>2026-08-25T09:24:03Z</time>
      </trkpt>
      <trkpt lat="45.09143" lon="6.16369">
        <ele>1501.5</ele>
        <time>2026-08-25T09:24:04Z</time>
      </trkpt>
      <trkpt lat="45.09145" lon="6.16371">
        <ele>1501.9</ele>
        <time>2026-08-25T09:24:05Z</time>
      </trkpt>
      <trkpt lat="45.09148" lon="6.16374">
        <ele>1502.2</ele>
        <time>2026-08-25T09:24:06Z</time>
      </trkpt>
      <trkpt lat="45.0915" lon="6.16377">
        <ele>1502.5</ele>
        <time>2026-08-25T09:24:07Z</time>
      </trkpt>
      <trkpt lat="45.09153" lon="6.16379">
        <ele>1502.8</ele>
        <time>2026-08-25T09:24:08Z</time>
      </trkpt>
      <trkpt lat="45.09156" lon="6.16382">
        <ele>1503.2</ele>
        <time>2026-08-25T09:24:09Z</time>
      </trkpt>
      <trkpt lat="45.09159" lon="6.16383">
        <ele>1503.4</ele>
        <time>2026-08-25T09:24:10Z</time>
      </trkpt>
      <trkpt lat="45.09162" lon="6.16386">
        <ele>1503.7</ele>
        <time>2026-08-25T09:24:11Z</time>
      </trkpt>
      <trkpt lat="45.09164" lon="6.16388">
        <ele>1504.1</ele>
        <time>2026-08-25T09:24:12Z</time>
      </trkpt>
      <trkpt lat="45.09166" lon="6.16391">
        <ele>1504.3</ele>
        <time>2026-08-25T09:24:13Z</time>
      </trkpt>
      <trkpt lat="45.09169" lon="6.16393">
        <ele>1504.7</ele>
        <time>2026-08-25T09:24:14Z</time>
      </trkpt>
      <trkpt lat="45.09172" lon="6.16396">
        <ele>1505</ele>
        <time>2026-08-25T09:24:15Z</time>
      </trkpt>
      <trkpt lat="45.09175" lon="6.16398">
        <ele>1505.3</ele>
        <time>2026-08-25T09:24:16Z</time>
      </trkpt>
      <trkpt lat="45.09178" lon="6.16401">
        <ele>1505.7</ele>
        <time>2026-08-25T09:24:17Z</time>
      </trkpt>
      <trkpt lat="45.09181" lon="6.16403">
        <ele>1506</ele>
        <time>2026-08-25T09:24:18Z</time>
      </trkpt>
      <trkpt lat="45.09184" lon="6.16406">
        <ele>1506.4</ele>
        <time>2026-08-25T09:24:19Z</time>
      </trkpt>
      <trkpt lat="45.09187" lon="6.16409">
        <ele>1506.8</ele>
        <time>2026-08-25T09:24:20Z</time>
      </trkpt>
      <trkpt lat="45.09191" lon="6.16412">
        <ele>1507.2</ele>
        <time>2026-08-25T09:24:21Z</time>
      </trkpt>
      <trkpt lat="45.09194" lon="6.16414">
        <ele>1507.6</ele>
        <time>2026-08-25T09:24:22Z</time>
      </trkpt>
      <trkpt lat="45.09197" lon="6.16416">
        <ele>1507.9</ele>
        <time>2026-08-25T09:24:23Z</time>
      </trkpt>
      <trkpt lat="45.09199" lon="6.16418">
        <ele>1508.1</ele>
        <time>2026-08-25T09:24:24Z</time>
      </trkpt>
      <trkpt lat="45.09202" lon="6.1642">
        <ele>1508.4</ele>
        <time>2026-08-25T09:24:25Z</time>
      </trkpt>
      <trkpt lat="45.09206" lon="6.16421">
        <ele>1508.8</ele>
        <time>2026-08-25T09:24:26Z</time>
      </trkpt>
      <trkpt lat="45.09209" lon="6.16422">
        <ele>1509.1</ele>
        <time>2026-08-25T09:24:27Z</time>
      </trkpt>
      <trkpt lat="45.09213" lon="6.16422">
        <ele>1509.4</ele>
        <time>2026-08-25T09:24:28Z</time>
      </trkpt>
      <trkpt lat="45.09216" lon="6.1642">
        <ele>1509.7</ele>
        <time>2026-08-25T09:24:29Z</time>
      </trkpt>
      <trkpt lat="45.09219" lon="6.16418">
        <ele>1510</ele>
        <time>2026-08-25T09:24:30Z</time>
      </trkpt>
      <trkpt lat="45.09221" lon="6.16416">
        <ele>1510.2</ele>
        <time>2026-08-25T09:24:31Z</time>
      </trkpt>
      <trkpt lat="45.09223" lon="6.16412">
        <ele>1510.4</ele>
        <time>2026-08-25T09:24:32Z</time>
      </trkpt>
      <trkpt lat="45.09224" lon="6.16409">
        <ele>1510.6</ele>
        <time>2026-08-25T09:24:33Z</time>
      </trkpt>
      <trkpt lat="45.09225" lon="6.16405">
        <ele>1510.8</ele>
        <time>2026-08-25T09:24:34Z</time>
      </trkpt>
      <trkpt lat="45.09226" lon="6.16401">
        <ele>1511</ele>
        <time>2026-08-25T09:24:35Z</time>
      </trkpt>
      <trkpt lat="45.09227" lon="6.16398">
        <ele>1511.2</ele>
        <time>2026-08-25T09:24:36Z</time>
      </trkpt>
      <trkpt lat="45.09228" lon="6.16394">
        <ele>1511.4</ele>
        <time>2026-08-25T09:24:37Z</time>
      </trkpt>
      <trkpt lat="45.09229" lon="6.1639">
        <ele>1511.6</ele>
        <time>2026-08-25T09:24:38Z</time>
      </trkpt>
      <trkpt lat="45.09229" lon="6.16385">
        <ele>1511.8</ele>
        <time>2026-08-25T09:24:39Z</time>
      </trkpt>
      <trkpt lat="45.0923" lon="6.16381">
        <ele>1512</ele>
        <time>2026-08-25T09:24:40Z</time>
      </trkpt>
      <trkpt lat="45.0923" lon="6.16377">
        <ele>1512.2</ele>
        <time>2026-08-25T09:24:41Z</time>
      </trkpt>
      <trkpt lat="45.09231" lon="6.16372">
        <ele>1512.4</ele>
        <time>2026-08-25T09:24:42Z</time>
      </trkpt>
      <trkpt lat="45.09231" lon="6.16368">
        <ele>1512.7</ele>
        <time>2026-08-25T09:24:43Z</time>
      </trkpt>
      <trkpt lat="45.09232" lon="6.16363">
        <ele>1512.9</ele>
        <time>2026-08-25T09:24:44Z</time>
      </trkpt>
      <trkpt lat="45.09232" lon="6.16358">
        <ele>1513.2</ele>
        <time>2026-08-25T09:24:45Z</time>
      </trkpt>
      <trkpt lat="45.09232" lon="6.16355">
        <ele>1513.5</ele>
        <time>2026-08-25T09:24:46Z</time>
      </trkpt>
      <trkpt lat="45.09232" lon="6.16349">
        <ele>1513.8</ele>
        <time>2026-08-25T09:24:47Z</time>
      </trkpt>
      <trkpt lat="45.09232" lon="6.16345">
        <ele>1514.1</ele>
        <time>2026-08-25T09:24:48Z</time>
      </trkpt>
      <trkpt lat="45.09233" lon="6.1634">
        <ele>1514.4</ele>
        <time>2026-08-25T09:24:49Z</time>
      </trkpt>
      <trkpt lat="45.09233" lon="6.16335">
        <ele>1514.7</ele>
        <time>2026-08-25T09:24:50Z</time>
      </trkpt>
      <trkpt lat="45.09233" lon="6.1633">
        <ele>1515</ele>
        <time>2026-08-25T09:24:51Z</time>
      </trkpt>
      <trkpt lat="45.09234" lon="6.16325">
        <ele>1515.3</ele>
        <time>2026-08-25T09:24:52Z</time>
      </trkpt>
      <trkpt lat="45.09234" lon="6.16321">
        <ele>1515.7</ele>
        <time>2026-08-25T09:24:53Z</time>
      </trkpt>
      <trkpt lat="45.09233" lon="6.16316">
        <ele>1516</ele>
        <time>2026-08-25T09:24:54Z</time>
      </trkpt>
      <trkpt lat="45.09231" lon="6.16312">
        <ele>1516.3</ele>
        <time>2026-08-25T09:24:55Z</time>
      </trkpt>
      <trkpt lat="45.09232" lon="6.16308">
        <ele>1516.6</ele>
        <time>2026-08-25T09:24:56Z</time>
      </trkpt>
      <trkpt lat="45.09233" lon="6.16304">
        <ele>1517</ele>
        <time>2026-08-25T09:24:57Z</time>
      </trkpt>
      <trkpt lat="45.09235" lon="6.163">
        <ele>1517.3</ele>
        <time>2026-08-25T09:24:58Z</time>
      </trkpt>
      <trkpt lat="45.09238" lon="6.16297">
        <ele>1517.6</ele>
        <time>2026-08-25T09:24:59Z</time>
      </trkpt>
      <trkpt lat="45.0924" lon="6.16296">
        <ele>1517.8</ele>
        <time>2026-08-25T09:25:00Z</time>
      </trkpt>
      <trkpt lat="45.09243" lon="6.16297">
        <ele>1518.1</ele>
        <time>2026-08-25T09:25:01Z</time>
      </trkpt>
      <trkpt lat="45.09245" lon="6.16298">
        <ele>1518.4</ele>
        <time>2026-08-25T09:25:02Z</time>
      </trkpt>
      <trkpt lat="45.09248" lon="6.163">
        <ele>1518.6</ele>
        <time>2026-08-25T09:25:03Z</time>
      </trkpt>
      <trkpt lat="45.09251" lon="6.16302">
        <ele>1518.9</ele>
        <time>2026-08-25T09:25:04Z</time>
      </trkpt>
      <trkpt lat="45.09253" lon="6.16303">
        <ele>1519.1</ele>
        <time>2026-08-25T09:25:05Z</time>
      </trkpt>
      <trkpt lat="45.09255" lon="6.16305">
        <ele>1519.3</ele>
        <time>2026-08-25T09:25:06Z</time>
      </trkpt>
      <trkpt lat="45.09257" lon="6.16307">
        <ele>1519.5</ele>
        <time>2026-08-25T09:25:07Z</time>
      </trkpt>
      <trkpt lat="45.09259" lon="6.16309">
        <ele>1519.6</ele>
        <time>2026-08-25T09:25:08Z</time>
      </trkpt>
      <trkpt lat="45.09261" lon="6.16312">
        <ele>1519.8</ele>
        <time>2026-08-25T09:25:09Z</time>
      </trkpt>
      <trkpt lat="45.09264" lon="6.16313">
        <ele>1520</ele>
        <time>2026-08-25T09:25:10Z</time>
      </trkpt>
      <trkpt lat="45.09266" lon="6.16315">
        <ele>1520.2</ele>
        <time>2026-08-25T09:25:11Z</time>
      </trkpt>
      <trkpt lat="45.09269" lon="6.16317">
        <ele>1520.4</ele>
        <time>2026-08-25T09:25:12Z</time>
      </trkpt>
      <trkpt lat="45.09272" lon="6.16318">
        <ele>1520.7</ele>
        <time>2026-08-25T09:25:13Z</time>
      </trkpt>
      <trkpt lat="45.09275" lon="6.1632">
        <ele>1520.9</ele>
        <time>2026-08-25T09:25:14Z</time>
      </trkpt>
      <trkpt lat="45.09277" lon="6.16322">
        <ele>1521.1</ele>
        <time>2026-08-25T09:25:15Z</time>
      </trkpt>
      <trkpt lat="45.09279" lon="6.16325">
        <ele>1521.3</ele>
        <time>2026-08-25T09:25:16Z</time>
      </trkpt>
      <trkpt lat="45.09282" lon="6.16328">
        <ele>1521.6</ele>
        <time>2026-08-25T09:25:17Z</time>
      </trkpt>
      <trkpt lat="45.09284" lon="6.1633">
        <ele>1521.8</ele>
        <time>2026-08-25T09:25:18Z</time>
      </trkpt>
      <trkpt lat="45.09287" lon="6.16332">
        <ele>1522</ele>
        <time>2026-08-25T09:25:19Z</time>
      </trkpt>
      <trkpt lat="45.0929" lon="6.16333">
        <ele>1522.2</ele>
        <time>2026-08-25T09:25:20Z</time>
      </trkpt>
      <trkpt lat="45.09293" lon="6.16333">
        <ele>1522.5</ele>
        <time>2026-08-25T09:25:21Z</time>
      </trkpt>
      <trkpt lat="45.09295" lon="6.16334">
        <ele>1522.7</ele>
        <time>2026-08-25T09:25:22Z</time>
      </trkpt>
      <trkpt lat="45.09298" lon="6.16334">
        <ele>1522.9</ele>
        <time>2026-08-25T09:25:23Z</time>
      </trkpt>
      <trkpt lat="45.09301" lon="6.16335">
        <ele>1523.1</ele>
        <time>2026-08-25T09:25:24Z</time>
      </trkpt>
      <trkpt lat="45.09304" lon="6.16335">
        <ele>1523.3</ele>
        <time>2026-08-25T09:25:25Z</time>
      </trkpt>
      <trkpt lat="45.09307" lon="6.16336">
        <ele>1523.6</ele>
        <time>2026-08-25T09:25:26Z</time>
      </trkpt>
      <trkpt lat="45.0931" lon="6.16336">
        <ele>1523.9</ele>
        <time>2026-08-25T09:25:27Z</time>
      </trkpt>
      <trkpt lat="45.09313" lon="6.16337">
        <ele>1524.1</ele>
        <time>2026-08-25T09:25:28Z</time>
      </trkpt>
      <trkpt lat="45.09316" lon="6.16337">
        <ele>1524.3</ele>
        <time>2026-08-25T09:25:29Z</time>
      </trkpt>
      <trkpt lat="45.09319" lon="6.16338">
        <ele>1524.6</ele>
        <time>2026-08-25T09:25:30Z</time>
      </trkpt>
      <trkpt lat="45.09322" lon="6.16338">
        <ele>1524.9</ele>
        <time>2026-08-25T09:25:31Z</time>
      </trkpt>
      <trkpt lat="45.09325" lon="6.16338">
        <ele>1525.1</ele>
        <time>2026-08-25T09:25:32Z</time>
      </trkpt>
      <trkpt lat="45.09328" lon="6.16339">
        <ele>1525.3</ele>
        <time>2026-08-25T09:25:33Z</time>
      </trkpt>
      <trkpt lat="45.09331" lon="6.16339">
        <ele>1525.6</ele>
        <time>2026-08-25T09:25:34Z</time>
      </trkpt>
      <trkpt lat="45.09333" lon="6.1634">
        <ele>1525.8</ele>
        <time>2026-08-25T09:25:35Z</time>
      </trkpt>
      <trkpt lat="45.09336" lon="6.1634">
        <ele>1526.1</ele>
        <time>2026-08-25T09:25:36Z</time>
      </trkpt>
      <trkpt lat="45.09339" lon="6.1634">
        <ele>1526.3</ele>
        <time>2026-08-25T09:25:37Z</time>
      </trkpt>
      <trkpt lat="45.09342" lon="6.16341">
        <ele>1526.6</ele>
        <time>2026-08-25T09:25:38Z</time>
      </trkpt>
      <trkpt lat="45.09345" lon="6.16342">
        <ele>1526.8</ele>
        <time>2026-08-25T09:25:39Z</time>
      </trkpt>
      <trkpt lat="45.09348" lon="6.16343">
        <ele>1527.1</ele>
        <time>2026-08-25T09:25:40Z</time>
      </trkpt>
      <trkpt lat="45.09351" lon="6.16344">
        <ele>1527.4</ele>
        <time>2026-08-25T09:25:41Z</time>
      </trkpt>
      <trkpt lat="45.09354" lon="6.16346">
        <ele>1527.7</ele>
        <time>2026-08-25T09:25:42Z</time>
      </trkpt>
      <trkpt lat="45.09357" lon="6.16347">
        <ele>1528</ele>
        <time>2026-08-25T09:25:43Z</time>
      </trkpt>
      <trkpt lat="45.0936" lon="6.16348">
        <ele>1528.2</ele>
        <time>2026-08-25T09:25:44Z</time>
      </trkpt>
      <trkpt lat="45.09363" lon="6.16349">
        <ele>1528.5</ele>
        <time>2026-08-25T09:25:45Z</time>
      </trkpt>
      <trkpt lat="45.09366" lon="6.16351">
        <ele>1528.8</ele>
        <time>2026-08-25T09:25:46Z</time>
      </trkpt>
      <trkpt lat="45.09369" lon="6.16352">
        <ele>1529.1</ele>
        <time>2026-08-25T09:25:47Z</time>
      </trkpt>
      <trkpt lat="45.09372" lon="6.16353">
        <ele>1529.3</ele>
        <time>2026-08-25T09:25:48Z</time>
      </trkpt>
      <trkpt lat="45.09375" lon="6.16354">
        <ele>1529.6</ele>
        <time>2026-08-25T09:25:49Z</time>
      </trkpt>
      <trkpt lat="45.09378" lon="6.16355">
        <ele>1529.9</ele>
        <time>2026-08-25T09:25:50Z</time>
      </trkpt>
      <trkpt lat="45.09381" lon="6.16354">
        <ele>1530.1</ele>
        <time>2026-08-25T09:25:51Z</time>
      </trkpt>
      <trkpt lat="45.09385" lon="6.16354">
        <ele>1530.4</ele>
        <time>2026-08-25T09:25:52Z</time>
      </trkpt>
      <trkpt lat="45.09389" lon="6.16353">
        <ele>1530.7</ele>
        <time>2026-08-25T09:25:53Z</time>
      </trkpt>
      <trkpt lat="45.09392" lon="6.16353">
        <ele>1531</ele>
        <time>2026-08-25T09:25:54Z</time>
      </trkpt>
      <trkpt lat="45.09396" lon="6.16351">
        <ele>1531.3</ele>
        <time>2026-08-25T09:25:55Z</time>
      </trkpt>
      <trkpt lat="45.09399" lon="6.16349">
        <ele>1531.6</ele>
        <time>2026-08-25T09:25:56Z</time>
      </trkpt>
      <trkpt lat="45.09403" lon="6.16347">
        <ele>1531.9</ele>
        <time>2026-08-25T09:25:57Z</time>
      </trkpt>
      <trkpt lat="45.09406" lon="6.16344">
        <ele>1532.1</ele>
        <time>2026-08-25T09:25:58Z</time>
      </trkpt>
      <trkpt lat="45.09409" lon="6.16341">
        <ele>1532.4</ele>
        <time>2026-08-25T09:25:59Z</time>
      </trkpt>
      <trkpt lat="45.09412" lon="6.16338">
        <ele>1532.7</ele>
        <time>2026-08-25T09:26:00Z</time>
      </trkpt>
      <trkpt lat="45.09415" lon="6.16335">
        <ele>1532.9</ele>
        <time>2026-08-25T09:26:01Z</time>
      </trkpt>
      <trkpt lat="45.09418" lon="6.16332">
        <ele>1533.2</ele>
        <time>2026-08-25T09:26:02Z</time>
      </trkpt>
      <trkpt lat="45.09421" lon="6.1633">
        <ele>1533.5</ele>
        <time>2026-08-25T09:26:03Z</time>
      </trkpt>
      <trkpt lat="45.09424" lon="6.16328">
        <ele>1533.7</ele>
        <time>2026-08-25T09:26:04Z</time>
      </trkpt>
      <trkpt lat="45.09427" lon="6.16325">
        <ele>1534</ele>
        <time>2026-08-25T09:26:05Z</time>
      </trkpt>
      <trkpt lat="45.0943" lon="6.16322">
        <ele>1534.4</ele>
        <time>2026-08-25T09:26:06Z</time>
      </trkpt>
      <trkpt lat="45.09434" lon="6.1632">
        <ele>1534.7</ele>
        <time>2026-08-25T09:26:07Z</time>
      </trkpt>
      <trkpt lat="45.09437" lon="6.16318">
        <ele>1535.1</ele>
        <time>2026-08-25T09:26:08Z</time>
      </trkpt>
      <trkpt lat="45.0944" lon="6.16317">
        <ele>1535.4</ele>
        <time>2026-08-25T09:26:09Z</time>
      </trkpt>
      <trkpt lat="45.09443" lon="6.16316">
        <ele>1535.7</ele>
        <time>2026-08-25T09:26:10Z</time>
      </trkpt>
      <trkpt lat="45.09446" lon="6.16315">
        <ele>1536.1</ele>
        <time>2026-08-25T09:26:11Z</time>
      </trkpt>
      <trkpt lat="45.09448" lon="6.16315">
        <ele>1536.4</ele>
        <time>2026-08-25T09:26:12Z</time>
      </trkpt>
      <trkpt lat="45.09451" lon="6.16315">
        <ele>1536.8</ele>
        <time>2026-08-25T09:26:13Z</time>
      </trkpt>
      <trkpt lat="45.09454" lon="6.16314">
        <ele>1537.1</ele>
        <time>2026-08-25T09:26:14Z</time>
      </trkpt>
      <trkpt lat="45.09457" lon="6.16314">
        <ele>1537.5</ele>
        <time>2026-08-25T09:26:15Z</time>
      </trkpt>
      <trkpt lat="45.0946" lon="6.16314">
        <ele>1537.8</ele>
        <time>2026-08-25T09:26:16Z</time>
      </trkpt>
      <trkpt lat="45.09463" lon="6.16314">
        <ele>1538.2</ele>
        <time>2026-08-25T09:26:17Z</time>
      </trkpt>
      <trkpt lat="45.09466" lon="6.16315">
        <ele>1538.5</ele>
        <time>2026-08-25T09:26:18Z</time>
      </trkpt>
      <trkpt lat="45.09469" lon="6.16315">
        <ele>1538.9</ele>
        <time>2026-08-25T09:26:19Z</time>
      </trkpt>
      <trkpt lat="45.09472" lon="6.16316">
        <ele>1539.3</ele>
        <time>2026-08-25T09:26:20Z</time>
      </trkpt>
      <trkpt lat="45.09475" lon="6.16316">
        <ele>1539.6</ele>
        <time>2026-08-25T09:26:21Z</time>
      </trkpt>
      <trkpt lat="45.09478" lon="6.16317">
        <ele>1540</ele>
        <time>2026-08-25T09:26:22Z</time>
      </trkpt>
      <trkpt lat="45.09481" lon="6.16317">
        <ele>1540.3</ele>
        <time>2026-08-25T09:26:23Z</time>
      </trkpt>
      <trkpt lat="45.09484" lon="6.16317">
        <ele>1540.6</ele>
        <time>2026-08-25T09:26:24Z</time>
      </trkpt>
      <trkpt lat="45.09487" lon="6.16317">
        <ele>1541</ele>
        <time>2026-08-25T09:26:25Z</time>
      </trkpt>
      <trkpt lat="45.09489" lon="6.16317">
        <ele>1541.3</ele>
        <time>2026-08-25T09:26:26Z</time>
      </trkpt>
      <trkpt lat="45.09492" lon="6.16318">
        <ele>1541.6</ele>
        <time>2026-08-25T09:26:27Z</time>
      </trkpt>
      <trkpt lat="45.09496" lon="6.16318">
        <ele>1541.9</ele>
        <time>2026-08-25T09:26:28Z</time>
      </trkpt>
      <trkpt lat="45.09498" lon="6.16319">
        <ele>1542.2</ele>
        <time>2026-08-25T09:26:29Z</time>
      </trkpt>
      <trkpt lat="45.09501" lon="6.1632">
        <ele>1542.5</ele>
        <time>2026-08-25T09:26:30Z</time>
      </trkpt>
      <trkpt lat="45.09504" lon="6.16321">
        <ele>1542.8</ele>
        <time>2026-08-25T09:26:31Z</time>
      </trkpt>
      <trkpt lat="45.09506" lon="6.16321">
        <ele>1543.1</ele>
        <time>2026-08-25T09:26:32Z</time>
      </trkpt>
      <trkpt lat="45.09509" lon="6.16322">
        <ele>1543.4</ele>
        <time>2026-08-25T09:26:33Z</time>
      </trkpt>
      <trkpt lat="45.09512" lon="6.16322">
        <ele>1543.6</ele>
        <time>2026-08-25T09:26:34Z</time>
      </trkpt>
      <trkpt lat="45.09514" lon="6.16323">
        <ele>1543.9</ele>
        <time>2026-08-25T09:26:35Z</time>
      </trkpt>
      <trkpt lat="45.09517" lon="6.16324">
        <ele>1544.2</ele>
        <time>2026-08-25T09:26:36Z</time>
      </trkpt>
      <trkpt lat="45.0952" lon="6.16325">
        <ele>1544.5</ele>
        <time>2026-08-25T09:26:37Z</time>
      </trkpt>
      <trkpt lat="45.09523" lon="6.16325">
        <ele>1544.8</ele>
        <time>2026-08-25T09:26:38Z</time>
      </trkpt>
      <trkpt lat="45.09525" lon="6.16326">
        <ele>1545.1</ele>
        <time>2026-08-25T09:26:39Z</time>
      </trkpt>
      <trkpt lat="45.09528" lon="6.16326">
        <ele>1545.4</ele>
        <time>2026-08-25T09:26:40Z</time>
      </trkpt>
      <trkpt lat="45.0953" lon="6.16325">
        <ele>1545.6</ele>
        <time>2026-08-25T09:26:41Z</time>
      </trkpt>
      <trkpt lat="45.09533" lon="6.16326">
        <ele>1545.9</ele>
        <time>2026-08-25T09:26:42Z</time>
      </trkpt>
      <trkpt lat="45.09536" lon="6.16326">
        <ele>1546.3</ele>
        <time>2026-08-25T09:26:43Z</time>
      </trkpt>
      <trkpt lat="45.09539" lon="6.16327">
        <ele>1546.6</ele>
        <time>2026-08-25T09:26:44Z</time>
      </trkpt>
      <trkpt lat="45.09542" lon="6.16327">
        <ele>1546.9</ele>
        <time>2026-08-25T09:26:45Z</time>
      </trkpt>
      <trkpt lat="45.09545" lon="6.16327">
        <ele>1547.3</ele>
        <time>2026-08-25T09:26:46Z</time>
      </trkpt>
      <trkpt lat="45.09548" lon="6.16327">
        <ele>1547.6</ele>
        <time>2026-08-25T09:26:47Z</time>
      </trkpt>
      <trkpt lat="45.09551" lon="6.16327">
        <ele>1547.9</ele>
        <time>2026-08-25T09:26:48Z</time>
      </trkpt>
      <trkpt lat="45.09554" lon="6.16327">
        <ele>1548.3</ele>
        <time>2026-08-25T09:26:49Z</time>
      </trkpt>
      <trkpt lat="45.09557" lon="6.16328">
        <ele>1548.6</ele>
        <time>2026-08-25T09:26:50Z</time>
      </trkpt>
      <trkpt lat="45.0956" lon="6.16328">
        <ele>1549</ele>
        <time>2026-08-25T09:26:51Z</time>
      </trkpt>
      <trkpt lat="45.09563" lon="6.16328">
        <ele>1549.3</ele>
        <time>2026-08-25T09:26:52Z</time>
      </trkpt>
      <trkpt lat="45.09565" lon="6.16328">
        <ele>1549.6</ele>
        <time>2026-08-25T09:26:53Z</time>
      </trkpt>
      <trkpt lat="45.09568" lon="6.16329">
        <ele>1549.9</ele>
        <time>2026-08-25T09:26:54Z</time>
      </trkpt>
      <trkpt lat="45.0957" lon="6.16329">
        <ele>1550.2</ele>
        <time>2026-08-25T09:26:55Z</time>
      </trkpt>
      <trkpt lat="45.09573" lon="6.1633">
        <ele>1550.5</ele>
        <time>2026-08-25T09:26:56Z</time>
      </trkpt>
      <trkpt lat="45.09575" lon="6.16331">
        <ele>1550.9</ele>
        <time>2026-08-25T09:26:57Z</time>
      </trkpt>
      <trkpt lat="45.09578" lon="6.16332">
        <ele>1551.2</ele>
        <time>2026-08-25T09:26:58Z</time>
      </trkpt>
      <trkpt lat="45.0958" lon="6.16333">
        <ele>1551.5</ele>
        <time>2026-08-25T09:26:59Z</time>
      </trkpt>
      <trkpt lat="45.09583" lon="6.16334">
        <ele>1551.8</ele>
        <time>2026-08-25T09:27:00Z</time>
      </trkpt>
      <trkpt lat="45.09585" lon="6.16335">
        <ele>1552</ele>
        <time>2026-08-25T09:27:01Z</time>
      </trkpt>
      <trkpt lat="45.09588" lon="6.16337">
        <ele>1552.3</ele>
        <time>2026-08-25T09:27:02Z</time>
      </trkpt>
      <trkpt lat="45.09591" lon="6.16339">
        <ele>1552.7</ele>
        <time>2026-08-25T09:27:03Z</time>
      </trkpt>
      <trkpt lat="45.09594" lon="6.16341">
        <ele>1553</ele>
        <time>2026-08-25T09:27:04Z</time>
      </trkpt>
      <trkpt lat="45.09597" lon="6.16343">
        <ele>1553.4</ele>
        <time>2026-08-25T09:27:05Z</time>
      </trkpt>
      <trkpt lat="45.096" lon="6.16344">
        <ele>1553.7</ele>
        <time>2026-08-25T09:27:06Z</time>
      </trkpt>
      <trkpt lat="45.09602" lon="6.16346">
        <ele>1554.1</ele>
        <time>2026-08-25T09:27:07Z</time>
      </trkpt>
      <trkpt lat="45.09605" lon="6.16348">
        <ele>1554.4</ele>
        <time>2026-08-25T09:27:08Z</time>
      </trkpt>
      <trkpt lat="45.09608" lon="6.16349">
        <ele>1554.7</ele>
        <time>2026-08-25T09:27:09Z</time>
      </trkpt>
      <trkpt lat="45.0961" lon="6.16351">
        <ele>1554.9</ele>
        <time>2026-08-25T09:27:10Z</time>
      </trkpt>
      <trkpt lat="45.09613" lon="6.16353">
        <ele>1555</ele>
        <time>2026-08-25T09:27:11Z</time>
      </trkpt>
      <trkpt lat="45.09615" lon="6.16355">
        <ele>1554.9</ele>
        <time>2026-08-25T09:27:12Z</time>
      </trkpt>
      <trkpt lat="45.09618" lon="6.16356">
        <ele>1554.9</ele>
        <time>2026-08-25T09:27:13Z</time>
      </trkpt>
      <trkpt lat="45.0962" lon="6.16358">
        <ele>1555.2</ele>
        <time>2026-08-25T09:27:14Z</time>
      </trkpt>
      <trkpt lat="45.09623" lon="6.16359">
        <ele>1555.4</ele>
        <time>2026-08-25T09:27:15Z</time>
      </trkpt>
      <trkpt lat="45.09626" lon="6.1636">
        <ele>1555.7</ele>
        <time>2026-08-25T09:27:16Z</time>
      </trkpt>
      <trkpt lat="45.09628" lon="6.16362">
        <ele>1555.9</ele>
        <time>2026-08-25T09:27:17Z</time>
      </trkpt>
      <trkpt lat="45.09631" lon="6.16365">
        <ele>1556.2</ele>
        <time>2026-08-25T09:27:18Z</time>
      </trkpt>
      <trkpt lat="45.09633" lon="6.16368">
        <ele>1556.5</ele>
        <time>2026-08-25T09:27:19Z</time>
      </trkpt>
      <trkpt lat="45.09635" lon="6.16371">
        <ele>1556.8</ele>
        <time>2026-08-25T09:27:20Z</time>
      </trkpt>
      <trkpt lat="45.09637" lon="6.16375">
        <ele>1557.1</ele>
        <time>2026-08-25T09:27:21Z</time>
      </trkpt>
      <trkpt lat="45.09639" lon="6.16378">
        <ele>1557.4</ele>
        <time>2026-08-25T09:27:22Z</time>
      </trkpt>
      <trkpt lat="45.09641" lon="6.16381">
        <ele>1557.6</ele>
        <time>2026-08-25T09:27:23Z</time>
      </trkpt>
      <trkpt lat="45.09643" lon="6.16384">
        <ele>1557.9</ele>
        <time>2026-08-25T09:27:24Z</time>
      </trkpt>
      <trkpt lat="45.09645" lon="6.16387">
        <ele>1558.1</ele>
        <time>2026-08-25T09:27:25Z</time>
      </trkpt>
      <trkpt lat="45.09647" lon="6.1639">
        <ele>1558.4</ele>
        <time>2026-08-25T09:27:26Z</time>
      </trkpt>
      <trkpt lat="45.09648" lon="6.16393">
        <ele>1558.7</ele>
        <time>2026-08-25T09:27:27Z</time>
      </trkpt>
      <trkpt lat="45.0965" lon="6.16397">
        <ele>1558.9</ele>
        <time>2026-08-25T09:27:28Z</time>
      </trkpt>
      <trkpt lat="45.09652" lon="6.164">
        <ele>1559.2</ele>
        <time>2026-08-25T09:27:29Z</time>
      </trkpt>
      <trkpt lat="45.09654" lon="6.16402">
        <ele>1559.5</ele>
        <time>2026-08-25T09:27:30Z</time>
      </trkpt>
      <trkpt lat="45.09657" lon="6.16405">
        <ele>1559.8</ele>
        <time>2026-08-25T09:27:31Z</time>
      </trkpt>
      <trkpt lat="45.0966" lon="6.16406">
        <ele>1560</ele>
        <time>2026-08-25T09:27:32Z</time>
      </trkpt>
      <trkpt lat="45.09662" lon="6.16407">
        <ele>1560.2</ele>
        <time>2026-08-25T09:27:33Z</time>
      </trkpt>
      <trkpt lat="45.09666" lon="6.16408">
        <ele>1560.5</ele>
        <time>2026-08-25T09:27:34Z</time>
      </trkpt>
      <trkpt lat="45.09669" lon="6.16408">
        <ele>1560.7</ele>
        <time>2026-08-25T09:27:35Z</time>
      </trkpt>
      <trkpt lat="45.09672" lon="6.16407">
        <ele>1560.9</ele>
        <time>2026-08-25T09:27:36Z</time>
      </trkpt>
      <trkpt lat="45.09674" lon="6.16406">
        <ele>1561.1</ele>
        <time>2026-08-25T09:27:37Z</time>
      </trkpt>
      <trkpt lat="45.09677" lon="6.16404">
        <ele>1561.3</ele>
        <time>2026-08-25T09:27:38Z</time>
      </trkpt>
      <trkpt lat="45.09679" lon="6.16402">
        <ele>1561.5</ele>
        <time>2026-08-25T09:27:39Z</time>
      </trkpt>
      <trkpt lat="45.09682" lon="6.16401">
        <ele>1561.7</ele>
        <time>2026-08-25T09:27:40Z</time>
      </trkpt>
      <trkpt lat="45.09685" lon="6.16399">
        <ele>1561.9</ele>
        <time>2026-08-25T09:27:41Z</time>
      </trkpt>
      <trkpt lat="45.09687" lon="6.16398">
        <ele>1562.1</ele>
        <time>2026-08-25T09:27:42Z</time>
      </trkpt>
      <trkpt lat="45.0969" lon="6.16396">
        <ele>1562.2</ele>
        <time>2026-08-25T09:27:43Z</time>
      </trkpt>
      <trkpt lat="45.09693" lon="6.16394">
        <ele>1562.4</ele>
        <time>2026-08-25T09:27:44Z</time>
      </trkpt>
      <trkpt lat="45.09695" lon="6.16393">
        <ele>1562.6</ele>
        <time>2026-08-25T09:27:45Z</time>
      </trkpt>
      <trkpt lat="45.09698" lon="6.16391">
        <ele>1562.8</ele>
        <time>2026-08-25T09:27:46Z</time>
      </trkpt>
      <trkpt lat="45.09701" lon="6.16389">
        <ele>1563</ele>
        <time>2026-08-25T09:27:47Z</time>
      </trkpt>
      <trkpt lat="45.09704" lon="6.16387">
        <ele>1563.2</ele>
        <time>2026-08-25T09:27:48Z</time>
      </trkpt>
      <trkpt lat="45.09706" lon="6.16385">
        <ele>1563.5</ele>
        <time>2026-08-25T09:27:49Z</time>
      </trkpt>
      <trkpt lat="45.09709" lon="6.16384">
        <ele>1563.7</ele>
        <time>2026-08-25T09:27:50Z</time>
      </trkpt>
      <trkpt lat="45.09712" lon="6.16382">
        <ele>1564</ele>
        <time>2026-08-25T09:27:51Z</time>
      </trkpt>
      <trkpt lat="45.09715" lon="6.16381">
        <ele>1564.2</ele>
        <time>2026-08-25T09:27:52Z</time>
      </trkpt>
      <trkpt lat="45.09718" lon="6.16381">
        <ele>1564.5</ele>
        <time>2026-08-25T09:27:53Z</time>
      </trkpt>
      <trkpt lat="45.09721" lon="6.16381">
        <ele>1564.7</ele>
        <time>2026-08-25T09:27:54Z</time>
      </trkpt>
      <trkpt lat="45.09723" lon="6.16382">
        <ele>1564.9</ele>
        <time>2026-08-25T09:27:55Z</time>
      </trkpt>
      <trkpt lat="45.09726" lon="6.16383">
        <ele>1565.2</ele>
        <time>2026-08-25T09:27:56Z</time>
      </trkpt>
      <trkpt lat="45.09728" lon="6.16385">
        <ele>1565.5</ele>
        <time>2026-08-25T09:27:57Z</time>
      </trkpt>
      <trkpt lat="45.09731" lon="6.16388">
        <ele>1565.8</ele>
        <time>2026-08-25T09:27:58Z</time>
      </trkpt>
      <trkpt lat="45.09733" lon="6.1639">
        <ele>1566.1</ele>
        <time>2026-08-25T09:27:59Z</time>
      </trkpt>
      <trkpt lat="45.09735" lon="6.16392">
        <ele>1566.3</ele>
        <time>2026-08-25T09:28:00Z</time>
      </trkpt>
      <trkpt lat="45.09737" lon="6.16396">
        <ele>1566.6</ele>
        <time>2026-08-25T09:28:01Z</time>
      </trkpt>
      <trkpt lat="45.09739" lon="6.16399">
        <ele>1566.9</ele>
        <time>2026-08-25T09:28:02Z</time>
      </trkpt>
      <trkpt lat="45.09741" lon="6.16402">
        <ele>1567.2</ele>
        <time>2026-08-25T09:28:03Z</time>
      </trkpt>
      <trkpt lat="45.09743" lon="6.16406">
        <ele>1567.5</ele>
        <time>2026-08-25T09:28:04Z</time>
      </trkpt>
      <trkpt lat="45.09745" lon="6.16409">
        <ele>1567.8</ele>
        <time>2026-08-25T09:28:05Z</time>
      </trkpt>
      <trkpt lat="45.09746" lon="6.16412">
        <ele>1568.1</ele>
        <time>2026-08-25T09:28:06Z</time>
      </trkpt>
      <trkpt lat="45.09748" lon="6.16416">
        <ele>1568.4</ele>
        <time>2026-08-25T09:28:07Z</time>
      </trkpt>
      <trkpt lat="45.09749" lon="6.1642">
        <ele>1568.7</ele>
        <time>2026-08-25T09:28:08Z</time>
      </trkpt>
      <trkpt lat="45.09751" lon="6.16424">
        <ele>1569.1</ele>
        <time>2026-08-25T09:28:09Z</time>
      </trkpt>
      <trkpt lat="45.09752" lon="6.16428">
        <ele>1569.4</ele>
        <time>2026-08-25T09:28:10Z</time>
      </trkpt>
      <trkpt lat="45.09754" lon="6.16431">
        <ele>1569.7</ele>
        <time>2026-08-25T09:28:11Z</time>
      </trkpt>
      <trkpt lat="45.09757" lon="6.16433">
        <ele>1570.1</ele>
        <time>2026-08-25T09:28:12Z</time>
      </trkpt>
      <trkpt lat="45.09761" lon="6.16433">
        <ele>1570.5</ele>
        <time>2026-08-25T09:28:13Z</time>
      </trkpt>
      <trkpt lat="45.09764" lon="6.16431">
        <ele>1570.9</ele>
        <time>2026-08-25T09:28:14Z</time>
      </trkpt>
      <trkpt lat="45.09766" lon="6.16428">
        <ele>1571.1</ele>
        <time>2026-08-25T09:28:15Z</time>
      </trkpt>
      <trkpt lat="45.09766" lon="6.16423">
        <ele>1571.3</ele>
        <time>2026-08-25T09:28:16Z</time>
      </trkpt>
      <trkpt lat="45.09764" lon="6.16419">
        <ele>1571.5</ele>
        <time>2026-08-25T09:28:17Z</time>
      </trkpt>
      <trkpt lat="45.09763" lon="6.16415">
        <ele>1571.7</ele>
        <time>2026-08-25T09:28:18Z</time>
      </trkpt>
      <trkpt lat="45.09761" lon="6.16411">
        <ele>1571.8</ele>
        <time>2026-08-25T09:28:19Z</time>
      </trkpt>
      <trkpt lat="45.0976" lon="6.16407">
        <ele>1572</ele>
        <time>2026-08-25T09:28:20Z</time>
      </trkpt>
      <trkpt lat="45.09758" lon="6.16404">
        <ele>1572.2</ele>
        <time>2026-08-25T09:28:21Z</time>
      </trkpt>
      <trkpt lat="45.09757" lon="6.16399">
        <ele>1572.3</ele>
        <time>2026-08-25T09:28:22Z</time>
      </trkpt>
      <trkpt lat="45.09755" lon="6.16396">
        <ele>1572.4</ele>
        <time>2026-08-25T09:28:23Z</time>
      </trkpt>
      <trkpt lat="45.09754" lon="6.16393">
        <ele>1572.6</ele>
        <time>2026-08-25T09:28:24Z</time>
      </trkpt>
      <trkpt lat="45.09753" lon="6.16389">
        <ele>1572.7</ele>
        <time>2026-08-25T09:28:25Z</time>
      </trkpt>
      <trkpt lat="45.09752" lon="6.16385">
        <ele>1572.9</ele>
        <time>2026-08-25T09:28:26Z</time>
      </trkpt>
      <trkpt lat="45.09751" lon="6.1638">
        <ele>1573</ele>
        <time>2026-08-25T09:28:27Z</time>
      </trkpt>
      <trkpt lat="45.0975" lon="6.16376">
        <ele>1573.2</ele>
        <time>2026-08-25T09:28:28Z</time>
      </trkpt>
      <trkpt lat="45.09748" lon="6.16371">
        <ele>1573.3</ele>
        <time>2026-08-25T09:28:29Z</time>
      </trkpt>
      <trkpt lat="45.09747" lon="6.16367">
        <ele>1573.5</ele>
        <time>2026-08-25T09:28:30Z</time>
      </trkpt>
      <trkpt lat="45.09746" lon="6.16362">
        <ele>1573.7</ele>
        <time>2026-08-25T09:28:31Z</time>
      </trkpt>
      <trkpt lat="45.09744" lon="6.16358">
        <ele>1573.9</ele>
        <time>2026-08-25T09:28:32Z</time>
      </trkpt>
      <trkpt lat="45.09743" lon="6.16353">
        <ele>1574.1</ele>
        <time>2026-08-25T09:28:33Z</time>
      </trkpt>
      <trkpt lat="45.09741" lon="6.16349">
        <ele>1574.3</ele>
        <time>2026-08-25T09:28:34Z</time>
      </trkpt>
      <trkpt lat="45.09739" lon="6.16345">
        <ele>1574.5</ele>
        <time>2026-08-25T09:28:35Z</time>
      </trkpt>
      <trkpt lat="45.09737" lon="6.16341">
        <ele>1574.7</ele>
        <time>2026-08-25T09:28:36Z</time>
      </trkpt>
      <trkpt lat="45.09736" lon="6.16337">
        <ele>1574.9</ele>
        <time>2026-08-25T09:28:37Z</time>
      </trkpt>
      <trkpt lat="45.09734" lon="6.16332">
        <ele>1575.2</ele>
        <time>2026-08-25T09:28:38Z</time>
      </trkpt>
      <trkpt lat="45.09732" lon="6.16327">
        <ele>1575.4</ele>
        <time>2026-08-25T09:28:39Z</time>
      </trkpt>
      <trkpt lat="45.09731" lon="6.16322">
        <ele>1575.6</ele>
        <time>2026-08-25T09:28:40Z</time>
      </trkpt>
      <trkpt lat="45.09729" lon="6.16317">
        <ele>1575.9</ele>
        <time>2026-08-25T09:28:41Z</time>
      </trkpt>
      <trkpt lat="45.09727" lon="6.16313">
        <ele>1576.1</ele>
        <time>2026-08-25T09:28:42Z</time>
      </trkpt>
      <trkpt lat="45.09725" lon="6.16309">
        <ele>1576.3</ele>
        <time>2026-08-25T09:28:43Z</time>
      </trkpt>
      <trkpt lat="45.09723" lon="6.16305">
        <ele>1576.6</ele>
        <time>2026-08-25T09:28:44Z</time>
      </trkpt>
      <trkpt lat="45.09721" lon="6.16301">
        <ele>1576.8</ele>
        <time>2026-08-25T09:28:45Z</time>
      </trkpt>
      <trkpt lat="45.09719" lon="6.16296">
        <ele>1577.1</ele>
        <time>2026-08-25T09:28:46Z</time>
      </trkpt>
      <trkpt lat="45.09717" lon="6.16292">
        <ele>1577.4</ele>
        <time>2026-08-25T09:28:47Z</time>
      </trkpt>
      <trkpt lat="45.09715" lon="6.16288">
        <ele>1577.7</ele>
        <time>2026-08-25T09:28:48Z</time>
      </trkpt>
      <trkpt lat="45.09713" lon="6.16284">
        <ele>1578</ele>
        <time>2026-08-25T09:28:49Z</time>
      </trkpt>
      <trkpt lat="45.0971" lon="6.16281">
        <ele>1578.3</ele>
        <time>2026-08-25T09:28:50Z</time>
      </trkpt>
      <trkpt lat="45.09708" lon="6.16277">
        <ele>1578.6</ele>
        <time>2026-08-25T09:28:51Z</time>
      </trkpt>
      <trkpt lat="45.09705" lon="6.16274">
        <ele>1578.9</ele>
        <time>2026-08-25T09:28:52Z</time>
      </trkpt>
      <trkpt lat="45.09703" lon="6.16271">
        <ele>1579.3</ele>
        <time>2026-08-25T09:28:53Z</time>
      </trkpt>
      <trkpt lat="45.097" lon="6.16268">
        <ele>1579.6</ele>
        <time>2026-08-25T09:28:54Z</time>
      </trkpt>
      <trkpt lat="45.09698" lon="6.16264">
        <ele>1580</ele>
        <time>2026-08-25T09:28:55Z</time>
      </trkpt>
      <trkpt lat="45.09696" lon="6.1626">
        <ele>1580.4</ele>
        <time>2026-08-25T09:28:56Z</time>
      </trkpt>
      <trkpt lat="45.09695" lon="6.16254">
        <ele>1580.9</ele>
        <time>2026-08-25T09:28:57Z</time>
      </trkpt>
      <trkpt lat="45.09696" lon="6.16249">
        <ele>1581.3</ele>
        <time>2026-08-25T09:28:58Z</time>
      </trkpt>
      <trkpt lat="45.09699" lon="6.16248">
        <ele>1581.6</ele>
        <time>2026-08-25T09:28:59Z</time>
      </trkpt>
      <trkpt lat="45.09701" lon="6.1625">
        <ele>1581.9</ele>
        <time>2026-08-25T09:29:00Z</time>
      </trkpt>
      <trkpt lat="45.09704" lon="6.16251">
        <ele>1582.2</ele>
        <time>2026-08-25T09:29:01Z</time>
      </trkpt>
      <trkpt lat="45.09706" lon="6.16254">
        <ele>1582.5</ele>
        <time>2026-08-25T09:29:02Z</time>
      </trkpt>
      <trkpt lat="45.09709" lon="6.16256">
        <ele>1582.7</ele>
        <time>2026-08-25T09:29:03Z</time>
      </trkpt>
      <trkpt lat="45.09711" lon="6.16258">
        <ele>1583</ele>
        <time>2026-08-25T09:29:04Z</time>
      </trkpt>
      <trkpt lat="45.09713" lon="6.16261">
        <ele>1583.2</ele>
        <time>2026-08-25T09:29:05Z</time>
      </trkpt>
      <trkpt lat="45.09716" lon="6.16264">
        <ele>1583.4</ele>
        <time>2026-08-25T09:29:06Z</time>
      </trkpt>
      <trkpt lat="45.09718" lon="6.16268">
        <ele>1583.7</ele>
        <time>2026-08-25T09:29:07Z</time>
      </trkpt>
      <trkpt lat="45.0972" lon="6.16272">
        <ele>1583.9</ele>
        <time>2026-08-25T09:29:08Z</time>
      </trkpt>
      <trkpt lat="45.09722" lon="6.16275">
        <ele>1584.1</ele>
        <time>2026-08-25T09:29:09Z</time>
      </trkpt>
      <trkpt lat="45.09724" lon="6.16278">
        <ele>1584.3</ele>
        <time>2026-08-25T09:29:10Z</time>
      </trkpt>
      <trkpt lat="45.09726" lon="6.1628">
        <ele>1584.5</ele>
        <time>2026-08-25T09:29:11Z</time>
      </trkpt>
      <trkpt lat="45.09728" lon="6.16283">
        <ele>1584.6</ele>
        <time>2026-08-25T09:29:12Z</time>
      </trkpt>
      <trkpt lat="45.0973" lon="6.16286">
        <ele>1584.8</ele>
        <time>2026-08-25T09:29:13Z</time>
      </trkpt>
      <trkpt lat="45.09732" lon="6.1629">
        <ele>1585</ele>
        <time>2026-08-25T09:29:14Z</time>
      </trkpt>
      <trkpt lat="45.09735" lon="6.16293">
        <ele>1585.2</ele>
        <time>2026-08-25T09:29:15Z</time>
      </trkpt>
      <trkpt lat="45.09737" lon="6.16295">
        <ele>1585.4</ele>
        <time>2026-08-25T09:29:16Z</time>
      </trkpt>
      <trkpt lat="45.09739" lon="6.16298">
        <ele>1585.6</ele>
        <time>2026-08-25T09:29:17Z</time>
      </trkpt>
      <trkpt lat="45.09741" lon="6.16301">
        <ele>1585.8</ele>
        <time>2026-08-25T09:29:18Z</time>
      </trkpt>
      <trkpt lat="45.09743" lon="6.16304">
        <ele>1586</ele>
        <time>2026-08-25T09:29:19Z</time>
      </trkpt>
      <trkpt lat="45.09745" lon="6.16306">
        <ele>1586.2</ele>
        <time>2026-08-25T09:29:20Z</time>
      </trkpt>
      <trkpt lat="45.09747" lon="6.16309">
        <ele>1586.4</ele>
        <time>2026-08-25T09:29:21Z</time>
      </trkpt>
      <trkpt lat="45.09749" lon="6.16311">
        <ele>1586.6</ele>
        <time>2026-08-25T09:29:22Z</time>
      </trkpt>
      <trkpt lat="45.0975" lon="6.16314">
        <ele>1586.8</ele>
        <time>2026-08-25T09:29:23Z</time>
      </trkpt>
      <trkpt lat="45.09752" lon="6.16316">
        <ele>1587</ele>
        <time>2026-08-25T09:29:24Z</time>
      </trkpt>
      <trkpt lat="45.09754" lon="6.16318">
        <ele>1587.2</ele>
        <time>2026-08-25T09:29:25Z</time>
      </trkpt>
      <trkpt lat="45.09756" lon="6.16321">
        <ele>1587.4</ele>
        <time>2026-08-25T09:29:26Z</time>
      </trkpt>
      <trkpt lat="45.09758" lon="6.16323">
        <ele>1587.6</ele>
        <time>2026-08-25T09:29:27Z</time>
      </trkpt>
      <trkpt lat="45.0976" lon="6.16326">
        <ele>1587.9</ele>
        <time>2026-08-25T09:29:28Z</time>
      </trkpt>
      <trkpt lat="45.09762" lon="6.16329">
        <ele>1588.1</ele>
        <time>2026-08-25T09:29:29Z</time>
      </trkpt>
      <trkpt lat="45.09764" lon="6.16331">
        <ele>1588.3</ele>
        <time>2026-08-25T09:29:30Z</time>
      </trkpt>
      <trkpt lat="45.09767" lon="6.16334">
        <ele>1588.6</ele>
        <time>2026-08-25T09:29:31Z</time>
      </trkpt>
      <trkpt lat="45.0977" lon="6.16336">
        <ele>1588.8</ele>
        <time>2026-08-25T09:29:32Z</time>
      </trkpt>
      <trkpt lat="45.09772" lon="6.16338">
        <ele>1589.1</ele>
        <time>2026-08-25T09:29:33Z</time>
      </trkpt>
      <trkpt lat="45.09774" lon="6.1634">
        <ele>1589.3</ele>
        <time>2026-08-25T09:29:34Z</time>
      </trkpt>
      <trkpt lat="45.09776" lon="6.16342">
        <ele>1589.5</ele>
        <time>2026-08-25T09:29:35Z</time>
      </trkpt>
      <trkpt lat="45.09779" lon="6.16345">
        <ele>1589.7</ele>
        <time>2026-08-25T09:29:36Z</time>
      </trkpt>
      <trkpt lat="45.09781" lon="6.16347">
        <ele>1589.9</ele>
        <time>2026-08-25T09:29:37Z</time>
      </trkpt>
      <trkpt lat="45.09783" lon="6.16349">
        <ele>1590.1</ele>
        <time>2026-08-25T09:29:38Z</time>
      </trkpt>
      <trkpt lat="45.09786" lon="6.16351">
        <ele>1590.3</ele>
        <time>2026-08-25T09:29:39Z</time>
      </trkpt>
      <trkpt lat="45.09788" lon="6.16353">
        <ele>1590.5</ele>
        <time>2026-08-25T09:29:40Z</time>
      </trkpt>
      <trkpt lat="45.09791" lon="6.16355">
        <ele>1590.7</ele>
        <time>2026-08-25T09:29:41Z</time>
      </trkpt>
      <trkpt lat="45.09793" lon="6.16357">
        <ele>1590.9</ele>
        <time>2026-08-25T09:29:42Z</time>
      </trkpt>
      <trkpt lat="45.09796" lon="6.16359">
        <ele>1591.1</ele>
        <time>2026-08-25T09:29:43Z</time>
      </trkpt>
      <trkpt lat="45.09798" lon="6.16362">
        <ele>1591.4</ele>
        <time>2026-08-25T09:29:44Z</time>
      </trkpt>
      <trkpt lat="45.09801" lon="6.16364">
        <ele>1591.6</ele>
        <time>2026-08-25T09:29:45Z</time>
      </trkpt>
      <trkpt lat="45.09803" lon="6.16367">
        <ele>1591.8</ele>
        <time>2026-08-25T09:29:46Z</time>
      </trkpt>
      <trkpt lat="45.09805" lon="6.1637">
        <ele>1592.1</ele>
        <time>2026-08-25T09:29:47Z</time>
      </trkpt>
      <trkpt lat="45.09808" lon="6.16373">
        <ele>1592.3</ele>
        <time>2026-08-25T09:29:48Z</time>
      </trkpt>
      <trkpt lat="45.0981" lon="6.16376">
        <ele>1592.6</ele>
        <time>2026-08-25T09:29:49Z</time>
      </trkpt>
      <trkpt lat="45.09812" lon="6.16378">
        <ele>1592.8</ele>
        <time>2026-08-25T09:29:50Z</time>
      </trkpt>
      <trkpt lat="45.09814" lon="6.16382">
        <ele>1593.1</ele>
        <time>2026-08-25T09:29:51Z</time>
      </trkpt>
      <trkpt lat="45.09816" lon="6.16384">
        <ele>1593.3</ele>
        <time>2026-08-25T09:29:52Z</time>
      </trkpt>
      <trkpt lat="45.09818" lon="6.16388">
        <ele>1593.6</ele>
        <time>2026-08-25T09:29:53Z</time>
      </trkpt>
      <trkpt lat="45.09821" lon="6.1639">
        <ele>1593.9</ele>
        <time>2026-08-25T09:29:54Z</time>
      </trkpt>
      <trkpt lat="45.09823" lon="6.16392">
        <ele>1594.1</ele>
        <time>2026-08-25T09:29:55Z</time>
      </trkpt>
      <trkpt lat="45.09825" lon="6.16395">
        <ele>1594.4</ele>
        <time>2026-08-25T09:29:56Z</time>
      </trkpt>
      <trkpt lat="45.09828" lon="6.16398">
        <ele>1594.7</ele>
        <time>2026-08-25T09:29:57Z</time>
      </trkpt>
      <trkpt lat="45.09831" lon="6.16401">
        <ele>1594.9</ele>
        <time>2026-08-25T09:29:58Z</time>
      </trkpt>
      <trkpt lat="45.09833" lon="6.16404">
        <ele>1595.2</ele>
        <time>2026-08-25T09:29:59Z</time>
      </trkpt>
      <trkpt lat="45.09835" lon="6.16407">
        <ele>1595.5</ele>
        <time>2026-08-25T09:30:00Z</time>
      </trkpt>
      <trkpt lat="45.09838" lon="6.16409">
        <ele>1595.8</ele>
        <time>2026-08-25T09:30:01Z</time>
      </trkpt>
      <trkpt lat="45.09841" lon="6.16412">
        <ele>1596</ele>
        <time>2026-08-25T09:30:02Z</time>
      </trkpt>
      <trkpt lat="45.09843" lon="6.16414">
        <ele>1596.3</ele>
        <time>2026-08-25T09:30:03Z</time>
      </trkpt>
      <trkpt lat="45.09846" lon="6.16417">
        <ele>1596.6</ele>
        <time>2026-08-25T09:30:04Z</time>
      </trkpt>
      <trkpt lat="45.09848" lon="6.16418">
        <ele>1596.8</ele>
        <time>2026-08-25T09:30:05Z</time>
      </trkpt>
      <trkpt lat="45.0985" lon="6.1642">
        <ele>1597</ele>
        <time>2026-08-25T09:30:06Z</time>
      </trkpt>
      <trkpt lat="45.09852" lon="6.16421">
        <ele>1597.3</ele>
        <time>2026-08-25T09:30:07Z</time>
      </trkpt>
      <trkpt lat="45.09855" lon="6.16424">
        <ele>1597.5</ele>
        <time>2026-08-25T09:30:08Z</time>
      </trkpt>
      <trkpt lat="45.09858" lon="6.16426">
        <ele>1597.8</ele>
        <time>2026-08-25T09:30:09Z</time>
      </trkpt>
      <trkpt lat="45.0986" lon="6.16428">
        <ele>1598.1</ele>
        <time>2026-08-25T09:30:10Z</time>
      </trkpt>
      <trkpt lat="45.09863" lon="6.16431">
        <ele>1598.4</ele>
        <time>2026-08-25T09:30:11Z</time>
      </trkpt>
      <trkpt lat="45.09865" lon="6.16433">
        <ele>1598.6</ele>
        <time>2026-08-25T09:30:12Z</time>
      </trkpt>
      <trkpt lat="45.09867" lon="6.16435">
        <ele>1598.9</ele>
        <time>2026-08-25T09:30:13Z</time>
      </trkpt>
      <trkpt lat="45.09869" lon="6.16436">
        <ele>1599.1</ele>
        <time>2026-08-25T09:30:14Z</time>
      </trkpt>
      <trkpt lat="45.09872" lon="6.16437">
        <ele>1599.3</ele>
        <time>2026-08-25T09:30:15Z</time>
      </trkpt>
      <trkpt lat="45.09874" lon="6.16439">
        <ele>1599.5</ele>
        <time>2026-08-25T09:30:16Z</time>
      </trkpt>
      <trkpt lat="45.09876" lon="6.16442">
        <ele>1599.8</ele>
        <time>2026-08-25T09:30:17Z</time>
      </trkpt>
      <trkpt lat="45.09878" lon="6.16444">
        <ele>1600</ele>
        <time>2026-08-25T09:30:18Z</time>
      </trkpt>
      <trkpt lat="45.0988" lon="6.16445">
        <ele>1600.3</ele>
        <time>2026-08-25T09:30:19Z</time>
      </trkpt>
      <trkpt lat="45.09882" lon="6.16446">
        <ele>1600.5</ele>
        <time>2026-08-25T09:30:20Z</time>
      </trkpt>
      <trkpt lat="45.09884" lon="6.16448">
        <ele>1600.7</ele>
        <time>2026-08-25T09:30:21Z</time>
      </trkpt>
      <trkpt lat="45.09886" lon="6.16449">
        <ele>1600.9</ele>
        <time>2026-08-25T09:30:22Z</time>
      </trkpt>
      <trkpt lat="45.09889" lon="6.16451">
        <ele>1601.1</ele>
        <time>2026-08-25T09:30:23Z</time>
      </trkpt>
      <trkpt lat="45.09891" lon="6.16453">
        <ele>1601.4</ele>
        <time>2026-08-25T09:30:24Z</time>
      </trkpt>
      <trkpt lat="45.09894" lon="6.16455">
        <ele>1601.6</ele>
        <time>2026-08-25T09:30:25Z</time>
      </trkpt>
      <trkpt lat="45.09896" lon="6.16457">
        <ele>1601.9</ele>
        <time>2026-08-25T09:30:26Z</time>
      </trkpt>
      <trkpt lat="45.09899" lon="6.16459">
        <ele>1602.2</ele>
        <time>2026-08-25T09:30:27Z</time>
      </trkpt>
      <trkpt lat="45.09901" lon="6.16461">
        <ele>1602.4</ele>
        <time>2026-08-25T09:30:28Z</time>
      </trkpt>
      <trkpt lat="45.09904" lon="6.16463">
        <ele>1602.7</ele>
        <time>2026-08-25T09:30:29Z</time>
      </trkpt>
      <trkpt lat="45.09906" lon="6.16465">
        <ele>1603</ele>
        <time>2026-08-25T09:30:30Z</time>
      </trkpt>
      <trkpt lat="45.09909" lon="6.16466">
        <ele>1603.2</ele>
        <time>2026-08-25T09:30:31Z</time>
      </trkpt>
      <trkpt lat="45.09911" lon="6.16467">
        <ele>1603.5</ele>
        <time>2026-08-25T09:30:32Z</time>
      </trkpt>
      <trkpt lat="45.09913" lon="6.16469">
        <ele>1603.7</ele>
        <time>2026-08-25T09:30:33Z</time>
      </trkpt>
      <trkpt lat="45.09916" lon="6.1647">
        <ele>1604</ele>
        <time>2026-08-25T09:30:34Z</time>
      </trkpt>
      <trkpt lat="45.09918" lon="6.16471">
        <ele>1604.2</ele>
        <time>2026-08-25T09:30:35Z</time>
      </trkpt>
      <trkpt lat="45.09921" lon="6.16473">
        <ele>1604.5</ele>
        <time>2026-08-25T09:30:36Z</time>
      </trkpt>
      <trkpt lat="45.09923" lon="6.16474">
        <ele>1604.7</ele>
        <time>2026-08-25T09:30:37Z</time>
      </trkpt>
      <trkpt lat="45.09926" lon="6.16475">
        <ele>1605</ele>
        <time>2026-08-25T09:30:38Z</time>
      </trkpt>
      <trkpt lat="45.09929" lon="6.16476">
        <ele>1605.3</ele>
        <time>2026-08-25T09:30:39Z</time>
      </trkpt>
      <trkpt lat="45.09931" lon="6.16477">
        <ele>1605.5</ele>
        <time>2026-08-25T09:30:40Z</time>
      </trkpt>
      <trkpt lat="45.09934" lon="6.16478">
        <ele>1605.8</ele>
        <time>2026-08-25T09:30:41Z</time>
      </trkpt>
      <trkpt lat="45.09937" lon="6.16478">
        <ele>1606</ele>
        <time>2026-08-25T09:30:42Z</time>
      </trkpt>
      <trkpt lat="45.09939" lon="6.16478">
        <ele>1606.3</ele>
        <time>2026-08-25T09:30:43Z</time>
      </trkpt>
      <trkpt lat="45.09942" lon="6.16478">
        <ele>1606.5</ele>
        <time>2026-08-25T09:30:44Z</time>
      </trkpt>
      <trkpt lat="45.09945" lon="6.16477">
        <ele>1606.7</ele>
        <time>2026-08-25T09:30:45Z</time>
      </trkpt>
      <trkpt lat="45.09947" lon="6.16476">
        <ele>1607</ele>
        <time>2026-08-25T09:30:46Z</time>
      </trkpt>
      <trkpt lat="45.0995" lon="6.16476">
        <ele>1607.2</ele>
        <time>2026-08-25T09:30:47Z</time>
      </trkpt>
      <trkpt lat="45.09952" lon="6.16475">
        <ele>1607.4</ele>
        <time>2026-08-25T09:30:48Z</time>
      </trkpt>
      <trkpt lat="45.09955" lon="6.16475">
        <ele>1607.6</ele>
        <time>2026-08-25T09:30:49Z</time>
      </trkpt>
      <trkpt lat="45.09958" lon="6.16474">
        <ele>1607.9</ele>
        <time>2026-08-25T09:30:50Z</time>
      </trkpt>
      <trkpt lat="45.09961" lon="6.16475">
        <ele>1608.1</ele>
        <time>2026-08-25T09:30:51Z</time>
      </trkpt>
      <trkpt lat="45.09964" lon="6.16475">
        <ele>1608.3</ele>
        <time>2026-08-25T09:30:52Z</time>
      </trkpt>
      <trkpt lat="45.09966" lon="6.16474">
        <ele>1608.5</ele>
        <time>2026-08-25T09:30:53Z</time>
      </trkpt>
      <trkpt lat="45.09969" lon="6.16475">
        <ele>1608.8</ele>
        <time>2026-08-25T09:30:54Z</time>
      </trkpt>
      <trkpt lat="45.09972" lon="6.16474">
        <ele>1609</ele>
        <time>2026-08-25T09:30:55Z</time>
      </trkpt>
      <trkpt lat="45.09974" lon="6.16474">
        <ele>1609.3</ele>
        <time>2026-08-25T09:30:56Z</time>
      </trkpt>
      <trkpt lat="45.09977" lon="6.16474">
        <ele>1609.5</ele>
        <time>2026-08-25T09:30:57Z</time>
      </trkpt>
      <trkpt lat="45.0998" lon="6.16474">
        <ele>1609.8</ele>
        <time>2026-08-25T09:30:58Z</time>
      </trkpt>
      <trkpt lat="45.09983" lon="6.16474">
        <ele>1610.1</ele>
        <time>2026-08-25T09:30:59Z</time>
      </trkpt>
      <trkpt lat="45.09986" lon="6.16474">
        <ele>1610.4</ele>
        <time>2026-08-25T09:31:00Z</time>
      </trkpt>
      <trkpt lat="45.09989" lon="6.16474">
        <ele>1610.7</ele>
        <time>2026-08-25T09:31:01Z</time>
      </trkpt>
      <trkpt lat="45.09991" lon="6.16474">
        <ele>1611</ele>
        <time>2026-08-25T09:31:02Z</time>
      </trkpt>
      <trkpt lat="45.09994" lon="6.16474">
        <ele>1611.2</ele>
        <time>2026-08-25T09:31:03Z</time>
      </trkpt>
      <trkpt lat="45.09996" lon="6.16474">
        <ele>1611.4</ele>
        <time>2026-08-25T09:31:04Z</time>
      </trkpt>
      <trkpt lat="45.09998" lon="6.16475">
        <ele>1611.7</ele>
        <time>2026-08-25T09:31:05Z</time>
      </trkpt>
      <trkpt lat="45.10001" lon="6.16476">
        <ele>1612</ele>
        <time>2026-08-25T09:31:06Z</time>
      </trkpt>
      <trkpt lat="45.10004" lon="6.16476">
        <ele>1612.4</ele>
        <time>2026-08-25T09:31:07Z</time>
      </trkpt>
      <trkpt lat="45.10006" lon="6.16473">
        <ele>1612.8</ele>
        <time>2026-08-25T09:31:08Z</time>
      </trkpt>
      <trkpt lat="45.10008" lon="6.1647">
        <ele>1613.2</ele>
        <time>2026-08-25T09:31:09Z</time>
      </trkpt>
      <trkpt lat="45.10009" lon="6.16466">
        <ele>1613.6</ele>
        <time>2026-08-25T09:31:10Z</time>
      </trkpt>
      <trkpt lat="45.10009" lon="6.16463">
        <ele>1613.7</ele>
        <time>2026-08-25T09:31:11Z</time>
      </trkpt>
      <trkpt lat="45.10007" lon="6.1646">
        <ele>1613.8</ele>
        <time>2026-08-25T09:31:12Z</time>
      </trkpt>
      <trkpt lat="45.10005" lon="6.16458">
        <ele>1614</ele>
        <time>2026-08-25T09:31:13Z</time>
      </trkpt>
      <trkpt lat="45.10002" lon="6.16456">
        <ele>1614.1</ele>
        <time>2026-08-25T09:31:14Z</time>
      </trkpt>
      <trkpt lat="45.09999" lon="6.16454">
        <ele>1614.3</ele>
        <time>2026-08-25T09:31:15Z</time>
      </trkpt>
      <trkpt lat="45.09997" lon="6.16454">
        <ele>1614.4</ele>
        <time>2026-08-25T09:31:16Z</time>
      </trkpt>
      <trkpt lat="45.09994" lon="6.16453">
        <ele>1614.5</ele>
        <time>2026-08-25T09:31:17Z</time>
      </trkpt>
      <trkpt lat="45.0999" lon="6.16452">
        <ele>1614.7</ele>
        <time>2026-08-25T09:31:18Z</time>
      </trkpt>
      <trkpt lat="45.09987" lon="6.16451">
        <ele>1614.8</ele>
        <time>2026-08-25T09:31:19Z</time>
      </trkpt>
      <trkpt lat="45.09984" lon="6.1645">
        <ele>1614.9</ele>
        <time>2026-08-25T09:31:20Z</time>
      </trkpt>
      <trkpt lat="45.09981" lon="6.1645">
        <ele>1615.1</ele>
        <time>2026-08-25T09:31:21Z</time>
      </trkpt>
      <trkpt lat="45.09978" lon="6.16449">
        <ele>1615.2</ele>
        <time>2026-08-25T09:31:22Z</time>
      </trkpt>
      <trkpt lat="45.09975" lon="6.16449">
        <ele>1615.4</ele>
        <time>2026-08-25T09:31:23Z</time>
      </trkpt>
      <trkpt lat="45.09972" lon="6.16449">
        <ele>1615.5</ele>
        <time>2026-08-25T09:31:24Z</time>
      </trkpt>
      <trkpt lat="45.09969" lon="6.1645">
        <ele>1615.7</ele>
        <time>2026-08-25T09:31:25Z</time>
      </trkpt>
      <trkpt lat="45.09965" lon="6.1645">
        <ele>1615.8</ele>
        <time>2026-08-25T09:31:26Z</time>
      </trkpt>
      <trkpt lat="45.09962" lon="6.1645">
        <ele>1616</ele>
        <time>2026-08-25T09:31:27Z</time>
      </trkpt>
      <trkpt lat="45.09958" lon="6.1645">
        <ele>1616.2</ele>
        <time>2026-08-25T09:31:28Z</time>
      </trkpt>
      <trkpt lat="45.09954" lon="6.1645">
        <ele>1616.4</ele>
        <time>2026-08-25T09:31:29Z</time>
      </trkpt>
      <trkpt lat="45.09951" lon="6.16449">
        <ele>1616.6</ele>
        <time>2026-08-25T09:31:30Z</time>
      </trkpt>
      <trkpt lat="45.09947" lon="6.16448">
        <ele>1616.9</ele>
        <time>2026-08-25T09:31:31Z</time>
      </trkpt>
      <trkpt lat="45.09943" lon="6.16447">
        <ele>1617.1</ele>
        <time>2026-08-25T09:31:32Z</time>
      </trkpt>
      <trkpt lat="45.0994" lon="6.16445">
        <ele>1617.4</ele>
        <time>2026-08-25T09:31:33Z</time>
      </trkpt>
      <trkpt lat="45.09936" lon="6.16444">
        <ele>1617.8</ele>
        <time>2026-08-25T09:31:34Z</time>
      </trkpt>
      <trkpt lat="45.09932" lon="6.16442">
        <ele>1618.1</ele>
        <time>2026-08-25T09:31:35Z</time>
      </trkpt>
      <trkpt lat="45.09929" lon="6.1644">
        <ele>1618.4</ele>
        <time>2026-08-25T09:31:36Z</time>
      </trkpt>
      <trkpt lat="45.09926" lon="6.16438">
        <ele>1618.7</ele>
        <time>2026-08-25T09:31:37Z</time>
      </trkpt>
      <trkpt lat="45.09923" lon="6.16435">
        <ele>1619</ele>
        <time>2026-08-25T09:31:38Z</time>
      </trkpt>
      <trkpt lat="45.0992" lon="6.16433">
        <ele>1619.4</ele>
        <time>2026-08-25T09:31:39Z</time>
      </trkpt>
      <trkpt lat="45.09917" lon="6.16431">
        <ele>1619.8</ele>
        <time>2026-08-25T09:31:40Z</time>
      </trkpt>
      <trkpt lat="45.09914" lon="6.16428">
        <ele>1620.2</ele>
        <time>2026-08-25T09:31:41Z</time>
      </trkpt>
      <trkpt lat="45.09912" lon="6.16425">
        <ele>1620.6</ele>
        <time>2026-08-25T09:31:42Z</time>
      </trkpt>
      <trkpt lat="45.0991" lon="6.16422">
        <ele>1621</ele>
        <time>2026-08-25T09:31:43Z</time>
      </trkpt>
      <trkpt lat="45.09907" lon="6.16419">
        <ele>1621.3</ele>
        <time>2026-08-25T09:31:44Z</time>
      </trkpt>
      <trkpt lat="45.09905" lon="6.16415">
        <ele>1621.7</ele>
        <time>2026-08-25T09:31:45Z</time>
      </trkpt>
      <trkpt lat="45.09904" lon="6.16411">
        <ele>1622.1</ele>
        <time>2026-08-25T09:31:46Z</time>
      </trkpt>
      <trkpt lat="45.09903" lon="6.16407">
        <ele>1622.4</ele>
        <time>2026-08-25T09:31:47Z</time>
      </trkpt>
      <trkpt lat="45.09902" lon="6.16403">
        <ele>1622.8</ele>
        <time>2026-08-25T09:31:48Z</time>
      </trkpt>
      <trkpt lat="45.09902" lon="6.16399">
        <ele>1623.1</ele>
        <time>2026-08-25T09:31:49Z</time>
      </trkpt>
      <trkpt lat="45.09901" lon="6.16394">
        <ele>1623.5</ele>
        <time>2026-08-25T09:31:50Z</time>
      </trkpt>
      <trkpt lat="45.09901" lon="6.1639">
        <ele>1623.8</ele>
        <time>2026-08-25T09:31:51Z</time>
      </trkpt>
      <trkpt lat="45.09901" lon="6.16386">
        <ele>1624.2</ele>
        <time>2026-08-25T09:31:52Z</time>
      </trkpt>
      <trkpt lat="45.09901" lon="6.16381">
        <ele>1624.5</ele>
        <time>2026-08-25T09:31:53Z</time>
      </trkpt>
      <trkpt lat="45.099" lon="6.16377">
        <ele>1624.8</ele>
        <time>2026-08-25T09:31:54Z</time>
      </trkpt>
      <trkpt lat="45.099" lon="6.16373">
        <ele>1625.1</ele>
        <time>2026-08-25T09:31:55Z</time>
      </trkpt>
      <trkpt lat="45.09899" lon="6.16369">
        <ele>1625.5</ele>
        <time>2026-08-25T09:31:56Z</time>
      </trkpt>
      <trkpt lat="45.09899" lon="6.16365">
        <ele>1625.8</ele>
        <time>2026-08-25T09:31:57Z</time>
      </trkpt>
      <trkpt lat="45.09898" lon="6.16361">
        <ele>1626.2</ele>
        <time>2026-08-25T09:31:58Z</time>
      </trkpt>
      <trkpt lat="45.09897" lon="6.16357">
        <ele>1626.5</ele>
        <time>2026-08-25T09:31:59Z</time>
      </trkpt>
      <trkpt lat="45.09895" lon="6.16353">
        <ele>1626.9</ele>
        <time>2026-08-25T09:32:00Z</time>
      </trkpt>
      <trkpt lat="45.09893" lon="6.1635">
        <ele>1627.2</ele>
        <time>2026-08-25T09:32:01Z</time>
      </trkpt>
      <trkpt lat="45.09891" lon="6.16347">
        <ele>1627.5</ele>
        <time>2026-08-25T09:32:02Z</time>
      </trkpt>
      <trkpt lat="45.09889" lon="6.16344">
        <ele>1627.8</ele>
        <time>2026-08-25T09:32:03Z</time>
      </trkpt>
      <trkpt lat="45.09887" lon="6.16341">
        <ele>1628.1</ele>
        <time>2026-08-25T09:32:04Z</time>
      </trkpt>
      <trkpt lat="45.09884" lon="6.16338">
        <ele>1628.3</ele>
        <time>2026-08-25T09:32:05Z</time>
      </trkpt>
      <trkpt lat="45.09882" lon="6.16336">
        <ele>1628.6</ele>
        <time>2026-08-25T09:32:06Z</time>
      </trkpt>
      <trkpt lat="45.0988" lon="6.16333">
        <ele>1628.8</ele>
        <time>2026-08-25T09:32:07Z</time>
      </trkpt>
      <trkpt lat="45.09879" lon="6.1633">
        <ele>1629.1</ele>
        <time>2026-08-25T09:32:08Z</time>
      </trkpt>
      <trkpt lat="45.09877" lon="6.16326">
        <ele>1629.3</ele>
        <time>2026-08-25T09:32:09Z</time>
      </trkpt>
      <trkpt lat="45.09875" lon="6.16323">
        <ele>1629.6</ele>
        <time>2026-08-25T09:32:10Z</time>
      </trkpt>
      <trkpt lat="45.09873" lon="6.1632">
        <ele>1629.9</ele>
        <time>2026-08-25T09:32:11Z</time>
      </trkpt>
      <trkpt lat="45.09871" lon="6.16317">
        <ele>1630.2</ele>
        <time>2026-08-25T09:32:12Z</time>
      </trkpt>
      <trkpt lat="45.09869" lon="6.16313">
        <ele>1630.5</ele>
        <time>2026-08-25T09:32:13Z</time>
      </trkpt>
      <trkpt lat="45.09867" lon="6.1631">
        <ele>1630.8</ele>
        <time>2026-08-25T09:32:14Z</time>
      </trkpt>
      <trkpt lat="45.09865" lon="6.16307">
        <ele>1631.1</ele>
        <time>2026-08-25T09:32:15Z</time>
      </trkpt>
      <trkpt lat="45.09863" lon="6.16304">
        <ele>1631.4</ele>
        <time>2026-08-25T09:32:16Z</time>
      </trkpt>
      <trkpt lat="45.09861" lon="6.16301">
        <ele>1631.7</ele>
        <time>2026-08-25T09:32:17Z</time>
      </trkpt>
      <trkpt lat="45.09859" lon="6.16298">
        <ele>1632</ele>
        <time>2026-08-25T09:32:18Z</time>
      </trkpt>
      <trkpt lat="45.09857" lon="6.16296">
        <ele>1632.2</ele>
        <time>2026-08-25T09:32:19Z</time>
      </trkpt>
      <trkpt lat="45.09856" lon="6.16293">
        <ele>1632.5</ele>
        <time>2026-08-25T09:32:20Z</time>
      </trkpt>
      <trkpt lat="45.09854" lon="6.1629">
        <ele>1632.8</ele>
        <time>2026-08-25T09:32:21Z</time>
      </trkpt>
      <trkpt lat="45.09852" lon="6.16287">
        <ele>1633.1</ele>
        <time>2026-08-25T09:32:22Z</time>
      </trkpt>
      <trkpt lat="45.0985" lon="6.16283">
        <ele>1633.4</ele>
        <time>2026-08-25T09:32:23Z</time>
      </trkpt>
      <trkpt lat="45.09849" lon="6.1628">
        <ele>1633.7</ele>
        <time>2026-08-25T09:32:24Z</time>
      </trkpt>
      <trkpt lat="45.09847" lon="6.16277">
        <ele>1634</ele>
        <time>2026-08-25T09:32:25Z</time>
      </trkpt>
      <trkpt lat="45.09845" lon="6.16274">
        <ele>1634.3</ele>
        <time>2026-08-25T09:32:26Z</time>
      </trkpt>
      <trkpt lat="45.09844" lon="6.16271">
        <ele>1634.6</ele>
        <time>2026-08-25T09:32:27Z</time>
      </trkpt>
      <trkpt lat="45.09842" lon="6.16268">
        <ele>1634.9</ele>
        <time>2026-08-25T09:32:28Z</time>
      </trkpt>
      <trkpt lat="45.0984" lon="6.16265">
        <ele>1635.3</ele>
        <time>2026-08-25T09:32:29Z</time>
      </trkpt>
      <trkpt lat="45.09838" lon="6.16261">
        <ele>1635.6</ele>
        <time>2026-08-25T09:32:30Z</time>
      </trkpt>
      <trkpt lat="45.09836" lon="6.16259">
        <ele>1635.9</ele>
        <time>2026-08-25T09:32:31Z</time>
      </trkpt>
      <trkpt lat="45.09835" lon="6.16255">
        <ele>1636.2</ele>
        <time>2026-08-25T09:32:32Z</time>
      </trkpt>
      <trkpt lat="45.09834" lon="6.16252">
        <ele>1636.5</ele>
        <time>2026-08-25T09:32:33Z</time>
      </trkpt>
      <trkpt lat="45.09832" lon="6.16248">
        <ele>1636.9</ele>
        <time>2026-08-25T09:32:34Z</time>
      </trkpt>
      <trkpt lat="45.09831" lon="6.16245">
        <ele>1637.2</ele>
        <time>2026-08-25T09:32:35Z</time>
      </trkpt>
      <trkpt lat="45.09829" lon="6.16242">
        <ele>1637.5</ele>
        <time>2026-08-25T09:32:36Z</time>
      </trkpt>
      <trkpt lat="45.09827" lon="6.16238">
        <ele>1637.8</ele>
        <time>2026-08-25T09:32:37Z</time>
      </trkpt>
      <trkpt lat="45.09826" lon="6.16235">
        <ele>1638.1</ele>
        <time>2026-08-25T09:32:38Z</time>
      </trkpt>
      <trkpt lat="45.09824" lon="6.16231">
        <ele>1638.4</ele>
        <time>2026-08-25T09:32:39Z</time>
      </trkpt>
      <trkpt lat="45.09823" lon="6.16227">
        <ele>1638.7</ele>
        <time>2026-08-25T09:32:40Z</time>
      </trkpt>
      <trkpt lat="45.09822" lon="6.16223">
        <ele>1639</ele>
        <time>2026-08-25T09:32:41Z</time>
      </trkpt>
      <trkpt lat="45.09821" lon="6.16219">
        <ele>1639.4</ele>
        <time>2026-08-25T09:32:42Z</time>
      </trkpt>
      <trkpt lat="45.09821" lon="6.16214">
        <ele>1639.7</ele>
        <time>2026-08-25T09:32:43Z</time>
      </trkpt>
      <trkpt lat="45.0982" lon="6.1621">
        <ele>1640</ele>
        <time>2026-08-25T09:32:44Z</time>
      </trkpt>
      <trkpt lat="45.09819" lon="6.16206">
        <ele>1640.3</ele>
        <time>2026-08-25T09:32:45Z</time>
      </trkpt>
      <trkpt lat="45.09818" lon="6.16202">
        <ele>1640.6</ele>
        <time>2026-08-25T09:32:46Z</time>
      </trkpt>
      <trkpt lat="45.09817" lon="6.16198">
        <ele>1640.9</ele>
        <time>2026-08-25T09:32:47Z</time>
      </trkpt>
      <trkpt lat="45.09816" lon="6.16194">
        <ele>1641.2</ele>
        <time>2026-08-25T09:32:48Z</time>
      </trkpt>
      <trkpt lat="45.09816" lon="6.16191">
        <ele>1641.5</ele>
        <time>2026-08-25T09:32:49Z</time>
      </trkpt>
      <trkpt lat="45.09815" lon="6.16186">
        <ele>1641.8</ele>
        <time>2026-08-25T09:32:50Z</time>
      </trkpt>
      <trkpt lat="45.09815" lon="6.16181">
        <ele>1642.1</ele>
        <time>2026-08-25T09:32:51Z</time>
      </trkpt>
      <trkpt lat="45.09814" lon="6.16176">
        <ele>1642.4</ele>
        <time>2026-08-25T09:32:52Z</time>
      </trkpt>
      <trkpt lat="45.09813" lon="6.16172">
        <ele>1642.7</ele>
        <time>2026-08-25T09:32:53Z</time>
      </trkpt>
      <trkpt lat="45.09812" lon="6.16167">
        <ele>1643</ele>
        <time>2026-08-25T09:32:54Z</time>
      </trkpt>
      <trkpt lat="45.09812" lon="6.16162">
        <ele>1643.4</ele>
        <time>2026-08-25T09:32:55Z</time>
      </trkpt>
      <trkpt lat="45.09811" lon="6.16157">
        <ele>1643.6</ele>
        <time>2026-08-25T09:32:56Z</time>
      </trkpt>
      <trkpt lat="45.09809" lon="6.16152">
        <ele>1643.9</ele>
        <time>2026-08-25T09:32:57Z</time>
      </trkpt>
      <trkpt lat="45.09807" lon="6.16147">
        <ele>1644.3</ele>
        <time>2026-08-25T09:32:58Z</time>
      </trkpt>
      <trkpt lat="45.09805" lon="6.16143">
        <ele>1644.6</ele>
        <time>2026-08-25T09:32:59Z</time>
      </trkpt>
      <trkpt lat="45.09803" lon="6.16138">
        <ele>1644.9</ele>
        <time>2026-08-25T09:33:00Z</time>
      </trkpt>
      <trkpt lat="45.09802" lon="6.16133">
        <ele>1645.2</ele>
        <time>2026-08-25T09:33:01Z</time>
      </trkpt>
      <trkpt lat="45.09803" lon="6.16128">
        <ele>1645.5</ele>
        <time>2026-08-25T09:33:02Z</time>
      </trkpt>
      <trkpt lat="45.09804" lon="6.16123">
        <ele>1645.9</ele>
        <time>2026-08-25T09:33:03Z</time>
      </trkpt>
      <trkpt lat="45.09807" lon="6.1612">
        <ele>1646.1</ele>
        <time>2026-08-25T09:33:04Z</time>
      </trkpt>
      <trkpt lat="45.0981" lon="6.16119">
        <ele>1646.4</ele>
        <time>2026-08-25T09:33:05Z</time>
      </trkpt>
      <trkpt lat="45.09813" lon="6.16119">
        <ele>1646.6</ele>
        <time>2026-08-25T09:33:06Z</time>
      </trkpt>
      <trkpt lat="45.09816" lon="6.16121">
        <ele>1646.9</ele>
        <time>2026-08-25T09:33:07Z</time>
      </trkpt>
      <trkpt lat="45.09819" lon="6.16124">
        <ele>1647.2</ele>
        <time>2026-08-25T09:33:08Z</time>
      </trkpt>
      <trkpt lat="45.09821" lon="6.16127">
        <ele>1647.4</ele>
        <time>2026-08-25T09:33:09Z</time>
      </trkpt>
      <trkpt lat="45.09822" lon="6.1613">
        <ele>1647.6</ele>
        <time>2026-08-25T09:33:10Z</time>
      </trkpt>
      <trkpt lat="45.09822" lon="6.16134">
        <ele>1647.9</ele>
        <time>2026-08-25T09:33:11Z</time>
      </trkpt>
      <trkpt lat="45.09823" lon="6.16138">
        <ele>1648.1</ele>
        <time>2026-08-25T09:33:12Z</time>
      </trkpt>
      <trkpt lat="45.09823" lon="6.16142">
        <ele>1648.3</ele>
        <time>2026-08-25T09:33:13Z</time>
      </trkpt>
      <trkpt lat="45.09824" lon="6.16146">
        <ele>1648.6</ele>
        <time>2026-08-25T09:33:14Z</time>
      </trkpt>
      <trkpt lat="45.09825" lon="6.16149">
        <ele>1648.8</ele>
        <time>2026-08-25T09:33:15Z</time>
      </trkpt>
      <trkpt lat="45.09825" lon="6.16153">
        <ele>1649.1</ele>
        <time>2026-08-25T09:33:16Z</time>
      </trkpt>
      <trkpt lat="45.09825" lon="6.16157">
        <ele>1649.3</ele>
        <time>2026-08-25T09:33:17Z</time>
      </trkpt>
      <trkpt lat="45.09826" lon="6.16161">
        <ele>1649.6</ele>
        <time>2026-08-25T09:33:18Z</time>
      </trkpt>
      <trkpt lat="45.09827" lon="6.16165">
        <ele>1649.9</ele>
        <time>2026-08-25T09:33:19Z</time>
      </trkpt>
      <trkpt lat="45.09827" lon="6.16169">
        <ele>1650.1</ele>
        <time>2026-08-25T09:33:20Z</time>
      </trkpt>
      <trkpt lat="45.09828" lon="6.16172">
        <ele>1650.4</ele>
        <time>2026-08-25T09:33:21Z</time>
      </trkpt>
      <trkpt lat="45.09829" lon="6.16176">
        <ele>1650.7</ele>
        <time>2026-08-25T09:33:22Z</time>
      </trkpt>
      <trkpt lat="45.0983" lon="6.1618">
        <ele>1651</ele>
        <time>2026-08-25T09:33:23Z</time>
      </trkpt>
      <trkpt lat="45.09832" lon="6.16184">
        <ele>1651.3</ele>
        <time>2026-08-25T09:33:24Z</time>
      </trkpt>
      <trkpt lat="45.09834" lon="6.16186">
        <ele>1651.5</ele>
        <time>2026-08-25T09:33:25Z</time>
      </trkpt>
      <trkpt lat="45.09836" lon="6.16189">
        <ele>1651.8</ele>
        <time>2026-08-25T09:33:26Z</time>
      </trkpt>
      <trkpt lat="45.09838" lon="6.16192">
        <ele>1652</ele>
        <time>2026-08-25T09:33:27Z</time>
      </trkpt>
      <trkpt lat="45.0984" lon="6.16194">
        <ele>1652.3</ele>
        <time>2026-08-25T09:33:28Z</time>
      </trkpt>
      <trkpt lat="45.09842" lon="6.16197">
        <ele>1652.6</ele>
        <time>2026-08-25T09:33:29Z</time>
      </trkpt>
      <trkpt lat="45.09844" lon="6.16199">
        <ele>1652.8</ele>
        <time>2026-08-25T09:33:30Z</time>
      </trkpt>
      <trkpt lat="45.09847" lon="6.16202">
        <ele>1653.1</ele>
        <time>2026-08-25T09:33:31Z</time>
      </trkpt>
      <trkpt lat="45.09849" lon="6.16204">
        <ele>1653.4</ele>
        <time>2026-08-25T09:33:32Z</time>
      </trkpt>
      <trkpt lat="45.09851" lon="6.16206">
        <ele>1653.6</ele>
        <time>2026-08-25T09:33:33Z</time>
      </trkpt>
      <trkpt lat="45.09853" lon="6.16208">
        <ele>1653.9</ele>
        <time>2026-08-25T09:33:34Z</time>
      </trkpt>
      <trkpt lat="45.09856" lon="6.1621">
        <ele>1654.1</ele>
        <time>2026-08-25T09:33:35Z</time>
      </trkpt>
      <trkpt lat="45.09858" lon="6.16212">
        <ele>1654.4</ele>
        <time>2026-08-25T09:33:36Z</time>
      </trkpt>
      <trkpt lat="45.0986" lon="6.16213">
        <ele>1654.6</ele>
        <time>2026-08-25T09:33:37Z</time>
      </trkpt>
      <trkpt lat="45.09862" lon="6.16215">
        <ele>1654.9</ele>
        <time>2026-08-25T09:33:38Z</time>
      </trkpt>
      <trkpt lat="45.09864" lon="6.16216">
        <ele>1655.1</ele>
        <time>2026-08-25T09:33:39Z</time>
      </trkpt>
      <trkpt lat="45.09867" lon="6.16218">
        <ele>1655.4</ele>
        <time>2026-08-25T09:33:40Z</time>
      </trkpt>
      <trkpt lat="45.09869" lon="6.16219">
        <ele>1655.7</ele>
        <time>2026-08-25T09:33:41Z</time>
      </trkpt>
      <trkpt lat="45.09871" lon="6.1622">
        <ele>1656</ele>
        <time>2026-08-25T09:33:42Z</time>
      </trkpt>
      <trkpt lat="45.09874" lon="6.16221">
        <ele>1656.2</ele>
        <time>2026-08-25T09:33:43Z</time>
      </trkpt>
      <trkpt lat="45.09876" lon="6.16222">
        <ele>1656.5</ele>
        <time>2026-08-25T09:33:44Z</time>
      </trkpt>
      <trkpt lat="45.09879" lon="6.16222">
        <ele>1656.9</ele>
        <time>2026-08-25T09:33:45Z</time>
      </trkpt>
      <trkpt lat="45.09881" lon="6.16223">
        <ele>1657.2</ele>
        <time>2026-08-25T09:33:46Z</time>
      </trkpt>
      <trkpt lat="45.09884" lon="6.16224">
        <ele>1657.6</ele>
        <time>2026-08-25T09:33:47Z</time>
      </trkpt>
      <trkpt lat="45.09887" lon="6.16224">
        <ele>1657.9</ele>
        <time>2026-08-25T09:33:48Z</time>
      </trkpt>
      <trkpt lat="45.09889" lon="6.16224">
        <ele>1658.2</ele>
        <time>2026-08-25T09:33:49Z</time>
      </trkpt>
      <trkpt lat="45.09892" lon="6.16223">
        <ele>1658.6</ele>
        <time>2026-08-25T09:33:50Z</time>
      </trkpt>
      <trkpt lat="45.09894" lon="6.16223">
        <ele>1658.9</ele>
        <time>2026-08-25T09:33:51Z</time>
      </trkpt>
      <trkpt lat="45.09896" lon="6.16223">
        <ele>1659.2</ele>
        <time>2026-08-25T09:33:52Z</time>
      </trkpt>
      <trkpt lat="45.09898" lon="6.16222">
        <ele>1659.5</ele>
        <time>2026-08-25T09:33:53Z</time>
      </trkpt>
      <trkpt lat="45.09901" lon="6.16221">
        <ele>1659.8</ele>
        <time>2026-08-25T09:33:54Z</time>
      </trkpt>
      <trkpt lat="45.09903" lon="6.1622">
        <ele>1660.2</ele>
        <time>2026-08-25T09:33:55Z</time>
      </trkpt>
      <trkpt lat="45.09905" lon="6.16219">
        <ele>1660.5</ele>
        <time>2026-08-25T09:33:56Z</time>
      </trkpt>
      <trkpt lat="45.09908" lon="6.16218">
        <ele>1660.8</ele>
        <time>2026-08-25T09:33:57Z</time>
      </trkpt>
      <trkpt lat="45.0991" lon="6.16216">
        <ele>1661.1</ele>
        <time>2026-08-25T09:33:58Z</time>
      </trkpt>
      <trkpt lat="45.09912" lon="6.16215">
        <ele>1661.4</ele>
        <time>2026-08-25T09:33:59Z</time>
      </trkpt>
      <trkpt lat="45.09914" lon="6.16213">
        <ele>1661.7</ele>
        <time>2026-08-25T09:34:00Z</time>
      </trkpt>
      <trkpt lat="45.09916" lon="6.16212">
        <ele>1661.9</ele>
        <time>2026-08-25T09:34:01Z</time>
      </trkpt>
      <trkpt lat="45.09919" lon="6.1621">
        <ele>1662.2</ele>
        <time>2026-08-25T09:34:02Z</time>
      </trkpt>
      <trkpt lat="45.09921" lon="6.16209">
        <ele>1662.5</ele>
        <time>2026-08-25T09:34:03Z</time>
      </trkpt>
      <trkpt lat="45.09924" lon="6.16207">
        <ele>1662.9</ele>
        <time>2026-08-25T09:34:04Z</time>
      </trkpt>
      <trkpt lat="45.09926" lon="6.16206">
        <ele>1663.2</ele>
        <time>2026-08-25T09:34:05Z</time>
      </trkpt>
      <trkpt lat="45.09928" lon="6.16204">
        <ele>1663.4</ele>
        <time>2026-08-25T09:34:06Z</time>
      </trkpt>
      <trkpt lat="45.09931" lon="6.16203">
        <ele>1663.7</ele>
        <time>2026-08-25T09:34:07Z</time>
      </trkpt>
      <trkpt lat="45.09933" lon="6.16202">
        <ele>1664</ele>
        <time>2026-08-25T09:34:08Z</time>
      </trkpt>
      <trkpt lat="45.09935" lon="6.16201">
        <ele>1664.3</ele>
        <time>2026-08-25T09:34:09Z</time>
      </trkpt>
      <trkpt lat="45.09937" lon="6.16199">
        <ele>1664.6</ele>
        <time>2026-08-25T09:34:10Z</time>
      </trkpt>
      <trkpt lat="45.0994" lon="6.16198">
        <ele>1664.9</ele>
        <time>2026-08-25T09:34:11Z</time>
      </trkpt>
      <trkpt lat="45.09942" lon="6.16196">
        <ele>1665.2</ele>
        <time>2026-08-25T09:34:12Z</time>
      </trkpt>
      <trkpt lat="45.09944" lon="6.16195">
        <ele>1665.5</ele>
        <time>2026-08-25T09:34:13Z</time>
      </trkpt>
      <trkpt lat="45.09947" lon="6.16194">
        <ele>1665.8</ele>
        <time>2026-08-25T09:34:14Z</time>
      </trkpt>
      <trkpt lat="45.09949" lon="6.16194">
        <ele>1666</ele>
        <time>2026-08-25T09:34:15Z</time>
      </trkpt>
      <trkpt lat="45.09951" lon="6.16194">
        <ele>1666.3</ele>
        <time>2026-08-25T09:34:16Z</time>
      </trkpt>
      <trkpt lat="45.09953" lon="6.16194">
        <ele>1666.6</ele>
        <time>2026-08-25T09:34:17Z</time>
      </trkpt>
      <trkpt lat="45.09954" lon="6.16193">
        <ele>1666.8</ele>
        <time>2026-08-25T09:34:18Z</time>
      </trkpt>
      <trkpt lat="45.09956" lon="6.16193">
        <ele>1667</ele>
        <time>2026-08-25T09:34:19Z</time>
      </trkpt>
      <trkpt lat="45.09958" lon="6.16194">
        <ele>1667.2</ele>
        <time>2026-08-25T09:34:20Z</time>
      </trkpt>
      <trkpt lat="45.0996" lon="6.16194">
        <ele>1667.5</ele>
        <time>2026-08-25T09:34:21Z</time>
      </trkpt>
      <trkpt lat="45.09962" lon="6.16195">
        <ele>1667.8</ele>
        <time>2026-08-25T09:34:22Z</time>
      </trkpt>
      <trkpt lat="45.09964" lon="6.16195">
        <ele>1668</ele>
        <time>2026-08-25T09:34:23Z</time>
      </trkpt>
      <trkpt lat="45.09966" lon="6.16196">
        <ele>1668.4</ele>
        <time>2026-08-25T09:34:24Z</time>
      </trkpt>
      <trkpt lat="45.09969" lon="6.16196">
        <ele>1668.7</ele>
        <time>2026-08-25T09:34:25Z</time>
      </trkpt>
      <trkpt lat="45.09972" lon="6.16195">
        <ele>1669.1</ele>
        <time>2026-08-25T09:34:26Z</time>
      </trkpt>
      <trkpt lat="45.09974" lon="6.16194">
        <ele>1669.4</ele>
        <time>2026-08-25T09:34:27Z</time>
      </trkpt>
      <trkpt lat="45.09976" lon="6.16192">
        <ele>1669.8</ele>
        <time>2026-08-25T09:34:28Z</time>
      </trkpt>
      <trkpt lat="45.09978" lon="6.16189">
        <ele>1670.1</ele>
        <time>2026-08-25T09:34:29Z</time>
      </trkpt>
      <trkpt lat="45.09979" lon="6.16186">
        <ele>1670.4</ele>
        <time>2026-08-25T09:34:30Z</time>
      </trkpt>
      <trkpt lat="45.09979" lon="6.16182">
        <ele>1670.7</ele>
        <time>2026-08-25T09:34:31Z</time>
      </trkpt>
      <trkpt lat="45.09978" lon="6.16179">
        <ele>1670.9</ele>
        <time>2026-08-25T09:34:32Z</time>
      </trkpt>
      <trkpt lat="45.09977" lon="6.16177">
        <ele>1671.1</ele>
        <time>2026-08-25T09:34:33Z</time>
      </trkpt>
      <trkpt lat="45.09976" lon="6.16175">
        <ele>1671.3</ele>
        <time>2026-08-25T09:34:34Z</time>
      </trkpt>
      <trkpt lat="45.09973" lon="6.16173">
        <ele>1671.5</ele>
        <time>2026-08-25T09:34:35Z</time>
      </trkpt>
      <trkpt lat="45.09971" lon="6.16172">
        <ele>1671.8</ele>
        <time>2026-08-25T09:34:36Z</time>
      </trkpt>
      <trkpt lat="45.09969" lon="6.1617">
        <ele>1672</ele>
        <time>2026-08-25T09:34:37Z</time>
      </trkpt>
      <trkpt lat="45.09966" lon="6.1617">
        <ele>1672.1</ele>
        <time>2026-08-25T09:34:38Z</time>
      </trkpt>
      <trkpt lat="45.09964" lon="6.16169">
        <ele>1672.3</ele>
        <time>2026-08-25T09:34:39Z</time>
      </trkpt>
      <trkpt lat="45.09962" lon="6.16168">
        <ele>1672.5</ele>
        <time>2026-08-25T09:34:40Z</time>
      </trkpt>
      <trkpt lat="45.0996" lon="6.16168">
        <ele>1672.6</ele>
        <time>2026-08-25T09:34:41Z</time>
      </trkpt>
      <trkpt lat="45.09958" lon="6.16166">
        <ele>1672.8</ele>
        <time>2026-08-25T09:34:42Z</time>
      </trkpt>
      <trkpt lat="45.09956" lon="6.16166">
        <ele>1673</ele>
        <time>2026-08-25T09:34:43Z</time>
      </trkpt>
      <trkpt lat="45.09954" lon="6.16164">
        <ele>1673.1</ele>
        <time>2026-08-25T09:34:44Z</time>
      </trkpt>
      <trkpt lat="45.09952" lon="6.16163">
        <ele>1673.3</ele>
        <time>2026-08-25T09:34:45Z</time>
      </trkpt>
      <trkpt lat="45.0995" lon="6.16161">
        <ele>1673.5</ele>
        <time>2026-08-25T09:34:46Z</time>
      </trkpt>
      <trkpt lat="45.09948" lon="6.16159">
        <ele>1673.7</ele>
        <time>2026-08-25T09:34:47Z</time>
      </trkpt>
      <trkpt lat="45.09946" lon="6.16157">
        <ele>1673.9</ele>
        <time>2026-08-25T09:34:48Z</time>
      </trkpt>
      <trkpt lat="45.09944" lon="6.16155">
        <ele>1674.1</ele>
        <time>2026-08-25T09:34:49Z</time>
      </trkpt>
      <trkpt lat="45.09942" lon="6.16154">
        <ele>1674.3</ele>
        <time>2026-08-25T09:34:50Z</time>
      </trkpt>
      <trkpt lat="45.0994" lon="6.16152">
        <ele>1674.5</ele>
        <time>2026-08-25T09:34:51Z</time>
      </trkpt>
      <trkpt lat="45.09938" lon="6.16151">
        <ele>1674.7</ele>
        <time>2026-08-25T09:34:52Z</time>
      </trkpt>
      <trkpt lat="45.09936" lon="6.16149">
        <ele>1674.9</ele>
        <time>2026-08-25T09:34:53Z</time>
      </trkpt>
      <trkpt lat="45.09934" lon="6.16147">
        <ele>1675.2</ele>
        <time>2026-08-25T09:34:54Z</time>
      </trkpt>
      <trkpt lat="45.09932" lon="6.16145">
        <ele>1675.4</ele>
        <time>2026-08-25T09:34:55Z</time>
      </trkpt>
      <trkpt lat="45.0993" lon="6.16142">
        <ele>1675.6</ele>
        <time>2026-08-25T09:34:56Z</time>
      </trkpt>
      <trkpt lat="45.09928" lon="6.1614">
        <ele>1675.9</ele>
        <time>2026-08-25T09:34:57Z</time>
      </trkpt>
      <trkpt lat="45.09926" lon="6.16137">
        <ele>1676.1</ele>
        <time>2026-08-25T09:34:58Z</time>
      </trkpt>
      <trkpt lat="45.09924" lon="6.16134">
        <ele>1676.4</ele>
        <time>2026-08-25T09:34:59Z</time>
      </trkpt>
      <trkpt lat="45.09923" lon="6.16131">
        <ele>1676.7</ele>
        <time>2026-08-25T09:35:00Z</time>
      </trkpt>
      <trkpt lat="45.09921" lon="6.16128">
        <ele>1676.9</ele>
        <time>2026-08-25T09:35:01Z</time>
      </trkpt>
      <trkpt lat="45.09919" lon="6.16126">
        <ele>1677.2</ele>
        <time>2026-08-25T09:35:02Z</time>
      </trkpt>
      <trkpt lat="45.09917" lon="6.16123">
        <ele>1677.4</ele>
        <time>2026-08-25T09:35:03Z</time>
      </trkpt>
      <trkpt lat="45.09916" lon="6.1612">
        <ele>1677.7</ele>
        <time>2026-08-25T09:35:04Z</time>
      </trkpt>
      <trkpt lat="45.09914" lon="6.16117">
        <ele>1677.9</ele>
        <time>2026-08-25T09:35:05Z</time>
      </trkpt>
      <trkpt lat="45.09912" lon="6.16114">
        <ele>1678.2</ele>
        <time>2026-08-25T09:35:06Z</time>
      </trkpt>
      <trkpt lat="45.0991" lon="6.16111">
        <ele>1678.5</ele>
        <time>2026-08-25T09:35:07Z</time>
      </trkpt>
      <trkpt lat="45.09909" lon="6.16108">
        <ele>1678.7</ele>
        <time>2026-08-25T09:35:08Z</time>
      </trkpt>
      <trkpt lat="45.09907" lon="6.16106">
        <ele>1678.9</ele>
        <time>2026-08-25T09:35:09Z</time>
      </trkpt>
      <trkpt lat="45.09906" lon="6.16103">
        <ele>1679.2</ele>
        <time>2026-08-25T09:35:10Z</time>
      </trkpt>
      <trkpt lat="45.09904" lon="6.161">
        <ele>1679.4</ele>
        <time>2026-08-25T09:35:11Z</time>
      </trkpt>
      <trkpt lat="45.09902" lon="6.16098">
        <ele>1679.7</ele>
        <time>2026-08-25T09:35:12Z</time>
      </trkpt>
      <trkpt lat="45.099" lon="6.16096">
        <ele>1679.9</ele>
        <time>2026-08-25T09:35:13Z</time>
      </trkpt>
      <trkpt lat="45.09898" lon="6.16093">
        <ele>1680.2</ele>
        <time>2026-08-25T09:35:14Z</time>
      </trkpt>
      <trkpt lat="45.09896" lon="6.1609">
        <ele>1680.5</ele>
        <time>2026-08-25T09:35:15Z</time>
      </trkpt>
      <trkpt lat="45.09894" lon="6.16088">
        <ele>1680.7</ele>
        <time>2026-08-25T09:35:16Z</time>
      </trkpt>
      <trkpt lat="45.09892" lon="6.16087">
        <ele>1681</ele>
        <time>2026-08-25T09:35:17Z</time>
      </trkpt>
      <trkpt lat="45.09889" lon="6.16085">
        <ele>1681.2</ele>
        <time>2026-08-25T09:35:18Z</time>
      </trkpt>
      <trkpt lat="45.09887" lon="6.16084">
        <ele>1681.5</ele>
        <time>2026-08-25T09:35:19Z</time>
      </trkpt>
      <trkpt lat="45.09885" lon="6.16082">
        <ele>1681.7</ele>
        <time>2026-08-25T09:35:20Z</time>
      </trkpt>
      <trkpt lat="45.09882" lon="6.16081">
        <ele>1682</ele>
        <time>2026-08-25T09:35:21Z</time>
      </trkpt>
      <trkpt lat="45.09879" lon="6.1608">
        <ele>1682.3</ele>
        <time>2026-08-25T09:35:22Z</time>
      </trkpt>
      <trkpt lat="45.09877" lon="6.16079">
        <ele>1682.5</ele>
        <time>2026-08-25T09:35:23Z</time>
      </trkpt>
      <trkpt lat="45.09874" lon="6.16078">
        <ele>1682.8</ele>
        <time>2026-08-25T09:35:24Z</time>
      </trkpt>
      <trkpt lat="45.09872" lon="6.16077">
        <ele>1683</ele>
        <time>2026-08-25T09:35:25Z</time>
      </trkpt>
      <trkpt lat="45.09869" lon="6.16075">
        <ele>1683.3</ele>
        <time>2026-08-25T09:35:26Z</time>
      </trkpt>
      <trkpt lat="45.09867" lon="6.16074">
        <ele>1683.5</ele>
        <time>2026-08-25T09:35:27Z</time>
      </trkpt>
      <trkpt lat="45.09865" lon="6.16073">
        <ele>1683.7</ele>
        <time>2026-08-25T09:35:28Z</time>
      </trkpt>
      <trkpt lat="45.09862" lon="6.16071">
        <ele>1684</ele>
        <time>2026-08-25T09:35:29Z</time>
      </trkpt>
      <trkpt lat="45.09859" lon="6.16069">
        <ele>1684.2</ele>
        <time>2026-08-25T09:35:30Z</time>
      </trkpt>
      <trkpt lat="45.09857" lon="6.16067">
        <ele>1684.4</ele>
        <time>2026-08-25T09:35:31Z</time>
      </trkpt>
      <trkpt lat="45.09856" lon="6.16064">
        <ele>1684.7</ele>
        <time>2026-08-25T09:35:32Z</time>
      </trkpt>
      <trkpt lat="45.09856" lon="6.1606">
        <ele>1684.9</ele>
        <time>2026-08-25T09:35:33Z</time>
      </trkpt>
      <trkpt lat="45.09856" lon="6.16057">
        <ele>1685.1</ele>
        <time>2026-08-25T09:35:34Z</time>
      </trkpt>
      <trkpt lat="45.09858" lon="6.16054">
        <ele>1685.3</ele>
        <time>2026-08-25T09:35:35Z</time>
      </trkpt>
      <trkpt lat="45.0986" lon="6.16054">
        <ele>1685.4</ele>
        <time>2026-08-25T09:35:36Z</time>
      </trkpt>
      <trkpt lat="45.09862" lon="6.16055">
        <ele>1685.6</ele>
        <time>2026-08-25T09:35:37Z</time>
      </trkpt>
      <trkpt lat="45.09865" lon="6.16056">
        <ele>1685.8</ele>
        <time>2026-08-25T09:35:38Z</time>
      </trkpt>
      <trkpt lat="45.09867" lon="6.16058">
        <ele>1686</ele>
        <time>2026-08-25T09:35:39Z</time>
      </trkpt>
      <trkpt lat="45.0987" lon="6.1606">
        <ele>1686.2</ele>
        <time>2026-08-25T09:35:40Z</time>
      </trkpt>
      <trkpt lat="45.09873" lon="6.16062">
        <ele>1686.4</ele>
        <time>2026-08-25T09:35:41Z</time>
      </trkpt>
      <trkpt lat="45.09875" lon="6.16063">
        <ele>1686.7</ele>
        <time>2026-08-25T09:35:42Z</time>
      </trkpt>
      <trkpt lat="45.09878" lon="6.16063">
        <ele>1686.9</ele>
        <time>2026-08-25T09:35:43Z</time>
      </trkpt>
      <trkpt lat="45.09881" lon="6.16064">
        <ele>1687.1</ele>
        <time>2026-08-25T09:35:44Z</time>
      </trkpt>
      <trkpt lat="45.09884" lon="6.16063">
        <ele>1687.3</ele>
        <time>2026-08-25T09:35:45Z</time>
      </trkpt>
      <trkpt lat="45.09887" lon="6.16063">
        <ele>1687.5</ele>
        <time>2026-08-25T09:35:46Z</time>
      </trkpt>
      <trkpt lat="45.09889" lon="6.16062">
        <ele>1687.7</ele>
        <time>2026-08-25T09:35:47Z</time>
      </trkpt>
      <trkpt lat="45.09892" lon="6.16061">
        <ele>1688</ele>
        <time>2026-08-25T09:35:48Z</time>
      </trkpt>
      <trkpt lat="45.09894" lon="6.1606">
        <ele>1688.2</ele>
        <time>2026-08-25T09:35:49Z</time>
      </trkpt>
      <trkpt lat="45.09897" lon="6.16059">
        <ele>1688.4</ele>
        <time>2026-08-25T09:35:50Z</time>
      </trkpt>
      <trkpt lat="45.099" lon="6.16057">
        <ele>1688.7</ele>
        <time>2026-08-25T09:35:51Z</time>
      </trkpt>
      <trkpt lat="45.09902" lon="6.16056">
        <ele>1688.9</ele>
        <time>2026-08-25T09:35:52Z</time>
      </trkpt>
      <trkpt lat="45.09905" lon="6.16055">
        <ele>1689.1</ele>
        <time>2026-08-25T09:35:53Z</time>
      </trkpt>
      <trkpt lat="45.09908" lon="6.16054">
        <ele>1689.4</ele>
        <time>2026-08-25T09:35:54Z</time>
      </trkpt>
      <trkpt lat="45.09911" lon="6.16053">
        <ele>1689.7</ele>
        <time>2026-08-25T09:35:55Z</time>
      </trkpt>
      <trkpt lat="45.09913" lon="6.16051">
        <ele>1690</ele>
        <time>2026-08-25T09:35:56Z</time>
      </trkpt>
      <trkpt lat="45.09915" lon="6.1605">
        <ele>1690.3</ele>
        <time>2026-08-25T09:35:57Z</time>
      </trkpt>
      <trkpt lat="45.09918" lon="6.16049">
        <ele>1690.6</ele>
        <time>2026-08-25T09:35:58Z</time>
      </trkpt>
      <trkpt lat="45.0992" lon="6.16048">
        <ele>1690.9</ele>
        <time>2026-08-25T09:35:59Z</time>
      </trkpt>
      <trkpt lat="45.09923" lon="6.16048">
        <ele>1691.2</ele>
        <time>2026-08-25T09:36:00Z</time>
      </trkpt>
      <trkpt lat="45.09925" lon="6.16048">
        <ele>1691.4</ele>
        <time>2026-08-25T09:36:01Z</time>
      </trkpt>
      <trkpt lat="45.09928" lon="6.16047">
        <ele>1691.7</ele>
        <time>2026-08-25T09:36:02Z</time>
      </trkpt>
      <trkpt lat="45.09931" lon="6.16047">
        <ele>1692.1</ele>
        <time>2026-08-25T09:36:03Z</time>
      </trkpt>
      <trkpt lat="45.09934" lon="6.16047">
        <ele>1692.4</ele>
        <time>2026-08-25T09:36:04Z</time>
      </trkpt>
      <trkpt lat="45.09936" lon="6.16047">
        <ele>1692.6</ele>
        <time>2026-08-25T09:36:05Z</time>
      </trkpt>
      <trkpt lat="45.09939" lon="6.16047">
        <ele>1692.9</ele>
        <time>2026-08-25T09:36:06Z</time>
      </trkpt>
      <trkpt lat="45.09941" lon="6.16048">
        <ele>1693.2</ele>
        <time>2026-08-25T09:36:07Z</time>
      </trkpt>
      <trkpt lat="45.09944" lon="6.16049">
        <ele>1693.5</ele>
        <time>2026-08-25T09:36:08Z</time>
      </trkpt>
      <trkpt lat="45.09946" lon="6.1605">
        <ele>1693.8</ele>
        <time>2026-08-25T09:36:09Z</time>
      </trkpt>
      <trkpt lat="45.09949" lon="6.16051">
        <ele>1694.1</ele>
        <time>2026-08-25T09:36:10Z</time>
      </trkpt>
      <trkpt lat="45.09952" lon="6.16052">
        <ele>1694.5</ele>
        <time>2026-08-25T09:36:11Z</time>
      </trkpt>
      <trkpt lat="45.09955" lon="6.16053">
        <ele>1694.8</ele>
        <time>2026-08-25T09:36:12Z</time>
      </trkpt>
      <trkpt lat="45.09957" lon="6.16054">
        <ele>1695.1</ele>
        <time>2026-08-25T09:36:13Z</time>
      </trkpt>
      <trkpt lat="45.0996" lon="6.16056">
        <ele>1695.3</ele>
        <time>2026-08-25T09:36:14Z</time>
      </trkpt>
      <trkpt lat="45.09962" lon="6.16057">
        <ele>1695.6</ele>
        <time>2026-08-25T09:36:15Z</time>
      </trkpt>
      <trkpt lat="45.09964" lon="6.16059">
        <ele>1695.8</ele>
        <time>2026-08-25T09:36:16Z</time>
      </trkpt>
      <trkpt lat="45.09967" lon="6.16059">
        <ele>1696.1</ele>
        <time>2026-08-25T09:36:17Z</time>
      </trkpt>
      <trkpt lat="45.09969" lon="6.1606">
        <ele>1696.3</ele>
        <time>2026-08-25T09:36:18Z</time>
      </trkpt>
      <trkpt lat="45.09971" lon="6.16062">
        <ele>1696.6</ele>
        <time>2026-08-25T09:36:19Z</time>
      </trkpt>
      <trkpt lat="45.09974" lon="6.16063">
        <ele>1696.8</ele>
        <time>2026-08-25T09:36:20Z</time>
      </trkpt>
      <trkpt lat="45.09976" lon="6.16065">
        <ele>1697.1</ele>
        <time>2026-08-25T09:36:21Z</time>
      </trkpt>
      <trkpt lat="45.09979" lon="6.16066">
        <ele>1697.4</ele>
        <time>2026-08-25T09:36:22Z</time>
      </trkpt>
      <trkpt lat="45.09982" lon="6.16068">
        <ele>1697.7</ele>
        <time>2026-08-25T09:36:23Z</time>
      </trkpt>
      <trkpt lat="45.09984" lon="6.16069">
        <ele>1697.9</ele>
        <time>2026-08-25T09:36:24Z</time>
      </trkpt>
      <trkpt lat="45.09986" lon="6.16069">
        <ele>1698.2</ele>
        <time>2026-08-25T09:36:25Z</time>
      </trkpt>
      <trkpt lat="45.09987" lon="6.16069">
        <ele>1698.3</ele>
        <time>2026-08-25T09:36:26Z</time>
      </trkpt>
      <trkpt lat="45.09988" lon="6.16069">
        <ele>1698.3</ele>
        <time>2026-08-25T09:36:27Z</time>
      </trkpt>
      <trkpt lat="45.09988" lon="6.16069">
        <ele>1698.3</ele>
        <time>2026-08-25T09:36:28Z</time>
      </trkpt>
      <trkpt lat="45.09987" lon="6.16069">
        <ele>1698.3</ele>
        <time>2026-08-25T09:36:29Z</time>
      </trkpt>
      <trkpt lat="45.09988" lon="6.16069">
        <ele>1698.4</ele>
        <time>2026-08-25T09:36:30Z</time>
      </trkpt>
      <trkpt lat="45.09995" lon="6.16064">
        <ele>1699.2</ele>
        <time>2026-08-25T09:36:56Z</time>
      </trkpt>
      <trkpt lat="45.09994" lon="6.16061">
        <ele>1699.4</ele>
        <time>2026-08-25T09:36:57Z</time>
      </trkpt>
      <trkpt lat="45.09993" lon="6.16058">
        <ele>1699.7</ele>
        <time>2026-08-25T09:36:58Z</time>
      </trkpt>
      <trkpt lat="45.09991" lon="6.16055">
        <ele>1699.9</ele>
        <time>2026-08-25T09:36:59Z</time>
      </trkpt>
      <trkpt lat="45.09989" lon="6.16052">
        <ele>1700.1</ele>
        <time>2026-08-25T09:37:00Z</time>
      </trkpt>
      <trkpt lat="45.09988" lon="6.1605">
        <ele>1700.3</ele>
        <time>2026-08-25T09:37:01Z</time>
      </trkpt>
      <trkpt lat="45.09986" lon="6.16048">
        <ele>1700.4</ele>
        <time>2026-08-25T09:37:02Z</time>
      </trkpt>
      <trkpt lat="45.09983" lon="6.16046">
        <ele>1700.6</ele>
        <time>2026-08-25T09:37:03Z</time>
      </trkpt>
      <trkpt lat="45.0998" lon="6.16045">
        <ele>1700.8</ele>
        <time>2026-08-25T09:37:04Z</time>
      </trkpt>
      <trkpt lat="45.09978" lon="6.16043">
        <ele>1701</ele>
        <time>2026-08-25T09:37:05Z</time>
      </trkpt>
      <trkpt lat="45.09976" lon="6.16042">
        <ele>1701.2</ele>
        <time>2026-08-25T09:37:06Z</time>
      </trkpt>
      <trkpt lat="45.09973" lon="6.1604">
        <ele>1701.4</ele>
        <time>2026-08-25T09:37:07Z</time>
      </trkpt>
      <trkpt lat="45.0997" lon="6.16038">
        <ele>1701.6</ele>
        <time>2026-08-25T09:37:08Z</time>
      </trkpt>
      <trkpt lat="45.09968" lon="6.16036">
        <ele>1701.8</ele>
        <time>2026-08-25T09:37:09Z</time>
      </trkpt>
      <trkpt lat="45.09966" lon="6.16034">
        <ele>1702</ele>
        <time>2026-08-25T09:37:10Z</time>
      </trkpt>
      <trkpt lat="45.09963" lon="6.16032">
        <ele>1702.2</ele>
        <time>2026-08-25T09:37:11Z</time>
      </trkpt>
      <trkpt lat="45.09961" lon="6.16029">
        <ele>1702.4</ele>
        <time>2026-08-25T09:37:12Z</time>
      </trkpt>
      <trkpt lat="45.09959" lon="6.16027">
        <ele>1702.7</ele>
        <time>2026-08-25T09:37:13Z</time>
      </trkpt>
      <trkpt lat="45.09956" lon="6.16024">
        <ele>1702.9</ele>
        <time>2026-08-25T09:37:14Z</time>
      </trkpt>
      <trkpt lat="45.09954" lon="6.16021">
        <ele>1703.2</ele>
        <time>2026-08-25T09:37:15Z</time>
      </trkpt>
      <trkpt lat="45.09952" lon="6.16019">
        <ele>1703.4</ele>
        <time>2026-08-25T09:37:16Z</time>
      </trkpt>
      <trkpt lat="45.0995" lon="6.16016">
        <ele>1703.7</ele>
        <time>2026-08-25T09:37:17Z</time>
      </trkpt>
      <trkpt lat="45.09947" lon="6.16014">
        <ele>1704</ele>
        <time>2026-08-25T09:37:18Z</time>
      </trkpt>
      <trkpt lat="45.09944" lon="6.16012">
        <ele>1704.2</ele>
        <time>2026-08-25T09:37:19Z</time>
      </trkpt>
      <trkpt lat="45.09941" lon="6.16011">
        <ele>1704.5</ele>
        <time>2026-08-25T09:37:20Z</time>
      </trkpt>
      <trkpt lat="45.09939" lon="6.1601">
        <ele>1704.8</ele>
        <time>2026-08-25T09:37:21Z</time>
      </trkpt>
      <trkpt lat="45.09936" lon="6.16009">
        <ele>1705</ele>
        <time>2026-08-25T09:37:22Z</time>
      </trkpt>
      <trkpt lat="45.09933" lon="6.16009">
        <ele>1705.3</ele>
        <time>2026-08-25T09:37:23Z</time>
      </trkpt>
      <trkpt lat="45.0993" lon="6.16009">
        <ele>1705.5</ele>
        <time>2026-08-25T09:37:24Z</time>
      </trkpt>
      <trkpt lat="45.09928" lon="6.16007">
        <ele>1705.8</ele>
        <time>2026-08-25T09:37:25Z</time>
      </trkpt>
      <trkpt lat="45.09925" lon="6.16006">
        <ele>1706.1</ele>
        <time>2026-08-25T09:37:26Z</time>
      </trkpt>
      <trkpt lat="45.09923" lon="6.16004">
        <ele>1706.4</ele>
        <time>2026-08-25T09:37:27Z</time>
      </trkpt>
      <trkpt lat="45.09921" lon="6.16001">
        <ele>1706.6</ele>
        <time>2026-08-25T09:37:28Z</time>
      </trkpt>
      <trkpt lat="45.0992" lon="6.15997">
        <ele>1706.9</ele>
        <time>2026-08-25T09:37:29Z</time>
      </trkpt>
      <trkpt lat="45.09921" lon="6.15993">
        <ele>1707.2</ele>
        <time>2026-08-25T09:37:30Z</time>
      </trkpt>
      <trkpt lat="45.09922" lon="6.15989">
        <ele>1707.4</ele>
        <time>2026-08-25T09:37:31Z</time>
      </trkpt>
      <trkpt lat="45.09924" lon="6.15987">
        <ele>1707.7</ele>
        <time>2026-08-25T09:37:32Z</time>
      </trkpt>
      <trkpt lat="45.09926" lon="6.15986">
        <ele>1707.9</ele>
        <time>2026-08-25T09:37:33Z</time>
      </trkpt>
      <trkpt lat="45.09929" lon="6.15986">
        <ele>1708.2</ele>
        <time>2026-08-25T09:37:34Z</time>
      </trkpt>
      <trkpt lat="45.09932" lon="6.15987">
        <ele>1708.4</ele>
        <time>2026-08-25T09:37:35Z</time>
      </trkpt>
      <trkpt lat="45.09935" lon="6.15988">
        <ele>1708.7</ele>
        <time>2026-08-25T09:37:36Z</time>
      </trkpt>
      <trkpt lat="45.09938" lon="6.1599">
        <ele>1708.9</ele>
        <time>2026-08-25T09:37:37Z</time>
      </trkpt>
      <trkpt lat="45.0994" lon="6.15992">
        <ele>1709.1</ele>
        <time>2026-08-25T09:37:38Z</time>
      </trkpt>
      <trkpt lat="45.09943" lon="6.15993">
        <ele>1709.4</ele>
        <time>2026-08-25T09:37:39Z</time>
      </trkpt>
      <trkpt lat="45.09945" lon="6.15994">
        <ele>1709.6</ele>
        <time>2026-08-25T09:37:40Z</time>
      </trkpt>
      <trkpt lat="45.09948" lon="6.15996">
        <ele>1709.9</ele>
        <time>2026-08-25T09:37:41Z</time>
      </trkpt>
      <trkpt lat="45.0995" lon="6.15997">
        <ele>1710.1</ele>
        <time>2026-08-25T09:37:42Z</time>
      </trkpt>
      <trkpt lat="45.09952" lon="6.15999">
        <ele>1710.4</ele>
        <time>2026-08-25T09:37:43Z</time>
      </trkpt>
      <trkpt lat="45.09955" lon="6.16">
        <ele>1710.7</ele>
        <time>2026-08-25T09:37:44Z</time>
      </trkpt>
      <trkpt lat="45.09957" lon="6.16001">
        <ele>1710.9</ele>
        <time>2026-08-25T09:37:45Z</time>
      </trkpt>
      <trkpt lat="45.0996" lon="6.16002">
        <ele>1711.2</ele>
        <time>2026-08-25T09:37:46Z</time>
      </trkpt>
      <trkpt lat="45.09962" lon="6.16003">
        <ele>1711.5</ele>
        <time>2026-08-25T09:37:47Z</time>
      </trkpt>
      <trkpt lat="45.09965" lon="6.16004">
        <ele>1711.8</ele>
        <time>2026-08-25T09:37:48Z</time>
      </trkpt>
      <trkpt lat="45.09967" lon="6.16005">
        <ele>1712</ele>
        <time>2026-08-25T09:37:49Z</time>
      </trkpt>
      <trkpt lat="45.0997" lon="6.16005">
        <ele>1712.4</ele>
        <time>2026-08-25T09:37:50Z</time>
      </trkpt>
      <trkpt lat="45.09973" lon="6.16006">
        <ele>1712.7</ele>
        <time>2026-08-25T09:37:51Z</time>
      </trkpt>
      <trkpt lat="45.09975" lon="6.16007">
        <ele>1713</ele>
        <time>2026-08-25T09:37:52Z</time>
      </trkpt>
      <trkpt lat="45.09978" lon="6.16007">
        <ele>1713.3</ele>
        <time>2026-08-25T09:37:53Z</time>
      </trkpt>
      <trkpt lat="45.09981" lon="6.16008">
        <ele>1713.7</ele>
        <time>2026-08-25T09:37:54Z</time>
      </trkpt>
      <trkpt lat="45.09984" lon="6.1601">
        <ele>1714.1</ele>
        <time>2026-08-25T09:37:55Z</time>
      </trkpt>
      <trkpt lat="45.09986" lon="6.16012">
        <ele>1714.4</ele>
        <time>2026-08-25T09:37:56Z</time>
      </trkpt>
      <trkpt lat="45.09988" lon="6.16014">
        <ele>1714.7</ele>
        <time>2026-08-25T09:37:57Z</time>
      </trkpt>
      <trkpt lat="45.0999" lon="6.16016">
        <ele>1715</ele>
        <time>2026-08-25T09:37:58Z</time>
      </trkpt>
      <trkpt lat="45.09992" lon="6.16018">
        <ele>1715.3</ele>
        <time>2026-08-25T09:37:59Z</time>
      </trkpt>
      <trkpt lat="45.09994" lon="6.1602">
        <ele>1715.6</ele>
        <time>2026-08-25T09:38:00Z</time>
      </trkpt>
      <trkpt lat="45.09997" lon="6.16022">
        <ele>1716</ele>
        <time>2026-08-25T09:38:01Z</time>
      </trkpt>
      <trkpt lat="45.09999" lon="6.16023">
        <ele>1716.3</ele>
        <time>2026-08-25T09:38:02Z</time>
      </trkpt>
      <trkpt lat="45.10002" lon="6.16022">
        <ele>1716.7</ele>
        <time>2026-08-25T09:38:03Z</time>
      </trkpt>
      <trkpt lat="45.10005" lon="6.16021">
        <ele>1717</ele>
        <time>2026-08-25T09:38:04Z</time>
      </trkpt>
      <trkpt lat="45.10007" lon="6.16019">
        <ele>1717.4</ele>
        <time>2026-08-25T09:38:05Z</time>
      </trkpt>
      <trkpt lat="45.10009" lon="6.16015">
        <ele>1717.8</ele>
        <time>2026-08-25T09:38:06Z</time>
      </trkpt>
      <trkpt lat="45.1001" lon="6.16011">
        <ele>1718.1</ele>
        <time>2026-08-25T09:38:07Z</time>
      </trkpt>
      <trkpt lat="45.1001" lon="6.16007">
        <ele>1718.3</ele>
        <time>2026-08-25T09:38:08Z</time>
      </trkpt>
      <trkpt lat="45.10009" lon="6.16004">
        <ele>1718.5</ele>
        <time>2026-08-25T09:38:09Z</time>
      </trkpt>
      <trkpt lat="45.10008" lon="6.16">
        <ele>1718.8</ele>
        <time>2026-08-25T09:38:10Z</time>
      </trkpt>
      <trkpt lat="45.10007" lon="6.15997">
        <ele>1719</ele>
        <time>2026-08-25T09:38:11Z</time>
      </trkpt>
      <trkpt lat="45.10005" lon="6.15994">
        <ele>1719.2</ele>
        <time>2026-08-25T09:38:12Z</time>
      </trkpt>
      <trkpt lat="45.10003" lon="6.15992">
        <ele>1719.4</ele>
        <time>2026-08-25T09:38:13Z</time>
      </trkpt>
      <trkpt lat="45.1" lon="6.15989">
        <ele>1719.7</ele>
        <time>2026-08-25T09:38:14Z</time>
      </trkpt>
      <trkpt lat="45.09998" lon="6.15987">
        <ele>1720</ele>
        <time>2026-08-25T09:38:15Z</time>
      </trkpt>
      <trkpt lat="45.09995" lon="6.15986">
        <ele>1720.2</ele>
        <time>2026-08-25T09:38:16Z</time>
      </trkpt>
      <trkpt lat="45.09992" lon="6.15984">
        <ele>1720.5</ele>
        <time>2026-08-25T09:38:17Z</time>
      </trkpt>
      <trkpt lat="45.09989" lon="6.15983">
        <ele>1720.7</ele>
        <time>2026-08-25T09:38:18Z</time>
      </trkpt>
      <trkpt lat="45.09986" lon="6.15982">
        <ele>1721</ele>
        <time>2026-08-25T09:38:19Z</time>
      </trkpt>
      <trkpt lat="45.09984" lon="6.1598">
        <ele>1721.2</ele>
        <time>2026-08-25T09:38:20Z</time>
      </trkpt>
      <trkpt lat="45.09982" lon="6.15978">
        <ele>1721.5</ele>
        <time>2026-08-25T09:38:21Z</time>
      </trkpt>
      <trkpt lat="45.0998" lon="6.15977">
        <ele>1721.7</ele>
        <time>2026-08-25T09:38:22Z</time>
      </trkpt>
      <trkpt lat="45.09978" lon="6.15975">
        <ele>1721.9</ele>
        <time>2026-08-25T09:38:23Z</time>
      </trkpt>
      <trkpt lat="45.09976" lon="6.15974">
        <ele>1722.2</ele>
        <time>2026-08-25T09:38:24Z</time>
      </trkpt>
      <trkpt lat="45.09974" lon="6.15972">
        <ele>1722.4</ele>
        <time>2026-08-25T09:38:25Z</time>
      </trkpt>
      <trkpt lat="45.09972" lon="6.15969">
        <ele>1722.6</ele>
        <time>2026-08-25T09:38:26Z</time>
      </trkpt>
      <trkpt lat="45.0997" lon="6.15967">
        <ele>1722.9</ele>
        <time>2026-08-25T09:38:27Z</time>
      </trkpt>
      <trkpt lat="45.09968" lon="6.15964">
        <ele>1723.2</ele>
        <time>2026-08-25T09:38:28Z</time>
      </trkpt>
      <trkpt lat="45.09966" lon="6.15961">
        <ele>1723.4</ele>
        <time>2026-08-25T09:38:29Z</time>
      </trkpt>
      <trkpt lat="45.09964" lon="6.15959">
        <ele>1723.7</ele>
        <time>2026-08-25T09:38:30Z</time>
      </trkpt>
      <trkpt lat="45.09962" lon="6.15957">
        <ele>1723.9</ele>
        <time>2026-08-25T09:38:31Z</time>
      </trkpt>
      <trkpt lat="45.0996" lon="6.15954">
        <ele>1724.2</ele>
        <time>2026-08-25T09:38:32Z</time>
      </trkpt>
      <trkpt lat="45.09958" lon="6.15952">
        <ele>1724.5</ele>
        <time>2026-08-25T09:38:33Z</time>
      </trkpt>
      <trkpt lat="45.09957" lon="6.1595">
        <ele>1724.8</ele>
        <time>2026-08-25T09:38:34Z</time>
      </trkpt>
      <trkpt lat="45.09955" lon="6.15947">
        <ele>1725</ele>
        <time>2026-08-25T09:38:35Z</time>
      </trkpt>
      <trkpt lat="45.09953" lon="6.15945">
        <ele>1725.3</ele>
        <time>2026-08-25T09:38:36Z</time>
      </trkpt>
      <trkpt lat="45.09951" lon="6.15943">
        <ele>1725.6</ele>
        <time>2026-08-25T09:38:37Z</time>
      </trkpt>
      <trkpt lat="45.09949" lon="6.15941">
        <ele>1725.8</ele>
        <time>2026-08-25T09:38:38Z</time>
      </trkpt>
      <trkpt lat="45.09947" lon="6.15939">
        <ele>1726.1</ele>
        <time>2026-08-25T09:38:39Z</time>
      </trkpt>
      <trkpt lat="45.09945" lon="6.15936">
        <ele>1726.4</ele>
        <time>2026-08-25T09:38:40Z</time>
      </trkpt>
      <trkpt lat="45.09942" lon="6.15934">
        <ele>1726.7</ele>
        <time>2026-08-25T09:38:41Z</time>
      </trkpt>
      <trkpt lat="45.0994" lon="6.15932">
        <ele>1727</ele>
        <time>2026-08-25T09:38:42Z</time>
      </trkpt>
      <trkpt lat="45.09939" lon="6.1593">
        <ele>1727.2</ele>
        <time>2026-08-25T09:38:43Z</time>
      </trkpt>
      <trkpt lat="45.09937" lon="6.15928">
        <ele>1727.5</ele>
        <time>2026-08-25T09:38:44Z</time>
      </trkpt>
      <trkpt lat="45.09935" lon="6.15926">
        <ele>1727.8</ele>
        <time>2026-08-25T09:38:45Z</time>
      </trkpt>
      <trkpt lat="45.09933" lon="6.15923">
        <ele>1728.1</ele>
        <time>2026-08-25T09:38:46Z</time>
      </trkpt>
      <trkpt lat="45.09931" lon="6.15921">
        <ele>1728.4</ele>
        <time>2026-08-25T09:38:47Z</time>
      </trkpt>
      <trkpt lat="45.09929" lon="6.15919">
        <ele>1728.7</ele>
        <time>2026-08-25T09:38:48Z</time>
      </trkpt>
      <trkpt lat="45.09927" lon="6.15916">
        <ele>1729</ele>
        <time>2026-08-25T09:38:49Z</time>
      </trkpt>
      <trkpt lat="45.09925" lon="6.15913">
        <ele>1729.3</ele>
        <time>2026-08-25T09:38:50Z</time>
      </trkpt>
      <trkpt lat="45.09923" lon="6.15911">
        <ele>1729.6</ele>
        <time>2026-08-25T09:38:51Z</time>
      </trkpt>
      <trkpt lat="45.09921" lon="6.15909">
        <ele>1729.9</ele>
        <time>2026-08-25T09:38:52Z</time>
      </trkpt>
      <trkpt lat="45.09919" lon="6.15907">
        <ele>1730.2</ele>
        <time>2026-08-25T09:38:53Z</time>
      </trkpt>
      <trkpt lat="45.09916" lon="6.15905">
        <ele>1730.5</ele>
        <time>2026-08-25T09:38:54Z</time>
      </trkpt>
      <trkpt lat="45.09914" lon="6.15903">
        <ele>1730.8</ele>
        <time>2026-08-25T09:38:55Z</time>
      </trkpt>
      <trkpt lat="45.09912" lon="6.159">
        <ele>1731.1</ele>
        <time>2026-08-25T09:38:56Z</time>
      </trkpt>
      <trkpt lat="45.0991" lon="6.15898">
        <ele>1731.4</ele>
        <time>2026-08-25T09:38:57Z</time>
      </trkpt>
      <trkpt lat="45.09907" lon="6.15897">
        <ele>1731.7</ele>
        <time>2026-08-25T09:38:58Z</time>
      </trkpt>
      <trkpt lat="45.09904" lon="6.15896">
        <ele>1732.1</ele>
        <time>2026-08-25T09:38:59Z</time>
      </trkpt>
      <trkpt lat="45.09902" lon="6.15894">
        <ele>1732.3</ele>
        <time>2026-08-25T09:39:00Z</time>
      </trkpt>
      <trkpt lat="45.09899" lon="6.15893">
        <ele>1732.6</ele>
        <time>2026-08-25T09:39:01Z</time>
      </trkpt>
      <trkpt lat="45.09897" lon="6.15892">
        <ele>1732.9</ele>
        <time>2026-08-25T09:39:02Z</time>
      </trkpt>
      <trkpt lat="45.09894" lon="6.1589">
        <ele>1733.2</ele>
        <time>2026-08-25T09:39:03Z</time>
      </trkpt>
      <trkpt lat="45.09892" lon="6.15889">
        <ele>1733.6</ele>
        <time>2026-08-25T09:39:04Z</time>
      </trkpt>
      <trkpt lat="45.09889" lon="6.15888">
        <ele>1733.9</ele>
        <time>2026-08-25T09:39:05Z</time>
      </trkpt>
      <trkpt lat="45.09887" lon="6.15887">
        <ele>1734.1</ele>
        <time>2026-08-25T09:39:06Z</time>
      </trkpt>
      <trkpt lat="45.09884" lon="6.15885">
        <ele>1734.4</ele>
        <time>2026-08-25T09:39:07Z</time>
      </trkpt>
      <trkpt lat="45.09882" lon="6.15883">
        <ele>1734.6</ele>
        <time>2026-08-25T09:39:08Z</time>
      </trkpt>
      <trkpt lat="45.0988" lon="6.15881">
        <ele>1734.9</ele>
        <time>2026-08-25T09:39:09Z</time>
      </trkpt>
      <trkpt lat="45.09878" lon="6.15878">
        <ele>1735.2</ele>
        <time>2026-08-25T09:39:10Z</time>
      </trkpt>
      <trkpt lat="45.09876" lon="6.15875">
        <ele>1735.5</ele>
        <time>2026-08-25T09:39:11Z</time>
      </trkpt>
      <trkpt lat="45.09875" lon="6.15872">
        <ele>1735.8</ele>
        <time>2026-08-25T09:39:12Z</time>
      </trkpt>
      <trkpt lat="45.09874" lon="6.15868">
        <ele>1736.1</ele>
        <time>2026-08-25T09:39:13Z</time>
      </trkpt>
      <trkpt lat="45.09872" lon="6.15865">
        <ele>1736.4</ele>
        <time>2026-08-25T09:39:14Z</time>
      </trkpt>
      <trkpt lat="45.09871" lon="6.15861">
        <ele>1736.7</ele>
        <time>2026-08-25T09:39:15Z</time>
      </trkpt>
      <trkpt lat="45.0987" lon="6.15858">
        <ele>1736.9</ele>
        <time>2026-08-25T09:39:16Z</time>
      </trkpt>
      <trkpt lat="45.09869" lon="6.15854">
        <ele>1737.2</ele>
        <time>2026-08-25T09:39:17Z</time>
      </trkpt>
      <trkpt lat="45.09868" lon="6.15851">
        <ele>1737.5</ele>
        <time>2026-08-25T09:39:18Z</time>
      </trkpt>
      <trkpt lat="45.09868" lon="6.15847">
        <ele>1737.8</ele>
        <time>2026-08-25T09:39:19Z</time>
      </trkpt>
      <trkpt lat="45.09866" lon="6.15844">
        <ele>1738.2</ele>
        <time>2026-08-25T09:39:20Z</time>
      </trkpt>
      <trkpt lat="45.09866" lon="6.1584">
        <ele>1738.5</ele>
        <time>2026-08-25T09:39:21Z</time>
      </trkpt>
      <trkpt lat="45.09864" lon="6.15836">
        <ele>1738.8</ele>
        <time>2026-08-25T09:39:22Z</time>
      </trkpt>
      <trkpt lat="45.09863" lon="6.15834">
        <ele>1739.1</ele>
        <time>2026-08-25T09:39:23Z</time>
      </trkpt>
      <trkpt lat="45.09862" lon="6.15831">
        <ele>1739.3</ele>
        <time>2026-08-25T09:39:24Z</time>
      </trkpt>
      <trkpt lat="45.09861" lon="6.15828">
        <ele>1739.6</ele>
        <time>2026-08-25T09:39:25Z</time>
      </trkpt>
      <trkpt lat="45.0986" lon="6.15825">
        <ele>1739.9</ele>
        <time>2026-08-25T09:39:26Z</time>
      </trkpt>
      <trkpt lat="45.09859" lon="6.15823">
        <ele>1740.1</ele>
        <time>2026-08-25T09:39:27Z</time>
      </trkpt>
      <trkpt lat="45.09859" lon="6.15821">
        <ele>1740.4</ele>
        <time>2026-08-25T09:39:28Z</time>
      </trkpt>
      <trkpt lat="45.09857" lon="6.15818">
        <ele>1740.7</ele>
        <time>2026-08-25T09:39:29Z</time>
      </trkpt>
      <trkpt lat="45.09855" lon="6.15815">
        <ele>1741</ele>
        <time>2026-08-25T09:39:30Z</time>
      </trkpt>
      <trkpt lat="45.09854" lon="6.15813">
        <ele>1741.3</ele>
        <time>2026-08-25T09:39:31Z</time>
      </trkpt>
      <trkpt lat="45.09852" lon="6.1581">
        <ele>1741.6</ele>
        <time>2026-08-25T09:39:32Z</time>
      </trkpt>
      <trkpt lat="45.0985" lon="6.15808">
        <ele>1741.9</ele>
        <time>2026-08-25T09:39:33Z</time>
      </trkpt>
      <trkpt lat="45.09849" lon="6.15805">
        <ele>1742.2</ele>
        <time>2026-08-25T09:39:34Z</time>
      </trkpt>
      <trkpt lat="45.09847" lon="6.15803">
        <ele>1742.4</ele>
        <time>2026-08-25T09:39:35Z</time>
      </trkpt>
      <trkpt lat="45.09846" lon="6.158">
        <ele>1742.7</ele>
        <time>2026-08-25T09:39:36Z</time>
      </trkpt>
      <trkpt lat="45.09844" lon="6.15798">
        <ele>1742.9</ele>
        <time>2026-08-25T09:39:37Z</time>
      </trkpt>
      <trkpt lat="45.09843" lon="6.15795">
        <ele>1743.2</ele>
        <time>2026-08-25T09:39:38Z</time>
      </trkpt>
      <trkpt lat="45.09841" lon="6.15793">
        <ele>1743.4</ele>
        <time>2026-08-25T09:39:39Z</time>
      </trkpt>
      <trkpt lat="45.0984" lon="6.15791">
        <ele>1743.5</ele>
        <time>2026-08-25T09:39:40Z</time>
      </trkpt>
      <trkpt lat="45.09838" lon="6.15789">
        <ele>1743.7</ele>
        <time>2026-08-25T09:39:41Z</time>
      </trkpt>
      <trkpt lat="45.09836" lon="6.15787">
        <ele>1743.9</ele>
        <time>2026-08-25T09:39:42Z</time>
      </trkpt>
      <trkpt lat="45.09835" lon="6.15785">
        <ele>1744.1</ele>
        <time>2026-08-25T09:39:43Z</time>
      </trkpt>
      <trkpt lat="45.09833" lon="6.15783">
        <ele>1744.3</ele>
        <time>2026-08-25T09:39:44Z</time>
      </trkpt>
      <trkpt lat="45.09831" lon="6.15781">
        <ele>1744.5</ele>
        <time>2026-08-25T09:39:45Z</time>
      </trkpt>
      <trkpt lat="45.09829" lon="6.15779">
        <ele>1744.8</ele>
        <time>2026-08-25T09:39:46Z</time>
      </trkpt>
      <trkpt lat="45.09826" lon="6.15777">
        <ele>1745</ele>
        <time>2026-08-25T09:39:47Z</time>
      </trkpt>
      <trkpt lat="45.09824" lon="6.15775">
        <ele>1745.2</ele>
        <time>2026-08-25T09:39:48Z</time>
      </trkpt>
      <trkpt lat="45.09822" lon="6.15773">
        <ele>1745.5</ele>
        <time>2026-08-25T09:39:49Z</time>
      </trkpt>
      <trkpt lat="45.0982" lon="6.15771">
        <ele>1745.7</ele>
        <time>2026-08-25T09:39:50Z</time>
      </trkpt>
      <trkpt lat="45.09818" lon="6.15769">
        <ele>1746</ele>
        <time>2026-08-25T09:39:51Z</time>
      </trkpt>
      <trkpt lat="45.09815" lon="6.15767">
        <ele>1746.3</ele>
        <time>2026-08-25T09:39:52Z</time>
      </trkpt>
      <trkpt lat="45.09813" lon="6.15765">
        <ele>1746.6</ele>
        <time>2026-08-25T09:39:53Z</time>
      </trkpt>
      <trkpt lat="45.09811" lon="6.15763">
        <ele>1746.8</ele>
        <time>2026-08-25T09:39:54Z</time>
      </trkpt>
      <trkpt lat="45.09809" lon="6.15761">
        <ele>1747.1</ele>
        <time>2026-08-25T09:39:55Z</time>
      </trkpt>
      <trkpt lat="45.09807" lon="6.1576">
        <ele>1747.3</ele>
        <time>2026-08-25T09:39:56Z</time>
      </trkpt>
      <trkpt lat="45.09805" lon="6.15758">
        <ele>1747.6</ele>
        <time>2026-08-25T09:39:57Z</time>
      </trkpt>
      <trkpt lat="45.09803" lon="6.15756">
        <ele>1747.9</ele>
        <time>2026-08-25T09:39:58Z</time>
      </trkpt>
      <trkpt lat="45.09801" lon="6.15754">
        <ele>1748.2</ele>
        <time>2026-08-25T09:39:59Z</time>
      </trkpt>
      <trkpt lat="45.09799" lon="6.15752">
        <ele>1748.5</ele>
        <time>2026-08-25T09:40:00Z</time>
      </trkpt>
      <trkpt lat="45.09797" lon="6.1575">
        <ele>1748.8</ele>
        <time>2026-08-25T09:40:01Z</time>
      </trkpt>
      <trkpt lat="45.09795" lon="6.15747">
        <ele>1749.1</ele>
        <time>2026-08-25T09:40:02Z</time>
      </trkpt>
      <trkpt lat="45.09793" lon="6.15745">
        <ele>1749.3</ele>
        <time>2026-08-25T09:40:03Z</time>
      </trkpt>
      <trkpt lat="45.09792" lon="6.15742">
        <ele>1749.6</ele>
        <time>2026-08-25T09:40:04Z</time>
      </trkpt>
      <trkpt lat="45.0979" lon="6.15739">
        <ele>1749.9</ele>
        <time>2026-08-25T09:40:05Z</time>
      </trkpt>
      <trkpt lat="45.09789" lon="6.15737">
        <ele>1750.2</ele>
        <time>2026-08-25T09:40:06Z</time>
      </trkpt>
      <trkpt lat="45.09787" lon="6.15734">
        <ele>1750.4</ele>
        <time>2026-08-25T09:40:07Z</time>
      </trkpt>
      <trkpt lat="45.09785" lon="6.15732">
        <ele>1750.7</ele>
        <time>2026-08-25T09:40:08Z</time>
      </trkpt>
      <trkpt lat="45.09783" lon="6.1573">
        <ele>1751</ele>
        <time>2026-08-25T09:40:09Z</time>
      </trkpt>
      <trkpt lat="45.09782" lon="6.15728">
        <ele>1751.2</ele>
        <time>2026-08-25T09:40:10Z</time>
      </trkpt>
      <trkpt lat="45.0978" lon="6.15726">
        <ele>1751.5</ele>
        <time>2026-08-25T09:40:11Z</time>
      </trkpt>
      <trkpt lat="45.09778" lon="6.15723">
        <ele>1751.8</ele>
        <time>2026-08-25T09:40:12Z</time>
      </trkpt>
      <trkpt lat="45.09777" lon="6.1572">
        <ele>1752</ele>
        <time>2026-08-25T09:40:13Z</time>
      </trkpt>
      <trkpt lat="45.09775" lon="6.15717">
        <ele>1752.3</ele>
        <time>2026-08-25T09:40:14Z</time>
      </trkpt>
      <trkpt lat="45.09773" lon="6.15715">
        <ele>1752.6</ele>
        <time>2026-08-25T09:40:15Z</time>
      </trkpt>
      <trkpt lat="45.09772" lon="6.15712">
        <ele>1752.8</ele>
        <time>2026-08-25T09:40:16Z</time>
      </trkpt>
      <trkpt lat="45.0977" lon="6.1571">
        <ele>1753.1</ele>
        <time>2026-08-25T09:40:17Z</time>
      </trkpt>
      <trkpt lat="45.09768" lon="6.15707">
        <ele>1753.3</ele>
        <time>2026-08-25T09:40:18Z</time>
      </trkpt>
      <trkpt lat="45.09766" lon="6.15705">
        <ele>1753.6</ele>
        <time>2026-08-25T09:40:19Z</time>
      </trkpt>
      <trkpt lat="45.09764" lon="6.15703">
        <ele>1753.9</ele>
        <time>2026-08-25T09:40:20Z</time>
      </trkpt>
      <trkpt lat="45.09762" lon="6.157">
        <ele>1754.1</ele>
        <time>2026-08-25T09:40:21Z</time>
      </trkpt>
      <trkpt lat="45.0976" lon="6.15698">
        <ele>1754.4</ele>
        <time>2026-08-25T09:40:22Z</time>
      </trkpt>
      <trkpt lat="45.09758" lon="6.15696">
        <ele>1754.6</ele>
        <time>2026-08-25T09:40:23Z</time>
      </trkpt>
      <trkpt lat="45.09756" lon="6.15693">
        <ele>1754.9</ele>
        <time>2026-08-25T09:40:24Z</time>
      </trkpt>
      <trkpt lat="45.09754" lon="6.15691">
        <ele>1755.2</ele>
        <time>2026-08-25T09:40:25Z</time>
      </trkpt>
      <trkpt lat="45.09751" lon="6.15689">
        <ele>1755.4</ele>
        <time>2026-08-25T09:40:26Z</time>
      </trkpt>
      <trkpt lat="45.09748" lon="6.15687">
        <ele>1755.7</ele>
        <time>2026-08-25T09:40:27Z</time>
      </trkpt>
      <trkpt lat="45.09746" lon="6.15686">
        <ele>1756</ele>
        <time>2026-08-25T09:40:28Z</time>
      </trkpt>
      <trkpt lat="45.09743" lon="6.15684">
        <ele>1756.2</ele>
        <time>2026-08-25T09:40:29Z</time>
      </trkpt>
      <trkpt lat="45.09741" lon="6.15683">
        <ele>1756.5</ele>
        <time>2026-08-25T09:40:30Z</time>
      </trkpt>
      <trkpt lat="45.09738" lon="6.15682">
        <ele>1756.7</ele>
        <time>2026-08-25T09:40:31Z</time>
      </trkpt>
      <trkpt lat="45.09736" lon="6.1568">
        <ele>1757</ele>
        <time>2026-08-25T09:40:32Z</time>
      </trkpt>
      <trkpt lat="45.09733" lon="6.15679">
        <ele>1757.2</ele>
        <time>2026-08-25T09:40:33Z</time>
      </trkpt>
      <trkpt lat="45.09731" lon="6.15677">
        <ele>1757.5</ele>
        <time>2026-08-25T09:40:34Z</time>
      </trkpt>
      <trkpt lat="45.09728" lon="6.15676">
        <ele>1757.7</ele>
        <time>2026-08-25T09:40:35Z</time>
      </trkpt>
      <trkpt lat="45.09726" lon="6.15675">
        <ele>1758</ele>
        <time>2026-08-25T09:40:36Z</time>
      </trkpt>
      <trkpt lat="45.09724" lon="6.15673">
        <ele>1758.2</ele>
        <time>2026-08-25T09:40:37Z</time>
      </trkpt>
      <trkpt lat="45.09722" lon="6.1567">
        <ele>1758.4</ele>
        <time>2026-08-25T09:40:38Z</time>
      </trkpt>
      <trkpt lat="45.0972" lon="6.15668">
        <ele>1758.7</ele>
        <time>2026-08-25T09:40:39Z</time>
      </trkpt>
      <trkpt lat="45.09717" lon="6.15666">
        <ele>1759</ele>
        <time>2026-08-25T09:40:40Z</time>
      </trkpt>
      <trkpt lat="45.09715" lon="6.15664">
        <ele>1759.3</ele>
        <time>2026-08-25T09:40:41Z</time>
      </trkpt>
      <trkpt lat="45.09712" lon="6.15662">
        <ele>1759.5</ele>
        <time>2026-08-25T09:40:42Z</time>
      </trkpt>
      <trkpt lat="45.0971" lon="6.1566">
        <ele>1759.8</ele>
        <time>2026-08-25T09:40:43Z</time>
      </trkpt>
      <trkpt lat="45.09708" lon="6.15658">
        <ele>1760.1</ele>
        <time>2026-08-25T09:40:44Z</time>
      </trkpt>
      <trkpt lat="45.09705" lon="6.15656">
        <ele>1760.3</ele>
        <time>2026-08-25T09:40:45Z</time>
      </trkpt>
      <trkpt lat="45.09703" lon="6.15654">
        <ele>1760.6</ele>
        <time>2026-08-25T09:40:46Z</time>
      </trkpt>
      <trkpt lat="45.097" lon="6.15653">
        <ele>1760.9</ele>
        <time>2026-08-25T09:40:47Z</time>
      </trkpt>
      <trkpt lat="45.09698" lon="6.15651">
        <ele>1761.2</ele>
        <time>2026-08-25T09:40:48Z</time>
      </trkpt>
      <trkpt lat="45.09695" lon="6.1565">
        <ele>1761.4</ele>
        <time>2026-08-25T09:40:49Z</time>
      </trkpt>
      <trkpt lat="45.09693" lon="6.15648">
        <ele>1761.7</ele>
        <time>2026-08-25T09:40:50Z</time>
      </trkpt>
      <trkpt lat="45.09691" lon="6.15647">
        <ele>1762</ele>
        <time>2026-08-25T09:40:51Z</time>
      </trkpt>
      <trkpt lat="45.09688" lon="6.15645">
        <ele>1762.2</ele>
        <time>2026-08-25T09:40:52Z</time>
      </trkpt>
      <trkpt lat="45.09686" lon="6.15644">
        <ele>1762.5</ele>
        <time>2026-08-25T09:40:53Z</time>
      </trkpt>
      <trkpt lat="45.09684" lon="6.15643">
        <ele>1762.7</ele>
        <time>2026-08-25T09:40:54Z</time>
      </trkpt>
      <trkpt lat="45.09681" lon="6.15643">
        <ele>1763</ele>
        <time>2026-08-25T09:40:55Z</time>
      </trkpt>
      <trkpt lat="45.09679" lon="6.15642">
        <ele>1763.3</ele>
        <time>2026-08-25T09:40:56Z</time>
      </trkpt>
      <trkpt lat="45.09676" lon="6.15642">
        <ele>1763.6</ele>
        <time>2026-08-25T09:40:57Z</time>
      </trkpt>
      <trkpt lat="45.09673" lon="6.15642">
        <ele>1763.8</ele>
        <time>2026-08-25T09:40:58Z</time>
      </trkpt>
      <trkpt lat="45.09671" lon="6.15641">
        <ele>1764.1</ele>
        <time>2026-08-25T09:40:59Z</time>
      </trkpt>
      <trkpt lat="45.09668" lon="6.1564">
        <ele>1764.4</ele>
        <time>2026-08-25T09:41:00Z</time>
      </trkpt>
      <trkpt lat="45.09665" lon="6.15639">
        <ele>1764.7</ele>
        <time>2026-08-25T09:41:01Z</time>
      </trkpt>
      <trkpt lat="45.09662" lon="6.15639">
        <ele>1765</ele>
        <time>2026-08-25T09:41:02Z</time>
      </trkpt>
      <trkpt lat="45.0966" lon="6.15639">
        <ele>1765.3</ele>
        <time>2026-08-25T09:41:03Z</time>
      </trkpt>
      <trkpt lat="45.09657" lon="6.15639">
        <ele>1765.5</ele>
        <time>2026-08-25T09:41:04Z</time>
      </trkpt>
      <trkpt lat="45.09655" lon="6.15638">
        <ele>1765.8</ele>
        <time>2026-08-25T09:41:05Z</time>
      </trkpt>
      <trkpt lat="45.09652" lon="6.15637">
        <ele>1766.1</ele>
        <time>2026-08-25T09:41:06Z</time>
      </trkpt>
      <trkpt lat="45.0965" lon="6.15635">
        <ele>1766.4</ele>
        <time>2026-08-25T09:41:07Z</time>
      </trkpt>
      <trkpt lat="45.09647" lon="6.15634">
        <ele>1766.7</ele>
        <time>2026-08-25T09:41:08Z</time>
      </trkpt>
      <trkpt lat="45.09645" lon="6.15633">
        <ele>1767</ele>
        <time>2026-08-25T09:41:09Z</time>
      </trkpt>
      <trkpt lat="45.09642" lon="6.15632">
        <ele>1767.3</ele>
        <time>2026-08-25T09:41:10Z</time>
      </trkpt>
      <trkpt lat="45.0964" lon="6.15631">
        <ele>1767.6</ele>
        <time>2026-08-25T09:41:11Z</time>
      </trkpt>
      <trkpt lat="45.09637" lon="6.1563">
        <ele>1767.9</ele>
        <time>2026-08-25T09:41:12Z</time>
      </trkpt>
      <trkpt lat="45.09635" lon="6.15629">
        <ele>1768.1</ele>
        <time>2026-08-25T09:41:13Z</time>
      </trkpt>
      <trkpt lat="45.09633" lon="6.15627">
        <ele>1768.4</ele>
        <time>2026-08-25T09:41:14Z</time>
      </trkpt>
      <trkpt lat="45.0963" lon="6.15625">
        <ele>1768.7</ele>
        <time>2026-08-25T09:41:15Z</time>
      </trkpt>
      <trkpt lat="45.09628" lon="6.15624">
        <ele>1769</ele>
        <time>2026-08-25T09:41:16Z</time>
      </trkpt>
      <trkpt lat="45.09626" lon="6.15622">
        <ele>1769.3</ele>
        <time>2026-08-25T09:41:17Z</time>
      </trkpt>
      <trkpt lat="45.09624" lon="6.1562">
        <ele>1769.6</ele>
        <time>2026-08-25T09:41:18Z</time>
      </trkpt>
      <trkpt lat="45.09621" lon="6.15619">
        <ele>1769.9</ele>
        <time>2026-08-25T09:41:19Z</time>
      </trkpt>
      <trkpt lat="45.09619" lon="6.15617">
        <ele>1770.2</ele>
        <time>2026-08-25T09:41:20Z</time>
      </trkpt>
      <trkpt lat="45.09616" lon="6.15616">
        <ele>1770.5</ele>
        <time>2026-08-25T09:41:21Z</time>
      </trkpt>
      <trkpt lat="45.09614" lon="6.15615">
        <ele>1770.8</ele>
        <time>2026-08-25T09:41:22Z</time>
      </trkpt>
      <trkpt lat="45.09612" lon="6.15614">
        <ele>1771.1</ele>
        <time>2026-08-25T09:41:23Z</time>
      </trkpt>
      <trkpt lat="45.0961" lon="6.15612">
        <ele>1771.3</ele>
        <time>2026-08-25T09:41:24Z</time>
      </trkpt>
      <trkpt lat="45.09608" lon="6.1561">
        <ele>1771.6</ele>
        <time>2026-08-25T09:41:25Z</time>
      </trkpt>
      <trkpt lat="45.09606" lon="6.15607">
        <ele>1771.9</ele>
        <time>2026-08-25T09:41:26Z</time>
      </trkpt>
      <trkpt lat="45.09604" lon="6.15605">
        <ele>1772.2</ele>
        <time>2026-08-25T09:41:27Z</time>
      </trkpt>
      <trkpt lat="45.09603" lon="6.15602">
        <ele>1772.5</ele>
        <time>2026-08-25T09:41:28Z</time>
      </trkpt>
      <trkpt lat="45.09601" lon="6.15599">
        <ele>1772.8</ele>
        <time>2026-08-25T09:41:29Z</time>
      </trkpt>
      <trkpt lat="45.09599" lon="6.15596">
        <ele>1773.1</ele>
        <time>2026-08-25T09:41:30Z</time>
      </trkpt>
      <trkpt lat="45.09598" lon="6.15593">
        <ele>1773.4</ele>
        <time>2026-08-25T09:41:31Z</time>
      </trkpt>
      <trkpt lat="45.09596" lon="6.15591">
        <ele>1773.7</ele>
        <time>2026-08-25T09:41:32Z</time>
      </trkpt>
      <trkpt lat="45.09594" lon="6.15588">
        <ele>1774</ele>
        <time>2026-08-25T09:41:33Z</time>
      </trkpt>
      <trkpt lat="45.09593" lon="6.15585">
        <ele>1774.3</ele>
        <time>2026-08-25T09:41:34Z</time>
      </trkpt>
      <trkpt lat="45.09591" lon="6.15582">
        <ele>1774.6</ele>
        <time>2026-08-25T09:41:35Z</time>
      </trkpt>
      <trkpt lat="45.0959" lon="6.1558">
        <ele>1774.9</ele>
        <time>2026-08-25T09:41:36Z</time>
      </trkpt>
      <trkpt lat="45.09589" lon="6.15577">
        <ele>1775.2</ele>
        <time>2026-08-25T09:41:37Z</time>
      </trkpt>
      <trkpt lat="45.09587" lon="6.15574">
        <ele>1775.4</ele>
        <time>2026-08-25T09:41:38Z</time>
      </trkpt>
      <trkpt lat="45.09585" lon="6.15571">
        <ele>1775.7</ele>
        <time>2026-08-25T09:41:39Z</time>
      </trkpt>
      <trkpt lat="45.09584" lon="6.15569">
        <ele>1776</ele>
        <time>2026-08-25T09:41:40Z</time>
      </trkpt>
      <trkpt lat="45.09583" lon="6.15565">
        <ele>1776.3</ele>
        <time>2026-08-25T09:41:41Z</time>
      </trkpt>
      <trkpt lat="45.09582" lon="6.15562">
        <ele>1776.6</ele>
        <time>2026-08-25T09:41:42Z</time>
      </trkpt>
      <trkpt lat="45.0958" lon="6.15559">
        <ele>1776.9</ele>
        <time>2026-08-25T09:41:43Z</time>
      </trkpt>
      <trkpt lat="45.09579" lon="6.15556">
        <ele>1777.2</ele>
        <time>2026-08-25T09:41:44Z</time>
      </trkpt>
      <trkpt lat="45.09578" lon="6.15553">
        <ele>1777.5</ele>
        <time>2026-08-25T09:41:45Z</time>
      </trkpt>
      <trkpt lat="45.09576" lon="6.1555">
        <ele>1777.7</ele>
        <time>2026-08-25T09:41:46Z</time>
      </trkpt>
      <trkpt lat="45.09575" lon="6.15547">
        <ele>1778</ele>
        <time>2026-08-25T09:41:47Z</time>
      </trkpt>
      <trkpt lat="45.09574" lon="6.15545">
        <ele>1778.3</ele>
        <time>2026-08-25T09:41:48Z</time>
      </trkpt>
      <trkpt lat="45.09572" lon="6.15542">
        <ele>1778.6</ele>
        <time>2026-08-25T09:41:49Z</time>
      </trkpt>
      <trkpt lat="45.0957" lon="6.15539">
        <ele>1778.9</ele>
        <time>2026-08-25T09:41:50Z</time>
      </trkpt>
      <trkpt lat="45.09568" lon="6.15537">
        <ele>1779.1</ele>
        <time>2026-08-25T09:41:51Z</time>
      </trkpt>
      <trkpt lat="45.09567" lon="6.15534">
        <ele>1779.4</ele>
        <time>2026-08-25T09:41:52Z</time>
      </trkpt>
      <trkpt lat="45.09565" lon="6.15532">
        <ele>1779.7</ele>
        <time>2026-08-25T09:41:53Z</time>
      </trkpt>
      <trkpt lat="45.09563" lon="6.15529">
        <ele>1780</ele>
        <time>2026-08-25T09:41:54Z</time>
      </trkpt>
      <trkpt lat="45.09562" lon="6.15527">
        <ele>1780.3</ele>
        <time>2026-08-25T09:41:55Z</time>
      </trkpt>
      <trkpt lat="45.0956" lon="6.15525">
        <ele>1780.5</ele>
        <time>2026-08-25T09:41:56Z</time>
      </trkpt>
      <trkpt lat="45.09558" lon="6.15523">
        <ele>1780.8</ele>
        <time>2026-08-25T09:41:57Z</time>
      </trkpt>
      <trkpt lat="45.09557" lon="6.15521">
        <ele>1781</ele>
        <time>2026-08-25T09:41:58Z</time>
      </trkpt>
      <trkpt lat="45.09555" lon="6.15519">
        <ele>1781.3</ele>
        <time>2026-08-25T09:41:59Z</time>
      </trkpt>
      <trkpt lat="45.09554" lon="6.15516">
        <ele>1781.5</ele>
        <time>2026-08-25T09:42:00Z</time>
      </trkpt>
      <trkpt lat="45.09552" lon="6.15514">
        <ele>1781.7</ele>
        <time>2026-08-25T09:42:01Z</time>
      </trkpt>
      <trkpt lat="45.09551" lon="6.15512">
        <ele>1782</ele>
        <time>2026-08-25T09:42:02Z</time>
      </trkpt>
      <trkpt lat="45.09549" lon="6.1551">
        <ele>1782.3</ele>
        <time>2026-08-25T09:42:03Z</time>
      </trkpt>
      <trkpt lat="45.09547" lon="6.15508">
        <ele>1782.5</ele>
        <time>2026-08-25T09:42:04Z</time>
      </trkpt>
      <trkpt lat="45.09545" lon="6.15506">
        <ele>1782.8</ele>
        <time>2026-08-25T09:42:05Z</time>
      </trkpt>
      <trkpt lat="45.09543" lon="6.15504">
        <ele>1783.1</ele>
        <time>2026-08-25T09:42:06Z</time>
      </trkpt>
      <trkpt lat="45.09541" lon="6.15502">
        <ele>1783.3</ele>
        <time>2026-08-25T09:42:07Z</time>
      </trkpt>
      <trkpt lat="45.09539" lon="6.155">
        <ele>1783.6</ele>
        <time>2026-08-25T09:42:08Z</time>
      </trkpt>
      <trkpt lat="45.09537" lon="6.15498">
        <ele>1783.8</ele>
        <time>2026-08-25T09:42:09Z</time>
      </trkpt>
      <trkpt lat="45.09535" lon="6.15497">
        <ele>1784.1</ele>
        <time>2026-08-25T09:42:10Z</time>
      </trkpt>
      <trkpt lat="45.09533" lon="6.15495">
        <ele>1784.4</ele>
        <time>2026-08-25T09:42:11Z</time>
      </trkpt>
      <trkpt lat="45.09531" lon="6.15494">
        <ele>1784.6</ele>
        <time>2026-08-25T09:42:12Z</time>
      </trkpt>
      <trkpt lat="45.09529" lon="6.15492">
        <ele>1784.9</ele>
        <time>2026-08-25T09:42:13Z</time>
      </trkpt>
      <trkpt lat="45.09527" lon="6.15491">
        <ele>1785.1</ele>
        <time>2026-08-25T09:42:14Z</time>
      </trkpt>
      <trkpt lat="45.09524" lon="6.1549">
        <ele>1785.3</ele>
        <time>2026-08-25T09:42:15Z</time>
      </trkpt>
      <trkpt lat="45.09523" lon="6.15489">
        <ele>1785.5</ele>
        <time>2026-08-25T09:42:16Z</time>
      </trkpt>
      <trkpt lat="45.09521" lon="6.15487">
        <ele>1785.8</ele>
        <time>2026-08-25T09:42:17Z</time>
      </trkpt>
      <trkpt lat="45.09519" lon="6.15485">
        <ele>1786</ele>
        <time>2026-08-25T09:42:18Z</time>
      </trkpt>
      <trkpt lat="45.09517" lon="6.15484">
        <ele>1786.3</ele>
        <time>2026-08-25T09:42:19Z</time>
      </trkpt>
      <trkpt lat="45.09515" lon="6.15483">
        <ele>1786.5</ele>
        <time>2026-08-25T09:42:20Z</time>
      </trkpt>
      <trkpt lat="45.09512" lon="6.15481">
        <ele>1786.7</ele>
        <time>2026-08-25T09:42:21Z</time>
      </trkpt>
      <trkpt lat="45.0951" lon="6.1548">
        <ele>1787</ele>
        <time>2026-08-25T09:42:22Z</time>
      </trkpt>
      <trkpt lat="45.09508" lon="6.15478">
        <ele>1787.2</ele>
        <time>2026-08-25T09:42:23Z</time>
      </trkpt>
      <trkpt lat="45.09507" lon="6.15477">
        <ele>1787.5</ele>
        <time>2026-08-25T09:42:24Z</time>
      </trkpt>
      <trkpt lat="45.09505" lon="6.15475">
        <ele>1787.7</ele>
        <time>2026-08-25T09:42:25Z</time>
      </trkpt>
      <trkpt lat="45.09503" lon="6.15473">
        <ele>1788</ele>
        <time>2026-08-25T09:42:26Z</time>
      </trkpt>
      <trkpt lat="45.09501" lon="6.15471">
        <ele>1788.2</ele>
        <time>2026-08-25T09:42:27Z</time>
      </trkpt>
      <trkpt lat="45.09499" lon="6.15468">
        <ele>1788.5</ele>
        <time>2026-08-25T09:42:28Z</time>
      </trkpt>
      <trkpt lat="45.09497" lon="6.15466">
        <ele>1788.8</ele>
        <time>2026-08-25T09:42:29Z</time>
      </trkpt>
      <trkpt lat="45.09495" lon="6.15464">
        <ele>1789</ele>
        <time>2026-08-25T09:42:30Z</time>
      </trkpt>
      <trkpt lat="45.09493" lon="6.15462">
        <ele>1789.3</ele>
        <time>2026-08-25T09:42:31Z</time>
      </trkpt>
      <trkpt lat="45.09491" lon="6.1546">
        <ele>1789.5</ele>
        <time>2026-08-25T09:42:32Z</time>
      </trkpt>
      <trkpt lat="45.09489" lon="6.15458">
        <ele>1789.7</ele>
        <time>2026-08-25T09:42:33Z</time>
      </trkpt>
      <trkpt lat="45.09487" lon="6.15456">
        <ele>1790</ele>
        <time>2026-08-25T09:42:34Z</time>
      </trkpt>
      <trkpt lat="45.09485" lon="6.15455">
        <ele>1790.2</ele>
        <time>2026-08-25T09:42:35Z</time>
      </trkpt>
      <trkpt lat="45.09484" lon="6.15453">
        <ele>1790.4</ele>
        <time>2026-08-25T09:42:36Z</time>
      </trkpt>
      <trkpt lat="45.09482" lon="6.15452">
        <ele>1790.7</ele>
        <time>2026-08-25T09:42:37Z</time>
      </trkpt>
      <trkpt lat="45.0948" lon="6.1545">
        <ele>1790.9</ele>
        <time>2026-08-25T09:42:38Z</time>
      </trkpt>
      <trkpt lat="45.09478" lon="6.15448">
        <ele>1791.1</ele>
        <time>2026-08-25T09:42:39Z</time>
      </trkpt>
      <trkpt lat="45.09476" lon="6.15446">
        <ele>1791.4</ele>
        <time>2026-08-25T09:42:40Z</time>
      </trkpt>
      <trkpt lat="45.09474" lon="6.15443">
        <ele>1791.6</ele>
        <time>2026-08-25T09:42:41Z</time>
      </trkpt>
      <trkpt lat="45.09472" lon="6.15441">
        <ele>1791.9</ele>
        <time>2026-08-25T09:42:42Z</time>
      </trkpt>
      <trkpt lat="45.09471" lon="6.15439">
        <ele>1792.1</ele>
        <time>2026-08-25T09:42:43Z</time>
      </trkpt>
      <trkpt lat="45.09468" lon="6.15437">
        <ele>1792.4</ele>
        <time>2026-08-25T09:42:44Z</time>
      </trkpt>
      <trkpt lat="45.09466" lon="6.15435">
        <ele>1792.7</ele>
        <time>2026-08-25T09:42:45Z</time>
      </trkpt>
      <trkpt lat="45.09464" lon="6.15433">
        <ele>1792.9</ele>
        <time>2026-08-25T09:42:46Z</time>
      </trkpt>
      <trkpt lat="45.09462" lon="6.15431">
        <ele>1793.2</ele>
        <time>2026-08-25T09:42:47Z</time>
      </trkpt>
      <trkpt lat="45.0946" lon="6.15429">
        <ele>1793.4</ele>
        <time>2026-08-25T09:42:48Z</time>
      </trkpt>
      <trkpt lat="45.09458" lon="6.15427">
        <ele>1793.7</ele>
        <time>2026-08-25T09:42:49Z</time>
      </trkpt>
      <trkpt lat="45.09456" lon="6.15424">
        <ele>1794</ele>
        <time>2026-08-25T09:42:50Z</time>
      </trkpt>
      <trkpt lat="45.09454" lon="6.15422">
        <ele>1794.3</ele>
        <time>2026-08-25T09:42:51Z</time>
      </trkpt>
      <trkpt lat="45.09452" lon="6.15419">
        <ele>1794.6</ele>
        <time>2026-08-25T09:42:52Z</time>
      </trkpt>
      <trkpt lat="45.09449" lon="6.15416">
        <ele>1794.9</ele>
        <time>2026-08-25T09:42:53Z</time>
      </trkpt>
      <trkpt lat="45.09447" lon="6.15414">
        <ele>1795.1</ele>
        <time>2026-08-25T09:42:54Z</time>
      </trkpt>
      <trkpt lat="45.09445" lon="6.15412">
        <ele>1795.4</ele>
        <time>2026-08-25T09:42:55Z</time>
      </trkpt>
      <trkpt lat="45.09443" lon="6.1541">
        <ele>1795.7</ele>
        <time>2026-08-25T09:42:56Z</time>
      </trkpt>
      <trkpt lat="45.09441" lon="6.15407">
        <ele>1796</ele>
        <time>2026-08-25T09:42:57Z</time>
      </trkpt>
      <trkpt lat="45.0944" lon="6.15404">
        <ele>1796.3</ele>
        <time>2026-08-25T09:42:58Z</time>
      </trkpt>
      <trkpt lat="45.09438" lon="6.15401">
        <ele>1796.6</ele>
        <time>2026-08-25T09:42:59Z</time>
      </trkpt>
      <trkpt lat="45.09437" lon="6.15399">
        <ele>1796.8</ele>
        <time>2026-08-25T09:43:00Z</time>
      </trkpt>
      <trkpt lat="45.09435" lon="6.15397">
        <ele>1797.1</ele>
        <time>2026-08-25T09:43:01Z</time>
      </trkpt>
      <trkpt lat="45.09433" lon="6.15395">
        <ele>1797.4</ele>
        <time>2026-08-25T09:43:02Z</time>
      </trkpt>
      <trkpt lat="45.09432" lon="6.15392">
        <ele>1797.6</ele>
        <time>2026-08-25T09:43:03Z</time>
      </trkpt>
      <trkpt lat="45.0943" lon="6.1539">
        <ele>1797.9</ele>
        <time>2026-08-25T09:43:04Z</time>
      </trkpt>
      <trkpt lat="45.09429" lon="6.15388">
        <ele>1798.1</ele>
        <time>2026-08-25T09:43:05Z</time>
      </trkpt>
      <trkpt lat="45.09427" lon="6.15385">
        <ele>1798.4</ele>
        <time>2026-08-25T09:43:06Z</time>
      </trkpt>
      <trkpt lat="45.09426" lon="6.15383">
        <ele>1798.7</ele>
        <time>2026-08-25T09:43:07Z</time>
      </trkpt>
      <trkpt lat="45.09425" lon="6.1538">
        <ele>1799</ele>
        <time>2026-08-25T09:43:08Z</time>
      </trkpt>
      <trkpt lat="45.09423" lon="6.15377">
        <ele>1799.3</ele>
        <time>2026-08-25T09:43:09Z</time>
      </trkpt>
      <trkpt lat="45.09421" lon="6.15375">
        <ele>1799.5</ele>
        <time>2026-08-25T09:43:10Z</time>
      </trkpt>
      <trkpt lat="45.0942" lon="6.15373">
        <ele>1799.8</ele>
        <time>2026-08-25T09:43:11Z</time>
      </trkpt>
      <trkpt lat="45.09418" lon="6.1537">
        <ele>1800.1</ele>
        <time>2026-08-25T09:43:12Z</time>
      </trkpt>
      <trkpt lat="45.09417" lon="6.15368">
        <ele>1800.4</ele>
        <time>2026-08-25T09:43:13Z</time>
      </trkpt>
      <trkpt lat="45.09416" lon="6.15365">
        <ele>1800.6</ele>
        <time>2026-08-25T09:43:14Z</time>
      </trkpt>
      <trkpt lat="45.09414" lon="6.15363">
        <ele>1800.9</ele>
        <time>2026-08-25T09:43:15Z</time>
      </trkpt>
      <trkpt lat="45.09413" lon="6.15361">
        <ele>1801.2</ele>
        <time>2026-08-25T09:43:16Z</time>
      </trkpt>
      <trkpt lat="45.09411" lon="6.15358">
        <ele>1801.4</ele>
        <time>2026-08-25T09:43:17Z</time>
      </trkpt>
      <trkpt lat="45.0941" lon="6.15356">
        <ele>1801.7</ele>
        <time>2026-08-25T09:43:18Z</time>
      </trkpt>
      <trkpt lat="45.09408" lon="6.15354">
        <ele>1802</ele>
        <time>2026-08-25T09:43:19Z</time>
      </trkpt>
      <trkpt lat="45.09406" lon="6.15352">
        <ele>1802.3</ele>
        <time>2026-08-25T09:43:20Z</time>
      </trkpt>
      <trkpt lat="45.09405" lon="6.1535">
        <ele>1802.5</ele>
        <time>2026-08-25T09:43:21Z</time>
      </trkpt>
      <trkpt lat="45.09403" lon="6.15348">
        <ele>1802.8</ele>
        <time>2026-08-25T09:43:22Z</time>
      </trkpt>
      <trkpt lat="45.09402" lon="6.15346">
        <ele>1803.1</ele>
        <time>2026-08-25T09:43:23Z</time>
      </trkpt>
      <trkpt lat="45.094" lon="6.15344">
        <ele>1803.3</ele>
        <time>2026-08-25T09:43:24Z</time>
      </trkpt>
      <trkpt lat="45.09399" lon="6.15342">
        <ele>1803.6</ele>
        <time>2026-08-25T09:43:25Z</time>
      </trkpt>
      <trkpt lat="45.09397" lon="6.15339">
        <ele>1803.9</ele>
        <time>2026-08-25T09:43:26Z</time>
      </trkpt>
      <trkpt lat="45.09395" lon="6.15337">
        <ele>1804.2</ele>
        <time>2026-08-25T09:43:27Z</time>
      </trkpt>
      <trkpt lat="45.09393" lon="6.15335">
        <ele>1804.5</ele>
        <time>2026-08-25T09:43:28Z</time>
      </trkpt>
      <trkpt lat="45.09392" lon="6.15333">
        <ele>1804.8</ele>
        <time>2026-08-25T09:43:29Z</time>
      </trkpt>
      <trkpt lat="45.0939" lon="6.15331">
        <ele>1805</ele>
        <time>2026-08-25T09:43:30Z</time>
      </trkpt>
      <trkpt lat="45.09389" lon="6.15329">
        <ele>1805.3</ele>
        <time>2026-08-25T09:43:31Z</time>
      </trkpt>
      <trkpt lat="45.09387" lon="6.15327">
        <ele>1805.6</ele>
        <time>2026-08-25T09:43:32Z</time>
      </trkpt>
      <trkpt lat="45.09385" lon="6.15325">
        <ele>1805.8</ele>
        <time>2026-08-25T09:43:33Z</time>
      </trkpt>
      <trkpt lat="45.09384" lon="6.15323">
        <ele>1806.1</ele>
        <time>2026-08-25T09:43:34Z</time>
      </trkpt>
      <trkpt lat="45.09382" lon="6.15321">
        <ele>1806.4</ele>
        <time>2026-08-25T09:43:35Z</time>
      </trkpt>
      <trkpt lat="45.09379" lon="6.1532">
        <ele>1806.8</ele>
        <time>2026-08-25T09:43:36Z</time>
      </trkpt>
      <trkpt lat="45.09377" lon="6.15318">
        <ele>1807.1</ele>
        <time>2026-08-25T09:43:37Z</time>
      </trkpt>
      <trkpt lat="45.09375" lon="6.15315">
        <ele>1807.3</ele>
        <time>2026-08-25T09:43:38Z</time>
      </trkpt>
      <trkpt lat="45.09373" lon="6.15313">
        <ele>1807.6</ele>
        <time>2026-08-25T09:43:39Z</time>
      </trkpt>
      <trkpt lat="45.09371" lon="6.15312">
        <ele>1807.9</ele>
        <time>2026-08-25T09:43:40Z</time>
      </trkpt>
      <trkpt lat="45.09369" lon="6.1531">
        <ele>1808.1</ele>
        <time>2026-08-25T09:43:41Z</time>
      </trkpt>
      <trkpt lat="45.09367" lon="6.15309">
        <ele>1808.4</ele>
        <time>2026-08-25T09:43:42Z</time>
      </trkpt>
      <trkpt lat="45.09365" lon="6.15307">
        <ele>1808.6</ele>
        <time>2026-08-25T09:43:43Z</time>
      </trkpt>
      <trkpt lat="45.09363" lon="6.15306">
        <ele>1808.9</ele>
        <time>2026-08-25T09:43:44Z</time>
      </trkpt>
      <trkpt lat="45.09361" lon="6.15305">
        <ele>1809.1</ele>
        <time>2026-08-25T09:43:45Z</time>
      </trkpt>
      <trkpt lat="45.09359" lon="6.15303">
        <ele>1809.3</ele>
        <time>2026-08-25T09:43:46Z</time>
      </trkpt>
      <trkpt lat="45.09357" lon="6.15302">
        <ele>1809.5</ele>
        <time>2026-08-25T09:43:47Z</time>
      </trkpt>
      <trkpt lat="45.09355" lon="6.153">
        <ele>1809.8</ele>
        <time>2026-08-25T09:43:48Z</time>
      </trkpt>
      <trkpt lat="45.09352" lon="6.15298">
        <ele>1810</ele>
        <time>2026-08-25T09:43:49Z</time>
      </trkpt>
      <trkpt lat="45.0935" lon="6.15297">
        <ele>1810.2</ele>
        <time>2026-08-25T09:43:50Z</time>
      </trkpt>
      <trkpt lat="45.09348" lon="6.15295">
        <ele>1810.5</ele>
        <time>2026-08-25T09:43:51Z</time>
      </trkpt>
      <trkpt lat="45.09346" lon="6.15293">
        <ele>1810.7</ele>
        <time>2026-08-25T09:43:52Z</time>
      </trkpt>
      <trkpt lat="45.09344" lon="6.15291">
        <ele>1810.9</ele>
        <time>2026-08-25T09:43:53Z</time>
      </trkpt>
      <trkpt lat="45.09341" lon="6.1529">
        <ele>1811.2</ele>
        <time>2026-08-25T09:43:54Z</time>
      </trkpt>
      <trkpt lat="45.09339" lon="6.15288">
        <ele>1811.4</ele>
        <time>2026-08-25T09:43:55Z</time>
      </trkpt>
      <trkpt lat="45.09336" lon="6.15287">
        <ele>1811.7</ele>
        <time>2026-08-25T09:43:56Z</time>
      </trkpt>
      <trkpt lat="45.09334" lon="6.15285">
        <ele>1811.9</ele>
        <time>2026-08-25T09:43:57Z</time>
      </trkpt>
      <trkpt lat="45.09331" lon="6.15284">
        <ele>1812.2</ele>
        <time>2026-08-25T09:43:58Z</time>
      </trkpt>
      <trkpt lat="45.09329" lon="6.15283">
        <ele>1812.4</ele>
        <time>2026-08-25T09:43:59Z</time>
      </trkpt>
      <trkpt lat="45.09326" lon="6.15282">
        <ele>1812.6</ele>
        <time>2026-08-25T09:44:00Z</time>
      </trkpt>
      <trkpt lat="45.09324" lon="6.15281">
        <ele>1812.9</ele>
        <time>2026-08-25T09:44:01Z</time>
      </trkpt>
      <trkpt lat="45.09321" lon="6.1528">
        <ele>1813.1</ele>
        <time>2026-08-25T09:44:02Z</time>
      </trkpt>
      <trkpt lat="45.09318" lon="6.1528">
        <ele>1813.4</ele>
        <time>2026-08-25T09:44:03Z</time>
      </trkpt>
      <trkpt lat="45.09315" lon="6.15279">
        <ele>1813.6</ele>
        <time>2026-08-25T09:44:04Z</time>
      </trkpt>
      <trkpt lat="45.09312" lon="6.1528">
        <ele>1813.9</ele>
        <time>2026-08-25T09:44:05Z</time>
      </trkpt>
      <trkpt lat="45.09309" lon="6.1528">
        <ele>1814.2</ele>
        <time>2026-08-25T09:44:06Z</time>
      </trkpt>
      <trkpt lat="45.09305" lon="6.15279">
        <ele>1814.5</ele>
        <time>2026-08-25T09:44:07Z</time>
      </trkpt>
      <trkpt lat="45.09302" lon="6.15277">
        <ele>1814.8</ele>
        <time>2026-08-25T09:44:08Z</time>
      </trkpt>
      <trkpt lat="45.093" lon="6.15274">
        <ele>1815.1</ele>
        <time>2026-08-25T09:44:09Z</time>
      </trkpt>
      <trkpt lat="45.09298" lon="6.1527">
        <ele>1815.4</ele>
        <time>2026-08-25T09:44:10Z</time>
      </trkpt>
      <trkpt lat="45.09298" lon="6.15265">
        <ele>1815.7</ele>
        <time>2026-08-25T09:44:11Z</time>
      </trkpt>
      <trkpt lat="45.093" lon="6.15262">
        <ele>1815.9</ele>
        <time>2026-08-25T09:44:12Z</time>
      </trkpt>
      <trkpt lat="45.09302" lon="6.15263">
        <ele>1816.1</ele>
        <time>2026-08-25T09:44:13Z</time>
      </trkpt>
      <trkpt lat="45.09305" lon="6.15264">
        <ele>1816.3</ele>
        <time>2026-08-25T09:44:14Z</time>
      </trkpt>
      <trkpt lat="45.09308" lon="6.15265">
        <ele>1816.6</ele>
        <time>2026-08-25T09:44:15Z</time>
      </trkpt>
      <trkpt lat="45.09311" lon="6.15265">
        <ele>1816.8</ele>
        <time>2026-08-25T09:44:16Z</time>
      </trkpt>
      <trkpt lat="45.09314" lon="6.15266">
        <ele>1817</ele>
        <time>2026-08-25T09:44:17Z</time>
      </trkpt>
      <trkpt lat="45.09317" lon="6.15266">
        <ele>1817.3</ele>
        <time>2026-08-25T09:44:18Z</time>
      </trkpt>
      <trkpt lat="45.0932" lon="6.15267">
        <ele>1817.5</ele>
        <time>2026-08-25T09:44:19Z</time>
      </trkpt>
      <trkpt lat="45.09322" lon="6.15267">
        <ele>1817.7</ele>
        <time>2026-08-25T09:44:20Z</time>
      </trkpt>
      <trkpt lat="45.09325" lon="6.15268">
        <ele>1817.9</ele>
        <time>2026-08-25T09:44:21Z</time>
      </trkpt>
      <trkpt lat="45.09328" lon="6.15268">
        <ele>1818.1</ele>
        <time>2026-08-25T09:44:22Z</time>
      </trkpt>
      <trkpt lat="45.09331" lon="6.15269">
        <ele>1818.4</ele>
        <time>2026-08-25T09:44:23Z</time>
      </trkpt>
      <trkpt lat="45.09333" lon="6.1527">
        <ele>1818.6</ele>
        <time>2026-08-25T09:44:24Z</time>
      </trkpt>
      <trkpt lat="45.09336" lon="6.1527">
        <ele>1818.8</ele>
        <time>2026-08-25T09:44:25Z</time>
      </trkpt>
      <trkpt lat="45.09338" lon="6.15271">
        <ele>1819.1</ele>
        <time>2026-08-25T09:44:26Z</time>
      </trkpt>
      <trkpt lat="45.09341" lon="6.15272">
        <ele>1819.3</ele>
        <time>2026-08-25T09:44:27Z</time>
      </trkpt>
      <trkpt lat="45.09344" lon="6.15272">
        <ele>1819.6</ele>
        <time>2026-08-25T09:44:28Z</time>
      </trkpt>
      <trkpt lat="45.09346" lon="6.15273">
        <ele>1819.9</ele>
        <time>2026-08-25T09:44:29Z</time>
      </trkpt>
      <trkpt lat="45.09349" lon="6.15273">
        <ele>1820.1</ele>
        <time>2026-08-25T09:44:30Z</time>
      </trkpt>
      <trkpt lat="45.09352" lon="6.15274">
        <ele>1820.4</ele>
        <time>2026-08-25T09:44:31Z</time>
      </trkpt>
      <trkpt lat="45.09355" lon="6.15275">
        <ele>1820.7</ele>
        <time>2026-08-25T09:44:32Z</time>
      </trkpt>
      <trkpt lat="45.09357" lon="6.15276">
        <ele>1821</ele>
        <time>2026-08-25T09:44:33Z</time>
      </trkpt>
      <trkpt lat="45.0936" lon="6.15276">
        <ele>1821.3</ele>
        <time>2026-08-25T09:44:34Z</time>
      </trkpt>
      <trkpt lat="45.09362" lon="6.15277">
        <ele>1821.6</ele>
        <time>2026-08-25T09:44:35Z</time>
      </trkpt>
      <trkpt lat="45.09365" lon="6.15277">
        <ele>1821.9</ele>
        <time>2026-08-25T09:44:36Z</time>
      </trkpt>
      <trkpt lat="45.09367" lon="6.15277">
        <ele>1822.2</ele>
        <time>2026-08-25T09:44:37Z</time>
      </trkpt>
      <trkpt lat="45.0937" lon="6.15278">
        <ele>1822.5</ele>
        <time>2026-08-25T09:44:38Z</time>
      </trkpt>
      <trkpt lat="45.09373" lon="6.15278">
        <ele>1822.8</ele>
        <time>2026-08-25T09:44:39Z</time>
      </trkpt>
      <trkpt lat="45.09375" lon="6.15279">
        <ele>1823.1</ele>
        <time>2026-08-25T09:44:40Z</time>
      </trkpt>
      <trkpt lat="45.09378" lon="6.15279">
        <ele>1823.4</ele>
        <time>2026-08-25T09:44:41Z</time>
      </trkpt>
      <trkpt lat="45.0938" lon="6.1528">
        <ele>1823.7</ele>
        <time>2026-08-25T09:44:42Z</time>
      </trkpt>
      <trkpt lat="45.09383" lon="6.15281">
        <ele>1824.1</ele>
        <time>2026-08-25T09:44:43Z</time>
      </trkpt>
      <trkpt lat="45.09386" lon="6.15281">
        <ele>1824.4</ele>
        <time>2026-08-25T09:44:44Z</time>
      </trkpt>
      <trkpt lat="45.09388" lon="6.15282">
        <ele>1824.8</ele>
        <time>2026-08-25T09:44:45Z</time>
      </trkpt>
      <trkpt lat="45.09391" lon="6.15282">
        <ele>1825.1</ele>
        <time>2026-08-25T09:44:46Z</time>
      </trkpt>
      <trkpt lat="45.09393" lon="6.15283">
        <ele>1825.4</ele>
        <time>2026-08-25T09:44:47Z</time>
      </trkpt>
      <trkpt lat="45.09395" lon="6.15284">
        <ele>1825.7</ele>
        <time>2026-08-25T09:44:48Z</time>
      </trkpt>
      <trkpt lat="45.09398" lon="6.15285">
        <ele>1826</ele>
        <time>2026-08-25T09:44:49Z</time>
      </trkpt>
      <trkpt lat="45.094" lon="6.15286">
        <ele>1826.3</ele>
        <time>2026-08-25T09:44:50Z</time>
      </trkpt>
      <trkpt lat="45.09403" lon="6.15287">
        <ele>1826.6</ele>
        <time>2026-08-25T09:44:51Z</time>
      </trkpt>
      <trkpt lat="45.09405" lon="6.15288">
        <ele>1826.9</ele>
        <time>2026-08-25T09:44:52Z</time>
      </trkpt>
      <trkpt lat="45.09408" lon="6.15288">
        <ele>1827.3</ele>
        <time>2026-08-25T09:44:53Z</time>
      </trkpt>
      <trkpt lat="45.0941" lon="6.15289">
        <ele>1827.6</ele>
        <time>2026-08-25T09:44:54Z</time>
      </trkpt>
      <trkpt lat="45.09413" lon="6.1529">
        <ele>1827.9</ele>
        <time>2026-08-25T09:44:55Z</time>
      </trkpt>
      <trkpt lat="45.09415" lon="6.15292">
        <ele>1828.3</ele>
        <time>2026-08-25T09:44:56Z</time>
      </trkpt>
      <trkpt lat="45.09418" lon="6.15293">
        <ele>1828.6</ele>
        <time>2026-08-25T09:44:57Z</time>
      </trkpt>
      <trkpt lat="45.0942" lon="6.15293">
        <ele>1828.9</ele>
        <time>2026-08-25T09:44:58Z</time>
      </trkpt>
      <trkpt lat="45.09423" lon="6.15293">
        <ele>1829.2</ele>
        <time>2026-08-25T09:44:59Z</time>
      </trkpt>
      <trkpt lat="45.09425" lon="6.15294">
        <ele>1829.5</ele>
        <time>2026-08-25T09:45:00Z</time>
      </trkpt>
      <trkpt lat="45.09427" lon="6.15295">
        <ele>1829.8</ele>
        <time>2026-08-25T09:45:01Z</time>
      </trkpt>
      <trkpt lat="45.09429" lon="6.15296">
        <ele>1830.1</ele>
        <time>2026-08-25T09:45:02Z</time>
      </trkpt>
      <trkpt lat="45.09432" lon="6.15296">
        <ele>1830.4</ele>
        <time>2026-08-25T09:45:03Z</time>
      </trkpt>
      <trkpt lat="45.09434" lon="6.15298">
        <ele>1830.7</ele>
        <time>2026-08-25T09:45:04Z</time>
      </trkpt>
      <trkpt lat="45.09437" lon="6.15299">
        <ele>1831.1</ele>
        <time>2026-08-25T09:45:05Z</time>
      </trkpt>
      <trkpt lat="45.09439" lon="6.15301">
        <ele>1831.4</ele>
        <time>2026-08-25T09:45:06Z</time>
      </trkpt>
      <trkpt lat="45.09442" lon="6.15302">
        <ele>1831.7</ele>
        <time>2026-08-25T09:45:07Z</time>
      </trkpt>
      <trkpt lat="45.09445" lon="6.15303">
        <ele>1832</ele>
        <time>2026-08-25T09:45:08Z</time>
      </trkpt>
      <trkpt lat="45.09447" lon="6.15304">
        <ele>1832.4</ele>
        <time>2026-08-25T09:45:09Z</time>
      </trkpt>
      <trkpt lat="45.0945" lon="6.15305">
        <ele>1832.7</ele>
        <time>2026-08-25T09:45:10Z</time>
      </trkpt>
      <trkpt lat="45.09451" lon="6.15307">
        <ele>1832.9</ele>
        <time>2026-08-25T09:45:11Z</time>
      </trkpt>
      <trkpt lat="45.09453" lon="6.15308">
        <ele>1833.2</ele>
        <time>2026-08-25T09:45:12Z</time>
      </trkpt>
      <trkpt lat="45.09455" lon="6.15309">
        <ele>1833.5</ele>
        <time>2026-08-25T09:45:13Z</time>
      </trkpt>
      <trkpt lat="45.09457" lon="6.1531">
        <ele>1833.8</ele>
        <time>2026-08-25T09:45:14Z</time>
      </trkpt>
      <trkpt lat="45.09459" lon="6.15312">
        <ele>1834</ele>
        <time>2026-08-25T09:45:15Z</time>
      </trkpt>
      <trkpt lat="45.09461" lon="6.15313">
        <ele>1834.3</ele>
        <time>2026-08-25T09:45:16Z</time>
      </trkpt>
      <trkpt lat="45.09463" lon="6.15315">
        <ele>1834.6</ele>
        <time>2026-08-25T09:45:17Z</time>
      </trkpt>
      <trkpt lat="45.09464" lon="6.15316">
        <ele>1834.8</ele>
        <time>2026-08-25T09:45:18Z</time>
      </trkpt>
      <trkpt lat="45.09466" lon="6.15317">
        <ele>1835.1</ele>
        <time>2026-08-25T09:45:19Z</time>
      </trkpt>
      <trkpt lat="45.09468" lon="6.15318">
        <ele>1835.3</ele>
        <time>2026-08-25T09:45:20Z</time>
      </trkpt>
      <trkpt lat="45.0947" lon="6.1532">
        <ele>1835.6</ele>
        <time>2026-08-25T09:45:21Z</time>
      </trkpt>
      <trkpt lat="45.09472" lon="6.15321">
        <ele>1835.8</ele>
        <time>2026-08-25T09:45:22Z</time>
      </trkpt>
      <trkpt lat="45.09474" lon="6.15322">
        <ele>1836.1</ele>
        <time>2026-08-25T09:45:23Z</time>
      </trkpt>
      <trkpt lat="45.09477" lon="6.15323">
        <ele>1836.4</ele>
        <time>2026-08-25T09:45:24Z</time>
      </trkpt>
      <trkpt lat="45.09479" lon="6.15324">
        <ele>1836.6</ele>
        <time>2026-08-25T09:45:25Z</time>
      </trkpt>
      <trkpt lat="45.0948" lon="6.15325">
        <ele>1836.8</ele>
        <time>2026-08-25T09:45:26Z</time>
      </trkpt>
      <trkpt lat="45.09482" lon="6.15325">
        <ele>1837.1</ele>
        <time>2026-08-25T09:45:27Z</time>
      </trkpt>
      <trkpt lat="45.09484" lon="6.15326">
        <ele>1837.3</ele>
        <time>2026-08-25T09:45:28Z</time>
      </trkpt>
      <trkpt lat="45.09486" lon="6.15327">
        <ele>1837.5</ele>
        <time>2026-08-25T09:45:29Z</time>
      </trkpt>
      <trkpt lat="45.09488" lon="6.15328">
        <ele>1837.8</ele>
        <time>2026-08-25T09:45:30Z</time>
      </trkpt>
      <trkpt lat="45.0949" lon="6.15329">
        <ele>1838</ele>
        <time>2026-08-25T09:45:31Z</time>
      </trkpt>
      <trkpt lat="45.09493" lon="6.15331">
        <ele>1838.3</ele>
        <time>2026-08-25T09:45:32Z</time>
      </trkpt>
      <trkpt lat="45.09495" lon="6.15331">
        <ele>1838.5</ele>
        <time>2026-08-25T09:45:33Z</time>
      </trkpt>
      <trkpt lat="45.09497" lon="6.15332">
        <ele>1838.8</ele>
        <time>2026-08-25T09:45:34Z</time>
      </trkpt>
      <trkpt lat="45.09499" lon="6.15333">
        <ele>1839.1</ele>
        <time>2026-08-25T09:45:35Z</time>
      </trkpt>
      <trkpt lat="45.09501" lon="6.15334">
        <ele>1839.3</ele>
        <time>2026-08-25T09:45:36Z</time>
      </trkpt>
      <trkpt lat="45.09503" lon="6.15335">
        <ele>1839.5</ele>
        <time>2026-08-25T09:45:37Z</time>
      </trkpt>
      <trkpt lat="45.09506" lon="6.15336">
        <ele>1839.8</ele>
        <time>2026-08-25T09:45:38Z</time>
      </trkpt>
      <trkpt lat="45.09508" lon="6.15336">
        <ele>1840.1</ele>
        <time>2026-08-25T09:45:39Z</time>
      </trkpt>
      <trkpt lat="45.0951" lon="6.15337">
        <ele>1840.4</ele>
        <time>2026-08-25T09:45:40Z</time>
      </trkpt>
      <trkpt lat="45.09512" lon="6.15339">
        <ele>1840.6</ele>
        <time>2026-08-25T09:45:41Z</time>
      </trkpt>
      <trkpt lat="45.09515" lon="6.1534">
        <ele>1840.9</ele>
        <time>2026-08-25T09:45:42Z</time>
      </trkpt>
      <trkpt lat="45.09517" lon="6.1534">
        <ele>1841.1</ele>
        <time>2026-08-25T09:45:43Z</time>
      </trkpt>
      <trkpt lat="45.09519" lon="6.15342">
        <ele>1841.4</ele>
        <time>2026-08-25T09:45:44Z</time>
      </trkpt>
      <trkpt lat="45.09521" lon="6.15343">
        <ele>1841.6</ele>
        <time>2026-08-25T09:45:45Z</time>
      </trkpt>
      <trkpt lat="45.09523" lon="6.15344">
        <ele>1841.9</ele>
        <time>2026-08-25T09:45:46Z</time>
      </trkpt>
      <trkpt lat="45.09526" lon="6.15345">
        <ele>1842.2</ele>
        <time>2026-08-25T09:45:47Z</time>
      </trkpt>
      <trkpt lat="45.09528" lon="6.15346">
        <ele>1842.5</ele>
        <time>2026-08-25T09:45:48Z</time>
      </trkpt>
      <trkpt lat="45.0953" lon="6.15347">
        <ele>1842.7</ele>
        <time>2026-08-25T09:45:49Z</time>
      </trkpt>
      <trkpt lat="45.09532" lon="6.15348">
        <ele>1843</ele>
        <time>2026-08-25T09:45:50Z</time>
      </trkpt>
      <trkpt lat="45.09535" lon="6.15349">
        <ele>1843.3</ele>
        <time>2026-08-25T09:45:51Z</time>
      </trkpt>
      <trkpt lat="45.09537" lon="6.1535">
        <ele>1843.6</ele>
        <time>2026-08-25T09:45:52Z</time>
      </trkpt>
      <trkpt lat="45.09539" lon="6.15352">
        <ele>1843.9</ele>
        <time>2026-08-25T09:45:53Z</time>
      </trkpt>
      <trkpt lat="45.09542" lon="6.15353">
        <ele>1844.2</ele>
        <time>2026-08-25T09:45:54Z</time>
      </trkpt>
      <trkpt lat="45.09544" lon="6.15354">
        <ele>1844.5</ele>
        <time>2026-08-25T09:45:55Z</time>
      </trkpt>
      <trkpt lat="45.09547" lon="6.15354">
        <ele>1844.8</ele>
        <time>2026-08-25T09:45:56Z</time>
      </trkpt>
      <trkpt lat="45.09549" lon="6.15356">
        <ele>1845.1</ele>
        <time>2026-08-25T09:45:57Z</time>
      </trkpt>
      <trkpt lat="45.09552" lon="6.15357">
        <ele>1845.5</ele>
        <time>2026-08-25T09:45:58Z</time>
      </trkpt>
      <trkpt lat="45.09554" lon="6.15357">
        <ele>1845.8</ele>
        <time>2026-08-25T09:45:59Z</time>
      </trkpt>
      <trkpt lat="45.09557" lon="6.15358">
        <ele>1846.1</ele>
        <time>2026-08-25T09:46:00Z</time>
      </trkpt>
      <trkpt lat="45.09559" lon="6.15359">
        <ele>1846.4</ele>
        <time>2026-08-25T09:46:01Z</time>
      </trkpt>
      <trkpt lat="45.09562" lon="6.15361">
        <ele>1846.7</ele>
        <time>2026-08-25T09:46:02Z</time>
      </trkpt>
      <trkpt lat="45.09564" lon="6.15362">
        <ele>1847.1</ele>
        <time>2026-08-25T09:46:03Z</time>
      </trkpt>
      <trkpt lat="45.09567" lon="6.15363">
        <ele>1847.4</ele>
        <time>2026-08-25T09:46:04Z</time>
      </trkpt>
      <trkpt lat="45.09569" lon="6.15363">
        <ele>1847.7</ele>
        <time>2026-08-25T09:46:05Z</time>
      </trkpt>
      <trkpt lat="45.09572" lon="6.15364">
        <ele>1848</ele>
        <time>2026-08-25T09:46:06Z</time>
      </trkpt>
      <trkpt lat="45.09574" lon="6.15365">
        <ele>1848.3</ele>
        <time>2026-08-25T09:46:07Z</time>
      </trkpt>
      <trkpt lat="45.09577" lon="6.15365">
        <ele>1848.6</ele>
        <time>2026-08-25T09:46:08Z</time>
      </trkpt>
      <trkpt lat="45.09579" lon="6.15366">
        <ele>1848.9</ele>
        <time>2026-08-25T09:46:09Z</time>
      </trkpt>
      <trkpt lat="45.09581" lon="6.15367">
        <ele>1849.2</ele>
        <time>2026-08-25T09:46:10Z</time>
      </trkpt>
      <trkpt lat="45.09583" lon="6.15368">
        <ele>1849.5</ele>
        <time>2026-08-25T09:46:11Z</time>
      </trkpt>
      <trkpt lat="45.09585" lon="6.15369">
        <ele>1849.8</ele>
        <time>2026-08-25T09:46:12Z</time>
      </trkpt>
      <trkpt lat="45.09587" lon="6.1537">
        <ele>1850</ele>
        <time>2026-08-25T09:46:13Z</time>
      </trkpt>
      <trkpt lat="45.09589" lon="6.15371">
        <ele>1850.3</ele>
        <time>2026-08-25T09:46:14Z</time>
      </trkpt>
      <trkpt lat="45.09591" lon="6.15372">
        <ele>1850.5</ele>
        <time>2026-08-25T09:46:15Z</time>
      </trkpt>
      <trkpt lat="45.09593" lon="6.15373">
        <ele>1850.8</ele>
        <time>2026-08-25T09:46:16Z</time>
      </trkpt>
      <trkpt lat="45.09595" lon="6.15373">
        <ele>1851</ele>
        <time>2026-08-25T09:46:17Z</time>
      </trkpt>
      <trkpt lat="45.09597" lon="6.15374">
        <ele>1851.3</ele>
        <time>2026-08-25T09:46:18Z</time>
      </trkpt>
      <trkpt lat="45.09599" lon="6.15375">
        <ele>1851.6</ele>
        <time>2026-08-25T09:46:19Z</time>
      </trkpt>
      <trkpt lat="45.09601" lon="6.15376">
        <ele>1851.9</ele>
        <time>2026-08-25T09:46:20Z</time>
      </trkpt>
      <trkpt lat="45.09603" lon="6.15377">
        <ele>1852.1</ele>
        <time>2026-08-25T09:46:21Z</time>
      </trkpt>
      <trkpt lat="45.09606" lon="6.15377">
        <ele>1852.4</ele>
        <time>2026-08-25T09:46:22Z</time>
      </trkpt>
      <trkpt lat="45.09608" lon="6.15378">
        <ele>1852.8</ele>
        <time>2026-08-25T09:46:23Z</time>
      </trkpt>
      <trkpt lat="45.09611" lon="6.15379">
        <ele>1853.1</ele>
        <time>2026-08-25T09:46:24Z</time>
      </trkpt>
      <trkpt lat="45.09613" lon="6.1538">
        <ele>1853.4</ele>
        <time>2026-08-25T09:46:25Z</time>
      </trkpt>
      <trkpt lat="45.09615" lon="6.15382">
        <ele>1853.7</ele>
        <time>2026-08-25T09:46:26Z</time>
      </trkpt>
      <trkpt lat="45.09618" lon="6.15383">
        <ele>1854.1</ele>
        <time>2026-08-25T09:46:27Z</time>
      </trkpt>
      <trkpt lat="45.0962" lon="6.15384">
        <ele>1854.4</ele>
        <time>2026-08-25T09:46:28Z</time>
      </trkpt>
      <trkpt lat="45.09622" lon="6.15386">
        <ele>1854.7</ele>
        <time>2026-08-25T09:46:29Z</time>
      </trkpt>
      <trkpt lat="45.09625" lon="6.15388">
        <ele>1855</ele>
        <time>2026-08-25T09:46:30Z</time>
      </trkpt>
      <trkpt lat="45.09627" lon="6.1539">
        <ele>1855.4</ele>
        <time>2026-08-25T09:46:31Z</time>
      </trkpt>
      <trkpt lat="45.09629" lon="6.15391">
        <ele>1855.7</ele>
        <time>2026-08-25T09:46:32Z</time>
      </trkpt>
      <trkpt lat="45.09631" lon="6.15393">
        <ele>1856</ele>
        <time>2026-08-25T09:46:33Z</time>
      </trkpt>
      <trkpt lat="45.09633" lon="6.15394">
        <ele>1856.3</ele>
        <time>2026-08-25T09:46:34Z</time>
      </trkpt>
      <trkpt lat="45.09636" lon="6.15395">
        <ele>1856.6</ele>
        <time>2026-08-25T09:46:35Z</time>
      </trkpt>
      <trkpt lat="45.09638" lon="6.15397">
        <ele>1856.9</ele>
        <time>2026-08-25T09:46:36Z</time>
      </trkpt>
      <trkpt lat="45.0964" lon="6.15398">
        <ele>1857.2</ele>
        <time>2026-08-25T09:46:37Z</time>
      </trkpt>
      <trkpt lat="45.09642" lon="6.154">
        <ele>1857.5</ele>
        <time>2026-08-25T09:46:38Z</time>
      </trkpt>
      <trkpt lat="45.09644" lon="6.15401">
        <ele>1857.8</ele>
        <time>2026-08-25T09:46:39Z</time>
      </trkpt>
      <trkpt lat="45.09646" lon="6.15403">
        <ele>1858.1</ele>
        <time>2026-08-25T09:46:40Z</time>
      </trkpt>
      <trkpt lat="45.09648" lon="6.15405">
        <ele>1858.4</ele>
        <time>2026-08-25T09:46:41Z</time>
      </trkpt>
      <trkpt lat="45.0965" lon="6.15407">
        <ele>1858.7</ele>
        <time>2026-08-25T09:46:42Z</time>
      </trkpt>
      <trkpt lat="45.09653" lon="6.15408">
        <ele>1859</ele>
        <time>2026-08-25T09:46:43Z</time>
      </trkpt>
      <trkpt lat="45.09655" lon="6.1541">
        <ele>1859.3</ele>
        <time>2026-08-25T09:46:44Z</time>
      </trkpt>
      <trkpt lat="45.09657" lon="6.15412">
        <ele>1859.5</ele>
        <time>2026-08-25T09:46:45Z</time>
      </trkpt>
      <trkpt lat="45.09659" lon="6.15414">
        <ele>1859.8</ele>
        <time>2026-08-25T09:46:46Z</time>
      </trkpt>
      <trkpt lat="45.09661" lon="6.15416">
        <ele>1860.1</ele>
        <time>2026-08-25T09:46:47Z</time>
      </trkpt>
      <trkpt lat="45.09663" lon="6.15418">
        <ele>1860.4</ele>
        <time>2026-08-25T09:46:48Z</time>
      </trkpt>
      <trkpt lat="45.09665" lon="6.1542">
        <ele>1860.7</ele>
        <time>2026-08-25T09:46:49Z</time>
      </trkpt>
      <trkpt lat="45.09668" lon="6.15421">
        <ele>1860.9</ele>
        <time>2026-08-25T09:46:50Z</time>
      </trkpt>
      <trkpt lat="45.0967" lon="6.15422">
        <ele>1861.2</ele>
        <time>2026-08-25T09:46:51Z</time>
      </trkpt>
      <trkpt lat="45.09672" lon="6.15424">
        <ele>1861.5</ele>
        <time>2026-08-25T09:46:52Z</time>
      </trkpt>
      <trkpt lat="45.09675" lon="6.15425">
        <ele>1861.8</ele>
        <time>2026-08-25T09:46:53Z</time>
      </trkpt>
      <trkpt lat="45.09677" lon="6.15426">
        <ele>1862.1</ele>
        <time>2026-08-25T09:46:54Z</time>
      </trkpt>
      <trkpt lat="45.09679" lon="6.15428">
        <ele>1862.4</ele>
        <time>2026-08-25T09:46:55Z</time>
      </trkpt>
      <trkpt lat="45.09682" lon="6.15429">
        <ele>1862.7</ele>
        <time>2026-08-25T09:46:56Z</time>
      </trkpt>
      <trkpt lat="45.09684" lon="6.1543">
        <ele>1863</ele>
        <time>2026-08-25T09:46:57Z</time>
      </trkpt>
      <trkpt lat="45.09686" lon="6.15431">
        <ele>1863.2</ele>
        <time>2026-08-25T09:46:58Z</time>
      </trkpt>
      <trkpt lat="45.09688" lon="6.15433">
        <ele>1863.5</ele>
        <time>2026-08-25T09:46:59Z</time>
      </trkpt>
      <trkpt lat="45.0969" lon="6.15434">
        <ele>1863.8</ele>
        <time>2026-08-25T09:47:00Z</time>
      </trkpt>
      <trkpt lat="45.09693" lon="6.15435">
        <ele>1864.1</ele>
        <time>2026-08-25T09:47:01Z</time>
      </trkpt>
      <trkpt lat="45.09695" lon="6.15436">
        <ele>1864.5</ele>
        <time>2026-08-25T09:47:02Z</time>
      </trkpt>
      <trkpt lat="45.09697" lon="6.15437">
        <ele>1864.8</ele>
        <time>2026-08-25T09:47:03Z</time>
      </trkpt>
      <trkpt lat="45.097" lon="6.15439">
        <ele>1865.1</ele>
        <time>2026-08-25T09:47:04Z</time>
      </trkpt>
      <trkpt lat="45.09703" lon="6.1544">
        <ele>1865.4</ele>
        <time>2026-08-25T09:47:05Z</time>
      </trkpt>
      <trkpt lat="45.09705" lon="6.15441">
        <ele>1865.8</ele>
        <time>2026-08-25T09:47:06Z</time>
      </trkpt>
      <trkpt lat="45.09708" lon="6.15443">
        <ele>1866.1</ele>
        <time>2026-08-25T09:47:07Z</time>
      </trkpt>
      <trkpt lat="45.0971" lon="6.15445">
        <ele>1866.4</ele>
        <time>2026-08-25T09:47:08Z</time>
      </trkpt>
      <trkpt lat="45.09712" lon="6.15446">
        <ele>1866.7</ele>
        <time>2026-08-25T09:47:09Z</time>
      </trkpt>
      <trkpt lat="45.09714" lon="6.15448">
        <ele>1867</ele>
        <time>2026-08-25T09:47:10Z</time>
      </trkpt>
      <trkpt lat="45.09716" lon="6.1545">
        <ele>1867.2</ele>
        <time>2026-08-25T09:47:11Z</time>
      </trkpt>
      <trkpt lat="45.09718" lon="6.15451">
        <ele>1867.6</ele>
        <time>2026-08-25T09:47:12Z</time>
      </trkpt>
      <trkpt lat="45.09721" lon="6.15453">
        <ele>1867.9</ele>
        <time>2026-08-25T09:47:13Z</time>
      </trkpt>
      <trkpt lat="45.09723" lon="6.15455">
        <ele>1868.3</ele>
        <time>2026-08-25T09:47:14Z</time>
      </trkpt>
      <trkpt lat="45.09727" lon="6.15455">
        <ele>1868.7</ele>
        <time>2026-08-25T09:47:15Z</time>
      </trkpt>
      <trkpt lat="45.0973" lon="6.15454">
        <ele>1869.1</ele>
        <time>2026-08-25T09:47:16Z</time>
      </trkpt>
      <trkpt lat="45.09733" lon="6.15452">
        <ele>1869.4</ele>
        <time>2026-08-25T09:47:17Z</time>
      </trkpt>
      <trkpt lat="45.09733" lon="6.15449">
        <ele>1869.7</ele>
        <time>2026-08-25T09:47:18Z</time>
      </trkpt>
      <trkpt lat="45.09733" lon="6.15446">
        <ele>1870</ele>
        <time>2026-08-25T09:47:19Z</time>
      </trkpt>
      <trkpt lat="45.09731" lon="6.15443">
        <ele>1870.3</ele>
        <time>2026-08-25T09:47:20Z</time>
      </trkpt>
      <trkpt lat="45.0973" lon="6.15439">
        <ele>1870.5</ele>
        <time>2026-08-25T09:47:21Z</time>
      </trkpt>
      <trkpt lat="45.09728" lon="6.15437">
        <ele>1870.8</ele>
        <time>2026-08-25T09:47:22Z</time>
      </trkpt>
      <trkpt lat="45.09725" lon="6.15435">
        <ele>1871</ele>
        <time>2026-08-25T09:47:23Z</time>
      </trkpt>
      <trkpt lat="45.09723" lon="6.15432">
        <ele>1871.3</ele>
        <time>2026-08-25T09:47:24Z</time>
      </trkpt>
      <trkpt lat="45.0972" lon="6.15431">
        <ele>1871.5</ele>
        <time>2026-08-25T09:47:25Z</time>
      </trkpt>
      <trkpt lat="45.09717" lon="6.1543">
        <ele>1871.7</ele>
        <time>2026-08-25T09:47:26Z</time>
      </trkpt>
      <trkpt lat="45.09715" lon="6.15428">
        <ele>1871.9</ele>
        <time>2026-08-25T09:47:27Z</time>
      </trkpt>
      <trkpt lat="45.09712" lon="6.15426">
        <ele>1872.1</ele>
        <time>2026-08-25T09:47:28Z</time>
      </trkpt>
      <trkpt lat="45.0971" lon="6.15424">
        <ele>1872.3</ele>
        <time>2026-08-25T09:47:29Z</time>
      </trkpt>
      <trkpt lat="45.09708" lon="6.15422">
        <ele>1872.5</ele>
        <time>2026-08-25T09:47:30Z</time>
      </trkpt>
      <trkpt lat="45.09705" lon="6.1542">
        <ele>1872.7</ele>
        <time>2026-08-25T09:47:31Z</time>
      </trkpt>
      <trkpt lat="45.09703" lon="6.15418">
        <ele>1872.9</ele>
        <time>2026-08-25T09:47:32Z</time>
      </trkpt>
      <trkpt lat="45.09701" lon="6.15415">
        <ele>1873.2</ele>
        <time>2026-08-25T09:47:33Z</time>
      </trkpt>
      <trkpt lat="45.09699" lon="6.15413">
        <ele>1873.4</ele>
        <time>2026-08-25T09:47:34Z</time>
      </trkpt>
      <trkpt lat="45.09697" lon="6.1541">
        <ele>1873.6</ele>
        <time>2026-08-25T09:47:35Z</time>
      </trkpt>
      <trkpt lat="45.09695" lon="6.15408">
        <ele>1873.8</ele>
        <time>2026-08-25T09:47:36Z</time>
      </trkpt>
      <trkpt lat="45.09692" lon="6.15406">
        <ele>1874.1</ele>
        <time>2026-08-25T09:47:37Z</time>
      </trkpt>
      <trkpt lat="45.0969" lon="6.15403">
        <ele>1874.3</ele>
        <time>2026-08-25T09:47:38Z</time>
      </trkpt>
      <trkpt lat="45.09688" lon="6.15401">
        <ele>1874.6</ele>
        <time>2026-08-25T09:47:39Z</time>
      </trkpt>
      <trkpt lat="45.09685" lon="6.15399">
        <ele>1874.8</ele>
        <time>2026-08-25T09:47:40Z</time>
      </trkpt>
      <trkpt lat="45.09683" lon="6.15397">
        <ele>1875</ele>
        <time>2026-08-25T09:47:41Z</time>
      </trkpt>
      <trkpt lat="45.09681" lon="6.15394">
        <ele>1875.3</ele>
        <time>2026-08-25T09:47:42Z</time>
      </trkpt>
      <trkpt lat="45.09679" lon="6.15391">
        <ele>1875.5</ele>
        <time>2026-08-25T09:47:43Z</time>
      </trkpt>
      <trkpt lat="45.09677" lon="6.15388">
        <ele>1875.8</ele>
        <time>2026-08-25T09:47:44Z</time>
      </trkpt>
      <trkpt lat="45.09675" lon="6.15385">
        <ele>1876</ele>
        <time>2026-08-25T09:47:45Z</time>
      </trkpt>
      <trkpt lat="45.09673" lon="6.15383">
        <ele>1876.3</ele>
        <time>2026-08-25T09:47:46Z</time>
      </trkpt>
      <trkpt lat="45.09671" lon="6.1538">
        <ele>1876.5</ele>
        <time>2026-08-25T09:47:47Z</time>
      </trkpt>
      <trkpt lat="45.09669" lon="6.15377">
        <ele>1876.7</ele>
        <time>2026-08-25T09:47:48Z</time>
      </trkpt>
      <trkpt lat="45.09667" lon="6.15375">
        <ele>1877</ele>
        <time>2026-08-25T09:47:49Z</time>
      </trkpt>
      <trkpt lat="45.09665" lon="6.15372">
        <ele>1877.2</ele>
        <time>2026-08-25T09:47:50Z</time>
      </trkpt>
      <trkpt lat="45.09663" lon="6.15369">
        <ele>1877.5</ele>
        <time>2026-08-25T09:47:51Z</time>
      </trkpt>
      <trkpt lat="45.0966" lon="6.15367">
        <ele>1877.7</ele>
        <time>2026-08-25T09:47:52Z</time>
      </trkpt>
      <trkpt lat="45.09658" lon="6.15365">
        <ele>1878</ele>
        <time>2026-08-25T09:47:53Z</time>
      </trkpt>
      <trkpt lat="45.09655" lon="6.15363">
        <ele>1878.2</ele>
        <time>2026-08-25T09:47:54Z</time>
      </trkpt>
      <trkpt lat="45.09653" lon="6.15362">
        <ele>1878.4</ele>
        <time>2026-08-25T09:47:55Z</time>
      </trkpt>
      <trkpt lat="45.0965" lon="6.1536">
        <ele>1878.7</ele>
        <time>2026-08-25T09:47:56Z</time>
      </trkpt>
      <trkpt lat="45.09648" lon="6.15359">
        <ele>1878.9</ele>
        <time>2026-08-25T09:47:57Z</time>
      </trkpt>
      <trkpt lat="45.09646" lon="6.15357">
        <ele>1879.2</ele>
        <time>2026-08-25T09:47:58Z</time>
      </trkpt>
      <trkpt lat="45.09643" lon="6.15355">
        <ele>1879.4</ele>
        <time>2026-08-25T09:47:59Z</time>
      </trkpt>
      <trkpt lat="45.09641" lon="6.15353">
        <ele>1879.7</ele>
        <time>2026-08-25T09:48:00Z</time>
      </trkpt>
      <trkpt lat="45.09638" lon="6.15351">
        <ele>1879.9</ele>
        <time>2026-08-25T09:48:01Z</time>
      </trkpt>
      <trkpt lat="45.09636" lon="6.15349">
        <ele>1880.2</ele>
        <time>2026-08-25T09:48:02Z</time>
      </trkpt>
      <trkpt lat="45.09634" lon="6.15347">
        <ele>1880.4</ele>
        <time>2026-08-25T09:48:03Z</time>
      </trkpt>
      <trkpt lat="45.09632" lon="6.15345">
        <ele>1880.7</ele>
        <time>2026-08-25T09:48:04Z</time>
      </trkpt>
      <trkpt lat="45.0963" lon="6.15343">
        <ele>1880.9</ele>
        <time>2026-08-25T09:48:05Z</time>
      </trkpt>
      <trkpt lat="45.09628" lon="6.1534">
        <ele>1881.2</ele>
        <time>2026-08-25T09:48:06Z</time>
      </trkpt>
      <trkpt lat="45.09626" lon="6.15338">
        <ele>1881.5</ele>
        <time>2026-08-25T09:48:07Z</time>
      </trkpt>
      <trkpt lat="45.09624" lon="6.15336">
        <ele>1881.7</ele>
        <time>2026-08-25T09:48:08Z</time>
      </trkpt>
      <trkpt lat="45.09622" lon="6.15334">
        <ele>1882</ele>
        <time>2026-08-25T09:48:09Z</time>
      </trkpt>
      <trkpt lat="45.09619" lon="6.15331">
        <ele>1882.3</ele>
        <time>2026-08-25T09:48:10Z</time>
      </trkpt>
      <trkpt lat="45.09617" lon="6.15329">
        <ele>1882.6</ele>
        <time>2026-08-25T09:48:11Z</time>
      </trkpt>
      <trkpt lat="45.09614" lon="6.15328">
        <ele>1882.9</ele>
        <time>2026-08-25T09:48:12Z</time>
      </trkpt>
      <trkpt lat="45.09612" lon="6.15326">
        <ele>1883.2</ele>
        <time>2026-08-25T09:48:13Z</time>
      </trkpt>
      <trkpt lat="45.0961" lon="6.15324">
        <ele>1883.5</ele>
        <time>2026-08-25T09:48:14Z</time>
      </trkpt>
      <trkpt lat="45.09608" lon="6.15322">
        <ele>1883.8</ele>
        <time>2026-08-25T09:48:15Z</time>
      </trkpt>
      <trkpt lat="45.09606" lon="6.15319">
        <ele>1884.2</ele>
        <time>2026-08-25T09:48:16Z</time>
      </trkpt>
      <trkpt lat="45.09605" lon="6.15316">
        <ele>1884.5</ele>
        <time>2026-08-25T09:48:17Z</time>
      </trkpt>
      <trkpt lat="45.09603" lon="6.15314">
        <ele>1884.8</ele>
        <time>2026-08-25T09:48:18Z</time>
      </trkpt>
      <trkpt lat="45.09601" lon="6.15311">
        <ele>1885.1</ele>
        <time>2026-08-25T09:48:19Z</time>
      </trkpt>
      <trkpt lat="45.096" lon="6.15309">
        <ele>1885.4</ele>
        <time>2026-08-25T09:48:20Z</time>
      </trkpt>
      <trkpt lat="45.09599" lon="6.15306">
        <ele>1885.7</ele>
        <time>2026-08-25T09:48:21Z</time>
      </trkpt>
      <trkpt lat="45.09597" lon="6.15303">
        <ele>1886</ele>
        <time>2026-08-25T09:48:22Z</time>
      </trkpt>
      <trkpt lat="45.09596" lon="6.153">
        <ele>1886.4</ele>
        <time>2026-08-25T09:48:23Z</time>
      </trkpt>
      <trkpt lat="45.09594" lon="6.15297">
        <ele>1886.7</ele>
        <time>2026-08-25T09:48:24Z</time>
      </trkpt>
      <trkpt lat="45.09592" lon="6.15294">
        <ele>1887.1</ele>
        <time>2026-08-25T09:48:25Z</time>
      </trkpt>
      <trkpt lat="45.09591" lon="6.15291">
        <ele>1887.4</ele>
        <time>2026-08-25T09:48:26Z</time>
      </trkpt>
      <trkpt lat="45.09589" lon="6.15287">
        <ele>1887.8</ele>
        <time>2026-08-25T09:48:27Z</time>
      </trkpt>
      <trkpt lat="45.09588" lon="6.15284">
        <ele>1888.1</ele>
        <time>2026-08-25T09:48:28Z</time>
      </trkpt>
      <trkpt lat="45.09586" lon="6.15281">
        <ele>1888.5</ele>
        <time>2026-08-25T09:48:29Z</time>
      </trkpt>
      <trkpt lat="45.09585" lon="6.15279">
        <ele>1888.8</ele>
        <time>2026-08-25T09:48:30Z</time>
      </trkpt>
      <trkpt lat="45.09583" lon="6.15276">
        <ele>1889.1</ele>
        <time>2026-08-25T09:48:31Z</time>
      </trkpt>
      <trkpt lat="45.09581" lon="6.15274">
        <ele>1889.5</ele>
        <time>2026-08-25T09:48:32Z</time>
      </trkpt>
      <trkpt lat="45.09579" lon="6.15271">
        <ele>1889.8</ele>
        <time>2026-08-25T09:48:33Z</time>
      </trkpt>
      <trkpt lat="45.09577" lon="6.15268">
        <ele>1890.1</ele>
        <time>2026-08-25T09:48:34Z</time>
      </trkpt>
      <trkpt lat="45.09576" lon="6.15266">
        <ele>1890.4</ele>
        <time>2026-08-25T09:48:35Z</time>
      </trkpt>
      <trkpt lat="45.09574" lon="6.15264">
        <ele>1890.7</ele>
        <time>2026-08-25T09:48:36Z</time>
      </trkpt>
      <trkpt lat="45.09573" lon="6.15262">
        <ele>1891</ele>
        <time>2026-08-25T09:48:37Z</time>
      </trkpt>
      <trkpt lat="45.09571" lon="6.1526">
        <ele>1891.3</ele>
        <time>2026-08-25T09:48:38Z</time>
      </trkpt>
      <trkpt lat="45.09569" lon="6.15258">
        <ele>1891.6</ele>
        <time>2026-08-25T09:48:39Z</time>
      </trkpt>
      <trkpt lat="45.09567" lon="6.15256">
        <ele>1891.9</ele>
        <time>2026-08-25T09:48:40Z</time>
      </trkpt>
      <trkpt lat="45.09565" lon="6.15255">
        <ele>1892.1</ele>
        <time>2026-08-25T09:48:41Z</time>
      </trkpt>
      <trkpt lat="45.09564" lon="6.15253">
        <ele>1892.4</ele>
        <time>2026-08-25T09:48:42Z</time>
      </trkpt>
      <trkpt lat="45.09562" lon="6.15251">
        <ele>1892.6</ele>
        <time>2026-08-25T09:48:43Z</time>
      </trkpt>
      <trkpt lat="45.0956" lon="6.15249">
        <ele>1892.9</ele>
        <time>2026-08-25T09:48:44Z</time>
      </trkpt>
      <trkpt lat="45.09559" lon="6.15247">
        <ele>1893.2</ele>
        <time>2026-08-25T09:48:45Z</time>
      </trkpt>
      <trkpt lat="45.09557" lon="6.15245">
        <ele>1893.4</ele>
        <time>2026-08-25T09:48:46Z</time>
      </trkpt>
      <trkpt lat="45.09555" lon="6.15242">
        <ele>1893.7</ele>
        <time>2026-08-25T09:48:47Z</time>
      </trkpt>
      <trkpt lat="45.09554" lon="6.15241">
        <ele>1893.9</ele>
        <time>2026-08-25T09:48:48Z</time>
      </trkpt>
      <trkpt lat="45.09552" lon="6.15239">
        <ele>1894.2</ele>
        <time>2026-08-25T09:48:49Z</time>
      </trkpt>
      <trkpt lat="45.09551" lon="6.15237">
        <ele>1894.4</ele>
        <time>2026-08-25T09:48:50Z</time>
      </trkpt>
      <trkpt lat="45.09549" lon="6.15235">
        <ele>1894.7</ele>
        <time>2026-08-25T09:48:51Z</time>
      </trkpt>
      <trkpt lat="45.09548" lon="6.15232">
        <ele>1895</ele>
        <time>2026-08-25T09:48:52Z</time>
      </trkpt>
      <trkpt lat="45.09546" lon="6.1523">
        <ele>1895.2</ele>
        <time>2026-08-25T09:48:53Z</time>
      </trkpt>
      <trkpt lat="45.09544" lon="6.15228">
        <ele>1895.5</ele>
        <time>2026-08-25T09:48:54Z</time>
      </trkpt>
      <trkpt lat="45.09543" lon="6.15226">
        <ele>1895.8</ele>
        <time>2026-08-25T09:48:55Z</time>
      </trkpt>
      <trkpt lat="45.09541" lon="6.15224">
        <ele>1896</ele>
        <time>2026-08-25T09:48:56Z</time>
      </trkpt>
      <trkpt lat="45.0954" lon="6.15222">
        <ele>1896.3</ele>
        <time>2026-08-25T09:48:57Z</time>
      </trkpt>
      <trkpt lat="45.09539" lon="6.15219">
        <ele>1896.5</ele>
        <time>2026-08-25T09:48:58Z</time>
      </trkpt>
      <trkpt lat="45.09537" lon="6.15217">
        <ele>1896.8</ele>
        <time>2026-08-25T09:48:59Z</time>
      </trkpt>
      <trkpt lat="45.09536" lon="6.15215">
        <ele>1897</ele>
        <time>2026-08-25T09:49:00Z</time>
      </trkpt>
      <trkpt lat="45.09534" lon="6.15213">
        <ele>1897.2</ele>
        <time>2026-08-25T09:49:01Z</time>
      </trkpt>
      <trkpt lat="45.09533" lon="6.15211">
        <ele>1897.5</ele>
        <time>2026-08-25T09:49:02Z</time>
      </trkpt>
      <trkpt lat="45.09531" lon="6.15209">
        <ele>1897.7</ele>
        <time>2026-08-25T09:49:03Z</time>
      </trkpt>
      <trkpt lat="45.0953" lon="6.15207">
        <ele>1897.9</ele>
        <time>2026-08-25T09:49:04Z</time>
      </trkpt>
      <trkpt lat="45.09528" lon="6.15205">
        <ele>1898.2</ele>
        <time>2026-08-25T09:49:05Z</time>
      </trkpt>
      <trkpt lat="45.09527" lon="6.15202">
        <ele>1898.5</ele>
        <time>2026-08-25T09:49:06Z</time>
      </trkpt>
      <trkpt lat="45.09525" lon="6.152">
        <ele>1898.7</ele>
        <time>2026-08-25T09:49:07Z</time>
      </trkpt>
      <trkpt lat="45.09523" lon="6.15198">
        <ele>1899</ele>
        <time>2026-08-25T09:49:08Z</time>
      </trkpt>
      <trkpt lat="45.09521" lon="6.15195">
        <ele>1899.3</ele>
        <time>2026-08-25T09:49:09Z</time>
      </trkpt>
      <trkpt lat="45.09519" lon="6.15193">
        <ele>1899.7</ele>
        <time>2026-08-25T09:49:10Z</time>
      </trkpt>
      <trkpt lat="45.09516" lon="6.15191">
        <ele>1900</ele>
        <time>2026-08-25T09:49:11Z</time>
      </trkpt>
      <trkpt lat="45.09514" lon="6.15189">
        <ele>1900.2</ele>
        <time>2026-08-25T09:49:12Z</time>
      </trkpt>
      <trkpt lat="45.09512" lon="6.15188">
        <ele>1900.5</ele>
        <time>2026-08-25T09:49:13Z</time>
      </trkpt>
      <trkpt lat="45.0951" lon="6.15186">
        <ele>1900.8</ele>
        <time>2026-08-25T09:49:14Z</time>
      </trkpt>
      <trkpt lat="45.09508" lon="6.15185">
        <ele>1901</ele>
        <time>2026-08-25T09:49:15Z</time>
      </trkpt>
      <trkpt lat="45.09506" lon="6.15184">
        <ele>1901.3</ele>
        <time>2026-08-25T09:49:16Z</time>
      </trkpt>
      <trkpt lat="45.09503" lon="6.15183">
        <ele>1901.5</ele>
        <time>2026-08-25T09:49:17Z</time>
      </trkpt>
      <trkpt lat="45.09501" lon="6.15183">
        <ele>1901.7</ele>
        <time>2026-08-25T09:49:18Z</time>
      </trkpt>
      <trkpt lat="45.09499" lon="6.15182">
        <ele>1902</ele>
        <time>2026-08-25T09:49:19Z</time>
      </trkpt>
      <trkpt lat="45.09497" lon="6.15182">
        <ele>1902.2</ele>
        <time>2026-08-25T09:49:20Z</time>
      </trkpt>
      <trkpt lat="45.09495" lon="6.15181">
        <ele>1902.5</ele>
        <time>2026-08-25T09:49:21Z</time>
      </trkpt>
      <trkpt lat="45.09493" lon="6.15181">
        <ele>1902.7</ele>
        <time>2026-08-25T09:49:22Z</time>
      </trkpt>
      <trkpt lat="45.09491" lon="6.1518">
        <ele>1902.9</ele>
        <time>2026-08-25T09:49:23Z</time>
      </trkpt>
      <trkpt lat="45.09489" lon="6.1518">
        <ele>1903.2</ele>
        <time>2026-08-25T09:49:24Z</time>
      </trkpt>
      <trkpt lat="45.09487" lon="6.15178">
        <ele>1903.4</ele>
        <time>2026-08-25T09:49:25Z</time>
      </trkpt>
      <trkpt lat="45.09484" lon="6.15177">
        <ele>1903.7</ele>
        <time>2026-08-25T09:49:26Z</time>
      </trkpt>
      <trkpt lat="45.09483" lon="6.15176">
        <ele>1903.9</ele>
        <time>2026-08-25T09:49:27Z</time>
      </trkpt>
      <trkpt lat="45.09481" lon="6.15175">
        <ele>1904.1</ele>
        <time>2026-08-25T09:49:28Z</time>
      </trkpt>
      <trkpt lat="45.09479" lon="6.15173">
        <ele>1904.4</ele>
        <time>2026-08-25T09:49:29Z</time>
      </trkpt>
      <trkpt lat="45.09477" lon="6.15171">
        <ele>1904.6</ele>
        <time>2026-08-25T09:49:30Z</time>
      </trkpt>
      <trkpt lat="45.09475" lon="6.1517">
        <ele>1904.9</ele>
        <time>2026-08-25T09:49:31Z</time>
      </trkpt>
      <trkpt lat="45.09473" lon="6.15168">
        <ele>1905.1</ele>
        <time>2026-08-25T09:49:32Z</time>
      </trkpt>
      <trkpt lat="45.09472" lon="6.15166">
        <ele>1905.4</ele>
        <time>2026-08-25T09:49:33Z</time>
      </trkpt>
      <trkpt lat="45.0947" lon="6.15164">
        <ele>1905.6</ele>
        <time>2026-08-25T09:49:34Z</time>
      </trkpt>
      <trkpt lat="45.09469" lon="6.15162">
        <ele>1905.9</ele>
        <time>2026-08-25T09:49:35Z</time>
      </trkpt>
      <trkpt lat="45.09467" lon="6.1516">
        <ele>1906.1</ele>
        <time>2026-08-25T09:49:36Z</time>
      </trkpt>
      <trkpt lat="45.09465" lon="6.15159">
        <ele>1906.3</ele>
        <time>2026-08-25T09:49:37Z</time>
      </trkpt>
      <trkpt lat="45.09463" lon="6.15158">
        <ele>1906.6</ele>
        <time>2026-08-25T09:49:38Z</time>
      </trkpt>
      <trkpt lat="45.09461" lon="6.15157">
        <ele>1906.8</ele>
        <time>2026-08-25T09:49:39Z</time>
      </trkpt>
      <trkpt lat="45.09459" lon="6.15156">
        <ele>1907.1</ele>
        <time>2026-08-25T09:49:40Z</time>
      </trkpt>
      <trkpt lat="45.09457" lon="6.15154">
        <ele>1907.3</ele>
        <time>2026-08-25T09:49:41Z</time>
      </trkpt>
      <trkpt lat="45.09455" lon="6.15153">
        <ele>1907.6</ele>
        <time>2026-08-25T09:49:42Z</time>
      </trkpt>
      <trkpt lat="45.09453" lon="6.15152">
        <ele>1907.8</ele>
        <time>2026-08-25T09:49:43Z</time>
      </trkpt>
      <trkpt lat="45.09451" lon="6.15151">
        <ele>1908</ele>
        <time>2026-08-25T09:49:44Z</time>
      </trkpt>
      <trkpt lat="45.09449" lon="6.1515">
        <ele>1908.3</ele>
        <time>2026-08-25T09:49:45Z</time>
      </trkpt>
      <trkpt lat="45.09447" lon="6.1515">
        <ele>1908.5</ele>
        <time>2026-08-25T09:49:46Z</time>
      </trkpt>
      <trkpt lat="45.09445" lon="6.1515">
        <ele>1908.7</ele>
        <time>2026-08-25T09:49:47Z</time>
      </trkpt>
      <trkpt lat="45.09443" lon="6.15149">
        <ele>1908.9</ele>
        <time>2026-08-25T09:49:48Z</time>
      </trkpt>
      <trkpt lat="45.0944" lon="6.15149">
        <ele>1909.2</ele>
        <time>2026-08-25T09:49:49Z</time>
      </trkpt>
      <trkpt lat="45.09438" lon="6.15148">
        <ele>1909.4</ele>
        <time>2026-08-25T09:49:50Z</time>
      </trkpt>
      <trkpt lat="45.09436" lon="6.15147">
        <ele>1909.7</ele>
        <time>2026-08-25T09:49:51Z</time>
      </trkpt>
      <trkpt lat="45.09433" lon="6.15147">
        <ele>1910</ele>
        <time>2026-08-25T09:49:52Z</time>
      </trkpt>
      <trkpt lat="45.09431" lon="6.15146">
        <ele>1910.2</ele>
        <time>2026-08-25T09:49:53Z</time>
      </trkpt>
      <trkpt lat="45.09429" lon="6.15145">
        <ele>1910.5</ele>
        <time>2026-08-25T09:49:54Z</time>
      </trkpt>
      <trkpt lat="45.09426" lon="6.15145">
        <ele>1910.8</ele>
        <time>2026-08-25T09:49:55Z</time>
      </trkpt>
      <trkpt lat="45.09424" lon="6.15144">
        <ele>1911</ele>
        <time>2026-08-25T09:49:56Z</time>
      </trkpt>
      <trkpt lat="45.09422" lon="6.15142">
        <ele>1911.2</ele>
        <time>2026-08-25T09:49:57Z</time>
      </trkpt>
      <trkpt lat="45.0942" lon="6.1514">
        <ele>1911.5</ele>
        <time>2026-08-25T09:49:58Z</time>
      </trkpt>
      <trkpt lat="45.09419" lon="6.15138">
        <ele>1911.7</ele>
        <time>2026-08-25T09:49:59Z</time>
      </trkpt>
      <trkpt lat="45.09417" lon="6.15136">
        <ele>1912</ele>
        <time>2026-08-25T09:50:00Z</time>
      </trkpt>
      <trkpt lat="45.09415" lon="6.15133">
        <ele>1912.2</ele>
        <time>2026-08-25T09:50:01Z</time>
      </trkpt>
      <trkpt lat="45.09413" lon="6.15131">
        <ele>1912.5</ele>
        <time>2026-08-25T09:50:02Z</time>
      </trkpt>
      <trkpt lat="45.09411" lon="6.15128">
        <ele>1912.8</ele>
        <time>2026-08-25T09:50:03Z</time>
      </trkpt>
      <trkpt lat="45.09409" lon="6.15126">
        <ele>1912.9</ele>
        <time>2026-08-25T09:50:04Z</time>
      </trkpt>
      <trkpt lat="45.09407" lon="6.15123">
        <ele>1913.1</ele>
        <time>2026-08-25T09:50:05Z</time>
      </trkpt>
      <trkpt lat="45.09406" lon="6.15121">
        <ele>1913.3</ele>
        <time>2026-08-25T09:50:06Z</time>
      </trkpt>
      <trkpt lat="45.09404" lon="6.1512">
        <ele>1913.5</ele>
        <time>2026-08-25T09:50:07Z</time>
      </trkpt>
      <trkpt lat="45.09402" lon="6.15118">
        <ele>1913.7</ele>
        <time>2026-08-25T09:50:08Z</time>
      </trkpt>
      <trkpt lat="45.094" lon="6.15116">
        <ele>1913.9</ele>
        <time>2026-08-25T09:50:09Z</time>
      </trkpt>
      <trkpt lat="45.09398" lon="6.15113">
        <ele>1914.1</ele>
        <time>2026-08-25T09:50:10Z</time>
      </trkpt>
      <trkpt lat="45.09396" lon="6.15111">
        <ele>1914.3</ele>
        <time>2026-08-25T09:50:11Z</time>
      </trkpt>
      <trkpt lat="45.09393" lon="6.15109">
        <ele>1914.5</ele>
        <time>2026-08-25T09:50:12Z</time>
      </trkpt>
      <trkpt lat="45.09391" lon="6.15108">
        <ele>1914.7</ele>
        <time>2026-08-25T09:50:13Z</time>
      </trkpt>
      <trkpt lat="45.09388" lon="6.15107">
        <ele>1914.9</ele>
        <time>2026-08-25T09:50:14Z</time>
      </trkpt>
      <trkpt lat="45.09385" lon="6.15107">
        <ele>1915.1</ele>
        <time>2026-08-25T09:50:15Z</time>
      </trkpt>
      <trkpt lat="45.09382" lon="6.15107">
        <ele>1915.3</ele>
        <time>2026-08-25T09:50:16Z</time>
      </trkpt>
      <trkpt lat="45.09379" lon="6.15108">
        <ele>1915.5</ele>
        <time>2026-08-25T09:50:17Z</time>
      </trkpt>
      <trkpt lat="45.09376" lon="6.1511">
        <ele>1915.6</ele>
        <time>2026-08-25T09:50:18Z</time>
      </trkpt>
      <trkpt lat="45.09373" lon="6.15111">
        <ele>1915.8</ele>
        <time>2026-08-25T09:50:19Z</time>
      </trkpt>
      <trkpt lat="45.0937" lon="6.15112">
        <ele>1916</ele>
        <time>2026-08-25T09:50:20Z</time>
      </trkpt>
      <trkpt lat="45.09368" lon="6.15114">
        <ele>1916.1</ele>
        <time>2026-08-25T09:50:21Z</time>
      </trkpt>
      <trkpt lat="45.09365" lon="6.15115">
        <ele>1916.3</ele>
        <time>2026-08-25T09:50:22Z</time>
      </trkpt>
      <trkpt lat="45.09362" lon="6.15115">
        <ele>1916.4</ele>
        <time>2026-08-25T09:50:23Z</time>
      </trkpt>
      <trkpt lat="45.0936" lon="6.15115">
        <ele>1916.6</ele>
        <time>2026-08-25T09:50:24Z</time>
      </trkpt>
      <trkpt lat="45.09357" lon="6.15113">
        <ele>1916.8</ele>
        <time>2026-08-25T09:50:25Z</time>
      </trkpt>
      <trkpt lat="45.09355" lon="6.1511">
        <ele>1916.9</ele>
        <time>2026-08-25T09:50:26Z</time>
      </trkpt>
      <trkpt lat="45.09353" lon="6.15108">
        <ele>1917.1</ele>
        <time>2026-08-25T09:50:27Z</time>
      </trkpt>
      <trkpt lat="45.09352" lon="6.15105">
        <ele>1917.3</ele>
        <time>2026-08-25T09:50:28Z</time>
      </trkpt>
      <trkpt lat="45.0935" lon="6.15102">
        <ele>1917.5</ele>
        <time>2026-08-25T09:50:29Z</time>
      </trkpt>
      <trkpt lat="45.09349" lon="6.151">
        <ele>1917.7</ele>
        <time>2026-08-25T09:50:30Z</time>
      </trkpt>
      <trkpt lat="45.09347" lon="6.15097">
        <ele>1917.9</ele>
        <time>2026-08-25T09:50:31Z</time>
      </trkpt>
      <trkpt lat="45.09346" lon="6.15095">
        <ele>1918</ele>
        <time>2026-08-25T09:50:32Z</time>
      </trkpt>
      <trkpt lat="45.09344" lon="6.15092">
        <ele>1918.2</ele>
        <time>2026-08-25T09:50:33Z</time>
      </trkpt>
      <trkpt lat="45.09342" lon="6.1509">
        <ele>1918.4</ele>
        <time>2026-08-25T09:50:34Z</time>
      </trkpt>
      <trkpt lat="45.09339" lon="6.15088">
        <ele>1918.7</ele>
        <time>2026-08-25T09:50:35Z</time>
      </trkpt>
      <trkpt lat="45.09336" lon="6.15086">
        <ele>1918.9</ele>
        <time>2026-08-25T09:50:36Z</time>
      </trkpt>
      <trkpt lat="45.09333" lon="6.15085">
        <ele>1919.2</ele>
        <time>2026-08-25T09:50:37Z</time>
      </trkpt>
      <trkpt lat="45.0933" lon="6.15084">
        <ele>1919.4</ele>
        <time>2026-08-25T09:50:38Z</time>
      </trkpt>
      <trkpt lat="45.09327" lon="6.15085">
        <ele>1919.6</ele>
        <time>2026-08-25T09:50:39Z</time>
      </trkpt>
      <trkpt lat="45.09325" lon="6.15085">
        <ele>1919.8</ele>
        <time>2026-08-25T09:50:40Z</time>
      </trkpt>
      <trkpt lat="45.09322" lon="6.15086">
        <ele>1920</ele>
        <time>2026-08-25T09:50:41Z</time>
      </trkpt>
      <trkpt lat="45.09319" lon="6.15087">
        <ele>1920.3</ele>
        <time>2026-08-25T09:50:42Z</time>
      </trkpt>
      <trkpt lat="45.09317" lon="6.15088">
        <ele>1920.5</ele>
        <time>2026-08-25T09:50:43Z</time>
      </trkpt>
      <trkpt lat="45.09314" lon="6.15087">
        <ele>1920.7</ele>
        <time>2026-08-25T09:50:44Z</time>
      </trkpt>
      <trkpt lat="45.09311" lon="6.15086">
        <ele>1921</ele>
        <time>2026-08-25T09:50:45Z</time>
      </trkpt>
      <trkpt lat="45.09309" lon="6.15084">
        <ele>1921.2</ele>
        <time>2026-08-25T09:50:46Z</time>
      </trkpt>
      <trkpt lat="45.09307" lon="6.15082">
        <ele>1921.5</ele>
        <time>2026-08-25T09:50:47Z</time>
      </trkpt>
      <trkpt lat="45.09305" lon="6.1508">
        <ele>1921.7</ele>
        <time>2026-08-25T09:50:48Z</time>
      </trkpt>
      <trkpt lat="45.09303" lon="6.15078">
        <ele>1921.9</ele>
        <time>2026-08-25T09:50:49Z</time>
      </trkpt>
      <trkpt lat="45.09302" lon="6.15076">
        <ele>1922.2</ele>
        <time>2026-08-25T09:50:50Z</time>
      </trkpt>
      <trkpt lat="45.093" lon="6.15074">
        <ele>1922.4</ele>
        <time>2026-08-25T09:50:51Z</time>
      </trkpt>
      <trkpt lat="45.09298" lon="6.15072">
        <ele>1922.6</ele>
        <time>2026-08-25T09:50:52Z</time>
      </trkpt>
      <trkpt lat="45.09297" lon="6.1507">
        <ele>1922.8</ele>
        <time>2026-08-25T09:50:53Z</time>
      </trkpt>
      <trkpt lat="45.09295" lon="6.15068">
        <ele>1923.1</ele>
        <time>2026-08-25T09:50:54Z</time>
      </trkpt>
      <trkpt lat="45.09293" lon="6.15066">
        <ele>1923.3</ele>
        <time>2026-08-25T09:50:55Z</time>
      </trkpt>
      <trkpt lat="45.09291" lon="6.15064">
        <ele>1923.5</ele>
        <time>2026-08-25T09:50:56Z</time>
      </trkpt>
      <trkpt lat="45.09289" lon="6.15062">
        <ele>1923.8</ele>
        <time>2026-08-25T09:50:57Z</time>
      </trkpt>
      <trkpt lat="45.09286" lon="6.15061">
        <ele>1924</ele>
        <time>2026-08-25T09:50:58Z</time>
      </trkpt>
      <trkpt lat="45.09284" lon="6.15059">
        <ele>1924.2</ele>
        <time>2026-08-25T09:50:59Z</time>
      </trkpt>
      <trkpt lat="45.09281" lon="6.15057">
        <ele>1924.4</ele>
        <time>2026-08-25T09:51:00Z</time>
      </trkpt>
      <trkpt lat="45.09278" lon="6.15056">
        <ele>1924.6</ele>
        <time>2026-08-25T09:51:01Z</time>
      </trkpt>
      <trkpt lat="45.09276" lon="6.15055">
        <ele>1924.8</ele>
        <time>2026-08-25T09:51:02Z</time>
      </trkpt>
      <trkpt lat="45.09273" lon="6.15056">
        <ele>1924.9</ele>
        <time>2026-08-25T09:51:03Z</time>
      </trkpt>
      <trkpt lat="45.0927" lon="6.15056">
        <ele>1925.1</ele>
        <time>2026-08-25T09:51:04Z</time>
      </trkpt>
      <trkpt lat="45.09268" lon="6.15057">
        <ele>1925.3</ele>
        <time>2026-08-25T09:51:05Z</time>
      </trkpt>
      <trkpt lat="45.09265" lon="6.15058">
        <ele>1925.5</ele>
        <time>2026-08-25T09:51:06Z</time>
      </trkpt>
      <trkpt lat="45.09262" lon="6.15059">
        <ele>1925.7</ele>
        <time>2026-08-25T09:51:07Z</time>
      </trkpt>
      <trkpt lat="45.0926" lon="6.15059">
        <ele>1925.8</ele>
        <time>2026-08-25T09:51:08Z</time>
      </trkpt>
      <trkpt lat="45.09257" lon="6.15059">
        <ele>1926</ele>
        <time>2026-08-25T09:51:09Z</time>
      </trkpt>
      <trkpt lat="45.09255" lon="6.1506">
        <ele>1926.2</ele>
        <time>2026-08-25T09:51:10Z</time>
      </trkpt>
      <trkpt lat="45.09252" lon="6.1506">
        <ele>1926.4</ele>
        <time>2026-08-25T09:51:11Z</time>
      </trkpt>
      <trkpt lat="45.09249" lon="6.1506">
        <ele>1926.6</ele>
        <time>2026-08-25T09:51:12Z</time>
      </trkpt>
      <trkpt lat="45.09246" lon="6.15059">
        <ele>1926.8</ele>
        <time>2026-08-25T09:51:13Z</time>
      </trkpt>
      <trkpt lat="45.09244" lon="6.15059">
        <ele>1927</ele>
        <time>2026-08-25T09:51:14Z</time>
      </trkpt>
      <trkpt lat="45.09241" lon="6.15058">
        <ele>1927.2</ele>
        <time>2026-08-25T09:51:15Z</time>
      </trkpt>
      <trkpt lat="45.09239" lon="6.15057">
        <ele>1927.4</ele>
        <time>2026-08-25T09:51:16Z</time>
      </trkpt>
      <trkpt lat="45.09237" lon="6.15055">
        <ele>1927.6</ele>
        <time>2026-08-25T09:51:17Z</time>
      </trkpt>
      <trkpt lat="45.09235" lon="6.15054">
        <ele>1927.8</ele>
        <time>2026-08-25T09:51:18Z</time>
      </trkpt>
      <trkpt lat="45.09232" lon="6.15053">
        <ele>1928</ele>
        <time>2026-08-25T09:51:19Z</time>
      </trkpt>
      <trkpt lat="45.0923" lon="6.15052">
        <ele>1928.2</ele>
        <time>2026-08-25T09:51:20Z</time>
      </trkpt>
      <trkpt lat="45.09228" lon="6.15051">
        <ele>1928.4</ele>
        <time>2026-08-25T09:51:21Z</time>
      </trkpt>
      <trkpt lat="45.09225" lon="6.1505">
        <ele>1928.6</ele>
        <time>2026-08-25T09:51:22Z</time>
      </trkpt>
      <trkpt lat="45.09223" lon="6.15048">
        <ele>1928.8</ele>
        <time>2026-08-25T09:51:23Z</time>
      </trkpt>
      <trkpt lat="45.09221" lon="6.15047">
        <ele>1929</ele>
        <time>2026-08-25T09:51:24Z</time>
      </trkpt>
      <trkpt lat="45.09218" lon="6.15045">
        <ele>1929.2</ele>
        <time>2026-08-25T09:51:25Z</time>
      </trkpt>
      <trkpt lat="45.09216" lon="6.15045">
        <ele>1929.4</ele>
        <time>2026-08-25T09:51:26Z</time>
      </trkpt>
      <trkpt lat="45.09212" lon="6.15044">
        <ele>1929.7</ele>
        <time>2026-08-25T09:51:27Z</time>
      </trkpt>
      <trkpt lat="45.09209" lon="6.15044">
        <ele>1930</ele>
        <time>2026-08-25T09:51:28Z</time>
      </trkpt>
      <trkpt lat="45.09206" lon="6.15044">
        <ele>1930.2</ele>
        <time>2026-08-25T09:51:29Z</time>
      </trkpt>
      <trkpt lat="45.09204" lon="6.15043">
        <ele>1930.4</ele>
        <time>2026-08-25T09:51:30Z</time>
      </trkpt>
      <trkpt lat="45.09201" lon="6.15041">
        <ele>1930.6</ele>
        <time>2026-08-25T09:51:31Z</time>
      </trkpt>
      <trkpt lat="45.09199" lon="6.1504">
        <ele>1930.8</ele>
        <time>2026-08-25T09:51:32Z</time>
      </trkpt>
      <trkpt lat="45.09197" lon="6.15037">
        <ele>1931</ele>
        <time>2026-08-25T09:51:33Z</time>
      </trkpt>
      <trkpt lat="45.09195" lon="6.15034">
        <ele>1931.2</ele>
        <time>2026-08-25T09:51:34Z</time>
      </trkpt>
      <trkpt lat="45.09194" lon="6.15031">
        <ele>1931.4</ele>
        <time>2026-08-25T09:51:35Z</time>
      </trkpt>
      <trkpt lat="45.09193" lon="6.15029">
        <ele>1931.5</ele>
        <time>2026-08-25T09:51:36Z</time>
      </trkpt>
      <trkpt lat="45.09192" lon="6.15025">
        <ele>1931.7</ele>
        <time>2026-08-25T09:51:37Z</time>
      </trkpt>
      <trkpt lat="45.09191" lon="6.15022">
        <ele>1931.9</ele>
        <time>2026-08-25T09:51:38Z</time>
      </trkpt>
      <trkpt lat="45.0919" lon="6.15018">
        <ele>1932.1</ele>
        <time>2026-08-25T09:51:39Z</time>
      </trkpt>
      <trkpt lat="45.09189" lon="6.15015">
        <ele>1932.3</ele>
        <time>2026-08-25T09:51:40Z</time>
      </trkpt>
      <trkpt lat="45.09188" lon="6.15012">
        <ele>1932.5</ele>
        <time>2026-08-25T09:51:41Z</time>
      </trkpt>
      <trkpt lat="45.09187" lon="6.15009">
        <ele>1932.7</ele>
        <time>2026-08-25T09:51:42Z</time>
      </trkpt>
      <trkpt lat="45.09186" lon="6.15006">
        <ele>1932.9</ele>
        <time>2026-08-25T09:51:43Z</time>
      </trkpt>
      <trkpt lat="45.09185" lon="6.15003">
        <ele>1933.2</ele>
        <time>2026-08-25T09:51:44Z</time>
      </trkpt>
      <trkpt lat="45.09184" lon="6.15">
        <ele>1933.4</ele>
        <time>2026-08-25T09:51:45Z</time>
      </trkpt>
      <trkpt lat="45.09182" lon="6.14996">
        <ele>1933.6</ele>
        <time>2026-08-25T09:51:46Z</time>
      </trkpt>
      <trkpt lat="45.09181" lon="6.14993">
        <ele>1933.9</ele>
        <time>2026-08-25T09:51:47Z</time>
      </trkpt>
      <trkpt lat="45.0918" lon="6.1499">
        <ele>1934.1</ele>
        <time>2026-08-25T09:51:48Z</time>
      </trkpt>
      <trkpt lat="45.0918" lon="6.14987">
        <ele>1934.4</ele>
        <time>2026-08-25T09:51:49Z</time>
      </trkpt>
      <trkpt lat="45.09179" lon="6.14984">
        <ele>1934.6</ele>
        <time>2026-08-25T09:51:50Z</time>
      </trkpt>
      <trkpt lat="45.09177" lon="6.14982">
        <ele>1934.9</ele>
        <time>2026-08-25T09:51:51Z</time>
      </trkpt>
      <trkpt lat="45.09176" lon="6.14979">
        <ele>1935.2</ele>
        <time>2026-08-25T09:51:52Z</time>
      </trkpt>
      <trkpt lat="45.09175" lon="6.14976">
        <ele>1935.6</ele>
        <time>2026-08-25T09:51:53Z</time>
      </trkpt>
      <trkpt lat="45.09173" lon="6.14973">
        <ele>1935.9</ele>
        <time>2026-08-25T09:51:54Z</time>
      </trkpt>
      <trkpt lat="45.09172" lon="6.14971">
        <ele>1936.2</ele>
        <time>2026-08-25T09:51:55Z</time>
      </trkpt>
      <trkpt lat="45.0917" lon="6.14968">
        <ele>1936.5</ele>
        <time>2026-08-25T09:51:56Z</time>
      </trkpt>
      <trkpt lat="45.09169" lon="6.14966">
        <ele>1936.8</ele>
        <time>2026-08-25T09:51:57Z</time>
      </trkpt>
      <trkpt lat="45.09167" lon="6.14963">
        <ele>1937.1</ele>
        <time>2026-08-25T09:51:58Z</time>
      </trkpt>
      <trkpt lat="45.09166" lon="6.14961">
        <ele>1937.4</ele>
        <time>2026-08-25T09:51:59Z</time>
      </trkpt>
      <trkpt lat="45.09164" lon="6.14959">
        <ele>1937.7</ele>
        <time>2026-08-25T09:52:00Z</time>
      </trkpt>
      <trkpt lat="45.09162" lon="6.14957">
        <ele>1938</ele>
        <time>2026-08-25T09:52:01Z</time>
      </trkpt>
      <trkpt lat="45.0916" lon="6.14955">
        <ele>1938.3</ele>
        <time>2026-08-25T09:52:02Z</time>
      </trkpt>
      <trkpt lat="45.09159" lon="6.14954">
        <ele>1938.6</ele>
        <time>2026-08-25T09:52:03Z</time>
      </trkpt>
      <trkpt lat="45.09157" lon="6.14952">
        <ele>1938.9</ele>
        <time>2026-08-25T09:52:04Z</time>
      </trkpt>
      <trkpt lat="45.09155" lon="6.14951">
        <ele>1939.2</ele>
        <time>2026-08-25T09:52:05Z</time>
      </trkpt>
      <trkpt lat="45.09153" lon="6.14949">
        <ele>1939.5</ele>
        <time>2026-08-25T09:52:06Z</time>
      </trkpt>
      <trkpt lat="45.09151" lon="6.14947">
        <ele>1939.7</ele>
        <time>2026-08-25T09:52:07Z</time>
      </trkpt>
      <trkpt lat="45.0915" lon="6.14945">
        <ele>1940</ele>
        <time>2026-08-25T09:52:08Z</time>
      </trkpt>
      <trkpt lat="45.09148" lon="6.14943">
        <ele>1940.3</ele>
        <time>2026-08-25T09:52:09Z</time>
      </trkpt>
      <trkpt lat="45.09146" lon="6.14942">
        <ele>1940.6</ele>
        <time>2026-08-25T09:52:10Z</time>
      </trkpt>
      <trkpt lat="45.09144" lon="6.1494">
        <ele>1940.9</ele>
        <time>2026-08-25T09:52:11Z</time>
      </trkpt>
      <trkpt lat="45.09142" lon="6.14938">
        <ele>1941.2</ele>
        <time>2026-08-25T09:52:12Z</time>
      </trkpt>
      <trkpt lat="45.09141" lon="6.14936">
        <ele>1941.5</ele>
        <time>2026-08-25T09:52:13Z</time>
      </trkpt>
      <trkpt lat="45.09139" lon="6.14934">
        <ele>1941.8</ele>
        <time>2026-08-25T09:52:14Z</time>
      </trkpt>
      <trkpt lat="45.09138" lon="6.14932">
        <ele>1942</ele>
        <time>2026-08-25T09:52:15Z</time>
      </trkpt>
      <trkpt lat="45.09136" lon="6.1493">
        <ele>1942.3</ele>
        <time>2026-08-25T09:52:16Z</time>
      </trkpt>
      <trkpt lat="45.09135" lon="6.14928">
        <ele>1942.6</ele>
        <time>2026-08-25T09:52:17Z</time>
      </trkpt>
      <trkpt lat="45.09133" lon="6.14925">
        <ele>1942.8</ele>
        <time>2026-08-25T09:52:18Z</time>
      </trkpt>
      <trkpt lat="45.09131" lon="6.14923">
        <ele>1943.1</ele>
        <time>2026-08-25T09:52:19Z</time>
      </trkpt>
      <trkpt lat="45.0913" lon="6.14921">
        <ele>1943.4</ele>
        <time>2026-08-25T09:52:20Z</time>
      </trkpt>
      <trkpt lat="45.09128" lon="6.14918">
        <ele>1943.7</ele>
        <time>2026-08-25T09:52:21Z</time>
      </trkpt>
      <trkpt lat="45.09126" lon="6.14916">
        <ele>1944</ele>
        <time>2026-08-25T09:52:22Z</time>
      </trkpt>
      <trkpt lat="45.09125" lon="6.14914">
        <ele>1944.3</ele>
        <time>2026-08-25T09:52:23Z</time>
      </trkpt>
      <trkpt lat="45.09123" lon="6.14912">
        <ele>1944.5</ele>
        <time>2026-08-25T09:52:24Z</time>
      </trkpt>
      <trkpt lat="45.09121" lon="6.1491">
        <ele>1944.8</ele>
        <time>2026-08-25T09:52:25Z</time>
      </trkpt>
      <trkpt lat="45.09118" lon="6.14908">
        <ele>1945.1</ele>
        <time>2026-08-25T09:52:26Z</time>
      </trkpt>
      <trkpt lat="45.09116" lon="6.14906">
        <ele>1945.4</ele>
        <time>2026-08-25T09:52:27Z</time>
      </trkpt>
      <trkpt lat="45.09114" lon="6.14904">
        <ele>1945.7</ele>
        <time>2026-08-25T09:52:28Z</time>
      </trkpt>
      <trkpt lat="45.09111" lon="6.14903">
        <ele>1946</ele>
        <time>2026-08-25T09:52:29Z</time>
      </trkpt>
      <trkpt lat="45.09109" lon="6.14901">
        <ele>1946.3</ele>
        <time>2026-08-25T09:52:30Z</time>
      </trkpt>
      <trkpt lat="45.09107" lon="6.149">
        <ele>1946.5</ele>
        <time>2026-08-25T09:52:31Z</time>
      </trkpt>
      <trkpt lat="45.09104" lon="6.14898">
        <ele>1946.7</ele>
        <time>2026-08-25T09:52:32Z</time>
      </trkpt>
      <trkpt lat="45.09102" lon="6.14897">
        <ele>1947</ele>
        <time>2026-08-25T09:52:33Z</time>
      </trkpt>
      <trkpt lat="45.09098" lon="6.14896">
        <ele>1947.3</ele>
        <time>2026-08-25T09:52:34Z</time>
      </trkpt>
      <trkpt lat="45.09095" lon="6.14895">
        <ele>1947.6</ele>
        <time>2026-08-25T09:52:35Z</time>
      </trkpt>
      <trkpt lat="45.09092" lon="6.14895">
        <ele>1947.8</ele>
        <time>2026-08-25T09:52:36Z</time>
      </trkpt>
      <trkpt lat="45.09089" lon="6.14895">
        <ele>1948</ele>
        <time>2026-08-25T09:52:37Z</time>
      </trkpt>
      <trkpt lat="45.09086" lon="6.14895">
        <ele>1948.3</ele>
        <time>2026-08-25T09:52:38Z</time>
      </trkpt>
      <trkpt lat="45.09084" lon="6.14896">
        <ele>1948.5</ele>
        <time>2026-08-25T09:52:39Z</time>
      </trkpt>
      <trkpt lat="45.09081" lon="6.14897">
        <ele>1948.7</ele>
        <time>2026-08-25T09:52:40Z</time>
      </trkpt>
      <trkpt lat="45.09078" lon="6.14898">
        <ele>1948.9</ele>
        <time>2026-08-25T09:52:41Z</time>
      </trkpt>
      <trkpt lat="45.09076" lon="6.149">
        <ele>1949.2</ele>
        <time>2026-08-25T09:52:42Z</time>
      </trkpt>
      <trkpt lat="45.09073" lon="6.14901">
        <ele>1949.4</ele>
        <time>2026-08-25T09:52:43Z</time>
      </trkpt>
      <trkpt lat="45.09071" lon="6.14903">
        <ele>1949.6</ele>
        <time>2026-08-25T09:52:44Z</time>
      </trkpt>
      <trkpt lat="45.09068" lon="6.14904">
        <ele>1949.8</ele>
        <time>2026-08-25T09:52:45Z</time>
      </trkpt>
      <trkpt lat="45.09066" lon="6.14905">
        <ele>1950</ele>
        <time>2026-08-25T09:52:46Z</time>
      </trkpt>
      <trkpt lat="45.09063" lon="6.14906">
        <ele>1950.3</ele>
        <time>2026-08-25T09:52:47Z</time>
      </trkpt>
      <trkpt lat="45.0906" lon="6.14907">
        <ele>1950.5</ele>
        <time>2026-08-25T09:52:48Z</time>
      </trkpt>
      <trkpt lat="45.09058" lon="6.14908">
        <ele>1950.7</ele>
        <time>2026-08-25T09:52:49Z</time>
      </trkpt>
      <trkpt lat="45.09055" lon="6.14909">
        <ele>1951</ele>
        <time>2026-08-25T09:52:50Z</time>
      </trkpt>
      <trkpt lat="45.09052" lon="6.14909">
        <ele>1951.2</ele>
        <time>2026-08-25T09:52:51Z</time>
      </trkpt>
      <trkpt lat="45.0905" lon="6.1491">
        <ele>1951.4</ele>
        <time>2026-08-25T09:52:52Z</time>
      </trkpt>
      <trkpt lat="45.09047" lon="6.1491">
        <ele>1951.7</ele>
        <time>2026-08-25T09:52:53Z</time>
      </trkpt>
      <trkpt lat="45.09044" lon="6.14911">
        <ele>1951.9</ele>
        <time>2026-08-25T09:52:54Z</time>
      </trkpt>
      <trkpt lat="45.09042" lon="6.14912">
        <ele>1952.2</ele>
        <time>2026-08-25T09:52:55Z</time>
      </trkpt>
      <trkpt lat="45.09039" lon="6.14912">
        <ele>1952.4</ele>
        <time>2026-08-25T09:52:56Z</time>
      </trkpt>
      <trkpt lat="45.09037" lon="6.14913">
        <ele>1952.7</ele>
        <time>2026-08-25T09:52:57Z</time>
      </trkpt>
      <trkpt lat="45.09035" lon="6.14914">
        <ele>1952.9</ele>
        <time>2026-08-25T09:52:58Z</time>
      </trkpt>
      <trkpt lat="45.09033" lon="6.14915">
        <ele>1953.1</ele>
        <time>2026-08-25T09:52:59Z</time>
      </trkpt>
      <trkpt lat="45.09031" lon="6.14916">
        <ele>1953.4</ele>
        <time>2026-08-25T09:53:00Z</time>
      </trkpt>
      <trkpt lat="45.09028" lon="6.14918">
        <ele>1953.7</ele>
        <time>2026-08-25T09:53:01Z</time>
      </trkpt>
      <trkpt lat="45.09025" lon="6.14921">
        <ele>1954.1</ele>
        <time>2026-08-25T09:53:02Z</time>
      </trkpt>
      <trkpt lat="45.09023" lon="6.14923">
        <ele>1954.4</ele>
        <time>2026-08-25T09:53:03Z</time>
      </trkpt>
      <trkpt lat="45.09022" lon="6.14925">
        <ele>1954.6</ele>
        <time>2026-08-25T09:53:04Z</time>
      </trkpt>
      <trkpt lat="45.09021" lon="6.14928">
        <ele>1954.9</ele>
        <time>2026-08-25T09:53:05Z</time>
      </trkpt>
      <trkpt lat="45.09019" lon="6.1493">
        <ele>1955.1</ele>
        <time>2026-08-25T09:53:06Z</time>
      </trkpt>
      <trkpt lat="45.09018" lon="6.14932">
        <ele>1955.4</ele>
        <time>2026-08-25T09:53:07Z</time>
      </trkpt>
      <trkpt lat="45.09017" lon="6.14935">
        <ele>1955.6</ele>
        <time>2026-08-25T09:53:08Z</time>
      </trkpt>
      <trkpt lat="45.09016" lon="6.14937">
        <ele>1955.9</ele>
        <time>2026-08-25T09:53:09Z</time>
      </trkpt>
      <trkpt lat="45.09015" lon="6.1494">
        <ele>1956.2</ele>
        <time>2026-08-25T09:53:10Z</time>
      </trkpt>
      <trkpt lat="45.09013" lon="6.14943">
        <ele>1956.5</ele>
        <time>2026-08-25T09:53:11Z</time>
      </trkpt>
      <trkpt lat="45.09012" lon="6.14946">
        <ele>1956.8</ele>
        <time>2026-08-25T09:53:12Z</time>
      </trkpt>
      <trkpt lat="45.0901" lon="6.14948">
        <ele>1957.1</ele>
        <time>2026-08-25T09:53:13Z</time>
      </trkpt>
      <trkpt lat="45.09009" lon="6.1495">
        <ele>1957.4</ele>
        <time>2026-08-25T09:53:14Z</time>
      </trkpt>
      <trkpt lat="45.09006" lon="6.14952">
        <ele>1957.8</ele>
        <time>2026-08-25T09:53:15Z</time>
      </trkpt>
      <trkpt lat="45.09004" lon="6.14953">
        <ele>1958.1</ele>
        <time>2026-08-25T09:53:16Z</time>
      </trkpt>
      <trkpt lat="45.09001" lon="6.14953">
        <ele>1958.5</ele>
        <time>2026-08-25T09:53:17Z</time>
      </trkpt>
      <trkpt lat="45.08999" lon="6.14951">
        <ele>1958.8</ele>
        <time>2026-08-25T09:53:18Z</time>
      </trkpt>
      <trkpt lat="45.08996" lon="6.1495">
        <ele>1959.1</ele>
        <time>2026-08-25T09:53:19Z</time>
      </trkpt>
      <trkpt lat="45.08995" lon="6.14947">
        <ele>1959.5</ele>
        <time>2026-08-25T09:53:20Z</time>
      </trkpt>
      <trkpt lat="45.08995" lon="6.14944">
        <ele>1959.8</ele>
        <time>2026-08-25T09:53:21Z</time>
      </trkpt>
      <trkpt lat="45.08995" lon="6.1494">
        <ele>1960.1</ele>
        <time>2026-08-25T09:53:22Z</time>
      </trkpt>
      <trkpt lat="45.08996" lon="6.14937">
        <ele>1960.4</ele>
        <time>2026-08-25T09:53:23Z</time>
      </trkpt>
      <trkpt lat="45.08996" lon="6.14933">
        <ele>1960.7</ele>
        <time>2026-08-25T09:53:24Z</time>
      </trkpt>
      <trkpt lat="45.08997" lon="6.14931">
        <ele>1961</ele>
        <time>2026-08-25T09:53:25Z</time>
      </trkpt>
      <trkpt lat="45.08998" lon="6.14928">
        <ele>1961.2</ele>
        <time>2026-08-25T09:53:26Z</time>
      </trkpt>
      <trkpt lat="45.08999" lon="6.14925">
        <ele>1961.5</ele>
        <time>2026-08-25T09:53:27Z</time>
      </trkpt>
      <trkpt lat="45.09" lon="6.14923">
        <ele>1961.7</ele>
        <time>2026-08-25T09:53:28Z</time>
      </trkpt>
      <trkpt lat="45.09002" lon="6.1492">
        <ele>1962</ele>
        <time>2026-08-25T09:53:29Z</time>
      </trkpt>
      <trkpt lat="45.09003" lon="6.14918">
        <ele>1962.3</ele>
        <time>2026-08-25T09:53:30Z</time>
      </trkpt>
      <trkpt lat="45.09005" lon="6.14915">
        <ele>1962.6</ele>
        <time>2026-08-25T09:53:31Z</time>
      </trkpt>
      <trkpt lat="45.09007" lon="6.14913">
        <ele>1962.9</ele>
        <time>2026-08-25T09:53:32Z</time>
      </trkpt>
      <trkpt lat="45.09009" lon="6.14911">
        <ele>1963.2</ele>
        <time>2026-08-25T09:53:33Z</time>
      </trkpt>
      <trkpt lat="45.09011" lon="6.14909">
        <ele>1963.5</ele>
        <time>2026-08-25T09:53:34Z</time>
      </trkpt>
      <trkpt lat="45.09013" lon="6.14907">
        <ele>1963.8</ele>
        <time>2026-08-25T09:53:35Z</time>
      </trkpt>
      <trkpt lat="45.09014" lon="6.14904">
        <ele>1964</ele>
        <time>2026-08-25T09:53:36Z</time>
      </trkpt>
      <trkpt lat="45.09016" lon="6.14902">
        <ele>1964.3</ele>
        <time>2026-08-25T09:53:37Z</time>
      </trkpt>
      <trkpt lat="45.09018" lon="6.149">
        <ele>1964.6</ele>
        <time>2026-08-25T09:53:38Z</time>
      </trkpt>
      <trkpt lat="45.0902" lon="6.14898">
        <ele>1964.9</ele>
        <time>2026-08-25T09:53:39Z</time>
      </trkpt>
      <trkpt lat="45.09022" lon="6.14896">
        <ele>1965.2</ele>
        <time>2026-08-25T09:53:40Z</time>
      </trkpt>
      <trkpt lat="45.09024" lon="6.14894">
        <ele>1965.4</ele>
        <time>2026-08-25T09:53:41Z</time>
      </trkpt>
      <trkpt lat="45.09026" lon="6.14892">
        <ele>1965.7</ele>
        <time>2026-08-25T09:53:42Z</time>
      </trkpt>
      <trkpt lat="45.09028" lon="6.1489">
        <ele>1966</ele>
        <time>2026-08-25T09:53:43Z</time>
      </trkpt>
      <trkpt lat="45.0903" lon="6.14889">
        <ele>1966.3</ele>
        <time>2026-08-25T09:53:44Z</time>
      </trkpt>
      <trkpt lat="45.09032" lon="6.14887">
        <ele>1966.6</ele>
        <time>2026-08-25T09:53:45Z</time>
      </trkpt>
      <trkpt lat="45.09034" lon="6.14885">
        <ele>1966.9</ele>
        <time>2026-08-25T09:53:46Z</time>
      </trkpt>
      <trkpt lat="45.09037" lon="6.14883">
        <ele>1967.2</ele>
        <time>2026-08-25T09:53:47Z</time>
      </trkpt>
      <trkpt lat="45.09039" lon="6.14881">
        <ele>1967.5</ele>
        <time>2026-08-25T09:53:48Z</time>
      </trkpt>
      <trkpt lat="45.09041" lon="6.14878">
        <ele>1967.8</ele>
        <time>2026-08-25T09:53:49Z</time>
      </trkpt>
      <trkpt lat="45.09042" lon="6.14875">
        <ele>1968.2</ele>
        <time>2026-08-25T09:53:50Z</time>
      </trkpt>
      <trkpt lat="45.09042" lon="6.14871">
        <ele>1968.4</ele>
        <time>2026-08-25T09:53:51Z</time>
      </trkpt>
      <trkpt lat="45.09041" lon="6.14868">
        <ele>1968.7</ele>
        <time>2026-08-25T09:53:52Z</time>
      </trkpt>
      <trkpt lat="45.09038" lon="6.14866">
        <ele>1969</ele>
        <time>2026-08-25T09:53:53Z</time>
      </trkpt>
      <trkpt lat="45.09035" lon="6.14866">
        <ele>1969.3</ele>
        <time>2026-08-25T09:53:54Z</time>
      </trkpt>
      <trkpt lat="45.09033" lon="6.14867">
        <ele>1969.5</ele>
        <time>2026-08-25T09:53:55Z</time>
      </trkpt>
      <trkpt lat="45.09031" lon="6.14868">
        <ele>1969.7</ele>
        <time>2026-08-25T09:53:56Z</time>
      </trkpt>
      <trkpt lat="45.09028" lon="6.14869">
        <ele>1969.9</ele>
        <time>2026-08-25T09:53:57Z</time>
      </trkpt>
      <trkpt lat="45.09025" lon="6.1487">
        <ele>1970.1</ele>
        <time>2026-08-25T09:53:58Z</time>
      </trkpt>
      <trkpt lat="45.09023" lon="6.14872">
        <ele>1970.3</ele>
        <time>2026-08-25T09:53:59Z</time>
      </trkpt>
      <trkpt lat="45.09021" lon="6.14874">
        <ele>1970.5</ele>
        <time>2026-08-25T09:54:00Z</time>
      </trkpt>
      <trkpt lat="45.09018" lon="6.14875">
        <ele>1970.7</ele>
        <time>2026-08-25T09:54:01Z</time>
      </trkpt>
      <trkpt lat="45.09016" lon="6.14877">
        <ele>1970.9</ele>
        <time>2026-08-25T09:54:02Z</time>
      </trkpt>
      <trkpt lat="45.09014" lon="6.14878">
        <ele>1971.1</ele>
        <time>2026-08-25T09:54:03Z</time>
      </trkpt>
      <trkpt lat="45.09011" lon="6.1488">
        <ele>1971.3</ele>
        <time>2026-08-25T09:54:04Z</time>
      </trkpt>
      <trkpt lat="45.09009" lon="6.14882">
        <ele>1971.5</ele>
        <time>2026-08-25T09:54:05Z</time>
      </trkpt>
      <trkpt lat="45.09007" lon="6.14884">
        <ele>1971.7</ele>
        <time>2026-08-25T09:54:06Z</time>
      </trkpt>
      <trkpt lat="45.09004" lon="6.14886">
        <ele>1972</ele>
        <time>2026-08-25T09:54:07Z</time>
      </trkpt>
      <trkpt lat="45.09002" lon="6.14887">
        <ele>1972.2</ele>
        <time>2026-08-25T09:54:08Z</time>
      </trkpt>
      <trkpt lat="45.08999" lon="6.14889">
        <ele>1972.4</ele>
        <time>2026-08-25T09:54:09Z</time>
      </trkpt>
      <trkpt lat="45.08997" lon="6.14891">
        <ele>1972.7</ele>
        <time>2026-08-25T09:54:10Z</time>
      </trkpt>
      <trkpt lat="45.08995" lon="6.14893">
        <ele>1972.9</ele>
        <time>2026-08-25T09:54:11Z</time>
      </trkpt>
      <trkpt lat="45.08993" lon="6.14894">
        <ele>1973.1</ele>
        <time>2026-08-25T09:54:12Z</time>
      </trkpt>
      <trkpt lat="45.0899" lon="6.14895">
        <ele>1973.3</ele>
        <time>2026-08-25T09:54:13Z</time>
      </trkpt>
      <trkpt lat="45.08988" lon="6.14897">
        <ele>1973.6</ele>
        <time>2026-08-25T09:54:14Z</time>
      </trkpt>
      <trkpt lat="45.08986" lon="6.14899">
        <ele>1973.8</ele>
        <time>2026-08-25T09:54:15Z</time>
      </trkpt>
      <trkpt lat="45.08984" lon="6.14901">
        <ele>1974.1</ele>
        <time>2026-08-25T09:54:16Z</time>
      </trkpt>
      <trkpt lat="45.08981" lon="6.14902">
        <ele>1974.3</ele>
        <time>2026-08-25T09:54:17Z</time>
      </trkpt>
      <trkpt lat="45.08979" lon="6.14904">
        <ele>1974.6</ele>
        <time>2026-08-25T09:54:18Z</time>
      </trkpt>
      <trkpt lat="45.08977" lon="6.14906">
        <ele>1974.9</ele>
        <time>2026-08-25T09:54:19Z</time>
      </trkpt>
      <trkpt lat="45.08974" lon="6.14909">
        <ele>1975.2</ele>
        <time>2026-08-25T09:54:20Z</time>
      </trkpt>
      <trkpt lat="45.08972" lon="6.14911">
        <ele>1975.5</ele>
        <time>2026-08-25T09:54:21Z</time>
      </trkpt>
      <trkpt lat="45.0897" lon="6.14913">
        <ele>1975.7</ele>
        <time>2026-08-25T09:54:22Z</time>
      </trkpt>
      <trkpt lat="45.08968" lon="6.14915">
        <ele>1976</ele>
        <time>2026-08-25T09:54:23Z</time>
      </trkpt>
      <trkpt lat="45.08965" lon="6.14917">
        <ele>1976.3</ele>
        <time>2026-08-25T09:54:24Z</time>
      </trkpt>
      <trkpt lat="45.08963" lon="6.14919">
        <ele>1976.6</ele>
        <time>2026-08-25T09:54:25Z</time>
      </trkpt>
      <trkpt lat="45.08961" lon="6.1492">
        <ele>1976.8</ele>
        <time>2026-08-25T09:54:26Z</time>
      </trkpt>
      <trkpt lat="45.08959" lon="6.14922">
        <ele>1977</ele>
        <time>2026-08-25T09:54:27Z</time>
      </trkpt>
      <trkpt lat="45.08957" lon="6.14923">
        <ele>1977.3</ele>
        <time>2026-08-25T09:54:28Z</time>
      </trkpt>
      <trkpt lat="45.08954" lon="6.14924">
        <ele>1977.5</ele>
        <time>2026-08-25T09:54:29Z</time>
      </trkpt>
      <trkpt lat="45.08952" lon="6.14925">
        <ele>1977.8</ele>
        <time>2026-08-25T09:54:30Z</time>
      </trkpt>
      <trkpt lat="45.08949" lon="6.14925">
        <ele>1978</ele>
        <time>2026-08-25T09:54:31Z</time>
      </trkpt>
      <trkpt lat="45.08946" lon="6.14925">
        <ele>1978.3</ele>
        <time>2026-08-25T09:54:32Z</time>
      </trkpt>
      <trkpt lat="45.08943" lon="6.14925">
        <ele>1978.6</ele>
        <time>2026-08-25T09:54:33Z</time>
      </trkpt>
      <trkpt lat="45.08941" lon="6.14924">
        <ele>1978.8</ele>
        <time>2026-08-25T09:54:34Z</time>
      </trkpt>
      <trkpt lat="45.08938" lon="6.14924">
        <ele>1979</ele>
        <time>2026-08-25T09:54:35Z</time>
      </trkpt>
      <trkpt lat="45.08936" lon="6.14923">
        <ele>1979.2</ele>
        <time>2026-08-25T09:54:36Z</time>
      </trkpt>
      <trkpt lat="45.08934" lon="6.14921">
        <ele>1979.4</ele>
        <time>2026-08-25T09:54:37Z</time>
      </trkpt>
      <trkpt lat="45.08932" lon="6.1492">
        <ele>1979.6</ele>
        <time>2026-08-25T09:54:38Z</time>
      </trkpt>
      <trkpt lat="45.08929" lon="6.14919">
        <ele>1979.8</ele>
        <time>2026-08-25T09:54:39Z</time>
      </trkpt>
      <trkpt lat="45.08926" lon="6.14918">
        <ele>1980</ele>
        <time>2026-08-25T09:54:40Z</time>
      </trkpt>
      <trkpt lat="45.08923" lon="6.14918">
        <ele>1980.2</ele>
        <time>2026-08-25T09:54:41Z</time>
      </trkpt>
      <trkpt lat="45.08921" lon="6.14917">
        <ele>1980.4</ele>
        <time>2026-08-25T09:54:42Z</time>
      </trkpt>
      <trkpt lat="45.08918" lon="6.14917">
        <ele>1980.6</ele>
        <time>2026-08-25T09:54:43Z</time>
      </trkpt>
      <trkpt lat="45.08915" lon="6.14917">
        <ele>1980.9</ele>
        <time>2026-08-25T09:54:44Z</time>
      </trkpt>
      <trkpt lat="45.08912" lon="6.14917">
        <ele>1981.1</ele>
        <time>2026-08-25T09:54:45Z</time>
      </trkpt>
      <trkpt lat="45.0891" lon="6.14917">
        <ele>1981.3</ele>
        <time>2026-08-25T09:54:46Z</time>
      </trkpt>
      <trkpt lat="45.08907" lon="6.14917">
        <ele>1981.5</ele>
        <time>2026-08-25T09:54:47Z</time>
      </trkpt>
      <trkpt lat="45.08904" lon="6.14918">
        <ele>1981.7</ele>
        <time>2026-08-25T09:54:48Z</time>
      </trkpt>
      <trkpt lat="45.08902" lon="6.14919">
        <ele>1981.9</ele>
        <time>2026-08-25T09:54:49Z</time>
      </trkpt>
      <trkpt lat="45.08899" lon="6.14921">
        <ele>1982.1</ele>
        <time>2026-08-25T09:54:50Z</time>
      </trkpt>
      <trkpt lat="45.08897" lon="6.14923">
        <ele>1982.3</ele>
        <time>2026-08-25T09:54:51Z</time>
      </trkpt>
      <trkpt lat="45.08895" lon="6.14924">
        <ele>1982.5</ele>
        <time>2026-08-25T09:54:52Z</time>
      </trkpt>
      <trkpt lat="45.08892" lon="6.14926">
        <ele>1982.6</ele>
        <time>2026-08-25T09:54:53Z</time>
      </trkpt>
      <trkpt lat="45.0889" lon="6.14928">
        <ele>1982.8</ele>
        <time>2026-08-25T09:54:54Z</time>
      </trkpt>
      <trkpt lat="45.08888" lon="6.1493">
        <ele>1983.1</ele>
        <time>2026-08-25T09:54:55Z</time>
      </trkpt>
      <trkpt lat="45.08886" lon="6.14932">
        <ele>1983.3</ele>
        <time>2026-08-25T09:54:56Z</time>
      </trkpt>
      <trkpt lat="45.08884" lon="6.14935">
        <ele>1983.5</ele>
        <time>2026-08-25T09:54:57Z</time>
      </trkpt>
      <trkpt lat="45.08882" lon="6.14937">
        <ele>1983.7</ele>
        <time>2026-08-25T09:54:58Z</time>
      </trkpt>
      <trkpt lat="45.0888" lon="6.14939">
        <ele>1983.9</ele>
        <time>2026-08-25T09:54:59Z</time>
      </trkpt>
      <trkpt lat="45.08877" lon="6.1494">
        <ele>1984.1</ele>
        <time>2026-08-25T09:55:00Z</time>
      </trkpt>
      <trkpt lat="45.08874" lon="6.14941">
        <ele>1984.3</ele>
        <time>2026-08-25T09:55:01Z</time>
      </trkpt>
      <trkpt lat="45.08871" lon="6.14941">
        <ele>1984.5</ele>
        <time>2026-08-25T09:55:02Z</time>
      </trkpt>
      <trkpt lat="45.08868" lon="6.14941">
        <ele>1984.8</ele>
        <time>2026-08-25T09:55:03Z</time>
      </trkpt>
      <trkpt lat="45.08865" lon="6.14941">
        <ele>1985</ele>
        <time>2026-08-25T09:55:04Z</time>
      </trkpt>
      <trkpt lat="45.08862" lon="6.14941">
        <ele>1985.2</ele>
        <time>2026-08-25T09:55:05Z</time>
      </trkpt>
      <trkpt lat="45.08859" lon="6.14941">
        <ele>1985.4</ele>
        <time>2026-08-25T09:55:06Z</time>
      </trkpt>
      <trkpt lat="45.08856" lon="6.1494">
        <ele>1985.7</ele>
        <time>2026-08-25T09:55:07Z</time>
      </trkpt>
      <trkpt lat="45.08853" lon="6.14939">
        <ele>1985.9</ele>
        <time>2026-08-25T09:55:08Z</time>
      </trkpt>
      <trkpt lat="45.08851" lon="6.14939">
        <ele>1986.1</ele>
        <time>2026-08-25T09:55:09Z</time>
      </trkpt>
      <trkpt lat="45.08848" lon="6.14938">
        <ele>1986.3</ele>
        <time>2026-08-25T09:55:10Z</time>
      </trkpt>
      <trkpt lat="45.08846" lon="6.14937">
        <ele>1986.6</ele>
        <time>2026-08-25T09:55:11Z</time>
      </trkpt>
      <trkpt lat="45.08843" lon="6.14936">
        <ele>1986.8</ele>
        <time>2026-08-25T09:55:12Z</time>
      </trkpt>
      <trkpt lat="45.08841" lon="6.14935">
        <ele>1987</ele>
        <time>2026-08-25T09:55:13Z</time>
      </trkpt>
      <trkpt lat="45.08839" lon="6.14934">
        <ele>1987.3</ele>
        <time>2026-08-25T09:55:14Z</time>
      </trkpt>
      <trkpt lat="45.08837" lon="6.14933">
        <ele>1987.5</ele>
        <time>2026-08-25T09:55:15Z</time>
      </trkpt>
      <trkpt lat="45.08834" lon="6.14932">
        <ele>1987.8</ele>
        <time>2026-08-25T09:55:16Z</time>
      </trkpt>
      <trkpt lat="45.08832" lon="6.14931">
        <ele>1988.1</ele>
        <time>2026-08-25T09:55:17Z</time>
      </trkpt>
      <trkpt lat="45.08829" lon="6.1493">
        <ele>1988.4</ele>
        <time>2026-08-25T09:55:18Z</time>
      </trkpt>
      <trkpt lat="45.08827" lon="6.14929">
        <ele>1988.6</ele>
        <time>2026-08-25T09:55:19Z</time>
      </trkpt>
      <trkpt lat="45.08825" lon="6.14927">
        <ele>1988.9</ele>
        <time>2026-08-25T09:55:20Z</time>
      </trkpt>
      <trkpt lat="45.08822" lon="6.14926">
        <ele>1989.2</ele>
        <time>2026-08-25T09:55:21Z</time>
      </trkpt>
      <trkpt lat="45.0882" lon="6.14925">
        <ele>1989.4</ele>
        <time>2026-08-25T09:55:22Z</time>
      </trkpt>
      <trkpt lat="45.08818" lon="6.14924">
        <ele>1989.7</ele>
        <time>2026-08-25T09:55:23Z</time>
      </trkpt>
      <trkpt lat="45.08815" lon="6.14923">
        <ele>1990</ele>
        <time>2026-08-25T09:55:24Z</time>
      </trkpt>
      <trkpt lat="45.08813" lon="6.14921">
        <ele>1990.3</ele>
        <time>2026-08-25T09:55:25Z</time>
      </trkpt>
      <trkpt lat="45.08811" lon="6.1492">
        <ele>1990.5</ele>
        <time>2026-08-25T09:55:26Z</time>
      </trkpt>
      <trkpt lat="45.08808" lon="6.14919">
        <ele>1990.8</ele>
        <time>2026-08-25T09:55:27Z</time>
      </trkpt>
      <trkpt lat="45.08806" lon="6.14918">
        <ele>1991</ele>
        <time>2026-08-25T09:55:28Z</time>
      </trkpt>
      <trkpt lat="45.08804" lon="6.14917">
        <ele>1991.2</ele>
        <time>2026-08-25T09:55:29Z</time>
      </trkpt>
      <trkpt lat="45.08801" lon="6.14916">
        <ele>1991.4</ele>
        <time>2026-08-25T09:55:30Z</time>
      </trkpt>
      <trkpt lat="45.08799" lon="6.14915">
        <ele>1991.6</ele>
        <time>2026-08-25T09:55:31Z</time>
      </trkpt>
      <trkpt lat="45.08796" lon="6.14914">
        <ele>1991.7</ele>
        <time>2026-08-25T09:55:32Z</time>
      </trkpt>
      <trkpt lat="45.08794" lon="6.14914">
        <ele>1991.9</ele>
        <time>2026-08-25T09:55:33Z</time>
      </trkpt>
      <trkpt lat="45.08791" lon="6.14913">
        <ele>1992.1</ele>
        <time>2026-08-25T09:55:34Z</time>
      </trkpt>
      <trkpt lat="45.08789" lon="6.14912">
        <ele>1992.3</ele>
        <time>2026-08-25T09:55:35Z</time>
      </trkpt>
      <trkpt lat="45.08786" lon="6.14912">
        <ele>1992.5</ele>
        <time>2026-08-25T09:55:36Z</time>
      </trkpt>
      <trkpt lat="45.08784" lon="6.14911">
        <ele>1992.6</ele>
        <time>2026-08-25T09:55:37Z</time>
      </trkpt>
      <trkpt lat="45.08781" lon="6.1491">
        <ele>1992.8</ele>
        <time>2026-08-25T09:55:38Z</time>
      </trkpt>
      <trkpt lat="45.08779" lon="6.14909">
        <ele>1993</ele>
        <time>2026-08-25T09:55:39Z</time>
      </trkpt>
      <trkpt lat="45.08776" lon="6.14909">
        <ele>1993.1</ele>
        <time>2026-08-25T09:55:40Z</time>
      </trkpt>
      <trkpt lat="45.08774" lon="6.14908">
        <ele>1993.3</ele>
        <time>2026-08-25T09:55:41Z</time>
      </trkpt>
      <trkpt lat="45.08772" lon="6.14908">
        <ele>1993.4</ele>
        <time>2026-08-25T09:55:42Z</time>
      </trkpt>
      <trkpt lat="45.0877" lon="6.14908">
        <ele>1993.5</ele>
        <time>2026-08-25T09:55:43Z</time>
      </trkpt>
      <trkpt lat="45.08768" lon="6.14908">
        <ele>1993.6</ele>
        <time>2026-08-25T09:55:44Z</time>
      </trkpt>
      <trkpt lat="45.08766" lon="6.14908">
        <ele>1993.6</ele>
        <time>2026-08-25T09:55:45Z</time>
      </trkpt>
      <trkpt lat="45.08763" lon="6.14908">
        <ele>1993.7</ele>
        <time>2026-08-25T09:55:46Z</time>
      </trkpt>
      <trkpt lat="45.08761" lon="6.14907">
        <ele>1993.8</ele>
        <time>2026-08-25T09:55:47Z</time>
      </trkpt>
      <trkpt lat="45.08759" lon="6.14907">
        <ele>1993.8</ele>
        <time>2026-08-25T09:55:48Z</time>
      </trkpt>
      <trkpt lat="45.08757" lon="6.14908">
        <ele>1993.9</ele>
        <time>2026-08-25T09:55:49Z</time>
      </trkpt>
      <trkpt lat="45.08755" lon="6.14908">
        <ele>1993.9</ele>
        <time>2026-08-25T09:55:50Z</time>
      </trkpt>
      <trkpt lat="45.08754" lon="6.14908">
        <ele>1994</ele>
        <time>2026-08-25T09:55:51Z</time>
      </trkpt>
      <trkpt lat="45.08752" lon="6.14908">
        <ele>1993.9</ele>
        <time>2026-08-25T09:55:52Z</time>
      </trkpt>
      <trkpt lat="45.08749" lon="6.14908">
        <ele>1993.8</ele>
        <time>2026-08-25T09:55:53Z</time>
      </trkpt>
      <trkpt lat="45.08747" lon="6.14908">
        <ele>1993.7</ele>
        <time>2026-08-25T09:55:54Z</time>
      </trkpt>
      <trkpt lat="45.08744" lon="6.14908">
        <ele>1993.6</ele>
        <time>2026-08-25T09:55:55Z</time>
      </trkpt>
      <trkpt lat="45.08741" lon="6.14907">
        <ele>1993.5</ele>
        <time>2026-08-25T09:55:56Z</time>
      </trkpt>
      <trkpt lat="45.08739" lon="6.14907">
        <ele>1993.4</ele>
        <time>2026-08-25T09:55:57Z</time>
      </trkpt>
      <trkpt lat="45.08736" lon="6.14906">
        <ele>1993.2</ele>
        <time>2026-08-25T09:55:58Z</time>
      </trkpt>
      <trkpt lat="45.08734" lon="6.14906">
        <ele>1993</ele>
        <time>2026-08-25T09:55:59Z</time>
      </trkpt>
      <trkpt lat="45.08733" lon="6.14905">
        <ele>1992.8</ele>
        <time>2026-08-25T09:56:00Z</time>
      </trkpt>
      <trkpt lat="45.08731" lon="6.14904">
        <ele>1992.6</ele>
        <time>2026-08-25T09:56:01Z</time>
      </trkpt>
      <trkpt lat="45.08729" lon="6.14905">
        <ele>1992.4</ele>
        <time>2026-08-25T09:56:02Z</time>
      </trkpt>
      <trkpt lat="45.08728" lon="6.14906">
        <ele>1992.2</ele>
        <time>2026-08-25T09:56:03Z</time>
      </trkpt>
      <trkpt lat="45.08729" lon="6.14908">
        <ele>1992.4</ele>
        <time>2026-08-25T09:56:04Z</time>
      </trkpt>
      <trkpt lat="45.0873" lon="6.14909">
        <ele>1992.5</ele>
        <time>2026-08-25T09:56:05Z</time>
      </trkpt>
      <trkpt lat="45.08731" lon="6.14908">
        <ele>1992.7</ele>
        <time>2026-08-25T09:56:06Z</time>
      </trkpt>
      <trkpt lat="45.08733" lon="6.14907">
        <ele>1992.8</ele>
        <time>2026-08-25T09:56:07Z</time>
      </trkpt>
      <trkpt lat="45.08734" lon="6.14907">
        <ele>1992.9</ele>
        <time>2026-08-25T09:56:08Z</time>
      </trkpt>
      <trkpt lat="45.08735" lon="6.14906">
        <ele>1993.1</ele>
        <time>2026-08-25T09:56:09Z</time>
      </trkpt>
      <trkpt lat="45.08736" lon="6.14907">
        <ele>1993.2</ele>
        <time>2026-08-25T09:56:10Z</time>
      </trkpt>
      <trkpt lat="45.08737" lon="6.14908">
        <ele>1993.3</ele>
        <time>2026-08-25T09:56:11Z</time>
      </trkpt>
      <trkpt lat="45.08739" lon="6.14909">
        <ele>1993.4</ele>
        <time>2026-08-25T09:56:12Z</time>
      </trkpt>
      <trkpt lat="45.0874" lon="6.14909">
        <ele>1993.4</ele>
        <time>2026-08-25T09:56:13Z</time>
      </trkpt>
      <trkpt lat="45.08742" lon="6.1491">
        <ele>1993.5</ele>
        <time>2026-08-25T09:56:14Z</time>
      </trkpt>
      <trkpt lat="45.08744" lon="6.1491">
        <ele>1993.6</ele>
        <time>2026-08-25T09:56:15Z</time>
      </trkpt>
      <trkpt lat="45.08746" lon="6.1491">
        <ele>1993.7</ele>
        <time>2026-08-25T09:56:16Z</time>
      </trkpt>
      <trkpt lat="45.08747" lon="6.1491">
        <ele>1993.7</ele>
        <time>2026-08-25T09:56:17Z</time>
      </trkpt>
      <trkpt lat="45.08749" lon="6.1491">
        <ele>1993.8</ele>
        <time>2026-08-25T09:56:18Z</time>
      </trkpt>
      <trkpt lat="45.0875" lon="6.1491">
        <ele>1993.9</ele>
        <time>2026-08-25T09:56:19Z</time>
      </trkpt>
      <trkpt lat="45.08752" lon="6.1491">
        <ele>1993.9</ele>
        <time>2026-08-25T09:56:20Z</time>
      </trkpt>
      <trkpt lat="45.08754" lon="6.14909">
        <ele>1993.9</ele>
        <time>2026-08-25T09:56:21Z</time>
      </trkpt>
      <trkpt lat="45.08756" lon="6.1491">
        <ele>1993.9</ele>
        <time>2026-08-25T09:56:22Z</time>
      </trkpt>
      <trkpt lat="45.08758" lon="6.1491">
        <ele>1993.9</ele>
        <time>2026-08-25T09:56:23Z</time>
      </trkpt>
      <trkpt lat="45.08761" lon="6.1491">
        <ele>1993.8</ele>
        <time>2026-08-25T09:56:24Z</time>
      </trkpt>
      <trkpt lat="45.08764" lon="6.14911">
        <ele>1993.7</ele>
        <time>2026-08-25T09:56:25Z</time>
      </trkpt>
      <trkpt lat="45.08768" lon="6.14911">
        <ele>1993.5</ele>
        <time>2026-08-25T09:56:26Z</time>
      </trkpt>
      <trkpt lat="45.08772" lon="6.14911">
        <ele>1993.3</ele>
        <time>2026-08-25T09:56:27Z</time>
      </trkpt>
      <trkpt lat="45.08776" lon="6.14913">
        <ele>1993.1</ele>
        <time>2026-08-25T09:56:28Z</time>
      </trkpt>
      <trkpt lat="45.08782" lon="6.14914">
        <ele>1992.7</ele>
        <time>2026-08-25T09:56:29Z</time>
      </trkpt>
      <trkpt lat="45.08787" lon="6.14915">
        <ele>1992.4</ele>
        <time>2026-08-25T09:56:30Z</time>
      </trkpt>
      <trkpt lat="45.08793" lon="6.14917">
        <ele>1991.9</ele>
        <time>2026-08-25T09:56:31Z</time>
      </trkpt>
      <trkpt lat="45.08799" lon="6.14919">
        <ele>1991.5</ele>
        <time>2026-08-25T09:56:32Z</time>
      </trkpt>
      <trkpt lat="45.08807" lon="6.14922">
        <ele>1990.9</ele>
        <time>2026-08-25T09:56:33Z</time>
      </trkpt>
      <trkpt lat="45.08814" lon="6.14926">
        <ele>1990.1</ele>
        <time>2026-08-25T09:56:34Z</time>
      </trkpt>
      <trkpt lat="45.08822" lon="6.1493">
        <ele>1989.2</ele>
        <time>2026-08-25T09:56:35Z</time>
      </trkpt>
      <trkpt lat="45.0883" lon="6.14934">
        <ele>1988.3</ele>
        <time>2026-08-25T09:56:36Z</time>
      </trkpt>
      <trkpt lat="45.08838" lon="6.14938">
        <ele>1987.4</ele>
        <time>2026-08-25T09:56:37Z</time>
      </trkpt>
      <trkpt lat="45.08846" lon="6.1494">
        <ele>1986.6</ele>
        <time>2026-08-25T09:56:38Z</time>
      </trkpt>
      <trkpt lat="45.08855" lon="6.14943">
        <ele>1985.8</ele>
        <time>2026-08-25T09:56:39Z</time>
      </trkpt>
      <trkpt lat="45.08864" lon="6.14944">
        <ele>1985.2</ele>
        <time>2026-08-25T09:56:40Z</time>
      </trkpt>
      <trkpt lat="45.08872" lon="6.14944">
        <ele>1984.6</ele>
        <time>2026-08-25T09:56:41Z</time>
      </trkpt>
      <trkpt lat="45.0888" lon="6.14942">
        <ele>1984</ele>
        <time>2026-08-25T09:56:42Z</time>
      </trkpt>
      <trkpt lat="45.08886" lon="6.14936">
        <ele>1983.5</ele>
        <time>2026-08-25T09:56:43Z</time>
      </trkpt>
      <trkpt lat="45.08891" lon="6.14929">
        <ele>1982.9</ele>
        <time>2026-08-25T09:56:44Z</time>
      </trkpt>
      <trkpt lat="45.08898" lon="6.14924">
        <ele>1982.3</ele>
        <time>2026-08-25T09:56:45Z</time>
      </trkpt>
      <trkpt lat="45.08905" lon="6.1492">
        <ele>1981.7</ele>
        <time>2026-08-25T09:56:46Z</time>
      </trkpt>
      <trkpt lat="45.08913" lon="6.14919">
        <ele>1981.2</ele>
        <time>2026-08-25T09:56:47Z</time>
      </trkpt>
      <trkpt lat="45.08919" lon="6.14919">
        <ele>1980.7</ele>
        <time>2026-08-25T09:56:48Z</time>
      </trkpt>
      <trkpt lat="45.08926" lon="6.14921">
        <ele>1980.2</ele>
        <time>2026-08-25T09:56:49Z</time>
      </trkpt>
      <trkpt lat="45.08933" lon="6.14924">
        <ele>1979.6</ele>
        <time>2026-08-25T09:56:50Z</time>
      </trkpt>
      <trkpt lat="45.08939" lon="6.14926">
        <ele>1979.1</ele>
        <time>2026-08-25T09:56:51Z</time>
      </trkpt>
      <trkpt lat="45.08945" lon="6.14928">
        <ele>1978.6</ele>
        <time>2026-08-25T09:56:52Z</time>
      </trkpt>
      <trkpt lat="45.08951" lon="6.14928">
        <ele>1978</ele>
        <time>2026-08-25T09:56:53Z</time>
      </trkpt>
      <trkpt lat="45.08957" lon="6.14926">
        <ele>1977.4</ele>
        <time>2026-08-25T09:56:54Z</time>
      </trkpt>
      <trkpt lat="45.08963" lon="6.14922">
        <ele>1976.7</ele>
        <time>2026-08-25T09:56:55Z</time>
      </trkpt>
      <trkpt lat="45.08969" lon="6.14918">
        <ele>1976</ele>
        <time>2026-08-25T09:56:56Z</time>
      </trkpt>
      <trkpt lat="45.08975" lon="6.14911">
        <ele>1975.2</ele>
        <time>2026-08-25T09:56:57Z</time>
      </trkpt>
      <trkpt lat="45.08981" lon="6.14905">
        <ele>1974.4</ele>
        <time>2026-08-25T09:56:58Z</time>
      </trkpt>
      <trkpt lat="45.08988" lon="6.14899">
        <ele>1973.6</ele>
        <time>2026-08-25T09:56:59Z</time>
      </trkpt>
      <trkpt lat="45.08996" lon="6.14894">
        <ele>1972.8</ele>
        <time>2026-08-25T09:57:00Z</time>
      </trkpt>
      <trkpt lat="45.09004" lon="6.14889">
        <ele>1972</ele>
        <time>2026-08-25T09:57:01Z</time>
      </trkpt>
      <trkpt lat="45.09012" lon="6.14884">
        <ele>1971.3</ele>
        <time>2026-08-25T09:57:02Z</time>
      </trkpt>
      <trkpt lat="45.09019" lon="6.14879">
        <ele>1970.7</ele>
        <time>2026-08-25T09:57:03Z</time>
      </trkpt>
      <trkpt lat="45.09025" lon="6.14874">
        <ele>1970.2</ele>
        <time>2026-08-25T09:57:04Z</time>
      </trkpt>
      <trkpt lat="45.0903" lon="6.14871">
        <ele>1969.7</ele>
        <time>2026-08-25T09:57:05Z</time>
      </trkpt>
      <trkpt lat="45.09035" lon="6.14869">
        <ele>1969.3</ele>
        <time>2026-08-25T09:57:06Z</time>
      </trkpt>
      <trkpt lat="45.09038" lon="6.14869">
        <ele>1969</ele>
        <time>2026-08-25T09:57:07Z</time>
      </trkpt>
      <trkpt lat="45.09039" lon="6.14873">
        <ele>1968.7</ele>
        <time>2026-08-25T09:57:08Z</time>
      </trkpt>
      <trkpt lat="45.09038" lon="6.14878">
        <ele>1968.3</ele>
        <time>2026-08-25T09:57:09Z</time>
      </trkpt>
      <trkpt lat="45.09035" lon="6.14882">
        <ele>1967.8</ele>
        <time>2026-08-25T09:57:10Z</time>
      </trkpt>
      <trkpt lat="45.0903" lon="6.14886">
        <ele>1967.1</ele>
        <time>2026-08-25T09:57:11Z</time>
      </trkpt>
      <trkpt lat="45.09024" lon="6.1489">
        <ele>1966.4</ele>
        <time>2026-08-25T09:57:12Z</time>
      </trkpt>
      <trkpt lat="45.09019" lon="6.14895">
        <ele>1965.6</ele>
        <time>2026-08-25T09:57:13Z</time>
      </trkpt>
      <trkpt lat="45.09014" lon="6.149">
        <ele>1964.9</ele>
        <time>2026-08-25T09:57:14Z</time>
      </trkpt>
      <trkpt lat="45.0901" lon="6.14905">
        <ele>1964.3</ele>
        <time>2026-08-25T09:57:15Z</time>
      </trkpt>
      <trkpt lat="45.09006" lon="6.14911">
        <ele>1963.6</ele>
        <time>2026-08-25T09:57:16Z</time>
      </trkpt>
      <trkpt lat="45.09003" lon="6.14914">
        <ele>1963.1</ele>
        <time>2026-08-25T09:57:17Z</time>
      </trkpt>
      <trkpt lat="45.09001" lon="6.14918">
        <ele>1962.6</ele>
        <time>2026-08-25T09:57:18Z</time>
      </trkpt>
      <trkpt lat="45.08998" lon="6.14923">
        <ele>1962.1</ele>
        <time>2026-08-25T09:57:19Z</time>
      </trkpt>
      <trkpt lat="45.08995" lon="6.1493">
        <ele>1961.4</ele>
        <time>2026-08-25T09:57:20Z</time>
      </trkpt>
      <trkpt lat="45.08993" lon="6.14938">
        <ele>1960.7</ele>
        <time>2026-08-25T09:57:21Z</time>
      </trkpt>
      <trkpt lat="45.08994" lon="6.14946">
        <ele>1959.9</ele>
        <time>2026-08-25T09:57:22Z</time>
      </trkpt>
      <trkpt lat="45.08998" lon="6.14952">
        <ele>1959.2</ele>
        <time>2026-08-25T09:57:23Z</time>
      </trkpt>
      <trkpt lat="45.09003" lon="6.14953">
        <ele>1958.4</ele>
        <time>2026-08-25T09:57:24Z</time>
      </trkpt>
      <trkpt lat="45.09008" lon="6.14951">
        <ele>1957.7</ele>
        <time>2026-08-25T09:57:25Z</time>
      </trkpt>
      <trkpt lat="45.09013" lon="6.14946">
        <ele>1956.9</ele>
        <time>2026-08-25T09:57:26Z</time>
      </trkpt>
      <trkpt lat="45.09017" lon="6.1494">
        <ele>1956.1</ele>
        <time>2026-08-25T09:57:27Z</time>
      </trkpt>
      <trkpt lat="45.0902" lon="6.14932">
        <ele>1955.3</ele>
        <time>2026-08-25T09:57:28Z</time>
      </trkpt>
      <trkpt lat="45.09025" lon="6.14925">
        <ele>1954.5</ele>
        <time>2026-08-25T09:57:29Z</time>
      </trkpt>
      <trkpt lat="45.09031" lon="6.14919">
        <ele>1953.7</ele>
        <time>2026-08-25T09:57:30Z</time>
      </trkpt>
      <trkpt lat="45.09038" lon="6.14916">
        <ele>1952.9</ele>
        <time>2026-08-25T09:57:31Z</time>
      </trkpt>
      <trkpt lat="45.09046" lon="6.14913">
        <ele>1952</ele>
        <time>2026-08-25T09:57:32Z</time>
      </trkpt>
      <trkpt lat="45.09054" lon="6.14911">
        <ele>1951.2</ele>
        <time>2026-08-25T09:57:33Z</time>
      </trkpt>
      <trkpt lat="45.09063" lon="6.14909">
        <ele>1950.5</ele>
        <time>2026-08-25T09:57:34Z</time>
      </trkpt>
      <trkpt lat="45.09071" lon="6.14905">
        <ele>1949.8</ele>
        <time>2026-08-25T09:57:35Z</time>
      </trkpt>
      <trkpt lat="45.09078" lon="6.149">
        <ele>1949.1</ele>
        <time>2026-08-25T09:57:36Z</time>
      </trkpt>
      <trkpt lat="45.09085" lon="6.14896">
        <ele>1948.5</ele>
        <time>2026-08-25T09:57:37Z</time>
      </trkpt>
      <trkpt lat="45.09093" lon="6.14897">
        <ele>1947.9</ele>
        <time>2026-08-25T09:57:38Z</time>
      </trkpt>
      <trkpt lat="45.091" lon="6.149">
        <ele>1947.2</ele>
        <time>2026-08-25T09:57:39Z</time>
      </trkpt>
      <trkpt lat="45.09107" lon="6.14904">
        <ele>1946.5</ele>
        <time>2026-08-25T09:57:40Z</time>
      </trkpt>
      <trkpt lat="45.09114" lon="6.14909">
        <ele>1945.8</ele>
        <time>2026-08-25T09:57:41Z</time>
      </trkpt>
      <trkpt lat="45.0912" lon="6.14914">
        <ele>1945</ele>
        <time>2026-08-25T09:57:42Z</time>
      </trkpt>
      <trkpt lat="45.09126" lon="6.1492">
        <ele>1944.2</ele>
        <time>2026-08-25T09:57:43Z</time>
      </trkpt>
      <trkpt lat="45.09131" lon="6.14926">
        <ele>1943.3</ele>
        <time>2026-08-25T09:57:44Z</time>
      </trkpt>
      <trkpt lat="45.09135" lon="6.14933">
        <ele>1942.5</ele>
        <time>2026-08-25T09:57:45Z</time>
      </trkpt>
      <trkpt lat="45.0914" lon="6.1494">
        <ele>1941.7</ele>
        <time>2026-08-25T09:57:46Z</time>
      </trkpt>
      <trkpt lat="45.09145" lon="6.14947">
        <ele>1940.7</ele>
        <time>2026-08-25T09:57:47Z</time>
      </trkpt>
      <trkpt lat="45.09152" lon="6.14952">
        <ele>1939.7</ele>
        <time>2026-08-25T09:57:48Z</time>
      </trkpt>
      <trkpt lat="45.09158" lon="6.14956">
        <ele>1938.8</ele>
        <time>2026-08-25T09:57:49Z</time>
      </trkpt>
      <trkpt lat="45.09164" lon="6.14963">
        <ele>1937.7</ele>
        <time>2026-08-25T09:57:50Z</time>
      </trkpt>
      <trkpt lat="45.09169" lon="6.14971">
        <ele>1936.7</ele>
        <time>2026-08-25T09:57:51Z</time>
      </trkpt>
      <trkpt lat="45.09174" lon="6.1498">
        <ele>1935.6</ele>
        <time>2026-08-25T09:57:52Z</time>
      </trkpt>
      <trkpt lat="45.09179" lon="6.14991">
        <ele>1934.5</ele>
        <time>2026-08-25T09:57:53Z</time>
      </trkpt>
      <trkpt lat="45.09183" lon="6.15001">
        <ele>1933.5</ele>
        <time>2026-08-25T09:57:54Z</time>
      </trkpt>
      <trkpt lat="45.09186" lon="6.15012">
        <ele>1932.8</ele>
        <time>2026-08-25T09:57:55Z</time>
      </trkpt>
      <trkpt lat="45.09189" lon="6.15023">
        <ele>1932.1</ele>
        <time>2026-08-25T09:57:56Z</time>
      </trkpt>
      <trkpt lat="45.09192" lon="6.15032">
        <ele>1931.6</ele>
        <time>2026-08-25T09:57:57Z</time>
      </trkpt>
      <trkpt lat="45.09196" lon="6.15039">
        <ele>1931.1</ele>
        <time>2026-08-25T09:57:58Z</time>
      </trkpt>
      <trkpt lat="45.092" lon="6.15044">
        <ele>1930.7</ele>
        <time>2026-08-25T09:57:59Z</time>
      </trkpt>
      <trkpt lat="45.09205" lon="6.15046">
        <ele>1930.3</ele>
        <time>2026-08-25T09:58:00Z</time>
      </trkpt>
      <trkpt lat="45.0921" lon="6.15047">
        <ele>1929.9</ele>
        <time>2026-08-25T09:58:01Z</time>
      </trkpt>
      <trkpt lat="45.09216" lon="6.15049">
        <ele>1929.5</ele>
        <time>2026-08-25T09:58:02Z</time>
      </trkpt>
      <trkpt lat="45.09221" lon="6.15052">
        <ele>1929</ele>
        <time>2026-08-25T09:58:03Z</time>
      </trkpt>
      <trkpt lat="45.09227" lon="6.15055">
        <ele>1928.5</ele>
        <time>2026-08-25T09:58:04Z</time>
      </trkpt>
      <trkpt lat="45.09232" lon="6.15058">
        <ele>1928.1</ele>
        <time>2026-08-25T09:58:05Z</time>
      </trkpt>
      <trkpt lat="45.09237" lon="6.15061">
        <ele>1927.7</ele>
        <time>2026-08-25T09:58:06Z</time>
      </trkpt>
      <trkpt lat="45.09242" lon="6.15063">
        <ele>1927.2</ele>
        <time>2026-08-25T09:58:07Z</time>
      </trkpt>
      <trkpt lat="45.09247" lon="6.15063">
        <ele>1926.8</ele>
        <time>2026-08-25T09:58:08Z</time>
      </trkpt>
      <trkpt lat="45.09254" lon="6.15062">
        <ele>1926.3</ele>
        <time>2026-08-25T09:58:09Z</time>
      </trkpt>
      <trkpt lat="45.0926" lon="6.15061">
        <ele>1925.9</ele>
        <time>2026-08-25T09:58:10Z</time>
      </trkpt>
      <trkpt lat="45.09266" lon="6.15059">
        <ele>1925.5</ele>
        <time>2026-08-25T09:58:11Z</time>
      </trkpt>
      <trkpt lat="45.09272" lon="6.15058">
        <ele>1925.1</ele>
        <time>2026-08-25T09:58:12Z</time>
      </trkpt>
      <trkpt lat="45.09278" lon="6.15059">
        <ele>1924.7</ele>
        <time>2026-08-25T09:58:13Z</time>
      </trkpt>
      <trkpt lat="45.09284" lon="6.15061">
        <ele>1924.2</ele>
        <time>2026-08-25T09:58:14Z</time>
      </trkpt>
      <trkpt lat="45.0929" lon="6.15064">
        <ele>1923.8</ele>
        <time>2026-08-25T09:58:15Z</time>
      </trkpt>
      <trkpt lat="45.09294" lon="6.1507">
        <ele>1923.3</ele>
        <time>2026-08-25T09:58:16Z</time>
      </trkpt>
      <trkpt lat="45.09298" lon="6.15077">
        <ele>1922.7</ele>
        <time>2026-08-25T09:58:17Z</time>
      </trkpt>
      <trkpt lat="45.09301" lon="6.15083">
        <ele>1922.1</ele>
        <time>2026-08-25T09:58:18Z</time>
      </trkpt>
      <trkpt lat="45.09306" lon="6.15088">
        <ele>1921.5</ele>
        <time>2026-08-25T09:58:19Z</time>
      </trkpt>
      <trkpt lat="45.09313" lon="6.1509">
        <ele>1920.8</ele>
        <time>2026-08-25T09:58:20Z</time>
      </trkpt>
      <trkpt lat="45.09318" lon="6.15088">
        <ele>1920.3</ele>
        <time>2026-08-25T09:58:21Z</time>
      </trkpt>
      <trkpt lat="45.09324" lon="6.15085">
        <ele>1919.8</ele>
        <time>2026-08-25T09:58:22Z</time>
      </trkpt>
      <trkpt lat="45.0933" lon="6.15085">
        <ele>1919.4</ele>
        <time>2026-08-25T09:58:23Z</time>
      </trkpt>
      <trkpt lat="45.09336" lon="6.15088">
        <ele>1918.9</ele>
        <time>2026-08-25T09:58:24Z</time>
      </trkpt>
      <trkpt lat="45.09341" lon="6.15094">
        <ele>1918.5</ele>
        <time>2026-08-25T09:58:25Z</time>
      </trkpt>
      <trkpt lat="45.09345" lon="6.15101">
        <ele>1918</ele>
        <time>2026-08-25T09:58:26Z</time>
      </trkpt>
      <trkpt lat="45.09348" lon="6.15108">
        <ele>1917.5</ele>
        <time>2026-08-25T09:58:27Z</time>
      </trkpt>
      <trkpt lat="45.09353" lon="6.15113">
        <ele>1917.1</ele>
        <time>2026-08-25T09:58:28Z</time>
      </trkpt>
      <trkpt lat="45.09357" lon="6.15116">
        <ele>1916.8</ele>
        <time>2026-08-25T09:58:29Z</time>
      </trkpt>
      <trkpt lat="45.09361" lon="6.15118">
        <ele>1916.5</ele>
        <time>2026-08-25T09:58:30Z</time>
      </trkpt>
      <trkpt lat="45.09364" lon="6.15117">
        <ele>1916.3</ele>
        <time>2026-08-25T09:58:31Z</time>
      </trkpt>
      <trkpt lat="45.09368" lon="6.15115">
        <ele>1916.1</ele>
        <time>2026-08-25T09:58:32Z</time>
      </trkpt>
      <trkpt lat="45.09372" lon="6.15113">
        <ele>1915.9</ele>
        <time>2026-08-25T09:58:33Z</time>
      </trkpt>
      <trkpt lat="45.09375" lon="6.1511">
        <ele>1915.7</ele>
        <time>2026-08-25T09:58:34Z</time>
      </trkpt>
      <trkpt lat="45.09379" lon="6.15108">
        <ele>1915.4</ele>
        <time>2026-08-25T09:58:35Z</time>
      </trkpt>
      <trkpt lat="45.09383" lon="6.15107">
        <ele>1915.2</ele>
        <time>2026-08-25T09:58:36Z</time>
      </trkpt>
      <trkpt lat="45.09387" lon="6.15109">
        <ele>1914.9</ele>
        <time>2026-08-25T09:58:37Z</time>
      </trkpt>
      <trkpt lat="45.09392" lon="6.15112">
        <ele>1914.5</ele>
        <time>2026-08-25T09:58:38Z</time>
      </trkpt>
      <trkpt lat="45.09397" lon="6.15117">
        <ele>1914.1</ele>
        <time>2026-08-25T09:58:39Z</time>
      </trkpt>
      <trkpt lat="45.09401" lon="6.15122">
        <ele>1913.6</ele>
        <time>2026-08-25T09:58:40Z</time>
      </trkpt>
      <trkpt lat="45.09406" lon="6.15129">
        <ele>1913.1</ele>
        <time>2026-08-25T09:58:41Z</time>
      </trkpt>
      <trkpt lat="45.0941" lon="6.15135">
        <ele>1912.5</ele>
        <time>2026-08-25T09:58:42Z</time>
      </trkpt>
      <trkpt lat="45.09416" lon="6.15141">
        <ele>1911.8</ele>
        <time>2026-08-25T09:58:43Z</time>
      </trkpt>
      <trkpt lat="45.09422" lon="6.15145">
        <ele>1911.1</ele>
        <time>2026-08-25T09:58:44Z</time>
      </trkpt>
      <trkpt lat="45.09429" lon="6.15149">
        <ele>1910.4</ele>
        <time>2026-08-25T09:58:45Z</time>
      </trkpt>
      <trkpt lat="45.09435" lon="6.15152">
        <ele>1909.6</ele>
        <time>2026-08-25T09:58:46Z</time>
      </trkpt>
      <trkpt lat="45.09442" lon="6.15153">
        <ele>1908.9</ele>
        <time>2026-08-25T09:58:47Z</time>
      </trkpt>
      <trkpt lat="45.09448" lon="6.15153">
        <ele>1908.1</ele>
        <time>2026-08-25T09:58:48Z</time>
      </trkpt>
      <trkpt lat="45.09455" lon="6.15156">
        <ele>1907.4</ele>
        <time>2026-08-25T09:58:49Z</time>
      </trkpt>
      <trkpt lat="45.0946" lon="6.1516">
        <ele>1906.8</ele>
        <time>2026-08-25T09:58:50Z</time>
      </trkpt>
      <trkpt lat="45.09463" lon="6.15163">
        <ele>1906.2</ele>
        <time>2026-08-25T09:58:51Z</time>
      </trkpt>
      <trkpt lat="45.09466" lon="6.15167">
        <ele>1905.9</ele>
        <time>2026-08-25T09:58:52Z</time>
      </trkpt>
      <trkpt lat="45.09468" lon="6.15169">
        <ele>1905.5</ele>
        <time>2026-08-25T09:58:53Z</time>
      </trkpt>
      <trkpt lat="45.09469" lon="6.15171">
        <ele>1905.3</ele>
        <time>2026-08-25T09:58:54Z</time>
      </trkpt>
      <trkpt lat="45.09471" lon="6.15172">
        <ele>1905.1</ele>
        <time>2026-08-25T09:58:55Z</time>
      </trkpt>
      <trkpt lat="45.09473" lon="6.1517">
        <ele>1904.9</ele>
        <time>2026-08-25T09:58:56Z</time>
      </trkpt>
      <trkpt lat="45.09472" lon="6.15168">
        <ele>1905</ele>
        <time>2026-08-25T09:58:57Z</time>
      </trkpt>
      <trkpt lat="45.09471" lon="6.15167">
        <ele>1905.3</ele>
        <time>2026-08-25T09:58:58Z</time>
      </trkpt>
      <trkpt lat="45.09469" lon="6.15166">
        <ele>1905.5</ele>
        <time>2026-08-25T09:58:59Z</time>
      </trkpt>
      <trkpt lat="45.09467" lon="6.15165">
        <ele>1905.8</ele>
        <time>2026-08-25T09:59:00Z</time>
      </trkpt>
      <trkpt lat="45.09465" lon="6.15163">
        <ele>1906</ele>
        <time>2026-08-25T09:59:01Z</time>
      </trkpt>
      <trkpt lat="45.09463" lon="6.15161">
        <ele>1906.3</ele>
        <time>2026-08-25T09:59:02Z</time>
      </trkpt>
      <trkpt lat="45.09462" lon="6.15159">
        <ele>1906.5</ele>
        <time>2026-08-25T09:59:03Z</time>
      </trkpt>
      <trkpt lat="45.0946" lon="6.15158">
        <ele>1906.7</ele>
        <time>2026-08-25T09:59:04Z</time>
      </trkpt>
      <trkpt lat="45.09458" lon="6.15157">
        <ele>1906.9</ele>
        <time>2026-08-25T09:59:05Z</time>
      </trkpt>
      <trkpt lat="45.09457" lon="6.15156">
        <ele>1907.1</ele>
        <time>2026-08-25T09:59:06Z</time>
      </trkpt>
      <trkpt lat="45.09455" lon="6.15155">
        <ele>1907.4</ele>
        <time>2026-08-25T09:59:07Z</time>
      </trkpt>
      <trkpt lat="45.09453" lon="6.15154">
        <ele>1907.6</ele>
        <time>2026-08-25T09:59:08Z</time>
      </trkpt>
      <trkpt lat="45.09451" lon="6.15153">
        <ele>1907.8</ele>
        <time>2026-08-25T09:59:09Z</time>
      </trkpt>
      <trkpt lat="45.09449" lon="6.15153">
        <ele>1908.1</ele>
        <time>2026-08-25T09:59:10Z</time>
      </trkpt>
      <trkpt lat="45.09446" lon="6.15152">
        <ele>1908.4</ele>
        <time>2026-08-25T09:59:11Z</time>
      </trkpt>
      <trkpt lat="45.09444" lon="6.15151">
        <ele>1908.7</ele>
        <time>2026-08-25T09:59:12Z</time>
      </trkpt>
      <trkpt lat="45.09441" lon="6.15151">
        <ele>1908.9</ele>
        <time>2026-08-25T09:59:13Z</time>
      </trkpt>
      <trkpt lat="45.09439" lon="6.1515">
        <ele>1909.2</ele>
        <time>2026-08-25T09:59:14Z</time>
      </trkpt>
      <trkpt lat="45.09436" lon="6.15149">
        <ele>1909.5</ele>
        <time>2026-08-25T09:59:15Z</time>
      </trkpt>
      <trkpt lat="45.09434" lon="6.15149">
        <ele>1909.8</ele>
        <time>2026-08-25T09:59:16Z</time>
      </trkpt>
      <trkpt lat="45.09432" lon="6.15148">
        <ele>1910.1</ele>
        <time>2026-08-25T09:59:17Z</time>
      </trkpt>
      <trkpt lat="45.09429" lon="6.15147">
        <ele>1910.3</ele>
        <time>2026-08-25T09:59:18Z</time>
      </trkpt>
      <trkpt lat="45.09427" lon="6.15145">
        <ele>1910.6</ele>
        <time>2026-08-25T09:59:19Z</time>
      </trkpt>
      <trkpt lat="45.09425" lon="6.15144">
        <ele>1910.8</ele>
        <time>2026-08-25T09:59:20Z</time>
      </trkpt>
      <trkpt lat="45.09423" lon="6.15142">
        <ele>1911.1</ele>
        <time>2026-08-25T09:59:21Z</time>
      </trkpt>
      <trkpt lat="45.09422" lon="6.1514">
        <ele>1911.3</ele>
        <time>2026-08-25T09:59:22Z</time>
      </trkpt>
      <trkpt lat="45.0942" lon="6.15138">
        <ele>1911.6</ele>
        <time>2026-08-25T09:59:23Z</time>
      </trkpt>
      <trkpt lat="45.09418" lon="6.15136">
        <ele>1911.8</ele>
        <time>2026-08-25T09:59:24Z</time>
      </trkpt>
      <trkpt lat="45.09416" lon="6.15135">
        <ele>1912.1</ele>
        <time>2026-08-25T09:59:25Z</time>
      </trkpt>
      <trkpt lat="45.09414" lon="6.15133">
        <ele>1912.3</ele>
        <time>2026-08-25T09:59:26Z</time>
      </trkpt>
      <trkpt lat="45.09412" lon="6.1513">
        <ele>1912.5</ele>
        <time>2026-08-25T09:59:27Z</time>
      </trkpt>
      <trkpt lat="45.09411" lon="6.15128">
        <ele>1912.7</ele>
        <time>2026-08-25T09:59:28Z</time>
      </trkpt>
      <trkpt lat="45.09409" lon="6.15127">
        <ele>1912.9</ele>
        <time>2026-08-25T09:59:29Z</time>
      </trkpt>
      <trkpt lat="45.09407" lon="6.15125">
        <ele>1913.1</ele>
        <time>2026-08-25T09:59:30Z</time>
      </trkpt>
      <trkpt lat="45.09406" lon="6.15124">
        <ele>1913.2</ele>
        <time>2026-08-25T09:59:31Z</time>
      </trkpt>
      <trkpt lat="45.09404" lon="6.15122">
        <ele>1913.4</ele>
        <time>2026-08-25T09:59:32Z</time>
      </trkpt>
      <trkpt lat="45.09403" lon="6.1512">
        <ele>1913.5</ele>
        <time>2026-08-25T09:59:33Z</time>
      </trkpt>
      <trkpt lat="45.09401" lon="6.15118">
        <ele>1913.7</ele>
        <time>2026-08-25T09:59:34Z</time>
      </trkpt>
      <trkpt lat="45.094" lon="6.15117">
        <ele>1913.8</ele>
        <time>2026-08-25T09:59:35Z</time>
      </trkpt>
      <trkpt lat="45.09398" lon="6.15115">
        <ele>1914</ele>
        <time>2026-08-25T09:59:36Z</time>
      </trkpt>
      <trkpt lat="45.09396" lon="6.15113">
        <ele>1914.2</ele>
        <time>2026-08-25T09:59:37Z</time>
      </trkpt>
      <trkpt lat="45.09394" lon="6.15112">
        <ele>1914.3</ele>
        <time>2026-08-25T09:59:38Z</time>
      </trkpt>
      <trkpt lat="45.09393" lon="6.1511">
        <ele>1914.5</ele>
        <time>2026-08-25T09:59:39Z</time>
      </trkpt>
      <trkpt lat="45.09391" lon="6.15109">
        <ele>1914.6</ele>
        <time>2026-08-25T09:59:40Z</time>
      </trkpt>
      <trkpt lat="45.0939" lon="6.15108">
        <ele>1914.7</ele>
        <time>2026-08-25T09:59:41Z</time>
      </trkpt>
      <trkpt lat="45.09388" lon="6.15107">
        <ele>1914.8</ele>
        <time>2026-08-25T09:59:42Z</time>
      </trkpt>
      <trkpt lat="45.09386" lon="6.15107">
        <ele>1915</ele>
        <time>2026-08-25T09:59:43Z</time>
      </trkpt>
      <trkpt lat="45.09384" lon="6.15107">
        <ele>1915.1</ele>
        <time>2026-08-25T09:59:44Z</time>
      </trkpt>
      <trkpt lat="45.09383" lon="6.15107">
        <ele>1915.2</ele>
        <time>2026-08-25T09:59:45Z</time>
      </trkpt>
      <trkpt lat="45.09381" lon="6.15107">
        <ele>1915.3</ele>
        <time>2026-08-25T09:59:46Z</time>
      </trkpt>
      <trkpt lat="45.09378" lon="6.15107">
        <ele>1915.5</ele>
        <time>2026-08-25T09:59:47Z</time>
      </trkpt>
      <trkpt lat="45.09377" lon="6.15107">
        <ele>1915.5</ele>
        <time>2026-08-25T09:59:48Z</time>
      </trkpt>
      <trkpt lat="45.09376" lon="6.15107">
        <ele>1915.6</ele>
        <time>2026-08-25T09:59:49Z</time>
      </trkpt>
      <trkpt lat="45.09376" lon="6.15107">
        <ele>1915.6</ele>
        <time>2026-08-25T09:59:50Z</time>
      </trkpt>
      <trkpt lat="45.09375" lon="6.15107">
        <ele>1915.6</ele>
        <time>2026-08-25T09:59:51Z</time>
      </trkpt>
      <trkpt lat="45.09374" lon="6.15108">
        <ele>1915.7</ele>
        <time>2026-08-25T09:59:52Z</time>
      </trkpt>
      <trkpt lat="45.09373" lon="6.15108">
        <ele>1915.8</ele>
        <time>2026-08-25T09:59:53Z</time>
      </trkpt>
      <trkpt lat="45.09372" lon="6.15108">
        <ele>1915.8</ele>
        <time>2026-08-25T09:59:54Z</time>
      </trkpt>
      <trkpt lat="45.09372" lon="6.15108">
        <ele>1915.8</ele>
        <time>2026-08-25T09:59:55Z</time>
      </trkpt>
      <trkpt lat="45.09366" lon="6.15115">
        <ele>1916.2</ele>
        <time>2026-08-25T10:00:10Z</time>
      </trkpt>
      <trkpt lat="45.09364" lon="6.15115">
        <ele>1916.4</ele>
        <time>2026-08-25T10:00:11Z</time>
      </trkpt>
      <trkpt lat="45.09362" lon="6.15116">
        <ele>1916.5</ele>
        <time>2026-08-25T10:00:12Z</time>
      </trkpt>
      <trkpt lat="45.0936" lon="6.15114">
        <ele>1916.6</ele>
        <time>2026-08-25T10:00:13Z</time>
      </trkpt>
      <trkpt lat="45.09358" lon="6.15112">
        <ele>1916.7</ele>
        <time>2026-08-25T10:00:14Z</time>
      </trkpt>
      <trkpt lat="45.09356" lon="6.1511">
        <ele>1916.9</ele>
        <time>2026-08-25T10:00:15Z</time>
      </trkpt>
      <trkpt lat="45.09355" lon="6.15108">
        <ele>1917.1</ele>
        <time>2026-08-25T10:00:16Z</time>
      </trkpt>
      <trkpt lat="45.09353" lon="6.15106">
        <ele>1917.2</ele>
        <time>2026-08-25T10:00:17Z</time>
      </trkpt>
      <trkpt lat="45.09352" lon="6.15104">
        <ele>1917.4</ele>
        <time>2026-08-25T10:00:18Z</time>
      </trkpt>
      <trkpt lat="45.0935" lon="6.15102">
        <ele>1917.5</ele>
        <time>2026-08-25T10:00:19Z</time>
      </trkpt>
      <trkpt lat="45.09349" lon="6.151">
        <ele>1917.6</ele>
        <time>2026-08-25T10:00:20Z</time>
      </trkpt>
      <trkpt lat="45.09347" lon="6.15098">
        <ele>1917.8</ele>
        <time>2026-08-25T10:00:21Z</time>
      </trkpt>
      <trkpt lat="45.09346" lon="6.15096">
        <ele>1918</ele>
        <time>2026-08-25T10:00:22Z</time>
      </trkpt>
      <trkpt lat="45.09344" lon="6.15093">
        <ele>1918.2</ele>
        <time>2026-08-25T10:00:23Z</time>
      </trkpt>
      <trkpt lat="45.09342" lon="6.1509">
        <ele>1918.4</ele>
        <time>2026-08-25T10:00:24Z</time>
      </trkpt>
      <trkpt lat="45.0934" lon="6.15088">
        <ele>1918.6</ele>
        <time>2026-08-25T10:00:25Z</time>
      </trkpt>
      <trkpt lat="45.09337" lon="6.15086">
        <ele>1918.8</ele>
        <time>2026-08-25T10:00:26Z</time>
      </trkpt>
      <trkpt lat="45.09335" lon="6.15085">
        <ele>1919</ele>
        <time>2026-08-25T10:00:27Z</time>
      </trkpt>
      <trkpt lat="45.09332" lon="6.15085">
        <ele>1919.2</ele>
        <time>2026-08-25T10:00:28Z</time>
      </trkpt>
      <trkpt lat="45.09329" lon="6.15084">
        <ele>1919.4</ele>
        <time>2026-08-25T10:00:29Z</time>
      </trkpt>
      <trkpt lat="45.09327" lon="6.15084">
        <ele>1919.6</ele>
        <time>2026-08-25T10:00:30Z</time>
      </trkpt>
      <trkpt lat="45.09324" lon="6.15085">
        <ele>1919.8</ele>
        <time>2026-08-25T10:00:31Z</time>
      </trkpt>
      <trkpt lat="45.09321" lon="6.15085">
        <ele>1920.1</ele>
        <time>2026-08-25T10:00:32Z</time>
      </trkpt>
      <trkpt lat="45.09318" lon="6.15087">
        <ele>1920.3</ele>
        <time>2026-08-25T10:00:33Z</time>
      </trkpt>
      <trkpt lat="45.09316" lon="6.15088">
        <ele>1920.5</ele>
        <time>2026-08-25T10:00:34Z</time>
      </trkpt>
      <trkpt lat="45.09314" lon="6.15088">
        <ele>1920.7</ele>
        <time>2026-08-25T10:00:35Z</time>
      </trkpt>
      <trkpt lat="45.09311" lon="6.15087">
        <ele>1921</ele>
        <time>2026-08-25T10:00:36Z</time>
      </trkpt>
      <trkpt lat="45.09309" lon="6.15086">
        <ele>1921.2</ele>
        <time>2026-08-25T10:00:37Z</time>
      </trkpt>
      <trkpt lat="45.09307" lon="6.15085">
        <ele>1921.4</ele>
        <time>2026-08-25T10:00:38Z</time>
      </trkpt>
      <trkpt lat="45.09305" lon="6.15083">
        <ele>1921.6</ele>
        <time>2026-08-25T10:00:39Z</time>
      </trkpt>
      <trkpt lat="45.09303" lon="6.15082">
        <ele>1921.8</ele>
        <time>2026-08-25T10:00:40Z</time>
      </trkpt>
      <trkpt lat="45.09302" lon="6.1508">
        <ele>1922</ele>
        <time>2026-08-25T10:00:41Z</time>
      </trkpt>
      <trkpt lat="45.09301" lon="6.15077">
        <ele>1922.2</ele>
        <time>2026-08-25T10:00:42Z</time>
      </trkpt>
      <trkpt lat="45.09301" lon="6.15075">
        <ele>1922.3</ele>
        <time>2026-08-25T10:00:43Z</time>
      </trkpt>
      <trkpt lat="45.093" lon="6.15073">
        <ele>1922.5</ele>
        <time>2026-08-25T10:00:44Z</time>
      </trkpt>
      <trkpt lat="45.09298" lon="6.1507">
        <ele>1922.8</ele>
        <time>2026-08-25T10:00:45Z</time>
      </trkpt>
      <trkpt lat="45.09297" lon="6.15067">
        <ele>1923</ele>
        <time>2026-08-25T10:00:46Z</time>
      </trkpt>
      <trkpt lat="45.09295" lon="6.15066">
        <ele>1923.2</ele>
        <time>2026-08-25T10:00:47Z</time>
      </trkpt>
      <trkpt lat="45.09292" lon="6.15063">
        <ele>1923.5</ele>
        <time>2026-08-25T10:00:48Z</time>
      </trkpt>
      <trkpt lat="45.09289" lon="6.15061">
        <ele>1923.8</ele>
        <time>2026-08-25T10:00:49Z</time>
      </trkpt>
      <trkpt lat="45.09287" lon="6.15059">
        <ele>1924</ele>
        <time>2026-08-25T10:00:50Z</time>
      </trkpt>
      <trkpt lat="45.09284" lon="6.15058">
        <ele>1924.2</ele>
        <time>2026-08-25T10:00:51Z</time>
      </trkpt>
      <trkpt lat="45.09282" lon="6.15057">
        <ele>1924.4</ele>
        <time>2026-08-25T10:00:52Z</time>
      </trkpt>
      <trkpt lat="45.09279" lon="6.15056">
        <ele>1924.6</ele>
        <time>2026-08-25T10:00:53Z</time>
      </trkpt>
      <trkpt lat="45.09277" lon="6.15056">
        <ele>1924.8</ele>
        <time>2026-08-25T10:00:54Z</time>
      </trkpt>
      <trkpt lat="45.09275" lon="6.15056">
        <ele>1924.9</ele>
        <time>2026-08-25T10:00:55Z</time>
      </trkpt>
      <trkpt lat="45.09272" lon="6.15057">
        <ele>1925.1</ele>
        <time>2026-08-25T10:00:56Z</time>
      </trkpt>
      <trkpt lat="45.0927" lon="6.15057">
        <ele>1925.2</ele>
        <time>2026-08-25T10:00:57Z</time>
      </trkpt>
      <trkpt lat="45.09268" lon="6.15058">
        <ele>1925.4</ele>
        <time>2026-08-25T10:00:58Z</time>
      </trkpt>
      <trkpt lat="45.09265" lon="6.15059">
        <ele>1925.5</ele>
        <time>2026-08-25T10:00:59Z</time>
      </trkpt>
      <trkpt lat="45.09263" lon="6.1506">
        <ele>1925.7</ele>
        <time>2026-08-25T10:01:00Z</time>
      </trkpt>
      <trkpt lat="45.0926" lon="6.15061">
        <ele>1925.9</ele>
        <time>2026-08-25T10:01:01Z</time>
      </trkpt>
      <trkpt lat="45.09258" lon="6.15061">
        <ele>1926</ele>
        <time>2026-08-25T10:01:02Z</time>
      </trkpt>
      <trkpt lat="45.09255" lon="6.15061">
        <ele>1926.2</ele>
        <time>2026-08-25T10:01:03Z</time>
      </trkpt>
      <trkpt lat="45.09253" lon="6.15061">
        <ele>1926.3</ele>
        <time>2026-08-25T10:01:04Z</time>
      </trkpt>
      <trkpt lat="45.09251" lon="6.15061">
        <ele>1926.5</ele>
        <time>2026-08-25T10:01:05Z</time>
      </trkpt>
      <trkpt lat="45.09249" lon="6.15061">
        <ele>1926.6</ele>
        <time>2026-08-25T10:01:06Z</time>
      </trkpt>
      <trkpt lat="45.09246" lon="6.15061">
        <ele>1926.8</ele>
        <time>2026-08-25T10:01:07Z</time>
      </trkpt>
      <trkpt lat="45.09245" lon="6.15061">
        <ele>1927</ele>
        <time>2026-08-25T10:01:08Z</time>
      </trkpt>
      <trkpt lat="45.09243" lon="6.1506">
        <ele>1927.1</ele>
        <time>2026-08-25T10:01:09Z</time>
      </trkpt>
      <trkpt lat="45.09241" lon="6.1506">
        <ele>1927.2</ele>
        <time>2026-08-25T10:01:10Z</time>
      </trkpt>
      <trkpt lat="45.0924" lon="6.15059">
        <ele>1927.4</ele>
        <time>2026-08-25T10:01:11Z</time>
      </trkpt>
      <trkpt lat="45.09238" lon="6.15058">
        <ele>1927.5</ele>
        <time>2026-08-25T10:01:12Z</time>
      </trkpt>
      <trkpt lat="45.09236" lon="6.15057">
        <ele>1927.7</ele>
        <time>2026-08-25T10:01:13Z</time>
      </trkpt>
      <trkpt lat="45.09234" lon="6.15055">
        <ele>1927.9</ele>
        <time>2026-08-25T10:01:14Z</time>
      </trkpt>
      <trkpt lat="45.09233" lon="6.15054">
        <ele>1928</ele>
        <time>2026-08-25T10:01:15Z</time>
      </trkpt>
      <trkpt lat="45.09231" lon="6.15053">
        <ele>1928.2</ele>
        <time>2026-08-25T10:01:16Z</time>
      </trkpt>
      <trkpt lat="45.0923" lon="6.15053">
        <ele>1928.3</ele>
        <time>2026-08-25T10:01:17Z</time>
      </trkpt>
      <trkpt lat="45.09228" lon="6.15052">
        <ele>1928.4</ele>
        <time>2026-08-25T10:01:18Z</time>
      </trkpt>
      <trkpt lat="45.09226" lon="6.1505">
        <ele>1928.6</ele>
        <time>2026-08-25T10:01:19Z</time>
      </trkpt>
      <trkpt lat="45.09224" lon="6.15049">
        <ele>1928.8</ele>
        <time>2026-08-25T10:01:20Z</time>
      </trkpt>
      <trkpt lat="45.09222" lon="6.15048">
        <ele>1929</ele>
        <time>2026-08-25T10:01:21Z</time>
      </trkpt>
      <trkpt lat="45.0922" lon="6.15047">
        <ele>1929.2</ele>
        <time>2026-08-25T10:01:22Z</time>
      </trkpt>
      <trkpt lat="45.09218" lon="6.15046">
        <ele>1929.3</ele>
        <time>2026-08-25T10:01:23Z</time>
      </trkpt>
      <trkpt lat="45.09216" lon="6.15045">
        <ele>1929.5</ele>
        <time>2026-08-25T10:01:24Z</time>
      </trkpt>
      <trkpt lat="45.09213" lon="6.15044">
        <ele>1929.7</ele>
        <time>2026-08-25T10:01:25Z</time>
      </trkpt>
      <trkpt lat="45.09211" lon="6.15044">
        <ele>1929.9</ele>
        <time>2026-08-25T10:01:26Z</time>
      </trkpt>
      <trkpt lat="45.09209" lon="6.15043">
        <ele>1930.1</ele>
        <time>2026-08-25T10:01:27Z</time>
      </trkpt>
      <trkpt lat="45.09206" lon="6.15043">
        <ele>1930.2</ele>
        <time>2026-08-25T10:01:28Z</time>
      </trkpt>
      <trkpt lat="45.09204" lon="6.15042">
        <ele>1930.4</ele>
        <time>2026-08-25T10:01:29Z</time>
      </trkpt>
      <trkpt lat="45.09202" lon="6.15041">
        <ele>1930.5</ele>
        <time>2026-08-25T10:01:30Z</time>
      </trkpt>
      <trkpt lat="45.092" lon="6.15039">
        <ele>1930.7</ele>
        <time>2026-08-25T10:01:31Z</time>
      </trkpt>
      <trkpt lat="45.09198" lon="6.15037">
        <ele>1930.9</ele>
        <time>2026-08-25T10:01:32Z</time>
      </trkpt>
      <trkpt lat="45.09197" lon="6.15034">
        <ele>1931.1</ele>
        <time>2026-08-25T10:01:33Z</time>
      </trkpt>
      <trkpt lat="45.09196" lon="6.15032">
        <ele>1931.2</ele>
        <time>2026-08-25T10:01:34Z</time>
      </trkpt>
      <trkpt lat="45.09195" lon="6.1503">
        <ele>1931.4</ele>
        <time>2026-08-25T10:01:35Z</time>
      </trkpt>
      <trkpt lat="45.09194" lon="6.15027">
        <ele>1931.5</ele>
        <time>2026-08-25T10:01:36Z</time>
      </trkpt>
      <trkpt lat="45.09193" lon="6.15025">
        <ele>1931.6</ele>
        <time>2026-08-25T10:01:37Z</time>
      </trkpt>
      <trkpt lat="45.09193" lon="6.15022">
        <ele>1931.8</ele>
        <time>2026-08-25T10:01:38Z</time>
      </trkpt>
      <trkpt lat="45.09192" lon="6.1502">
        <ele>1932</ele>
        <time>2026-08-25T10:01:39Z</time>
      </trkpt>
      <trkpt lat="45.09191" lon="6.15017">
        <ele>1932.1</ele>
        <time>2026-08-25T10:01:40Z</time>
      </trkpt>
      <trkpt lat="45.0919" lon="6.15015">
        <ele>1932.3</ele>
        <time>2026-08-25T10:01:41Z</time>
      </trkpt>
      <trkpt lat="45.09189" lon="6.15012">
        <ele>1932.4</ele>
        <time>2026-08-25T10:01:42Z</time>
      </trkpt>
      <trkpt lat="45.09188" lon="6.15009">
        <ele>1932.6</ele>
        <time>2026-08-25T10:01:43Z</time>
      </trkpt>
      <trkpt lat="45.09187" lon="6.15006">
        <ele>1932.8</ele>
        <time>2026-08-25T10:01:44Z</time>
      </trkpt>
      <trkpt lat="45.09187" lon="6.15004">
        <ele>1932.9</ele>
        <time>2026-08-25T10:01:45Z</time>
      </trkpt>
      <trkpt lat="45.09186" lon="6.15002">
        <ele>1933.1</ele>
        <time>2026-08-25T10:01:46Z</time>
      </trkpt>
      <trkpt lat="45.09185" lon="6.15">
        <ele>1933.2</ele>
        <time>2026-08-25T10:01:47Z</time>
      </trkpt>
      <trkpt lat="45.09185" lon="6.14998">
        <ele>1933.4</ele>
        <time>2026-08-25T10:01:48Z</time>
      </trkpt>
      <trkpt lat="45.09184" lon="6.14996">
        <ele>1933.5</ele>
        <time>2026-08-25T10:01:49Z</time>
      </trkpt>
      <trkpt lat="45.09183" lon="6.14994">
        <ele>1933.7</ele>
        <time>2026-08-25T10:01:50Z</time>
      </trkpt>
      <trkpt lat="45.09182" lon="6.14992">
        <ele>1933.8</ele>
        <time>2026-08-25T10:01:51Z</time>
      </trkpt>
      <trkpt lat="45.09181" lon="6.1499">
        <ele>1934</ele>
        <time>2026-08-25T10:01:52Z</time>
      </trkpt>
      <trkpt lat="45.0918" lon="6.14989">
        <ele>1934.1</ele>
        <time>2026-08-25T10:01:53Z</time>
      </trkpt>
      <trkpt lat="45.09179" lon="6.14987">
        <ele>1934.3</ele>
        <time>2026-08-25T10:01:54Z</time>
      </trkpt>
      <trkpt lat="45.09178" lon="6.14985">
        <ele>1934.5</ele>
        <time>2026-08-25T10:01:55Z</time>
      </trkpt>
      <trkpt lat="45.09178" lon="6.14983">
        <ele>1934.7</ele>
        <time>2026-08-25T10:01:56Z</time>
      </trkpt>
      <trkpt lat="45.09177" lon="6.14981">
        <ele>1934.9</ele>
        <time>2026-08-25T10:01:57Z</time>
      </trkpt>
      <trkpt lat="45.09177" lon="6.14979">
        <ele>1935.1</ele>
        <time>2026-08-25T10:01:58Z</time>
      </trkpt>
      <trkpt lat="45.09176" lon="6.14977">
        <ele>1935.3</ele>
        <time>2026-08-25T10:01:59Z</time>
      </trkpt>
      <trkpt lat="45.09175" lon="6.14975">
        <ele>1935.5</ele>
        <time>2026-08-25T10:02:00Z</time>
      </trkpt>
      <trkpt lat="45.09174" lon="6.14974">
        <ele>1935.7</ele>
        <time>2026-08-25T10:02:01Z</time>
      </trkpt>
      <trkpt lat="45.09173" lon="6.14973">
        <ele>1935.9</ele>
        <time>2026-08-25T10:02:02Z</time>
      </trkpt>
      <trkpt lat="45.09172" lon="6.14971">
        <ele>1936.1</ele>
        <time>2026-08-25T10:02:03Z</time>
      </trkpt>
      <trkpt lat="45.09171" lon="6.14969">
        <ele>1936.3</ele>
        <time>2026-08-25T10:02:04Z</time>
      </trkpt>
      <trkpt lat="45.0917" lon="6.14968">
        <ele>1936.5</ele>
        <time>2026-08-25T10:02:05Z</time>
      </trkpt>
      <trkpt lat="45.09169" lon="6.14966">
        <ele>1936.6</ele>
        <time>2026-08-25T10:02:06Z</time>
      </trkpt>
      <trkpt lat="45.09168" lon="6.14964">
        <ele>1936.9</ele>
        <time>2026-08-25T10:02:07Z</time>
      </trkpt>
      <trkpt lat="45.09167" lon="6.14963">
        <ele>1937.1</ele>
        <time>2026-08-25T10:02:08Z</time>
      </trkpt>
      <trkpt lat="45.09165" lon="6.14962">
        <ele>1937.3</ele>
        <time>2026-08-25T10:02:09Z</time>
      </trkpt>
      <trkpt lat="45.09164" lon="6.1496">
        <ele>1937.5</ele>
        <time>2026-08-25T10:02:10Z</time>
      </trkpt>
      <trkpt lat="45.09163" lon="6.14958">
        <ele>1937.7</ele>
        <time>2026-08-25T10:02:11Z</time>
      </trkpt>
      <trkpt lat="45.09161" lon="6.14957">
        <ele>1938</ele>
        <time>2026-08-25T10:02:12Z</time>
      </trkpt>
      <trkpt lat="45.0916" lon="6.14956">
        <ele>1938.2</ele>
        <time>2026-08-25T10:02:13Z</time>
      </trkpt>
      <trkpt lat="45.09158" lon="6.14955">
        <ele>1938.5</ele>
        <time>2026-08-25T10:02:14Z</time>
      </trkpt>
      <trkpt lat="45.09156" lon="6.14954">
        <ele>1938.7</ele>
        <time>2026-08-25T10:02:15Z</time>
      </trkpt>
      <trkpt lat="45.09154" lon="6.14953">
        <ele>1939</ele>
        <time>2026-08-25T10:02:16Z</time>
      </trkpt>
      <trkpt lat="45.09153" lon="6.14953">
        <ele>1939.1</ele>
        <time>2026-08-25T10:02:17Z</time>
      </trkpt>
      <trkpt lat="45.09152" lon="6.14951">
        <ele>1939.4</ele>
        <time>2026-08-25T10:02:18Z</time>
      </trkpt>
      <trkpt lat="45.0915" lon="6.1495">
        <ele>1939.6</ele>
        <time>2026-08-25T10:02:19Z</time>
      </trkpt>
      <trkpt lat="45.09149" lon="6.14949">
        <ele>1939.8</ele>
        <time>2026-08-25T10:02:20Z</time>
      </trkpt>
      <trkpt lat="45.09148" lon="6.14948">
        <ele>1940</ele>
        <time>2026-08-25T10:02:21Z</time>
      </trkpt>
      <trkpt lat="45.09147" lon="6.14946">
        <ele>1940.2</ele>
        <time>2026-08-25T10:02:22Z</time>
      </trkpt>
      <trkpt lat="45.09145" lon="6.14945">
        <ele>1940.4</ele>
        <time>2026-08-25T10:02:23Z</time>
      </trkpt>
      <trkpt lat="45.09144" lon="6.14944">
        <ele>1940.6</ele>
        <time>2026-08-25T10:02:24Z</time>
      </trkpt>
      <trkpt lat="45.09143" lon="6.14942">
        <ele>1940.8</ele>
        <time>2026-08-25T10:02:25Z</time>
      </trkpt>
      <trkpt lat="45.09142" lon="6.1494">
        <ele>1941</ele>
        <time>2026-08-25T10:02:26Z</time>
      </trkpt>
      <trkpt lat="45.09141" lon="6.14939">
        <ele>1941.2</ele>
        <time>2026-08-25T10:02:27Z</time>
      </trkpt>
      <trkpt lat="45.0914" lon="6.14937">
        <ele>1941.4</ele>
        <time>2026-08-25T10:02:28Z</time>
      </trkpt>
      <trkpt lat="45.09139" lon="6.14935">
        <ele>1941.6</ele>
        <time>2026-08-25T10:02:29Z</time>
      </trkpt>
      <trkpt lat="45.09138" lon="6.14933">
        <ele>1941.8</ele>
        <time>2026-08-25T10:02:30Z</time>
      </trkpt>
      <trkpt lat="45.09137" lon="6.14932">
        <ele>1942</ele>
        <time>2026-08-25T10:02:31Z</time>
      </trkpt>
      <trkpt lat="45.09135" lon="6.1493">
        <ele>1942.3</ele>
        <time>2026-08-25T10:02:32Z</time>
      </trkpt>
      <trkpt lat="45.09135" lon="6.14929">
        <ele>1942.4</ele>
        <time>2026-08-25T10:02:33Z</time>
      </trkpt>
      <trkpt lat="45.09134" lon="6.14927">
        <ele>1942.6</ele>
        <time>2026-08-25T10:02:34Z</time>
      </trkpt>
      <trkpt lat="45.09132" lon="6.14925">
        <ele>1942.8</ele>
        <time>2026-08-25T10:02:35Z</time>
      </trkpt>
      <trkpt lat="45.09131" lon="6.14924">
        <ele>1943</ele>
        <time>2026-08-25T10:02:36Z</time>
      </trkpt>
      <trkpt lat="45.0913" lon="6.14923">
        <ele>1943.2</ele>
        <time>2026-08-25T10:02:37Z</time>
      </trkpt>
      <trkpt lat="45.09129" lon="6.14921">
        <ele>1943.4</ele>
        <time>2026-08-25T10:02:38Z</time>
      </trkpt>
      <trkpt lat="45.09127" lon="6.1492">
        <ele>1943.6</ele>
        <time>2026-08-25T10:02:39Z</time>
      </trkpt>
      <trkpt lat="45.09126" lon="6.14919">
        <ele>1943.8</ele>
        <time>2026-08-25T10:02:40Z</time>
      </trkpt>
      <trkpt lat="45.09125" lon="6.14917">
        <ele>1943.9</ele>
        <time>2026-08-25T10:02:41Z</time>
      </trkpt>
      <trkpt lat="45.09124" lon="6.14916">
        <ele>1944.1</ele>
        <time>2026-08-25T10:02:42Z</time>
      </trkpt>
      <trkpt lat="45.09123" lon="6.14915">
        <ele>1944.3</ele>
        <time>2026-08-25T10:02:43Z</time>
      </trkpt>
      <trkpt lat="45.09121" lon="6.14914">
        <ele>1944.5</ele>
        <time>2026-08-25T10:02:44Z</time>
      </trkpt>
      <trkpt lat="45.0912" lon="6.14913">
        <ele>1944.6</ele>
        <time>2026-08-25T10:02:45Z</time>
      </trkpt>
      <trkpt lat="45.09119" lon="6.14912">
        <ele>1944.8</ele>
        <time>2026-08-25T10:02:46Z</time>
      </trkpt>
      <trkpt lat="45.09119" lon="6.1491">
        <ele>1944.9</ele>
        <time>2026-08-25T10:02:47Z</time>
      </trkpt>
      <trkpt lat="45.09119" lon="6.14909">
        <ele>1945.1</ele>
        <time>2026-08-25T10:02:48Z</time>
      </trkpt>
      <trkpt lat="45.09118" lon="6.14908">
        <ele>1945.2</ele>
        <time>2026-08-25T10:02:49Z</time>
      </trkpt>
      <trkpt lat="45.09116" lon="6.14908">
        <ele>1945.3</ele>
        <time>2026-08-25T10:02:50Z</time>
      </trkpt>
      <trkpt lat="45.09116" lon="6.14909">
        <ele>1945.5</ele>
        <time>2026-08-25T10:02:51Z</time>
      </trkpt>
      <trkpt lat="45.09114" lon="6.1491">
        <ele>1945.6</ele>
        <time>2026-08-25T10:02:52Z</time>
      </trkpt>
      <trkpt lat="45.09113" lon="6.1491">
        <ele>1945.7</ele>
        <time>2026-08-25T10:02:53Z</time>
      </trkpt>
      <trkpt lat="45.09113" lon="6.14909">
        <ele>1945.7</ele>
        <time>2026-08-25T10:02:54Z</time>
      </trkpt>
      <trkpt lat="45.09112" lon="6.14907">
        <ele>1945.9</ele>
        <time>2026-08-25T10:03:11Z</time>
      </trkpt>
      <trkpt lat="45.09111" lon="6.14906">
        <ele>1946</ele>
        <time>2026-08-25T10:03:12Z</time>
      </trkpt>
      <trkpt lat="45.0911" lon="6.14905">
        <ele>1946.2</ele>
        <time>2026-08-25T10:03:13Z</time>
      </trkpt>
      <trkpt lat="45.09108" lon="6.14903">
        <ele>1946.4</ele>
        <time>2026-08-25T10:03:14Z</time>
      </trkpt>
      <trkpt lat="45.09106" lon="6.14902">
        <ele>1946.6</ele>
        <time>2026-08-25T10:03:15Z</time>
      </trkpt>
      <trkpt lat="45.09104" lon="6.149">
        <ele>1946.9</ele>
        <time>2026-08-25T10:03:16Z</time>
      </trkpt>
      <trkpt lat="45.09101" lon="6.14898">
        <ele>1947.1</ele>
        <time>2026-08-25T10:03:17Z</time>
      </trkpt>
      <trkpt lat="45.09098" lon="6.14897">
        <ele>1947.4</ele>
        <time>2026-08-25T10:03:18Z</time>
      </trkpt>
      <trkpt lat="45.09095" lon="6.14897">
        <ele>1947.6</ele>
        <time>2026-08-25T10:03:19Z</time>
      </trkpt>
      <trkpt lat="45.09092" lon="6.14897">
        <ele>1947.9</ele>
        <time>2026-08-25T10:03:20Z</time>
      </trkpt>
      <trkpt lat="45.09089" lon="6.14897">
        <ele>1948.1</ele>
        <time>2026-08-25T10:03:21Z</time>
      </trkpt>
      <trkpt lat="45.09086" lon="6.14898">
        <ele>1948.3</ele>
        <time>2026-08-25T10:03:22Z</time>
      </trkpt>
      <trkpt lat="45.09083" lon="6.14899">
        <ele>1948.6</ele>
        <time>2026-08-25T10:03:23Z</time>
      </trkpt>
      <trkpt lat="45.0908" lon="6.149">
        <ele>1948.8</ele>
        <time>2026-08-25T10:03:24Z</time>
      </trkpt>
      <trkpt lat="45.09078" lon="6.14902">
        <ele>1949</ele>
        <time>2026-08-25T10:03:25Z</time>
      </trkpt>
      <trkpt lat="45.09075" lon="6.14903">
        <ele>1949.3</ele>
        <time>2026-08-25T10:03:26Z</time>
      </trkpt>
      <trkpt lat="45.09072" lon="6.14905">
        <ele>1949.5</ele>
        <time>2026-08-25T10:03:27Z</time>
      </trkpt>
      <trkpt lat="45.09068" lon="6.14908">
        <ele>1949.8</ele>
        <time>2026-08-25T10:03:28Z</time>
      </trkpt>
      <trkpt lat="45.09065" lon="6.14909">
        <ele>1950.1</ele>
        <time>2026-08-25T10:03:29Z</time>
      </trkpt>
      <trkpt lat="45.09062" lon="6.1491">
        <ele>1950.4</ele>
        <time>2026-08-25T10:03:30Z</time>
      </trkpt>
      <trkpt lat="45.09058" lon="6.1491">
        <ele>1950.7</ele>
        <time>2026-08-25T10:03:31Z</time>
      </trkpt>
      <trkpt lat="45.09055" lon="6.14911">
        <ele>1950.9</ele>
        <time>2026-08-25T10:03:32Z</time>
      </trkpt>
      <trkpt lat="45.09051" lon="6.14912">
        <ele>1951.3</ele>
        <time>2026-08-25T10:03:33Z</time>
      </trkpt>
      <trkpt lat="45.09048" lon="6.14912">
        <ele>1951.6</ele>
        <time>2026-08-25T10:03:34Z</time>
      </trkpt>
      <trkpt lat="45.09044" lon="6.14914">
        <ele>1952</ele>
        <time>2026-08-25T10:03:35Z</time>
      </trkpt>
      <trkpt lat="45.09041" lon="6.14915">
        <ele>1952.3</ele>
        <time>2026-08-25T10:03:36Z</time>
      </trkpt>
      <trkpt lat="45.09038" lon="6.14916">
        <ele>1952.6</ele>
        <time>2026-08-25T10:03:37Z</time>
      </trkpt>
      <trkpt lat="45.09034" lon="6.14917">
        <ele>1952.9</ele>
        <time>2026-08-25T10:03:38Z</time>
      </trkpt>
      <trkpt lat="45.09031" lon="6.14918">
        <ele>1953.3</ele>
        <time>2026-08-25T10:03:39Z</time>
      </trkpt>
      <trkpt lat="45.09028" lon="6.1492">
        <ele>1953.6</ele>
        <time>2026-08-25T10:03:40Z</time>
      </trkpt>
      <trkpt lat="45.09026" lon="6.14921">
        <ele>1953.9</ele>
        <time>2026-08-25T10:03:41Z</time>
      </trkpt>
      <trkpt lat="45.09024" lon="6.14923">
        <ele>1954.1</ele>
        <time>2026-08-25T10:03:42Z</time>
      </trkpt>
      <trkpt lat="45.09023" lon="6.14925">
        <ele>1954.4</ele>
        <time>2026-08-25T10:03:43Z</time>
      </trkpt>
      <trkpt lat="45.09022" lon="6.14927">
        <ele>1954.6</ele>
        <time>2026-08-25T10:03:44Z</time>
      </trkpt>
      <trkpt lat="45.0902" lon="6.14929">
        <ele>1954.8</ele>
        <time>2026-08-25T10:03:45Z</time>
      </trkpt>
      <trkpt lat="45.09019" lon="6.14931">
        <ele>1955</ele>
        <time>2026-08-25T10:03:46Z</time>
      </trkpt>
      <trkpt lat="45.09018" lon="6.14933">
        <ele>1955.2</ele>
        <time>2026-08-25T10:03:47Z</time>
      </trkpt>
      <trkpt lat="45.09016" lon="6.14935">
        <ele>1955.5</ele>
        <time>2026-08-25T10:03:48Z</time>
      </trkpt>
      <trkpt lat="45.09016" lon="6.14937">
        <ele>1955.7</ele>
        <time>2026-08-25T10:03:49Z</time>
      </trkpt>
      <trkpt lat="45.09015" lon="6.14939">
        <ele>1955.9</ele>
        <time>2026-08-25T10:03:50Z</time>
      </trkpt>
      <trkpt lat="45.09014" lon="6.14941">
        <ele>1956.1</ele>
        <time>2026-08-25T10:03:51Z</time>
      </trkpt>
      <trkpt lat="45.09013" lon="6.14944">
        <ele>1956.4</ele>
        <time>2026-08-25T10:03:52Z</time>
      </trkpt>
      <trkpt lat="45.09011" lon="6.14946">
        <ele>1956.7</ele>
        <time>2026-08-25T10:03:53Z</time>
      </trkpt>
      <trkpt lat="45.0901" lon="6.14947">
        <ele>1956.9</ele>
        <time>2026-08-25T10:03:54Z</time>
      </trkpt>
      <trkpt lat="45.09008" lon="6.14949">
        <ele>1957.1</ele>
        <time>2026-08-25T10:03:55Z</time>
      </trkpt>
      <trkpt lat="45.09006" lon="6.14951">
        <ele>1957.4</ele>
        <time>2026-08-25T10:03:56Z</time>
      </trkpt>
      <trkpt lat="45.09005" lon="6.14952">
        <ele>1957.7</ele>
        <time>2026-08-25T10:03:57Z</time>
      </trkpt>
      <trkpt lat="45.09003" lon="6.14953">
        <ele>1957.9</ele>
        <time>2026-08-25T10:03:58Z</time>
      </trkpt>
      <trkpt lat="45.09001" lon="6.14953">
        <ele>1958.1</ele>
        <time>2026-08-25T10:03:59Z</time>
      </trkpt>
      <trkpt lat="45.08999" lon="6.14952">
        <ele>1958.4</ele>
        <time>2026-08-25T10:04:00Z</time>
      </trkpt>
      <trkpt lat="45.08997" lon="6.14952">
        <ele>1958.7</ele>
        <time>2026-08-25T10:04:01Z</time>
      </trkpt>
      <trkpt lat="45.08996" lon="6.1495">
        <ele>1958.9</ele>
        <time>2026-08-25T10:04:02Z</time>
      </trkpt>
      <trkpt lat="45.08994" lon="6.14948">
        <ele>1959.2</ele>
        <time>2026-08-25T10:04:03Z</time>
      </trkpt>
      <trkpt lat="45.08993" lon="6.14946">
        <ele>1959.5</ele>
        <time>2026-08-25T10:04:04Z</time>
      </trkpt>
      <trkpt lat="45.08993" lon="6.14943">
        <ele>1959.7</ele>
        <time>2026-08-25T10:04:05Z</time>
      </trkpt>
      <trkpt lat="45.08993" lon="6.14941">
        <ele>1959.9</ele>
        <time>2026-08-25T10:04:06Z</time>
      </trkpt>
      <trkpt lat="45.08994" lon="6.14938">
        <ele>1960.2</ele>
        <time>2026-08-25T10:04:07Z</time>
      </trkpt>
      <trkpt lat="45.08995" lon="6.14936">
        <ele>1960.4</ele>
        <time>2026-08-25T10:04:08Z</time>
      </trkpt>
      <trkpt lat="45.08996" lon="6.14934">
        <ele>1960.6</ele>
        <time>2026-08-25T10:04:09Z</time>
      </trkpt>
      <trkpt lat="45.08997" lon="6.14931">
        <ele>1960.9</ele>
        <time>2026-08-25T10:04:10Z</time>
      </trkpt>
      <trkpt lat="45.08997" lon="6.14929">
        <ele>1961.1</ele>
        <time>2026-08-25T10:04:11Z</time>
      </trkpt>
      <trkpt lat="45.08998" lon="6.14926">
        <ele>1961.3</ele>
        <time>2026-08-25T10:04:12Z</time>
      </trkpt>
      <trkpt lat="45.08999" lon="6.14925">
        <ele>1961.5</ele>
        <time>2026-08-25T10:04:13Z</time>
      </trkpt>
      <trkpt lat="45.09001" lon="6.14923">
        <ele>1961.7</ele>
        <time>2026-08-25T10:04:14Z</time>
      </trkpt>
      <trkpt lat="45.09002" lon="6.14921">
        <ele>1961.9</ele>
        <time>2026-08-25T10:04:15Z</time>
      </trkpt>
      <trkpt lat="45.09003" lon="6.14919">
        <ele>1962.2</ele>
        <time>2026-08-25T10:04:16Z</time>
      </trkpt>
      <trkpt lat="45.09004" lon="6.14917">
        <ele>1962.4</ele>
        <time>2026-08-25T10:04:17Z</time>
      </trkpt>
      <trkpt lat="45.09005" lon="6.14916">
        <ele>1962.5</ele>
        <time>2026-08-25T10:04:18Z</time>
      </trkpt>
      <trkpt lat="45.09007" lon="6.14914">
        <ele>1962.7</ele>
        <time>2026-08-25T10:04:19Z</time>
      </trkpt>
      <trkpt lat="45.09008" lon="6.14913">
        <ele>1962.9</ele>
        <time>2026-08-25T10:04:20Z</time>
      </trkpt>
      <trkpt lat="45.09009" lon="6.14911">
        <ele>1963.1</ele>
        <time>2026-08-25T10:04:21Z</time>
      </trkpt>
      <trkpt lat="45.0901" lon="6.14909">
        <ele>1963.4</ele>
        <time>2026-08-25T10:04:22Z</time>
      </trkpt>
      <trkpt lat="45.09012" lon="6.14907">
        <ele>1963.6</ele>
        <time>2026-08-25T10:04:23Z</time>
      </trkpt>
      <trkpt lat="45.09013" lon="6.14905">
        <ele>1963.8</ele>
        <time>2026-08-25T10:04:24Z</time>
      </trkpt>
      <trkpt lat="45.09014" lon="6.14903">
        <ele>1964.1</ele>
        <time>2026-08-25T10:04:25Z</time>
      </trkpt>
      <trkpt lat="45.09016" lon="6.14901">
        <ele>1964.3</ele>
        <time>2026-08-25T10:04:26Z</time>
      </trkpt>
      <trkpt lat="45.09018" lon="6.14899">
        <ele>1964.6</ele>
        <time>2026-08-25T10:04:27Z</time>
      </trkpt>
      <trkpt lat="45.09019" lon="6.14898">
        <ele>1964.8</ele>
        <time>2026-08-25T10:04:28Z</time>
      </trkpt>
      <trkpt lat="45.09021" lon="6.14896">
        <ele>1965</ele>
        <time>2026-08-25T10:04:29Z</time>
      </trkpt>
      <trkpt lat="45.09022" lon="6.14895">
        <ele>1965.2</ele>
        <time>2026-08-25T10:04:30Z</time>
      </trkpt>
      <trkpt lat="45.09024" lon="6.14893">
        <ele>1965.5</ele>
        <time>2026-08-25T10:04:31Z</time>
      </trkpt>
      <trkpt lat="45.09026" lon="6.14891">
        <ele>1965.7</ele>
        <time>2026-08-25T10:04:32Z</time>
      </trkpt>
      <trkpt lat="45.09027" lon="6.1489">
        <ele>1965.9</ele>
        <time>2026-08-25T10:04:33Z</time>
      </trkpt>
      <trkpt lat="45.09029" lon="6.14889">
        <ele>1966.1</ele>
        <time>2026-08-25T10:04:34Z</time>
      </trkpt>
      <trkpt lat="45.0903" lon="6.14888">
        <ele>1966.3</ele>
        <time>2026-08-25T10:04:35Z</time>
      </trkpt>
      <trkpt lat="45.09032" lon="6.14887">
        <ele>1966.5</ele>
        <time>2026-08-25T10:04:36Z</time>
      </trkpt>
      <trkpt lat="45.09033" lon="6.14885">
        <ele>1966.7</ele>
        <time>2026-08-25T10:04:37Z</time>
      </trkpt>
      <trkpt lat="45.09034" lon="6.14884">
        <ele>1966.9</ele>
        <time>2026-08-25T10:04:38Z</time>
      </trkpt>
      <trkpt lat="45.09036" lon="6.14884">
        <ele>1967</ele>
        <time>2026-08-25T10:04:39Z</time>
      </trkpt>
      <trkpt lat="45.09037" lon="6.14883">
        <ele>1967.2</ele>
        <time>2026-08-25T10:04:40Z</time>
      </trkpt>
      <trkpt lat="45.09039" lon="6.14882">
        <ele>1967.4</ele>
        <time>2026-08-25T10:04:41Z</time>
      </trkpt>
      <trkpt lat="45.0904" lon="6.14881">
        <ele>1967.6</ele>
        <time>2026-08-25T10:04:42Z</time>
      </trkpt>
      <trkpt lat="45.09042" lon="6.14879">
        <ele>1967.8</ele>
        <time>2026-08-25T10:04:43Z</time>
      </trkpt>
      <trkpt lat="45.09043" lon="6.14876">
        <ele>1968.1</ele>
        <time>2026-08-25T10:04:44Z</time>
      </trkpt>
      <trkpt lat="45.09044" lon="6.14873">
        <ele>1968.3</ele>
        <time>2026-08-25T10:04:45Z</time>
      </trkpt>
      <trkpt lat="45.09044" lon="6.1487">
        <ele>1968.6</ele>
        <time>2026-08-25T10:04:46Z</time>
      </trkpt>
      <trkpt lat="45.09042" lon="6.14868">
        <ele>1968.8</ele>
        <time>2026-08-25T10:04:47Z</time>
      </trkpt>
      <trkpt lat="45.0904" lon="6.14867">
        <ele>1969</ele>
        <time>2026-08-25T10:04:48Z</time>
      </trkpt>
      <trkpt lat="45.09039" lon="6.14865">
        <ele>1969.2</ele>
        <time>2026-08-25T10:04:49Z</time>
      </trkpt>
      <trkpt lat="45.09036" lon="6.14864">
        <ele>1969.4</ele>
        <time>2026-08-25T10:04:50Z</time>
      </trkpt>
      <trkpt lat="45.09034" lon="6.14865">
        <ele>1969.5</ele>
        <time>2026-08-25T10:04:51Z</time>
      </trkpt>
      <trkpt lat="45.09033" lon="6.14865">
        <ele>1969.7</ele>
        <time>2026-08-25T10:04:52Z</time>
      </trkpt>
      <trkpt lat="45.09031" lon="6.14866">
        <ele>1969.8</ele>
        <time>2026-08-25T10:04:53Z</time>
      </trkpt>
      <trkpt lat="45.09029" lon="6.14868">
        <ele>1970</ele>
        <time>2026-08-25T10:04:54Z</time>
      </trkpt>
      <trkpt lat="45.09027" lon="6.14869">
        <ele>1970.1</ele>
        <time>2026-08-25T10:04:55Z</time>
      </trkpt>
      <trkpt lat="45.09026" lon="6.1487">
        <ele>1970.3</ele>
        <time>2026-08-25T10:04:56Z</time>
      </trkpt>
      <trkpt lat="45.09024" lon="6.14872">
        <ele>1970.4</ele>
        <time>2026-08-25T10:04:57Z</time>
      </trkpt>
      <trkpt lat="45.09022" lon="6.14873">
        <ele>1970.5</ele>
        <time>2026-08-25T10:04:58Z</time>
      </trkpt>
      <trkpt lat="45.09021" lon="6.14874">
        <ele>1970.7</ele>
        <time>2026-08-25T10:04:59Z</time>
      </trkpt>
      <trkpt lat="45.09019" lon="6.14875">
        <ele>1970.8</ele>
        <time>2026-08-25T10:05:00Z</time>
      </trkpt>
      <trkpt lat="45.09018" lon="6.14876">
        <ele>1971</ele>
        <time>2026-08-25T10:05:01Z</time>
      </trkpt>
      <trkpt lat="45.09016" lon="6.14877">
        <ele>1971.1</ele>
        <time>2026-08-25T10:05:02Z</time>
      </trkpt>
      <trkpt lat="45.09014" lon="6.14878">
        <ele>1971.3</ele>
        <time>2026-08-25T10:05:03Z</time>
      </trkpt>
      <trkpt lat="45.09012" lon="6.1488">
        <ele>1971.4</ele>
        <time>2026-08-25T10:05:04Z</time>
      </trkpt>
      <trkpt lat="45.0901" lon="6.14881">
        <ele>1971.6</ele>
        <time>2026-08-25T10:05:05Z</time>
      </trkpt>
      <trkpt lat="45.09008" lon="6.14882">
        <ele>1971.8</ele>
        <time>2026-08-25T10:05:06Z</time>
      </trkpt>
      <trkpt lat="45.09006" lon="6.14884">
        <ele>1972</ele>
        <time>2026-08-25T10:05:07Z</time>
      </trkpt>
      <trkpt lat="45.09004" lon="6.14886">
        <ele>1972.2</ele>
        <time>2026-08-25T10:05:08Z</time>
      </trkpt>
      <trkpt lat="45.09002" lon="6.14887">
        <ele>1972.4</ele>
        <time>2026-08-25T10:05:09Z</time>
      </trkpt>
      <trkpt lat="45.09" lon="6.14888">
        <ele>1972.6</ele>
        <time>2026-08-25T10:05:10Z</time>
      </trkpt>
      <trkpt lat="45.08997" lon="6.14889">
        <ele>1972.8</ele>
        <time>2026-08-25T10:05:11Z</time>
      </trkpt>
      <trkpt lat="45.08995" lon="6.14891">
        <ele>1973</ele>
        <time>2026-08-25T10:05:12Z</time>
      </trkpt>
      <trkpt lat="45.08993" lon="6.14893">
        <ele>1973.2</ele>
        <time>2026-08-25T10:05:13Z</time>
      </trkpt>
      <trkpt lat="45.08991" lon="6.14894">
        <ele>1973.4</ele>
        <time>2026-08-25T10:05:14Z</time>
      </trkpt>
      <trkpt lat="45.08989" lon="6.14896">
        <ele>1973.6</ele>
        <time>2026-08-25T10:05:15Z</time>
      </trkpt>
      <trkpt lat="45.08987" lon="6.14897">
        <ele>1973.9</ele>
        <time>2026-08-25T10:05:16Z</time>
      </trkpt>
      <trkpt lat="45.08985" lon="6.14899">
        <ele>1974.1</ele>
        <time>2026-08-25T10:05:17Z</time>
      </trkpt>
      <trkpt lat="45.08983" lon="6.14901">
        <ele>1974.3</ele>
        <time>2026-08-25T10:05:18Z</time>
      </trkpt>
      <trkpt lat="45.08981" lon="6.14902">
        <ele>1974.6</ele>
        <time>2026-08-25T10:05:19Z</time>
      </trkpt>
      <trkpt lat="45.08979" lon="6.14904">
        <ele>1974.8</ele>
        <time>2026-08-25T10:05:20Z</time>
      </trkpt>
      <trkpt lat="45.08977" lon="6.14906">
        <ele>1975</ele>
        <time>2026-08-25T10:05:21Z</time>
      </trkpt>
      <trkpt lat="45.08975" lon="6.14908">
        <ele>1975.2</ele>
        <time>2026-08-25T10:05:22Z</time>
      </trkpt>
      <trkpt lat="45.08974" lon="6.1491">
        <ele>1975.5</ele>
        <time>2026-08-25T10:05:23Z</time>
      </trkpt>
      <trkpt lat="45.08972" lon="6.14911">
        <ele>1975.7</ele>
        <time>2026-08-25T10:05:24Z</time>
      </trkpt>
      <trkpt lat="45.0897" lon="6.14913">
        <ele>1975.9</ele>
        <time>2026-08-25T10:05:25Z</time>
      </trkpt>
      <trkpt lat="45.08968" lon="6.14915">
        <ele>1976.1</ele>
        <time>2026-08-25T10:05:26Z</time>
      </trkpt>
      <trkpt lat="45.08966" lon="6.14916">
        <ele>1976.4</ele>
        <time>2026-08-25T10:05:27Z</time>
      </trkpt>
      <trkpt lat="45.08964" lon="6.14918">
        <ele>1976.6</ele>
        <time>2026-08-25T10:05:28Z</time>
      </trkpt>
      <trkpt lat="45.08962" lon="6.1492">
        <ele>1976.8</ele>
        <time>2026-08-25T10:05:29Z</time>
      </trkpt>
      <trkpt lat="45.0896" lon="6.14921">
        <ele>1977</ele>
        <time>2026-08-25T10:05:30Z</time>
      </trkpt>
      <trkpt lat="45.08958" lon="6.14923">
        <ele>1977.3</ele>
        <time>2026-08-25T10:05:31Z</time>
      </trkpt>
      <trkpt lat="45.08956" lon="6.14923">
        <ele>1977.4</ele>
        <time>2026-08-25T10:05:32Z</time>
      </trkpt>
      <trkpt lat="45.08954" lon="6.14924">
        <ele>1977.6</ele>
        <time>2026-08-25T10:05:33Z</time>
      </trkpt>
      <trkpt lat="45.08952" lon="6.14924">
        <ele>1977.8</ele>
        <time>2026-08-25T10:05:34Z</time>
      </trkpt>
      <trkpt lat="45.0895" lon="6.14925">
        <ele>1978.1</ele>
        <time>2026-08-25T10:05:35Z</time>
      </trkpt>
      <trkpt lat="45.08947" lon="6.14925">
        <ele>1978.3</ele>
        <time>2026-08-25T10:05:36Z</time>
      </trkpt>
      <trkpt lat="45.08945" lon="6.14925">
        <ele>1978.5</ele>
        <time>2026-08-25T10:05:37Z</time>
      </trkpt>
      <trkpt lat="45.08943" lon="6.14924">
        <ele>1978.7</ele>
        <time>2026-08-25T10:05:38Z</time>
      </trkpt>
      <trkpt lat="45.0894" lon="6.14923">
        <ele>1978.9</ele>
        <time>2026-08-25T10:05:39Z</time>
      </trkpt>
      <trkpt lat="45.08938" lon="6.14922">
        <ele>1979.1</ele>
        <time>2026-08-25T10:05:40Z</time>
      </trkpt>
      <trkpt lat="45.08936" lon="6.14921">
        <ele>1979.3</ele>
        <time>2026-08-25T10:05:41Z</time>
      </trkpt>
      <trkpt lat="45.08933" lon="6.1492">
        <ele>1979.6</ele>
        <time>2026-08-25T10:05:42Z</time>
      </trkpt>
      <trkpt lat="45.08931" lon="6.14919">
        <ele>1979.7</ele>
        <time>2026-08-25T10:05:43Z</time>
      </trkpt>
      <trkpt lat="45.08928" lon="6.14918">
        <ele>1979.9</ele>
        <time>2026-08-25T10:05:44Z</time>
      </trkpt>
      <trkpt lat="45.08926" lon="6.14918">
        <ele>1980.1</ele>
        <time>2026-08-25T10:05:45Z</time>
      </trkpt>
      <trkpt lat="45.08924" lon="6.14917">
        <ele>1980.3</ele>
        <time>2026-08-25T10:05:46Z</time>
      </trkpt>
      <trkpt lat="45.08922" lon="6.14917">
        <ele>1980.4</ele>
        <time>2026-08-25T10:05:47Z</time>
      </trkpt>
      <trkpt lat="45.08919" lon="6.14917">
        <ele>1980.6</ele>
        <time>2026-08-25T10:05:48Z</time>
      </trkpt>
      <trkpt lat="45.08917" lon="6.14917">
        <ele>1980.8</ele>
        <time>2026-08-25T10:05:49Z</time>
      </trkpt>
      <trkpt lat="45.08915" lon="6.14917">
        <ele>1980.9</ele>
        <time>2026-08-25T10:05:50Z</time>
      </trkpt>
      <trkpt lat="45.08913" lon="6.14917">
        <ele>1981.1</ele>
        <time>2026-08-25T10:05:51Z</time>
      </trkpt>
      <trkpt lat="45.08911" lon="6.14917">
        <ele>1981.3</ele>
        <time>2026-08-25T10:05:52Z</time>
      </trkpt>
      <trkpt lat="45.08908" lon="6.14917">
        <ele>1981.4</ele>
        <time>2026-08-25T10:05:53Z</time>
      </trkpt>
      <trkpt lat="45.08906" lon="6.14917">
        <ele>1981.6</ele>
        <time>2026-08-25T10:05:54Z</time>
      </trkpt>
      <trkpt lat="45.08904" lon="6.14918">
        <ele>1981.7</ele>
        <time>2026-08-25T10:05:55Z</time>
      </trkpt>
      <trkpt lat="45.08902" lon="6.14919">
        <ele>1981.9</ele>
        <time>2026-08-25T10:05:56Z</time>
      </trkpt>
      <trkpt lat="45.089" lon="6.1492">
        <ele>1982.1</ele>
        <time>2026-08-25T10:05:57Z</time>
      </trkpt>
      <trkpt lat="45.08897" lon="6.14921">
        <ele>1982.3</ele>
        <time>2026-08-25T10:05:58Z</time>
      </trkpt>
      <trkpt lat="45.08895" lon="6.14923">
        <ele>1982.4</ele>
        <time>2026-08-25T10:05:59Z</time>
      </trkpt>
      <trkpt lat="45.08893" lon="6.14925">
        <ele>1982.6</ele>
        <time>2026-08-25T10:06:00Z</time>
      </trkpt>
      <trkpt lat="45.08892" lon="6.14926">
        <ele>1982.7</ele>
        <time>2026-08-25T10:06:01Z</time>
      </trkpt>
      <trkpt lat="45.0889" lon="6.14928">
        <ele>1982.9</ele>
        <time>2026-08-25T10:06:02Z</time>
      </trkpt>
      <trkpt lat="45.08888" lon="6.1493">
        <ele>1983.1</ele>
        <time>2026-08-25T10:06:03Z</time>
      </trkpt>
      <trkpt lat="45.08887" lon="6.14932">
        <ele>1983.3</ele>
        <time>2026-08-25T10:06:04Z</time>
      </trkpt>
      <trkpt lat="45.08885" lon="6.14934">
        <ele>1983.4</ele>
        <time>2026-08-25T10:06:05Z</time>
      </trkpt>
      <trkpt lat="45.08883" lon="6.14936">
        <ele>1983.6</ele>
        <time>2026-08-25T10:06:06Z</time>
      </trkpt>
      <trkpt lat="45.08881" lon="6.14937">
        <ele>1983.7</ele>
        <time>2026-08-25T10:06:07Z</time>
      </trkpt>
      <trkpt lat="45.08879" lon="6.14938">
        <ele>1983.9</ele>
        <time>2026-08-25T10:06:08Z</time>
      </trkpt>
      <trkpt lat="45.08877" lon="6.14939">
        <ele>1984.1</ele>
        <time>2026-08-25T10:06:09Z</time>
      </trkpt>
      <trkpt lat="45.08875" lon="6.1494">
        <ele>1984.2</ele>
        <time>2026-08-25T10:06:10Z</time>
      </trkpt>
      <trkpt lat="45.08872" lon="6.1494">
        <ele>1984.4</ele>
        <time>2026-08-25T10:06:11Z</time>
      </trkpt>
      <trkpt lat="45.08869" lon="6.14941">
        <ele>1984.7</ele>
        <time>2026-08-25T10:06:12Z</time>
      </trkpt>
      <trkpt lat="45.08867" lon="6.14941">
        <ele>1984.9</ele>
        <time>2026-08-25T10:06:13Z</time>
      </trkpt>
      <trkpt lat="45.08864" lon="6.14941">
        <ele>1985.1</ele>
        <time>2026-08-25T10:06:14Z</time>
      </trkpt>
      <trkpt lat="45.08862" lon="6.1494">
        <ele>1985.3</ele>
        <time>2026-08-25T10:06:15Z</time>
      </trkpt>
      <trkpt lat="45.08859" lon="6.1494">
        <ele>1985.4</ele>
        <time>2026-08-25T10:06:16Z</time>
      </trkpt>
      <trkpt lat="45.08856" lon="6.14939">
        <ele>1985.7</ele>
        <time>2026-08-25T10:06:17Z</time>
      </trkpt>
      <trkpt lat="45.08854" lon="6.14939">
        <ele>1985.9</ele>
        <time>2026-08-25T10:06:18Z</time>
      </trkpt>
      <trkpt lat="45.08851" lon="6.14938">
        <ele>1986.1</ele>
        <time>2026-08-25T10:06:19Z</time>
      </trkpt>
      <trkpt lat="45.08849" lon="6.14938">
        <ele>1986.3</ele>
        <time>2026-08-25T10:06:20Z</time>
      </trkpt>
      <trkpt lat="45.08846" lon="6.14937">
        <ele>1986.5</ele>
        <time>2026-08-25T10:06:21Z</time>
      </trkpt>
      <trkpt lat="45.08844" lon="6.14937">
        <ele>1986.7</ele>
        <time>2026-08-25T10:06:22Z</time>
      </trkpt>
      <trkpt lat="45.08842" lon="6.14936">
        <ele>1987</ele>
        <time>2026-08-25T10:06:23Z</time>
      </trkpt>
      <trkpt lat="45.08839" lon="6.14935">
        <ele>1987.2</ele>
        <time>2026-08-25T10:06:24Z</time>
      </trkpt>
      <trkpt lat="45.08837" lon="6.14934">
        <ele>1987.5</ele>
        <time>2026-08-25T10:06:25Z</time>
      </trkpt>
      <trkpt lat="45.08835" lon="6.14933">
        <ele>1987.7</ele>
        <time>2026-08-25T10:06:26Z</time>
      </trkpt>
      <trkpt lat="45.08832" lon="6.14931">
        <ele>1988</ele>
        <time>2026-08-25T10:06:27Z</time>
      </trkpt>
      <trkpt lat="45.0883" lon="6.1493">
        <ele>1988.3</ele>
        <time>2026-08-25T10:06:28Z</time>
      </trkpt>
      <trkpt lat="45.08827" lon="6.14929">
        <ele>1988.6</ele>
        <time>2026-08-25T10:06:29Z</time>
      </trkpt>
      <trkpt lat="45.08825" lon="6.14927">
        <ele>1988.9</ele>
        <time>2026-08-25T10:06:30Z</time>
      </trkpt>
      <trkpt lat="45.08823" lon="6.14926">
        <ele>1989.2</ele>
        <time>2026-08-25T10:06:31Z</time>
      </trkpt>
      <trkpt lat="45.0882" lon="6.14925">
        <ele>1989.5</ele>
        <time>2026-08-25T10:06:32Z</time>
      </trkpt>
      <trkpt lat="45.08817" lon="6.14923">
        <ele>1989.8</ele>
        <time>2026-08-25T10:06:33Z</time>
      </trkpt>
      <trkpt lat="45.08814" lon="6.14922">
        <ele>1990.2</ele>
        <time>2026-08-25T10:06:34Z</time>
      </trkpt>
      <trkpt lat="45.08811" lon="6.1492">
        <ele>1990.5</ele>
        <time>2026-08-25T10:06:35Z</time>
      </trkpt>
      <trkpt lat="45.08809" lon="6.14919">
        <ele>1990.8</ele>
        <time>2026-08-25T10:06:36Z</time>
      </trkpt>
      <trkpt lat="45.08806" lon="6.14918">
        <ele>1991</ele>
        <time>2026-08-25T10:06:37Z</time>
      </trkpt>
      <trkpt lat="45.08803" lon="6.14916">
        <ele>1991.2</ele>
        <time>2026-08-25T10:06:38Z</time>
      </trkpt>
      <trkpt lat="45.088" lon="6.14916">
        <ele>1991.5</ele>
        <time>2026-08-25T10:06:39Z</time>
      </trkpt>
      <trkpt lat="45.08797" lon="6.14914">
        <ele>1991.7</ele>
        <time>2026-08-25T10:06:40Z</time>
      </trkpt>
      <trkpt lat="45.08794" lon="6.14913">
        <ele>1992</ele>
        <time>2026-08-25T10:06:41Z</time>
      </trkpt>
      <trkpt lat="45.08791" lon="6.14912">
        <ele>1992.2</ele>
        <time>2026-08-25T10:06:42Z</time>
      </trkpt>
      <trkpt lat="45.08787" lon="6.14911">
        <ele>1992.4</ele>
        <time>2026-08-25T10:06:43Z</time>
      </trkpt>
      <trkpt lat="45.08784" lon="6.1491">
        <ele>1992.6</ele>
        <time>2026-08-25T10:06:44Z</time>
      </trkpt>
      <trkpt lat="45.08781" lon="6.14909">
        <ele>1992.8</ele>
        <time>2026-08-25T10:06:45Z</time>
      </trkpt>
      <trkpt lat="45.08778" lon="6.14909">
        <ele>1993</ele>
        <time>2026-08-25T10:06:46Z</time>
      </trkpt>
      <trkpt lat="45.08775" lon="6.14908">
        <ele>1993.2</ele>
        <time>2026-08-25T10:06:47Z</time>
      </trkpt>
      <trkpt lat="45.08772" lon="6.14907">
        <ele>1993.3</ele>
        <time>2026-08-25T10:06:48Z</time>
      </trkpt>
      <trkpt lat="45.08769" lon="6.14907">
        <ele>1993.5</ele>
        <time>2026-08-25T10:06:49Z</time>
      </trkpt>
      <trkpt lat="45.08766" lon="6.14907">
        <ele>1993.6</ele>
        <time>2026-08-25T10:06:50Z</time>
      </trkpt>
      <trkpt lat="45.08763" lon="6.14907">
        <ele>1993.7</ele>
        <time>2026-08-25T10:06:51Z</time>
      </trkpt>
      <trkpt lat="45.0876" lon="6.14907">
        <ele>1993.8</ele>
        <time>2026-08-25T10:06:52Z</time>
      </trkpt>
      <trkpt lat="45.08758" lon="6.14907">
        <ele>1993.9</ele>
        <time>2026-08-25T10:06:53Z</time>
      </trkpt>
      <trkpt lat="45.08755" lon="6.14907">
        <ele>1993.9</ele>
        <time>2026-08-25T10:06:54Z</time>
      </trkpt>
      <trkpt lat="45.08752" lon="6.14907">
        <ele>1993.9</ele>
        <time>2026-08-25T10:06:55Z</time>
      </trkpt>
      <trkpt lat="45.08749" lon="6.14907">
        <ele>1993.8</ele>
        <time>2026-08-25T10:06:56Z</time>
      </trkpt>
      <trkpt lat="45.08746" lon="6.14907">
        <ele>1993.7</ele>
        <time>2026-08-25T10:06:57Z</time>
      </trkpt>
      <trkpt lat="45.08743" lon="6.14907">
        <ele>1993.5</ele>
        <time>2026-08-25T10:06:58Z</time>
      </trkpt>
      <trkpt lat="45.08739" lon="6.14908">
        <ele>1993.4</ele>
        <time>2026-08-25T10:06:59Z</time>
      </trkpt>
      <trkpt lat="45.08736" lon="6.14908">
        <ele>1993.2</ele>
        <time>2026-08-25T10:07:00Z</time>
      </trkpt>
      <trkpt lat="45.08733" lon="6.14908">
        <ele>1992.9</ele>
        <time>2026-08-25T10:07:01Z</time>
      </trkpt>
      <trkpt lat="45.08731" lon="6.14908">
        <ele>1992.5</ele>
        <time>2026-08-25T10:07:02Z</time>
      </trkpt>
      <trkpt lat="45.08728" lon="6.14907">
        <ele>1992.2</ele>
        <time>2026-08-25T10:07:03Z</time>
      </trkpt>
      <trkpt lat="45.08725" lon="6.14906">
        <ele>1991.9</ele>
        <time>2026-08-25T10:07:04Z</time>
      </trkpt>
      <trkpt lat="45.08723" lon="6.14906">
        <ele>1991.6</ele>
        <time>2026-08-25T10:07:05Z</time>
      </trkpt>
      <trkpt lat="45.08722" lon="6.14906">
        <ele>1991.4</ele>
        <time>2026-08-25T10:07:06Z</time>
      </trkpt>
      <trkpt lat="45.0872" lon="6.14907">
        <ele>1991.2</ele>
        <time>2026-08-25T10:07:07Z</time>
      </trkpt>
      <trkpt lat="45.08719" lon="6.14907">
        <ele>1991.1</ele>
        <time>2026-08-25T10:07:08Z</time>
      </trkpt>
      <trkpt lat="45.08719" lon="6.14907">
        <ele>1991.1</ele>
        <time>2026-08-25T10:07:09Z</time>
      </trkpt>
      <trkpt lat="45.08719" lon="6.14907">
        <ele>1991.1</ele>
        <time>2026-08-25T10:07:10Z</time>
      </trkpt>
      <trkpt lat="45.08715" lon="6.14905">
        <ele>1990.5</ele>
        <time>2026-08-25T10:12:27Z</time>
      </trkpt>
      <trkpt lat="45.08712" lon="6.14904">
        <ele>1990.1</ele>
        <time>2026-08-25T10:12:28Z</time>
      </trkpt>
      <trkpt lat="45.08709" lon="6.14902">
        <ele>1989.7</ele>
        <time>2026-08-25T10:12:29Z</time>
      </trkpt>
      <trkpt lat="45.08705" lon="6.149">
        <ele>1989.3</ele>
        <time>2026-08-25T10:12:30Z</time>
      </trkpt>
      <trkpt lat="45.08701" lon="6.14898">
        <ele>1988.8</ele>
        <time>2026-08-25T10:12:31Z</time>
      </trkpt>
      <trkpt lat="45.08697" lon="6.14896">
        <ele>1988.4</ele>
        <time>2026-08-25T10:12:32Z</time>
      </trkpt>
      <trkpt lat="45.08691" lon="6.14894">
        <ele>1987.9</ele>
        <time>2026-08-25T10:12:33Z</time>
      </trkpt>
      <trkpt lat="45.08686" lon="6.14892">
        <ele>1987.4</ele>
        <time>2026-08-25T10:12:34Z</time>
      </trkpt>
      <trkpt lat="45.08681" lon="6.14889">
        <ele>1987</ele>
        <time>2026-08-25T10:12:35Z</time>
      </trkpt>
      <trkpt lat="45.08676" lon="6.14886">
        <ele>1986.5</ele>
        <time>2026-08-25T10:12:36Z</time>
      </trkpt>
      <trkpt lat="45.08671" lon="6.14882">
        <ele>1986</ele>
        <time>2026-08-25T10:12:37Z</time>
      </trkpt>
      <trkpt lat="45.08666" lon="6.14877">
        <ele>1985.5</ele>
        <time>2026-08-25T10:12:38Z</time>
      </trkpt>
      <trkpt lat="45.08661" lon="6.14873">
        <ele>1985</ele>
        <time>2026-08-25T10:12:39Z</time>
      </trkpt>
      <trkpt lat="45.08655" lon="6.14868">
        <ele>1984.5</ele>
        <time>2026-08-25T10:12:40Z</time>
      </trkpt>
      <trkpt lat="45.08649" lon="6.14863">
        <ele>1984</ele>
        <time>2026-08-25T10:12:41Z</time>
      </trkpt>
      <trkpt lat="45.08643" lon="6.14858">
        <ele>1983.4</ele>
        <time>2026-08-25T10:12:42Z</time>
      </trkpt>
      <trkpt lat="45.08637" lon="6.14853">
        <ele>1982.8</ele>
        <time>2026-08-25T10:12:43Z</time>
      </trkpt>
      <trkpt lat="45.08631" lon="6.14847">
        <ele>1982.3</ele>
        <time>2026-08-25T10:12:44Z</time>
      </trkpt>
      <trkpt lat="45.08625" lon="6.14841">
        <ele>1981.8</ele>
        <time>2026-08-25T10:12:45Z</time>
      </trkpt>
      <trkpt lat="45.0862" lon="6.14835">
        <ele>1981.3</ele>
        <time>2026-08-25T10:12:46Z</time>
      </trkpt>
      <trkpt lat="45.08614" lon="6.14828">
        <ele>1980.8</ele>
        <time>2026-08-25T10:12:47Z</time>
      </trkpt>
      <trkpt lat="45.08609" lon="6.14821">
        <ele>1980.3</ele>
        <time>2026-08-25T10:12:48Z</time>
      </trkpt>
      <trkpt lat="45.08604" lon="6.14813">
        <ele>1979.7</ele>
        <time>2026-08-25T10:12:49Z</time>
      </trkpt>
      <trkpt lat="45.08599" lon="6.14806">
        <ele>1979.2</ele>
        <time>2026-08-25T10:12:50Z</time>
      </trkpt>
      <trkpt lat="45.08595" lon="6.14798">
        <ele>1978.8</ele>
        <time>2026-08-25T10:12:51Z</time>
      </trkpt>
      <trkpt lat="45.0859" lon="6.14791">
        <ele>1978.3</ele>
        <time>2026-08-25T10:12:52Z</time>
      </trkpt>
      <trkpt lat="45.08585" lon="6.14783">
        <ele>1977.9</ele>
        <time>2026-08-25T10:12:53Z</time>
      </trkpt>
      <trkpt lat="45.0858" lon="6.14777">
        <ele>1977.4</ele>
        <time>2026-08-25T10:12:54Z</time>
      </trkpt>
      <trkpt lat="45.08575" lon="6.14771">
        <ele>1976.9</ele>
        <time>2026-08-25T10:12:55Z</time>
      </trkpt>
      <trkpt lat="45.08569" lon="6.14765">
        <ele>1976.4</ele>
        <time>2026-08-25T10:12:56Z</time>
      </trkpt>
      <trkpt lat="45.08563" lon="6.14759">
        <ele>1975.9</ele>
        <time>2026-08-25T10:12:57Z</time>
      </trkpt>
      <trkpt lat="45.08557" lon="6.14753">
        <ele>1975.3</ele>
        <time>2026-08-25T10:12:58Z</time>
      </trkpt>
      <trkpt lat="45.0855" lon="6.14747">
        <ele>1974.7</ele>
        <time>2026-08-25T10:12:59Z</time>
      </trkpt>
      <trkpt lat="45.08544" lon="6.14742">
        <ele>1974.2</ele>
        <time>2026-08-25T10:13:00Z</time>
      </trkpt>
      <trkpt lat="45.08537" lon="6.14736">
        <ele>1973.7</ele>
        <time>2026-08-25T10:13:01Z</time>
      </trkpt>
      <trkpt lat="45.08531" lon="6.1473">
        <ele>1973.2</ele>
        <time>2026-08-25T10:13:02Z</time>
      </trkpt>
      <trkpt lat="45.08525" lon="6.14724">
        <ele>1972.7</ele>
        <time>2026-08-25T10:13:03Z</time>
      </trkpt>
      <trkpt lat="45.08519" lon="6.14718">
        <ele>1972.2</ele>
        <time>2026-08-25T10:13:04Z</time>
      </trkpt>
      <trkpt lat="45.08514" lon="6.14711">
        <ele>1971.7</ele>
        <time>2026-08-25T10:13:05Z</time>
      </trkpt>
      <trkpt lat="45.08508" lon="6.14704">
        <ele>1971.2</ele>
        <time>2026-08-25T10:13:06Z</time>
      </trkpt>
      <trkpt lat="45.08503" lon="6.14697">
        <ele>1970.7</ele>
        <time>2026-08-25T10:13:07Z</time>
      </trkpt>
      <trkpt lat="45.08498" lon="6.1469">
        <ele>1970.2</ele>
        <time>2026-08-25T10:13:08Z</time>
      </trkpt>
      <trkpt lat="45.08492" lon="6.14682">
        <ele>1969.7</ele>
        <time>2026-08-25T10:13:09Z</time>
      </trkpt>
      <trkpt lat="45.08487" lon="6.14674">
        <ele>1969.2</ele>
        <time>2026-08-25T10:13:10Z</time>
      </trkpt>
      <trkpt lat="45.08481" lon="6.14665">
        <ele>1968.6</ele>
        <time>2026-08-25T10:13:11Z</time>
      </trkpt>
      <trkpt lat="45.08476" lon="6.14657">
        <ele>1968.1</ele>
        <time>2026-08-25T10:13:12Z</time>
      </trkpt>
      <trkpt lat="45.0847" lon="6.14648">
        <ele>1967.6</ele>
        <time>2026-08-25T10:13:13Z</time>
      </trkpt>
      <trkpt lat="45.08465" lon="6.1464">
        <ele>1967</ele>
        <time>2026-08-25T10:13:14Z</time>
      </trkpt>
      <trkpt lat="45.08459" lon="6.14632">
        <ele>1966.5</ele>
        <time>2026-08-25T10:13:15Z</time>
      </trkpt>
      <trkpt lat="45.08453" lon="6.14623">
        <ele>1965.9</ele>
        <time>2026-08-25T10:13:16Z</time>
      </trkpt>
      <trkpt lat="45.08447" lon="6.14615">
        <ele>1965.4</ele>
        <time>2026-08-25T10:13:17Z</time>
      </trkpt>
      <trkpt lat="45.08441" lon="6.14606">
        <ele>1964.8</ele>
        <time>2026-08-25T10:13:18Z</time>
      </trkpt>
      <trkpt lat="45.08435" lon="6.14598">
        <ele>1964.2</ele>
        <time>2026-08-25T10:13:19Z</time>
      </trkpt>
      <trkpt lat="45.08428" lon="6.14589">
        <ele>1963.6</ele>
        <time>2026-08-25T10:13:20Z</time>
      </trkpt>
      <trkpt lat="45.08422" lon="6.1458">
        <ele>1963</ele>
        <time>2026-08-25T10:13:21Z</time>
      </trkpt>
      <trkpt lat="45.08416" lon="6.1457">
        <ele>1962.4</ele>
        <time>2026-08-25T10:13:22Z</time>
      </trkpt>
      <trkpt lat="45.0841" lon="6.14561">
        <ele>1961.9</ele>
        <time>2026-08-25T10:13:23Z</time>
      </trkpt>
      <trkpt lat="45.08404" lon="6.14551">
        <ele>1961.2</ele>
        <time>2026-08-25T10:13:24Z</time>
      </trkpt>
      <trkpt lat="45.08398" lon="6.14542">
        <ele>1960.6</ele>
        <time>2026-08-25T10:13:25Z</time>
      </trkpt>
      <trkpt lat="45.08392" lon="6.14531">
        <ele>1960</ele>
        <time>2026-08-25T10:13:26Z</time>
      </trkpt>
      <trkpt lat="45.08387" lon="6.14521">
        <ele>1959.3</ele>
        <time>2026-08-25T10:13:27Z</time>
      </trkpt>
      <trkpt lat="45.08381" lon="6.1451">
        <ele>1958.5</ele>
        <time>2026-08-25T10:13:28Z</time>
      </trkpt>
      <trkpt lat="45.08375" lon="6.14499">
        <ele>1957.7</ele>
        <time>2026-08-25T10:13:29Z</time>
      </trkpt>
      <trkpt lat="45.08369" lon="6.14488">
        <ele>1956.8</ele>
        <time>2026-08-25T10:13:30Z</time>
      </trkpt>
      <trkpt lat="45.08362" lon="6.14477">
        <ele>1955.9</ele>
        <time>2026-08-25T10:13:31Z</time>
      </trkpt>
      <trkpt lat="45.08356" lon="6.14466">
        <ele>1955</ele>
        <time>2026-08-25T10:13:32Z</time>
      </trkpt>
      <trkpt lat="45.08349" lon="6.14454">
        <ele>1954</ele>
        <time>2026-08-25T10:13:33Z</time>
      </trkpt>
      <trkpt lat="45.08343" lon="6.14443">
        <ele>1952.9</ele>
        <time>2026-08-25T10:13:34Z</time>
      </trkpt>
      <trkpt lat="45.08335" lon="6.14431">
        <ele>1951.8</ele>
        <time>2026-08-25T10:13:35Z</time>
      </trkpt>
      <trkpt lat="45.08328" lon="6.1442">
        <ele>1950.7</ele>
        <time>2026-08-25T10:13:36Z</time>
      </trkpt>
      <trkpt lat="45.0832" lon="6.14408">
        <ele>1949.4</ele>
        <time>2026-08-25T10:13:37Z</time>
      </trkpt>
      <trkpt lat="45.08311" lon="6.14396">
        <ele>1948.2</ele>
        <time>2026-08-25T10:13:38Z</time>
      </trkpt>
      <trkpt lat="45.08303" lon="6.14384">
        <ele>1946.8</ele>
        <time>2026-08-25T10:13:39Z</time>
      </trkpt>
      <trkpt lat="45.08294" lon="6.14371">
        <ele>1945.4</ele>
        <time>2026-08-25T10:13:40Z</time>
      </trkpt>
      <trkpt lat="45.08285" lon="6.14359">
        <ele>1943.9</ele>
        <time>2026-08-25T10:13:41Z</time>
      </trkpt>
      <trkpt lat="45.08277" lon="6.14346">
        <ele>1942.4</ele>
        <time>2026-08-25T10:13:42Z</time>
      </trkpt>
      <trkpt lat="45.08269" lon="6.14332">
        <ele>1940.9</ele>
        <time>2026-08-25T10:13:43Z</time>
      </trkpt>
      <trkpt lat="45.08261" lon="6.14317">
        <ele>1939.3</ele>
        <time>2026-08-25T10:13:44Z</time>
      </trkpt>
      <trkpt lat="45.08253" lon="6.14302">
        <ele>1937.7</ele>
        <time>2026-08-25T10:13:45Z</time>
      </trkpt>
      <trkpt lat="45.08245" lon="6.14288">
        <ele>1936.1</ele>
        <time>2026-08-25T10:13:46Z</time>
      </trkpt>
      <trkpt lat="45.08236" lon="6.14274">
        <ele>1934.4</ele>
        <time>2026-08-25T10:13:47Z</time>
      </trkpt>
      <trkpt lat="45.08227" lon="6.14261">
        <ele>1932.8</ele>
        <time>2026-08-25T10:13:48Z</time>
      </trkpt>
      <trkpt lat="45.08218" lon="6.14248">
        <ele>1931.3</ele>
        <time>2026-08-25T10:13:49Z</time>
      </trkpt>
      <trkpt lat="45.0821" lon="6.14235">
        <ele>1929.9</ele>
        <time>2026-08-25T10:13:50Z</time>
      </trkpt>
      <trkpt lat="45.08203" lon="6.14221">
        <ele>1928.5</ele>
        <time>2026-08-25T10:13:51Z</time>
      </trkpt>
      <trkpt lat="45.08197" lon="6.14207">
        <ele>1927.1</ele>
        <time>2026-08-25T10:13:52Z</time>
      </trkpt>
      <trkpt lat="45.08192" lon="6.14193">
        <ele>1925.9</ele>
        <time>2026-08-25T10:13:53Z</time>
      </trkpt>
      <trkpt lat="45.08188" lon="6.14178">
        <ele>1924.6</ele>
        <time>2026-08-25T10:13:54Z</time>
      </trkpt>
      <trkpt lat="45.08184" lon="6.14162">
        <ele>1923.3</ele>
        <time>2026-08-25T10:13:55Z</time>
      </trkpt>
      <trkpt lat="45.08181" lon="6.14145">
        <ele>1922</ele>
        <time>2026-08-25T10:13:56Z</time>
      </trkpt>
      <trkpt lat="45.08178" lon="6.14129">
        <ele>1920.7</ele>
        <time>2026-08-25T10:13:57Z</time>
      </trkpt>
      <trkpt lat="45.08174" lon="6.14112">
        <ele>1919.4</ele>
        <time>2026-08-25T10:13:58Z</time>
      </trkpt>
      <trkpt lat="45.0817" lon="6.14096">
        <ele>1918.1</ele>
        <time>2026-08-25T10:13:59Z</time>
      </trkpt>
      <trkpt lat="45.08165" lon="6.1408">
        <ele>1916.7</ele>
        <time>2026-08-25T10:14:00Z</time>
      </trkpt>
      <trkpt lat="45.08159" lon="6.14065">
        <ele>1915.2</ele>
        <time>2026-08-25T10:14:01Z</time>
      </trkpt>
      <trkpt lat="45.08153" lon="6.1405">
        <ele>1913.7</ele>
        <time>2026-08-25T10:14:02Z</time>
      </trkpt>
      <trkpt lat="45.08147" lon="6.14034">
        <ele>1912.3</ele>
        <time>2026-08-25T10:14:03Z</time>
      </trkpt>
      <trkpt lat="45.08141" lon="6.14019">
        <ele>1911.1</ele>
        <time>2026-08-25T10:14:04Z</time>
      </trkpt>
      <trkpt lat="45.08137" lon="6.14005">
        <ele>1910</ele>
        <time>2026-08-25T10:14:05Z</time>
      </trkpt>
      <trkpt lat="45.08133" lon="6.13992">
        <ele>1908.9</ele>
        <time>2026-08-25T10:14:06Z</time>
      </trkpt>
      <trkpt lat="45.08129" lon="6.13978">
        <ele>1907.8</ele>
        <time>2026-08-25T10:14:07Z</time>
      </trkpt>
      <trkpt lat="45.08125" lon="6.13965">
        <ele>1906.7</ele>
        <time>2026-08-25T10:14:08Z</time>
      </trkpt>
      <trkpt lat="45.0812" lon="6.13953">
        <ele>1905.6</ele>
        <time>2026-08-25T10:14:09Z</time>
      </trkpt>
      <trkpt lat="45.08116" lon="6.1394">
        <ele>1904.5</ele>
        <time>2026-08-25T10:14:10Z</time>
      </trkpt>
      <trkpt lat="45.08113" lon="6.13929">
        <ele>1903.4</ele>
        <time>2026-08-25T10:14:11Z</time>
      </trkpt>
      <trkpt lat="45.08109" lon="6.13917">
        <ele>1902.3</ele>
        <time>2026-08-25T10:14:12Z</time>
      </trkpt>
      <trkpt lat="45.08106" lon="6.13905">
        <ele>1901.3</ele>
        <time>2026-08-25T10:14:13Z</time>
      </trkpt>
      <trkpt lat="45.08103" lon="6.13894">
        <ele>1900.2</ele>
        <time>2026-08-25T10:14:14Z</time>
      </trkpt>
      <trkpt lat="45.081" lon="6.13883">
        <ele>1899.3</ele>
        <time>2026-08-25T10:14:15Z</time>
      </trkpt>
      <trkpt lat="45.08097" lon="6.13873">
        <ele>1898.4</ele>
        <time>2026-08-25T10:14:16Z</time>
      </trkpt>
      <trkpt lat="45.08095" lon="6.13862">
        <ele>1897.5</ele>
        <time>2026-08-25T10:14:17Z</time>
      </trkpt>
      <trkpt lat="45.08094" lon="6.13851">
        <ele>1896.7</ele>
        <time>2026-08-25T10:14:18Z</time>
      </trkpt>
      <trkpt lat="45.08092" lon="6.13841">
        <ele>1895.8</ele>
        <time>2026-08-25T10:14:19Z</time>
      </trkpt>
      <trkpt lat="45.0809" lon="6.1383">
        <ele>1895</ele>
        <time>2026-08-25T10:14:20Z</time>
      </trkpt>
      <trkpt lat="45.08089" lon="6.13821">
        <ele>1894.3</ele>
        <time>2026-08-25T10:14:21Z</time>
      </trkpt>
      <trkpt lat="45.08088" lon="6.13813">
        <ele>1893.7</ele>
        <time>2026-08-25T10:14:22Z</time>
      </trkpt>
      <trkpt lat="45.08087" lon="6.13805">
        <ele>1893</ele>
        <time>2026-08-25T10:14:23Z</time>
      </trkpt>
      <trkpt lat="45.08086" lon="6.13796">
        <ele>1892.4</ele>
        <time>2026-08-25T10:14:24Z</time>
      </trkpt>
      <trkpt lat="45.08085" lon="6.13787">
        <ele>1891.7</ele>
        <time>2026-08-25T10:14:25Z</time>
      </trkpt>
      <trkpt lat="45.08083" lon="6.13778">
        <ele>1891</ele>
        <time>2026-08-25T10:14:26Z</time>
      </trkpt>
      <trkpt lat="45.08082" lon="6.13769">
        <ele>1890.3</ele>
        <time>2026-08-25T10:14:27Z</time>
      </trkpt>
      <trkpt lat="45.08081" lon="6.13759">
        <ele>1889.5</ele>
        <time>2026-08-25T10:14:28Z</time>
      </trkpt>
      <trkpt lat="45.0808" lon="6.13747">
        <ele>1888.7</ele>
        <time>2026-08-25T10:14:29Z</time>
      </trkpt>
      <trkpt lat="45.08079" lon="6.13736">
        <ele>1887.8</ele>
        <time>2026-08-25T10:14:30Z</time>
      </trkpt>
      <trkpt lat="45.08077" lon="6.13723">
        <ele>1886.8</ele>
        <time>2026-08-25T10:14:31Z</time>
      </trkpt>
      <trkpt lat="45.08076" lon="6.1371">
        <ele>1885.8</ele>
        <time>2026-08-25T10:14:32Z</time>
      </trkpt>
      <trkpt lat="45.08074" lon="6.13696">
        <ele>1884.6</ele>
        <time>2026-08-25T10:14:33Z</time>
      </trkpt>
      <trkpt lat="45.08073" lon="6.1368">
        <ele>1883.5</ele>
        <time>2026-08-25T10:14:34Z</time>
      </trkpt>
      <trkpt lat="45.08072" lon="6.13665">
        <ele>1882.3</ele>
        <time>2026-08-25T10:14:35Z</time>
      </trkpt>
      <trkpt lat="45.08072" lon="6.13649">
        <ele>1881</ele>
        <time>2026-08-25T10:14:36Z</time>
      </trkpt>
      <trkpt lat="45.08071" lon="6.13633">
        <ele>1879.8</ele>
        <time>2026-08-25T10:14:37Z</time>
      </trkpt>
      <trkpt lat="45.08071" lon="6.13618">
        <ele>1878.7</ele>
        <time>2026-08-25T10:14:38Z</time>
      </trkpt>
      <trkpt lat="45.08071" lon="6.13604">
        <ele>1877.6</ele>
        <time>2026-08-25T10:14:39Z</time>
      </trkpt>
      <trkpt lat="45.0807" lon="6.1359">
        <ele>1876.6</ele>
        <time>2026-08-25T10:14:40Z</time>
      </trkpt>
      <trkpt lat="45.08069" lon="6.13576">
        <ele>1875.5</ele>
        <time>2026-08-25T10:14:41Z</time>
      </trkpt>
      <trkpt lat="45.08066" lon="6.13562">
        <ele>1874.4</ele>
        <time>2026-08-25T10:14:42Z</time>
      </trkpt>
      <trkpt lat="45.08062" lon="6.13547">
        <ele>1873.2</ele>
        <time>2026-08-25T10:14:43Z</time>
      </trkpt>
      <trkpt lat="45.08059" lon="6.13532">
        <ele>1872</ele>
        <time>2026-08-25T10:14:44Z</time>
      </trkpt>
      <trkpt lat="45.08054" lon="6.13517">
        <ele>1870.9</ele>
        <time>2026-08-25T10:14:45Z</time>
      </trkpt>
      <trkpt lat="45.08049" lon="6.13501">
        <ele>1869.7</ele>
        <time>2026-08-25T10:14:46Z</time>
      </trkpt>
      <trkpt lat="45.08044" lon="6.13485">
        <ele>1868.5</ele>
        <time>2026-08-25T10:14:47Z</time>
      </trkpt>
      <trkpt lat="45.0804" lon="6.13468">
        <ele>1867.4</ele>
        <time>2026-08-25T10:14:48Z</time>
      </trkpt>
      <trkpt lat="45.08034" lon="6.13452">
        <ele>1866.2</ele>
        <time>2026-08-25T10:14:49Z</time>
      </trkpt>
      <trkpt lat="45.0803" lon="6.13435">
        <ele>1865.1</ele>
        <time>2026-08-25T10:14:50Z</time>
      </trkpt>
      <trkpt lat="45.08025" lon="6.13418">
        <ele>1864</ele>
        <time>2026-08-25T10:14:51Z</time>
      </trkpt>
      <trkpt lat="45.0802" lon="6.13402">
        <ele>1862.9</ele>
        <time>2026-08-25T10:14:52Z</time>
      </trkpt>
      <trkpt lat="45.08016" lon="6.13386">
        <ele>1862</ele>
        <time>2026-08-25T10:14:53Z</time>
      </trkpt>
      <trkpt lat="45.08012" lon="6.13372">
        <ele>1861</ele>
        <time>2026-08-25T10:14:54Z</time>
      </trkpt>
      <trkpt lat="45.08008" lon="6.13358">
        <ele>1860.1</ele>
        <time>2026-08-25T10:14:55Z</time>
      </trkpt>
      <trkpt lat="45.08005" lon="6.13344">
        <ele>1859.3</ele>
        <time>2026-08-25T10:14:56Z</time>
      </trkpt>
      <trkpt lat="45.08001" lon="6.1333">
        <ele>1858.5</ele>
        <time>2026-08-25T10:14:57Z</time>
      </trkpt>
      <trkpt lat="45.07997" lon="6.13318">
        <ele>1857.7</ele>
        <time>2026-08-25T10:14:58Z</time>
      </trkpt>
      <trkpt lat="45.07992" lon="6.13306">
        <ele>1856.9</ele>
        <time>2026-08-25T10:14:59Z</time>
      </trkpt>
      <trkpt lat="45.07986" lon="6.13295">
        <ele>1856</ele>
        <time>2026-08-25T10:15:00Z</time>
      </trkpt>
      <trkpt lat="45.0798" lon="6.13284">
        <ele>1855.1</ele>
        <time>2026-08-25T10:15:01Z</time>
      </trkpt>
      <trkpt lat="45.07976" lon="6.13271">
        <ele>1854.2</ele>
        <time>2026-08-25T10:15:02Z</time>
      </trkpt>
      <trkpt lat="45.07971" lon="6.13258">
        <ele>1853.2</ele>
        <time>2026-08-25T10:15:03Z</time>
      </trkpt>
      <trkpt lat="45.07968" lon="6.13245">
        <ele>1852.2</ele>
        <time>2026-08-25T10:15:04Z</time>
      </trkpt>
      <trkpt lat="45.07967" lon="6.13232">
        <ele>1851.3</ele>
        <time>2026-08-25T10:15:05Z</time>
      </trkpt>
      <trkpt lat="45.07967" lon="6.13219">
        <ele>1850.3</ele>
        <time>2026-08-25T10:15:06Z</time>
      </trkpt>
      <trkpt lat="45.07968" lon="6.13205">
        <ele>1849.4</ele>
        <time>2026-08-25T10:15:07Z</time>
      </trkpt>
      <trkpt lat="45.0797" lon="6.13192">
        <ele>1848.4</ele>
        <time>2026-08-25T10:15:08Z</time>
      </trkpt>
      <trkpt lat="45.07972" lon="6.13179">
        <ele>1847.5</ele>
        <time>2026-08-25T10:15:09Z</time>
      </trkpt>
      <trkpt lat="45.07975" lon="6.13165">
        <ele>1846.7</ele>
        <time>2026-08-25T10:15:10Z</time>
      </trkpt>
      <trkpt lat="45.07978" lon="6.13152">
        <ele>1846</ele>
        <time>2026-08-25T10:15:11Z</time>
      </trkpt>
      <trkpt lat="45.07982" lon="6.1314">
        <ele>1845.3</ele>
        <time>2026-08-25T10:15:12Z</time>
      </trkpt>
      <trkpt lat="45.07985" lon="6.13129">
        <ele>1844.7</ele>
        <time>2026-08-25T10:15:13Z</time>
      </trkpt>
      <trkpt lat="45.07987" lon="6.13119">
        <ele>1844.1</ele>
        <time>2026-08-25T10:15:14Z</time>
      </trkpt>
      <trkpt lat="45.0799" lon="6.13109">
        <ele>1843.6</ele>
        <time>2026-08-25T10:15:15Z</time>
      </trkpt>
      <trkpt lat="45.07992" lon="6.13101">
        <ele>1843.1</ele>
        <time>2026-08-25T10:15:16Z</time>
      </trkpt>
      <trkpt lat="45.07996" lon="6.13093">
        <ele>1842.6</ele>
        <time>2026-08-25T10:15:17Z</time>
      </trkpt>
      <trkpt lat="45.08001" lon="6.1309">
        <ele>1842.1</ele>
        <time>2026-08-25T10:15:18Z</time>
      </trkpt>
      <trkpt lat="45.08006" lon="6.13094">
        <ele>1841.7</ele>
        <time>2026-08-25T10:15:19Z</time>
      </trkpt>
      <trkpt lat="45.08008" lon="6.13102">
        <ele>1841.2</ele>
        <time>2026-08-25T10:15:20Z</time>
      </trkpt>
      <trkpt lat="45.08009" lon="6.1311">
        <ele>1840.6</ele>
        <time>2026-08-25T10:15:21Z</time>
      </trkpt>
      <trkpt lat="45.0801" lon="6.1312">
        <ele>1840</ele>
        <time>2026-08-25T10:15:22Z</time>
      </trkpt>
      <trkpt lat="45.08013" lon="6.1313">
        <ele>1839.3</ele>
        <time>2026-08-25T10:15:23Z</time>
      </trkpt>
      <trkpt lat="45.08016" lon="6.1314">
        <ele>1838.5</ele>
        <time>2026-08-25T10:15:24Z</time>
      </trkpt>
      <trkpt lat="45.0802" lon="6.13151">
        <ele>1837.6</ele>
        <time>2026-08-25T10:15:25Z</time>
      </trkpt>
      <trkpt lat="45.08025" lon="6.13162">
        <ele>1836.7</ele>
        <time>2026-08-25T10:15:26Z</time>
      </trkpt>
      <trkpt lat="45.08031" lon="6.13173">
        <ele>1835.8</ele>
        <time>2026-08-25T10:15:27Z</time>
      </trkpt>
      <trkpt lat="45.08037" lon="6.13184">
        <ele>1834.9</ele>
        <time>2026-08-25T10:15:28Z</time>
      </trkpt>
      <trkpt lat="45.08044" lon="6.13195">
        <ele>1834.1</ele>
        <time>2026-08-25T10:15:29Z</time>
      </trkpt>
      <trkpt lat="45.08051" lon="6.13205">
        <ele>1833.3</ele>
        <time>2026-08-25T10:15:30Z</time>
      </trkpt>
      <trkpt lat="45.0806" lon="6.13212">
        <ele>1832.6</ele>
        <time>2026-08-25T10:15:31Z</time>
      </trkpt>
      <trkpt lat="45.08068" lon="6.13216">
        <ele>1831.8</ele>
        <time>2026-08-25T10:15:32Z</time>
      </trkpt>
      <trkpt lat="45.08077" lon="6.13218">
        <ele>1831.1</ele>
        <time>2026-08-25T10:15:33Z</time>
      </trkpt>
      <trkpt lat="45.08087" lon="6.13217">
        <ele>1830.4</ele>
        <time>2026-08-25T10:15:34Z</time>
      </trkpt>
      <trkpt lat="45.08096" lon="6.13215">
        <ele>1829.8</ele>
        <time>2026-08-25T10:15:35Z</time>
      </trkpt>
      <trkpt lat="45.08105" lon="6.13211">
        <ele>1829.3</ele>
        <time>2026-08-25T10:15:36Z</time>
      </trkpt>
      <trkpt lat="45.08113" lon="6.13204">
        <ele>1828.7</ele>
        <time>2026-08-25T10:15:37Z</time>
      </trkpt>
      <trkpt lat="45.0812" lon="6.13198">
        <ele>1828.3</ele>
        <time>2026-08-25T10:15:38Z</time>
      </trkpt>
      <trkpt lat="45.08127" lon="6.13193">
        <ele>1827.9</ele>
        <time>2026-08-25T10:15:39Z</time>
      </trkpt>
      <trkpt lat="45.08134" lon="6.13187">
        <ele>1827.6</ele>
        <time>2026-08-25T10:15:40Z</time>
      </trkpt>
      <trkpt lat="45.0814" lon="6.13181">
        <ele>1827.3</ele>
        <time>2026-08-25T10:15:41Z</time>
      </trkpt>
      <trkpt lat="45.08147" lon="6.13175">
        <ele>1826.9</ele>
        <time>2026-08-25T10:15:42Z</time>
      </trkpt>
      <trkpt lat="45.08153" lon="6.13168">
        <ele>1826.4</ele>
        <time>2026-08-25T10:15:43Z</time>
      </trkpt>
      <trkpt lat="45.08158" lon="6.13161">
        <ele>1826.2</ele>
        <time>2026-08-25T10:15:44Z</time>
      </trkpt>
      <trkpt lat="45.08161" lon="6.13153">
        <ele>1825.7</ele>
        <time>2026-08-25T10:15:45Z</time>
      </trkpt>
      <trkpt lat="45.0816" lon="6.13144">
        <ele>1824.9</ele>
        <time>2026-08-25T10:15:46Z</time>
      </trkpt>
      <trkpt lat="45.08157" lon="6.13135">
        <ele>1824.1</ele>
        <time>2026-08-25T10:15:47Z</time>
      </trkpt>
      <trkpt lat="45.08153" lon="6.13125">
        <ele>1823.2</ele>
        <time>2026-08-25T10:15:48Z</time>
      </trkpt>
      <trkpt lat="45.08151" lon="6.13115">
        <ele>1822.4</ele>
        <time>2026-08-25T10:15:49Z</time>
      </trkpt>
      <trkpt lat="45.08148" lon="6.13104">
        <ele>1821.5</ele>
        <time>2026-08-25T10:15:50Z</time>
      </trkpt>
      <trkpt lat="45.08145" lon="6.13093">
        <ele>1820.7</ele>
        <time>2026-08-25T10:15:51Z</time>
      </trkpt>
      <trkpt lat="45.08143" lon="6.13081">
        <ele>1819.9</ele>
        <time>2026-08-25T10:15:52Z</time>
      </trkpt>
      <trkpt lat="45.08143" lon="6.13068">
        <ele>1819.1</ele>
        <time>2026-08-25T10:15:53Z</time>
      </trkpt>
      <trkpt lat="45.08145" lon="6.13055">
        <ele>1818.2</ele>
        <time>2026-08-25T10:15:54Z</time>
      </trkpt>
      <trkpt lat="45.08148" lon="6.13043">
        <ele>1817.4</ele>
        <time>2026-08-25T10:15:55Z</time>
      </trkpt>
      <trkpt lat="45.08153" lon="6.13031">
        <ele>1816.6</ele>
        <time>2026-08-25T10:15:56Z</time>
      </trkpt>
      <trkpt lat="45.08158" lon="6.13021">
        <ele>1815.7</ele>
        <time>2026-08-25T10:15:57Z</time>
      </trkpt>
      <trkpt lat="45.08164" lon="6.13011">
        <ele>1814.9</ele>
        <time>2026-08-25T10:15:58Z</time>
      </trkpt>
      <trkpt lat="45.08169" lon="6.13002">
        <ele>1814.1</ele>
        <time>2026-08-25T10:15:59Z</time>
      </trkpt>
      <trkpt lat="45.08174" lon="6.12993">
        <ele>1813.4</ele>
        <time>2026-08-25T10:16:00Z</time>
      </trkpt>
      <trkpt lat="45.08179" lon="6.12984">
        <ele>1812.8</ele>
        <time>2026-08-25T10:16:01Z</time>
      </trkpt>
      <trkpt lat="45.08182" lon="6.12974">
        <ele>1812.1</ele>
        <time>2026-08-25T10:16:02Z</time>
      </trkpt>
      <trkpt lat="45.08184" lon="6.12964">
        <ele>1811.5</ele>
        <time>2026-08-25T10:16:03Z</time>
      </trkpt>
      <trkpt lat="45.08186" lon="6.12953">
        <ele>1810.9</ele>
        <time>2026-08-25T10:16:04Z</time>
      </trkpt>
      <trkpt lat="45.08187" lon="6.12942">
        <ele>1810.3</ele>
        <time>2026-08-25T10:16:05Z</time>
      </trkpt>
      <trkpt lat="45.08187" lon="6.1293">
        <ele>1809.7</ele>
        <time>2026-08-25T10:16:06Z</time>
      </trkpt>
      <trkpt lat="45.08185" lon="6.12918">
        <ele>1809.2</ele>
        <time>2026-08-25T10:16:07Z</time>
      </trkpt>
      <trkpt lat="45.08184" lon="6.12905">
        <ele>1808.6</ele>
        <time>2026-08-25T10:16:08Z</time>
      </trkpt>
      <trkpt lat="45.08185" lon="6.12892">
        <ele>1808</ele>
        <time>2026-08-25T10:16:09Z</time>
      </trkpt>
      <trkpt lat="45.08185" lon="6.1288">
        <ele>1807.4</ele>
        <time>2026-08-25T10:16:10Z</time>
      </trkpt>
      <trkpt lat="45.08186" lon="6.12868">
        <ele>1806.8</ele>
        <time>2026-08-25T10:16:11Z</time>
      </trkpt>
      <trkpt lat="45.08185" lon="6.12856">
        <ele>1806.1</ele>
        <time>2026-08-25T10:16:12Z</time>
      </trkpt>
      <trkpt lat="45.08183" lon="6.12844">
        <ele>1805.5</ele>
        <time>2026-08-25T10:16:13Z</time>
      </trkpt>
      <trkpt lat="45.08181" lon="6.12831">
        <ele>1804.8</ele>
        <time>2026-08-25T10:16:14Z</time>
      </trkpt>
      <trkpt lat="45.08177" lon="6.12819">
        <ele>1804.1</ele>
        <time>2026-08-25T10:16:15Z</time>
      </trkpt>
      <trkpt lat="45.08173" lon="6.12807">
        <ele>1803.4</ele>
        <time>2026-08-25T10:16:16Z</time>
      </trkpt>
      <trkpt lat="45.08168" lon="6.12795">
        <ele>1802.8</ele>
        <time>2026-08-25T10:16:17Z</time>
      </trkpt>
      <trkpt lat="45.08165" lon="6.12782">
        <ele>1802.2</ele>
        <time>2026-08-25T10:16:18Z</time>
      </trkpt>
      <trkpt lat="45.08161" lon="6.12768">
        <ele>1801.5</ele>
        <time>2026-08-25T10:16:19Z</time>
      </trkpt>
      <trkpt lat="45.08157" lon="6.12755">
        <ele>1800.9</ele>
        <time>2026-08-25T10:16:20Z</time>
      </trkpt>
      <trkpt lat="45.08154" lon="6.12741">
        <ele>1800.2</ele>
        <time>2026-08-25T10:16:21Z</time>
      </trkpt>
      <trkpt lat="45.0815" lon="6.12727">
        <ele>1799.5</ele>
        <time>2026-08-25T10:16:22Z</time>
      </trkpt>
      <trkpt lat="45.08147" lon="6.12713">
        <ele>1798.9</ele>
        <time>2026-08-25T10:16:23Z</time>
      </trkpt>
      <trkpt lat="45.08145" lon="6.12699">
        <ele>1798.2</ele>
        <time>2026-08-25T10:16:24Z</time>
      </trkpt>
      <trkpt lat="45.08143" lon="6.12683">
        <ele>1797.5</ele>
        <time>2026-08-25T10:16:25Z</time>
      </trkpt>
      <trkpt lat="45.08141" lon="6.12668">
        <ele>1796.8</ele>
        <time>2026-08-25T10:16:26Z</time>
      </trkpt>
      <trkpt lat="45.08136" lon="6.12655">
        <ele>1796.1</ele>
        <time>2026-08-25T10:16:27Z</time>
      </trkpt>
      <trkpt lat="45.08129" lon="6.12644">
        <ele>1795.4</ele>
        <time>2026-08-25T10:16:28Z</time>
      </trkpt>
      <trkpt lat="45.08122" lon="6.12633">
        <ele>1794.6</ele>
        <time>2026-08-25T10:16:29Z</time>
      </trkpt>
      <trkpt lat="45.08116" lon="6.12621">
        <ele>1793.8</ele>
        <time>2026-08-25T10:16:30Z</time>
      </trkpt>
      <trkpt lat="45.0811" lon="6.12609">
        <ele>1792.9</ele>
        <time>2026-08-25T10:16:31Z</time>
      </trkpt>
      <trkpt lat="45.08103" lon="6.12596">
        <ele>1791.9</ele>
        <time>2026-08-25T10:16:32Z</time>
      </trkpt>
      <trkpt lat="45.08097" lon="6.12583">
        <ele>1791</ele>
        <time>2026-08-25T10:16:33Z</time>
      </trkpt>
      <trkpt lat="45.0809" lon="6.12571">
        <ele>1790.1</ele>
        <time>2026-08-25T10:16:34Z</time>
      </trkpt>
      <trkpt lat="45.08082" lon="6.12559">
        <ele>1789.2</ele>
        <time>2026-08-25T10:16:35Z</time>
      </trkpt>
      <trkpt lat="45.08075" lon="6.12546">
        <ele>1788.3</ele>
        <time>2026-08-25T10:16:36Z</time>
      </trkpt>
      <trkpt lat="45.08068" lon="6.12532">
        <ele>1787.5</ele>
        <time>2026-08-25T10:16:37Z</time>
      </trkpt>
      <trkpt lat="45.0806" lon="6.12519">
        <ele>1786.7</ele>
        <time>2026-08-25T10:16:38Z</time>
      </trkpt>
      <trkpt lat="45.08052" lon="6.12506">
        <ele>1786</ele>
        <time>2026-08-25T10:16:39Z</time>
      </trkpt>
      <trkpt lat="45.08044" lon="6.12494">
        <ele>1785.3</ele>
        <time>2026-08-25T10:16:40Z</time>
      </trkpt>
      <trkpt lat="45.08037" lon="6.12481">
        <ele>1784.6</ele>
        <time>2026-08-25T10:16:41Z</time>
      </trkpt>
      <trkpt lat="45.0803" lon="6.12468">
        <ele>1783.9</ele>
        <time>2026-08-25T10:16:42Z</time>
      </trkpt>
      <trkpt lat="45.08024" lon="6.12457">
        <ele>1783.2</ele>
        <time>2026-08-25T10:16:43Z</time>
      </trkpt>
      <trkpt lat="45.08017" lon="6.12448">
        <ele>1782.5</ele>
        <time>2026-08-25T10:16:44Z</time>
      </trkpt>
      <trkpt lat="45.08009" lon="6.1244">
        <ele>1781.8</ele>
        <time>2026-08-25T10:16:45Z</time>
      </trkpt>
      <trkpt lat="45.08001" lon="6.12431">
        <ele>1781</ele>
        <time>2026-08-25T10:16:46Z</time>
      </trkpt>
      <trkpt lat="45.07994" lon="6.12421">
        <ele>1780.3</ele>
        <time>2026-08-25T10:16:47Z</time>
      </trkpt>
      <trkpt lat="45.07987" lon="6.12409">
        <ele>1779.5</ele>
        <time>2026-08-25T10:16:48Z</time>
      </trkpt>
      <trkpt lat="45.0798" lon="6.12398">
        <ele>1778.7</ele>
        <time>2026-08-25T10:16:49Z</time>
      </trkpt>
      <trkpt lat="45.07974" lon="6.12386">
        <ele>1778</ele>
        <time>2026-08-25T10:16:50Z</time>
      </trkpt>
      <trkpt lat="45.07969" lon="6.12373">
        <ele>1777.3</ele>
        <time>2026-08-25T10:16:51Z</time>
      </trkpt>
      <trkpt lat="45.07965" lon="6.1236">
        <ele>1776.6</ele>
        <time>2026-08-25T10:16:52Z</time>
      </trkpt>
      <trkpt lat="45.07963" lon="6.12346">
        <ele>1775.9</ele>
        <time>2026-08-25T10:16:53Z</time>
      </trkpt>
      <trkpt lat="45.07962" lon="6.12333">
        <ele>1775.2</ele>
        <time>2026-08-25T10:16:54Z</time>
      </trkpt>
      <trkpt lat="45.0796" lon="6.12319">
        <ele>1774.5</ele>
        <time>2026-08-25T10:16:55Z</time>
      </trkpt>
      <trkpt lat="45.07958" lon="6.12306">
        <ele>1773.9</ele>
        <time>2026-08-25T10:16:56Z</time>
      </trkpt>
      <trkpt lat="45.07956" lon="6.12295">
        <ele>1773.4</ele>
        <time>2026-08-25T10:16:57Z</time>
      </trkpt>
      <trkpt lat="45.07954" lon="6.12286">
        <ele>1772.9</ele>
        <time>2026-08-25T10:16:58Z</time>
      </trkpt>
      <trkpt lat="45.0795" lon="6.12277">
        <ele>1772.5</ele>
        <time>2026-08-25T10:16:59Z</time>
      </trkpt>
      <trkpt lat="45.07944" lon="6.12245">
        <ele>1771</ele>
        <time>2026-08-25T10:17:02Z</time>
      </trkpt>
      <trkpt lat="45.07944" lon="6.1224">
        <ele>1770.8</ele>
        <time>2026-08-25T10:17:03Z</time>
      </trkpt>
      <trkpt lat="45.07943" lon="6.12234">
        <ele>1770.5</ele>
        <time>2026-08-25T10:17:04Z</time>
      </trkpt>
      <trkpt lat="45.07935" lon="6.12188">
        <ele>1768.2</ele>
        <time>2026-08-25T10:17:08Z</time>
      </trkpt>
      <trkpt lat="45.07933" lon="6.12183">
        <ele>1768</ele>
        <time>2026-08-25T10:17:09Z</time>
      </trkpt>
      <trkpt lat="45.07931" lon="6.12177">
        <ele>1767.7</ele>
        <time>2026-08-25T10:17:10Z</time>
      </trkpt>
      <trkpt lat="45.07929" lon="6.12165">
        <ele>1767.1</ele>
        <time>2026-08-25T10:17:11Z</time>
      </trkpt>
      <trkpt lat="45.0793" lon="6.12152">
        <ele>1766.5</ele>
        <time>2026-08-25T10:17:12Z</time>
      </trkpt>
      <trkpt lat="45.0793" lon="6.12138">
        <ele>1765.9</ele>
        <time>2026-08-25T10:17:13Z</time>
      </trkpt>
      <trkpt lat="45.0793" lon="6.12125">
        <ele>1765.5</ele>
        <time>2026-08-25T10:17:14Z</time>
      </trkpt>
      <trkpt lat="45.07928" lon="6.12112">
        <ele>1765.1</ele>
        <time>2026-08-25T10:17:15Z</time>
      </trkpt>
      <trkpt lat="45.07926" lon="6.121">
        <ele>1764.8</ele>
        <time>2026-08-25T10:17:16Z</time>
      </trkpt>
      <trkpt lat="45.07924" lon="6.12088">
        <ele>1764.5</ele>
        <time>2026-08-25T10:17:17Z</time>
      </trkpt>
      <trkpt lat="45.07921" lon="6.12076">
        <ele>1764.3</ele>
        <time>2026-08-25T10:17:18Z</time>
      </trkpt>
      <trkpt lat="45.07919" lon="6.12064">
        <ele>1764.1</ele>
        <time>2026-08-25T10:17:19Z</time>
      </trkpt>
      <trkpt lat="45.07916" lon="6.12053">
        <ele>1764</ele>
        <time>2026-08-25T10:17:20Z</time>
      </trkpt>
      <trkpt lat="45.07913" lon="6.12043">
        <ele>1763.8</ele>
        <time>2026-08-25T10:17:21Z</time>
      </trkpt>
      <trkpt lat="45.07909" lon="6.12032">
        <ele>1763.8</ele>
        <time>2026-08-25T10:17:22Z</time>
      </trkpt>
      <trkpt lat="45.07906" lon="6.12023">
        <ele>1763.7</ele>
        <time>2026-08-25T10:17:23Z</time>
      </trkpt>
      <trkpt lat="45.07903" lon="6.12013">
        <ele>1763.7</ele>
        <time>2026-08-25T10:17:24Z</time>
      </trkpt>
      <trkpt lat="45.079" lon="6.12004">
        <ele>1763.7</ele>
        <time>2026-08-25T10:17:25Z</time>
      </trkpt>
      <trkpt lat="45.07897" lon="6.11995">
        <ele>1763.6</ele>
        <time>2026-08-25T10:17:26Z</time>
      </trkpt>
      <trkpt lat="45.07894" lon="6.11985">
        <ele>1763.6</ele>
        <time>2026-08-25T10:17:27Z</time>
      </trkpt>
      <trkpt lat="45.07892" lon="6.11976">
        <ele>1763.6</ele>
        <time>2026-08-25T10:17:28Z</time>
      </trkpt>
      <trkpt lat="45.0789" lon="6.11966">
        <ele>1763.6</ele>
        <time>2026-08-25T10:17:29Z</time>
      </trkpt>
      <trkpt lat="45.07888" lon="6.11956">
        <ele>1763.6</ele>
        <time>2026-08-25T10:17:30Z</time>
      </trkpt>
      <trkpt lat="45.07887" lon="6.11947">
        <ele>1763.6</ele>
        <time>2026-08-25T10:17:31Z</time>
      </trkpt>
      <trkpt lat="45.07885" lon="6.11938">
        <ele>1763.6</ele>
        <time>2026-08-25T10:17:32Z</time>
      </trkpt>
      <trkpt lat="45.07883" lon="6.11928">
        <ele>1763.7</ele>
        <time>2026-08-25T10:17:33Z</time>
      </trkpt>
      <trkpt lat="45.07882" lon="6.11919">
        <ele>1763.8</ele>
        <time>2026-08-25T10:17:34Z</time>
      </trkpt>
      <trkpt lat="45.07881" lon="6.11909">
        <ele>1763.9</ele>
        <time>2026-08-25T10:17:35Z</time>
      </trkpt>
      <trkpt lat="45.07881" lon="6.119">
        <ele>1764</ele>
        <time>2026-08-25T10:17:36Z</time>
      </trkpt>
      <trkpt lat="45.07882" lon="6.11891">
        <ele>1764.1</ele>
        <time>2026-08-25T10:17:37Z</time>
      </trkpt>
      <trkpt lat="45.07883" lon="6.11883">
        <ele>1764.3</ele>
        <time>2026-08-25T10:17:38Z</time>
      </trkpt>
      <trkpt lat="45.07885" lon="6.11874">
        <ele>1764.5</ele>
        <time>2026-08-25T10:17:39Z</time>
      </trkpt>
      <trkpt lat="45.07888" lon="6.11867">
        <ele>1764.7</ele>
        <time>2026-08-25T10:17:40Z</time>
      </trkpt>
      <trkpt lat="45.07889" lon="6.11859">
        <ele>1764.8</ele>
        <time>2026-08-25T10:17:41Z</time>
      </trkpt>
      <trkpt lat="45.07891" lon="6.11852">
        <ele>1764.8</ele>
        <time>2026-08-25T10:17:42Z</time>
      </trkpt>
      <trkpt lat="45.07893" lon="6.11845">
        <ele>1764.9</ele>
        <time>2026-08-25T10:17:43Z</time>
      </trkpt>
      <trkpt lat="45.07894" lon="6.11837">
        <ele>1764.9</ele>
        <time>2026-08-25T10:17:44Z</time>
      </trkpt>
      <trkpt lat="45.07895" lon="6.11828">
        <ele>1764.9</ele>
        <time>2026-08-25T10:17:45Z</time>
      </trkpt>
      <trkpt lat="45.07896" lon="6.1182">
        <ele>1764.9</ele>
        <time>2026-08-25T10:17:46Z</time>
      </trkpt>
      <trkpt lat="45.07897" lon="6.11811">
        <ele>1764.9</ele>
        <time>2026-08-25T10:17:47Z</time>
      </trkpt>
      <trkpt lat="45.07897" lon="6.11801">
        <ele>1764.9</ele>
        <time>2026-08-25T10:17:48Z</time>
      </trkpt>
      <trkpt lat="45.07898" lon="6.1179">
        <ele>1764.9</ele>
        <time>2026-08-25T10:17:49Z</time>
      </trkpt>
      <trkpt lat="45.07899" lon="6.1178">
        <ele>1764.9</ele>
        <time>2026-08-25T10:17:50Z</time>
      </trkpt>
      <trkpt lat="45.07901" lon="6.11769">
        <ele>1764.9</ele>
        <time>2026-08-25T10:17:51Z</time>
      </trkpt>
      <trkpt lat="45.07902" lon="6.1176">
        <ele>1765</ele>
        <time>2026-08-25T10:17:52Z</time>
      </trkpt>
      <trkpt lat="45.07904" lon="6.1175">
        <ele>1765.1</ele>
        <time>2026-08-25T10:17:53Z</time>
      </trkpt>
      <trkpt lat="45.07905" lon="6.11742">
        <ele>1765.2</ele>
        <time>2026-08-25T10:17:54Z</time>
      </trkpt>
      <trkpt lat="45.07907" lon="6.11734">
        <ele>1765.4</ele>
        <time>2026-08-25T10:17:55Z</time>
      </trkpt>
      <trkpt lat="45.0791" lon="6.11727">
        <ele>1765.6</ele>
        <time>2026-08-25T10:17:56Z</time>
      </trkpt>
      <trkpt lat="45.07912" lon="6.1172">
        <ele>1765.8</ele>
        <time>2026-08-25T10:17:57Z</time>
      </trkpt>
      <trkpt lat="45.07914" lon="6.11713">
        <ele>1766</ele>
        <time>2026-08-25T10:17:58Z</time>
      </trkpt>
      <trkpt lat="45.07915" lon="6.11707">
        <ele>1766.1</ele>
        <time>2026-08-25T10:17:59Z</time>
      </trkpt>
      <trkpt lat="45.07918" lon="6.11701">
        <ele>1766.3</ele>
        <time>2026-08-25T10:18:00Z</time>
      </trkpt>
      <trkpt lat="45.0792" lon="6.11697">
        <ele>1766.5</ele>
        <time>2026-08-25T10:18:01Z</time>
      </trkpt>
      <trkpt lat="45.07923" lon="6.11691">
        <ele>1766.7</ele>
        <time>2026-08-25T10:18:02Z</time>
      </trkpt>
      <trkpt lat="45.07925" lon="6.11686">
        <ele>1766.8</ele>
        <time>2026-08-25T10:18:03Z</time>
      </trkpt>
      <trkpt lat="45.07928" lon="6.1168">
        <ele>1767</ele>
        <time>2026-08-25T10:18:04Z</time>
      </trkpt>
      <trkpt lat="45.0793" lon="6.11674">
        <ele>1767.2</ele>
        <time>2026-08-25T10:18:05Z</time>
      </trkpt>
      <trkpt lat="45.07932" lon="6.11669">
        <ele>1767.4</ele>
        <time>2026-08-25T10:18:06Z</time>
      </trkpt>
      <trkpt lat="45.07934" lon="6.11663">
        <ele>1767.7</ele>
        <time>2026-08-25T10:18:07Z</time>
      </trkpt>
      <trkpt lat="45.07936" lon="6.11658">
        <ele>1767.9</ele>
        <time>2026-08-25T10:18:08Z</time>
      </trkpt>
      <trkpt lat="45.07938" lon="6.11653">
        <ele>1768.1</ele>
        <time>2026-08-25T10:18:09Z</time>
      </trkpt>
      <trkpt lat="45.0794" lon="6.11647">
        <ele>1768.3</ele>
        <time>2026-08-25T10:18:10Z</time>
      </trkpt>
      <trkpt lat="45.07942" lon="6.11641">
        <ele>1768.5</ele>
        <time>2026-08-25T10:18:11Z</time>
      </trkpt>
      <trkpt lat="45.07945" lon="6.11635">
        <ele>1768.7</ele>
        <time>2026-08-25T10:18:12Z</time>
      </trkpt>
      <trkpt lat="45.07946" lon="6.1163">
        <ele>1769</ele>
        <time>2026-08-25T10:18:13Z</time>
      </trkpt>
      <trkpt lat="45.07948" lon="6.11624">
        <ele>1769.2</ele>
        <time>2026-08-25T10:18:14Z</time>
      </trkpt>
      <trkpt lat="45.07949" lon="6.11618">
        <ele>1769.4</ele>
        <time>2026-08-25T10:18:15Z</time>
      </trkpt>
      <trkpt lat="45.0795" lon="6.11612">
        <ele>1769.7</ele>
        <time>2026-08-25T10:18:16Z</time>
      </trkpt>
      <trkpt lat="45.07952" lon="6.11607">
        <ele>1769.9</ele>
        <time>2026-08-25T10:18:17Z</time>
      </trkpt>
      <trkpt lat="45.07953" lon="6.11602">
        <ele>1770.1</ele>
        <time>2026-08-25T10:18:18Z</time>
      </trkpt>
      <trkpt lat="45.07955" lon="6.11596">
        <ele>1770.3</ele>
        <time>2026-08-25T10:18:19Z</time>
      </trkpt>
      <trkpt lat="45.07956" lon="6.1159">
        <ele>1770.5</ele>
        <time>2026-08-25T10:18:20Z</time>
      </trkpt>
      <trkpt lat="45.07957" lon="6.11584">
        <ele>1770.8</ele>
        <time>2026-08-25T10:18:21Z</time>
      </trkpt>
      <trkpt lat="45.07958" lon="6.11579">
        <ele>1771</ele>
        <time>2026-08-25T10:18:22Z</time>
      </trkpt>
      <trkpt lat="45.0796" lon="6.11574">
        <ele>1771.2</ele>
        <time>2026-08-25T10:18:23Z</time>
      </trkpt>
      <trkpt lat="45.07961" lon="6.11569">
        <ele>1771.4</ele>
        <time>2026-08-25T10:18:24Z</time>
      </trkpt>
      <trkpt lat="45.07962" lon="6.11564">
        <ele>1771.6</ele>
        <time>2026-08-25T10:18:25Z</time>
      </trkpt>
      <trkpt lat="45.07963" lon="6.11559">
        <ele>1771.8</ele>
        <time>2026-08-25T10:18:26Z</time>
      </trkpt>
      <trkpt lat="45.07964" lon="6.11554">
        <ele>1772</ele>
        <time>2026-08-25T10:18:27Z</time>
      </trkpt>
      <trkpt lat="45.07965" lon="6.11549">
        <ele>1772.3</ele>
        <time>2026-08-25T10:18:28Z</time>
      </trkpt>
      <trkpt lat="45.07966" lon="6.11545">
        <ele>1772.5</ele>
        <time>2026-08-25T10:18:29Z</time>
      </trkpt>
      <trkpt lat="45.07968" lon="6.1154">
        <ele>1772.7</ele>
        <time>2026-08-25T10:18:30Z</time>
      </trkpt>
      <trkpt lat="45.07969" lon="6.11537">
        <ele>1772.9</ele>
        <time>2026-08-25T10:18:31Z</time>
      </trkpt>
      <trkpt lat="45.07971" lon="6.11533">
        <ele>1773</ele>
        <time>2026-08-25T10:18:32Z</time>
      </trkpt>
      <trkpt lat="45.07972" lon="6.11529">
        <ele>1773.2</ele>
        <time>2026-08-25T10:18:33Z</time>
      </trkpt>
      <trkpt lat="45.07974" lon="6.11525">
        <ele>1773.4</ele>
        <time>2026-08-25T10:18:34Z</time>
      </trkpt>
      <trkpt lat="45.07975" lon="6.11521">
        <ele>1773.6</ele>
        <time>2026-08-25T10:18:35Z</time>
      </trkpt>
      <trkpt lat="45.07976" lon="6.11517">
        <ele>1773.8</ele>
        <time>2026-08-25T10:18:36Z</time>
      </trkpt>
      <trkpt lat="45.07978" lon="6.11514">
        <ele>1773.9</ele>
        <time>2026-08-25T10:18:37Z</time>
      </trkpt>
      <trkpt lat="45.07979" lon="6.1151">
        <ele>1774.1</ele>
        <time>2026-08-25T10:18:38Z</time>
      </trkpt>
      <trkpt lat="45.0798" lon="6.11506">
        <ele>1774.2</ele>
        <time>2026-08-25T10:18:39Z</time>
      </trkpt>
      <trkpt lat="45.07981" lon="6.11502">
        <ele>1774.4</ele>
        <time>2026-08-25T10:18:40Z</time>
      </trkpt>
      <trkpt lat="45.07983" lon="6.11498">
        <ele>1774.5</ele>
        <time>2026-08-25T10:18:41Z</time>
      </trkpt>
      <trkpt lat="45.07985" lon="6.11494">
        <ele>1774.7</ele>
        <time>2026-08-25T10:18:42Z</time>
      </trkpt>
      <trkpt lat="45.07986" lon="6.1149">
        <ele>1774.9</ele>
        <time>2026-08-25T10:18:43Z</time>
      </trkpt>
      <trkpt lat="45.07987" lon="6.11486">
        <ele>1775</ele>
        <time>2026-08-25T10:18:44Z</time>
      </trkpt>
      <trkpt lat="45.07989" lon="6.11482">
        <ele>1775.2</ele>
        <time>2026-08-25T10:18:45Z</time>
      </trkpt>
      <trkpt lat="45.0799" lon="6.11478">
        <ele>1775.4</ele>
        <time>2026-08-25T10:18:46Z</time>
      </trkpt>
      <trkpt lat="45.07991" lon="6.11475">
        <ele>1775.5</ele>
        <time>2026-08-25T10:18:47Z</time>
      </trkpt>
      <trkpt lat="45.07992" lon="6.11471">
        <ele>1775.7</ele>
        <time>2026-08-25T10:18:48Z</time>
      </trkpt>
      <trkpt lat="45.07993" lon="6.11467">
        <ele>1775.9</ele>
        <time>2026-08-25T10:18:49Z</time>
      </trkpt>
      <trkpt lat="45.07994" lon="6.11463">
        <ele>1776.1</ele>
        <time>2026-08-25T10:18:50Z</time>
      </trkpt>
      <trkpt lat="45.07995" lon="6.11459">
        <ele>1776.3</ele>
        <time>2026-08-25T10:18:51Z</time>
      </trkpt>
      <trkpt lat="45.07996" lon="6.11455">
        <ele>1776.5</ele>
        <time>2026-08-25T10:18:52Z</time>
      </trkpt>
      <trkpt lat="45.07998" lon="6.11451">
        <ele>1776.7</ele>
        <time>2026-08-25T10:18:53Z</time>
      </trkpt>
      <trkpt lat="45.07999" lon="6.11448">
        <ele>1776.8</ele>
        <time>2026-08-25T10:18:54Z</time>
      </trkpt>
      <trkpt lat="45.08001" lon="6.11445">
        <ele>1777</ele>
        <time>2026-08-25T10:18:55Z</time>
      </trkpt>
      <trkpt lat="45.08003" lon="6.11442">
        <ele>1777.2</ele>
        <time>2026-08-25T10:18:56Z</time>
      </trkpt>
      <trkpt lat="45.08005" lon="6.11439">
        <ele>1777.3</ele>
        <time>2026-08-25T10:18:57Z</time>
      </trkpt>
      <trkpt lat="45.08006" lon="6.11436">
        <ele>1777.5</ele>
        <time>2026-08-25T10:18:58Z</time>
      </trkpt>
      <trkpt lat="45.08012" lon="6.11426">
        <ele>1778</ele>
        <time>2026-08-25T10:19:01Z</time>
      </trkpt>
      <trkpt lat="45.08012" lon="6.11426">
        <ele>1778</ele>
        <time>2026-08-25T10:19:02Z</time>
      </trkpt>
      <trkpt lat="45.08013" lon="6.11422">
        <ele>1778.1</ele>
        <time>2026-08-25T10:19:03Z</time>
      </trkpt>
      <trkpt lat="45.08014" lon="6.11418">
        <ele>1778.2</ele>
        <time>2026-08-25T10:19:04Z</time>
      </trkpt>
      <trkpt lat="45.08016" lon="6.11414">
        <ele>1778.4</ele>
        <time>2026-08-25T10:19:05Z</time>
      </trkpt>
      <trkpt lat="45.08017" lon="6.1141">
        <ele>1778.5</ele>
        <time>2026-08-25T10:19:06Z</time>
      </trkpt>
      <trkpt lat="45.08018" lon="6.11406">
        <ele>1778.7</ele>
        <time>2026-08-25T10:19:07Z</time>
      </trkpt>
      <trkpt lat="45.08019" lon="6.11401">
        <ele>1778.8</ele>
        <time>2026-08-25T10:19:08Z</time>
      </trkpt>
      <trkpt lat="45.0802" lon="6.11396">
        <ele>1778.9</ele>
        <time>2026-08-25T10:19:09Z</time>
      </trkpt>
      <trkpt lat="45.08021" lon="6.11392">
        <ele>1779.1</ele>
        <time>2026-08-25T10:19:10Z</time>
      </trkpt>
      <trkpt lat="45.08021" lon="6.11387">
        <ele>1779.2</ele>
        <time>2026-08-25T10:19:11Z</time>
      </trkpt>
      <trkpt lat="45.08022" lon="6.11382">
        <ele>1779.4</ele>
        <time>2026-08-25T10:19:12Z</time>
      </trkpt>
      <trkpt lat="45.08023" lon="6.11377">
        <ele>1779.6</ele>
        <time>2026-08-25T10:19:13Z</time>
      </trkpt>
      <trkpt lat="45.08023" lon="6.11372">
        <ele>1779.7</ele>
        <time>2026-08-25T10:19:14Z</time>
      </trkpt>
      <trkpt lat="45.08023" lon="6.11367">
        <ele>1779.9</ele>
        <time>2026-08-25T10:19:15Z</time>
      </trkpt>
      <trkpt lat="45.08024" lon="6.11362">
        <ele>1780</ele>
        <time>2026-08-25T10:19:16Z</time>
      </trkpt>
      <trkpt lat="45.08025" lon="6.11358">
        <ele>1780.2</ele>
        <time>2026-08-25T10:19:17Z</time>
      </trkpt>
      <trkpt lat="45.08027" lon="6.11353">
        <ele>1780.4</ele>
        <time>2026-08-25T10:19:18Z</time>
      </trkpt>
      <trkpt lat="45.08028" lon="6.11348">
        <ele>1780.5</ele>
        <time>2026-08-25T10:19:19Z</time>
      </trkpt>
      <trkpt lat="45.0803" lon="6.11343">
        <ele>1780.7</ele>
        <time>2026-08-25T10:19:20Z</time>
      </trkpt>
      <trkpt lat="45.08031" lon="6.11338">
        <ele>1780.9</ele>
        <time>2026-08-25T10:19:21Z</time>
      </trkpt>
      <trkpt lat="45.08033" lon="6.11333">
        <ele>1781.1</ele>
        <time>2026-08-25T10:19:22Z</time>
      </trkpt>
      <trkpt lat="45.08034" lon="6.11328">
        <ele>1781.3</ele>
        <time>2026-08-25T10:19:23Z</time>
      </trkpt>
      <trkpt lat="45.08035" lon="6.11323">
        <ele>1781.5</ele>
        <time>2026-08-25T10:19:24Z</time>
      </trkpt>
      <trkpt lat="45.08036" lon="6.11318">
        <ele>1781.7</ele>
        <time>2026-08-25T10:19:25Z</time>
      </trkpt>
      <trkpt lat="45.08038" lon="6.11312">
        <ele>1781.8</ele>
        <time>2026-08-25T10:19:26Z</time>
      </trkpt>
      <trkpt lat="45.08039" lon="6.11307">
        <ele>1782</ele>
        <time>2026-08-25T10:19:27Z</time>
      </trkpt>
      <trkpt lat="45.08039" lon="6.11302">
        <ele>1782.2</ele>
        <time>2026-08-25T10:19:28Z</time>
      </trkpt>
      <trkpt lat="45.0804" lon="6.11297">
        <ele>1782.4</ele>
        <time>2026-08-25T10:19:29Z</time>
      </trkpt>
      <trkpt lat="45.0804" lon="6.11292">
        <ele>1782.5</ele>
        <time>2026-08-25T10:19:30Z</time>
      </trkpt>
      <trkpt lat="45.0804" lon="6.11288">
        <ele>1782.7</ele>
        <time>2026-08-25T10:19:31Z</time>
      </trkpt>
      <trkpt lat="45.0804" lon="6.11283">
        <ele>1782.8</ele>
        <time>2026-08-25T10:19:32Z</time>
      </trkpt>
      <trkpt lat="45.08039" lon="6.11278">
        <ele>1783</ele>
        <time>2026-08-25T10:19:33Z</time>
      </trkpt>
      <trkpt lat="45.08039" lon="6.11272">
        <ele>1783.1</ele>
        <time>2026-08-25T10:19:34Z</time>
      </trkpt>
      <trkpt lat="45.08038" lon="6.11267">
        <ele>1783.2</ele>
        <time>2026-08-25T10:19:35Z</time>
      </trkpt>
      <trkpt lat="45.08038" lon="6.11261">
        <ele>1783.3</ele>
        <time>2026-08-25T10:19:36Z</time>
      </trkpt>
      <trkpt lat="45.08037" lon="6.11255">
        <ele>1783.4</ele>
        <time>2026-08-25T10:19:37Z</time>
      </trkpt>
      <trkpt lat="45.08036" lon="6.11249">
        <ele>1783.5</ele>
        <time>2026-08-25T10:19:38Z</time>
      </trkpt>
      <trkpt lat="45.08036" lon="6.11244">
        <ele>1783.5</ele>
        <time>2026-08-25T10:19:39Z</time>
      </trkpt>
      <trkpt lat="45.08035" lon="6.11237">
        <ele>1783.6</ele>
        <time>2026-08-25T10:19:40Z</time>
      </trkpt>
      <trkpt lat="45.08034" lon="6.11231">
        <ele>1783.6</ele>
        <time>2026-08-25T10:19:41Z</time>
      </trkpt>
      <trkpt lat="45.08034" lon="6.11224">
        <ele>1783.6</ele>
        <time>2026-08-25T10:19:42Z</time>
      </trkpt>
      <trkpt lat="45.08034" lon="6.11217">
        <ele>1783.6</ele>
        <time>2026-08-25T10:19:43Z</time>
      </trkpt>
      <trkpt lat="45.08033" lon="6.1121">
        <ele>1783.6</ele>
        <time>2026-08-25T10:19:44Z</time>
      </trkpt>
      <trkpt lat="45.08033" lon="6.11202">
        <ele>1783.6</ele>
        <time>2026-08-25T10:19:45Z</time>
      </trkpt>
      <trkpt lat="45.08033" lon="6.11194">
        <ele>1783.6</ele>
        <time>2026-08-25T10:19:46Z</time>
      </trkpt>
      <trkpt lat="45.08034" lon="6.11186">
        <ele>1783.6</ele>
        <time>2026-08-25T10:19:47Z</time>
      </trkpt>
      <trkpt lat="45.08034" lon="6.11178">
        <ele>1783.6</ele>
        <time>2026-08-25T10:19:48Z</time>
      </trkpt>
      <trkpt lat="45.08034" lon="6.11169">
        <ele>1783.6</ele>
        <time>2026-08-25T10:19:49Z</time>
      </trkpt>
      <trkpt lat="45.08034" lon="6.11161">
        <ele>1783.6</ele>
        <time>2026-08-25T10:19:50Z</time>
      </trkpt>
      <trkpt lat="45.08034" lon="6.11151">
        <ele>1783.5</ele>
        <time>2026-08-25T10:19:51Z</time>
      </trkpt>
      <trkpt lat="45.08034" lon="6.11141">
        <ele>1783.5</ele>
        <time>2026-08-25T10:19:52Z</time>
      </trkpt>
      <trkpt lat="45.08034" lon="6.11131">
        <ele>1783.5</ele>
        <time>2026-08-25T10:19:53Z</time>
      </trkpt>
      <trkpt lat="45.08034" lon="6.11119">
        <ele>1783.4</ele>
        <time>2026-08-25T10:19:54Z</time>
      </trkpt>
      <trkpt lat="45.08033" lon="6.11107">
        <ele>1783.4</ele>
        <time>2026-08-25T10:19:55Z</time>
      </trkpt>
      <trkpt lat="45.08032" lon="6.11096">
        <ele>1783.4</ele>
        <time>2026-08-25T10:19:56Z</time>
      </trkpt>
      <trkpt lat="45.0803" lon="6.11085">
        <ele>1783.5</ele>
        <time>2026-08-25T10:19:57Z</time>
      </trkpt>
      <trkpt lat="45.08027" lon="6.11074">
        <ele>1783.6</ele>
        <time>2026-08-25T10:19:58Z</time>
      </trkpt>
      <trkpt lat="45.08024" lon="6.11062">
        <ele>1783.7</ele>
        <time>2026-08-25T10:19:59Z</time>
      </trkpt>
      <trkpt lat="45.08023" lon="6.11051">
        <ele>1783.7</ele>
        <time>2026-08-25T10:20:00Z</time>
      </trkpt>
      <trkpt lat="45.08022" lon="6.1104">
        <ele>1783.7</ele>
        <time>2026-08-25T10:20:01Z</time>
      </trkpt>
      <trkpt lat="45.08021" lon="6.11028">
        <ele>1783.8</ele>
        <time>2026-08-25T10:20:02Z</time>
      </trkpt>
      <trkpt lat="45.0802" lon="6.11018">
        <ele>1783.8</ele>
        <time>2026-08-25T10:20:03Z</time>
      </trkpt>
      <trkpt lat="45.08018" lon="6.11008">
        <ele>1783.9</ele>
        <time>2026-08-25T10:20:04Z</time>
      </trkpt>
      <trkpt lat="45.08018" lon="6.10998">
        <ele>1784</ele>
        <time>2026-08-25T10:20:05Z</time>
      </trkpt>
      <trkpt lat="45.0802" lon="6.1099">
        <ele>1784.1</ele>
        <time>2026-08-25T10:20:06Z</time>
      </trkpt>
      <trkpt lat="45.08025" lon="6.10983">
        <ele>1784.3</ele>
        <time>2026-08-25T10:20:07Z</time>
      </trkpt>
      <trkpt lat="45.08029" lon="6.10976">
        <ele>1784.4</ele>
        <time>2026-08-25T10:20:08Z</time>
      </trkpt>
      <trkpt lat="45.08035" lon="6.10971">
        <ele>1784.7</ele>
        <time>2026-08-25T10:20:09Z</time>
      </trkpt>
      <trkpt lat="45.0804" lon="6.10964">
        <ele>1785.1</ele>
        <time>2026-08-25T10:20:10Z</time>
      </trkpt>
      <trkpt lat="45.08044" lon="6.10958">
        <ele>1785.4</ele>
        <time>2026-08-25T10:20:11Z</time>
      </trkpt>
      <trkpt lat="45.08049" lon="6.10953">
        <ele>1785.8</ele>
        <time>2026-08-25T10:20:12Z</time>
      </trkpt>
      <trkpt lat="45.08053" lon="6.10949">
        <ele>1786.2</ele>
        <time>2026-08-25T10:20:13Z</time>
      </trkpt>
      <trkpt lat="45.08056" lon="6.10946">
        <ele>1786.5</ele>
        <time>2026-08-25T10:20:14Z</time>
      </trkpt>
      <trkpt lat="45.08059" lon="6.10943">
        <ele>1786.8</ele>
        <time>2026-08-25T10:20:15Z</time>
      </trkpt>
      <trkpt lat="45.08061" lon="6.10941">
        <ele>1787</ele>
        <time>2026-08-25T10:20:16Z</time>
      </trkpt>
      <trkpt lat="45.08062" lon="6.10939">
        <ele>1787.2</ele>
        <time>2026-08-25T10:20:17Z</time>
      </trkpt>
      <trkpt lat="45.08063" lon="6.1094">
        <ele>1787.2</ele>
        <time>2026-08-25T10:20:18Z</time>
      </trkpt>
      <trkpt lat="45.08064" lon="6.1094">
        <ele>1787.3</ele>
        <time>2026-08-25T10:20:19Z</time>
      </trkpt>
      <trkpt lat="45.08065" lon="6.10936">
        <ele>1787.6</ele>
        <time>2026-08-25T10:20:41Z</time>
      </trkpt>
      <trkpt lat="45.08066" lon="6.10934">
        <ele>1787.8</ele>
        <time>2026-08-25T10:20:42Z</time>
      </trkpt>
      <trkpt lat="45.08068" lon="6.10934">
        <ele>1787.9</ele>
        <time>2026-08-25T10:20:43Z</time>
      </trkpt>
      <trkpt lat="45.08071" lon="6.10935">
        <ele>1788.2</ele>
        <time>2026-08-25T10:20:44Z</time>
      </trkpt>
      <trkpt lat="45.08073" lon="6.10933">
        <ele>1788.4</ele>
        <time>2026-08-25T10:20:45Z</time>
      </trkpt>
      <trkpt lat="45.08074" lon="6.1093">
        <ele>1788.6</ele>
        <time>2026-08-25T10:20:46Z</time>
      </trkpt>
      <trkpt lat="45.08075" lon="6.10928">
        <ele>1788.8</ele>
        <time>2026-08-25T10:20:47Z</time>
      </trkpt>
      <trkpt lat="45.08077" lon="6.10927">
        <ele>1789</ele>
        <time>2026-08-25T10:20:48Z</time>
      </trkpt>
      <trkpt lat="45.08078" lon="6.10927">
        <ele>1789.1</ele>
        <time>2026-08-25T10:20:49Z</time>
      </trkpt>
      <trkpt lat="45.08081" lon="6.10926">
        <ele>1789.4</ele>
        <time>2026-08-25T10:20:50Z</time>
      </trkpt>
      <trkpt lat="45.08083" lon="6.10924">
        <ele>1789.6</ele>
        <time>2026-08-25T10:20:51Z</time>
      </trkpt>
      <trkpt lat="45.08087" lon="6.10922">
        <ele>1790</ele>
        <time>2026-08-25T10:20:52Z</time>
      </trkpt>
      <trkpt lat="45.08092" lon="6.1092">
        <ele>1790.5</ele>
        <time>2026-08-25T10:20:53Z</time>
      </trkpt>
      <trkpt lat="45.08096" lon="6.10917">
        <ele>1790.9</ele>
        <time>2026-08-25T10:20:54Z</time>
      </trkpt>
      <trkpt lat="45.081" lon="6.10915">
        <ele>1791.4</ele>
        <time>2026-08-25T10:20:55Z</time>
      </trkpt>
      <trkpt lat="45.08105" lon="6.10912">
        <ele>1791.8</ele>
        <time>2026-08-25T10:20:56Z</time>
      </trkpt>
      <trkpt lat="45.08111" lon="6.1091">
        <ele>1792.3</ele>
        <time>2026-08-25T10:20:57Z</time>
      </trkpt>
      <trkpt lat="45.08116" lon="6.10908">
        <ele>1792.8</ele>
        <time>2026-08-25T10:20:58Z</time>
      </trkpt>
      <trkpt lat="45.08122" lon="6.10907">
        <ele>1793.2</ele>
        <time>2026-08-25T10:20:59Z</time>
      </trkpt>
      <trkpt lat="45.08127" lon="6.10906">
        <ele>1793.5</ele>
        <time>2026-08-25T10:21:00Z</time>
      </trkpt>
      <trkpt lat="45.08132" lon="6.10906">
        <ele>1793.8</ele>
        <time>2026-08-25T10:21:01Z</time>
      </trkpt>
      <trkpt lat="45.08137" lon="6.10906">
        <ele>1794.1</ele>
        <time>2026-08-25T10:21:02Z</time>
      </trkpt>
      <trkpt lat="45.08141" lon="6.10906">
        <ele>1794.4</ele>
        <time>2026-08-25T10:21:03Z</time>
      </trkpt>
      <trkpt lat="45.08146" lon="6.10906">
        <ele>1794.7</ele>
        <time>2026-08-25T10:21:04Z</time>
      </trkpt>
      <trkpt lat="45.0815" lon="6.10907">
        <ele>1795</ele>
        <time>2026-08-25T10:21:05Z</time>
      </trkpt>
      <trkpt lat="45.08155" lon="6.10907">
        <ele>1795.4</ele>
        <time>2026-08-25T10:21:06Z</time>
      </trkpt>
      <trkpt lat="45.08159" lon="6.10907">
        <ele>1795.7</ele>
        <time>2026-08-25T10:21:07Z</time>
      </trkpt>
      <trkpt lat="45.08164" lon="6.10906">
        <ele>1796</ele>
        <time>2026-08-25T10:21:08Z</time>
      </trkpt>
      <trkpt lat="45.08168" lon="6.10906">
        <ele>1796.3</ele>
        <time>2026-08-25T10:21:09Z</time>
      </trkpt>
      <trkpt lat="45.08172" lon="6.10904">
        <ele>1796.6</ele>
        <time>2026-08-25T10:21:10Z</time>
      </trkpt>
      <trkpt lat="45.08176" lon="6.10901">
        <ele>1796.9</ele>
        <time>2026-08-25T10:21:11Z</time>
      </trkpt>
      <trkpt lat="45.0818" lon="6.10899">
        <ele>1797.3</ele>
        <time>2026-08-25T10:21:12Z</time>
      </trkpt>
      <trkpt lat="45.08184" lon="6.10897">
        <ele>1797.6</ele>
        <time>2026-08-25T10:21:13Z</time>
      </trkpt>
      <trkpt lat="45.08187" lon="6.10895">
        <ele>1797.9</ele>
        <time>2026-08-25T10:21:14Z</time>
      </trkpt>
      <trkpt lat="45.08191" lon="6.10892">
        <ele>1798.2</ele>
        <time>2026-08-25T10:21:15Z</time>
      </trkpt>
      <trkpt lat="45.08195" lon="6.1089">
        <ele>1798.5</ele>
        <time>2026-08-25T10:21:16Z</time>
      </trkpt>
      <trkpt lat="45.08199" lon="6.10887">
        <ele>1798.8</ele>
        <time>2026-08-25T10:21:17Z</time>
      </trkpt>
      <trkpt lat="45.08202" lon="6.10884">
        <ele>1799.1</ele>
        <time>2026-08-25T10:21:18Z</time>
      </trkpt>
      <trkpt lat="45.08205" lon="6.10881">
        <ele>1799.5</ele>
        <time>2026-08-25T10:21:19Z</time>
      </trkpt>
      <trkpt lat="45.08209" lon="6.10878">
        <ele>1799.8</ele>
        <time>2026-08-25T10:21:20Z</time>
      </trkpt>
      <trkpt lat="45.08212" lon="6.10875">
        <ele>1800.1</ele>
        <time>2026-08-25T10:21:21Z</time>
      </trkpt>
      <trkpt lat="45.08214" lon="6.10871">
        <ele>1800.5</ele>
        <time>2026-08-25T10:21:22Z</time>
      </trkpt>
      <trkpt lat="45.08216" lon="6.10868">
        <ele>1800.8</ele>
        <time>2026-08-25T10:21:23Z</time>
      </trkpt>
      <trkpt lat="45.08218" lon="6.10865">
        <ele>1801</ele>
        <time>2026-08-25T10:21:24Z</time>
      </trkpt>
      <trkpt lat="45.08221" lon="6.10861">
        <ele>1801.3</ele>
        <time>2026-08-25T10:21:25Z</time>
      </trkpt>
      <trkpt lat="45.08223" lon="6.10858">
        <ele>1801.6</ele>
        <time>2026-08-25T10:21:26Z</time>
      </trkpt>
      <trkpt lat="45.08225" lon="6.10856">
        <ele>1801.9</ele>
        <time>2026-08-25T10:21:27Z</time>
      </trkpt>
      <trkpt lat="45.08227" lon="6.10853">
        <ele>1802.1</ele>
        <time>2026-08-25T10:21:28Z</time>
      </trkpt>
      <trkpt lat="45.08229" lon="6.1085">
        <ele>1802.4</ele>
        <time>2026-08-25T10:21:29Z</time>
      </trkpt>
      <trkpt lat="45.08231" lon="6.10848">
        <ele>1802.6</ele>
        <time>2026-08-25T10:21:30Z</time>
      </trkpt>
      <trkpt lat="45.08233" lon="6.10846">
        <ele>1802.8</ele>
        <time>2026-08-25T10:21:31Z</time>
      </trkpt>
      <trkpt lat="45.08235" lon="6.10843">
        <ele>1803.1</ele>
        <time>2026-08-25T10:21:32Z</time>
      </trkpt>
      <trkpt lat="45.08238" lon="6.10841">
        <ele>1803.3</ele>
        <time>2026-08-25T10:21:33Z</time>
      </trkpt>
      <trkpt lat="45.0824" lon="6.10839">
        <ele>1803.6</ele>
        <time>2026-08-25T10:21:34Z</time>
      </trkpt>
      <trkpt lat="45.08243" lon="6.10837">
        <ele>1803.8</ele>
        <time>2026-08-25T10:21:35Z</time>
      </trkpt>
      <trkpt lat="45.08245" lon="6.10834">
        <ele>1804.1</ele>
        <time>2026-08-25T10:21:36Z</time>
      </trkpt>
      <trkpt lat="45.08248" lon="6.10832">
        <ele>1804.3</ele>
        <time>2026-08-25T10:21:37Z</time>
      </trkpt>
      <trkpt lat="45.08251" lon="6.10829">
        <ele>1804.6</ele>
        <time>2026-08-25T10:21:38Z</time>
      </trkpt>
      <trkpt lat="45.08253" lon="6.10827">
        <ele>1804.9</ele>
        <time>2026-08-25T10:21:39Z</time>
      </trkpt>
      <trkpt lat="45.08256" lon="6.10825">
        <ele>1805.1</ele>
        <time>2026-08-25T10:21:40Z</time>
      </trkpt>
      <trkpt lat="45.08259" lon="6.10823">
        <ele>1805.4</ele>
        <time>2026-08-25T10:21:41Z</time>
      </trkpt>
      <trkpt lat="45.08261" lon="6.1082">
        <ele>1805.6</ele>
        <time>2026-08-25T10:21:42Z</time>
      </trkpt>
      <trkpt lat="45.08263" lon="6.10817">
        <ele>1805.9</ele>
        <time>2026-08-25T10:21:43Z</time>
      </trkpt>
      <trkpt lat="45.08265" lon="6.10815">
        <ele>1806.1</ele>
        <time>2026-08-25T10:21:44Z</time>
      </trkpt>
      <trkpt lat="45.08267" lon="6.10812">
        <ele>1806.4</ele>
        <time>2026-08-25T10:21:45Z</time>
      </trkpt>
      <trkpt lat="45.08269" lon="6.10809">
        <ele>1806.7</ele>
        <time>2026-08-25T10:21:46Z</time>
      </trkpt>
      <trkpt lat="45.08272" lon="6.10807">
        <ele>1806.9</ele>
        <time>2026-08-25T10:21:47Z</time>
      </trkpt>
      <trkpt lat="45.08274" lon="6.10805">
        <ele>1807.2</ele>
        <time>2026-08-25T10:21:48Z</time>
      </trkpt>
      <trkpt lat="45.08276" lon="6.10802">
        <ele>1807.4</ele>
        <time>2026-08-25T10:21:49Z</time>
      </trkpt>
      <trkpt lat="45.08279" lon="6.108">
        <ele>1807.7</ele>
        <time>2026-08-25T10:21:50Z</time>
      </trkpt>
      <trkpt lat="45.08281" lon="6.10798">
        <ele>1808</ele>
        <time>2026-08-25T10:21:51Z</time>
      </trkpt>
      <trkpt lat="45.08283" lon="6.10795">
        <ele>1808.3</ele>
        <time>2026-08-25T10:21:52Z</time>
      </trkpt>
      <trkpt lat="45.08286" lon="6.10792">
        <ele>1808.6</ele>
        <time>2026-08-25T10:21:53Z</time>
      </trkpt>
      <trkpt lat="45.08288" lon="6.10789">
        <ele>1808.9</ele>
        <time>2026-08-25T10:21:54Z</time>
      </trkpt>
      <trkpt lat="45.0829" lon="6.10787">
        <ele>1809.2</ele>
        <time>2026-08-25T10:21:55Z</time>
      </trkpt>
      <trkpt lat="45.08293" lon="6.10784">
        <ele>1809.4</ele>
        <time>2026-08-25T10:21:56Z</time>
      </trkpt>
      <trkpt lat="45.08295" lon="6.10782">
        <ele>1809.7</ele>
        <time>2026-08-25T10:21:57Z</time>
      </trkpt>
      <trkpt lat="45.08297" lon="6.1078">
        <ele>1810</ele>
        <time>2026-08-25T10:21:58Z</time>
      </trkpt>
      <trkpt lat="45.083" lon="6.10777">
        <ele>1810.2</ele>
        <time>2026-08-25T10:21:59Z</time>
      </trkpt>
      <trkpt lat="45.08303" lon="6.10775">
        <ele>1810.6</ele>
        <time>2026-08-25T10:22:00Z</time>
      </trkpt>
      <trkpt lat="45.08305" lon="6.10772">
        <ele>1810.8</ele>
        <time>2026-08-25T10:22:01Z</time>
      </trkpt>
      <trkpt lat="45.08308" lon="6.1077">
        <ele>1811.1</ele>
        <time>2026-08-25T10:22:02Z</time>
      </trkpt>
      <trkpt lat="45.0831" lon="6.10768">
        <ele>1811.3</ele>
        <time>2026-08-25T10:22:03Z</time>
      </trkpt>
      <trkpt lat="45.08313" lon="6.10766">
        <ele>1811.5</ele>
        <time>2026-08-25T10:22:04Z</time>
      </trkpt>
      <trkpt lat="45.08315" lon="6.10764">
        <ele>1811.8</ele>
        <time>2026-08-25T10:22:05Z</time>
      </trkpt>
      <trkpt lat="45.08318" lon="6.10763">
        <ele>1812</ele>
        <time>2026-08-25T10:22:06Z</time>
      </trkpt>
      <trkpt lat="45.08321" lon="6.10761">
        <ele>1812.2</ele>
        <time>2026-08-25T10:22:07Z</time>
      </trkpt>
      <trkpt lat="45.08323" lon="6.10759">
        <ele>1812.4</ele>
        <time>2026-08-25T10:22:08Z</time>
      </trkpt>
      <trkpt lat="45.08326" lon="6.10757">
        <ele>1812.6</ele>
        <time>2026-08-25T10:22:09Z</time>
      </trkpt>
      <trkpt lat="45.08328" lon="6.10756">
        <ele>1812.8</ele>
        <time>2026-08-25T10:22:10Z</time>
      </trkpt>
      <trkpt lat="45.0833" lon="6.10754">
        <ele>1813</ele>
        <time>2026-08-25T10:22:11Z</time>
      </trkpt>
      <trkpt lat="45.08332" lon="6.10752">
        <ele>1813.2</ele>
        <time>2026-08-25T10:22:12Z</time>
      </trkpt>
      <trkpt lat="45.08335" lon="6.10751">
        <ele>1813.4</ele>
        <time>2026-08-25T10:22:13Z</time>
      </trkpt>
      <trkpt lat="45.08337" lon="6.10749">
        <ele>1813.6</ele>
        <time>2026-08-25T10:22:14Z</time>
      </trkpt>
      <trkpt lat="45.08339" lon="6.10747">
        <ele>1813.8</ele>
        <time>2026-08-25T10:22:15Z</time>
      </trkpt>
      <trkpt lat="45.08342" lon="6.10746">
        <ele>1814</ele>
        <time>2026-08-25T10:22:16Z</time>
      </trkpt>
      <trkpt lat="45.08344" lon="6.10745">
        <ele>1814.2</ele>
        <time>2026-08-25T10:22:17Z</time>
      </trkpt>
      <trkpt lat="45.08346" lon="6.10743">
        <ele>1814.4</ele>
        <time>2026-08-25T10:22:18Z</time>
      </trkpt>
      <trkpt lat="45.08349" lon="6.10742">
        <ele>1814.6</ele>
        <time>2026-08-25T10:22:19Z</time>
      </trkpt>
      <trkpt lat="45.08351" lon="6.10741">
        <ele>1814.8</ele>
        <time>2026-08-25T10:22:20Z</time>
      </trkpt>
      <trkpt lat="45.08353" lon="6.1074">
        <ele>1815</ele>
        <time>2026-08-25T10:22:21Z</time>
      </trkpt>
      <trkpt lat="45.08355" lon="6.10739">
        <ele>1815.3</ele>
        <time>2026-08-25T10:22:22Z</time>
      </trkpt>
      <trkpt lat="45.08358" lon="6.10738">
        <ele>1815.5</ele>
        <time>2026-08-25T10:22:23Z</time>
      </trkpt>
      <trkpt lat="45.0836" lon="6.10737">
        <ele>1815.7</ele>
        <time>2026-08-25T10:22:24Z</time>
      </trkpt>
      <trkpt lat="45.08363" lon="6.10736">
        <ele>1815.9</ele>
        <time>2026-08-25T10:22:25Z</time>
      </trkpt>
      <trkpt lat="45.08365" lon="6.10735">
        <ele>1816.2</ele>
        <time>2026-08-25T10:22:26Z</time>
      </trkpt>
      <trkpt lat="45.08367" lon="6.10734">
        <ele>1816.4</ele>
        <time>2026-08-25T10:22:27Z</time>
      </trkpt>
      <trkpt lat="45.08369" lon="6.10733">
        <ele>1816.6</ele>
        <time>2026-08-25T10:22:28Z</time>
      </trkpt>
      <trkpt lat="45.08372" lon="6.10732">
        <ele>1816.8</ele>
        <time>2026-08-25T10:22:29Z</time>
      </trkpt>
      <trkpt lat="45.08374" lon="6.10731">
        <ele>1817.1</ele>
        <time>2026-08-25T10:22:30Z</time>
      </trkpt>
      <trkpt lat="45.08376" lon="6.1073">
        <ele>1817.3</ele>
        <time>2026-08-25T10:22:31Z</time>
      </trkpt>
      <trkpt lat="45.08378" lon="6.10729">
        <ele>1817.6</ele>
        <time>2026-08-25T10:22:32Z</time>
      </trkpt>
      <trkpt lat="45.0838" lon="6.10728">
        <ele>1817.8</ele>
        <time>2026-08-25T10:22:33Z</time>
      </trkpt>
      <trkpt lat="45.08381" lon="6.10727">
        <ele>1818</ele>
        <time>2026-08-25T10:22:34Z</time>
      </trkpt>
      <trkpt lat="45.08382" lon="6.10725">
        <ele>1818.1</ele>
        <time>2026-08-25T10:22:35Z</time>
      </trkpt>
      <trkpt lat="45.08384" lon="6.10724">
        <ele>1818.3</ele>
        <time>2026-08-25T10:22:36Z</time>
      </trkpt>
      <trkpt lat="45.08385" lon="6.10723">
        <ele>1818.5</ele>
        <time>2026-08-25T10:22:37Z</time>
      </trkpt>
      <trkpt lat="45.08387" lon="6.10721">
        <ele>1818.7</ele>
        <time>2026-08-25T10:22:38Z</time>
      </trkpt>
      <trkpt lat="45.08388" lon="6.10719">
        <ele>1818.9</ele>
        <time>2026-08-25T10:22:39Z</time>
      </trkpt>
      <trkpt lat="45.0839" lon="6.10717">
        <ele>1819.1</ele>
        <time>2026-08-25T10:22:40Z</time>
      </trkpt>
      <trkpt lat="45.08391" lon="6.10716">
        <ele>1819.3</ele>
        <time>2026-08-25T10:22:41Z</time>
      </trkpt>
      <trkpt lat="45.08392" lon="6.10714">
        <ele>1819.5</ele>
        <time>2026-08-25T10:22:42Z</time>
      </trkpt>
      <trkpt lat="45.08393" lon="6.10711">
        <ele>1819.6</ele>
        <time>2026-08-25T10:22:43Z</time>
      </trkpt>
      <trkpt lat="45.08393" lon="6.10708">
        <ele>1819.9</ele>
        <time>2026-08-25T10:22:44Z</time>
      </trkpt>
      <trkpt lat="45.08395" lon="6.10706">
        <ele>1820.1</ele>
        <time>2026-08-25T10:22:45Z</time>
      </trkpt>
      <trkpt lat="45.08396" lon="6.10704">
        <ele>1820.3</ele>
        <time>2026-08-25T10:22:46Z</time>
      </trkpt>
      <trkpt lat="45.08398" lon="6.10701">
        <ele>1820.5</ele>
        <time>2026-08-25T10:22:47Z</time>
      </trkpt>
      <trkpt lat="45.08399" lon="6.10699">
        <ele>1820.8</ele>
        <time>2026-08-25T10:22:48Z</time>
      </trkpt>
      <trkpt lat="45.08401" lon="6.10696">
        <ele>1821</ele>
        <time>2026-08-25T10:22:49Z</time>
      </trkpt>
      <trkpt lat="45.08402" lon="6.10694">
        <ele>1821.2</ele>
        <time>2026-08-25T10:22:50Z</time>
      </trkpt>
      <trkpt lat="45.08404" lon="6.10691">
        <ele>1821.4</ele>
        <time>2026-08-25T10:22:51Z</time>
      </trkpt>
      <trkpt lat="45.08405" lon="6.10689">
        <ele>1821.6</ele>
        <time>2026-08-25T10:22:52Z</time>
      </trkpt>
      <trkpt lat="45.08406" lon="6.10686">
        <ele>1821.8</ele>
        <time>2026-08-25T10:22:53Z</time>
      </trkpt>
      <trkpt lat="45.08407" lon="6.10684">
        <ele>1822</ele>
        <time>2026-08-25T10:22:54Z</time>
      </trkpt>
      <trkpt lat="45.08408" lon="6.1068">
        <ele>1822.2</ele>
        <time>2026-08-25T10:22:55Z</time>
      </trkpt>
      <trkpt lat="45.08409" lon="6.10677">
        <ele>1822.4</ele>
        <time>2026-08-25T10:22:56Z</time>
      </trkpt>
      <trkpt lat="45.0841" lon="6.10674">
        <ele>1822.6</ele>
        <time>2026-08-25T10:22:57Z</time>
      </trkpt>
      <trkpt lat="45.08411" lon="6.10671">
        <ele>1822.8</ele>
        <time>2026-08-25T10:22:58Z</time>
      </trkpt>
      <trkpt lat="45.08411" lon="6.10668">
        <ele>1823</ele>
        <time>2026-08-25T10:22:59Z</time>
      </trkpt>
      <trkpt lat="45.08412" lon="6.10666">
        <ele>1823.1</ele>
        <time>2026-08-25T10:23:00Z</time>
      </trkpt>
      <trkpt lat="45.08412" lon="6.10663">
        <ele>1823.3</ele>
        <time>2026-08-25T10:23:01Z</time>
      </trkpt>
      <trkpt lat="45.08413" lon="6.10659">
        <ele>1823.5</ele>
        <time>2026-08-25T10:23:02Z</time>
      </trkpt>
      <trkpt lat="45.08414" lon="6.10657">
        <ele>1823.7</ele>
        <time>2026-08-25T10:23:03Z</time>
      </trkpt>
      <trkpt lat="45.08414" lon="6.10654">
        <ele>1823.9</ele>
        <time>2026-08-25T10:23:04Z</time>
      </trkpt>
      <trkpt lat="45.08415" lon="6.10652">
        <ele>1824.1</ele>
        <time>2026-08-25T10:23:05Z</time>
      </trkpt>
      <trkpt lat="45.08417" lon="6.10649">
        <ele>1824.3</ele>
        <time>2026-08-25T10:23:06Z</time>
      </trkpt>
      <trkpt lat="45.08418" lon="6.10646">
        <ele>1824.5</ele>
        <time>2026-08-25T10:23:07Z</time>
      </trkpt>
      <trkpt lat="45.08419" lon="6.10644">
        <ele>1824.7</ele>
        <time>2026-08-25T10:23:08Z</time>
      </trkpt>
      <trkpt lat="45.08421" lon="6.10641">
        <ele>1824.9</ele>
        <time>2026-08-25T10:23:09Z</time>
      </trkpt>
      <trkpt lat="45.08422" lon="6.10639">
        <ele>1825</ele>
        <time>2026-08-25T10:23:10Z</time>
      </trkpt>
      <trkpt lat="45.08423" lon="6.10636">
        <ele>1825.2</ele>
        <time>2026-08-25T10:23:11Z</time>
      </trkpt>
      <trkpt lat="45.08425" lon="6.10635">
        <ele>1825.4</ele>
        <time>2026-08-25T10:23:12Z</time>
      </trkpt>
      <trkpt lat="45.08426" lon="6.10633">
        <ele>1825.6</ele>
        <time>2026-08-25T10:23:13Z</time>
      </trkpt>
      <trkpt lat="45.08428" lon="6.10631">
        <ele>1825.7</ele>
        <time>2026-08-25T10:23:14Z</time>
      </trkpt>
      <trkpt lat="45.08429" lon="6.10629">
        <ele>1825.9</ele>
        <time>2026-08-25T10:23:15Z</time>
      </trkpt>
      <trkpt lat="45.08431" lon="6.10627">
        <ele>1826.1</ele>
        <time>2026-08-25T10:23:16Z</time>
      </trkpt>
      <trkpt lat="45.08433" lon="6.10626">
        <ele>1826.2</ele>
        <time>2026-08-25T10:23:17Z</time>
      </trkpt>
      <trkpt lat="45.08435" lon="6.10624">
        <ele>1826.4</ele>
        <time>2026-08-25T10:23:18Z</time>
      </trkpt>
      <trkpt lat="45.08436" lon="6.10622">
        <ele>1826.6</ele>
        <time>2026-08-25T10:23:19Z</time>
      </trkpt>
      <trkpt lat="45.08438" lon="6.10621">
        <ele>1826.8</ele>
        <time>2026-08-25T10:23:20Z</time>
      </trkpt>
      <trkpt lat="45.0844" lon="6.10619">
        <ele>1826.9</ele>
        <time>2026-08-25T10:23:21Z</time>
      </trkpt>
      <trkpt lat="45.08441" lon="6.10618">
        <ele>1827.1</ele>
        <time>2026-08-25T10:23:22Z</time>
      </trkpt>
      <trkpt lat="45.08443" lon="6.10616">
        <ele>1827.3</ele>
        <time>2026-08-25T10:23:23Z</time>
      </trkpt>
      <trkpt lat="45.08445" lon="6.10615">
        <ele>1827.4</ele>
        <time>2026-08-25T10:23:24Z</time>
      </trkpt>
      <trkpt lat="45.08446" lon="6.10613">
        <ele>1827.6</ele>
        <time>2026-08-25T10:23:25Z</time>
      </trkpt>
      <trkpt lat="45.08448" lon="6.10611">
        <ele>1827.7</ele>
        <time>2026-08-25T10:23:26Z</time>
      </trkpt>
      <trkpt lat="45.0845" lon="6.1061">
        <ele>1827.9</ele>
        <time>2026-08-25T10:23:27Z</time>
      </trkpt>
      <trkpt lat="45.08452" lon="6.10609">
        <ele>1828.1</ele>
        <time>2026-08-25T10:23:28Z</time>
      </trkpt>
      <trkpt lat="45.08454" lon="6.10609">
        <ele>1828.3</ele>
        <time>2026-08-25T10:23:29Z</time>
      </trkpt>
      <trkpt lat="45.08456" lon="6.10608">
        <ele>1828.5</ele>
        <time>2026-08-25T10:23:30Z</time>
      </trkpt>
      <trkpt lat="45.08458" lon="6.10607">
        <ele>1828.6</ele>
        <time>2026-08-25T10:23:31Z</time>
      </trkpt>
      <trkpt lat="45.0846" lon="6.10606">
        <ele>1828.8</ele>
        <time>2026-08-25T10:23:32Z</time>
      </trkpt>
      <trkpt lat="45.08462" lon="6.10605">
        <ele>1828.9</ele>
        <time>2026-08-25T10:23:33Z</time>
      </trkpt>
      <trkpt lat="45.08464" lon="6.10605">
        <ele>1829.1</ele>
        <time>2026-08-25T10:23:34Z</time>
      </trkpt>
      <trkpt lat="45.08466" lon="6.10604">
        <ele>1829.3</ele>
        <time>2026-08-25T10:23:35Z</time>
      </trkpt>
      <trkpt lat="45.08469" lon="6.10604">
        <ele>1829.4</ele>
        <time>2026-08-25T10:23:36Z</time>
      </trkpt>
      <trkpt lat="45.08471" lon="6.10603">
        <ele>1829.6</ele>
        <time>2026-08-25T10:23:37Z</time>
      </trkpt>
      <trkpt lat="45.08473" lon="6.10603">
        <ele>1829.8</ele>
        <time>2026-08-25T10:23:38Z</time>
      </trkpt>
      <trkpt lat="45.08475" lon="6.10603">
        <ele>1829.9</ele>
        <time>2026-08-25T10:23:39Z</time>
      </trkpt>
      <trkpt lat="45.08478" lon="6.10603">
        <ele>1830.1</ele>
        <time>2026-08-25T10:23:40Z</time>
      </trkpt>
      <trkpt lat="45.0848" lon="6.10602">
        <ele>1830.3</ele>
        <time>2026-08-25T10:23:41Z</time>
      </trkpt>
      <trkpt lat="45.08482" lon="6.10601">
        <ele>1830.4</ele>
        <time>2026-08-25T10:23:42Z</time>
      </trkpt>
      <trkpt lat="45.08484" lon="6.106">
        <ele>1830.6</ele>
        <time>2026-08-25T10:23:43Z</time>
      </trkpt>
      <trkpt lat="45.08487" lon="6.106">
        <ele>1830.8</ele>
        <time>2026-08-25T10:23:44Z</time>
      </trkpt>
      <trkpt lat="45.08489" lon="6.10599">
        <ele>1830.9</ele>
        <time>2026-08-25T10:23:45Z</time>
      </trkpt>
      <trkpt lat="45.08492" lon="6.10598">
        <ele>1831.1</ele>
        <time>2026-08-25T10:23:46Z</time>
      </trkpt>
      <trkpt lat="45.08494" lon="6.10598">
        <ele>1831.3</ele>
        <time>2026-08-25T10:23:47Z</time>
      </trkpt>
      <trkpt lat="45.08497" lon="6.10598">
        <ele>1831.5</ele>
        <time>2026-08-25T10:23:48Z</time>
      </trkpt>
      <trkpt lat="45.08499" lon="6.10597">
        <ele>1831.6</ele>
        <time>2026-08-25T10:23:49Z</time>
      </trkpt>
      <trkpt lat="45.08501" lon="6.10597">
        <ele>1831.8</ele>
        <time>2026-08-25T10:23:50Z</time>
      </trkpt>
      <trkpt lat="45.08504" lon="6.10596">
        <ele>1832</ele>
        <time>2026-08-25T10:23:51Z</time>
      </trkpt>
      <trkpt lat="45.08506" lon="6.10594">
        <ele>1832.1</ele>
        <time>2026-08-25T10:23:52Z</time>
      </trkpt>
      <trkpt lat="45.08508" lon="6.10593">
        <ele>1832.3</ele>
        <time>2026-08-25T10:23:53Z</time>
      </trkpt>
      <trkpt lat="45.0851" lon="6.1059">
        <ele>1832.4</ele>
        <time>2026-08-25T10:23:54Z</time>
      </trkpt>
      <trkpt lat="45.08512" lon="6.10588">
        <ele>1832.6</ele>
        <time>2026-08-25T10:23:55Z</time>
      </trkpt>
      <trkpt lat="45.08514" lon="6.10585">
        <ele>1832.7</ele>
        <time>2026-08-25T10:23:56Z</time>
      </trkpt>
      <trkpt lat="45.08516" lon="6.10582">
        <ele>1832.8</ele>
        <time>2026-08-25T10:23:57Z</time>
      </trkpt>
      <trkpt lat="45.08517" lon="6.10579">
        <ele>1832.9</ele>
        <time>2026-08-25T10:23:58Z</time>
      </trkpt>
      <trkpt lat="45.08518" lon="6.10575">
        <ele>1833</ele>
        <time>2026-08-25T10:23:59Z</time>
      </trkpt>
      <trkpt lat="45.08519" lon="6.10572">
        <ele>1833.1</ele>
        <time>2026-08-25T10:24:00Z</time>
      </trkpt>
      <trkpt lat="45.08519" lon="6.10568">
        <ele>1833.2</ele>
        <time>2026-08-25T10:24:01Z</time>
      </trkpt>
      <trkpt lat="45.08518" lon="6.10564">
        <ele>1833.3</ele>
        <time>2026-08-25T10:24:02Z</time>
      </trkpt>
      <trkpt lat="45.08518" lon="6.1056">
        <ele>1833.3</ele>
        <time>2026-08-25T10:24:03Z</time>
      </trkpt>
      <trkpt lat="45.08517" lon="6.10555">
        <ele>1833.4</ele>
        <time>2026-08-25T10:24:04Z</time>
      </trkpt>
      <trkpt lat="45.08516" lon="6.10551">
        <ele>1833.5</ele>
        <time>2026-08-25T10:24:05Z</time>
      </trkpt>
      <trkpt lat="45.08515" lon="6.10547">
        <ele>1833.5</ele>
        <time>2026-08-25T10:24:06Z</time>
      </trkpt>
      <trkpt lat="45.08513" lon="6.10543">
        <ele>1833.6</ele>
        <time>2026-08-25T10:24:07Z</time>
      </trkpt>
      <trkpt lat="45.08512" lon="6.10539">
        <ele>1833.7</ele>
        <time>2026-08-25T10:24:08Z</time>
      </trkpt>
      <trkpt lat="45.0851" lon="6.10536">
        <ele>1833.7</ele>
        <time>2026-08-25T10:24:09Z</time>
      </trkpt>
      <trkpt lat="45.08508" lon="6.10532">
        <ele>1833.8</ele>
        <time>2026-08-25T10:24:10Z</time>
      </trkpt>
      <trkpt lat="45.08506" lon="6.10529">
        <ele>1833.9</ele>
        <time>2026-08-25T10:24:11Z</time>
      </trkpt>
      <trkpt lat="45.08504" lon="6.10525">
        <ele>1833.9</ele>
        <time>2026-08-25T10:24:12Z</time>
      </trkpt>
      <trkpt lat="45.08502" lon="6.10521">
        <ele>1834</ele>
        <time>2026-08-25T10:24:13Z</time>
      </trkpt>
      <trkpt lat="45.085" lon="6.10517">
        <ele>1834.1</ele>
        <time>2026-08-25T10:24:14Z</time>
      </trkpt>
      <trkpt lat="45.08498" lon="6.10513">
        <ele>1834.2</ele>
        <time>2026-08-25T10:24:15Z</time>
      </trkpt>
      <trkpt lat="45.08497" lon="6.10509">
        <ele>1834.3</ele>
        <time>2026-08-25T10:24:16Z</time>
      </trkpt>
      <trkpt lat="45.08496" lon="6.10504">
        <ele>1834.4</ele>
        <time>2026-08-25T10:24:17Z</time>
      </trkpt>
      <trkpt lat="45.08494" lon="6.10499">
        <ele>1834.5</ele>
        <time>2026-08-25T10:24:18Z</time>
      </trkpt>
      <trkpt lat="45.08492" lon="6.10494">
        <ele>1834.6</ele>
        <time>2026-08-25T10:24:19Z</time>
      </trkpt>
      <trkpt lat="45.0849" lon="6.10489">
        <ele>1834.8</ele>
        <time>2026-08-25T10:24:20Z</time>
      </trkpt>
      <trkpt lat="45.08488" lon="6.10483">
        <ele>1834.9</ele>
        <time>2026-08-25T10:24:21Z</time>
      </trkpt>
      <trkpt lat="45.08487" lon="6.10479">
        <ele>1835.1</ele>
        <time>2026-08-25T10:24:22Z</time>
      </trkpt>
      <trkpt lat="45.08485" lon="6.10474">
        <ele>1835.2</ele>
        <time>2026-08-25T10:24:23Z</time>
      </trkpt>
      <trkpt lat="45.08483" lon="6.1047">
        <ele>1835.3</ele>
        <time>2026-08-25T10:24:24Z</time>
      </trkpt>
      <trkpt lat="45.08481" lon="6.10466">
        <ele>1835.4</ele>
        <time>2026-08-25T10:24:25Z</time>
      </trkpt>
      <trkpt lat="45.0848" lon="6.10461">
        <ele>1835.6</ele>
        <time>2026-08-25T10:24:26Z</time>
      </trkpt>
      <trkpt lat="45.08479" lon="6.10456">
        <ele>1835.7</ele>
        <time>2026-08-25T10:24:27Z</time>
      </trkpt>
      <trkpt lat="45.08477" lon="6.10451">
        <ele>1835.9</ele>
        <time>2026-08-25T10:24:28Z</time>
      </trkpt>
      <trkpt lat="45.08477" lon="6.10446">
        <ele>1836</ele>
        <time>2026-08-25T10:24:29Z</time>
      </trkpt>
      <trkpt lat="45.08477" lon="6.10441">
        <ele>1836.1</ele>
        <time>2026-08-25T10:24:30Z</time>
      </trkpt>
      <trkpt lat="45.08477" lon="6.10435">
        <ele>1836.2</ele>
        <time>2026-08-25T10:24:31Z</time>
      </trkpt>
      <trkpt lat="45.08478" lon="6.1043">
        <ele>1836.2</ele>
        <time>2026-08-25T10:24:32Z</time>
      </trkpt>
      <trkpt lat="45.08479" lon="6.10425">
        <ele>1836.3</ele>
        <time>2026-08-25T10:24:33Z</time>
      </trkpt>
      <trkpt lat="45.0848" lon="6.1042">
        <ele>1836.3</ele>
        <time>2026-08-25T10:24:34Z</time>
      </trkpt>
      <trkpt lat="45.08481" lon="6.10414">
        <ele>1836.4</ele>
        <time>2026-08-25T10:24:35Z</time>
      </trkpt>
      <trkpt lat="45.08481" lon="6.10409">
        <ele>1836.4</ele>
        <time>2026-08-25T10:24:36Z</time>
      </trkpt>
      <trkpt lat="45.08482" lon="6.10403">
        <ele>1836.5</ele>
        <time>2026-08-25T10:24:37Z</time>
      </trkpt>
      <trkpt lat="45.08482" lon="6.10397">
        <ele>1836.5</ele>
        <time>2026-08-25T10:24:38Z</time>
      </trkpt>
      <trkpt lat="45.08483" lon="6.10392">
        <ele>1836.6</ele>
        <time>2026-08-25T10:24:39Z</time>
      </trkpt>
      <trkpt lat="45.08483" lon="6.10386">
        <ele>1836.6</ele>
        <time>2026-08-25T10:24:40Z</time>
      </trkpt>
      <trkpt lat="45.08483" lon="6.1038">
        <ele>1836.7</ele>
        <time>2026-08-25T10:24:41Z</time>
      </trkpt>
      <trkpt lat="45.08484" lon="6.10374">
        <ele>1836.7</ele>
        <time>2026-08-25T10:24:42Z</time>
      </trkpt>
      <trkpt lat="45.08484" lon="6.10368">
        <ele>1836.8</ele>
        <time>2026-08-25T10:24:43Z</time>
      </trkpt>
      <trkpt lat="45.08484" lon="6.10362">
        <ele>1836.9</ele>
        <time>2026-08-25T10:24:44Z</time>
      </trkpt>
      <trkpt lat="45.08484" lon="6.10356">
        <ele>1837</ele>
        <time>2026-08-25T10:24:45Z</time>
      </trkpt>
      <trkpt lat="45.08484" lon="6.1035">
        <ele>1837.1</ele>
        <time>2026-08-25T10:24:46Z</time>
      </trkpt>
      <trkpt lat="45.08484" lon="6.10344">
        <ele>1837.2</ele>
        <time>2026-08-25T10:24:47Z</time>
      </trkpt>
      <trkpt lat="45.08483" lon="6.10338">
        <ele>1837.4</ele>
        <time>2026-08-25T10:24:48Z</time>
      </trkpt>
      <trkpt lat="45.08483" lon="6.10333">
        <ele>1837.5</ele>
        <time>2026-08-25T10:24:49Z</time>
      </trkpt>
      <trkpt lat="45.08483" lon="6.10328">
        <ele>1837.7</ele>
        <time>2026-08-25T10:24:50Z</time>
      </trkpt>
      <trkpt lat="45.08483" lon="6.10322">
        <ele>1837.8</ele>
        <time>2026-08-25T10:24:51Z</time>
      </trkpt>
      <trkpt lat="45.08482" lon="6.10317">
        <ele>1838</ele>
        <time>2026-08-25T10:24:52Z</time>
      </trkpt>
      <trkpt lat="45.08482" lon="6.10311">
        <ele>1838.2</ele>
        <time>2026-08-25T10:24:53Z</time>
      </trkpt>
      <trkpt lat="45.08481" lon="6.10306">
        <ele>1838.3</ele>
        <time>2026-08-25T10:24:54Z</time>
      </trkpt>
      <trkpt lat="45.08481" lon="6.10301">
        <ele>1838.5</ele>
        <time>2026-08-25T10:24:55Z</time>
      </trkpt>
      <trkpt lat="45.0848" lon="6.10295">
        <ele>1838.7</ele>
        <time>2026-08-25T10:24:56Z</time>
      </trkpt>
      <trkpt lat="45.0848" lon="6.1029">
        <ele>1838.9</ele>
        <time>2026-08-25T10:24:57Z</time>
      </trkpt>
      <trkpt lat="45.0848" lon="6.10286">
        <ele>1839.1</ele>
        <time>2026-08-25T10:24:58Z</time>
      </trkpt>
      <trkpt lat="45.08479" lon="6.10281">
        <ele>1839.3</ele>
        <time>2026-08-25T10:24:59Z</time>
      </trkpt>
      <trkpt lat="45.08479" lon="6.10276">
        <ele>1839.5</ele>
        <time>2026-08-25T10:25:00Z</time>
      </trkpt>
      <trkpt lat="45.08479" lon="6.10271">
        <ele>1839.7</ele>
        <time>2026-08-25T10:25:01Z</time>
      </trkpt>
      <trkpt lat="45.08479" lon="6.10267">
        <ele>1839.9</ele>
        <time>2026-08-25T10:25:02Z</time>
      </trkpt>
      <trkpt lat="45.08479" lon="6.10262">
        <ele>1840.2</ele>
        <time>2026-08-25T10:25:03Z</time>
      </trkpt>
      <trkpt lat="45.08479" lon="6.10257">
        <ele>1840.4</ele>
        <time>2026-08-25T10:25:04Z</time>
      </trkpt>
      <trkpt lat="45.08479" lon="6.10252">
        <ele>1840.6</ele>
        <time>2026-08-25T10:25:05Z</time>
      </trkpt>
      <trkpt lat="45.08479" lon="6.10248">
        <ele>1840.8</ele>
        <time>2026-08-25T10:25:06Z</time>
      </trkpt>
      <trkpt lat="45.08479" lon="6.10243">
        <ele>1841.1</ele>
        <time>2026-08-25T10:25:07Z</time>
      </trkpt>
      <trkpt lat="45.08479" lon="6.10239">
        <ele>1841.3</ele>
        <time>2026-08-25T10:25:08Z</time>
      </trkpt>
      <trkpt lat="45.08479" lon="6.10234">
        <ele>1841.5</ele>
        <time>2026-08-25T10:25:09Z</time>
      </trkpt>
      <trkpt lat="45.08479" lon="6.1023">
        <ele>1841.7</ele>
        <time>2026-08-25T10:25:10Z</time>
      </trkpt>
      <trkpt lat="45.08479" lon="6.10225">
        <ele>1841.9</ele>
        <time>2026-08-25T10:25:11Z</time>
      </trkpt>
      <trkpt lat="45.08478" lon="6.1022">
        <ele>1842.1</ele>
        <time>2026-08-25T10:25:12Z</time>
      </trkpt>
      <trkpt lat="45.08478" lon="6.10215">
        <ele>1842.3</ele>
        <time>2026-08-25T10:25:13Z</time>
      </trkpt>
      <trkpt lat="45.08478" lon="6.1021">
        <ele>1842.5</ele>
        <time>2026-08-25T10:25:14Z</time>
      </trkpt>
      <trkpt lat="45.08478" lon="6.10206">
        <ele>1842.6</ele>
        <time>2026-08-25T10:25:15Z</time>
      </trkpt>
      <trkpt lat="45.08478" lon="6.10201">
        <ele>1842.8</ele>
        <time>2026-08-25T10:25:16Z</time>
      </trkpt>
      <trkpt lat="45.08478" lon="6.10196">
        <ele>1843</ele>
        <time>2026-08-25T10:25:17Z</time>
      </trkpt>
      <trkpt lat="45.08478" lon="6.10191">
        <ele>1843.1</ele>
        <time>2026-08-25T10:25:18Z</time>
      </trkpt>
      <trkpt lat="45.08478" lon="6.10185">
        <ele>1843.3</ele>
        <time>2026-08-25T10:25:19Z</time>
      </trkpt>
      <trkpt lat="45.08478" lon="6.1018">
        <ele>1843.4</ele>
        <time>2026-08-25T10:25:20Z</time>
      </trkpt>
      <trkpt lat="45.08478" lon="6.10175">
        <ele>1843.6</ele>
        <time>2026-08-25T10:25:21Z</time>
      </trkpt>
      <trkpt lat="45.08478" lon="6.1017">
        <ele>1843.8</ele>
        <time>2026-08-25T10:25:22Z</time>
      </trkpt>
      <trkpt lat="45.08478" lon="6.10165">
        <ele>1844</ele>
        <time>2026-08-25T10:25:23Z</time>
      </trkpt>
      <trkpt lat="45.08478" lon="6.1016">
        <ele>1844.2</ele>
        <time>2026-08-25T10:25:24Z</time>
      </trkpt>
      <trkpt lat="45.08478" lon="6.10155">
        <ele>1844.4</ele>
        <time>2026-08-25T10:25:25Z</time>
      </trkpt>
      <trkpt lat="45.08478" lon="6.1015">
        <ele>1844.6</ele>
        <time>2026-08-25T10:25:26Z</time>
      </trkpt>
      <trkpt lat="45.08478" lon="6.10146">
        <ele>1844.9</ele>
        <time>2026-08-25T10:25:27Z</time>
      </trkpt>
      <trkpt lat="45.08477" lon="6.10141">
        <ele>1845.1</ele>
        <time>2026-08-25T10:25:28Z</time>
      </trkpt>
      <trkpt lat="45.08477" lon="6.10136">
        <ele>1845.3</ele>
        <time>2026-08-25T10:25:29Z</time>
      </trkpt>
      <trkpt lat="45.08477" lon="6.10131">
        <ele>1845.6</ele>
        <time>2026-08-25T10:25:30Z</time>
      </trkpt>
      <trkpt lat="45.08477" lon="6.10126">
        <ele>1845.8</ele>
        <time>2026-08-25T10:25:31Z</time>
      </trkpt>
      <trkpt lat="45.08477" lon="6.10122">
        <ele>1846</ele>
        <time>2026-08-25T10:25:32Z</time>
      </trkpt>
      <trkpt lat="45.08476" lon="6.10117">
        <ele>1846.2</ele>
        <time>2026-08-25T10:25:33Z</time>
      </trkpt>
      <trkpt lat="45.08476" lon="6.10112">
        <ele>1846.4</ele>
        <time>2026-08-25T10:25:34Z</time>
      </trkpt>
      <trkpt lat="45.08476" lon="6.10107">
        <ele>1846.6</ele>
        <time>2026-08-25T10:25:35Z</time>
      </trkpt>
      <trkpt lat="45.08476" lon="6.10102">
        <ele>1846.8</ele>
        <time>2026-08-25T10:25:36Z</time>
      </trkpt>
      <trkpt lat="45.08476" lon="6.10097">
        <ele>1847</ele>
        <time>2026-08-25T10:25:37Z</time>
      </trkpt>
      <trkpt lat="45.08476" lon="6.10092">
        <ele>1847.1</ele>
        <time>2026-08-25T10:25:38Z</time>
      </trkpt>
      <trkpt lat="45.08476" lon="6.10088">
        <ele>1847.1</ele>
        <time>2026-08-25T10:25:39Z</time>
      </trkpt>
      <trkpt lat="45.08476" lon="6.10084">
        <ele>1847.2</ele>
        <time>2026-08-25T10:25:40Z</time>
      </trkpt>
      <trkpt lat="45.08476" lon="6.1008">
        <ele>1847.3</ele>
        <time>2026-08-25T10:25:41Z</time>
      </trkpt>
      <trkpt lat="45.08476" lon="6.10075">
        <ele>1847.3</ele>
        <time>2026-08-25T10:25:42Z</time>
      </trkpt>
      <trkpt lat="45.08476" lon="6.1007">
        <ele>1847.3</ele>
        <time>2026-08-25T10:25:43Z</time>
      </trkpt>
      <trkpt lat="45.08476" lon="6.10066">
        <ele>1847.2</ele>
        <time>2026-08-25T10:25:44Z</time>
      </trkpt>
      <trkpt lat="45.08476" lon="6.10061">
        <ele>1847.1</ele>
        <time>2026-08-25T10:25:45Z</time>
      </trkpt>
      <trkpt lat="45.08476" lon="6.10056">
        <ele>1847</ele>
        <time>2026-08-25T10:25:46Z</time>
      </trkpt>
      <trkpt lat="45.08476" lon="6.10051">
        <ele>1846.8</ele>
        <time>2026-08-25T10:25:47Z</time>
      </trkpt>
      <trkpt lat="45.08476" lon="6.10045">
        <ele>1846.6</ele>
        <time>2026-08-25T10:25:48Z</time>
      </trkpt>
      <trkpt lat="45.08477" lon="6.10039">
        <ele>1846.4</ele>
        <time>2026-08-25T10:25:49Z</time>
      </trkpt>
      <trkpt lat="45.08477" lon="6.10032">
        <ele>1846.1</ele>
        <time>2026-08-25T10:25:50Z</time>
      </trkpt>
      <trkpt lat="45.08478" lon="6.10024">
        <ele>1845.7</ele>
        <time>2026-08-25T10:25:51Z</time>
      </trkpt>
      <trkpt lat="45.08478" lon="6.10016">
        <ele>1845.3</ele>
        <time>2026-08-25T10:25:52Z</time>
      </trkpt>
      <trkpt lat="45.08478" lon="6.10007">
        <ele>1844.9</ele>
        <time>2026-08-25T10:25:53Z</time>
      </trkpt>
      <trkpt lat="45.08477" lon="6.09998">
        <ele>1844.4</ele>
        <time>2026-08-25T10:25:54Z</time>
      </trkpt>
      <trkpt lat="45.08477" lon="6.09988">
        <ele>1844</ele>
        <time>2026-08-25T10:25:55Z</time>
      </trkpt>
      <trkpt lat="45.08476" lon="6.09978">
        <ele>1843.6</ele>
        <time>2026-08-25T10:25:56Z</time>
      </trkpt>
      <trkpt lat="45.08474" lon="6.09967">
        <ele>1843.2</ele>
        <time>2026-08-25T10:25:57Z</time>
      </trkpt>
      <trkpt lat="45.08472" lon="6.09957">
        <ele>1842.8</ele>
        <time>2026-08-25T10:25:58Z</time>
      </trkpt>
      <trkpt lat="45.0847" lon="6.09947">
        <ele>1842.4</ele>
        <time>2026-08-25T10:25:59Z</time>
      </trkpt>
      <trkpt lat="45.08468" lon="6.09936">
        <ele>1842</ele>
        <time>2026-08-25T10:26:00Z</time>
      </trkpt>
      <trkpt lat="45.08467" lon="6.09924">
        <ele>1841.5</ele>
        <time>2026-08-25T10:26:01Z</time>
      </trkpt>
      <trkpt lat="45.08467" lon="6.09912">
        <ele>1841</ele>
        <time>2026-08-25T10:26:02Z</time>
      </trkpt>
      <trkpt lat="45.08467" lon="6.099">
        <ele>1840.5</ele>
        <time>2026-08-25T10:26:03Z</time>
      </trkpt>
      <trkpt lat="45.08468" lon="6.09887">
        <ele>1840.1</ele>
        <time>2026-08-25T10:26:04Z</time>
      </trkpt>
      <trkpt lat="45.08469" lon="6.09875">
        <ele>1839.7</ele>
        <time>2026-08-25T10:26:05Z</time>
      </trkpt>
      <trkpt lat="45.0847" lon="6.09862">
        <ele>1839.3</ele>
        <time>2026-08-25T10:26:06Z</time>
      </trkpt>
      <trkpt lat="45.08471" lon="6.09848">
        <ele>1838.9</ele>
        <time>2026-08-25T10:26:07Z</time>
      </trkpt>
      <trkpt lat="45.08472" lon="6.09835">
        <ele>1838.6</ele>
        <time>2026-08-25T10:26:08Z</time>
      </trkpt>
      <trkpt lat="45.08473" lon="6.09822">
        <ele>1838.3</ele>
        <time>2026-08-25T10:26:09Z</time>
      </trkpt>
      <trkpt lat="45.08475" lon="6.09808">
        <ele>1838</ele>
        <time>2026-08-25T10:26:10Z</time>
      </trkpt>
      <trkpt lat="45.08478" lon="6.09796">
        <ele>1837.7</ele>
        <time>2026-08-25T10:26:11Z</time>
      </trkpt>
      <trkpt lat="45.08481" lon="6.09783">
        <ele>1837.4</ele>
        <time>2026-08-25T10:26:12Z</time>
      </trkpt>
      <trkpt lat="45.08484" lon="6.0977">
        <ele>1837.1</ele>
        <time>2026-08-25T10:26:13Z</time>
      </trkpt>
      <trkpt lat="45.08488" lon="6.09758">
        <ele>1836.8</ele>
        <time>2026-08-25T10:26:14Z</time>
      </trkpt>
      <trkpt lat="45.08491" lon="6.09746">
        <ele>1836.4</ele>
        <time>2026-08-25T10:26:15Z</time>
      </trkpt>
      <trkpt lat="45.08494" lon="6.09733">
        <ele>1836.1</ele>
        <time>2026-08-25T10:26:16Z</time>
      </trkpt>
      <trkpt lat="45.08497" lon="6.09722">
        <ele>1835.9</ele>
        <time>2026-08-25T10:26:17Z</time>
      </trkpt>
      <trkpt lat="45.085" lon="6.09711">
        <ele>1835.6</ele>
        <time>2026-08-25T10:26:18Z</time>
      </trkpt>
      <trkpt lat="45.08503" lon="6.09701">
        <ele>1835.4</ele>
        <time>2026-08-25T10:26:19Z</time>
      </trkpt>
      <trkpt lat="45.08506" lon="6.09691">
        <ele>1835.2</ele>
        <time>2026-08-25T10:26:20Z</time>
      </trkpt>
      <trkpt lat="45.08509" lon="6.09681">
        <ele>1834.9</ele>
        <time>2026-08-25T10:26:21Z</time>
      </trkpt>
      <trkpt lat="45.08513" lon="6.09672">
        <ele>1834.6</ele>
        <time>2026-08-25T10:26:22Z</time>
      </trkpt>
      <trkpt lat="45.08517" lon="6.09662">
        <ele>1834.3</ele>
        <time>2026-08-25T10:26:23Z</time>
      </trkpt>
      <trkpt lat="45.08521" lon="6.09652">
        <ele>1834</ele>
        <time>2026-08-25T10:26:24Z</time>
      </trkpt>
      <trkpt lat="45.08525" lon="6.09641">
        <ele>1833.7</ele>
        <time>2026-08-25T10:26:25Z</time>
      </trkpt>
      <trkpt lat="45.08529" lon="6.0963">
        <ele>1833.4</ele>
        <time>2026-08-25T10:26:26Z</time>
      </trkpt>
      <trkpt lat="45.08533" lon="6.09619">
        <ele>1833.1</ele>
        <time>2026-08-25T10:26:27Z</time>
      </trkpt>
      <trkpt lat="45.08535" lon="6.09606">
        <ele>1832.9</ele>
        <time>2026-08-25T10:26:28Z</time>
      </trkpt>
      <trkpt lat="45.08536" lon="6.09593">
        <ele>1832.7</ele>
        <time>2026-08-25T10:26:29Z</time>
      </trkpt>
      <trkpt lat="45.08536" lon="6.0958">
        <ele>1832.6</ele>
        <time>2026-08-25T10:26:30Z</time>
      </trkpt>
      <trkpt lat="45.08536" lon="6.09567">
        <ele>1832.4</ele>
        <time>2026-08-25T10:26:31Z</time>
      </trkpt>
      <trkpt lat="45.08536" lon="6.09553">
        <ele>1832.2</ele>
        <time>2026-08-25T10:26:32Z</time>
      </trkpt>
      <trkpt lat="45.08536" lon="6.09539">
        <ele>1832.1</ele>
        <time>2026-08-25T10:26:33Z</time>
      </trkpt>
      <trkpt lat="45.08537" lon="6.09525">
        <ele>1832</ele>
        <time>2026-08-25T10:26:34Z</time>
      </trkpt>
      <trkpt lat="45.08537" lon="6.09512">
        <ele>1831.9</ele>
        <time>2026-08-25T10:26:35Z</time>
      </trkpt>
      <trkpt lat="45.08538" lon="6.09498">
        <ele>1831.8</ele>
        <time>2026-08-25T10:26:36Z</time>
      </trkpt>
      <trkpt lat="45.08539" lon="6.09485">
        <ele>1831.8</ele>
        <time>2026-08-25T10:26:37Z</time>
      </trkpt>
      <trkpt lat="45.0854" lon="6.09471">
        <ele>1831.7</ele>
        <time>2026-08-25T10:26:38Z</time>
      </trkpt>
      <trkpt lat="45.08542" lon="6.09459">
        <ele>1831.6</ele>
        <time>2026-08-25T10:26:39Z</time>
      </trkpt>
      <trkpt lat="45.08545" lon="6.09446">
        <ele>1831.6</ele>
        <time>2026-08-25T10:26:40Z</time>
      </trkpt>
      <trkpt lat="45.08547" lon="6.09435">
        <ele>1831.7</ele>
        <time>2026-08-25T10:26:41Z</time>
      </trkpt>
      <trkpt lat="45.08549" lon="6.09423">
        <ele>1831.9</ele>
        <time>2026-08-25T10:26:42Z</time>
      </trkpt>
      <trkpt lat="45.0855" lon="6.09412">
        <ele>1832.1</ele>
        <time>2026-08-25T10:26:43Z</time>
      </trkpt>
      <trkpt lat="45.08552" lon="6.09401">
        <ele>1832.3</ele>
        <time>2026-08-25T10:26:44Z</time>
      </trkpt>
      <trkpt lat="45.08553" lon="6.09391">
        <ele>1832.6</ele>
        <time>2026-08-25T10:26:45Z</time>
      </trkpt>
      <trkpt lat="45.08555" lon="6.09382">
        <ele>1832.9</ele>
        <time>2026-08-25T10:26:46Z</time>
      </trkpt>
      <trkpt lat="45.08557" lon="6.09373">
        <ele>1833.2</ele>
        <time>2026-08-25T10:26:47Z</time>
      </trkpt>
      <trkpt lat="45.08558" lon="6.09366">
        <ele>1833.5</ele>
        <time>2026-08-25T10:26:48Z</time>
      </trkpt>
      <trkpt lat="45.0856" lon="6.09359">
        <ele>1833.9</ele>
        <time>2026-08-25T10:26:49Z</time>
      </trkpt>
      <trkpt lat="45.08562" lon="6.09351">
        <ele>1834.2</ele>
        <time>2026-08-25T10:26:50Z</time>
      </trkpt>
      <trkpt lat="45.08563" lon="6.09344">
        <ele>1834.5</ele>
        <time>2026-08-25T10:26:51Z</time>
      </trkpt>
      <trkpt lat="45.08565" lon="6.09337">
        <ele>1834.8</ele>
        <time>2026-08-25T10:26:52Z</time>
      </trkpt>
      <trkpt lat="45.08567" lon="6.0933">
        <ele>1835</ele>
        <time>2026-08-25T10:26:53Z</time>
      </trkpt>
      <trkpt lat="45.08568" lon="6.09322">
        <ele>1835.1</ele>
        <time>2026-08-25T10:26:54Z</time>
      </trkpt>
      <trkpt lat="45.0857" lon="6.09315">
        <ele>1835.2</ele>
        <time>2026-08-25T10:26:55Z</time>
      </trkpt>
      <trkpt lat="45.08573" lon="6.09308">
        <ele>1835.2</ele>
        <time>2026-08-25T10:26:56Z</time>
      </trkpt>
      <trkpt lat="45.08575" lon="6.09301">
        <ele>1835.2</ele>
        <time>2026-08-25T10:26:57Z</time>
      </trkpt>
      <trkpt lat="45.08578" lon="6.09293">
        <ele>1835.1</ele>
        <time>2026-08-25T10:26:58Z</time>
      </trkpt>
      <trkpt lat="45.0858" lon="6.09286">
        <ele>1835</ele>
        <time>2026-08-25T10:26:59Z</time>
      </trkpt>
      <trkpt lat="45.08582" lon="6.09278">
        <ele>1834.9</ele>
        <time>2026-08-25T10:27:00Z</time>
      </trkpt>
      <trkpt lat="45.08585" lon="6.0927">
        <ele>1834.7</ele>
        <time>2026-08-25T10:27:01Z</time>
      </trkpt>
      <trkpt lat="45.08586" lon="6.09262">
        <ele>1834.5</ele>
        <time>2026-08-25T10:27:02Z</time>
      </trkpt>
      <trkpt lat="45.08588" lon="6.09254">
        <ele>1834.4</ele>
        <time>2026-08-25T10:27:03Z</time>
      </trkpt>
      <trkpt lat="45.0859" lon="6.09246">
        <ele>1834.3</ele>
        <time>2026-08-25T10:27:04Z</time>
      </trkpt>
      <trkpt lat="45.08591" lon="6.09237">
        <ele>1834.2</ele>
        <time>2026-08-25T10:27:05Z</time>
      </trkpt>
      <trkpt lat="45.08593" lon="6.09229">
        <ele>1834.3</ele>
        <time>2026-08-25T10:27:06Z</time>
      </trkpt>
      <trkpt lat="45.08594" lon="6.0922">
        <ele>1834.3</ele>
        <time>2026-08-25T10:27:07Z</time>
      </trkpt>
      <trkpt lat="45.08595" lon="6.09211">
        <ele>1834.3</ele>
        <time>2026-08-25T10:27:08Z</time>
      </trkpt>
      <trkpt lat="45.08597" lon="6.09204">
        <ele>1834.4</ele>
        <time>2026-08-25T10:27:09Z</time>
      </trkpt>
      <trkpt lat="45.08598" lon="6.09195">
        <ele>1834.4</ele>
        <time>2026-08-25T10:27:10Z</time>
      </trkpt>
      <trkpt lat="45.08599" lon="6.09188">
        <ele>1834.5</ele>
        <time>2026-08-25T10:27:11Z</time>
      </trkpt>
      <trkpt lat="45.086" lon="6.0918">
        <ele>1834.5</ele>
        <time>2026-08-25T10:27:12Z</time>
      </trkpt>
      <trkpt lat="45.08601" lon="6.09171">
        <ele>1834.6</ele>
        <time>2026-08-25T10:27:13Z</time>
      </trkpt>
      <trkpt lat="45.08602" lon="6.09164">
        <ele>1834.7</ele>
        <time>2026-08-25T10:27:14Z</time>
      </trkpt>
      <trkpt lat="45.08602" lon="6.09157">
        <ele>1834.7</ele>
        <time>2026-08-25T10:27:15Z</time>
      </trkpt>
      <trkpt lat="45.08603" lon="6.0915">
        <ele>1834.8</ele>
        <time>2026-08-25T10:27:16Z</time>
      </trkpt>
      <trkpt lat="45.08604" lon="6.09143">
        <ele>1834.9</ele>
        <time>2026-08-25T10:27:17Z</time>
      </trkpt>
      <trkpt lat="45.08605" lon="6.09136">
        <ele>1834.9</ele>
        <time>2026-08-25T10:27:18Z</time>
      </trkpt>
      <trkpt lat="45.08606" lon="6.09129">
        <ele>1835</ele>
        <time>2026-08-25T10:27:19Z</time>
      </trkpt>
      <trkpt lat="45.08607" lon="6.09122">
        <ele>1835.1</ele>
        <time>2026-08-25T10:27:20Z</time>
      </trkpt>
      <trkpt lat="45.08608" lon="6.09114">
        <ele>1835.2</ele>
        <time>2026-08-25T10:27:21Z</time>
      </trkpt>
      <trkpt lat="45.08609" lon="6.09107">
        <ele>1835.2</ele>
        <time>2026-08-25T10:27:22Z</time>
      </trkpt>
      <trkpt lat="45.0861" lon="6.09099">
        <ele>1835.3</ele>
        <time>2026-08-25T10:27:23Z</time>
      </trkpt>
      <trkpt lat="45.0861" lon="6.09092">
        <ele>1835.5</ele>
        <time>2026-08-25T10:27:24Z</time>
      </trkpt>
      <trkpt lat="45.0861" lon="6.09085">
        <ele>1835.6</ele>
        <time>2026-08-25T10:27:25Z</time>
      </trkpt>
      <trkpt lat="45.08611" lon="6.09078">
        <ele>1835.8</ele>
        <time>2026-08-25T10:27:26Z</time>
      </trkpt>
      <trkpt lat="45.08611" lon="6.09071">
        <ele>1835.9</ele>
        <time>2026-08-25T10:27:27Z</time>
      </trkpt>
      <trkpt lat="45.0861" lon="6.09065">
        <ele>1836.1</ele>
        <time>2026-08-25T10:27:28Z</time>
      </trkpt>
      <trkpt lat="45.0861" lon="6.09058">
        <ele>1836.3</ele>
        <time>2026-08-25T10:27:29Z</time>
      </trkpt>
      <trkpt lat="45.08609" lon="6.09052">
        <ele>1836.5</ele>
        <time>2026-08-25T10:27:30Z</time>
      </trkpt>
      <trkpt lat="45.08608" lon="6.09046">
        <ele>1836.7</ele>
        <time>2026-08-25T10:27:31Z</time>
      </trkpt>
      <trkpt lat="45.08608" lon="6.0904">
        <ele>1836.9</ele>
        <time>2026-08-25T10:27:32Z</time>
      </trkpt>
      <trkpt lat="45.08606" lon="6.09033">
        <ele>1837.1</ele>
        <time>2026-08-25T10:27:33Z</time>
      </trkpt>
      <trkpt lat="45.08605" lon="6.09027">
        <ele>1837.3</ele>
        <time>2026-08-25T10:27:34Z</time>
      </trkpt>
      <trkpt lat="45.08603" lon="6.09021">
        <ele>1837.5</ele>
        <time>2026-08-25T10:27:35Z</time>
      </trkpt>
      <trkpt lat="45.08602" lon="6.09015">
        <ele>1837.7</ele>
        <time>2026-08-25T10:27:36Z</time>
      </trkpt>
      <trkpt lat="45.08601" lon="6.09009">
        <ele>1837.9</ele>
        <time>2026-08-25T10:27:37Z</time>
      </trkpt>
      <trkpt lat="45.086" lon="6.09003">
        <ele>1838.1</ele>
        <time>2026-08-25T10:27:38Z</time>
      </trkpt>
      <trkpt lat="45.08601" lon="6.08997">
        <ele>1838.4</ele>
        <time>2026-08-25T10:27:39Z</time>
      </trkpt>
      <trkpt lat="45.08603" lon="6.08991">
        <ele>1838.6</ele>
        <time>2026-08-25T10:27:40Z</time>
      </trkpt>
      <trkpt lat="45.08605" lon="6.08985">
        <ele>1838.8</ele>
        <time>2026-08-25T10:27:41Z</time>
      </trkpt>
      <trkpt lat="45.08609" lon="6.08981">
        <ele>1839.1</ele>
        <time>2026-08-25T10:27:42Z</time>
      </trkpt>
      <trkpt lat="45.08613" lon="6.08979">
        <ele>1839.3</ele>
        <time>2026-08-25T10:27:43Z</time>
      </trkpt>
      <trkpt lat="45.08618" lon="6.0898">
        <ele>1839.6</ele>
        <time>2026-08-25T10:27:44Z</time>
      </trkpt>
      <trkpt lat="45.08623" lon="6.08982">
        <ele>1839.9</ele>
        <time>2026-08-25T10:27:45Z</time>
      </trkpt>
      <trkpt lat="45.08627" lon="6.08985">
        <ele>1840.1</ele>
        <time>2026-08-25T10:27:46Z</time>
      </trkpt>
      <trkpt lat="45.08629" lon="6.08989">
        <ele>1840.3</ele>
        <time>2026-08-25T10:27:47Z</time>
      </trkpt>
      <trkpt lat="45.0863" lon="6.08994">
        <ele>1840.5</ele>
        <time>2026-08-25T10:27:48Z</time>
      </trkpt>
      <trkpt lat="45.08631" lon="6.09">
        <ele>1840.6</ele>
        <time>2026-08-25T10:27:49Z</time>
      </trkpt>
      <trkpt lat="45.08633" lon="6.09004">
        <ele>1840.8</ele>
        <time>2026-08-25T10:27:50Z</time>
      </trkpt>
      <trkpt lat="45.08634" lon="6.09009">
        <ele>1840.9</ele>
        <time>2026-08-25T10:27:51Z</time>
      </trkpt>
      <trkpt lat="45.08634" lon="6.09015">
        <ele>1841.1</ele>
        <time>2026-08-25T10:27:52Z</time>
      </trkpt>
      <trkpt lat="45.08635" lon="6.0902">
        <ele>1841.2</ele>
        <time>2026-08-25T10:27:53Z</time>
      </trkpt>
      <trkpt lat="45.08636" lon="6.09024">
        <ele>1841.4</ele>
        <time>2026-08-25T10:27:54Z</time>
      </trkpt>
      <trkpt lat="45.08637" lon="6.0903">
        <ele>1841.5</ele>
        <time>2026-08-25T10:27:55Z</time>
      </trkpt>
      <trkpt lat="45.08639" lon="6.09035">
        <ele>1841.7</ele>
        <time>2026-08-25T10:27:56Z</time>
      </trkpt>
      <trkpt lat="45.0864" lon="6.0904">
        <ele>1841.9</ele>
        <time>2026-08-25T10:27:57Z</time>
      </trkpt>
      <trkpt lat="45.08641" lon="6.09044">
        <ele>1842</ele>
        <time>2026-08-25T10:27:58Z</time>
      </trkpt>
      <trkpt lat="45.08642" lon="6.09048">
        <ele>1842.1</ele>
        <time>2026-08-25T10:27:59Z</time>
      </trkpt>
      <trkpt lat="45.08644" lon="6.09052">
        <ele>1842.2</ele>
        <time>2026-08-25T10:28:00Z</time>
      </trkpt>
      <trkpt lat="45.08646" lon="6.09056">
        <ele>1842.4</ele>
        <time>2026-08-25T10:28:01Z</time>
      </trkpt>
      <trkpt lat="45.08648" lon="6.0906">
        <ele>1842.5</ele>
        <time>2026-08-25T10:28:02Z</time>
      </trkpt>
      <trkpt lat="45.0865" lon="6.09064">
        <ele>1842.7</ele>
        <time>2026-08-25T10:28:03Z</time>
      </trkpt>
      <trkpt lat="45.08652" lon="6.09067">
        <ele>1842.8</ele>
        <time>2026-08-25T10:28:04Z</time>
      </trkpt>
      <trkpt lat="45.08655" lon="6.09071">
        <ele>1843</ele>
        <time>2026-08-25T10:28:05Z</time>
      </trkpt>
      <trkpt lat="45.08657" lon="6.09074">
        <ele>1843.1</ele>
        <time>2026-08-25T10:28:06Z</time>
      </trkpt>
      <trkpt lat="45.08659" lon="6.09077">
        <ele>1843.3</ele>
        <time>2026-08-25T10:28:07Z</time>
      </trkpt>
      <trkpt lat="45.08661" lon="6.09081">
        <ele>1843.4</ele>
        <time>2026-08-25T10:28:08Z</time>
      </trkpt>
      <trkpt lat="45.08663" lon="6.09084">
        <ele>1843.6</ele>
        <time>2026-08-25T10:28:09Z</time>
      </trkpt>
      <trkpt lat="45.08665" lon="6.09088">
        <ele>1843.7</ele>
        <time>2026-08-25T10:28:10Z</time>
      </trkpt>
      <trkpt lat="45.08668" lon="6.09092">
        <ele>1843.9</ele>
        <time>2026-08-25T10:28:11Z</time>
      </trkpt>
      <trkpt lat="45.0867" lon="6.09096">
        <ele>1844.1</ele>
        <time>2026-08-25T10:28:12Z</time>
      </trkpt>
      <trkpt lat="45.08672" lon="6.091">
        <ele>1844.2</ele>
        <time>2026-08-25T10:28:13Z</time>
      </trkpt>
      <trkpt lat="45.08674" lon="6.09104">
        <ele>1844.4</ele>
        <time>2026-08-25T10:28:14Z</time>
      </trkpt>
      <trkpt lat="45.08675" lon="6.09107">
        <ele>1844.5</ele>
        <time>2026-08-25T10:28:15Z</time>
      </trkpt>
      <trkpt lat="45.08677" lon="6.09112">
        <ele>1844.7</ele>
        <time>2026-08-25T10:28:16Z</time>
      </trkpt>
      <trkpt lat="45.08679" lon="6.09116">
        <ele>1844.9</ele>
        <time>2026-08-25T10:28:17Z</time>
      </trkpt>
      <trkpt lat="45.0868" lon="6.0912">
        <ele>1845</ele>
        <time>2026-08-25T10:28:18Z</time>
      </trkpt>
      <trkpt lat="45.08681" lon="6.09124">
        <ele>1845.2</ele>
        <time>2026-08-25T10:28:19Z</time>
      </trkpt>
      <trkpt lat="45.08683" lon="6.09128">
        <ele>1845.3</ele>
        <time>2026-08-25T10:28:20Z</time>
      </trkpt>
      <trkpt lat="45.08684" lon="6.09132">
        <ele>1845.5</ele>
        <time>2026-08-25T10:28:21Z</time>
      </trkpt>
      <trkpt lat="45.08685" lon="6.09136">
        <ele>1845.6</ele>
        <time>2026-08-25T10:28:22Z</time>
      </trkpt>
      <trkpt lat="45.08687" lon="6.0914">
        <ele>1845.8</ele>
        <time>2026-08-25T10:28:23Z</time>
      </trkpt>
      <trkpt lat="45.08688" lon="6.09144">
        <ele>1845.9</ele>
        <time>2026-08-25T10:28:24Z</time>
      </trkpt>
      <trkpt lat="45.0869" lon="6.09148">
        <ele>1846.1</ele>
        <time>2026-08-25T10:28:25Z</time>
      </trkpt>
      <trkpt lat="45.08691" lon="6.09152">
        <ele>1846.2</ele>
        <time>2026-08-25T10:28:26Z</time>
      </trkpt>
      <trkpt lat="45.08692" lon="6.09156">
        <ele>1846.4</ele>
        <time>2026-08-25T10:28:27Z</time>
      </trkpt>
      <trkpt lat="45.08693" lon="6.09161">
        <ele>1846.5</ele>
        <time>2026-08-25T10:28:28Z</time>
      </trkpt>
      <trkpt lat="45.08694" lon="6.09165">
        <ele>1846.7</ele>
        <time>2026-08-25T10:28:29Z</time>
      </trkpt>
      <trkpt lat="45.08695" lon="6.09169">
        <ele>1846.8</ele>
        <time>2026-08-25T10:28:30Z</time>
      </trkpt>
      <trkpt lat="45.08696" lon="6.09173">
        <ele>1846.9</ele>
        <time>2026-08-25T10:28:31Z</time>
      </trkpt>
      <trkpt lat="45.08696" lon="6.09177">
        <ele>1847.1</ele>
        <time>2026-08-25T10:28:32Z</time>
      </trkpt>
      <trkpt lat="45.08697" lon="6.09181">
        <ele>1847.3</ele>
        <time>2026-08-25T10:28:33Z</time>
      </trkpt>
      <trkpt lat="45.08697" lon="6.09185">
        <ele>1847.4</ele>
        <time>2026-08-25T10:28:34Z</time>
      </trkpt>
      <trkpt lat="45.08697" lon="6.0919">
        <ele>1847.6</ele>
        <time>2026-08-25T10:28:35Z</time>
      </trkpt>
      <trkpt lat="45.08697" lon="6.09194">
        <ele>1847.7</ele>
        <time>2026-08-25T10:28:36Z</time>
      </trkpt>
      <trkpt lat="45.08697" lon="6.09199">
        <ele>1847.9</ele>
        <time>2026-08-25T10:28:37Z</time>
      </trkpt>
      <trkpt lat="45.08697" lon="6.09203">
        <ele>1848.1</ele>
        <time>2026-08-25T10:28:38Z</time>
      </trkpt>
      <trkpt lat="45.08696" lon="6.09208">
        <ele>1848.3</ele>
        <time>2026-08-25T10:28:39Z</time>
      </trkpt>
      <trkpt lat="45.08696" lon="6.09214">
        <ele>1848.5</ele>
        <time>2026-08-25T10:28:40Z</time>
      </trkpt>
      <trkpt lat="45.08697" lon="6.0922">
        <ele>1848.7</ele>
        <time>2026-08-25T10:28:41Z</time>
      </trkpt>
      <trkpt lat="45.08698" lon="6.09224">
        <ele>1848.9</ele>
        <time>2026-08-25T10:28:42Z</time>
      </trkpt>
      <trkpt lat="45.087" lon="6.09228">
        <ele>1849.1</ele>
        <time>2026-08-25T10:28:43Z</time>
      </trkpt>
      <trkpt lat="45.08702" lon="6.09231">
        <ele>1849.3</ele>
        <time>2026-08-25T10:28:44Z</time>
      </trkpt>
      <trkpt lat="45.08704" lon="6.09233">
        <ele>1849.5</ele>
        <time>2026-08-25T10:28:45Z</time>
      </trkpt>
      <trkpt lat="45.08708" lon="6.09235">
        <ele>1849.7</ele>
        <time>2026-08-25T10:28:46Z</time>
      </trkpt>
      <trkpt lat="45.08711" lon="6.09236">
        <ele>1850</ele>
        <time>2026-08-25T10:28:47Z</time>
      </trkpt>
      <trkpt lat="45.08714" lon="6.09237">
        <ele>1850.2</ele>
        <time>2026-08-25T10:28:48Z</time>
      </trkpt>
      <trkpt lat="45.08717" lon="6.09237">
        <ele>1850.4</ele>
        <time>2026-08-25T10:28:49Z</time>
      </trkpt>
      <trkpt lat="45.0872" lon="6.09236">
        <ele>1850.6</ele>
        <time>2026-08-25T10:28:50Z</time>
      </trkpt>
      <trkpt lat="45.08723" lon="6.09235">
        <ele>1850.8</ele>
        <time>2026-08-25T10:28:51Z</time>
      </trkpt>
      <trkpt lat="45.08726" lon="6.09235">
        <ele>1851</ele>
        <time>2026-08-25T10:28:52Z</time>
      </trkpt>
      <trkpt lat="45.08729" lon="6.09234">
        <ele>1851.2</ele>
        <time>2026-08-25T10:28:53Z</time>
      </trkpt>
      <trkpt lat="45.08731" lon="6.09231">
        <ele>1851.4</ele>
        <time>2026-08-25T10:28:54Z</time>
      </trkpt>
      <trkpt lat="45.08733" lon="6.09228">
        <ele>1851.5</ele>
        <time>2026-08-25T10:28:55Z</time>
      </trkpt>
      <trkpt lat="45.08734" lon="6.09224">
        <ele>1851.7</ele>
        <time>2026-08-25T10:28:56Z</time>
      </trkpt>
      <trkpt lat="45.08734" lon="6.0922">
        <ele>1851.8</ele>
        <time>2026-08-25T10:28:57Z</time>
      </trkpt>
      <trkpt lat="45.08734" lon="6.09215">
        <ele>1852</ele>
        <time>2026-08-25T10:28:58Z</time>
      </trkpt>
      <trkpt lat="45.08734" lon="6.09211">
        <ele>1852.1</ele>
        <time>2026-08-25T10:28:59Z</time>
      </trkpt>
      <trkpt lat="45.08734" lon="6.09206">
        <ele>1852.2</ele>
        <time>2026-08-25T10:29:00Z</time>
      </trkpt>
      <trkpt lat="45.08733" lon="6.09201">
        <ele>1852.3</ele>
        <time>2026-08-25T10:29:01Z</time>
      </trkpt>
      <trkpt lat="45.08732" lon="6.09196">
        <ele>1852.4</ele>
        <time>2026-08-25T10:29:02Z</time>
      </trkpt>
      <trkpt lat="45.08732" lon="6.09192">
        <ele>1852.6</ele>
        <time>2026-08-25T10:29:03Z</time>
      </trkpt>
      <trkpt lat="45.08731" lon="6.09188">
        <ele>1852.7</ele>
        <time>2026-08-25T10:29:04Z</time>
      </trkpt>
      <trkpt lat="45.08731" lon="6.09183">
        <ele>1852.8</ele>
        <time>2026-08-25T10:29:05Z</time>
      </trkpt>
      <trkpt lat="45.0873" lon="6.09178">
        <ele>1852.9</ele>
        <time>2026-08-25T10:29:06Z</time>
      </trkpt>
      <trkpt lat="45.0873" lon="6.09174">
        <ele>1853</ele>
        <time>2026-08-25T10:29:07Z</time>
      </trkpt>
      <trkpt lat="45.0873" lon="6.0917">
        <ele>1853.2</ele>
        <time>2026-08-25T10:29:08Z</time>
      </trkpt>
      <trkpt lat="45.0873" lon="6.09165">
        <ele>1853.3</ele>
        <time>2026-08-25T10:29:09Z</time>
      </trkpt>
      <trkpt lat="45.08731" lon="6.09161">
        <ele>1853.4</ele>
        <time>2026-08-25T10:29:10Z</time>
      </trkpt>
      <trkpt lat="45.08731" lon="6.09157">
        <ele>1853.5</ele>
        <time>2026-08-25T10:29:11Z</time>
      </trkpt>
      <trkpt lat="45.08732" lon="6.09153">
        <ele>1853.7</ele>
        <time>2026-08-25T10:29:12Z</time>
      </trkpt>
      <trkpt lat="45.08733" lon="6.0915">
        <ele>1853.8</ele>
        <time>2026-08-25T10:29:13Z</time>
      </trkpt>
      <trkpt lat="45.08734" lon="6.09147">
        <ele>1853.9</ele>
        <time>2026-08-25T10:29:14Z</time>
      </trkpt>
      <trkpt lat="45.08734" lon="6.09143">
        <ele>1854</ele>
        <time>2026-08-25T10:29:15Z</time>
      </trkpt>
      <trkpt lat="45.08735" lon="6.0914">
        <ele>1854.2</ele>
        <time>2026-08-25T10:29:16Z</time>
      </trkpt>
      <trkpt lat="45.08735" lon="6.09135">
        <ele>1854.4</ele>
        <time>2026-08-25T10:29:17Z</time>
      </trkpt>
      <trkpt lat="45.08735" lon="6.09132">
        <ele>1854.6</ele>
        <time>2026-08-25T10:29:18Z</time>
      </trkpt>
      <trkpt lat="45.08736" lon="6.09129">
        <ele>1854.7</ele>
        <time>2026-08-25T10:29:19Z</time>
      </trkpt>
      <trkpt lat="45.08736" lon="6.09126">
        <ele>1854.8</ele>
        <time>2026-08-25T10:29:20Z</time>
      </trkpt>
      <trkpt lat="45.08737" lon="6.09123">
        <ele>1855</ele>
        <time>2026-08-25T10:29:21Z</time>
      </trkpt>
      <trkpt lat="45.08738" lon="6.0912">
        <ele>1855.1</ele>
        <time>2026-08-25T10:29:22Z</time>
      </trkpt>
      <trkpt lat="45.08739" lon="6.09118">
        <ele>1855.2</ele>
        <time>2026-08-25T10:29:23Z</time>
      </trkpt>
      <trkpt lat="45.0874" lon="6.09114">
        <ele>1855.4</ele>
        <time>2026-08-25T10:29:24Z</time>
      </trkpt>
      <trkpt lat="45.08741" lon="6.09111">
        <ele>1855.6</ele>
        <time>2026-08-25T10:29:25Z</time>
      </trkpt>
      <trkpt lat="45.08741" lon="6.09108">
        <ele>1855.7</ele>
        <time>2026-08-25T10:29:26Z</time>
      </trkpt>
      <trkpt lat="45.08742" lon="6.09104">
        <ele>1855.9</ele>
        <time>2026-08-25T10:29:27Z</time>
      </trkpt>
      <trkpt lat="45.08743" lon="6.09101">
        <ele>1856</ele>
        <time>2026-08-25T10:29:28Z</time>
      </trkpt>
      <trkpt lat="45.08744" lon="6.09098">
        <ele>1856.2</ele>
        <time>2026-08-25T10:29:29Z</time>
      </trkpt>
      <trkpt lat="45.08744" lon="6.09094">
        <ele>1856.3</ele>
        <time>2026-08-25T10:29:30Z</time>
      </trkpt>
      <trkpt lat="45.08745" lon="6.09091">
        <ele>1856.5</ele>
        <time>2026-08-25T10:29:31Z</time>
      </trkpt>
      <trkpt lat="45.08746" lon="6.09087">
        <ele>1856.7</ele>
        <time>2026-08-25T10:29:32Z</time>
      </trkpt>
      <trkpt lat="45.08747" lon="6.09084">
        <ele>1856.8</ele>
        <time>2026-08-25T10:29:33Z</time>
      </trkpt>
      <trkpt lat="45.08748" lon="6.09081">
        <ele>1856.9</ele>
        <time>2026-08-25T10:29:34Z</time>
      </trkpt>
      <trkpt lat="45.08749" lon="6.09078">
        <ele>1857.1</ele>
        <time>2026-08-25T10:29:35Z</time>
      </trkpt>
      <trkpt lat="45.0875" lon="6.09075">
        <ele>1857.2</ele>
        <time>2026-08-25T10:29:36Z</time>
      </trkpt>
      <trkpt lat="45.08751" lon="6.09072">
        <ele>1857.4</ele>
        <time>2026-08-25T10:29:37Z</time>
      </trkpt>
      <trkpt lat="45.08752" lon="6.09068">
        <ele>1857.6</ele>
        <time>2026-08-25T10:29:38Z</time>
      </trkpt>
      <trkpt lat="45.08753" lon="6.09065">
        <ele>1857.7</ele>
        <time>2026-08-25T10:29:39Z</time>
      </trkpt>
      <trkpt lat="45.08754" lon="6.09062">
        <ele>1857.9</ele>
        <time>2026-08-25T10:29:40Z</time>
      </trkpt>
      <trkpt lat="45.08755" lon="6.09058">
        <ele>1858.1</ele>
        <time>2026-08-25T10:29:41Z</time>
      </trkpt>
      <trkpt lat="45.08757" lon="6.09055">
        <ele>1858.2</ele>
        <time>2026-08-25T10:29:42Z</time>
      </trkpt>
      <trkpt lat="45.08757" lon="6.09052">
        <ele>1858.4</ele>
        <time>2026-08-25T10:29:43Z</time>
      </trkpt>
      <trkpt lat="45.08759" lon="6.09048">
        <ele>1858.6</ele>
        <time>2026-08-25T10:29:44Z</time>
      </trkpt>
      <trkpt lat="45.08759" lon="6.09045">
        <ele>1858.8</ele>
        <time>2026-08-25T10:29:45Z</time>
      </trkpt>
      <trkpt lat="45.08761" lon="6.09042">
        <ele>1859</ele>
        <time>2026-08-25T10:29:46Z</time>
      </trkpt>
      <trkpt lat="45.08762" lon="6.09039">
        <ele>1859.1</ele>
        <time>2026-08-25T10:29:47Z</time>
      </trkpt>
      <trkpt lat="45.08763" lon="6.09036">
        <ele>1859.3</ele>
        <time>2026-08-25T10:29:48Z</time>
      </trkpt>
      <trkpt lat="45.08764" lon="6.09033">
        <ele>1859.5</ele>
        <time>2026-08-25T10:29:49Z</time>
      </trkpt>
      <trkpt lat="45.08765" lon="6.09029">
        <ele>1859.7</ele>
        <time>2026-08-25T10:29:50Z</time>
      </trkpt>
      <trkpt lat="45.08767" lon="6.09026">
        <ele>1859.9</ele>
        <time>2026-08-25T10:29:51Z</time>
      </trkpt>
      <trkpt lat="45.08768" lon="6.09024">
        <ele>1860.1</ele>
        <time>2026-08-25T10:29:52Z</time>
      </trkpt>
      <trkpt lat="45.0877" lon="6.09021">
        <ele>1860.3</ele>
        <time>2026-08-25T10:29:53Z</time>
      </trkpt>
      <trkpt lat="45.08772" lon="6.09018">
        <ele>1860.4</ele>
        <time>2026-08-25T10:29:54Z</time>
      </trkpt>
      <trkpt lat="45.08773" lon="6.09015">
        <ele>1860.6</ele>
        <time>2026-08-25T10:29:55Z</time>
      </trkpt>
      <trkpt lat="45.08775" lon="6.09012">
        <ele>1860.8</ele>
        <time>2026-08-25T10:29:56Z</time>
      </trkpt>
      <trkpt lat="45.08776" lon="6.09009">
        <ele>1861</ele>
        <time>2026-08-25T10:29:57Z</time>
      </trkpt>
      <trkpt lat="45.08779" lon="6.09006">
        <ele>1861.2</ele>
        <time>2026-08-25T10:29:58Z</time>
      </trkpt>
      <trkpt lat="45.08781" lon="6.09004">
        <ele>1861.4</ele>
        <time>2026-08-25T10:29:59Z</time>
      </trkpt>
      <trkpt lat="45.08782" lon="6.09001">
        <ele>1861.5</ele>
        <time>2026-08-25T10:30:00Z</time>
      </trkpt>
      <trkpt lat="45.08784" lon="6.08999">
        <ele>1861.7</ele>
        <time>2026-08-25T10:30:01Z</time>
      </trkpt>
      <trkpt lat="45.08786" lon="6.08996">
        <ele>1861.9</ele>
        <time>2026-08-25T10:30:02Z</time>
      </trkpt>
      <trkpt lat="45.08788" lon="6.08993">
        <ele>1862.1</ele>
        <time>2026-08-25T10:30:03Z</time>
      </trkpt>
      <trkpt lat="45.08789" lon="6.08989">
        <ele>1862.3</ele>
        <time>2026-08-25T10:30:04Z</time>
      </trkpt>
      <trkpt lat="45.08791" lon="6.08986">
        <ele>1862.5</ele>
        <time>2026-08-25T10:30:05Z</time>
      </trkpt>
      <trkpt lat="45.08793" lon="6.08983">
        <ele>1862.7</ele>
        <time>2026-08-25T10:30:06Z</time>
      </trkpt>
      <trkpt lat="45.08795" lon="6.0898">
        <ele>1862.8</ele>
        <time>2026-08-25T10:30:07Z</time>
      </trkpt>
      <trkpt lat="45.08796" lon="6.08978">
        <ele>1863</ele>
        <time>2026-08-25T10:30:08Z</time>
      </trkpt>
      <trkpt lat="45.08798" lon="6.08975">
        <ele>1863.2</ele>
        <time>2026-08-25T10:30:09Z</time>
      </trkpt>
      <trkpt lat="45.08799" lon="6.08973">
        <ele>1863.3</ele>
        <time>2026-08-25T10:30:10Z</time>
      </trkpt>
      <trkpt lat="45.08801" lon="6.0897">
        <ele>1863.5</ele>
        <time>2026-08-25T10:30:11Z</time>
      </trkpt>
      <trkpt lat="45.08802" lon="6.08967">
        <ele>1863.7</ele>
        <time>2026-08-25T10:30:12Z</time>
      </trkpt>
      <trkpt lat="45.08804" lon="6.08963">
        <ele>1863.9</ele>
        <time>2026-08-25T10:30:13Z</time>
      </trkpt>
      <trkpt lat="45.08806" lon="6.08959">
        <ele>1864.1</ele>
        <time>2026-08-25T10:30:14Z</time>
      </trkpt>
      <trkpt lat="45.08808" lon="6.08956">
        <ele>1864.4</ele>
        <time>2026-08-25T10:30:15Z</time>
      </trkpt>
      <trkpt lat="45.08809" lon="6.08953">
        <ele>1864.6</ele>
        <time>2026-08-25T10:30:16Z</time>
      </trkpt>
      <trkpt lat="45.08811" lon="6.08949">
        <ele>1864.8</ele>
        <time>2026-08-25T10:30:17Z</time>
      </trkpt>
      <trkpt lat="45.08813" lon="6.08946">
        <ele>1865</ele>
        <time>2026-08-25T10:30:18Z</time>
      </trkpt>
      <trkpt lat="45.08815" lon="6.08942">
        <ele>1865.2</ele>
        <time>2026-08-25T10:30:19Z</time>
      </trkpt>
      <trkpt lat="45.08817" lon="6.08939">
        <ele>1865.5</ele>
        <time>2026-08-25T10:30:20Z</time>
      </trkpt>
      <trkpt lat="45.0882" lon="6.08935">
        <ele>1865.7</ele>
        <time>2026-08-25T10:30:21Z</time>
      </trkpt>
      <trkpt lat="45.08822" lon="6.08931">
        <ele>1866</ele>
        <time>2026-08-25T10:30:22Z</time>
      </trkpt>
      <trkpt lat="45.08825" lon="6.08927">
        <ele>1866.3</ele>
        <time>2026-08-25T10:30:23Z</time>
      </trkpt>
      <trkpt lat="45.08827" lon="6.08923">
        <ele>1866.5</ele>
        <time>2026-08-25T10:30:24Z</time>
      </trkpt>
      <trkpt lat="45.08829" lon="6.0892">
        <ele>1866.7</ele>
        <time>2026-08-25T10:30:25Z</time>
      </trkpt>
      <trkpt lat="45.08831" lon="6.08916">
        <ele>1867</ele>
        <time>2026-08-25T10:30:26Z</time>
      </trkpt>
      <trkpt lat="45.08832" lon="6.08913">
        <ele>1867.1</ele>
        <time>2026-08-25T10:30:27Z</time>
      </trkpt>
      <trkpt lat="45.08834" lon="6.08911">
        <ele>1867.3</ele>
        <time>2026-08-25T10:30:28Z</time>
      </trkpt>
      <trkpt lat="45.08836" lon="6.08908">
        <ele>1867.5</ele>
        <time>2026-08-25T10:30:29Z</time>
      </trkpt>
      <trkpt lat="45.08838" lon="6.08905">
        <ele>1867.7</ele>
        <time>2026-08-25T10:30:30Z</time>
      </trkpt>
      <trkpt lat="45.0884" lon="6.08901">
        <ele>1867.8</ele>
        <time>2026-08-25T10:30:31Z</time>
      </trkpt>
      <trkpt lat="45.08842" lon="6.08897">
        <ele>1868</ele>
        <time>2026-08-25T10:30:32Z</time>
      </trkpt>
      <trkpt lat="45.08844" lon="6.08894">
        <ele>1868.2</ele>
        <time>2026-08-25T10:30:33Z</time>
      </trkpt>
      <trkpt lat="45.08846" lon="6.0889">
        <ele>1868.4</ele>
        <time>2026-08-25T10:30:34Z</time>
      </trkpt>
      <trkpt lat="45.08848" lon="6.08886">
        <ele>1868.6</ele>
        <time>2026-08-25T10:30:35Z</time>
      </trkpt>
      <trkpt lat="45.0885" lon="6.08882">
        <ele>1868.8</ele>
        <time>2026-08-25T10:30:36Z</time>
      </trkpt>
      <trkpt lat="45.08852" lon="6.08877">
        <ele>1869</ele>
        <time>2026-08-25T10:30:37Z</time>
      </trkpt>
      <trkpt lat="45.08854" lon="6.08872">
        <ele>1869.1</ele>
        <time>2026-08-25T10:30:38Z</time>
      </trkpt>
      <trkpt lat="45.08857" lon="6.08868">
        <ele>1869.3</ele>
        <time>2026-08-25T10:30:39Z</time>
      </trkpt>
      <trkpt lat="45.08859" lon="6.08864">
        <ele>1869.5</ele>
        <time>2026-08-25T10:30:40Z</time>
      </trkpt>
      <trkpt lat="45.08861" lon="6.0886">
        <ele>1869.6</ele>
        <time>2026-08-25T10:30:41Z</time>
      </trkpt>
      <trkpt lat="45.08864" lon="6.08855">
        <ele>1869.8</ele>
        <time>2026-08-25T10:30:42Z</time>
      </trkpt>
      <trkpt lat="45.08865" lon="6.08851">
        <ele>1869.9</ele>
        <time>2026-08-25T10:30:43Z</time>
      </trkpt>
      <trkpt lat="45.08867" lon="6.08846">
        <ele>1870</ele>
        <time>2026-08-25T10:30:44Z</time>
      </trkpt>
      <trkpt lat="45.0887" lon="6.08842">
        <ele>1870.1</ele>
        <time>2026-08-25T10:30:45Z</time>
      </trkpt>
      <trkpt lat="45.08872" lon="6.08837">
        <ele>1870.2</ele>
        <time>2026-08-25T10:30:46Z</time>
      </trkpt>
      <trkpt lat="45.08874" lon="6.08833">
        <ele>1870.3</ele>
        <time>2026-08-25T10:30:47Z</time>
      </trkpt>
      <trkpt lat="45.08877" lon="6.08829">
        <ele>1870.4</ele>
        <time>2026-08-25T10:30:48Z</time>
      </trkpt>
      <trkpt lat="45.08879" lon="6.08825">
        <ele>1870.4</ele>
        <time>2026-08-25T10:30:49Z</time>
      </trkpt>
      <trkpt lat="45.08881" lon="6.08821">
        <ele>1870.5</ele>
        <time>2026-08-25T10:30:50Z</time>
      </trkpt>
      <trkpt lat="45.08884" lon="6.08817">
        <ele>1870.5</ele>
        <time>2026-08-25T10:30:51Z</time>
      </trkpt>
      <trkpt lat="45.08886" lon="6.08813">
        <ele>1870.5</ele>
        <time>2026-08-25T10:30:52Z</time>
      </trkpt>
      <trkpt lat="45.08889" lon="6.08808">
        <ele>1870.6</ele>
        <time>2026-08-25T10:30:53Z</time>
      </trkpt>
      <trkpt lat="45.08891" lon="6.08804">
        <ele>1870.6</ele>
        <time>2026-08-25T10:30:54Z</time>
      </trkpt>
      <trkpt lat="45.08893" lon="6.088">
        <ele>1870.6</ele>
        <time>2026-08-25T10:30:55Z</time>
      </trkpt>
      <trkpt lat="45.08895" lon="6.08795">
        <ele>1870.6</ele>
        <time>2026-08-25T10:30:56Z</time>
      </trkpt>
      <trkpt lat="45.08897" lon="6.0879">
        <ele>1870.6</ele>
        <time>2026-08-25T10:30:57Z</time>
      </trkpt>
      <trkpt lat="45.08899" lon="6.08786">
        <ele>1870.6</ele>
        <time>2026-08-25T10:30:58Z</time>
      </trkpt>
      <trkpt lat="45.08901" lon="6.08781">
        <ele>1870.6</ele>
        <time>2026-08-25T10:30:59Z</time>
      </trkpt>
      <trkpt lat="45.08903" lon="6.08777">
        <ele>1870.5</ele>
        <time>2026-08-25T10:31:00Z</time>
      </trkpt>
      <trkpt lat="45.08905" lon="6.08772">
        <ele>1870.4</ele>
        <time>2026-08-25T10:31:01Z</time>
      </trkpt>
      <trkpt lat="45.08906" lon="6.08768">
        <ele>1870.4</ele>
        <time>2026-08-25T10:31:02Z</time>
      </trkpt>
      <trkpt lat="45.08908" lon="6.08763">
        <ele>1870.3</ele>
        <time>2026-08-25T10:31:03Z</time>
      </trkpt>
      <trkpt lat="45.08909" lon="6.08758">
        <ele>1870.2</ele>
        <time>2026-08-25T10:31:04Z</time>
      </trkpt>
      <trkpt lat="45.0891" lon="6.08753">
        <ele>1870.1</ele>
        <time>2026-08-25T10:31:05Z</time>
      </trkpt>
      <trkpt lat="45.08911" lon="6.08747">
        <ele>1870</ele>
        <time>2026-08-25T10:31:06Z</time>
      </trkpt>
      <trkpt lat="45.08913" lon="6.08742">
        <ele>1869.9</ele>
        <time>2026-08-25T10:31:07Z</time>
      </trkpt>
      <trkpt lat="45.08914" lon="6.08736">
        <ele>1869.7</ele>
        <time>2026-08-25T10:31:08Z</time>
      </trkpt>
      <trkpt lat="45.08914" lon="6.08729">
        <ele>1869.5</ele>
        <time>2026-08-25T10:31:09Z</time>
      </trkpt>
      <trkpt lat="45.08915" lon="6.08722">
        <ele>1869.3</ele>
        <time>2026-08-25T10:31:10Z</time>
      </trkpt>
      <trkpt lat="45.08916" lon="6.08715">
        <ele>1869</ele>
        <time>2026-08-25T10:31:11Z</time>
      </trkpt>
      <trkpt lat="45.08917" lon="6.08708">
        <ele>1868.7</ele>
        <time>2026-08-25T10:31:12Z</time>
      </trkpt>
      <trkpt lat="45.08917" lon="6.08701">
        <ele>1868.5</ele>
        <time>2026-08-25T10:31:13Z</time>
      </trkpt>
      <trkpt lat="45.08918" lon="6.08694">
        <ele>1868.2</ele>
        <time>2026-08-25T10:31:14Z</time>
      </trkpt>
      <trkpt lat="45.08919" lon="6.08686">
        <ele>1867.9</ele>
        <time>2026-08-25T10:31:15Z</time>
      </trkpt>
      <trkpt lat="45.08919" lon="6.08679">
        <ele>1867.6</ele>
        <time>2026-08-25T10:31:16Z</time>
      </trkpt>
      <trkpt lat="45.0892" lon="6.08671">
        <ele>1867.3</ele>
        <time>2026-08-25T10:31:17Z</time>
      </trkpt>
      <trkpt lat="45.0892" lon="6.08662">
        <ele>1867</ele>
        <time>2026-08-25T10:31:18Z</time>
      </trkpt>
      <trkpt lat="45.08921" lon="6.08653">
        <ele>1866.6</ele>
        <time>2026-08-25T10:31:19Z</time>
      </trkpt>
      <trkpt lat="45.08921" lon="6.08644">
        <ele>1866.3</ele>
        <time>2026-08-25T10:31:20Z</time>
      </trkpt>
      <trkpt lat="45.08922" lon="6.08635">
        <ele>1866</ele>
        <time>2026-08-25T10:31:21Z</time>
      </trkpt>
      <trkpt lat="45.08924" lon="6.08626">
        <ele>1865.7</ele>
        <time>2026-08-25T10:31:22Z</time>
      </trkpt>
      <trkpt lat="45.08926" lon="6.08616">
        <ele>1865.4</ele>
        <time>2026-08-25T10:31:23Z</time>
      </trkpt>
      <trkpt lat="45.08929" lon="6.08608">
        <ele>1865.1</ele>
        <time>2026-08-25T10:31:24Z</time>
      </trkpt>
      <trkpt lat="45.08931" lon="6.08599">
        <ele>1864.8</ele>
        <time>2026-08-25T10:31:25Z</time>
      </trkpt>
      <trkpt lat="45.08934" lon="6.0859">
        <ele>1864.6</ele>
        <time>2026-08-25T10:31:26Z</time>
      </trkpt>
      <trkpt lat="45.08938" lon="6.0858">
        <ele>1864.3</ele>
        <time>2026-08-25T10:31:27Z</time>
      </trkpt>
      <trkpt lat="45.08941" lon="6.08571">
        <ele>1864.1</ele>
        <time>2026-08-25T10:31:28Z</time>
      </trkpt>
      <trkpt lat="45.08945" lon="6.08562">
        <ele>1863.8</ele>
        <time>2026-08-25T10:31:29Z</time>
      </trkpt>
      <trkpt lat="45.08949" lon="6.08554">
        <ele>1863.6</ele>
        <time>2026-08-25T10:31:30Z</time>
      </trkpt>
      <trkpt lat="45.08953" lon="6.08545">
        <ele>1863.4</ele>
        <time>2026-08-25T10:31:31Z</time>
      </trkpt>
      <trkpt lat="45.08957" lon="6.08537">
        <ele>1863.1</ele>
        <time>2026-08-25T10:31:32Z</time>
      </trkpt>
      <trkpt lat="45.08962" lon="6.08529">
        <ele>1862.9</ele>
        <time>2026-08-25T10:31:33Z</time>
      </trkpt>
      <trkpt lat="45.08966" lon="6.08521">
        <ele>1862.8</ele>
        <time>2026-08-25T10:31:34Z</time>
      </trkpt>
      <trkpt lat="45.08971" lon="6.08514">
        <ele>1862.5</ele>
        <time>2026-08-25T10:31:35Z</time>
      </trkpt>
      <trkpt lat="45.08976" lon="6.08506">
        <ele>1862.3</ele>
        <time>2026-08-25T10:31:36Z</time>
      </trkpt>
      <trkpt lat="45.08981" lon="6.08499">
        <ele>1862.2</ele>
        <time>2026-08-25T10:31:37Z</time>
      </trkpt>
      <trkpt lat="45.08986" lon="6.08491">
        <ele>1862</ele>
        <time>2026-08-25T10:31:38Z</time>
      </trkpt>
      <trkpt lat="45.08989" lon="6.08483">
        <ele>1862</ele>
        <time>2026-08-25T10:31:39Z</time>
      </trkpt>
      <trkpt lat="45.08991" lon="6.08474">
        <ele>1861.9</ele>
        <time>2026-08-25T10:31:40Z</time>
      </trkpt>
      <trkpt lat="45.08993" lon="6.08466">
        <ele>1861.9</ele>
        <time>2026-08-25T10:31:41Z</time>
      </trkpt>
      <trkpt lat="45.08993" lon="6.08458">
        <ele>1861.8</ele>
        <time>2026-08-25T10:31:42Z</time>
      </trkpt>
      <trkpt lat="45.08994" lon="6.08451">
        <ele>1861.8</ele>
        <time>2026-08-25T10:31:43Z</time>
      </trkpt>
      <trkpt lat="45.08994" lon="6.08443">
        <ele>1861.8</ele>
        <time>2026-08-25T10:31:44Z</time>
      </trkpt>
      <trkpt lat="45.08993" lon="6.08436">
        <ele>1861.7</ele>
        <time>2026-08-25T10:31:45Z</time>
      </trkpt>
      <trkpt lat="45.08993" lon="6.08428">
        <ele>1861.6</ele>
        <time>2026-08-25T10:31:46Z</time>
      </trkpt>
      <trkpt lat="45.08992" lon="6.0842">
        <ele>1861.5</ele>
        <time>2026-08-25T10:31:47Z</time>
      </trkpt>
      <trkpt lat="45.08992" lon="6.08412">
        <ele>1861.4</ele>
        <time>2026-08-25T10:31:48Z</time>
      </trkpt>
      <trkpt lat="45.08991" lon="6.08404">
        <ele>1861.3</ele>
        <time>2026-08-25T10:31:49Z</time>
      </trkpt>
      <trkpt lat="45.0899" lon="6.08395">
        <ele>1861.1</ele>
        <time>2026-08-25T10:31:50Z</time>
      </trkpt>
      <trkpt lat="45.08989" lon="6.08385">
        <ele>1860.6</ele>
        <time>2026-08-25T10:31:51Z</time>
      </trkpt>
      <trkpt lat="45.08987" lon="6.08376">
        <ele>1860.1</ele>
        <time>2026-08-25T10:31:52Z</time>
      </trkpt>
      <trkpt lat="45.08986" lon="6.08367">
        <ele>1859.6</ele>
        <time>2026-08-25T10:31:53Z</time>
      </trkpt>
      <trkpt lat="45.08985" lon="6.08357">
        <ele>1859.1</ele>
        <time>2026-08-25T10:31:54Z</time>
      </trkpt>
      <trkpt lat="45.08983" lon="6.08347">
        <ele>1858.5</ele>
        <time>2026-08-25T10:31:55Z</time>
      </trkpt>
      <trkpt lat="45.0898" lon="6.08337">
        <ele>1857.9</ele>
        <time>2026-08-25T10:31:56Z</time>
      </trkpt>
      <trkpt lat="45.08978" lon="6.08326">
        <ele>1857.2</ele>
        <time>2026-08-25T10:31:57Z</time>
      </trkpt>
      <trkpt lat="45.08975" lon="6.08315">
        <ele>1856.5</ele>
        <time>2026-08-25T10:31:58Z</time>
      </trkpt>
      <trkpt lat="45.08972" lon="6.08303">
        <ele>1855.7</ele>
        <time>2026-08-25T10:31:59Z</time>
      </trkpt>
      <trkpt lat="45.08969" lon="6.08291">
        <ele>1855</ele>
        <time>2026-08-25T10:32:00Z</time>
      </trkpt>
      <trkpt lat="45.08966" lon="6.08278">
        <ele>1854.1</ele>
        <time>2026-08-25T10:32:01Z</time>
      </trkpt>
      <trkpt lat="45.08963" lon="6.08265">
        <ele>1853.1</ele>
        <time>2026-08-25T10:32:02Z</time>
      </trkpt>
      <trkpt lat="45.08959" lon="6.08251">
        <ele>1852.1</ele>
        <time>2026-08-25T10:32:03Z</time>
      </trkpt>
      <trkpt lat="45.08955" lon="6.08237">
        <ele>1851.1</ele>
        <time>2026-08-25T10:32:04Z</time>
      </trkpt>
      <trkpt lat="45.08951" lon="6.08223">
        <ele>1850.1</ele>
        <time>2026-08-25T10:32:05Z</time>
      </trkpt>
      <trkpt lat="45.08949" lon="6.08208">
        <ele>1849.2</ele>
        <time>2026-08-25T10:32:06Z</time>
      </trkpt>
      <trkpt lat="45.08947" lon="6.08192">
        <ele>1848.3</ele>
        <time>2026-08-25T10:32:07Z</time>
      </trkpt>
      <trkpt lat="45.08948" lon="6.08176">
        <ele>1847.6</ele>
        <time>2026-08-25T10:32:08Z</time>
      </trkpt>
      <trkpt lat="45.08951" lon="6.08162">
        <ele>1846.8</ele>
        <time>2026-08-25T10:32:09Z</time>
      </trkpt>
      <trkpt lat="45.08957" lon="6.08149">
        <ele>1846</ele>
        <time>2026-08-25T10:32:10Z</time>
      </trkpt>
      <trkpt lat="45.08966" lon="6.0814">
        <ele>1845.2</ele>
        <time>2026-08-25T10:32:11Z</time>
      </trkpt>
      <trkpt lat="45.08976" lon="6.08132">
        <ele>1844.5</ele>
        <time>2026-08-25T10:32:12Z</time>
      </trkpt>
      <trkpt lat="45.08986" lon="6.08123">
        <ele>1844</ele>
        <time>2026-08-25T10:32:13Z</time>
      </trkpt>
      <trkpt lat="45.08994" lon="6.08112">
        <ele>1843.5</ele>
        <time>2026-08-25T10:32:14Z</time>
      </trkpt>
      <trkpt lat="45.09001" lon="6.08101">
        <ele>1843.1</ele>
        <time>2026-08-25T10:32:15Z</time>
      </trkpt>
      <trkpt lat="45.09007" lon="6.0809">
        <ele>1842.6</ele>
        <time>2026-08-25T10:32:16Z</time>
      </trkpt>
      <trkpt lat="45.09011" lon="6.08079">
        <ele>1841.7</ele>
        <time>2026-08-25T10:32:17Z</time>
      </trkpt>
      <trkpt lat="45.09014" lon="6.08068">
        <ele>1840.8</ele>
        <time>2026-08-25T10:32:18Z</time>
      </trkpt>
      <trkpt lat="45.09016" lon="6.08057">
        <ele>1839.9</ele>
        <time>2026-08-25T10:32:19Z</time>
      </trkpt>
      <trkpt lat="45.09017" lon="6.08046">
        <ele>1839</ele>
        <time>2026-08-25T10:32:20Z</time>
      </trkpt>
      <trkpt lat="45.09019" lon="6.08036">
        <ele>1838.3</ele>
        <time>2026-08-25T10:32:21Z</time>
      </trkpt>
      <trkpt lat="45.0902" lon="6.08028">
        <ele>1837.7</ele>
        <time>2026-08-25T10:32:22Z</time>
      </trkpt>
      <trkpt lat="45.09021" lon="6.08019">
        <ele>1837.2</ele>
        <time>2026-08-25T10:32:23Z</time>
      </trkpt>
      <trkpt lat="45.09023" lon="6.08012">
        <ele>1836.6</ele>
        <time>2026-08-25T10:32:24Z</time>
      </trkpt>
      <trkpt lat="45.09025" lon="6.08005">
        <ele>1836.1</ele>
        <time>2026-08-25T10:32:25Z</time>
      </trkpt>
      <trkpt lat="45.09028" lon="6.07998">
        <ele>1835.6</ele>
        <time>2026-08-25T10:32:26Z</time>
      </trkpt>
      <trkpt lat="45.0903" lon="6.07991">
        <ele>1835.1</ele>
        <time>2026-08-25T10:32:27Z</time>
      </trkpt>
      <trkpt lat="45.09032" lon="6.07984">
        <ele>1834.6</ele>
        <time>2026-08-25T10:32:28Z</time>
      </trkpt>
      <trkpt lat="45.09035" lon="6.07977">
        <ele>1834</ele>
        <time>2026-08-25T10:32:29Z</time>
      </trkpt>
      <trkpt lat="45.09037" lon="6.07971">
        <ele>1833.6</ele>
        <time>2026-08-25T10:32:30Z</time>
      </trkpt>
      <trkpt lat="45.0904" lon="6.07968">
        <ele>1833.2</ele>
        <time>2026-08-25T10:32:31Z</time>
      </trkpt>
      <trkpt lat="45.09044" lon="6.07965">
        <ele>1832.8</ele>
        <time>2026-08-25T10:32:32Z</time>
      </trkpt>
      <trkpt lat="45.09047" lon="6.07962">
        <ele>1832.5</ele>
        <time>2026-08-25T10:32:33Z</time>
      </trkpt>
      <trkpt lat="45.09051" lon="6.0796">
        <ele>1832.1</ele>
        <time>2026-08-25T10:32:34Z</time>
      </trkpt>
      <trkpt lat="45.09054" lon="6.07957">
        <ele>1831.7</ele>
        <time>2026-08-25T10:32:35Z</time>
      </trkpt>
      <trkpt lat="45.09058" lon="6.07954">
        <ele>1831.4</ele>
        <time>2026-08-25T10:32:36Z</time>
      </trkpt>
      <trkpt lat="45.09061" lon="6.07951">
        <ele>1831.1</ele>
        <time>2026-08-25T10:32:37Z</time>
      </trkpt>
      <trkpt lat="45.09065" lon="6.07949">
        <ele>1830.8</ele>
        <time>2026-08-25T10:32:38Z</time>
      </trkpt>
      <trkpt lat="45.09065" lon="6.07943">
        <ele>1830.6</ele>
        <time>2026-08-25T10:32:39Z</time>
      </trkpt>
      <trkpt lat="45.09064" lon="6.07936">
        <ele>1830.5</ele>
        <time>2026-08-25T10:32:40Z</time>
      </trkpt>
      <trkpt lat="45.09063" lon="6.0793">
        <ele>1830.4</ele>
        <time>2026-08-25T10:32:41Z</time>
      </trkpt>
      <trkpt lat="45.09063" lon="6.07925">
        <ele>1830.4</ele>
        <time>2026-08-25T10:32:42Z</time>
      </trkpt>
      <trkpt lat="45.09061" lon="6.07919">
        <ele>1830.3</ele>
        <time>2026-08-25T10:32:43Z</time>
      </trkpt>
      <trkpt lat="45.09059" lon="6.07915">
        <ele>1830.3</ele>
        <time>2026-08-25T10:32:44Z</time>
      </trkpt>
      <trkpt lat="45.09057" lon="6.07911">
        <ele>1830.2</ele>
        <time>2026-08-25T10:32:45Z</time>
      </trkpt>
      <trkpt lat="45.09053" lon="6.07907">
        <ele>1830.1</ele>
        <time>2026-08-25T10:32:46Z</time>
      </trkpt>
      <trkpt lat="45.0905" lon="6.07904">
        <ele>1830</ele>
        <time>2026-08-25T10:32:47Z</time>
      </trkpt>
      <trkpt lat="45.09047" lon="6.07901">
        <ele>1829.9</ele>
        <time>2026-08-25T10:32:48Z</time>
      </trkpt>
      <trkpt lat="45.09043" lon="6.07899">
        <ele>1829.8</ele>
        <time>2026-08-25T10:32:49Z</time>
      </trkpt>
      <trkpt lat="45.09038" lon="6.07899">
        <ele>1829.7</ele>
        <time>2026-08-25T10:32:50Z</time>
      </trkpt>
      <trkpt lat="45.09034" lon="6.079">
        <ele>1829.5</ele>
        <time>2026-08-25T10:32:51Z</time>
      </trkpt>
      <trkpt lat="45.0903" lon="6.07902">
        <ele>1829.2</ele>
        <time>2026-08-25T10:32:52Z</time>
      </trkpt>
      <trkpt lat="45.09025" lon="6.07904">
        <ele>1828.8</ele>
        <time>2026-08-25T10:32:53Z</time>
      </trkpt>
      <trkpt lat="45.0902" lon="6.07906">
        <ele>1828.4</ele>
        <time>2026-08-25T10:32:54Z</time>
      </trkpt>
      <trkpt lat="45.09015" lon="6.07909">
        <ele>1828</ele>
        <time>2026-08-25T10:32:55Z</time>
      </trkpt>
      <trkpt lat="45.0901" lon="6.07912">
        <ele>1827.6</ele>
        <time>2026-08-25T10:32:56Z</time>
      </trkpt>
      <trkpt lat="45.09004" lon="6.07916">
        <ele>1827.1</ele>
        <time>2026-08-25T10:32:57Z</time>
      </trkpt>
      <trkpt lat="45.08998" lon="6.07919">
        <ele>1826.7</ele>
        <time>2026-08-25T10:32:58Z</time>
      </trkpt>
      <trkpt lat="45.08992" lon="6.07922">
        <ele>1826.2</ele>
        <time>2026-08-25T10:32:59Z</time>
      </trkpt>
      <trkpt lat="45.08986" lon="6.07926">
        <ele>1825.8</ele>
        <time>2026-08-25T10:33:00Z</time>
      </trkpt>
      <trkpt lat="45.08981" lon="6.07931">
        <ele>1825.3</ele>
        <time>2026-08-25T10:33:01Z</time>
      </trkpt>
      <trkpt lat="45.08976" lon="6.07936">
        <ele>1824.8</ele>
        <time>2026-08-25T10:33:02Z</time>
      </trkpt>
      <trkpt lat="45.08972" lon="6.07942">
        <ele>1824.3</ele>
        <time>2026-08-25T10:33:03Z</time>
      </trkpt>
      <trkpt lat="45.08967" lon="6.07948">
        <ele>1823.8</ele>
        <time>2026-08-25T10:33:04Z</time>
      </trkpt>
      <trkpt lat="45.08963" lon="6.07955">
        <ele>1823.3</ele>
        <time>2026-08-25T10:33:05Z</time>
      </trkpt>
      <trkpt lat="45.08958" lon="6.07962">
        <ele>1822.8</ele>
        <time>2026-08-25T10:33:06Z</time>
      </trkpt>
      <trkpt lat="45.08953" lon="6.07967">
        <ele>1822.3</ele>
        <time>2026-08-25T10:33:07Z</time>
      </trkpt>
      <trkpt lat="45.08947" lon="6.07974">
        <ele>1821.7</ele>
        <time>2026-08-25T10:33:08Z</time>
      </trkpt>
      <trkpt lat="45.08941" lon="6.0798">
        <ele>1821.2</ele>
        <time>2026-08-25T10:33:09Z</time>
      </trkpt>
      <trkpt lat="45.08934" lon="6.07985">
        <ele>1820.7</ele>
        <time>2026-08-25T10:33:10Z</time>
      </trkpt>
      <trkpt lat="45.08928" lon="6.07991">
        <ele>1820.2</ele>
        <time>2026-08-25T10:33:11Z</time>
      </trkpt>
      <trkpt lat="45.08921" lon="6.07996">
        <ele>1819.7</ele>
        <time>2026-08-25T10:33:12Z</time>
      </trkpt>
      <trkpt lat="45.08914" lon="6.07999">
        <ele>1819.2</ele>
        <time>2026-08-25T10:33:13Z</time>
      </trkpt>
      <trkpt lat="45.08908" lon="6.08">
        <ele>1818.7</ele>
        <time>2026-08-25T10:33:14Z</time>
      </trkpt>
      <trkpt lat="45.089" lon="6.08">
        <ele>1818.3</ele>
        <time>2026-08-25T10:33:15Z</time>
      </trkpt>
      <trkpt lat="45.08894" lon="6.07997">
        <ele>1818</ele>
        <time>2026-08-25T10:33:16Z</time>
      </trkpt>
      <trkpt lat="45.08888" lon="6.07991">
        <ele>1817.7</ele>
        <time>2026-08-25T10:33:17Z</time>
      </trkpt>
      <trkpt lat="45.08884" lon="6.07983">
        <ele>1817.1</ele>
        <time>2026-08-25T10:33:18Z</time>
      </trkpt>
      <trkpt lat="45.08882" lon="6.07973">
        <ele>1816.3</ele>
        <time>2026-08-25T10:33:19Z</time>
      </trkpt>
      <trkpt lat="45.08881" lon="6.07963">
        <ele>1815.6</ele>
        <time>2026-08-25T10:33:20Z</time>
      </trkpt>
      <trkpt lat="45.08882" lon="6.07953">
        <ele>1814.9</ele>
        <time>2026-08-25T10:33:21Z</time>
      </trkpt>
      <trkpt lat="45.08884" lon="6.07945">
        <ele>1814.3</ele>
        <time>2026-08-25T10:33:22Z</time>
      </trkpt>
      <trkpt lat="45.08885" lon="6.07936">
        <ele>1813.7</ele>
        <time>2026-08-25T10:33:23Z</time>
      </trkpt>
      <trkpt lat="45.08887" lon="6.07928">
        <ele>1813.3</ele>
        <time>2026-08-25T10:33:24Z</time>
      </trkpt>
      <trkpt lat="45.08889" lon="6.07919">
        <ele>1812.9</ele>
        <time>2026-08-25T10:33:25Z</time>
      </trkpt>
      <trkpt lat="45.0889" lon="6.0791">
        <ele>1812.6</ele>
        <time>2026-08-25T10:33:26Z</time>
      </trkpt>
      <trkpt lat="45.08892" lon="6.07901">
        <ele>1812.3</ele>
        <time>2026-08-25T10:33:27Z</time>
      </trkpt>
      <trkpt lat="45.08894" lon="6.07892">
        <ele>1811.9</ele>
        <time>2026-08-25T10:33:28Z</time>
      </trkpt>
      <trkpt lat="45.08897" lon="6.07884">
        <ele>1811.6</ele>
        <time>2026-08-25T10:33:29Z</time>
      </trkpt>
      <trkpt lat="45.08902" lon="6.07875">
        <ele>1811.1</ele>
        <time>2026-08-25T10:33:30Z</time>
      </trkpt>
      <trkpt lat="45.08907" lon="6.07867">
        <ele>1810.7</ele>
        <time>2026-08-25T10:33:31Z</time>
      </trkpt>
      <trkpt lat="45.08913" lon="6.07858">
        <ele>1810.2</ele>
        <time>2026-08-25T10:33:32Z</time>
      </trkpt>
      <trkpt lat="45.0892" lon="6.07849">
        <ele>1809.7</ele>
        <time>2026-08-25T10:33:33Z</time>
      </trkpt>
      <trkpt lat="45.08927" lon="6.07841">
        <ele>1809.1</ele>
        <time>2026-08-25T10:33:34Z</time>
      </trkpt>
      <trkpt lat="45.08933" lon="6.07831">
        <ele>1808.6</ele>
        <time>2026-08-25T10:33:35Z</time>
      </trkpt>
      <trkpt lat="45.08938" lon="6.0782">
        <ele>1808.2</ele>
        <time>2026-08-25T10:33:36Z</time>
      </trkpt>
      <trkpt lat="45.08941" lon="6.07811">
        <ele>1807.8</ele>
        <time>2026-08-25T10:33:37Z</time>
      </trkpt>
      <trkpt lat="45.08942" lon="6.07802">
        <ele>1807.6</ele>
        <time>2026-08-25T10:33:38Z</time>
      </trkpt>
      <trkpt lat="45.08941" lon="6.07795">
        <ele>1807.4</ele>
        <time>2026-08-25T10:33:39Z</time>
      </trkpt>
      <trkpt lat="45.0894" lon="6.07788">
        <ele>1807.2</ele>
        <time>2026-08-25T10:33:40Z</time>
      </trkpt>
      <trkpt lat="45.08939" lon="6.07783">
        <ele>1807</ele>
        <time>2026-08-25T10:33:41Z</time>
      </trkpt>
      <trkpt lat="45.08938" lon="6.07778">
        <ele>1806.9</ele>
        <time>2026-08-25T10:33:42Z</time>
      </trkpt>
      <trkpt lat="45.08938" lon="6.07775">
        <ele>1806.8</ele>
        <time>2026-08-25T10:33:43Z</time>
      </trkpt>
      <trkpt lat="45.08937" lon="6.07773">
        <ele>1806.7</ele>
        <time>2026-08-25T10:33:44Z</time>
      </trkpt>
      <trkpt lat="45.08936" lon="6.07772">
        <ele>1806.7</ele>
        <time>2026-08-25T10:33:45Z</time>
      </trkpt>
      <trkpt lat="45.08936" lon="6.07772">
        <ele>1806.7</ele>
        <time>2026-08-25T10:33:46Z</time>
      </trkpt>
      <trkpt lat="45.08932" lon="6.07771">
        <ele>1806.5</ele>
        <time>2026-08-25T10:33:59Z</time>
      </trkpt>
      <trkpt lat="45.0893" lon="6.07769">
        <ele>1806.4</ele>
        <time>2026-08-25T10:34:00Z</time>
      </trkpt>
      <trkpt lat="45.08927" lon="6.07767">
        <ele>1806.2</ele>
        <time>2026-08-25T10:34:01Z</time>
      </trkpt>
      <trkpt lat="45.08925" lon="6.07766">
        <ele>1806</ele>
        <time>2026-08-25T10:34:02Z</time>
      </trkpt>
      <trkpt lat="45.08922" lon="6.07765">
        <ele>1805.8</ele>
        <time>2026-08-25T10:34:03Z</time>
      </trkpt>
      <trkpt lat="45.08918" lon="6.07765">
        <ele>1805.6</ele>
        <time>2026-08-25T10:34:04Z</time>
      </trkpt>
      <trkpt lat="45.08913" lon="6.07766">
        <ele>1805.4</ele>
        <time>2026-08-25T10:34:05Z</time>
      </trkpt>
      <trkpt lat="45.08909" lon="6.07768">
        <ele>1805.1</ele>
        <time>2026-08-25T10:34:06Z</time>
      </trkpt>
      <trkpt lat="45.08904" lon="6.07771">
        <ele>1804.8</ele>
        <time>2026-08-25T10:34:07Z</time>
      </trkpt>
      <trkpt lat="45.08899" lon="6.07774">
        <ele>1804.6</ele>
        <time>2026-08-25T10:34:08Z</time>
      </trkpt>
      <trkpt lat="45.08894" lon="6.07778">
        <ele>1804.4</ele>
        <time>2026-08-25T10:34:09Z</time>
      </trkpt>
      <trkpt lat="45.08889" lon="6.07782">
        <ele>1804.2</ele>
        <time>2026-08-25T10:34:10Z</time>
      </trkpt>
      <trkpt lat="45.08884" lon="6.07787">
        <ele>1804</ele>
        <time>2026-08-25T10:34:11Z</time>
      </trkpt>
      <trkpt lat="45.08877" lon="6.07788">
        <ele>1803.9</ele>
        <time>2026-08-25T10:34:12Z</time>
      </trkpt>
      <trkpt lat="45.08871" lon="6.07786">
        <ele>1803.8</ele>
        <time>2026-08-25T10:34:13Z</time>
      </trkpt>
      <trkpt lat="45.08867" lon="6.0778">
        <ele>1803.9</ele>
        <time>2026-08-25T10:34:14Z</time>
      </trkpt>
      <trkpt lat="45.08863" lon="6.07773">
        <ele>1804</ele>
        <time>2026-08-25T10:34:15Z</time>
      </trkpt>
      <trkpt lat="45.08858" lon="6.07766">
        <ele>1803.8</ele>
        <time>2026-08-25T10:34:16Z</time>
      </trkpt>
      <trkpt lat="45.08855" lon="6.07758">
        <ele>1803.6</ele>
        <time>2026-08-25T10:34:17Z</time>
      </trkpt>
      <trkpt lat="45.08854" lon="6.07749">
        <ele>1803.5</ele>
        <time>2026-08-25T10:34:18Z</time>
      </trkpt>
      <trkpt lat="45.08855" lon="6.07739">
        <ele>1803.4</ele>
        <time>2026-08-25T10:34:19Z</time>
      </trkpt>
      <trkpt lat="45.08857" lon="6.07731">
        <ele>1803.3</ele>
        <time>2026-08-25T10:34:20Z</time>
      </trkpt>
      <trkpt lat="45.0886" lon="6.07723">
        <ele>1803.2</ele>
        <time>2026-08-25T10:34:21Z</time>
      </trkpt>
      <trkpt lat="45.08865" lon="6.07717">
        <ele>1803.2</ele>
        <time>2026-08-25T10:34:22Z</time>
      </trkpt>
      <trkpt lat="45.0887" lon="6.07711">
        <ele>1803.2</ele>
        <time>2026-08-25T10:34:23Z</time>
      </trkpt>
      <trkpt lat="45.08875" lon="6.07707">
        <ele>1803.2</ele>
        <time>2026-08-25T10:34:24Z</time>
      </trkpt>
      <trkpt lat="45.0888" lon="6.07704">
        <ele>1803.2</ele>
        <time>2026-08-25T10:34:25Z</time>
      </trkpt>
      <trkpt lat="45.08885" lon="6.07701">
        <ele>1803.2</ele>
        <time>2026-08-25T10:34:26Z</time>
      </trkpt>
      <trkpt lat="45.08891" lon="6.07698">
        <ele>1803.2</ele>
        <time>2026-08-25T10:34:27Z</time>
      </trkpt>
      <trkpt lat="45.08896" lon="6.07696">
        <ele>1803.2</ele>
        <time>2026-08-25T10:34:28Z</time>
      </trkpt>
      <trkpt lat="45.08901" lon="6.07694">
        <ele>1803.2</ele>
        <time>2026-08-25T10:34:29Z</time>
      </trkpt>
      <trkpt lat="45.08906" lon="6.07691">
        <ele>1803.2</ele>
        <time>2026-08-25T10:34:30Z</time>
      </trkpt>
      <trkpt lat="45.08911" lon="6.07689">
        <ele>1803.2</ele>
        <time>2026-08-25T10:34:31Z</time>
      </trkpt>
      <trkpt lat="45.08916" lon="6.07685">
        <ele>1803.2</ele>
        <time>2026-08-25T10:34:32Z</time>
      </trkpt>
      <trkpt lat="45.0892" lon="6.07682">
        <ele>1803.2</ele>
        <time>2026-08-25T10:34:33Z</time>
      </trkpt>
      <trkpt lat="45.08924" lon="6.07678">
        <ele>1803.2</ele>
        <time>2026-08-25T10:34:34Z</time>
      </trkpt>
      <trkpt lat="45.08929" lon="6.07674">
        <ele>1803.2</ele>
        <time>2026-08-25T10:34:35Z</time>
      </trkpt>
      <trkpt lat="45.08933" lon="6.07669">
        <ele>1803.2</ele>
        <time>2026-08-25T10:34:36Z</time>
      </trkpt>
      <trkpt lat="45.08937" lon="6.07663">
        <ele>1803.2</ele>
        <time>2026-08-25T10:34:37Z</time>
      </trkpt>
      <trkpt lat="45.08941" lon="6.07657">
        <ele>1803.2</ele>
        <time>2026-08-25T10:34:38Z</time>
      </trkpt>
      <trkpt lat="45.08945" lon="6.0765">
        <ele>1803.2</ele>
        <time>2026-08-25T10:34:39Z</time>
      </trkpt>
      <trkpt lat="45.08949" lon="6.07643">
        <ele>1803.2</ele>
        <time>2026-08-25T10:34:40Z</time>
      </trkpt>
      <trkpt lat="45.08953" lon="6.07636">
        <ele>1803.2</ele>
        <time>2026-08-25T10:34:41Z</time>
      </trkpt>
      <trkpt lat="45.08957" lon="6.0763">
        <ele>1803.2</ele>
        <time>2026-08-25T10:34:42Z</time>
      </trkpt>
      <trkpt lat="45.0896" lon="6.07623">
        <ele>1803.2</ele>
        <time>2026-08-25T10:34:43Z</time>
      </trkpt>
      <trkpt lat="45.08964" lon="6.07616">
        <ele>1803.2</ele>
        <time>2026-08-25T10:34:44Z</time>
      </trkpt>
      <trkpt lat="45.08968" lon="6.07608">
        <ele>1803.2</ele>
        <time>2026-08-25T10:34:45Z</time>
      </trkpt>
      <trkpt lat="45.08971" lon="6.076">
        <ele>1803.1</ele>
        <time>2026-08-25T10:34:46Z</time>
      </trkpt>
      <trkpt lat="45.08974" lon="6.07592">
        <ele>1803.1</ele>
        <time>2026-08-25T10:34:47Z</time>
      </trkpt>
      <trkpt lat="45.08976" lon="6.07583">
        <ele>1803.1</ele>
        <time>2026-08-25T10:34:48Z</time>
      </trkpt>
      <trkpt lat="45.08977" lon="6.07575">
        <ele>1803.2</ele>
        <time>2026-08-25T10:34:49Z</time>
      </trkpt>
      <trkpt lat="45.08979" lon="6.07566">
        <ele>1803.2</ele>
        <time>2026-08-25T10:34:50Z</time>
      </trkpt>
      <trkpt lat="45.08981" lon="6.07558">
        <ele>1803.2</ele>
        <time>2026-08-25T10:34:51Z</time>
      </trkpt>
      <trkpt lat="45.08982" lon="6.0755">
        <ele>1803.2</ele>
        <time>2026-08-25T10:34:52Z</time>
      </trkpt>
      <trkpt lat="45.08984" lon="6.07541">
        <ele>1803.1</ele>
        <time>2026-08-25T10:34:53Z</time>
      </trkpt>
      <trkpt lat="45.08986" lon="6.07534">
        <ele>1803.1</ele>
        <time>2026-08-25T10:34:54Z</time>
      </trkpt>
      <trkpt lat="45.08988" lon="6.07526">
        <ele>1803</ele>
        <time>2026-08-25T10:34:55Z</time>
      </trkpt>
      <trkpt lat="45.0899" lon="6.07519">
        <ele>1803</ele>
        <time>2026-08-25T10:34:56Z</time>
      </trkpt>
      <trkpt lat="45.08993" lon="6.07511">
        <ele>1803</ele>
        <time>2026-08-25T10:34:57Z</time>
      </trkpt>
      <trkpt lat="45.08996" lon="6.07504">
        <ele>1803.1</ele>
        <time>2026-08-25T10:34:58Z</time>
      </trkpt>
      <trkpt lat="45.08999" lon="6.07496">
        <ele>1803.2</ele>
        <time>2026-08-25T10:34:59Z</time>
      </trkpt>
      <trkpt lat="45.09002" lon="6.07489">
        <ele>1803.3</ele>
        <time>2026-08-25T10:35:00Z</time>
      </trkpt>
      <trkpt lat="45.09005" lon="6.07482">
        <ele>1803.4</ele>
        <time>2026-08-25T10:35:01Z</time>
      </trkpt>
      <trkpt lat="45.09008" lon="6.07476">
        <ele>1803.5</ele>
        <time>2026-08-25T10:35:02Z</time>
      </trkpt>
      <trkpt lat="45.09011" lon="6.0747">
        <ele>1803.6</ele>
        <time>2026-08-25T10:35:03Z</time>
      </trkpt>
      <trkpt lat="45.09014" lon="6.07464">
        <ele>1803.8</ele>
        <time>2026-08-25T10:35:04Z</time>
      </trkpt>
      <trkpt lat="45.09018" lon="6.07458">
        <ele>1803.9</ele>
        <time>2026-08-25T10:35:05Z</time>
      </trkpt>
      <trkpt lat="45.09021" lon="6.07453">
        <ele>1804</ele>
        <time>2026-08-25T10:35:06Z</time>
      </trkpt>
      <trkpt lat="45.09025" lon="6.07448">
        <ele>1804.2</ele>
        <time>2026-08-25T10:35:07Z</time>
      </trkpt>
      <trkpt lat="45.09029" lon="6.07442">
        <ele>1804.3</ele>
        <time>2026-08-25T10:35:08Z</time>
      </trkpt>
      <trkpt lat="45.09033" lon="6.07437">
        <ele>1804.5</ele>
        <time>2026-08-25T10:35:09Z</time>
      </trkpt>
      <trkpt lat="45.09037" lon="6.07431">
        <ele>1804.7</ele>
        <time>2026-08-25T10:35:10Z</time>
      </trkpt>
      <trkpt lat="45.0904" lon="6.07423">
        <ele>1804.9</ele>
        <time>2026-08-25T10:35:11Z</time>
      </trkpt>
      <trkpt lat="45.09042" lon="6.07416">
        <ele>1805.3</ele>
        <time>2026-08-25T10:35:12Z</time>
      </trkpt>
      <trkpt lat="45.09044" lon="6.07408">
        <ele>1805.8</ele>
        <time>2026-08-25T10:35:13Z</time>
      </trkpt>
      <trkpt lat="45.09045" lon="6.074">
        <ele>1806.3</ele>
        <time>2026-08-25T10:35:14Z</time>
      </trkpt>
      <trkpt lat="45.09043" lon="6.07394">
        <ele>1806.8</ele>
        <time>2026-08-25T10:35:15Z</time>
      </trkpt>
      <trkpt lat="45.09041" lon="6.07387">
        <ele>1807.4</ele>
        <time>2026-08-25T10:35:16Z</time>
      </trkpt>
      <trkpt lat="45.09038" lon="6.07382">
        <ele>1807.4</ele>
        <time>2026-08-25T10:35:17Z</time>
      </trkpt>
      <trkpt lat="45.09034" lon="6.07377">
        <ele>1807.4</ele>
        <time>2026-08-25T10:35:18Z</time>
      </trkpt>
      <trkpt lat="45.09029" lon="6.07375">
        <ele>1807.3</ele>
        <time>2026-08-25T10:35:19Z</time>
      </trkpt>
      <trkpt lat="45.09023" lon="6.07374">
        <ele>1807.2</ele>
        <time>2026-08-25T10:35:20Z</time>
      </trkpt>
      <trkpt lat="45.09017" lon="6.07374">
        <ele>1807</ele>
        <time>2026-08-25T10:35:21Z</time>
      </trkpt>
      <trkpt lat="45.09011" lon="6.07374">
        <ele>1806.5</ele>
        <time>2026-08-25T10:35:22Z</time>
      </trkpt>
      <trkpt lat="45.09004" lon="6.07376">
        <ele>1805.5</ele>
        <time>2026-08-25T10:35:23Z</time>
      </trkpt>
      <trkpt lat="45.08996" lon="6.07379">
        <ele>1804.7</ele>
        <time>2026-08-25T10:35:24Z</time>
      </trkpt>
      <trkpt lat="45.08989" lon="6.07382">
        <ele>1804</ele>
        <time>2026-08-25T10:35:25Z</time>
      </trkpt>
      <trkpt lat="45.08982" lon="6.07386">
        <ele>1803.2</ele>
        <time>2026-08-25T10:35:26Z</time>
      </trkpt>
      <trkpt lat="45.08975" lon="6.07391">
        <ele>1802.4</ele>
        <time>2026-08-25T10:35:27Z</time>
      </trkpt>
      <trkpt lat="45.08968" lon="6.07397">
        <ele>1801.7</ele>
        <time>2026-08-25T10:35:28Z</time>
      </trkpt>
      <trkpt lat="45.08961" lon="6.07405">
        <ele>1801.3</ele>
        <time>2026-08-25T10:35:29Z</time>
      </trkpt>
      <trkpt lat="45.08955" lon="6.07415">
        <ele>1800.5</ele>
        <time>2026-08-25T10:35:30Z</time>
      </trkpt>
      <trkpt lat="45.08951" lon="6.07427">
        <ele>1799.7</ele>
        <time>2026-08-25T10:35:31Z</time>
      </trkpt>
      <trkpt lat="45.08946" lon="6.07439">
        <ele>1798.9</ele>
        <time>2026-08-25T10:35:32Z</time>
      </trkpt>
      <trkpt lat="45.08942" lon="6.07451">
        <ele>1798.1</ele>
        <time>2026-08-25T10:35:33Z</time>
      </trkpt>
      <trkpt lat="45.08937" lon="6.07465">
        <ele>1797.3</ele>
        <time>2026-08-25T10:35:34Z</time>
      </trkpt>
      <trkpt lat="45.08931" lon="6.07477">
        <ele>1796.5</ele>
        <time>2026-08-25T10:35:35Z</time>
      </trkpt>
      <trkpt lat="45.08923" lon="6.07486">
        <ele>1795.7</ele>
        <time>2026-08-25T10:35:36Z</time>
      </trkpt>
      <trkpt lat="45.08914" lon="6.07493">
        <ele>1795.2</ele>
        <time>2026-08-25T10:35:37Z</time>
      </trkpt>
      <trkpt lat="45.08903" lon="6.07496">
        <ele>1794.7</ele>
        <time>2026-08-25T10:35:38Z</time>
      </trkpt>
      <trkpt lat="45.08892" lon="6.07494">
        <ele>1793.9</ele>
        <time>2026-08-25T10:35:39Z</time>
      </trkpt>
      <trkpt lat="45.08882" lon="6.07489">
        <ele>1792.8</ele>
        <time>2026-08-25T10:35:40Z</time>
      </trkpt>
      <trkpt lat="45.08873" lon="6.0748">
        <ele>1791.8</ele>
        <time>2026-08-25T10:35:41Z</time>
      </trkpt>
      <trkpt lat="45.08865" lon="6.07468">
        <ele>1790.6</ele>
        <time>2026-08-25T10:35:42Z</time>
      </trkpt>
      <trkpt lat="45.08859" lon="6.07454">
        <ele>1789.5</ele>
        <time>2026-08-25T10:35:43Z</time>
      </trkpt>
      <trkpt lat="45.08853" lon="6.0744">
        <ele>1788.3</ele>
        <time>2026-08-25T10:35:44Z</time>
      </trkpt>
      <trkpt lat="45.08846" lon="6.07426">
        <ele>1787</ele>
        <time>2026-08-25T10:35:45Z</time>
      </trkpt>
      <trkpt lat="45.08839" lon="6.07411">
        <ele>1785.6</ele>
        <time>2026-08-25T10:35:46Z</time>
      </trkpt>
      <trkpt lat="45.08831" lon="6.07397">
        <ele>1784.1</ele>
        <time>2026-08-25T10:35:47Z</time>
      </trkpt>
      <trkpt lat="45.08821" lon="6.07384">
        <ele>1782.5</ele>
        <time>2026-08-25T10:35:48Z</time>
      </trkpt>
      <trkpt lat="45.08811" lon="6.07371">
        <ele>1780.9</ele>
        <time>2026-08-25T10:35:49Z</time>
      </trkpt>
      <trkpt lat="45.088" lon="6.07358">
        <ele>1779.2</ele>
        <time>2026-08-25T10:35:50Z</time>
      </trkpt>
      <trkpt lat="45.08788" lon="6.07346">
        <ele>1777.5</ele>
        <time>2026-08-25T10:35:51Z</time>
      </trkpt>
      <trkpt lat="45.08776" lon="6.07335">
        <ele>1775.9</ele>
        <time>2026-08-25T10:35:52Z</time>
      </trkpt>
      <trkpt lat="45.08763" lon="6.07325">
        <ele>1774.1</ele>
        <time>2026-08-25T10:35:53Z</time>
      </trkpt>
      <trkpt lat="45.08749" lon="6.07314">
        <ele>1772.7</ele>
        <time>2026-08-25T10:35:54Z</time>
      </trkpt>
      <trkpt lat="45.08736" lon="6.07304">
        <ele>1771.3</ele>
        <time>2026-08-25T10:35:55Z</time>
      </trkpt>
      <trkpt lat="45.08722" lon="6.07295">
        <ele>1770</ele>
        <time>2026-08-25T10:35:56Z</time>
      </trkpt>
      <trkpt lat="45.08709" lon="6.07287">
        <ele>1768.8</ele>
        <time>2026-08-25T10:35:57Z</time>
      </trkpt>
      <trkpt lat="45.08696" lon="6.0728">
        <ele>1767.7</ele>
        <time>2026-08-25T10:35:58Z</time>
      </trkpt>
      <trkpt lat="45.08683" lon="6.07271">
        <ele>1766.5</ele>
        <time>2026-08-25T10:35:59Z</time>
      </trkpt>
      <trkpt lat="45.08673" lon="6.07258">
        <ele>1765.2</ele>
        <time>2026-08-25T10:36:00Z</time>
      </trkpt>
      <trkpt lat="45.08664" lon="6.07243">
        <ele>1763.8</ele>
        <time>2026-08-25T10:36:01Z</time>
      </trkpt>
      <trkpt lat="45.08658" lon="6.07226">
        <ele>1762.4</ele>
        <time>2026-08-25T10:36:02Z</time>
      </trkpt>
      <trkpt lat="45.0865" lon="6.07209">
        <ele>1761.2</ele>
        <time>2026-08-25T10:36:03Z</time>
      </trkpt>
      <trkpt lat="45.08641" lon="6.07196">
        <ele>1760.1</ele>
        <time>2026-08-25T10:36:04Z</time>
      </trkpt>
      <trkpt lat="45.08631" lon="6.07185">
        <ele>1759.1</ele>
        <time>2026-08-25T10:36:05Z</time>
      </trkpt>
      <trkpt lat="45.0862" lon="6.07178">
        <ele>1758.4</ele>
        <time>2026-08-25T10:36:06Z</time>
      </trkpt>
      <trkpt lat="45.08609" lon="6.07174">
        <ele>1758</ele>
        <time>2026-08-25T10:36:07Z</time>
      </trkpt>
      <trkpt lat="45.086" lon="6.07171">
        <ele>1757.6</ele>
        <time>2026-08-25T10:36:08Z</time>
      </trkpt>
      <trkpt lat="45.08592" lon="6.07169">
        <ele>1757.4</ele>
        <time>2026-08-25T10:36:09Z</time>
      </trkpt>
      <trkpt lat="45.08586" lon="6.07165">
        <ele>1757</ele>
        <time>2026-08-25T10:36:10Z</time>
      </trkpt>
      <trkpt lat="45.08582" lon="6.07161">
        <ele>1756.7</ele>
        <time>2026-08-25T10:36:11Z</time>
      </trkpt>
      <trkpt lat="45.0858" lon="6.07155">
        <ele>1756.4</ele>
        <time>2026-08-25T10:36:12Z</time>
      </trkpt>
      <trkpt lat="45.0858" lon="6.07148">
        <ele>1755.9</ele>
        <time>2026-08-25T10:36:13Z</time>
      </trkpt>
      <trkpt lat="45.08581" lon="6.07141">
        <ele>1755.4</ele>
        <time>2026-08-25T10:36:14Z</time>
      </trkpt>
      <trkpt lat="45.08584" lon="6.07134">
        <ele>1754.8</ele>
        <time>2026-08-25T10:36:15Z</time>
      </trkpt>
      <trkpt lat="45.08587" lon="6.07127">
        <ele>1754.1</ele>
        <time>2026-08-25T10:36:16Z</time>
      </trkpt>
      <trkpt lat="45.08591" lon="6.07119">
        <ele>1753.3</ele>
        <time>2026-08-25T10:36:17Z</time>
      </trkpt>
      <trkpt lat="45.08594" lon="6.0711">
        <ele>1752.6</ele>
        <time>2026-08-25T10:36:18Z</time>
      </trkpt>
      <trkpt lat="45.08596" lon="6.071">
        <ele>1751.9</ele>
        <time>2026-08-25T10:36:19Z</time>
      </trkpt>
      <trkpt lat="45.08597" lon="6.07089">
        <ele>1751.2</ele>
        <time>2026-08-25T10:36:20Z</time>
      </trkpt>
      <trkpt lat="45.08597" lon="6.07078">
        <ele>1750.5</ele>
        <time>2026-08-25T10:36:21Z</time>
      </trkpt>
      <trkpt lat="45.08596" lon="6.07066">
        <ele>1749.8</ele>
        <time>2026-08-25T10:36:22Z</time>
      </trkpt>
      <trkpt lat="45.08595" lon="6.07054">
        <ele>1749.1</ele>
        <time>2026-08-25T10:36:23Z</time>
      </trkpt>
      <trkpt lat="45.08594" lon="6.07041">
        <ele>1748.4</ele>
        <time>2026-08-25T10:36:24Z</time>
      </trkpt>
      <trkpt lat="45.08592" lon="6.07027">
        <ele>1747.5</ele>
        <time>2026-08-25T10:36:25Z</time>
      </trkpt>
      <trkpt lat="45.08589" lon="6.07013">
        <ele>1746.7</ele>
        <time>2026-08-25T10:36:26Z</time>
      </trkpt>
      <trkpt lat="45.08585" lon="6.06999">
        <ele>1745.8</ele>
        <time>2026-08-25T10:36:27Z</time>
      </trkpt>
      <trkpt lat="45.08582" lon="6.06985">
        <ele>1744.9</ele>
        <time>2026-08-25T10:36:28Z</time>
      </trkpt>
      <trkpt lat="45.08577" lon="6.06971">
        <ele>1744</ele>
        <time>2026-08-25T10:36:29Z</time>
      </trkpt>
      <trkpt lat="45.08571" lon="6.06958">
        <ele>1743</ele>
        <time>2026-08-25T10:36:30Z</time>
      </trkpt>
      <trkpt lat="45.08563" lon="6.06945">
        <ele>1742</ele>
        <time>2026-08-25T10:36:31Z</time>
      </trkpt>
      <trkpt lat="45.08555" lon="6.06933">
        <ele>1741</ele>
        <time>2026-08-25T10:36:32Z</time>
      </trkpt>
      <trkpt lat="45.08547" lon="6.06922">
        <ele>1740.1</ele>
        <time>2026-08-25T10:36:33Z</time>
      </trkpt>
      <trkpt lat="45.08538" lon="6.0691">
        <ele>1739.1</ele>
        <time>2026-08-25T10:36:34Z</time>
      </trkpt>
      <trkpt lat="45.08529" lon="6.06898">
        <ele>1738.1</ele>
        <time>2026-08-25T10:36:35Z</time>
      </trkpt>
      <trkpt lat="45.08519" lon="6.06887">
        <ele>1737.1</ele>
        <time>2026-08-25T10:36:36Z</time>
      </trkpt>
      <trkpt lat="45.08509" lon="6.06877">
        <ele>1736.1</ele>
        <time>2026-08-25T10:36:37Z</time>
      </trkpt>
      <trkpt lat="45.08498" lon="6.06867">
        <ele>1735.3</ele>
        <time>2026-08-25T10:36:38Z</time>
      </trkpt>
      <trkpt lat="45.08488" lon="6.06855">
        <ele>1734.4</ele>
        <time>2026-08-25T10:36:39Z</time>
      </trkpt>
      <trkpt lat="45.08478" lon="6.06843">
        <ele>1733.7</ele>
        <time>2026-08-25T10:36:40Z</time>
      </trkpt>
      <trkpt lat="45.0847" lon="6.0683">
        <ele>1732.9</ele>
        <time>2026-08-25T10:36:41Z</time>
      </trkpt>
      <trkpt lat="45.08465" lon="6.06817">
        <ele>1732.1</ele>
        <time>2026-08-25T10:36:42Z</time>
      </trkpt>
      <trkpt lat="45.08462" lon="6.06802">
        <ele>1731.2</ele>
        <time>2026-08-25T10:36:43Z</time>
      </trkpt>
      <trkpt lat="45.08462" lon="6.06786">
        <ele>1730.2</ele>
        <time>2026-08-25T10:36:44Z</time>
      </trkpt>
      <trkpt lat="45.08464" lon="6.06769">
        <ele>1729</ele>
        <time>2026-08-25T10:36:45Z</time>
      </trkpt>
      <trkpt lat="45.08468" lon="6.06752">
        <ele>1727.8</ele>
        <time>2026-08-25T10:36:46Z</time>
      </trkpt>
      <trkpt lat="45.08474" lon="6.06737">
        <ele>1726.7</ele>
        <time>2026-08-25T10:36:47Z</time>
      </trkpt>
      <trkpt lat="45.08483" lon="6.06725">
        <ele>1725.4</ele>
        <time>2026-08-25T10:36:48Z</time>
      </trkpt>
      <trkpt lat="45.08495" lon="6.06716">
        <ele>1724.2</ele>
        <time>2026-08-25T10:36:49Z</time>
      </trkpt>
      <trkpt lat="45.08507" lon="6.06709">
        <ele>1722.8</ele>
        <time>2026-08-25T10:36:50Z</time>
      </trkpt>
      <trkpt lat="45.0852" lon="6.06699">
        <ele>1721.5</ele>
        <time>2026-08-25T10:36:51Z</time>
      </trkpt>
      <trkpt lat="45.08531" lon="6.06688">
        <ele>1720.4</ele>
        <time>2026-08-25T10:36:52Z</time>
      </trkpt>
      <trkpt lat="45.0854" lon="6.06673">
        <ele>1719.2</ele>
        <time>2026-08-25T10:36:53Z</time>
      </trkpt>
      <trkpt lat="45.08546" lon="6.06656">
        <ele>1718</ele>
        <time>2026-08-25T10:36:54Z</time>
      </trkpt>
      <trkpt lat="45.0855" lon="6.06637">
        <ele>1716.8</ele>
        <time>2026-08-25T10:36:55Z</time>
      </trkpt>
      <trkpt lat="45.08553" lon="6.06617">
        <ele>1715.6</ele>
        <time>2026-08-25T10:36:56Z</time>
      </trkpt>
      <trkpt lat="45.08557" lon="6.06597">
        <ele>1714.4</ele>
        <time>2026-08-25T10:36:57Z</time>
      </trkpt>
      <trkpt lat="45.08562" lon="6.06577">
        <ele>1713.1</ele>
        <time>2026-08-25T10:36:58Z</time>
      </trkpt>
      <trkpt lat="45.08567" lon="6.06558">
        <ele>1711.9</ele>
        <time>2026-08-25T10:36:59Z</time>
      </trkpt>
      <trkpt lat="45.08573" lon="6.06538">
        <ele>1710.7</ele>
        <time>2026-08-25T10:37:00Z</time>
      </trkpt>
      <trkpt lat="45.08579" lon="6.06519">
        <ele>1709.6</ele>
        <time>2026-08-25T10:37:01Z</time>
      </trkpt>
      <trkpt lat="45.08585" lon="6.06501">
        <ele>1708.5</ele>
        <time>2026-08-25T10:37:02Z</time>
      </trkpt>
      <trkpt lat="45.08589" lon="6.06483">
        <ele>1707.5</ele>
        <time>2026-08-25T10:37:03Z</time>
      </trkpt>
      <trkpt lat="45.08591" lon="6.06465">
        <ele>1706.5</ele>
        <time>2026-08-25T10:37:04Z</time>
      </trkpt>
      <trkpt lat="45.08589" lon="6.06447">
        <ele>1705.6</ele>
        <time>2026-08-25T10:37:05Z</time>
      </trkpt>
      <trkpt lat="45.08588" lon="6.06431">
        <ele>1704.6</ele>
        <time>2026-08-25T10:37:06Z</time>
      </trkpt>
      <trkpt lat="45.08589" lon="6.06415">
        <ele>1703.7</ele>
        <time>2026-08-25T10:37:07Z</time>
      </trkpt>
      <trkpt lat="45.08593" lon="6.06401">
        <ele>1702.7</ele>
        <time>2026-08-25T10:37:08Z</time>
      </trkpt>
      <trkpt lat="45.08598" lon="6.06386">
        <ele>1701.5</ele>
        <time>2026-08-25T10:37:09Z</time>
      </trkpt>
      <trkpt lat="45.08604" lon="6.06373">
        <ele>1700.3</ele>
        <time>2026-08-25T10:37:10Z</time>
      </trkpt>
      <trkpt lat="45.0861" lon="6.06358">
        <ele>1699.2</ele>
        <time>2026-08-25T10:37:11Z</time>
      </trkpt>
      <trkpt lat="45.08616" lon="6.06344">
        <ele>1698.1</ele>
        <time>2026-08-25T10:37:12Z</time>
      </trkpt>
      <trkpt lat="45.08623" lon="6.06329">
        <ele>1697</ele>
        <time>2026-08-25T10:37:13Z</time>
      </trkpt>
      <trkpt lat="45.08629" lon="6.06314">
        <ele>1696</ele>
        <time>2026-08-25T10:37:14Z</time>
      </trkpt>
      <trkpt lat="45.08637" lon="6.06301">
        <ele>1695</ele>
        <time>2026-08-25T10:37:15Z</time>
      </trkpt>
      <trkpt lat="45.08646" lon="6.06289">
        <ele>1693.9</ele>
        <time>2026-08-25T10:37:16Z</time>
      </trkpt>
      <trkpt lat="45.08656" lon="6.06277">
        <ele>1692.9</ele>
        <time>2026-08-25T10:37:17Z</time>
      </trkpt>
      <trkpt lat="45.08666" lon="6.06266">
        <ele>1691.8</ele>
        <time>2026-08-25T10:37:18Z</time>
      </trkpt>
      <trkpt lat="45.08677" lon="6.06254">
        <ele>1690.8</ele>
        <time>2026-08-25T10:37:19Z</time>
      </trkpt>
      <trkpt lat="45.08688" lon="6.06244">
        <ele>1689.9</ele>
        <time>2026-08-25T10:37:20Z</time>
      </trkpt>
      <trkpt lat="45.08701" lon="6.06236">
        <ele>1689.1</ele>
        <time>2026-08-25T10:37:21Z</time>
      </trkpt>
      <trkpt lat="45.08714" lon="6.06232">
        <ele>1688.3</ele>
        <time>2026-08-25T10:37:22Z</time>
      </trkpt>
      <trkpt lat="45.08727" lon="6.06232">
        <ele>1687.7</ele>
        <time>2026-08-25T10:37:23Z</time>
      </trkpt>
      <trkpt lat="45.08739" lon="6.06231">
        <ele>1687.3</ele>
        <time>2026-08-25T10:37:24Z</time>
      </trkpt>
      <trkpt lat="45.08748" lon="6.06226">
        <ele>1687</ele>
        <time>2026-08-25T10:37:25Z</time>
      </trkpt>
      <trkpt lat="45.08754" lon="6.06217">
        <ele>1686.6</ele>
        <time>2026-08-25T10:37:26Z</time>
      </trkpt>
      <trkpt lat="45.08756" lon="6.06205">
        <ele>1686.2</ele>
        <time>2026-08-25T10:37:27Z</time>
      </trkpt>
      <trkpt lat="45.08753" lon="6.06193">
        <ele>1685.6</ele>
        <time>2026-08-25T10:37:28Z</time>
      </trkpt>
      <trkpt lat="45.08746" lon="6.06187">
        <ele>1685.1</ele>
        <time>2026-08-25T10:37:29Z</time>
      </trkpt>
      <trkpt lat="45.08737" lon="6.06184">
        <ele>1684.4</ele>
        <time>2026-08-25T10:37:30Z</time>
      </trkpt>
      <trkpt lat="45.08728" lon="6.06186">
        <ele>1683.7</ele>
        <time>2026-08-25T10:37:31Z</time>
      </trkpt>
      <trkpt lat="45.0872" lon="6.06191">
        <ele>1682.9</ele>
        <time>2026-08-25T10:37:32Z</time>
      </trkpt>
      <trkpt lat="45.08711" lon="6.06195">
        <ele>1682.2</ele>
        <time>2026-08-25T10:37:33Z</time>
      </trkpt>
      <trkpt lat="45.08703" lon="6.06199">
        <ele>1681.4</ele>
        <time>2026-08-25T10:37:34Z</time>
      </trkpt>
      <trkpt lat="45.08694" lon="6.06204">
        <ele>1680.6</ele>
        <time>2026-08-25T10:37:35Z</time>
      </trkpt>
      <trkpt lat="45.08685" lon="6.06209">
        <ele>1679.8</ele>
        <time>2026-08-25T10:37:36Z</time>
      </trkpt>
      <trkpt lat="45.08675" lon="6.06214">
        <ele>1678.9</ele>
        <time>2026-08-25T10:37:37Z</time>
      </trkpt>
      <trkpt lat="45.08665" lon="6.06218">
        <ele>1678</ele>
        <time>2026-08-25T10:37:38Z</time>
      </trkpt>
      <trkpt lat="45.08655" lon="6.06223">
        <ele>1677.1</ele>
        <time>2026-08-25T10:37:39Z</time>
      </trkpt>
      <trkpt lat="45.08645" lon="6.06229">
        <ele>1676.1</ele>
        <time>2026-08-25T10:37:40Z</time>
      </trkpt>
      <trkpt lat="45.08634" lon="6.06234">
        <ele>1675.2</ele>
        <time>2026-08-25T10:37:41Z</time>
      </trkpt>
      <trkpt lat="45.08624" lon="6.06239">
        <ele>1674.2</ele>
        <time>2026-08-25T10:37:42Z</time>
      </trkpt>
      <trkpt lat="45.08613" lon="6.06244">
        <ele>1673.2</ele>
        <time>2026-08-25T10:37:43Z</time>
      </trkpt>
      <trkpt lat="45.08602" lon="6.0625">
        <ele>1672.1</ele>
        <time>2026-08-25T10:37:44Z</time>
      </trkpt>
      <trkpt lat="45.08592" lon="6.06259">
        <ele>1671</ele>
        <time>2026-08-25T10:37:45Z</time>
      </trkpt>
      <trkpt lat="45.08583" lon="6.0627">
        <ele>1669.9</ele>
        <time>2026-08-25T10:37:46Z</time>
      </trkpt>
      <trkpt lat="45.08574" lon="6.06282">
        <ele>1668.8</ele>
        <time>2026-08-25T10:37:47Z</time>
      </trkpt>
      <trkpt lat="45.08565" lon="6.06294">
        <ele>1667.7</ele>
        <time>2026-08-25T10:37:48Z</time>
      </trkpt>
      <trkpt lat="45.08556" lon="6.06306">
        <ele>1666.5</ele>
        <time>2026-08-25T10:37:49Z</time>
      </trkpt>
      <trkpt lat="45.08547" lon="6.06319">
        <ele>1665.4</ele>
        <time>2026-08-25T10:37:50Z</time>
      </trkpt>
      <trkpt lat="45.0854" lon="6.06334">
        <ele>1664.2</ele>
        <time>2026-08-25T10:37:51Z</time>
      </trkpt>
      <trkpt lat="45.08534" lon="6.06349">
        <ele>1663.1</ele>
        <time>2026-08-25T10:37:52Z</time>
      </trkpt>
      <trkpt lat="45.0853" lon="6.06365">
        <ele>1661.9</ele>
        <time>2026-08-25T10:37:53Z</time>
      </trkpt>
      <trkpt lat="45.08526" lon="6.06383">
        <ele>1660.7</ele>
        <time>2026-08-25T10:37:54Z</time>
      </trkpt>
      <trkpt lat="45.0852" lon="6.06399">
        <ele>1659.4</ele>
        <time>2026-08-25T10:37:55Z</time>
      </trkpt>
      <trkpt lat="45.08513" lon="6.06416">
        <ele>1658.1</ele>
        <time>2026-08-25T10:37:56Z</time>
      </trkpt>
      <trkpt lat="45.08506" lon="6.06432">
        <ele>1656.9</ele>
        <time>2026-08-25T10:37:57Z</time>
      </trkpt>
      <trkpt lat="45.08498" lon="6.06448">
        <ele>1655.7</ele>
        <time>2026-08-25T10:37:58Z</time>
      </trkpt>
      <trkpt lat="45.0849" lon="6.06464">
        <ele>1654.6</ele>
        <time>2026-08-25T10:37:59Z</time>
      </trkpt>
      <trkpt lat="45.08483" lon="6.06481">
        <ele>1653.6</ele>
        <time>2026-08-25T10:38:00Z</time>
      </trkpt>
      <trkpt lat="45.08475" lon="6.06498">
        <ele>1652.7</ele>
        <time>2026-08-25T10:38:01Z</time>
      </trkpt>
      <trkpt lat="45.08469" lon="6.06514">
        <ele>1652</ele>
        <time>2026-08-25T10:38:02Z</time>
      </trkpt>
      <trkpt lat="45.08465" lon="6.0653">
        <ele>1651.4</ele>
        <time>2026-08-25T10:38:03Z</time>
      </trkpt>
      <trkpt lat="45.08462" lon="6.06546">
        <ele>1651</ele>
        <time>2026-08-25T10:38:04Z</time>
      </trkpt>
      <trkpt lat="45.0846" lon="6.06561">
        <ele>1650.6</ele>
        <time>2026-08-25T10:38:05Z</time>
      </trkpt>
      <trkpt lat="45.08457" lon="6.06575">
        <ele>1650.4</ele>
        <time>2026-08-25T10:38:06Z</time>
      </trkpt>
      <trkpt lat="45.08451" lon="6.06585">
        <ele>1650.1</ele>
        <time>2026-08-25T10:38:07Z</time>
      </trkpt>
      <trkpt lat="45.08443" lon="6.06589">
        <ele>1649.7</ele>
        <time>2026-08-25T10:38:08Z</time>
      </trkpt>
      <trkpt lat="45.08435" lon="6.06585">
        <ele>1649.2</ele>
        <time>2026-08-25T10:38:09Z</time>
      </trkpt>
      <trkpt lat="45.0843" lon="6.06575">
        <ele>1648.6</ele>
        <time>2026-08-25T10:38:10Z</time>
      </trkpt>
      <trkpt lat="45.08431" lon="6.06563">
        <ele>1647.9</ele>
        <time>2026-08-25T10:38:11Z</time>
      </trkpt>
      <trkpt lat="45.08436" lon="6.06553">
        <ele>1647.1</ele>
        <time>2026-08-25T10:38:12Z</time>
      </trkpt>
      <trkpt lat="45.08441" lon="6.06544">
        <ele>1646.4</ele>
        <time>2026-08-25T10:38:13Z</time>
      </trkpt>
      <trkpt lat="45.08447" lon="6.06534">
        <ele>1645.5</ele>
        <time>2026-08-25T10:38:14Z</time>
      </trkpt>
      <trkpt lat="45.08452" lon="6.06523">
        <ele>1644.7</ele>
        <time>2026-08-25T10:38:15Z</time>
      </trkpt>
      <trkpt lat="45.08456" lon="6.0651">
        <ele>1643.8</ele>
        <time>2026-08-25T10:38:16Z</time>
      </trkpt>
      <trkpt lat="45.0846" lon="6.06495">
        <ele>1642.8</ele>
        <time>2026-08-25T10:38:17Z</time>
      </trkpt>
      <trkpt lat="45.08464" lon="6.0648">
        <ele>1641.7</ele>
        <time>2026-08-25T10:38:18Z</time>
      </trkpt>
      <trkpt lat="45.08467" lon="6.06463">
        <ele>1640.5</ele>
        <time>2026-08-25T10:38:19Z</time>
      </trkpt>
      <trkpt lat="45.0847" lon="6.06447">
        <ele>1639.4</ele>
        <time>2026-08-25T10:38:20Z</time>
      </trkpt>
      <trkpt lat="45.08473" lon="6.0643">
        <ele>1638.1</ele>
        <time>2026-08-25T10:38:21Z</time>
      </trkpt>
      <trkpt lat="45.08477" lon="6.06413">
        <ele>1636.9</ele>
        <time>2026-08-25T10:38:22Z</time>
      </trkpt>
      <trkpt lat="45.08479" lon="6.06395">
        <ele>1635.6</ele>
        <time>2026-08-25T10:38:23Z</time>
      </trkpt>
      <trkpt lat="45.08481" lon="6.06377">
        <ele>1634.4</ele>
        <time>2026-08-25T10:38:24Z</time>
      </trkpt>
      <trkpt lat="45.08482" lon="6.0636">
        <ele>1633.2</ele>
        <time>2026-08-25T10:38:25Z</time>
      </trkpt>
      <trkpt lat="45.08483" lon="6.06342">
        <ele>1632</ele>
        <time>2026-08-25T10:38:26Z</time>
      </trkpt>
      <trkpt lat="45.08485" lon="6.06324">
        <ele>1630.8</ele>
        <time>2026-08-25T10:38:27Z</time>
      </trkpt>
      <trkpt lat="45.08487" lon="6.06306">
        <ele>1629.4</ele>
        <time>2026-08-25T10:38:28Z</time>
      </trkpt>
      <trkpt lat="45.08491" lon="6.06287">
        <ele>1628.2</ele>
        <time>2026-08-25T10:38:29Z</time>
      </trkpt>
      <trkpt lat="45.08495" lon="6.06269">
        <ele>1626.9</ele>
        <time>2026-08-25T10:38:30Z</time>
      </trkpt>
      <trkpt lat="45.08499" lon="6.0625">
        <ele>1625.7</ele>
        <time>2026-08-25T10:38:31Z</time>
      </trkpt>
      <trkpt lat="45.08501" lon="6.0623">
        <ele>1624.5</ele>
        <time>2026-08-25T10:38:32Z</time>
      </trkpt>
      <trkpt lat="45.08503" lon="6.06211">
        <ele>1623.3</ele>
        <time>2026-08-25T10:38:33Z</time>
      </trkpt>
      <trkpt lat="45.08507" lon="6.06192">
        <ele>1622</ele>
        <time>2026-08-25T10:38:34Z</time>
      </trkpt>
      <trkpt lat="45.08513" lon="6.06174">
        <ele>1620.7</ele>
        <time>2026-08-25T10:38:35Z</time>
      </trkpt>
      <trkpt lat="45.08521" lon="6.06158">
        <ele>1619.2</ele>
        <time>2026-08-25T10:38:36Z</time>
      </trkpt>
      <trkpt lat="45.08532" lon="6.06143">
        <ele>1617.7</ele>
        <time>2026-08-25T10:38:37Z</time>
      </trkpt>
      <trkpt lat="45.08542" lon="6.06128">
        <ele>1616.2</ele>
        <time>2026-08-25T10:38:38Z</time>
      </trkpt>
      <trkpt lat="45.08552" lon="6.06113">
        <ele>1614.6</ele>
        <time>2026-08-25T10:38:39Z</time>
      </trkpt>
      <trkpt lat="45.08563" lon="6.06097">
        <ele>1613.1</ele>
        <time>2026-08-25T10:38:40Z</time>
      </trkpt>
      <trkpt lat="45.08573" lon="6.0608">
        <ele>1611.5</ele>
        <time>2026-08-25T10:38:41Z</time>
      </trkpt>
      <trkpt lat="45.08582" lon="6.06062">
        <ele>1610.1</ele>
        <time>2026-08-25T10:38:42Z</time>
      </trkpt>
      <trkpt lat="45.08591" lon="6.06043">
        <ele>1608.7</ele>
        <time>2026-08-25T10:38:43Z</time>
      </trkpt>
      <trkpt lat="45.08599" lon="6.06023">
        <ele>1607.3</ele>
        <time>2026-08-25T10:38:44Z</time>
      </trkpt>
      <trkpt lat="45.08607" lon="6.06004">
        <ele>1606</ele>
        <time>2026-08-25T10:38:45Z</time>
      </trkpt>
      <trkpt lat="45.08615" lon="6.05986">
        <ele>1604.7</ele>
        <time>2026-08-25T10:38:46Z</time>
      </trkpt>
      <trkpt lat="45.08623" lon="6.0597">
        <ele>1603.4</ele>
        <time>2026-08-25T10:38:47Z</time>
      </trkpt>
      <trkpt lat="45.08633" lon="6.05956">
        <ele>1602.2</ele>
        <time>2026-08-25T10:38:48Z</time>
      </trkpt>
      <trkpt lat="45.08645" lon="6.05947">
        <ele>1601.3</ele>
        <time>2026-08-25T10:38:49Z</time>
      </trkpt>
      <trkpt lat="45.08656" lon="6.05941">
        <ele>1600.7</ele>
        <time>2026-08-25T10:38:50Z</time>
      </trkpt>
      <trkpt lat="45.08666" lon="6.05933">
        <ele>1600.1</ele>
        <time>2026-08-25T10:38:51Z</time>
      </trkpt>
      <trkpt lat="45.08673" lon="6.05922">
        <ele>1599.7</ele>
        <time>2026-08-25T10:38:52Z</time>
      </trkpt>
      <trkpt lat="45.08675" lon="6.0591">
        <ele>1599.4</ele>
        <time>2026-08-25T10:38:53Z</time>
      </trkpt>
      <trkpt lat="45.08675" lon="6.05899">
        <ele>1599.1</ele>
        <time>2026-08-25T10:38:54Z</time>
      </trkpt>
      <trkpt lat="45.08671" lon="6.05891">
        <ele>1598.8</ele>
        <time>2026-08-25T10:38:55Z</time>
      </trkpt>
      <trkpt lat="45.08668" lon="6.05886">
        <ele>1598.5</ele>
        <time>2026-08-25T10:38:56Z</time>
      </trkpt>
      <trkpt lat="45.08666" lon="6.05882">
        <ele>1598.3</ele>
        <time>2026-08-25T10:38:57Z</time>
      </trkpt>
      <trkpt lat="45.08664" lon="6.05878">
        <ele>1598.2</ele>
        <time>2026-08-25T10:38:58Z</time>
      </trkpt>
      <trkpt lat="45.08661" lon="6.05877">
        <ele>1599</ele>
        <time>2026-08-25T10:38:59Z</time>
      </trkpt>
      <trkpt lat="45.08658" lon="6.05875">
        <ele>1599.9</ele>
        <time>2026-08-25T10:39:00Z</time>
      </trkpt>
      <trkpt lat="45.08654" lon="6.05874">
        <ele>1599.7</ele>
        <time>2026-08-25T10:39:01Z</time>
      </trkpt>
      <trkpt lat="45.0865" lon="6.05874">
        <ele>1599.2</ele>
        <time>2026-08-25T10:39:02Z</time>
      </trkpt>
      <trkpt lat="45.08645" lon="6.05877">
        <ele>1598.6</ele>
        <time>2026-08-25T10:39:03Z</time>
      </trkpt>
      <trkpt lat="45.08641" lon="6.05881">
        <ele>1598</ele>
        <time>2026-08-25T10:39:04Z</time>
      </trkpt>
      <trkpt lat="45.08636" lon="6.05886">
        <ele>1597.2</ele>
        <time>2026-08-25T10:39:05Z</time>
      </trkpt>
      <trkpt lat="45.08631" lon="6.0589">
        <ele>1596.3</ele>
        <time>2026-08-25T10:39:06Z</time>
      </trkpt>
      <trkpt lat="45.08626" lon="6.05895">
        <ele>1595.4</ele>
        <time>2026-08-25T10:39:07Z</time>
      </trkpt>
      <trkpt lat="45.0862" lon="6.05901">
        <ele>1594.3</ele>
        <time>2026-08-25T10:39:08Z</time>
      </trkpt>
      <trkpt lat="45.08614" lon="6.05908">
        <ele>1593.2</ele>
        <time>2026-08-25T10:39:09Z</time>
      </trkpt>
      <trkpt lat="45.08608" lon="6.05915">
        <ele>1592.1</ele>
        <time>2026-08-25T10:39:10Z</time>
      </trkpt>
      <trkpt lat="45.08601" lon="6.05922">
        <ele>1590.8</ele>
        <time>2026-08-25T10:39:11Z</time>
      </trkpt>
      <trkpt lat="45.08594" lon="6.05929">
        <ele>1590</ele>
        <time>2026-08-25T10:39:12Z</time>
      </trkpt>
      <trkpt lat="45.08588" lon="6.05937">
        <ele>1589.2</ele>
        <time>2026-08-25T10:39:13Z</time>
      </trkpt>
      <trkpt lat="45.0858" lon="6.05945">
        <ele>1588.4</ele>
        <time>2026-08-25T10:39:14Z</time>
      </trkpt>
      <trkpt lat="45.08574" lon="6.05952">
        <ele>1587.7</ele>
        <time>2026-08-25T10:39:15Z</time>
      </trkpt>
      <trkpt lat="45.08567" lon="6.05959">
        <ele>1587</ele>
        <time>2026-08-25T10:39:16Z</time>
      </trkpt>
      <trkpt lat="45.0856" lon="6.05965">
        <ele>1586.4</ele>
        <time>2026-08-25T10:39:17Z</time>
      </trkpt>
      <trkpt lat="45.08553" lon="6.0597">
        <ele>1585.8</ele>
        <time>2026-08-25T10:39:18Z</time>
      </trkpt>
      <trkpt lat="45.08547" lon="6.05975">
        <ele>1585</ele>
        <time>2026-08-25T10:39:19Z</time>
      </trkpt>
      <trkpt lat="45.0854" lon="6.0598">
        <ele>1584.1</ele>
        <time>2026-08-25T10:39:20Z</time>
      </trkpt>
      <trkpt lat="45.08532" lon="6.05985">
        <ele>1583.1</ele>
        <time>2026-08-25T10:39:21Z</time>
      </trkpt>
      <trkpt lat="45.08525" lon="6.05989">
        <ele>1582.1</ele>
        <time>2026-08-25T10:39:22Z</time>
      </trkpt>
      <trkpt lat="45.08516" lon="6.05993">
        <ele>1581</ele>
        <time>2026-08-25T10:39:23Z</time>
      </trkpt>
      <trkpt lat="45.08508" lon="6.05997">
        <ele>1579.9</ele>
        <time>2026-08-25T10:39:24Z</time>
      </trkpt>
      <trkpt lat="45.08498" lon="6.06002">
        <ele>1578.7</ele>
        <time>2026-08-25T10:39:25Z</time>
      </trkpt>
      <trkpt lat="45.08489" lon="6.06005">
        <ele>1577.6</ele>
        <time>2026-08-25T10:39:26Z</time>
      </trkpt>
      <trkpt lat="45.08481" lon="6.06009">
        <ele>1576.5</ele>
        <time>2026-08-25T10:39:27Z</time>
      </trkpt>
      <trkpt lat="45.08472" lon="6.06012">
        <ele>1575.7</ele>
        <time>2026-08-25T10:39:28Z</time>
      </trkpt>
      <trkpt lat="45.08463" lon="6.06015">
        <ele>1575</ele>
        <time>2026-08-25T10:39:29Z</time>
      </trkpt>
      <trkpt lat="45.08454" lon="6.06017">
        <ele>1574.2</ele>
        <time>2026-08-25T10:39:30Z</time>
      </trkpt>
      <trkpt lat="45.08445" lon="6.0602">
        <ele>1573.3</ele>
        <time>2026-08-25T10:39:31Z</time>
      </trkpt>
      <trkpt lat="45.08436" lon="6.06022">
        <ele>1572.3</ele>
        <time>2026-08-25T10:39:32Z</time>
      </trkpt>
      <trkpt lat="45.08427" lon="6.06026">
        <ele>1571.3</ele>
        <time>2026-08-25T10:39:33Z</time>
      </trkpt>
      <trkpt lat="45.08418" lon="6.06032">
        <ele>1570.3</ele>
        <time>2026-08-25T10:39:34Z</time>
      </trkpt>
      <trkpt lat="45.08409" lon="6.06039">
        <ele>1569.2</ele>
        <time>2026-08-25T10:39:35Z</time>
      </trkpt>
      <trkpt lat="45.08402" lon="6.06049">
        <ele>1568.1</ele>
        <time>2026-08-25T10:39:36Z</time>
      </trkpt>
      <trkpt lat="45.08395" lon="6.06059">
        <ele>1567</ele>
        <time>2026-08-25T10:39:37Z</time>
      </trkpt>
      <trkpt lat="45.08389" lon="6.06072">
        <ele>1565.9</ele>
        <time>2026-08-25T10:39:38Z</time>
      </trkpt>
      <trkpt lat="45.08383" lon="6.06085">
        <ele>1564.7</ele>
        <time>2026-08-25T10:39:39Z</time>
      </trkpt>
      <trkpt lat="45.08378" lon="6.06099">
        <ele>1563.5</ele>
        <time>2026-08-25T10:39:40Z</time>
      </trkpt>
      <trkpt lat="45.08372" lon="6.06113">
        <ele>1562.3</ele>
        <time>2026-08-25T10:39:41Z</time>
      </trkpt>
      <trkpt lat="45.08366" lon="6.06127">
        <ele>1561.1</ele>
        <time>2026-08-25T10:39:42Z</time>
      </trkpt>
      <trkpt lat="45.08362" lon="6.06141">
        <ele>1560.1</ele>
        <time>2026-08-25T10:39:43Z</time>
      </trkpt>
      <trkpt lat="45.08359" lon="6.06155">
        <ele>1559</ele>
        <time>2026-08-25T10:39:44Z</time>
      </trkpt>
      <trkpt lat="45.08358" lon="6.06171">
        <ele>1557.9</ele>
        <time>2026-08-25T10:39:45Z</time>
      </trkpt>
      <trkpt lat="45.08358" lon="6.06186">
        <ele>1556.8</ele>
        <time>2026-08-25T10:39:46Z</time>
      </trkpt>
      <trkpt lat="45.08359" lon="6.06201">
        <ele>1555.9</ele>
        <time>2026-08-25T10:39:47Z</time>
      </trkpt>
      <trkpt lat="45.0836" lon="6.06216">
        <ele>1555.3</ele>
        <time>2026-08-25T10:39:48Z</time>
      </trkpt>
      <trkpt lat="45.08363" lon="6.06229">
        <ele>1554.9</ele>
        <time>2026-08-25T10:39:49Z</time>
      </trkpt>
      <trkpt lat="45.08366" lon="6.0624">
        <ele>1554.6</ele>
        <time>2026-08-25T10:39:50Z</time>
      </trkpt>
      <trkpt lat="45.08367" lon="6.0625">
        <ele>1554.4</ele>
        <time>2026-08-25T10:39:51Z</time>
      </trkpt>
      <trkpt lat="45.08365" lon="6.06258">
        <ele>1554.2</ele>
        <time>2026-08-25T10:39:52Z</time>
      </trkpt>
      <trkpt lat="45.08361" lon="6.06261">
        <ele>1553.9</ele>
        <time>2026-08-25T10:39:53Z</time>
      </trkpt>
      <trkpt lat="45.08355" lon="6.0626">
        <ele>1553.6</ele>
        <time>2026-08-25T10:39:54Z</time>
      </trkpt>
      <trkpt lat="45.08352" lon="6.06254">
        <ele>1553.2</ele>
        <time>2026-08-25T10:39:55Z</time>
      </trkpt>
      <trkpt lat="45.08351" lon="6.06245">
        <ele>1552.7</ele>
        <time>2026-08-25T10:39:56Z</time>
      </trkpt>
      <trkpt lat="45.08352" lon="6.06236">
        <ele>1552.2</ele>
        <time>2026-08-25T10:39:57Z</time>
      </trkpt>
      <trkpt lat="45.08352" lon="6.06226">
        <ele>1551.5</ele>
        <time>2026-08-25T10:39:58Z</time>
      </trkpt>
      <trkpt lat="45.08351" lon="6.06216">
        <ele>1550.8</ele>
        <time>2026-08-25T10:39:59Z</time>
      </trkpt>
      <trkpt lat="45.0835" lon="6.06206">
        <ele>1550.1</ele>
        <time>2026-08-25T10:40:00Z</time>
      </trkpt>
      <trkpt lat="45.08348" lon="6.06195">
        <ele>1549.2</ele>
        <time>2026-08-25T10:40:01Z</time>
      </trkpt>
      <trkpt lat="45.08346" lon="6.06183">
        <ele>1548.3</ele>
        <time>2026-08-25T10:40:02Z</time>
      </trkpt>
      <trkpt lat="45.08344" lon="6.0617">
        <ele>1547.4</ele>
        <time>2026-08-25T10:40:03Z</time>
      </trkpt>
      <trkpt lat="45.08341" lon="6.06157">
        <ele>1546.4</ele>
        <time>2026-08-25T10:40:04Z</time>
      </trkpt>
      <trkpt lat="45.08338" lon="6.06144">
        <ele>1545.3</ele>
        <time>2026-08-25T10:40:05Z</time>
      </trkpt>
      <trkpt lat="45.08335" lon="6.0613">
        <ele>1544.3</ele>
        <time>2026-08-25T10:40:06Z</time>
      </trkpt>
      <trkpt lat="45.08332" lon="6.06114">
        <ele>1543.2</ele>
        <time>2026-08-25T10:40:07Z</time>
      </trkpt>
      <trkpt lat="45.08328" lon="6.06098">
        <ele>1542.1</ele>
        <time>2026-08-25T10:40:08Z</time>
      </trkpt>
      <trkpt lat="45.08325" lon="6.06082">
        <ele>1540.9</ele>
        <time>2026-08-25T10:40:09Z</time>
      </trkpt>
      <trkpt lat="45.08322" lon="6.06065">
        <ele>1539.6</ele>
        <time>2026-08-25T10:40:10Z</time>
      </trkpt>
      <trkpt lat="45.08318" lon="6.06048">
        <ele>1538.4</ele>
        <time>2026-08-25T10:40:11Z</time>
      </trkpt>
      <trkpt lat="45.08314" lon="6.0603">
        <ele>1537.1</ele>
        <time>2026-08-25T10:40:12Z</time>
      </trkpt>
      <trkpt lat="45.08311" lon="6.06012">
        <ele>1535.8</ele>
        <time>2026-08-25T10:40:13Z</time>
      </trkpt>
      <trkpt lat="45.08308" lon="6.05993">
        <ele>1534.3</ele>
        <time>2026-08-25T10:40:14Z</time>
      </trkpt>
      <trkpt lat="45.08306" lon="6.05973">
        <ele>1532.7</ele>
        <time>2026-08-25T10:40:15Z</time>
      </trkpt>
      <trkpt lat="45.08305" lon="6.05953">
        <ele>1531</ele>
        <time>2026-08-25T10:40:16Z</time>
      </trkpt>
      <trkpt lat="45.08304" lon="6.05934">
        <ele>1529.4</ele>
        <time>2026-08-25T10:40:17Z</time>
      </trkpt>
      <trkpt lat="45.08303" lon="6.05916">
        <ele>1528</ele>
        <time>2026-08-25T10:40:18Z</time>
      </trkpt>
      <trkpt lat="45.08303" lon="6.05901">
        <ele>1526.8</ele>
        <time>2026-08-25T10:40:19Z</time>
      </trkpt>
      <trkpt lat="45.08305" lon="6.05885">
        <ele>1526.5</ele>
        <time>2026-08-25T10:40:20Z</time>
      </trkpt>
      <trkpt lat="45.08308" lon="6.0587">
        <ele>1525.2</ele>
        <time>2026-08-25T10:40:21Z</time>
      </trkpt>
      <trkpt lat="45.08312" lon="6.05855">
        <ele>1523.6</ele>
        <time>2026-08-25T10:40:22Z</time>
      </trkpt>
      <trkpt lat="45.08317" lon="6.0584">
        <ele>1522</ele>
        <time>2026-08-25T10:40:23Z</time>
      </trkpt>
      <trkpt lat="45.08323" lon="6.05825">
        <ele>1520.9</ele>
        <time>2026-08-25T10:40:24Z</time>
      </trkpt>
      <trkpt lat="45.0833" lon="6.05811">
        <ele>1520.2</ele>
        <time>2026-08-25T10:40:25Z</time>
      </trkpt>
      <trkpt lat="45.08339" lon="6.05799">
        <ele>1519</ele>
        <time>2026-08-25T10:40:26Z</time>
      </trkpt>
      <trkpt lat="45.0835" lon="6.05791">
        <ele>1518.2</ele>
        <time>2026-08-25T10:40:27Z</time>
      </trkpt>
      <trkpt lat="45.0836" lon="6.05785">
        <ele>1517.5</ele>
        <time>2026-08-25T10:40:28Z</time>
      </trkpt>
      <trkpt lat="45.08369" lon="6.05778">
        <ele>1517</ele>
        <time>2026-08-25T10:40:29Z</time>
      </trkpt>
      <trkpt lat="45.08373" lon="6.05768">
        <ele>1516.5</ele>
        <time>2026-08-25T10:40:30Z</time>
      </trkpt>
      <trkpt lat="45.08373" lon="6.05759">
        <ele>1516.1</ele>
        <time>2026-08-25T10:40:31Z</time>
      </trkpt>
      <trkpt lat="45.08369" lon="6.05753">
        <ele>1515.7</ele>
        <time>2026-08-25T10:40:32Z</time>
      </trkpt>
      <trkpt lat="45.08364" lon="6.05749">
        <ele>1515.3</ele>
        <time>2026-08-25T10:40:33Z</time>
      </trkpt>
      <trkpt lat="45.08358" lon="6.05748">
        <ele>1514.8</ele>
        <time>2026-08-25T10:40:34Z</time>
      </trkpt>
      <trkpt lat="45.08351" lon="6.05749">
        <ele>1514.1</ele>
        <time>2026-08-25T10:40:35Z</time>
      </trkpt>
      <trkpt lat="45.08343" lon="6.05751">
        <ele>1513.5</ele>
        <time>2026-08-25T10:40:36Z</time>
      </trkpt>
      <trkpt lat="45.08336" lon="6.05752">
        <ele>1512.9</ele>
        <time>2026-08-25T10:40:37Z</time>
      </trkpt>
      <trkpt lat="45.08328" lon="6.05755">
        <ele>1512.3</ele>
        <time>2026-08-25T10:40:38Z</time>
      </trkpt>
      <trkpt lat="45.08319" lon="6.05756">
        <ele>1511.6</ele>
        <time>2026-08-25T10:40:39Z</time>
      </trkpt>
      <trkpt lat="45.0831" lon="6.05758">
        <ele>1510.9</ele>
        <time>2026-08-25T10:40:40Z</time>
      </trkpt>
      <trkpt lat="45.083" lon="6.05758">
        <ele>1510.2</ele>
        <time>2026-08-25T10:40:41Z</time>
      </trkpt>
      <trkpt lat="45.0829" lon="6.05758">
        <ele>1509.4</ele>
        <time>2026-08-25T10:40:42Z</time>
      </trkpt>
      <trkpt lat="45.0828" lon="6.05758">
        <ele>1508.5</ele>
        <time>2026-08-25T10:40:43Z</time>
      </trkpt>
      <trkpt lat="45.0827" lon="6.0576">
        <ele>1507.6</ele>
        <time>2026-08-25T10:40:44Z</time>
      </trkpt>
      <trkpt lat="45.0826" lon="6.05762">
        <ele>1506.8</ele>
        <time>2026-08-25T10:40:45Z</time>
      </trkpt>
      <trkpt lat="45.08252" lon="6.05766">
        <ele>1506.1</ele>
        <time>2026-08-25T10:40:46Z</time>
      </trkpt>
      <trkpt lat="45.08244" lon="6.05771">
        <ele>1505.5</ele>
        <time>2026-08-25T10:40:47Z</time>
      </trkpt>
      <trkpt lat="45.08237" lon="6.05778">
        <ele>1504.9</ele>
        <time>2026-08-25T10:40:48Z</time>
      </trkpt>
      <trkpt lat="45.08231" lon="6.05787">
        <ele>1504.5</ele>
        <time>2026-08-25T10:40:49Z</time>
      </trkpt>
      <trkpt lat="45.08228" lon="6.05797">
        <ele>1504.4</ele>
        <time>2026-08-25T10:40:50Z</time>
      </trkpt>
      <trkpt lat="45.08226" lon="6.05808">
        <ele>1504.4</ele>
        <time>2026-08-25T10:40:51Z</time>
      </trkpt>
      <trkpt lat="45.08225" lon="6.0582">
        <ele>1504.3</ele>
        <time>2026-08-25T10:40:52Z</time>
      </trkpt>
      <trkpt lat="45.08224" lon="6.05832">
        <ele>1504.3</ele>
        <time>2026-08-25T10:40:53Z</time>
      </trkpt>
      <trkpt lat="45.08223" lon="6.05843">
        <ele>1504.3</ele>
        <time>2026-08-25T10:40:54Z</time>
      </trkpt>
      <trkpt lat="45.08223" lon="6.05855">
        <ele>1504.2</ele>
        <time>2026-08-25T10:40:55Z</time>
      </trkpt>
      <trkpt lat="45.08223" lon="6.05866">
        <ele>1504.1</ele>
        <time>2026-08-25T10:40:56Z</time>
      </trkpt>
      <trkpt lat="45.08223" lon="6.05878">
        <ele>1503.8</ele>
        <time>2026-08-25T10:40:57Z</time>
      </trkpt>
      <trkpt lat="45.08223" lon="6.05888">
        <ele>1503.1</ele>
        <time>2026-08-25T10:40:58Z</time>
      </trkpt>
      <trkpt lat="45.08222" lon="6.05899">
        <ele>1502.4</ele>
        <time>2026-08-25T10:40:59Z</time>
      </trkpt>
      <trkpt lat="45.08222" lon="6.0591">
        <ele>1501.6</ele>
        <time>2026-08-25T10:41:00Z</time>
      </trkpt>
      <trkpt lat="45.08221" lon="6.0592">
        <ele>1500.8</ele>
        <time>2026-08-25T10:41:01Z</time>
      </trkpt>
      <trkpt lat="45.08221" lon="6.05931">
        <ele>1499.9</ele>
        <time>2026-08-25T10:41:02Z</time>
      </trkpt>
      <trkpt lat="45.08221" lon="6.05941">
        <ele>1499.2</ele>
        <time>2026-08-25T10:41:03Z</time>
      </trkpt>
      <trkpt lat="45.08221" lon="6.05949">
        <ele>1498.5</ele>
        <time>2026-08-25T10:41:04Z</time>
      </trkpt>
      <trkpt lat="45.08221" lon="6.05956">
        <ele>1498</ele>
        <time>2026-08-25T10:41:05Z</time>
      </trkpt>
      <trkpt lat="45.0822" lon="6.05962">
        <ele>1497.6</ele>
        <time>2026-08-25T10:41:06Z</time>
      </trkpt>
      <trkpt lat="45.08217" lon="6.05966">
        <ele>1496.8</ele>
        <time>2026-08-25T10:41:07Z</time>
      </trkpt>
      <trkpt lat="45.08214" lon="6.05964">
        <ele>1496.4</ele>
        <time>2026-08-25T10:41:08Z</time>
      </trkpt>
      <trkpt lat="45.08213" lon="6.0596">
        <ele>1496</ele>
        <time>2026-08-25T10:41:09Z</time>
      </trkpt>
      <trkpt lat="45.08213" lon="6.05953">
        <ele>1495.4</ele>
        <time>2026-08-25T10:41:10Z</time>
      </trkpt>
      <trkpt lat="45.08212" lon="6.05946">
        <ele>1494.8</ele>
        <time>2026-08-25T10:41:11Z</time>
      </trkpt>
      <trkpt lat="45.08211" lon="6.05939">
        <ele>1494.3</ele>
        <time>2026-08-25T10:41:12Z</time>
      </trkpt>
      <trkpt lat="45.08208" lon="6.05931">
        <ele>1493.8</ele>
        <time>2026-08-25T10:41:13Z</time>
      </trkpt>
      <trkpt lat="45.08206" lon="6.05923">
        <ele>1493.3</ele>
        <time>2026-08-25T10:41:14Z</time>
      </trkpt>
      <trkpt lat="45.08203" lon="6.05915">
        <ele>1492.9</ele>
        <time>2026-08-25T10:41:15Z</time>
      </trkpt>
      <trkpt lat="45.08201" lon="6.05906">
        <ele>1492.5</ele>
        <time>2026-08-25T10:41:16Z</time>
      </trkpt>
      <trkpt lat="45.082" lon="6.05898">
        <ele>1492.1</ele>
        <time>2026-08-25T10:41:17Z</time>
      </trkpt>
      <trkpt lat="45.08199" lon="6.0589">
        <ele>1491.7</ele>
        <time>2026-08-25T10:41:18Z</time>
      </trkpt>
      <trkpt lat="45.08197" lon="6.05883">
        <ele>1491.3</ele>
        <time>2026-08-25T10:41:19Z</time>
      </trkpt>
      <trkpt lat="45.08194" lon="6.05876">
        <ele>1490.9</ele>
        <time>2026-08-25T10:41:20Z</time>
      </trkpt>
      <trkpt lat="45.08192" lon="6.05869">
        <ele>1490.2</ele>
        <time>2026-08-25T10:41:21Z</time>
      </trkpt>
      <trkpt lat="45.08189" lon="6.05863">
        <ele>1489.4</ele>
        <time>2026-08-25T10:41:22Z</time>
      </trkpt>
      <trkpt lat="45.08186" lon="6.05857">
        <ele>1488.5</ele>
        <time>2026-08-25T10:41:23Z</time>
      </trkpt>
      <trkpt lat="45.08183" lon="6.0585">
        <ele>1487.5</ele>
        <time>2026-08-25T10:41:24Z</time>
      </trkpt>
      <trkpt lat="45.0818" lon="6.05842">
        <ele>1487.4</ele>
        <time>2026-08-25T10:41:25Z</time>
      </trkpt>
      <trkpt lat="45.08177" lon="6.05834">
        <ele>1487.2</ele>
        <time>2026-08-25T10:41:26Z</time>
      </trkpt>
      <trkpt lat="45.08175" lon="6.05825">
        <ele>1486.9</ele>
        <time>2026-08-25T10:41:27Z</time>
      </trkpt>
      <trkpt lat="45.08173" lon="6.05817">
        <ele>1486.6</ele>
        <time>2026-08-25T10:41:28Z</time>
      </trkpt>
      <trkpt lat="45.08172" lon="6.05809">
        <ele>1486.4</ele>
        <time>2026-08-25T10:41:29Z</time>
      </trkpt>
      <trkpt lat="45.08171" lon="6.05801">
        <ele>1486.2</ele>
        <time>2026-08-25T10:41:30Z</time>
      </trkpt>
      <trkpt lat="45.0817" lon="6.05792">
        <ele>1486.1</ele>
        <time>2026-08-25T10:41:31Z</time>
      </trkpt>
      <trkpt lat="45.08169" lon="6.05784">
        <ele>1485.8</ele>
        <time>2026-08-25T10:41:32Z</time>
      </trkpt>
      <trkpt lat="45.08169" lon="6.05775">
        <ele>1485.3</ele>
        <time>2026-08-25T10:41:33Z</time>
      </trkpt>
      <trkpt lat="45.08168" lon="6.05767">
        <ele>1484.9</ele>
        <time>2026-08-25T10:41:34Z</time>
      </trkpt>
      <trkpt lat="45.08167" lon="6.05758">
        <ele>1485</ele>
        <time>2026-08-25T10:41:35Z</time>
      </trkpt>
      <trkpt lat="45.08166" lon="6.0575">
        <ele>1485.2</ele>
        <time>2026-08-25T10:41:36Z</time>
      </trkpt>
      <trkpt lat="45.08168" lon="6.05741">
        <ele>1485.2</ele>
        <time>2026-08-25T10:41:37Z</time>
      </trkpt>
      <trkpt lat="45.0817" lon="6.05735">
        <ele>1485.3</ele>
        <time>2026-08-25T10:41:38Z</time>
      </trkpt>
      <trkpt lat="45.08172" lon="6.05728">
        <ele>1485.3</ele>
        <time>2026-08-25T10:41:39Z</time>
      </trkpt>
      <trkpt lat="45.08174" lon="6.05721">
        <ele>1485.2</ele>
        <time>2026-08-25T10:41:40Z</time>
      </trkpt>
      <trkpt lat="45.08176" lon="6.05715">
        <ele>1485.2</ele>
        <time>2026-08-25T10:41:41Z</time>
      </trkpt>
      <trkpt lat="45.08177" lon="6.05711">
        <ele>1485.2</ele>
        <time>2026-08-25T10:41:42Z</time>
      </trkpt>
      <trkpt lat="45.08177" lon="6.05707">
        <ele>1485.2</ele>
        <time>2026-08-25T10:41:43Z</time>
      </trkpt>
      <trkpt lat="45.08177" lon="6.05703">
        <ele>1485</ele>
        <time>2026-08-25T10:41:44Z</time>
      </trkpt>
      <trkpt lat="45.08179" lon="6.057">
        <ele>1484.6</ele>
        <time>2026-08-25T10:41:45Z</time>
      </trkpt>
      <trkpt lat="45.08181" lon="6.05696">
        <ele>1484.3</ele>
        <time>2026-08-25T10:41:46Z</time>
      </trkpt>
      <trkpt lat="45.08182" lon="6.05691">
        <ele>1483.9</ele>
        <time>2026-08-25T10:41:47Z</time>
      </trkpt>
      <trkpt lat="45.08184" lon="6.05686">
        <ele>1483.3</ele>
        <time>2026-08-25T10:41:48Z</time>
      </trkpt>
      <trkpt lat="45.08187" lon="6.0568">
        <ele>1482.7</ele>
        <time>2026-08-25T10:41:49Z</time>
      </trkpt>
      <trkpt lat="45.0819" lon="6.05675">
        <ele>1482</ele>
        <time>2026-08-25T10:41:50Z</time>
      </trkpt>
      <trkpt lat="45.08193" lon="6.05669">
        <ele>1481.4</ele>
        <time>2026-08-25T10:41:51Z</time>
      </trkpt>
      <trkpt lat="45.08196" lon="6.05662">
        <ele>1480.8</ele>
        <time>2026-08-25T10:41:52Z</time>
      </trkpt>
      <trkpt lat="45.08198" lon="6.05654">
        <ele>1480.1</ele>
        <time>2026-08-25T10:41:53Z</time>
      </trkpt>
      <trkpt lat="45.082" lon="6.05645">
        <ele>1479.3</ele>
        <time>2026-08-25T10:41:54Z</time>
      </trkpt>
      <trkpt lat="45.08204" lon="6.05638">
        <ele>1479.5</ele>
        <time>2026-08-25T10:41:55Z</time>
      </trkpt>
      <trkpt lat="45.08209" lon="6.05635">
        <ele>1479.6</ele>
        <time>2026-08-25T10:41:56Z</time>
      </trkpt>
      <trkpt lat="45.08214" lon="6.05634">
        <ele>1479.8</ele>
        <time>2026-08-25T10:41:57Z</time>
      </trkpt>
      <trkpt lat="45.08219" lon="6.05633">
        <ele>1479.8</ele>
        <time>2026-08-25T10:41:58Z</time>
      </trkpt>
      <trkpt lat="45.08224" lon="6.05632">
        <ele>1479.8</ele>
        <time>2026-08-25T10:41:59Z</time>
      </trkpt>
      <trkpt lat="45.08229" lon="6.05632">
        <ele>1479.9</ele>
        <time>2026-08-25T10:42:00Z</time>
      </trkpt>
      <trkpt lat="45.08234" lon="6.05631">
        <ele>1480</ele>
        <time>2026-08-25T10:42:01Z</time>
      </trkpt>
      <trkpt lat="45.08238" lon="6.0563">
        <ele>1480</ele>
        <time>2026-08-25T10:42:02Z</time>
      </trkpt>
      <trkpt lat="45.08242" lon="6.05628">
        <ele>1480.1</ele>
        <time>2026-08-25T10:42:03Z</time>
      </trkpt>
      <trkpt lat="45.08245" lon="6.05626">
        <ele>1480.3</ele>
        <time>2026-08-25T10:42:04Z</time>
      </trkpt>
      <trkpt lat="45.08248" lon="6.05625">
        <ele>1480.5</ele>
        <time>2026-08-25T10:42:05Z</time>
      </trkpt>
      <trkpt lat="45.0825" lon="6.05624">
        <ele>1480.8</ele>
        <time>2026-08-25T10:42:06Z</time>
      </trkpt>
      <trkpt lat="45.08253" lon="6.05623">
        <ele>1481</ele>
        <time>2026-08-25T10:42:07Z</time>
      </trkpt>
      <trkpt lat="45.08255" lon="6.05622">
        <ele>1481.2</ele>
        <time>2026-08-25T10:42:08Z</time>
      </trkpt>
      <trkpt lat="45.08258" lon="6.05621">
        <ele>1481.4</ele>
        <time>2026-08-25T10:42:09Z</time>
      </trkpt>
      <trkpt lat="45.0826" lon="6.0562">
        <ele>1481.7</ele>
        <time>2026-08-25T10:42:10Z</time>
      </trkpt>
      <trkpt lat="45.08262" lon="6.05619">
        <ele>1481.8</ele>
        <time>2026-08-25T10:42:11Z</time>
      </trkpt>
      <trkpt lat="45.08265" lon="6.0562">
        <ele>1482.1</ele>
        <time>2026-08-25T10:42:12Z</time>
      </trkpt>
      <trkpt lat="45.08268" lon="6.0562">
        <ele>1482.3</ele>
        <time>2026-08-25T10:42:13Z</time>
      </trkpt>
      <trkpt lat="45.08271" lon="6.05621">
        <ele>1482.6</ele>
        <time>2026-08-25T10:42:14Z</time>
      </trkpt>
      <trkpt lat="45.08275" lon="6.05621">
        <ele>1482.9</ele>
        <time>2026-08-25T10:42:15Z</time>
      </trkpt>
      <trkpt lat="45.08278" lon="6.05621">
        <ele>1483.2</ele>
        <time>2026-08-25T10:42:16Z</time>
      </trkpt>
      <trkpt lat="45.08282" lon="6.0562">
        <ele>1483.2</ele>
        <time>2026-08-25T10:42:17Z</time>
      </trkpt>
      <trkpt lat="45.08284" lon="6.05618">
        <ele>1483.2</ele>
        <time>2026-08-25T10:42:18Z</time>
      </trkpt>
      <trkpt lat="45.08287" lon="6.05615">
        <ele>1483.3</ele>
        <time>2026-08-25T10:42:19Z</time>
      </trkpt>
      <trkpt lat="45.08288" lon="6.0561">
        <ele>1483.3</ele>
        <time>2026-08-25T10:42:20Z</time>
      </trkpt>
      <trkpt lat="45.08289" lon="6.05604">
        <ele>1483.4</ele>
        <time>2026-08-25T10:42:21Z</time>
      </trkpt>
      <trkpt lat="45.08288" lon="6.05599">
        <ele>1483.6</ele>
        <time>2026-08-25T10:42:22Z</time>
      </trkpt>
      <trkpt lat="45.08287" lon="6.05594">
        <ele>1483.7</ele>
        <time>2026-08-25T10:42:23Z</time>
      </trkpt>
      <trkpt lat="45.08287" lon="6.05589">
        <ele>1483.8</ele>
        <time>2026-08-25T10:42:24Z</time>
      </trkpt>
      <trkpt lat="45.08286" lon="6.05585">
        <ele>1484</ele>
        <time>2026-08-25T10:42:25Z</time>
      </trkpt>
      <trkpt lat="45.08286" lon="6.05582">
        <ele>1484.1</ele>
        <time>2026-08-25T10:42:26Z</time>
      </trkpt>
      <trkpt lat="45.08286" lon="6.05578">
        <ele>1484.2</ele>
        <time>2026-08-25T10:42:27Z</time>
      </trkpt>
      <trkpt lat="45.08285" lon="6.05574">
        <ele>1484.4</ele>
        <time>2026-08-25T10:42:28Z</time>
      </trkpt>
      <trkpt lat="45.08284" lon="6.05571">
        <ele>1484.5</ele>
        <time>2026-08-25T10:42:29Z</time>
      </trkpt>
      <trkpt lat="45.08283" lon="6.05567">
        <ele>1484.6</ele>
        <time>2026-08-25T10:42:30Z</time>
      </trkpt>
      <trkpt lat="45.08282" lon="6.05564">
        <ele>1484.8</ele>
        <time>2026-08-25T10:42:31Z</time>
      </trkpt>
      <trkpt lat="45.08281" lon="6.0556">
        <ele>1484.9</ele>
        <time>2026-08-25T10:42:32Z</time>
      </trkpt>
      <trkpt lat="45.08281" lon="6.05557">
        <ele>1485.1</ele>
        <time>2026-08-25T10:42:33Z</time>
      </trkpt>
      <trkpt lat="45.0828" lon="6.05553">
        <ele>1485.2</ele>
        <time>2026-08-25T10:42:34Z</time>
      </trkpt>
      <trkpt lat="45.08279" lon="6.05549">
        <ele>1485.4</ele>
        <time>2026-08-25T10:42:35Z</time>
      </trkpt>
      <trkpt lat="45.08278" lon="6.05546">
        <ele>1485.5</ele>
        <time>2026-08-25T10:42:36Z</time>
      </trkpt>
      <trkpt lat="45.08277" lon="6.05542">
        <ele>1485.7</ele>
        <time>2026-08-25T10:42:37Z</time>
      </trkpt>
      <trkpt lat="45.08276" lon="6.05539">
        <ele>1485.8</ele>
        <time>2026-08-25T10:42:38Z</time>
      </trkpt>
      <trkpt lat="45.08275" lon="6.05535">
        <ele>1486</ele>
        <time>2026-08-25T10:42:39Z</time>
      </trkpt>
      <trkpt lat="45.08274" lon="6.05531">
        <ele>1486.2</ele>
        <time>2026-08-25T10:42:40Z</time>
      </trkpt>
      <trkpt lat="45.08272" lon="6.05527">
        <ele>1486.4</ele>
        <time>2026-08-25T10:42:41Z</time>
      </trkpt>
      <trkpt lat="45.08272" lon="6.05523">
        <ele>1486.6</ele>
        <time>2026-08-25T10:42:42Z</time>
      </trkpt>
      <trkpt lat="45.0827" lon="6.0552">
        <ele>1486.8</ele>
        <time>2026-08-25T10:42:43Z</time>
      </trkpt>
      <trkpt lat="45.08269" lon="6.05517">
        <ele>1487</ele>
        <time>2026-08-25T10:42:44Z</time>
      </trkpt>
      <trkpt lat="45.08268" lon="6.05514">
        <ele>1487.2</ele>
        <time>2026-08-25T10:42:45Z</time>
      </trkpt>
      <trkpt lat="45.08266" lon="6.0551">
        <ele>1487.3</ele>
        <time>2026-08-25T10:42:46Z</time>
      </trkpt>
      <trkpt lat="45.08265" lon="6.05507">
        <ele>1487.6</ele>
        <time>2026-08-25T10:42:47Z</time>
      </trkpt>
      <trkpt lat="45.08262" lon="6.05503">
        <ele>1487.8</ele>
        <time>2026-08-25T10:42:48Z</time>
      </trkpt>
      <trkpt lat="45.0826" lon="6.05501">
        <ele>1488</ele>
        <time>2026-08-25T10:42:49Z</time>
      </trkpt>
      <trkpt lat="45.08259" lon="6.05498">
        <ele>1488.1</ele>
        <time>2026-08-25T10:42:50Z</time>
      </trkpt>
      <trkpt lat="45.08257" lon="6.05495">
        <ele>1488.3</ele>
        <time>2026-08-25T10:42:51Z</time>
      </trkpt>
      <trkpt lat="45.08255" lon="6.05493">
        <ele>1488.5</ele>
        <time>2026-08-25T10:42:52Z</time>
      </trkpt>
      <trkpt lat="45.08253" lon="6.0549">
        <ele>1488.6</ele>
        <time>2026-08-25T10:42:53Z</time>
      </trkpt>
      <trkpt lat="45.0825" lon="6.05488">
        <ele>1488.8</ele>
        <time>2026-08-25T10:42:54Z</time>
      </trkpt>
      <trkpt lat="45.08248" lon="6.05485">
        <ele>1488.9</ele>
        <time>2026-08-25T10:42:55Z</time>
      </trkpt>
      <trkpt lat="45.08245" lon="6.05482">
        <ele>1489</ele>
        <time>2026-08-25T10:42:56Z</time>
      </trkpt>
      <trkpt lat="45.08243" lon="6.05479">
        <ele>1489.1</ele>
        <time>2026-08-25T10:42:57Z</time>
      </trkpt>
      <trkpt lat="45.08241" lon="6.05476">
        <ele>1489.3</ele>
        <time>2026-08-25T10:42:58Z</time>
      </trkpt>
      <trkpt lat="45.08238" lon="6.05473">
        <ele>1489.4</ele>
        <time>2026-08-25T10:42:59Z</time>
      </trkpt>
      <trkpt lat="45.08236" lon="6.0547">
        <ele>1489.5</ele>
        <time>2026-08-25T10:43:00Z</time>
      </trkpt>
      <trkpt lat="45.08234" lon="6.05466">
        <ele>1489.6</ele>
        <time>2026-08-25T10:43:01Z</time>
      </trkpt>
      <trkpt lat="45.08232" lon="6.05463">
        <ele>1489.7</ele>
        <time>2026-08-25T10:43:02Z</time>
      </trkpt>
      <trkpt lat="45.08231" lon="6.0546">
        <ele>1489.8</ele>
        <time>2026-08-25T10:43:03Z</time>
      </trkpt>
      <trkpt lat="45.08229" lon="6.05456">
        <ele>1490</ele>
        <time>2026-08-25T10:43:04Z</time>
      </trkpt>
      <trkpt lat="45.08227" lon="6.05452">
        <ele>1490.1</ele>
        <time>2026-08-25T10:43:05Z</time>
      </trkpt>
      <trkpt lat="45.08226" lon="6.05448">
        <ele>1490.3</ele>
        <time>2026-08-25T10:43:06Z</time>
      </trkpt>
      <trkpt lat="45.08224" lon="6.05445">
        <ele>1490.4</ele>
        <time>2026-08-25T10:43:07Z</time>
      </trkpt>
      <trkpt lat="45.08223" lon="6.05441">
        <ele>1490.5</ele>
        <time>2026-08-25T10:43:08Z</time>
      </trkpt>
      <trkpt lat="45.08221" lon="6.05437">
        <ele>1490.7</ele>
        <time>2026-08-25T10:43:09Z</time>
      </trkpt>
      <trkpt lat="45.08219" lon="6.05433">
        <ele>1490.8</ele>
        <time>2026-08-25T10:43:10Z</time>
      </trkpt>
      <trkpt lat="45.08218" lon="6.0543">
        <ele>1491</ele>
        <time>2026-08-25T10:43:11Z</time>
      </trkpt>
      <trkpt lat="45.08217" lon="6.05427">
        <ele>1491.1</ele>
        <time>2026-08-25T10:43:12Z</time>
      </trkpt>
      <trkpt lat="45.08215" lon="6.05423">
        <ele>1491.3</ele>
        <time>2026-08-25T10:43:13Z</time>
      </trkpt>
      <trkpt lat="45.08214" lon="6.0542">
        <ele>1491.4</ele>
        <time>2026-08-25T10:43:14Z</time>
      </trkpt>
      <trkpt lat="45.08212" lon="6.05417">
        <ele>1491.6</ele>
        <time>2026-08-25T10:43:15Z</time>
      </trkpt>
      <trkpt lat="45.08211" lon="6.05413">
        <ele>1491.7</ele>
        <time>2026-08-25T10:43:16Z</time>
      </trkpt>
      <trkpt lat="45.0821" lon="6.0541">
        <ele>1491.9</ele>
        <time>2026-08-25T10:43:17Z</time>
      </trkpt>
      <trkpt lat="45.08208" lon="6.05407">
        <ele>1492</ele>
        <time>2026-08-25T10:43:18Z</time>
      </trkpt>
      <trkpt lat="45.08207" lon="6.05404">
        <ele>1492.2</ele>
        <time>2026-08-25T10:43:19Z</time>
      </trkpt>
      <trkpt lat="45.08205" lon="6.054">
        <ele>1492.3</ele>
        <time>2026-08-25T10:43:20Z</time>
      </trkpt>
      <trkpt lat="45.08204" lon="6.05397">
        <ele>1492.5</ele>
        <time>2026-08-25T10:43:21Z</time>
      </trkpt>
      <trkpt lat="45.08203" lon="6.05393">
        <ele>1492.7</ele>
        <time>2026-08-25T10:43:22Z</time>
      </trkpt>
      <trkpt lat="45.08201" lon="6.05389">
        <ele>1492.8</ele>
        <time>2026-08-25T10:43:23Z</time>
      </trkpt>
      <trkpt lat="45.08199" lon="6.05386">
        <ele>1493</ele>
        <time>2026-08-25T10:43:24Z</time>
      </trkpt>
      <trkpt lat="45.08198" lon="6.05382">
        <ele>1493.2</ele>
        <time>2026-08-25T10:43:25Z</time>
      </trkpt>
      <trkpt lat="45.08196" lon="6.05379">
        <ele>1493.3</ele>
        <time>2026-08-25T10:43:26Z</time>
      </trkpt>
      <trkpt lat="45.08195" lon="6.05374">
        <ele>1493.5</ele>
        <time>2026-08-25T10:43:27Z</time>
      </trkpt>
      <trkpt lat="45.08195" lon="6.0537">
        <ele>1493.6</ele>
        <time>2026-08-25T10:43:28Z</time>
      </trkpt>
      <trkpt lat="45.08194" lon="6.05366">
        <ele>1493.8</ele>
        <time>2026-08-25T10:43:29Z</time>
      </trkpt>
      <trkpt lat="45.08194" lon="6.05362">
        <ele>1493.9</ele>
        <time>2026-08-25T10:43:30Z</time>
      </trkpt>
      <trkpt lat="45.08194" lon="6.05358">
        <ele>1494</ele>
        <time>2026-08-25T10:43:31Z</time>
      </trkpt>
      <trkpt lat="45.08194" lon="6.05354">
        <ele>1494.1</ele>
        <time>2026-08-25T10:43:32Z</time>
      </trkpt>
      <trkpt lat="45.08194" lon="6.0535">
        <ele>1494.2</ele>
        <time>2026-08-25T10:43:33Z</time>
      </trkpt>
      <trkpt lat="45.08194" lon="6.05346">
        <ele>1494.4</ele>
        <time>2026-08-25T10:43:34Z</time>
      </trkpt>
      <trkpt lat="45.08194" lon="6.05343">
        <ele>1494.5</ele>
        <time>2026-08-25T10:43:35Z</time>
      </trkpt>
      <trkpt lat="45.08195" lon="6.05338">
        <ele>1494.6</ele>
        <time>2026-08-25T10:43:36Z</time>
      </trkpt>
      <trkpt lat="45.08195" lon="6.05334">
        <ele>1494.8</ele>
        <time>2026-08-25T10:43:37Z</time>
      </trkpt>
      <trkpt lat="45.08196" lon="6.0533">
        <ele>1494.9</ele>
        <time>2026-08-25T10:43:38Z</time>
      </trkpt>
      <trkpt lat="45.08196" lon="6.05326">
        <ele>1495.1</ele>
        <time>2026-08-25T10:43:39Z</time>
      </trkpt>
      <trkpt lat="45.08196" lon="6.05321">
        <ele>1495.2</ele>
        <time>2026-08-25T10:43:40Z</time>
      </trkpt>
      <trkpt lat="45.08197" lon="6.05317">
        <ele>1495.4</ele>
        <time>2026-08-25T10:43:41Z</time>
      </trkpt>
      <trkpt lat="45.08198" lon="6.05313">
        <ele>1495.5</ele>
        <time>2026-08-25T10:43:42Z</time>
      </trkpt>
      <trkpt lat="45.08198" lon="6.05309">
        <ele>1495.7</ele>
        <time>2026-08-25T10:43:43Z</time>
      </trkpt>
      <trkpt lat="45.08199" lon="6.05305">
        <ele>1495.8</ele>
        <time>2026-08-25T10:43:44Z</time>
      </trkpt>
      <trkpt lat="45.08199" lon="6.05301">
        <ele>1496</ele>
        <time>2026-08-25T10:43:45Z</time>
      </trkpt>
      <trkpt lat="45.082" lon="6.05297">
        <ele>1496.1</ele>
        <time>2026-08-25T10:43:46Z</time>
      </trkpt>
      <trkpt lat="45.082" lon="6.05293">
        <ele>1496.3</ele>
        <time>2026-08-25T10:43:47Z</time>
      </trkpt>
      <trkpt lat="45.082" lon="6.05288">
        <ele>1496.4</ele>
        <time>2026-08-25T10:43:48Z</time>
      </trkpt>
      <trkpt lat="45.082" lon="6.05284">
        <ele>1496.6</ele>
        <time>2026-08-25T10:43:49Z</time>
      </trkpt>
      <trkpt lat="45.082" lon="6.0528">
        <ele>1496.7</ele>
        <time>2026-08-25T10:43:50Z</time>
      </trkpt>
      <trkpt lat="45.082" lon="6.05275">
        <ele>1496.8</ele>
        <time>2026-08-25T10:43:51Z</time>
      </trkpt>
      <trkpt lat="45.08199" lon="6.05271">
        <ele>1496.9</ele>
        <time>2026-08-25T10:43:52Z</time>
      </trkpt>
      <trkpt lat="45.08198" lon="6.05267">
        <ele>1497</ele>
        <time>2026-08-25T10:43:53Z</time>
      </trkpt>
      <trkpt lat="45.08197" lon="6.05262">
        <ele>1497.1</ele>
        <time>2026-08-25T10:43:54Z</time>
      </trkpt>
      <trkpt lat="45.08195" lon="6.05258">
        <ele>1497.2</ele>
        <time>2026-08-25T10:43:55Z</time>
      </trkpt>
      <trkpt lat="45.08192" lon="6.05255">
        <ele>1497.3</ele>
        <time>2026-08-25T10:43:56Z</time>
      </trkpt>
      <trkpt lat="45.08189" lon="6.05253">
        <ele>1497.3</ele>
        <time>2026-08-25T10:43:57Z</time>
      </trkpt>
      <trkpt lat="45.08185" lon="6.05253">
        <ele>1497.4</ele>
        <time>2026-08-25T10:43:58Z</time>
      </trkpt>
      <trkpt lat="45.08182" lon="6.05254">
        <ele>1497.4</ele>
        <time>2026-08-25T10:43:59Z</time>
      </trkpt>
      <trkpt lat="45.08179" lon="6.05255">
        <ele>1497.4</ele>
        <time>2026-08-25T10:44:00Z</time>
      </trkpt>
      <trkpt lat="45.08175" lon="6.05256">
        <ele>1497.5</ele>
        <time>2026-08-25T10:44:01Z</time>
      </trkpt>
      <trkpt lat="45.08172" lon="6.05259">
        <ele>1497.5</ele>
        <time>2026-08-25T10:44:02Z</time>
      </trkpt>
      <trkpt lat="45.08168" lon="6.05261">
        <ele>1497.5</ele>
        <time>2026-08-25T10:44:03Z</time>
      </trkpt>
      <trkpt lat="45.08164" lon="6.05262">
        <ele>1497.4</ele>
        <time>2026-08-25T10:44:04Z</time>
      </trkpt>
      <trkpt lat="45.0816" lon="6.05263">
        <ele>1497.4</ele>
        <time>2026-08-25T10:44:05Z</time>
      </trkpt>
      <trkpt lat="45.08156" lon="6.05264">
        <ele>1497.4</ele>
        <time>2026-08-25T10:44:06Z</time>
      </trkpt>
      <trkpt lat="45.08151" lon="6.05264">
        <ele>1497.4</ele>
        <time>2026-08-25T10:44:07Z</time>
      </trkpt>
      <trkpt lat="45.08146" lon="6.05265">
        <ele>1497.4</ele>
        <time>2026-08-25T10:44:08Z</time>
      </trkpt>
      <trkpt lat="45.08142" lon="6.05265">
        <ele>1497.4</ele>
        <time>2026-08-25T10:44:09Z</time>
      </trkpt>
      <trkpt lat="45.08137" lon="6.05265">
        <ele>1497.4</ele>
        <time>2026-08-25T10:44:10Z</time>
      </trkpt>
      <trkpt lat="45.08133" lon="6.05266">
        <ele>1497.4</ele>
        <time>2026-08-25T10:44:11Z</time>
      </trkpt>
      <trkpt lat="45.08129" lon="6.05267">
        <ele>1497.5</ele>
        <time>2026-08-25T10:44:12Z</time>
      </trkpt>
      <trkpt lat="45.08125" lon="6.05267">
        <ele>1497.5</ele>
        <time>2026-08-25T10:44:13Z</time>
      </trkpt>
      <trkpt lat="45.08121" lon="6.05268">
        <ele>1497.5</ele>
        <time>2026-08-25T10:44:14Z</time>
      </trkpt>
      <trkpt lat="45.08116" lon="6.05269">
        <ele>1497.6</ele>
        <time>2026-08-25T10:44:15Z</time>
      </trkpt>
      <trkpt lat="45.08112" lon="6.0527">
        <ele>1497.6</ele>
        <time>2026-08-25T10:44:16Z</time>
      </trkpt>
      <trkpt lat="45.08107" lon="6.0527">
        <ele>1497.7</ele>
        <time>2026-08-25T10:44:17Z</time>
      </trkpt>
      <trkpt lat="45.08103" lon="6.05271">
        <ele>1497.7</ele>
        <time>2026-08-25T10:44:18Z</time>
      </trkpt>
      <trkpt lat="45.08098" lon="6.05272">
        <ele>1497.8</ele>
        <time>2026-08-25T10:44:19Z</time>
      </trkpt>
      <trkpt lat="45.08094" lon="6.05272">
        <ele>1497.9</ele>
        <time>2026-08-25T10:44:20Z</time>
      </trkpt>
      <trkpt lat="45.08089" lon="6.05273">
        <ele>1498.1</ele>
        <time>2026-08-25T10:44:21Z</time>
      </trkpt>
      <trkpt lat="45.08085" lon="6.05273">
        <ele>1498.2</ele>
        <time>2026-08-25T10:44:22Z</time>
      </trkpt>
      <trkpt lat="45.0808" lon="6.05274">
        <ele>1498.4</ele>
        <time>2026-08-25T10:44:23Z</time>
      </trkpt>
      <trkpt lat="45.08076" lon="6.05274">
        <ele>1498.6</ele>
        <time>2026-08-25T10:44:24Z</time>
      </trkpt>
      <trkpt lat="45.08072" lon="6.05273">
        <ele>1498.8</ele>
        <time>2026-08-25T10:44:25Z</time>
      </trkpt>
      <trkpt lat="45.08068" lon="6.05272">
        <ele>1499</ele>
        <time>2026-08-25T10:44:26Z</time>
      </trkpt>
      <trkpt lat="45.08064" lon="6.05272">
        <ele>1499.2</ele>
        <time>2026-08-25T10:44:27Z</time>
      </trkpt>
      <trkpt lat="45.0806" lon="6.05272">
        <ele>1499.5</ele>
        <time>2026-08-25T10:44:28Z</time>
      </trkpt>
      <trkpt lat="45.08056" lon="6.05271">
        <ele>1499.7</ele>
        <time>2026-08-25T10:44:29Z</time>
      </trkpt>
      <trkpt lat="45.08052" lon="6.0527">
        <ele>1500</ele>
        <time>2026-08-25T10:44:30Z</time>
      </trkpt>
      <trkpt lat="45.08049" lon="6.05269">
        <ele>1500.2</ele>
        <time>2026-08-25T10:44:31Z</time>
      </trkpt>
      <trkpt lat="45.08046" lon="6.05268">
        <ele>1500.4</ele>
        <time>2026-08-25T10:44:32Z</time>
      </trkpt>
      <trkpt lat="45.08042" lon="6.05267">
        <ele>1500.6</ele>
        <time>2026-08-25T10:44:33Z</time>
      </trkpt>
      <trkpt lat="45.08039" lon="6.05265">
        <ele>1500.9</ele>
        <time>2026-08-25T10:44:34Z</time>
      </trkpt>
      <trkpt lat="45.08036" lon="6.05263">
        <ele>1501.1</ele>
        <time>2026-08-25T10:44:35Z</time>
      </trkpt>
      <trkpt lat="45.08032" lon="6.05261">
        <ele>1501.3</ele>
        <time>2026-08-25T10:44:36Z</time>
      </trkpt>
      <trkpt lat="45.08029" lon="6.0526">
        <ele>1501.5</ele>
        <time>2026-08-25T10:44:37Z</time>
      </trkpt>
      <trkpt lat="45.08026" lon="6.05259">
        <ele>1501.7</ele>
        <time>2026-08-25T10:44:38Z</time>
      </trkpt>
      <trkpt lat="45.08022" lon="6.05258">
        <ele>1502</ele>
        <time>2026-08-25T10:44:39Z</time>
      </trkpt>
      <trkpt lat="45.08019" lon="6.05256">
        <ele>1502.2</ele>
        <time>2026-08-25T10:44:40Z</time>
      </trkpt>
      <trkpt lat="45.08016" lon="6.05255">
        <ele>1502.4</ele>
        <time>2026-08-25T10:44:41Z</time>
      </trkpt>
      <trkpt lat="45.08012" lon="6.05254">
        <ele>1502.6</ele>
        <time>2026-08-25T10:44:42Z</time>
      </trkpt>
      <trkpt lat="45.08009" lon="6.05252">
        <ele>1502.9</ele>
        <time>2026-08-25T10:44:43Z</time>
      </trkpt>
      <trkpt lat="45.08005" lon="6.0525">
        <ele>1503.1</ele>
        <time>2026-08-25T10:44:44Z</time>
      </trkpt>
      <trkpt lat="45.08003" lon="6.05248">
        <ele>1503.2</ele>
        <time>2026-08-25T10:44:45Z</time>
      </trkpt>
      <trkpt lat="45.08001" lon="6.05245">
        <ele>1503.4</ele>
        <time>2026-08-25T10:44:46Z</time>
      </trkpt>
      <trkpt lat="45.07999" lon="6.05241">
        <ele>1503.6</ele>
        <time>2026-08-25T10:44:47Z</time>
      </trkpt>
      <trkpt lat="45.07997" lon="6.05236">
        <ele>1503.7</ele>
        <time>2026-08-25T10:44:48Z</time>
      </trkpt>
      <trkpt lat="45.07997" lon="6.05231">
        <ele>1503.7</ele>
        <time>2026-08-25T10:44:49Z</time>
      </trkpt>
      <trkpt lat="45.07996" lon="6.05227">
        <ele>1503.7</ele>
        <time>2026-08-25T10:44:50Z</time>
      </trkpt>
      <trkpt lat="45.07995" lon="6.05222">
        <ele>1503.9</ele>
        <time>2026-08-25T10:44:51Z</time>
      </trkpt>
      <trkpt lat="45.07994" lon="6.05218">
        <ele>1504</ele>
        <time>2026-08-25T10:44:52Z</time>
      </trkpt>
      <trkpt lat="45.07994" lon="6.05213">
        <ele>1504.1</ele>
        <time>2026-08-25T10:44:53Z</time>
      </trkpt>
      <trkpt lat="45.07994" lon="6.05208">
        <ele>1504.3</ele>
        <time>2026-08-25T10:44:54Z</time>
      </trkpt>
      <trkpt lat="45.07994" lon="6.05202">
        <ele>1504.5</ele>
        <time>2026-08-25T10:44:55Z</time>
      </trkpt>
      <trkpt lat="45.07994" lon="6.05197">
        <ele>1504.7</ele>
        <time>2026-08-25T10:44:56Z</time>
      </trkpt>
      <trkpt lat="45.07995" lon="6.05192">
        <ele>1504.8</ele>
        <time>2026-08-25T10:44:57Z</time>
      </trkpt>
      <trkpt lat="45.07996" lon="6.05187">
        <ele>1505</ele>
        <time>2026-08-25T10:44:58Z</time>
      </trkpt>
      <trkpt lat="45.07997" lon="6.05182">
        <ele>1505.2</ele>
        <time>2026-08-25T10:44:59Z</time>
      </trkpt>
      <trkpt lat="45.07998" lon="6.05177">
        <ele>1505.3</ele>
        <time>2026-08-25T10:45:00Z</time>
      </trkpt>
      <trkpt lat="45.07999" lon="6.05172">
        <ele>1505.5</ele>
        <time>2026-08-25T10:45:01Z</time>
      </trkpt>
      <trkpt lat="45.08001" lon="6.05168">
        <ele>1505.7</ele>
        <time>2026-08-25T10:45:02Z</time>
      </trkpt>
      <trkpt lat="45.08002" lon="6.05163">
        <ele>1505.8</ele>
        <time>2026-08-25T10:45:03Z</time>
      </trkpt>
      <trkpt lat="45.08003" lon="6.05159">
        <ele>1505.9</ele>
        <time>2026-08-25T10:45:04Z</time>
      </trkpt>
      <trkpt lat="45.08004" lon="6.05154">
        <ele>1506.1</ele>
        <time>2026-08-25T10:45:05Z</time>
      </trkpt>
      <trkpt lat="45.08005" lon="6.0515">
        <ele>1506.2</ele>
        <time>2026-08-25T10:45:06Z</time>
      </trkpt>
      <trkpt lat="45.08006" lon="6.05146">
        <ele>1506.3</ele>
        <time>2026-08-25T10:45:07Z</time>
      </trkpt>
      <trkpt lat="45.08008" lon="6.05142">
        <ele>1506.4</ele>
        <time>2026-08-25T10:45:08Z</time>
      </trkpt>
      <trkpt lat="45.08009" lon="6.05137">
        <ele>1506.6</ele>
        <time>2026-08-25T10:45:09Z</time>
      </trkpt>
      <trkpt lat="45.08011" lon="6.05132">
        <ele>1506.7</ele>
        <time>2026-08-25T10:45:10Z</time>
      </trkpt>
      <trkpt lat="45.08012" lon="6.05128">
        <ele>1506.8</ele>
        <time>2026-08-25T10:45:11Z</time>
      </trkpt>
      <trkpt lat="45.08013" lon="6.05123">
        <ele>1507</ele>
        <time>2026-08-25T10:45:12Z</time>
      </trkpt>
      <trkpt lat="45.08015" lon="6.05119">
        <ele>1507.1</ele>
        <time>2026-08-25T10:45:13Z</time>
      </trkpt>
      <trkpt lat="45.08016" lon="6.05114">
        <ele>1507.2</ele>
        <time>2026-08-25T10:45:14Z</time>
      </trkpt>
      <trkpt lat="45.08017" lon="6.0511">
        <ele>1507.3</ele>
        <time>2026-08-25T10:45:15Z</time>
      </trkpt>
      <trkpt lat="45.08018" lon="6.05106">
        <ele>1507.5</ele>
        <time>2026-08-25T10:45:16Z</time>
      </trkpt>
      <trkpt lat="45.08019" lon="6.05102">
        <ele>1507.6</ele>
        <time>2026-08-25T10:45:17Z</time>
      </trkpt>
      <trkpt lat="45.08021" lon="6.05097">
        <ele>1507.7</ele>
        <time>2026-08-25T10:45:18Z</time>
      </trkpt>
      <trkpt lat="45.08022" lon="6.05093">
        <ele>1507.8</ele>
        <time>2026-08-25T10:45:19Z</time>
      </trkpt>
      <trkpt lat="45.08023" lon="6.05089">
        <ele>1508</ele>
        <time>2026-08-25T10:45:20Z</time>
      </trkpt>
      <trkpt lat="45.08024" lon="6.05085">
        <ele>1508.1</ele>
        <time>2026-08-25T10:45:21Z</time>
      </trkpt>
      <trkpt lat="45.08025" lon="6.05081">
        <ele>1508.3</ele>
        <time>2026-08-25T10:45:22Z</time>
      </trkpt>
      <trkpt lat="45.08026" lon="6.05077">
        <ele>1508.4</ele>
        <time>2026-08-25T10:45:23Z</time>
      </trkpt>
      <trkpt lat="45.08027" lon="6.05072">
        <ele>1508.6</ele>
        <time>2026-08-25T10:45:24Z</time>
      </trkpt>
      <trkpt lat="45.08029" lon="6.05068">
        <ele>1508.7</ele>
        <time>2026-08-25T10:45:25Z</time>
      </trkpt>
      <trkpt lat="45.0803" lon="6.05064">
        <ele>1508.8</ele>
        <time>2026-08-25T10:45:26Z</time>
      </trkpt>
      <trkpt lat="45.08031" lon="6.0506">
        <ele>1509</ele>
        <time>2026-08-25T10:45:27Z</time>
      </trkpt>
      <trkpt lat="45.08032" lon="6.05056">
        <ele>1509.1</ele>
        <time>2026-08-25T10:45:28Z</time>
      </trkpt>
      <trkpt lat="45.08033" lon="6.05052">
        <ele>1509.3</ele>
        <time>2026-08-25T10:45:29Z</time>
      </trkpt>
      <trkpt lat="45.08034" lon="6.05048">
        <ele>1509.4</ele>
        <time>2026-08-25T10:45:30Z</time>
      </trkpt>
      <trkpt lat="45.08035" lon="6.05043">
        <ele>1509.5</ele>
        <time>2026-08-25T10:45:31Z</time>
      </trkpt>
      <trkpt lat="45.08037" lon="6.05039">
        <ele>1509.7</ele>
        <time>2026-08-25T10:45:32Z</time>
      </trkpt>
      <trkpt lat="45.08038" lon="6.05036">
        <ele>1509.8</ele>
        <time>2026-08-25T10:45:33Z</time>
      </trkpt>
      <trkpt lat="45.08039" lon="6.05031">
        <ele>1509.9</ele>
        <time>2026-08-25T10:45:34Z</time>
      </trkpt>
      <trkpt lat="45.0804" lon="6.05027">
        <ele>1510</ele>
        <time>2026-08-25T10:45:35Z</time>
      </trkpt>
      <trkpt lat="45.08042" lon="6.05023">
        <ele>1510.2</ele>
        <time>2026-08-25T10:45:36Z</time>
      </trkpt>
      <trkpt lat="45.08043" lon="6.05019">
        <ele>1510.3</ele>
        <time>2026-08-25T10:45:37Z</time>
      </trkpt>
      <trkpt lat="45.08045" lon="6.05014">
        <ele>1510.5</ele>
        <time>2026-08-25T10:45:38Z</time>
      </trkpt>
      <trkpt lat="45.08046" lon="6.0501">
        <ele>1510.6</ele>
        <time>2026-08-25T10:45:39Z</time>
      </trkpt>
      <trkpt lat="45.08048" lon="6.05005">
        <ele>1510.7</ele>
        <time>2026-08-25T10:45:40Z</time>
      </trkpt>
      <trkpt lat="45.08049" lon="6.05001">
        <ele>1510.9</ele>
        <time>2026-08-25T10:45:41Z</time>
      </trkpt>
      <trkpt lat="45.08051" lon="6.04997">
        <ele>1511</ele>
        <time>2026-08-25T10:45:42Z</time>
      </trkpt>
      <trkpt lat="45.08052" lon="6.04993">
        <ele>1511.1</ele>
        <time>2026-08-25T10:45:43Z</time>
      </trkpt>
      <trkpt lat="45.08054" lon="6.04989">
        <ele>1511.3</ele>
        <time>2026-08-25T10:45:44Z</time>
      </trkpt>
      <trkpt lat="45.08055" lon="6.04985">
        <ele>1511.4</ele>
        <time>2026-08-25T10:45:45Z</time>
      </trkpt>
      <trkpt lat="45.08056" lon="6.04981">
        <ele>1511.5</ele>
        <time>2026-08-25T10:45:46Z</time>
      </trkpt>
      <trkpt lat="45.08058" lon="6.04977">
        <ele>1511.6</ele>
        <time>2026-08-25T10:45:47Z</time>
      </trkpt>
      <trkpt lat="45.08059" lon="6.04973">
        <ele>1511.7</ele>
        <time>2026-08-25T10:45:48Z</time>
      </trkpt>
      <trkpt lat="45.08061" lon="6.04968">
        <ele>1511.8</ele>
        <time>2026-08-25T10:45:49Z</time>
      </trkpt>
      <trkpt lat="45.08062" lon="6.04964">
        <ele>1511.9</ele>
        <time>2026-08-25T10:45:50Z</time>
      </trkpt>
      <trkpt lat="45.08063" lon="6.0496">
        <ele>1512</ele>
        <time>2026-08-25T10:45:51Z</time>
      </trkpt>
      <trkpt lat="45.08065" lon="6.04955">
        <ele>1512.1</ele>
        <time>2026-08-25T10:45:52Z</time>
      </trkpt>
      <trkpt lat="45.08066" lon="6.04951">
        <ele>1512.2</ele>
        <time>2026-08-25T10:45:53Z</time>
      </trkpt>
      <trkpt lat="45.08066" lon="6.04945">
        <ele>1512.3</ele>
        <time>2026-08-25T10:45:54Z</time>
      </trkpt>
      <trkpt lat="45.08067" lon="6.04941">
        <ele>1512.4</ele>
        <time>2026-08-25T10:45:55Z</time>
      </trkpt>
      <trkpt lat="45.08068" lon="6.04936">
        <ele>1512.5</ele>
        <time>2026-08-25T10:45:56Z</time>
      </trkpt>
      <trkpt lat="45.08068" lon="6.04932">
        <ele>1512.5</ele>
        <time>2026-08-25T10:45:57Z</time>
      </trkpt>
      <trkpt lat="45.08069" lon="6.04928">
        <ele>1512.6</ele>
        <time>2026-08-25T10:45:58Z</time>
      </trkpt>
      <trkpt lat="45.08069" lon="6.04923">
        <ele>1512.7</ele>
        <time>2026-08-25T10:45:59Z</time>
      </trkpt>
      <trkpt lat="45.0807" lon="6.04918">
        <ele>1512.8</ele>
        <time>2026-08-25T10:46:00Z</time>
      </trkpt>
      <trkpt lat="45.0807" lon="6.04913">
        <ele>1512.8</ele>
        <time>2026-08-25T10:46:01Z</time>
      </trkpt>
      <trkpt lat="45.0807" lon="6.04907">
        <ele>1512.9</ele>
        <time>2026-08-25T10:46:02Z</time>
      </trkpt>
      <trkpt lat="45.08071" lon="6.04902">
        <ele>1513</ele>
        <time>2026-08-25T10:46:03Z</time>
      </trkpt>
      <trkpt lat="45.08072" lon="6.04897">
        <ele>1513</ele>
        <time>2026-08-25T10:46:04Z</time>
      </trkpt>
      <trkpt lat="45.08072" lon="6.04891">
        <ele>1513.1</ele>
        <time>2026-08-25T10:46:05Z</time>
      </trkpt>
      <trkpt lat="45.08072" lon="6.04886">
        <ele>1513.2</ele>
        <time>2026-08-25T10:46:06Z</time>
      </trkpt>
      <trkpt lat="45.08072" lon="6.0488">
        <ele>1513.2</ele>
        <time>2026-08-25T10:46:07Z</time>
      </trkpt>
      <trkpt lat="45.08071" lon="6.04875">
        <ele>1513.3</ele>
        <time>2026-08-25T10:46:08Z</time>
      </trkpt>
      <trkpt lat="45.0807" lon="6.0487">
        <ele>1513.4</ele>
        <time>2026-08-25T10:46:09Z</time>
      </trkpt>
      <trkpt lat="45.08069" lon="6.04865">
        <ele>1513.4</ele>
        <time>2026-08-25T10:46:10Z</time>
      </trkpt>
      <trkpt lat="45.08067" lon="6.0486">
        <ele>1513.5</ele>
        <time>2026-08-25T10:46:11Z</time>
      </trkpt>
      <trkpt lat="45.08065" lon="6.04855">
        <ele>1513.5</ele>
        <time>2026-08-25T10:46:12Z</time>
      </trkpt>
      <trkpt lat="45.08063" lon="6.04851">
        <ele>1513.6</ele>
        <time>2026-08-25T10:46:13Z</time>
      </trkpt>
      <trkpt lat="45.08061" lon="6.04846">
        <ele>1513.7</ele>
        <time>2026-08-25T10:46:14Z</time>
      </trkpt>
      <trkpt lat="45.08059" lon="6.04842">
        <ele>1513.7</ele>
        <time>2026-08-25T10:46:15Z</time>
      </trkpt>
      <trkpt lat="45.08058" lon="6.04836">
        <ele>1513.8</ele>
        <time>2026-08-25T10:46:16Z</time>
      </trkpt>
      <trkpt lat="45.08056" lon="6.04831">
        <ele>1513.8</ele>
        <time>2026-08-25T10:46:17Z</time>
      </trkpt>
      <trkpt lat="45.08055" lon="6.04826">
        <ele>1513.9</ele>
        <time>2026-08-25T10:46:18Z</time>
      </trkpt>
      <trkpt lat="45.08053" lon="6.04821">
        <ele>1513.9</ele>
        <time>2026-08-25T10:46:19Z</time>
      </trkpt>
      <trkpt lat="45.08052" lon="6.04815">
        <ele>1513.9</ele>
        <time>2026-08-25T10:46:20Z</time>
      </trkpt>
      <trkpt lat="45.08051" lon="6.0481">
        <ele>1514</ele>
        <time>2026-08-25T10:46:21Z</time>
      </trkpt>
      <trkpt lat="45.08049" lon="6.04804">
        <ele>1514.1</ele>
        <time>2026-08-25T10:46:22Z</time>
      </trkpt>
      <trkpt lat="45.08047" lon="6.048">
        <ele>1514.1</ele>
        <time>2026-08-25T10:46:23Z</time>
      </trkpt>
      <trkpt lat="45.08045" lon="6.04795">
        <ele>1514.2</ele>
        <time>2026-08-25T10:46:24Z</time>
      </trkpt>
      <trkpt lat="45.08043" lon="6.0479">
        <ele>1514.4</ele>
        <time>2026-08-25T10:46:25Z</time>
      </trkpt>
      <trkpt lat="45.08041" lon="6.04786">
        <ele>1514.5</ele>
        <time>2026-08-25T10:46:26Z</time>
      </trkpt>
      <trkpt lat="45.08038" lon="6.04782">
        <ele>1514.6</ele>
        <time>2026-08-25T10:46:27Z</time>
      </trkpt>
      <trkpt lat="45.08036" lon="6.04779">
        <ele>1514.8</ele>
        <time>2026-08-25T10:46:28Z</time>
      </trkpt>
      <trkpt lat="45.08034" lon="6.04775">
        <ele>1514.9</ele>
        <time>2026-08-25T10:46:29Z</time>
      </trkpt>
      <trkpt lat="45.08032" lon="6.04771">
        <ele>1515.1</ele>
        <time>2026-08-25T10:46:30Z</time>
      </trkpt>
      <trkpt lat="45.0803" lon="6.04767">
        <ele>1515.3</ele>
        <time>2026-08-25T10:46:31Z</time>
      </trkpt>
      <trkpt lat="45.08028" lon="6.04763">
        <ele>1515.4</ele>
        <time>2026-08-25T10:46:32Z</time>
      </trkpt>
      <trkpt lat="45.08028" lon="6.04758">
        <ele>1515.6</ele>
        <time>2026-08-25T10:46:33Z</time>
      </trkpt>
      <trkpt lat="45.08028" lon="6.04753">
        <ele>1515.7</ele>
        <time>2026-08-25T10:46:34Z</time>
      </trkpt>
      <trkpt lat="45.0803" lon="6.04749">
        <ele>1515.9</ele>
        <time>2026-08-25T10:46:35Z</time>
      </trkpt>
      <trkpt lat="45.08031" lon="6.04745">
        <ele>1516</ele>
        <time>2026-08-25T10:46:36Z</time>
      </trkpt>
      <trkpt lat="45.08033" lon="6.0474">
        <ele>1516.1</ele>
        <time>2026-08-25T10:46:37Z</time>
      </trkpt>
      <trkpt lat="45.08035" lon="6.04737">
        <ele>1516.3</ele>
        <time>2026-08-25T10:46:38Z</time>
      </trkpt>
      <trkpt lat="45.08036" lon="6.04732">
        <ele>1516.4</ele>
        <time>2026-08-25T10:46:39Z</time>
      </trkpt>
      <trkpt lat="45.08038" lon="6.04728">
        <ele>1516.5</ele>
        <time>2026-08-25T10:46:40Z</time>
      </trkpt>
      <trkpt lat="45.0804" lon="6.04725">
        <ele>1516.7</ele>
        <time>2026-08-25T10:46:41Z</time>
      </trkpt>
      <trkpt lat="45.08042" lon="6.04721">
        <ele>1516.8</ele>
        <time>2026-08-25T10:46:42Z</time>
      </trkpt>
      <trkpt lat="45.08044" lon="6.04717">
        <ele>1516.9</ele>
        <time>2026-08-25T10:46:43Z</time>
      </trkpt>
      <trkpt lat="45.08046" lon="6.04713">
        <ele>1517.1</ele>
        <time>2026-08-25T10:46:44Z</time>
      </trkpt>
      <trkpt lat="45.08047" lon="6.04709">
        <ele>1517.2</ele>
        <time>2026-08-25T10:46:45Z</time>
      </trkpt>
      <trkpt lat="45.08049" lon="6.04705">
        <ele>1517.4</ele>
        <time>2026-08-25T10:46:46Z</time>
      </trkpt>
      <trkpt lat="45.08051" lon="6.04701">
        <ele>1517.5</ele>
        <time>2026-08-25T10:46:47Z</time>
      </trkpt>
      <trkpt lat="45.08052" lon="6.04696">
        <ele>1517.7</ele>
        <time>2026-08-25T10:46:48Z</time>
      </trkpt>
      <trkpt lat="45.08053" lon="6.04693">
        <ele>1517.9</ele>
        <time>2026-08-25T10:46:49Z</time>
      </trkpt>
      <trkpt lat="45.08054" lon="6.04688">
        <ele>1518.1</ele>
        <time>2026-08-25T10:46:50Z</time>
      </trkpt>
      <trkpt lat="45.08055" lon="6.04685">
        <ele>1518.3</ele>
        <time>2026-08-25T10:46:51Z</time>
      </trkpt>
      <trkpt lat="45.08056" lon="6.04681">
        <ele>1518.4</ele>
        <time>2026-08-25T10:46:52Z</time>
      </trkpt>
      <trkpt lat="45.08057" lon="6.04678">
        <ele>1518.6</ele>
        <time>2026-08-25T10:46:53Z</time>
      </trkpt>
      <trkpt lat="45.08058" lon="6.04675">
        <ele>1518.7</ele>
        <time>2026-08-25T10:46:54Z</time>
      </trkpt>
      <trkpt lat="45.08059" lon="6.04671">
        <ele>1518.9</ele>
        <time>2026-08-25T10:46:55Z</time>
      </trkpt>
      <trkpt lat="45.0806" lon="6.04668">
        <ele>1519.1</ele>
        <time>2026-08-25T10:46:56Z</time>
      </trkpt>
      <trkpt lat="45.08061" lon="6.04664">
        <ele>1519.3</ele>
        <time>2026-08-25T10:46:57Z</time>
      </trkpt>
      <trkpt lat="45.08063" lon="6.0466">
        <ele>1519.5</ele>
        <time>2026-08-25T10:46:58Z</time>
      </trkpt>
      <trkpt lat="45.08065" lon="6.04657">
        <ele>1519.6</ele>
        <time>2026-08-25T10:46:59Z</time>
      </trkpt>
      <trkpt lat="45.08068" lon="6.04653">
        <ele>1519.8</ele>
        <time>2026-08-25T10:47:00Z</time>
      </trkpt>
      <trkpt lat="45.0807" lon="6.0465">
        <ele>1519.9</ele>
        <time>2026-08-25T10:47:01Z</time>
      </trkpt>
      <trkpt lat="45.08073" lon="6.04647">
        <ele>1520.1</ele>
        <time>2026-08-25T10:47:02Z</time>
      </trkpt>
      <trkpt lat="45.08075" lon="6.04643">
        <ele>1520.2</ele>
        <time>2026-08-25T10:47:03Z</time>
      </trkpt>
      <trkpt lat="45.08077" lon="6.04639">
        <ele>1520.3</ele>
        <time>2026-08-25T10:47:04Z</time>
      </trkpt>
      <trkpt lat="45.08079" lon="6.04635">
        <ele>1520.5</ele>
        <time>2026-08-25T10:47:05Z</time>
      </trkpt>
      <trkpt lat="45.08081" lon="6.0463">
        <ele>1520.6</ele>
        <time>2026-08-25T10:47:06Z</time>
      </trkpt>
      <trkpt lat="45.08081" lon="6.04624">
        <ele>1520.8</ele>
        <time>2026-08-25T10:47:07Z</time>
      </trkpt>
      <trkpt lat="45.08081" lon="6.04619">
        <ele>1520.9</ele>
        <time>2026-08-25T10:47:08Z</time>
      </trkpt>
      <trkpt lat="45.08081" lon="6.04614">
        <ele>1521</ele>
        <time>2026-08-25T10:47:09Z</time>
      </trkpt>
      <trkpt lat="45.08079" lon="6.0461">
        <ele>1521.1</ele>
        <time>2026-08-25T10:47:10Z</time>
      </trkpt>
      <trkpt lat="45.08077" lon="6.04606">
        <ele>1521.3</ele>
        <time>2026-08-25T10:47:11Z</time>
      </trkpt>
      <trkpt lat="45.08075" lon="6.04603">
        <ele>1521.4</ele>
        <time>2026-08-25T10:47:12Z</time>
      </trkpt>
      <trkpt lat="45.08074" lon="6.04598">
        <ele>1521.5</ele>
        <time>2026-08-25T10:47:13Z</time>
      </trkpt>
      <trkpt lat="45.08075" lon="6.04593">
        <ele>1521.7</ele>
        <time>2026-08-25T10:47:14Z</time>
      </trkpt>
      <trkpt lat="45.08076" lon="6.04588">
        <ele>1521.8</ele>
        <time>2026-08-25T10:47:15Z</time>
      </trkpt>
      <trkpt lat="45.08078" lon="6.04584">
        <ele>1521.9</ele>
        <time>2026-08-25T10:47:16Z</time>
      </trkpt>
      <trkpt lat="45.08081" lon="6.04581">
        <ele>1521.9</ele>
        <time>2026-08-25T10:47:17Z</time>
      </trkpt>
      <trkpt lat="45.08084" lon="6.04578">
        <ele>1522</ele>
        <time>2026-08-25T10:47:18Z</time>
      </trkpt>
      <trkpt lat="45.08087" lon="6.04575">
        <ele>1522.1</ele>
        <time>2026-08-25T10:47:19Z</time>
      </trkpt>
      <trkpt lat="45.0809" lon="6.04573">
        <ele>1522.2</ele>
        <time>2026-08-25T10:47:20Z</time>
      </trkpt>
      <trkpt lat="45.08093" lon="6.04571">
        <ele>1522.2</ele>
        <time>2026-08-25T10:47:21Z</time>
      </trkpt>
      <trkpt lat="45.08096" lon="6.04568">
        <ele>1522.3</ele>
        <time>2026-08-25T10:47:22Z</time>
      </trkpt>
      <trkpt lat="45.08099" lon="6.04565">
        <ele>1522.4</ele>
        <time>2026-08-25T10:47:23Z</time>
      </trkpt>
      <trkpt lat="45.08101" lon="6.04562">
        <ele>1522.5</ele>
        <time>2026-08-25T10:47:24Z</time>
      </trkpt>
      <trkpt lat="45.08104" lon="6.04559">
        <ele>1522.6</ele>
        <time>2026-08-25T10:47:25Z</time>
      </trkpt>
      <trkpt lat="45.08106" lon="6.04556">
        <ele>1522.8</ele>
        <time>2026-08-25T10:47:26Z</time>
      </trkpt>
      <trkpt lat="45.08109" lon="6.04552">
        <ele>1522.9</ele>
        <time>2026-08-25T10:47:27Z</time>
      </trkpt>
      <trkpt lat="45.08111" lon="6.04549">
        <ele>1523</ele>
        <time>2026-08-25T10:47:28Z</time>
      </trkpt>
      <trkpt lat="45.08114" lon="6.04545">
        <ele>1523.1</ele>
        <time>2026-08-25T10:47:29Z</time>
      </trkpt>
      <trkpt lat="45.08117" lon="6.04539">
        <ele>1523.2</ele>
        <time>2026-08-25T10:47:30Z</time>
      </trkpt>
      <trkpt lat="45.08117" lon="6.04534">
        <ele>1523.2</ele>
        <time>2026-08-25T10:47:31Z</time>
      </trkpt>
      <trkpt lat="45.08117" lon="6.04529">
        <ele>1523.3</ele>
        <time>2026-08-25T10:47:32Z</time>
      </trkpt>
      <trkpt lat="45.08116" lon="6.04524">
        <ele>1523.4</ele>
        <time>2026-08-25T10:47:33Z</time>
      </trkpt>
      <trkpt lat="45.08114" lon="6.04519">
        <ele>1523.4</ele>
        <time>2026-08-25T10:47:34Z</time>
      </trkpt>
      <trkpt lat="45.08112" lon="6.04515">
        <ele>1523.5</ele>
        <time>2026-08-25T10:47:35Z</time>
      </trkpt>
      <trkpt lat="45.08111" lon="6.04511">
        <ele>1523.6</ele>
        <time>2026-08-25T10:47:36Z</time>
      </trkpt>
      <trkpt lat="45.0811" lon="6.04506">
        <ele>1523.7</ele>
        <time>2026-08-25T10:47:37Z</time>
      </trkpt>
      <trkpt lat="45.0811" lon="6.04501">
        <ele>1523.8</ele>
        <time>2026-08-25T10:47:38Z</time>
      </trkpt>
      <trkpt lat="45.08111" lon="6.04496">
        <ele>1523.9</ele>
        <time>2026-08-25T10:47:39Z</time>
      </trkpt>
      <trkpt lat="45.08111" lon="6.0449">
        <ele>1524.1</ele>
        <time>2026-08-25T10:47:40Z</time>
      </trkpt>
      <trkpt lat="45.08111" lon="6.04485">
        <ele>1524.2</ele>
        <time>2026-08-25T10:47:41Z</time>
      </trkpt>
      <trkpt lat="45.08111" lon="6.0448">
        <ele>1524.3</ele>
        <time>2026-08-25T10:47:42Z</time>
      </trkpt>
      <trkpt lat="45.0811" lon="6.04475">
        <ele>1524.5</ele>
        <time>2026-08-25T10:47:43Z</time>
      </trkpt>
      <trkpt lat="45.08109" lon="6.0447">
        <ele>1524.6</ele>
        <time>2026-08-25T10:47:44Z</time>
      </trkpt>
      <trkpt lat="45.08107" lon="6.04466">
        <ele>1524.7</ele>
        <time>2026-08-25T10:47:45Z</time>
      </trkpt>
      <trkpt lat="45.08105" lon="6.04462">
        <ele>1524.8</ele>
        <time>2026-08-25T10:47:46Z</time>
      </trkpt>
      <trkpt lat="45.08102" lon="6.04459">
        <ele>1525</ele>
        <time>2026-08-25T10:47:47Z</time>
      </trkpt>
      <trkpt lat="45.081" lon="6.04455">
        <ele>1525.1</ele>
        <time>2026-08-25T10:47:48Z</time>
      </trkpt>
      <trkpt lat="45.08098" lon="6.04452">
        <ele>1525.2</ele>
        <time>2026-08-25T10:47:49Z</time>
      </trkpt>
      <trkpt lat="45.08096" lon="6.04449">
        <ele>1525.3</ele>
        <time>2026-08-25T10:47:50Z</time>
      </trkpt>
      <trkpt lat="45.08093" lon="6.04446">
        <ele>1525.4</ele>
        <time>2026-08-25T10:47:51Z</time>
      </trkpt>
      <trkpt lat="45.08091" lon="6.04442">
        <ele>1525.5</ele>
        <time>2026-08-25T10:47:52Z</time>
      </trkpt>
      <trkpt lat="45.0809" lon="6.04438">
        <ele>1525.6</ele>
        <time>2026-08-25T10:47:53Z</time>
      </trkpt>
      <trkpt lat="45.08088" lon="6.04433">
        <ele>1525.7</ele>
        <time>2026-08-25T10:47:54Z</time>
      </trkpt>
      <trkpt lat="45.08087" lon="6.04428">
        <ele>1525.8</ele>
        <time>2026-08-25T10:47:55Z</time>
      </trkpt>
      <trkpt lat="45.08087" lon="6.04424">
        <ele>1525.9</ele>
        <time>2026-08-25T10:47:56Z</time>
      </trkpt>
      <trkpt lat="45.08087" lon="6.04419">
        <ele>1526</ele>
        <time>2026-08-25T10:47:57Z</time>
      </trkpt>
      <trkpt lat="45.08088" lon="6.04415">
        <ele>1526</ele>
        <time>2026-08-25T10:47:58Z</time>
      </trkpt>
      <trkpt lat="45.08089" lon="6.0441">
        <ele>1526.1</ele>
        <time>2026-08-25T10:47:59Z</time>
      </trkpt>
      <trkpt lat="45.0809" lon="6.04405">
        <ele>1526.2</ele>
        <time>2026-08-25T10:48:00Z</time>
      </trkpt>
      <trkpt lat="45.08091" lon="6.044">
        <ele>1526.3</ele>
        <time>2026-08-25T10:48:01Z</time>
      </trkpt>
      <trkpt lat="45.08092" lon="6.04396">
        <ele>1526.4</ele>
        <time>2026-08-25T10:48:02Z</time>
      </trkpt>
      <trkpt lat="45.08093" lon="6.04391">
        <ele>1526.5</ele>
        <time>2026-08-25T10:48:03Z</time>
      </trkpt>
      <trkpt lat="45.08094" lon="6.04385">
        <ele>1526.7</ele>
        <time>2026-08-25T10:48:04Z</time>
      </trkpt>
      <trkpt lat="45.08093" lon="6.0438">
        <ele>1526.8</ele>
        <time>2026-08-25T10:48:05Z</time>
      </trkpt>
      <trkpt lat="45.08092" lon="6.04375">
        <ele>1526.9</ele>
        <time>2026-08-25T10:48:06Z</time>
      </trkpt>
      <trkpt lat="45.0809" lon="6.04371">
        <ele>1526.9</ele>
        <time>2026-08-25T10:48:07Z</time>
      </trkpt>
      <trkpt lat="45.08088" lon="6.04367">
        <ele>1527</ele>
        <time>2026-08-25T10:48:08Z</time>
      </trkpt>
      <trkpt lat="45.08086" lon="6.04363">
        <ele>1527.1</ele>
        <time>2026-08-25T10:48:09Z</time>
      </trkpt>
      <trkpt lat="45.08084" lon="6.0436">
        <ele>1527.2</ele>
        <time>2026-08-25T10:48:10Z</time>
      </trkpt>
      <trkpt lat="45.08081" lon="6.04356">
        <ele>1527.3</ele>
        <time>2026-08-25T10:48:11Z</time>
      </trkpt>
      <trkpt lat="45.08079" lon="6.04352">
        <ele>1527.4</ele>
        <time>2026-08-25T10:48:12Z</time>
      </trkpt>
      <trkpt lat="45.08077" lon="6.04348">
        <ele>1527.5</ele>
        <time>2026-08-25T10:48:13Z</time>
      </trkpt>
      <trkpt lat="45.08074" lon="6.04344">
        <ele>1527.6</ele>
        <time>2026-08-25T10:48:14Z</time>
      </trkpt>
      <trkpt lat="45.08073" lon="6.04339">
        <ele>1527.6</ele>
        <time>2026-08-25T10:48:15Z</time>
      </trkpt>
      <trkpt lat="45.08072" lon="6.04334">
        <ele>1527.7</ele>
        <time>2026-08-25T10:48:16Z</time>
      </trkpt>
      <trkpt lat="45.08072" lon="6.04328">
        <ele>1527.8</ele>
        <time>2026-08-25T10:48:17Z</time>
      </trkpt>
      <trkpt lat="45.08072" lon="6.04323">
        <ele>1527.9</ele>
        <time>2026-08-25T10:48:18Z</time>
      </trkpt>
      <trkpt lat="45.08073" lon="6.04318">
        <ele>1527.9</ele>
        <time>2026-08-25T10:48:19Z</time>
      </trkpt>
      <trkpt lat="45.08073" lon="6.04312">
        <ele>1528</ele>
        <time>2026-08-25T10:48:20Z</time>
      </trkpt>
      <trkpt lat="45.08074" lon="6.04306">
        <ele>1528</ele>
        <time>2026-08-25T10:48:21Z</time>
      </trkpt>
      <trkpt lat="45.08073" lon="6.04301">
        <ele>1528.1</ele>
        <time>2026-08-25T10:48:22Z</time>
      </trkpt>
      <trkpt lat="45.08071" lon="6.04295">
        <ele>1528.2</ele>
        <time>2026-08-25T10:48:23Z</time>
      </trkpt>
      <trkpt lat="45.08069" lon="6.0429">
        <ele>1528.2</ele>
        <time>2026-08-25T10:48:24Z</time>
      </trkpt>
      <trkpt lat="45.08067" lon="6.04286">
        <ele>1528.3</ele>
        <time>2026-08-25T10:48:25Z</time>
      </trkpt>
      <trkpt lat="45.08065" lon="6.04281">
        <ele>1528.4</ele>
        <time>2026-08-25T10:48:26Z</time>
      </trkpt>
      <trkpt lat="45.08063" lon="6.04277">
        <ele>1528.5</ele>
        <time>2026-08-25T10:48:27Z</time>
      </trkpt>
      <trkpt lat="45.08061" lon="6.04273">
        <ele>1528.5</ele>
        <time>2026-08-25T10:48:28Z</time>
      </trkpt>
      <trkpt lat="45.08058" lon="6.04268">
        <ele>1528.6</ele>
        <time>2026-08-25T10:48:29Z</time>
      </trkpt>
      <trkpt lat="45.08056" lon="6.04264">
        <ele>1528.7</ele>
        <time>2026-08-25T10:48:30Z</time>
      </trkpt>
      <trkpt lat="45.08055" lon="6.0426">
        <ele>1528.8</ele>
        <time>2026-08-25T10:48:31Z</time>
      </trkpt>
      <trkpt lat="45.08053" lon="6.04256">
        <ele>1528.8</ele>
        <time>2026-08-25T10:48:32Z</time>
      </trkpt>
      <trkpt lat="45.08052" lon="6.04251">
        <ele>1528.9</ele>
        <time>2026-08-25T10:48:33Z</time>
      </trkpt>
      <trkpt lat="45.08051" lon="6.04246">
        <ele>1528.9</ele>
        <time>2026-08-25T10:48:34Z</time>
      </trkpt>
      <trkpt lat="45.08051" lon="6.04241">
        <ele>1529</ele>
        <time>2026-08-25T10:48:35Z</time>
      </trkpt>
      <trkpt lat="45.0805" lon="6.04236">
        <ele>1529.1</ele>
        <time>2026-08-25T10:48:36Z</time>
      </trkpt>
      <trkpt lat="45.08048" lon="6.04231">
        <ele>1529.1</ele>
        <time>2026-08-25T10:48:37Z</time>
      </trkpt>
      <trkpt lat="45.08047" lon="6.04226">
        <ele>1529.2</ele>
        <time>2026-08-25T10:48:38Z</time>
      </trkpt>
      <trkpt lat="45.08045" lon="6.04222">
        <ele>1529.3</ele>
        <time>2026-08-25T10:48:39Z</time>
      </trkpt>
      <trkpt lat="45.08043" lon="6.04217">
        <ele>1529.3</ele>
        <time>2026-08-25T10:48:40Z</time>
      </trkpt>
      <trkpt lat="45.08041" lon="6.04212">
        <ele>1529.4</ele>
        <time>2026-08-25T10:48:41Z</time>
      </trkpt>
      <trkpt lat="45.08039" lon="6.04207">
        <ele>1529.5</ele>
        <time>2026-08-25T10:48:42Z</time>
      </trkpt>
      <trkpt lat="45.08037" lon="6.04204">
        <ele>1529.5</ele>
        <time>2026-08-25T10:48:43Z</time>
      </trkpt>
      <trkpt lat="45.08036" lon="6.042">
        <ele>1529.6</ele>
        <time>2026-08-25T10:48:44Z</time>
      </trkpt>
      <trkpt lat="45.08034" lon="6.04195">
        <ele>1529.7</ele>
        <time>2026-08-25T10:48:45Z</time>
      </trkpt>
      <trkpt lat="45.08033" lon="6.04191">
        <ele>1529.7</ele>
        <time>2026-08-25T10:48:46Z</time>
      </trkpt>
      <trkpt lat="45.08032" lon="6.04187">
        <ele>1529.7</ele>
        <time>2026-08-25T10:48:47Z</time>
      </trkpt>
      <trkpt lat="45.0803" lon="6.04182">
        <ele>1529.8</ele>
        <time>2026-08-25T10:48:48Z</time>
      </trkpt>
      <trkpt lat="45.08029" lon="6.04177">
        <ele>1529.8</ele>
        <time>2026-08-25T10:48:49Z</time>
      </trkpt>
      <trkpt lat="45.08028" lon="6.04172">
        <ele>1529.9</ele>
        <time>2026-08-25T10:48:50Z</time>
      </trkpt>
      <trkpt lat="45.08028" lon="6.04167">
        <ele>1529.9</ele>
        <time>2026-08-25T10:48:51Z</time>
      </trkpt>
      <trkpt lat="45.08028" lon="6.04161">
        <ele>1529.9</ele>
        <time>2026-08-25T10:48:52Z</time>
      </trkpt>
      <trkpt lat="45.0803" lon="6.04156">
        <ele>1529.7</ele>
        <time>2026-08-25T10:48:53Z</time>
      </trkpt>
      <trkpt lat="45.08033" lon="6.04151">
        <ele>1529.4</ele>
        <time>2026-08-25T10:48:54Z</time>
      </trkpt>
      <trkpt lat="45.08036" lon="6.04147">
        <ele>1529.2</ele>
        <time>2026-08-25T10:48:55Z</time>
      </trkpt>
      <trkpt lat="45.08041" lon="6.04143">
        <ele>1528.9</ele>
        <time>2026-08-25T10:48:56Z</time>
      </trkpt>
      <trkpt lat="45.08045" lon="6.0414">
        <ele>1528.7</ele>
        <time>2026-08-25T10:48:57Z</time>
      </trkpt>
      <trkpt lat="45.0805" lon="6.04137">
        <ele>1528.4</ele>
        <time>2026-08-25T10:48:58Z</time>
      </trkpt>
      <trkpt lat="45.08056" lon="6.04135">
        <ele>1528.2</ele>
        <time>2026-08-25T10:48:59Z</time>
      </trkpt>
      <trkpt lat="45.08062" lon="6.04134">
        <ele>1527.9</ele>
        <time>2026-08-25T10:49:00Z</time>
      </trkpt>
      <trkpt lat="45.08068" lon="6.04132">
        <ele>1527.6</ele>
        <time>2026-08-25T10:49:01Z</time>
      </trkpt>
      <trkpt lat="45.08074" lon="6.04131">
        <ele>1527.4</ele>
        <time>2026-08-25T10:49:02Z</time>
      </trkpt>
      <trkpt lat="45.0808" lon="6.04129">
        <ele>1527.1</ele>
        <time>2026-08-25T10:49:03Z</time>
      </trkpt>
      <trkpt lat="45.08086" lon="6.04127">
        <ele>1526.8</ele>
        <time>2026-08-25T10:49:04Z</time>
      </trkpt>
      <trkpt lat="45.08092" lon="6.04124">
        <ele>1526.5</ele>
        <time>2026-08-25T10:49:05Z</time>
      </trkpt>
      <trkpt lat="45.08098" lon="6.04121">
        <ele>1526.1</ele>
        <time>2026-08-25T10:49:06Z</time>
      </trkpt>
      <trkpt lat="45.08105" lon="6.04117">
        <ele>1525.8</ele>
        <time>2026-08-25T10:49:07Z</time>
      </trkpt>
      <trkpt lat="45.08111" lon="6.04113">
        <ele>1525.4</ele>
        <time>2026-08-25T10:49:08Z</time>
      </trkpt>
      <trkpt lat="45.08118" lon="6.04109">
        <ele>1525</ele>
        <time>2026-08-25T10:49:09Z</time>
      </trkpt>
      <trkpt lat="45.08125" lon="6.04105">
        <ele>1524.6</ele>
        <time>2026-08-25T10:49:10Z</time>
      </trkpt>
      <trkpt lat="45.08132" lon="6.04101">
        <ele>1524.1</ele>
        <time>2026-08-25T10:49:11Z</time>
      </trkpt>
      <trkpt lat="45.0814" lon="6.04098">
        <ele>1523.6</ele>
        <time>2026-08-25T10:49:12Z</time>
      </trkpt>
      <trkpt lat="45.08148" lon="6.04096">
        <ele>1523.2</ele>
        <time>2026-08-25T10:49:13Z</time>
      </trkpt>
      <trkpt lat="45.08156" lon="6.04094">
        <ele>1522.7</ele>
        <time>2026-08-25T10:49:14Z</time>
      </trkpt>
      <trkpt lat="45.08164" lon="6.04093">
        <ele>1522.2</ele>
        <time>2026-08-25T10:49:15Z</time>
      </trkpt>
      <trkpt lat="45.08173" lon="6.04092">
        <ele>1521.7</ele>
        <time>2026-08-25T10:49:16Z</time>
      </trkpt>
      <trkpt lat="45.08183" lon="6.0409">
        <ele>1521.3</ele>
        <time>2026-08-25T10:49:17Z</time>
      </trkpt>
      <trkpt lat="45.08192" lon="6.04087">
        <ele>1521</ele>
        <time>2026-08-25T10:49:18Z</time>
      </trkpt>
      <trkpt lat="45.082" lon="6.04083">
        <ele>1520.7</ele>
        <time>2026-08-25T10:49:19Z</time>
      </trkpt>
      <trkpt lat="45.08209" lon="6.0408">
        <ele>1520.5</ele>
        <time>2026-08-25T10:49:20Z</time>
      </trkpt>
      <trkpt lat="45.08218" lon="6.04078">
        <ele>1520.3</ele>
        <time>2026-08-25T10:49:21Z</time>
      </trkpt>
      <trkpt lat="45.08227" lon="6.04075">
        <ele>1520</ele>
        <time>2026-08-25T10:49:22Z</time>
      </trkpt>
      <trkpt lat="45.08235" lon="6.04072">
        <ele>1519.8</ele>
        <time>2026-08-25T10:49:23Z</time>
      </trkpt>
      <trkpt lat="45.08244" lon="6.04067">
        <ele>1519.5</ele>
        <time>2026-08-25T10:49:24Z</time>
      </trkpt>
      <trkpt lat="45.08251" lon="6.0406">
        <ele>1519.2</ele>
        <time>2026-08-25T10:49:25Z</time>
      </trkpt>
      <trkpt lat="45.08259" lon="6.04053">
        <ele>1518.9</ele>
        <time>2026-08-25T10:49:26Z</time>
      </trkpt>
      <trkpt lat="45.08266" lon="6.04045">
        <ele>1518.6</ele>
        <time>2026-08-25T10:49:27Z</time>
      </trkpt>
      <trkpt lat="45.08274" lon="6.04038">
        <ele>1518.4</ele>
        <time>2026-08-25T10:49:28Z</time>
      </trkpt>
      <trkpt lat="45.08283" lon="6.04034">
        <ele>1518.3</ele>
        <time>2026-08-25T10:49:29Z</time>
      </trkpt>
      <trkpt lat="45.08292" lon="6.04032">
        <ele>1518.2</ele>
        <time>2026-08-25T10:49:30Z</time>
      </trkpt>
      <trkpt lat="45.08301" lon="6.0403">
        <ele>1518.1</ele>
        <time>2026-08-25T10:49:31Z</time>
      </trkpt>
      <trkpt lat="45.0831" lon="6.04028">
        <ele>1518</ele>
        <time>2026-08-25T10:49:32Z</time>
      </trkpt>
      <trkpt lat="45.08318" lon="6.04023">
        <ele>1517.9</ele>
        <time>2026-08-25T10:49:33Z</time>
      </trkpt>
      <trkpt lat="45.08325" lon="6.04017">
        <ele>1517.9</ele>
        <time>2026-08-25T10:49:34Z</time>
      </trkpt>
      <trkpt lat="45.08331" lon="6.04009">
        <ele>1517.8</ele>
        <time>2026-08-25T10:49:35Z</time>
      </trkpt>
      <trkpt lat="45.08336" lon="6.03999">
        <ele>1517.7</ele>
        <time>2026-08-25T10:49:36Z</time>
      </trkpt>
      <trkpt lat="45.0834" lon="6.03989">
        <ele>1517.7</ele>
        <time>2026-08-25T10:49:37Z</time>
      </trkpt>
      <trkpt lat="45.08345" lon="6.03979">
        <ele>1517.6</ele>
        <time>2026-08-25T10:49:38Z</time>
      </trkpt>
      <trkpt lat="45.08351" lon="6.03974">
        <ele>1517.5</ele>
        <time>2026-08-25T10:49:39Z</time>
      </trkpt>
      <trkpt lat="45.08358" lon="6.03971">
        <ele>1517.4</ele>
        <time>2026-08-25T10:49:40Z</time>
      </trkpt>
      <trkpt lat="45.08366" lon="6.03971">
        <ele>1517.2</ele>
        <time>2026-08-25T10:49:41Z</time>
      </trkpt>
      <trkpt lat="45.08374" lon="6.03971">
        <ele>1517</ele>
        <time>2026-08-25T10:49:42Z</time>
      </trkpt>
      <trkpt lat="45.08382" lon="6.03968">
        <ele>1516.8</ele>
        <time>2026-08-25T10:49:43Z</time>
      </trkpt>
      <trkpt lat="45.08388" lon="6.03961">
        <ele>1516.6</ele>
        <time>2026-08-25T10:49:44Z</time>
      </trkpt>
      <trkpt lat="45.08391" lon="6.03952">
        <ele>1516.3</ele>
        <time>2026-08-25T10:49:45Z</time>
      </trkpt>
      <trkpt lat="45.08391" lon="6.03942">
        <ele>1516.1</ele>
        <time>2026-08-25T10:49:46Z</time>
      </trkpt>
      <trkpt lat="45.08389" lon="6.03932">
        <ele>1515.8</ele>
        <time>2026-08-25T10:49:47Z</time>
      </trkpt>
      <trkpt lat="45.08387" lon="6.03922">
        <ele>1515.6</ele>
        <time>2026-08-25T10:49:48Z</time>
      </trkpt>
      <trkpt lat="45.08387" lon="6.03911">
        <ele>1515.4</ele>
        <time>2026-08-25T10:49:49Z</time>
      </trkpt>
      <trkpt lat="45.0839" lon="6.03902">
        <ele>1515.2</ele>
        <time>2026-08-25T10:49:50Z</time>
      </trkpt>
      <trkpt lat="45.08394" lon="6.03894">
        <ele>1515</ele>
        <time>2026-08-25T10:49:51Z</time>
      </trkpt>
      <trkpt lat="45.08399" lon="6.03886">
        <ele>1514.8</ele>
        <time>2026-08-25T10:49:52Z</time>
      </trkpt>
      <trkpt lat="45.08404" lon="6.03879">
        <ele>1514.7</ele>
        <time>2026-08-25T10:49:53Z</time>
      </trkpt>
      <trkpt lat="45.08409" lon="6.03872">
        <ele>1514.6</ele>
        <time>2026-08-25T10:49:54Z</time>
      </trkpt>
      <trkpt lat="45.08413" lon="6.03864">
        <ele>1514.4</ele>
        <time>2026-08-25T10:49:55Z</time>
      </trkpt>
      <trkpt lat="45.08417" lon="6.03856">
        <ele>1514.3</ele>
        <time>2026-08-25T10:49:56Z</time>
      </trkpt>
      <trkpt lat="45.0842" lon="6.03846">
        <ele>1514.2</ele>
        <time>2026-08-25T10:49:57Z</time>
      </trkpt>
      <trkpt lat="45.08422" lon="6.03837">
        <ele>1514.1</ele>
        <time>2026-08-25T10:49:58Z</time>
      </trkpt>
      <trkpt lat="45.08423" lon="6.03827">
        <ele>1513.9</ele>
        <time>2026-08-25T10:49:59Z</time>
      </trkpt>
      <trkpt lat="45.08425" lon="6.03818">
        <ele>1513.8</ele>
        <time>2026-08-25T10:50:00Z</time>
      </trkpt>
      <trkpt lat="45.08427" lon="6.03808">
        <ele>1513.8</ele>
        <time>2026-08-25T10:50:01Z</time>
      </trkpt>
      <trkpt lat="45.08428" lon="6.03798">
        <ele>1513.6</ele>
        <time>2026-08-25T10:50:02Z</time>
      </trkpt>
      <trkpt lat="45.08429" lon="6.03789">
        <ele>1513.5</ele>
        <time>2026-08-25T10:50:03Z</time>
      </trkpt>
      <trkpt lat="45.08429" lon="6.03779">
        <ele>1513.3</ele>
        <time>2026-08-25T10:50:04Z</time>
      </trkpt>
      <trkpt lat="45.08428" lon="6.03771">
        <ele>1513.1</ele>
        <time>2026-08-25T10:50:05Z</time>
      </trkpt>
      <trkpt lat="45.08429" lon="6.03762">
        <ele>1512.9</ele>
        <time>2026-08-25T10:50:06Z</time>
      </trkpt>
      <trkpt lat="45.08431" lon="6.03755">
        <ele>1512.7</ele>
        <time>2026-08-25T10:50:07Z</time>
      </trkpt>
      <trkpt lat="45.08434" lon="6.03748">
        <ele>1512.5</ele>
        <time>2026-08-25T10:50:08Z</time>
      </trkpt>
      <trkpt lat="45.08437" lon="6.03741">
        <ele>1512.2</ele>
        <time>2026-08-25T10:50:09Z</time>
      </trkpt>
      <trkpt lat="45.08441" lon="6.03735">
        <ele>1511.9</ele>
        <time>2026-08-25T10:50:10Z</time>
      </trkpt>
      <trkpt lat="45.08445" lon="6.03728">
        <ele>1511.6</ele>
        <time>2026-08-25T10:50:11Z</time>
      </trkpt>
      <trkpt lat="45.0845" lon="6.0372">
        <ele>1511.1</ele>
        <time>2026-08-25T10:50:12Z</time>
      </trkpt>
      <trkpt lat="45.08454" lon="6.03713">
        <ele>1510.7</ele>
        <time>2026-08-25T10:50:13Z</time>
      </trkpt>
      <trkpt lat="45.08455" lon="6.03704">
        <ele>1510.2</ele>
        <time>2026-08-25T10:50:14Z</time>
      </trkpt>
      <trkpt lat="45.08457" lon="6.03695">
        <ele>1509.6</ele>
        <time>2026-08-25T10:50:15Z</time>
      </trkpt>
      <trkpt lat="45.0846" lon="6.03685">
        <ele>1508.9</ele>
        <time>2026-08-25T10:50:16Z</time>
      </trkpt>
      <trkpt lat="45.08465" lon="6.03677">
        <ele>1508.2</ele>
        <time>2026-08-25T10:50:17Z</time>
      </trkpt>
      <trkpt lat="45.08471" lon="6.03668">
        <ele>1507.5</ele>
        <time>2026-08-25T10:50:18Z</time>
      </trkpt>
      <trkpt lat="45.08476" lon="6.03659">
        <ele>1506.7</ele>
        <time>2026-08-25T10:50:19Z</time>
      </trkpt>
      <trkpt lat="45.08482" lon="6.0365">
        <ele>1506</ele>
        <time>2026-08-25T10:50:20Z</time>
      </trkpt>
      <trkpt lat="45.08487" lon="6.03642">
        <ele>1505.2</ele>
        <time>2026-08-25T10:50:21Z</time>
      </trkpt>
      <trkpt lat="45.08493" lon="6.03636">
        <ele>1504.4</ele>
        <time>2026-08-25T10:50:22Z</time>
      </trkpt>
      <trkpt lat="45.08501" lon="6.03633">
        <ele>1503.5</ele>
        <time>2026-08-25T10:50:23Z</time>
      </trkpt>
      <trkpt lat="45.0851" lon="6.03631">
        <ele>1502.5</ele>
        <time>2026-08-25T10:50:24Z</time>
      </trkpt>
      <trkpt lat="45.08519" lon="6.0363">
        <ele>1501.4</ele>
        <time>2026-08-25T10:50:25Z</time>
      </trkpt>
      <trkpt lat="45.08529" lon="6.03629">
        <ele>1500.3</ele>
        <time>2026-08-25T10:50:26Z</time>
      </trkpt>
      <trkpt lat="45.08539" lon="6.03627">
        <ele>1499.3</ele>
        <time>2026-08-25T10:50:27Z</time>
      </trkpt>
      <trkpt lat="45.08548" lon="6.03622">
        <ele>1498.4</ele>
        <time>2026-08-25T10:50:28Z</time>
      </trkpt>
      <trkpt lat="45.08556" lon="6.03615">
        <ele>1497.6</ele>
        <time>2026-08-25T10:50:29Z</time>
      </trkpt>
      <trkpt lat="45.08563" lon="6.03605">
        <ele>1496.7</ele>
        <time>2026-08-25T10:50:30Z</time>
      </trkpt>
      <trkpt lat="45.08569" lon="6.03594">
        <ele>1495.9</ele>
        <time>2026-08-25T10:50:31Z</time>
      </trkpt>
      <trkpt lat="45.08574" lon="6.03585">
        <ele>1495.2</ele>
        <time>2026-08-25T10:50:32Z</time>
      </trkpt>
      <trkpt lat="45.0858" lon="6.03579">
        <ele>1494.5</ele>
        <time>2026-08-25T10:50:33Z</time>
      </trkpt>
      <trkpt lat="45.08587" lon="6.03579">
        <ele>1493.8</ele>
        <time>2026-08-25T10:50:34Z</time>
      </trkpt>
      <trkpt lat="45.08594" lon="6.03583">
        <ele>1492.9</ele>
        <time>2026-08-25T10:50:35Z</time>
      </trkpt>
      <trkpt lat="45.08602" lon="6.03587">
        <ele>1491.9</ele>
        <time>2026-08-25T10:50:36Z</time>
      </trkpt>
      <trkpt lat="45.0861" lon="6.0359">
        <ele>1490.8</ele>
        <time>2026-08-25T10:50:37Z</time>
      </trkpt>
      <trkpt lat="45.08619" lon="6.03594">
        <ele>1489.7</ele>
        <time>2026-08-25T10:50:38Z</time>
      </trkpt>
      <trkpt lat="45.08628" lon="6.03599">
        <ele>1488.6</ele>
        <time>2026-08-25T10:50:39Z</time>
      </trkpt>
      <trkpt lat="45.08638" lon="6.03604">
        <ele>1487.4</ele>
        <time>2026-08-25T10:50:40Z</time>
      </trkpt>
      <trkpt lat="45.08648" lon="6.0361">
        <ele>1486.2</ele>
        <time>2026-08-25T10:50:41Z</time>
      </trkpt>
      <trkpt lat="45.08658" lon="6.03614">
        <ele>1485</ele>
        <time>2026-08-25T10:50:42Z</time>
      </trkpt>
      <trkpt lat="45.08669" lon="6.03618">
        <ele>1483.9</ele>
        <time>2026-08-25T10:50:43Z</time>
      </trkpt>
      <trkpt lat="45.08682" lon="6.03618">
        <ele>1482.8</ele>
        <time>2026-08-25T10:50:44Z</time>
      </trkpt>
      <trkpt lat="45.08694" lon="6.03617">
        <ele>1481.9</ele>
        <time>2026-08-25T10:50:45Z</time>
      </trkpt>
      <trkpt lat="45.08706" lon="6.03617">
        <ele>1480.9</ele>
        <time>2026-08-25T10:50:46Z</time>
      </trkpt>
      <trkpt lat="45.08718" lon="6.03616">
        <ele>1479.8</ele>
        <time>2026-08-25T10:50:47Z</time>
      </trkpt>
      <trkpt lat="45.0873" lon="6.03615">
        <ele>1478.5</ele>
        <time>2026-08-25T10:50:48Z</time>
      </trkpt>
      <trkpt lat="45.08744" lon="6.03614">
        <ele>1477.3</ele>
        <time>2026-08-25T10:50:49Z</time>
      </trkpt>
      <trkpt lat="45.08756" lon="6.03616">
        <ele>1476.2</ele>
        <time>2026-08-25T10:50:50Z</time>
      </trkpt>
      <trkpt lat="45.08769" lon="6.03617">
        <ele>1475.1</ele>
        <time>2026-08-25T10:50:51Z</time>
      </trkpt>
      <trkpt lat="45.0878" lon="6.03617">
        <ele>1474.2</ele>
        <time>2026-08-25T10:50:52Z</time>
      </trkpt>
      <trkpt lat="45.0879" lon="6.03612">
        <ele>1473.4</ele>
        <time>2026-08-25T10:50:53Z</time>
      </trkpt>
      <trkpt lat="45.08799" lon="6.03602">
        <ele>1472.4</ele>
        <time>2026-08-25T10:50:54Z</time>
      </trkpt>
      <trkpt lat="45.08806" lon="6.0359">
        <ele>1471.5</ele>
        <time>2026-08-25T10:50:55Z</time>
      </trkpt>
      <trkpt lat="45.08814" lon="6.03577">
        <ele>1470.6</ele>
        <time>2026-08-25T10:50:56Z</time>
      </trkpt>
      <trkpt lat="45.08822" lon="6.03565">
        <ele>1469.6</ele>
        <time>2026-08-25T10:50:57Z</time>
      </trkpt>
      <trkpt lat="45.08832" lon="6.03557">
        <ele>1468.6</ele>
        <time>2026-08-25T10:50:58Z</time>
      </trkpt>
      <trkpt lat="45.08843" lon="6.0355">
        <ele>1467.5</ele>
        <time>2026-08-25T10:50:59Z</time>
      </trkpt>
      <trkpt lat="45.08855" lon="6.03544">
        <ele>1466.4</ele>
        <time>2026-08-25T10:51:00Z</time>
      </trkpt>
      <trkpt lat="45.08865" lon="6.03538">
        <ele>1465.5</ele>
        <time>2026-08-25T10:51:01Z</time>
      </trkpt>
      <trkpt lat="45.08873" lon="6.03528">
        <ele>1464.6</ele>
        <time>2026-08-25T10:51:02Z</time>
      </trkpt>
      <trkpt lat="45.08879" lon="6.03516">
        <ele>1463.9</ele>
        <time>2026-08-25T10:51:03Z</time>
      </trkpt>
      <trkpt lat="45.08882" lon="6.03501">
        <ele>1463.2</ele>
        <time>2026-08-25T10:51:04Z</time>
      </trkpt>
      <trkpt lat="45.08884" lon="6.03486">
        <ele>1462.5</ele>
        <time>2026-08-25T10:51:05Z</time>
      </trkpt>
      <trkpt lat="45.08887" lon="6.03471">
        <ele>1461.7</ele>
        <time>2026-08-25T10:51:06Z</time>
      </trkpt>
      <trkpt lat="45.0889" lon="6.03456">
        <ele>1461</ele>
        <time>2026-08-25T10:51:07Z</time>
      </trkpt>
      <trkpt lat="45.08895" lon="6.03443">
        <ele>1460.3</ele>
        <time>2026-08-25T10:51:08Z</time>
      </trkpt>
      <trkpt lat="45.08902" lon="6.03431">
        <ele>1459.5</ele>
        <time>2026-08-25T10:51:09Z</time>
      </trkpt>
      <trkpt lat="45.0891" lon="6.03421">
        <ele>1458.6</ele>
        <time>2026-08-25T10:51:10Z</time>
      </trkpt>
      <trkpt lat="45.08919" lon="6.03411">
        <ele>1457.9</ele>
        <time>2026-08-25T10:51:11Z</time>
      </trkpt>
      <trkpt lat="45.08928" lon="6.03401">
        <ele>1457.2</ele>
        <time>2026-08-25T10:51:12Z</time>
      </trkpt>
      <trkpt lat="45.08937" lon="6.03392">
        <ele>1456.5</ele>
        <time>2026-08-25T10:51:13Z</time>
      </trkpt>
      <trkpt lat="45.08947" lon="6.03384">
        <ele>1455.8</ele>
        <time>2026-08-25T10:51:14Z</time>
      </trkpt>
      <trkpt lat="45.08957" lon="6.03377">
        <ele>1455</ele>
        <time>2026-08-25T10:51:15Z</time>
      </trkpt>
      <trkpt lat="45.08968" lon="6.0337">
        <ele>1454.2</ele>
        <time>2026-08-25T10:51:16Z</time>
      </trkpt>
      <trkpt lat="45.0898" lon="6.03365">
        <ele>1453.4</ele>
        <time>2026-08-25T10:51:17Z</time>
      </trkpt>
      <trkpt lat="45.08991" lon="6.03361">
        <ele>1452.6</ele>
        <time>2026-08-25T10:51:18Z</time>
      </trkpt>
      <trkpt lat="45.09002" lon="6.03358">
        <ele>1451.8</ele>
        <time>2026-08-25T10:51:19Z</time>
      </trkpt>
      <trkpt lat="45.09014" lon="6.03357">
        <ele>1450.9</ele>
        <time>2026-08-25T10:51:20Z</time>
      </trkpt>
      <trkpt lat="45.09025" lon="6.03355">
        <ele>1450.1</ele>
        <time>2026-08-25T10:51:21Z</time>
      </trkpt>
      <trkpt lat="45.09037" lon="6.03352">
        <ele>1449.5</ele>
        <time>2026-08-25T10:51:22Z</time>
      </trkpt>
      <trkpt lat="45.0905" lon="6.0335">
        <ele>1449</ele>
        <time>2026-08-25T10:51:23Z</time>
      </trkpt>
      <trkpt lat="45.09062" lon="6.03348">
        <ele>1448.5</ele>
        <time>2026-08-25T10:51:24Z</time>
      </trkpt>
      <trkpt lat="45.09074" lon="6.03349">
        <ele>1448.1</ele>
        <time>2026-08-25T10:51:25Z</time>
      </trkpt>
      <trkpt lat="45.09085" lon="6.0335">
        <ele>1447.8</ele>
        <time>2026-08-25T10:51:26Z</time>
      </trkpt>
      <trkpt lat="45.09096" lon="6.03351">
        <ele>1447.5</ele>
        <time>2026-08-25T10:51:27Z</time>
      </trkpt>
      <trkpt lat="45.09105" lon="6.03353">
        <ele>1447.3</ele>
        <time>2026-08-25T10:51:28Z</time>
      </trkpt>
      <trkpt lat="45.09114" lon="6.03356">
        <ele>1447.2</ele>
        <time>2026-08-25T10:51:29Z</time>
      </trkpt>
      <trkpt lat="45.09122" lon="6.03362">
        <ele>1447.1</ele>
        <time>2026-08-25T10:51:30Z</time>
      </trkpt>
      <trkpt lat="45.09128" lon="6.03369">
        <ele>1446.8</ele>
        <time>2026-08-25T10:51:31Z</time>
      </trkpt>
      <trkpt lat="45.09133" lon="6.03375">
        <ele>1446.5</ele>
        <time>2026-08-25T10:51:32Z</time>
      </trkpt>
      <trkpt lat="45.0914" lon="6.03377">
        <ele>1446.3</ele>
        <time>2026-08-25T10:51:33Z</time>
      </trkpt>
      <trkpt lat="45.09146" lon="6.03373">
        <ele>1446.1</ele>
        <time>2026-08-25T10:51:34Z</time>
      </trkpt>
      <trkpt lat="45.09149" lon="6.03366">
        <ele>1446</ele>
        <time>2026-08-25T10:51:35Z</time>
      </trkpt>
      <trkpt lat="45.09152" lon="6.03359">
        <ele>1445.8</ele>
        <time>2026-08-25T10:51:36Z</time>
      </trkpt>
      <trkpt lat="45.09154" lon="6.03351">
        <ele>1445.7</ele>
        <time>2026-08-25T10:51:37Z</time>
      </trkpt>
      <trkpt lat="45.09156" lon="6.03343">
        <ele>1445.6</ele>
        <time>2026-08-25T10:51:38Z</time>
      </trkpt>
      <trkpt lat="45.09157" lon="6.03335">
        <ele>1445.5</ele>
        <time>2026-08-25T10:51:39Z</time>
      </trkpt>
      <trkpt lat="45.09158" lon="6.03326">
        <ele>1445.5</ele>
        <time>2026-08-25T10:51:40Z</time>
      </trkpt>
      <trkpt lat="45.09159" lon="6.03319">
        <ele>1445.5</ele>
        <time>2026-08-25T10:51:41Z</time>
      </trkpt>
      <trkpt lat="45.09159" lon="6.03312">
        <ele>1445.5</ele>
        <time>2026-08-25T10:51:42Z</time>
      </trkpt>
      <trkpt lat="45.09159" lon="6.03304">
        <ele>1445.6</ele>
        <time>2026-08-25T10:51:43Z</time>
      </trkpt>
      <trkpt lat="45.09159" lon="6.03297">
        <ele>1445.6</ele>
        <time>2026-08-25T10:51:44Z</time>
      </trkpt>
      <trkpt lat="45.09159" lon="6.03291">
        <ele>1445.7</ele>
        <time>2026-08-25T10:51:45Z</time>
      </trkpt>
      <trkpt lat="45.09159" lon="6.03282">
        <ele>1445.7</ele>
        <time>2026-08-25T10:51:46Z</time>
      </trkpt>
      <trkpt lat="45.0916" lon="6.03273">
        <ele>1445.6</ele>
        <time>2026-08-25T10:51:47Z</time>
      </trkpt>
      <trkpt lat="45.09162" lon="6.03263">
        <ele>1445.6</ele>
        <time>2026-08-25T10:51:48Z</time>
      </trkpt>
      <trkpt lat="45.09163" lon="6.03255">
        <ele>1445.5</ele>
        <time>2026-08-25T10:51:49Z</time>
      </trkpt>
      <trkpt lat="45.09165" lon="6.03247">
        <ele>1445.4</ele>
        <time>2026-08-25T10:51:50Z</time>
      </trkpt>
      <trkpt lat="45.09166" lon="6.0324">
        <ele>1445.4</ele>
        <time>2026-08-25T10:51:51Z</time>
      </trkpt>
      <trkpt lat="45.09167" lon="6.03233">
        <ele>1445.5</ele>
        <time>2026-08-25T10:51:52Z</time>
      </trkpt>
      <trkpt lat="45.09169" lon="6.03225">
        <ele>1445.5</ele>
        <time>2026-08-25T10:51:53Z</time>
      </trkpt>
      <trkpt lat="45.09171" lon="6.03218">
        <ele>1445.6</ele>
        <time>2026-08-25T10:51:54Z</time>
      </trkpt>
      <trkpt lat="45.09173" lon="6.03213">
        <ele>1445.6</ele>
        <time>2026-08-25T10:51:55Z</time>
      </trkpt>
      <trkpt lat="45.09174" lon="6.03207">
        <ele>1445.7</ele>
        <time>2026-08-25T10:51:56Z</time>
      </trkpt>
      <trkpt lat="45.09175" lon="6.03201">
        <ele>1445.8</ele>
        <time>2026-08-25T10:51:57Z</time>
      </trkpt>
      <trkpt lat="45.09177" lon="6.03195">
        <ele>1445.8</ele>
        <time>2026-08-25T10:51:58Z</time>
      </trkpt>
      <trkpt lat="45.09178" lon="6.0319">
        <ele>1445.9</ele>
        <time>2026-08-25T10:51:59Z</time>
      </trkpt>
      <trkpt lat="45.09178" lon="6.03185">
        <ele>1445.9</ele>
        <time>2026-08-25T10:52:00Z</time>
      </trkpt>
      <trkpt lat="45.09178" lon="6.03181">
        <ele>1445.9</ele>
        <time>2026-08-25T10:52:01Z</time>
      </trkpt>
      <trkpt lat="45.09178" lon="6.03176">
        <ele>1446</ele>
        <time>2026-08-25T10:52:02Z</time>
      </trkpt>
      <trkpt lat="45.09177" lon="6.03172">
        <ele>1446</ele>
        <time>2026-08-25T10:52:03Z</time>
      </trkpt>
      <trkpt lat="45.09176" lon="6.03167">
        <ele>1446.1</ele>
        <time>2026-08-25T10:52:04Z</time>
      </trkpt>
      <trkpt lat="45.09175" lon="6.03164">
        <ele>1446.1</ele>
        <time>2026-08-25T10:52:05Z</time>
      </trkpt>
      <trkpt lat="45.09174" lon="6.03161">
        <ele>1446.2</ele>
        <time>2026-08-25T10:52:06Z</time>
      </trkpt>
      <trkpt lat="45.09172" lon="6.03159">
        <ele>1446.2</ele>
        <time>2026-08-25T10:52:07Z</time>
      </trkpt>
      <trkpt lat="45.09171" lon="6.03156">
        <ele>1446.2</ele>
        <time>2026-08-25T10:52:08Z</time>
      </trkpt>
      <trkpt lat="45.0917" lon="6.03155">
        <ele>1446.2</ele>
        <time>2026-08-25T10:52:09Z</time>
      </trkpt>
      <trkpt lat="45.09169" lon="6.03153">
        <ele>1446.3</ele>
        <time>2026-08-25T10:52:10Z</time>
      </trkpt>
      <trkpt lat="45.09168" lon="6.0315">
        <ele>1446.3</ele>
        <time>2026-08-25T10:52:11Z</time>
      </trkpt>
      <trkpt lat="45.09167" lon="6.03148">
        <ele>1446.3</ele>
        <time>2026-08-25T10:52:12Z</time>
      </trkpt>
      <trkpt lat="45.09166" lon="6.03145">
        <ele>1446.3</ele>
        <time>2026-08-25T10:52:13Z</time>
      </trkpt>
      <trkpt lat="45.09165" lon="6.03143">
        <ele>1446.1</ele>
        <time>2026-08-25T10:52:14Z</time>
      </trkpt>
      <trkpt lat="45.09163" lon="6.0314">
        <ele>1446</ele>
        <time>2026-08-25T10:52:15Z</time>
      </trkpt>
      <trkpt lat="45.09162" lon="6.03139">
        <ele>1445.9</ele>
        <time>2026-08-25T10:52:16Z</time>
      </trkpt>
      <trkpt lat="45.09161" lon="6.03136">
        <ele>1445.8</ele>
        <time>2026-08-25T10:52:17Z</time>
      </trkpt>
      <trkpt lat="45.09163" lon="6.03133">
        <ele>1445.5</ele>
        <time>2026-08-25T10:52:18Z</time>
      </trkpt>
      <trkpt lat="45.09163" lon="6.03133">
        <ele>1445.5</ele>
        <time>2026-08-25T10:52:19Z</time>
      </trkpt>
      <trkpt lat="45.09163" lon="6.03132">
        <ele>1445.5</ele>
        <time>2026-08-25T10:52:20Z</time>
      </trkpt>
      <trkpt lat="45.09163" lon="6.03132">
        <ele>1445.5</ele>
        <time>2026-08-25T10:52:21Z</time>
      </trkpt>
      <trkpt lat="45.09166" lon="6.03121">
        <ele>1444.7</ele>
        <time>2026-08-25T10:53:16Z</time>
      </trkpt>
      <trkpt lat="45.09166" lon="6.03121">
        <ele>1444.7</ele>
        <time>2026-08-25T10:53:17Z</time>
      </trkpt>
      <trkpt lat="45.09168" lon="6.03114">
        <ele>1444.2</ele>
        <time>2026-08-25T10:53:18Z</time>
      </trkpt>
      <trkpt lat="45.09171" lon="6.03106">
        <ele>1443.9</ele>
        <time>2026-08-25T10:53:19Z</time>
      </trkpt>
      <trkpt lat="45.09174" lon="6.03099">
        <ele>1443.7</ele>
        <time>2026-08-25T10:53:20Z</time>
      </trkpt>
      <trkpt lat="45.09178" lon="6.03095">
        <ele>1443.7</ele>
        <time>2026-08-25T10:53:21Z</time>
      </trkpt>
      <trkpt lat="45.0918" lon="6.03093">
        <ele>1443.8</ele>
        <time>2026-08-25T10:53:22Z</time>
      </trkpt>
      <trkpt lat="45.09183" lon="6.03092">
        <ele>1443.9</ele>
        <time>2026-08-25T10:53:23Z</time>
      </trkpt>
      <trkpt lat="45.09186" lon="6.03089">
        <ele>1444.1</ele>
        <time>2026-08-25T10:53:24Z</time>
      </trkpt>
      <trkpt lat="45.09189" lon="6.03086">
        <ele>1444.3</ele>
        <time>2026-08-25T10:53:25Z</time>
      </trkpt>
      <trkpt lat="45.09191" lon="6.03083">
        <ele>1444.5</ele>
        <time>2026-08-25T10:53:26Z</time>
      </trkpt>
      <trkpt lat="45.09191" lon="6.03079">
        <ele>1444.7</ele>
        <time>2026-08-25T10:53:27Z</time>
      </trkpt>
      <trkpt lat="45.09193" lon="6.03077">
        <ele>1444.9</ele>
        <time>2026-08-25T10:53:28Z</time>
      </trkpt>
      <trkpt lat="45.09194" lon="6.03074">
        <ele>1445</ele>
        <time>2026-08-25T10:53:29Z</time>
      </trkpt>
      <trkpt lat="45.09196" lon="6.03072">
        <ele>1445.3</ele>
        <time>2026-08-25T10:53:30Z</time>
      </trkpt>
      <trkpt lat="45.09197" lon="6.03069">
        <ele>1445.5</ele>
        <time>2026-08-25T10:53:31Z</time>
      </trkpt>
      <trkpt lat="45.09198" lon="6.03066">
        <ele>1445.7</ele>
        <time>2026-08-25T10:53:32Z</time>
      </trkpt>
      <trkpt lat="45.09199" lon="6.03062">
        <ele>1445.9</ele>
        <time>2026-08-25T10:53:33Z</time>
      </trkpt>
      <trkpt lat="45.092" lon="6.03059">
        <ele>1446</ele>
        <time>2026-08-25T10:53:34Z</time>
      </trkpt>
      <trkpt lat="45.09199" lon="6.03055">
        <ele>1446.1</ele>
        <time>2026-08-25T10:53:35Z</time>
      </trkpt>
      <trkpt lat="45.09199" lon="6.0305">
        <ele>1446.3</ele>
        <time>2026-08-25T10:53:36Z</time>
      </trkpt>
      <trkpt lat="45.09201" lon="6.03048">
        <ele>1446.4</ele>
        <time>2026-08-25T10:53:37Z</time>
      </trkpt>
      <trkpt lat="45.09204" lon="6.03046">
        <ele>1446.7</ele>
        <time>2026-08-25T10:53:38Z</time>
      </trkpt>
      <trkpt lat="45.09206" lon="6.03044">
        <ele>1446.9</ele>
        <time>2026-08-25T10:53:39Z</time>
      </trkpt>
      <trkpt lat="45.09208" lon="6.03042">
        <ele>1447.2</ele>
        <time>2026-08-25T10:53:40Z</time>
      </trkpt>
      <trkpt lat="45.0921" lon="6.0304">
        <ele>1447.4</ele>
        <time>2026-08-25T10:53:41Z</time>
      </trkpt>
      <trkpt lat="45.09212" lon="6.03039">
        <ele>1447.6</ele>
        <time>2026-08-25T10:53:42Z</time>
      </trkpt>
      <trkpt lat="45.09214" lon="6.03038">
        <ele>1447.9</ele>
        <time>2026-08-25T10:53:43Z</time>
      </trkpt>
      <trkpt lat="45.09217" lon="6.03037">
        <ele>1448</ele>
        <time>2026-08-25T10:53:44Z</time>
      </trkpt>
      <trkpt lat="45.09219" lon="6.03036">
        <ele>1448.1</ele>
        <time>2026-08-25T10:53:45Z</time>
      </trkpt>
      <trkpt lat="45.09222" lon="6.03036">
        <ele>1448.3</ele>
        <time>2026-08-25T10:53:46Z</time>
      </trkpt>
      <trkpt lat="45.09224" lon="6.03036">
        <ele>1448.3</ele>
        <time>2026-08-25T10:53:47Z</time>
      </trkpt>
      <trkpt lat="45.09226" lon="6.03037">
        <ele>1448.4</ele>
        <time>2026-08-25T10:53:48Z</time>
      </trkpt>
      <trkpt lat="45.09228" lon="6.03038">
        <ele>1448.5</ele>
        <time>2026-08-25T10:53:49Z</time>
      </trkpt>
      <trkpt lat="45.09231" lon="6.03039">
        <ele>1448.6</ele>
        <time>2026-08-25T10:53:50Z</time>
      </trkpt>
      <trkpt lat="45.09233" lon="6.0304">
        <ele>1448.7</ele>
        <time>2026-08-25T10:53:51Z</time>
      </trkpt>
      <trkpt lat="45.09235" lon="6.0304">
        <ele>1448.8</ele>
        <time>2026-08-25T10:53:52Z</time>
      </trkpt>
      <trkpt lat="45.09237" lon="6.03041">
        <ele>1448.8</ele>
        <time>2026-08-25T10:53:53Z</time>
      </trkpt>
      <trkpt lat="45.0924" lon="6.03041">
        <ele>1448.9</ele>
        <time>2026-08-25T10:53:54Z</time>
      </trkpt>
      <trkpt lat="45.09242" lon="6.03042">
        <ele>1449</ele>
        <time>2026-08-25T10:53:55Z</time>
      </trkpt>
      <trkpt lat="45.09245" lon="6.03042">
        <ele>1449.3</ele>
        <time>2026-08-25T10:53:56Z</time>
      </trkpt>
      <trkpt lat="45.09247" lon="6.03043">
        <ele>1449.6</ele>
        <time>2026-08-25T10:53:57Z</time>
      </trkpt>
      <trkpt lat="45.09249" lon="6.03044">
        <ele>1449.9</ele>
        <time>2026-08-25T10:53:58Z</time>
      </trkpt>
      <trkpt lat="45.09251" lon="6.03045">
        <ele>1450.1</ele>
        <time>2026-08-25T10:53:59Z</time>
      </trkpt>
      <trkpt lat="45.09254" lon="6.03046">
        <ele>1450.4</ele>
        <time>2026-08-25T10:54:00Z</time>
      </trkpt>
      <trkpt lat="45.09256" lon="6.03046">
        <ele>1450.7</ele>
        <time>2026-08-25T10:54:01Z</time>
      </trkpt>
      <trkpt lat="45.09258" lon="6.03047">
        <ele>1450.9</ele>
        <time>2026-08-25T10:54:02Z</time>
      </trkpt>
      <trkpt lat="45.09261" lon="6.03048">
        <ele>1451.2</ele>
        <time>2026-08-25T10:54:03Z</time>
      </trkpt>
      <trkpt lat="45.09264" lon="6.03049">
        <ele>1451.5</ele>
        <time>2026-08-25T10:54:04Z</time>
      </trkpt>
      <trkpt lat="45.09266" lon="6.0305">
        <ele>1451.8</ele>
        <time>2026-08-25T10:54:05Z</time>
      </trkpt>
      <trkpt lat="45.09268" lon="6.03051">
        <ele>1452</ele>
        <time>2026-08-25T10:54:06Z</time>
      </trkpt>
      <trkpt lat="45.0927" lon="6.03052">
        <ele>1452.3</ele>
        <time>2026-08-25T10:54:07Z</time>
      </trkpt>
      <trkpt lat="45.09272" lon="6.03054">
        <ele>1452.6</ele>
        <time>2026-08-25T10:54:08Z</time>
      </trkpt>
      <trkpt lat="45.09275" lon="6.03055">
        <ele>1453</ele>
        <time>2026-08-25T10:54:09Z</time>
      </trkpt>
      <trkpt lat="45.09278" lon="6.03054">
        <ele>1453.3</ele>
        <time>2026-08-25T10:54:10Z</time>
      </trkpt>
      <trkpt lat="45.0928" lon="6.03055">
        <ele>1453.6</ele>
        <time>2026-08-25T10:54:11Z</time>
      </trkpt>
      <trkpt lat="45.09283" lon="6.03055">
        <ele>1453.9</ele>
        <time>2026-08-25T10:54:12Z</time>
      </trkpt>
      <trkpt lat="45.09284" lon="6.03055">
        <ele>1454.1</ele>
        <time>2026-08-25T10:54:13Z</time>
      </trkpt>
      <trkpt lat="45.09286" lon="6.03056">
        <ele>1454.3</ele>
        <time>2026-08-25T10:54:14Z</time>
      </trkpt>
      <trkpt lat="45.09288" lon="6.03057">
        <ele>1454.6</ele>
        <time>2026-08-25T10:54:15Z</time>
      </trkpt>
      <trkpt lat="45.0929" lon="6.03058">
        <ele>1454.9</ele>
        <time>2026-08-25T10:54:16Z</time>
      </trkpt>
      <trkpt lat="45.09292" lon="6.03059">
        <ele>1455.1</ele>
        <time>2026-08-25T10:54:17Z</time>
      </trkpt>
      <trkpt lat="45.09294" lon="6.0306">
        <ele>1455.4</ele>
        <time>2026-08-25T10:54:18Z</time>
      </trkpt>
      <trkpt lat="45.09297" lon="6.03061">
        <ele>1455.7</ele>
        <time>2026-08-25T10:54:19Z</time>
      </trkpt>
      <trkpt lat="45.09299" lon="6.03061">
        <ele>1455.9</ele>
        <time>2026-08-25T10:54:20Z</time>
      </trkpt>
      <trkpt lat="45.09301" lon="6.03062">
        <ele>1456.2</ele>
        <time>2026-08-25T10:54:21Z</time>
      </trkpt>
      <trkpt lat="45.09303" lon="6.03063">
        <ele>1456.4</ele>
        <time>2026-08-25T10:54:22Z</time>
      </trkpt>
      <trkpt lat="45.09306" lon="6.03063">
        <ele>1456.7</ele>
        <time>2026-08-25T10:54:23Z</time>
      </trkpt>
      <trkpt lat="45.09308" lon="6.03063">
        <ele>1457</ele>
        <time>2026-08-25T10:54:24Z</time>
      </trkpt>
      <trkpt lat="45.0931" lon="6.03063">
        <ele>1457.2</ele>
        <time>2026-08-25T10:54:25Z</time>
      </trkpt>
      <trkpt lat="45.09313" lon="6.03062">
        <ele>1457.6</ele>
        <time>2026-08-25T10:54:26Z</time>
      </trkpt>
      <trkpt lat="45.09315" lon="6.03063">
        <ele>1457.8</ele>
        <time>2026-08-25T10:54:27Z</time>
      </trkpt>
      <trkpt lat="45.09317" lon="6.03063">
        <ele>1458.1</ele>
        <time>2026-08-25T10:54:28Z</time>
      </trkpt>
      <trkpt lat="45.0932" lon="6.03063">
        <ele>1458.3</ele>
        <time>2026-08-25T10:54:29Z</time>
      </trkpt>
      <trkpt lat="45.09322" lon="6.03063">
        <ele>1458.6</ele>
        <time>2026-08-25T10:54:30Z</time>
      </trkpt>
      <trkpt lat="45.09324" lon="6.03064">
        <ele>1458.8</ele>
        <time>2026-08-25T10:54:31Z</time>
      </trkpt>
      <trkpt lat="45.09327" lon="6.03064">
        <ele>1459.1</ele>
        <time>2026-08-25T10:54:32Z</time>
      </trkpt>
      <trkpt lat="45.09328" lon="6.03064">
        <ele>1459.3</ele>
        <time>2026-08-25T10:54:33Z</time>
      </trkpt>
      <trkpt lat="45.0933" lon="6.03064">
        <ele>1459.6</ele>
        <time>2026-08-25T10:54:34Z</time>
      </trkpt>
      <trkpt lat="45.09333" lon="6.03064">
        <ele>1459.9</ele>
        <time>2026-08-25T10:54:35Z</time>
      </trkpt>
      <trkpt lat="45.09335" lon="6.03064">
        <ele>1460.1</ele>
        <time>2026-08-25T10:54:36Z</time>
      </trkpt>
      <trkpt lat="45.09337" lon="6.03065">
        <ele>1460.4</ele>
        <time>2026-08-25T10:54:37Z</time>
      </trkpt>
      <trkpt lat="45.09339" lon="6.03065">
        <ele>1460.7</ele>
        <time>2026-08-25T10:54:38Z</time>
      </trkpt>
      <trkpt lat="45.09341" lon="6.03065">
        <ele>1460.9</ele>
        <time>2026-08-25T10:54:39Z</time>
      </trkpt>
      <trkpt lat="45.09343" lon="6.03066">
        <ele>1461.1</ele>
        <time>2026-08-25T10:54:40Z</time>
      </trkpt>
      <trkpt lat="45.09345" lon="6.03066">
        <ele>1461.4</ele>
        <time>2026-08-25T10:54:41Z</time>
      </trkpt>
      <trkpt lat="45.09347" lon="6.03066">
        <ele>1461.7</ele>
        <time>2026-08-25T10:54:42Z</time>
      </trkpt>
      <trkpt lat="45.0935" lon="6.03067">
        <ele>1462</ele>
        <time>2026-08-25T10:54:43Z</time>
      </trkpt>
      <trkpt lat="45.09352" lon="6.03067">
        <ele>1462.3</ele>
        <time>2026-08-25T10:54:44Z</time>
      </trkpt>
      <trkpt lat="45.09354" lon="6.03068">
        <ele>1462.5</ele>
        <time>2026-08-25T10:54:45Z</time>
      </trkpt>
      <trkpt lat="45.09356" lon="6.03069">
        <ele>1462.8</ele>
        <time>2026-08-25T10:54:46Z</time>
      </trkpt>
      <trkpt lat="45.09359" lon="6.03069">
        <ele>1463.1</ele>
        <time>2026-08-25T10:54:47Z</time>
      </trkpt>
      <trkpt lat="45.09361" lon="6.0307">
        <ele>1463.4</ele>
        <time>2026-08-25T10:54:48Z</time>
      </trkpt>
      <trkpt lat="45.09363" lon="6.0307">
        <ele>1463.7</ele>
        <time>2026-08-25T10:54:49Z</time>
      </trkpt>
      <trkpt lat="45.09366" lon="6.03072">
        <ele>1464</ele>
        <time>2026-08-25T10:54:50Z</time>
      </trkpt>
      <trkpt lat="45.09368" lon="6.03072">
        <ele>1464.3</ele>
        <time>2026-08-25T10:54:51Z</time>
      </trkpt>
      <trkpt lat="45.0937" lon="6.03073">
        <ele>1464.6</ele>
        <time>2026-08-25T10:54:52Z</time>
      </trkpt>
      <trkpt lat="45.09372" lon="6.03073">
        <ele>1464.9</ele>
        <time>2026-08-25T10:54:53Z</time>
      </trkpt>
      <trkpt lat="45.09375" lon="6.03074">
        <ele>1465.1</ele>
        <time>2026-08-25T10:54:54Z</time>
      </trkpt>
      <trkpt lat="45.09377" lon="6.03074">
        <ele>1465.4</ele>
        <time>2026-08-25T10:54:55Z</time>
      </trkpt>
      <trkpt lat="45.0938" lon="6.03074">
        <ele>1465.7</ele>
        <time>2026-08-25T10:54:56Z</time>
      </trkpt>
      <trkpt lat="45.09382" lon="6.03076">
        <ele>1466</ele>
        <time>2026-08-25T10:54:57Z</time>
      </trkpt>
      <trkpt lat="45.09384" lon="6.03077">
        <ele>1466.2</ele>
        <time>2026-08-25T10:54:58Z</time>
      </trkpt>
      <trkpt lat="45.09386" lon="6.03077">
        <ele>1466.4</ele>
        <time>2026-08-25T10:54:59Z</time>
      </trkpt>
      <trkpt lat="45.09388" lon="6.03078">
        <ele>1466.6</ele>
        <time>2026-08-25T10:55:00Z</time>
      </trkpt>
      <trkpt lat="45.09389" lon="6.03078">
        <ele>1466.7</ele>
        <time>2026-08-25T10:55:01Z</time>
      </trkpt>
      <trkpt lat="45.09391" lon="6.03079">
        <ele>1466.6</ele>
        <time>2026-08-25T10:55:02Z</time>
      </trkpt>
      <trkpt lat="45.09392" lon="6.03079">
        <ele>1466.6</ele>
        <time>2026-08-25T10:55:03Z</time>
      </trkpt>
      <trkpt lat="45.09394" lon="6.0308">
        <ele>1466.5</ele>
        <time>2026-08-25T10:55:04Z</time>
      </trkpt>
      <trkpt lat="45.09396" lon="6.0308">
        <ele>1466.4</ele>
        <time>2026-08-25T10:55:05Z</time>
      </trkpt>
      <trkpt lat="45.09398" lon="6.03081">
        <ele>1466.3</ele>
        <time>2026-08-25T10:55:06Z</time>
      </trkpt>
      <trkpt lat="45.09401" lon="6.03081">
        <ele>1466.2</ele>
        <time>2026-08-25T10:55:07Z</time>
      </trkpt>
      <trkpt lat="45.09403" lon="6.03081">
        <ele>1466.1</ele>
        <time>2026-08-25T10:55:08Z</time>
      </trkpt>
      <trkpt lat="45.09406" lon="6.0308">
        <ele>1465.9</ele>
        <time>2026-08-25T10:55:09Z</time>
      </trkpt>
      <trkpt lat="45.09409" lon="6.0308">
        <ele>1465.8</ele>
        <time>2026-08-25T10:55:10Z</time>
      </trkpt>
      <trkpt lat="45.09412" lon="6.03079">
        <ele>1465.6</ele>
        <time>2026-08-25T10:55:11Z</time>
      </trkpt>
      <trkpt lat="45.09415" lon="6.03079">
        <ele>1465.3</ele>
        <time>2026-08-25T10:55:12Z</time>
      </trkpt>
      <trkpt lat="45.09418" lon="6.03078">
        <ele>1465.1</ele>
        <time>2026-08-25T10:55:13Z</time>
      </trkpt>
      <trkpt lat="45.09422" lon="6.03077">
        <ele>1464.8</ele>
        <time>2026-08-25T10:55:14Z</time>
      </trkpt>
      <trkpt lat="45.09426" lon="6.03077">
        <ele>1464.6</ele>
        <time>2026-08-25T10:55:15Z</time>
      </trkpt>
      <trkpt lat="45.0943" lon="6.03077">
        <ele>1464.2</ele>
        <time>2026-08-25T10:55:16Z</time>
      </trkpt>
      <trkpt lat="45.09436" lon="6.03078">
        <ele>1463.8</ele>
        <time>2026-08-25T10:55:17Z</time>
      </trkpt>
      <trkpt lat="45.09441" lon="6.03079">
        <ele>1463.5</ele>
        <time>2026-08-25T10:55:18Z</time>
      </trkpt>
      <trkpt lat="45.09446" lon="6.0308">
        <ele>1463.1</ele>
        <time>2026-08-25T10:55:19Z</time>
      </trkpt>
      <trkpt lat="45.09451" lon="6.03081">
        <ele>1462.7</ele>
        <time>2026-08-25T10:55:20Z</time>
      </trkpt>
      <trkpt lat="45.09456" lon="6.03083">
        <ele>1462.4</ele>
        <time>2026-08-25T10:55:21Z</time>
      </trkpt>
      <trkpt lat="45.09462" lon="6.03084">
        <ele>1462</ele>
        <time>2026-08-25T10:55:22Z</time>
      </trkpt>
      <trkpt lat="45.09468" lon="6.03086">
        <ele>1461.6</ele>
        <time>2026-08-25T10:55:23Z</time>
      </trkpt>
      <trkpt lat="45.09474" lon="6.03088">
        <ele>1461.2</ele>
        <time>2026-08-25T10:55:24Z</time>
      </trkpt>
      <trkpt lat="45.09479" lon="6.03089">
        <ele>1460.8</ele>
        <time>2026-08-25T10:55:25Z</time>
      </trkpt>
      <trkpt lat="45.09485" lon="6.03091">
        <ele>1460.4</ele>
        <time>2026-08-25T10:55:26Z</time>
      </trkpt>
      <trkpt lat="45.09491" lon="6.03093">
        <ele>1459.9</ele>
        <time>2026-08-25T10:55:27Z</time>
      </trkpt>
      <trkpt lat="45.09498" lon="6.03095">
        <ele>1459.5</ele>
        <time>2026-08-25T10:55:28Z</time>
      </trkpt>
      <trkpt lat="45.09504" lon="6.03097">
        <ele>1459</ele>
        <time>2026-08-25T10:55:29Z</time>
      </trkpt>
      <trkpt lat="45.0951" lon="6.03099">
        <ele>1458.6</ele>
        <time>2026-08-25T10:55:30Z</time>
      </trkpt>
      <trkpt lat="45.09517" lon="6.03102">
        <ele>1458.1</ele>
        <time>2026-08-25T10:55:31Z</time>
      </trkpt>
      <trkpt lat="45.09524" lon="6.03104">
        <ele>1457.5</ele>
        <time>2026-08-25T10:55:32Z</time>
      </trkpt>
      <trkpt lat="45.09532" lon="6.03107">
        <ele>1456.9</ele>
        <time>2026-08-25T10:55:33Z</time>
      </trkpt>
      <trkpt lat="45.09539" lon="6.03111">
        <ele>1456.3</ele>
        <time>2026-08-25T10:55:34Z</time>
      </trkpt>
      <trkpt lat="45.09546" lon="6.03115">
        <ele>1455.7</ele>
        <time>2026-08-25T10:55:35Z</time>
      </trkpt>
      <trkpt lat="45.09554" lon="6.03119">
        <ele>1455.1</ele>
        <time>2026-08-25T10:55:36Z</time>
      </trkpt>
      <trkpt lat="45.09562" lon="6.03123">
        <ele>1454.4</ele>
        <time>2026-08-25T10:55:37Z</time>
      </trkpt>
      <trkpt lat="45.0957" lon="6.03128">
        <ele>1453.6</ele>
        <time>2026-08-25T10:55:38Z</time>
      </trkpt>
      <trkpt lat="45.09578" lon="6.03133">
        <ele>1452.8</ele>
        <time>2026-08-25T10:55:39Z</time>
      </trkpt>
      <trkpt lat="45.09587" lon="6.03138">
        <ele>1452</ele>
        <time>2026-08-25T10:55:40Z</time>
      </trkpt>
      <trkpt lat="45.09595" lon="6.03145">
        <ele>1451.2</ele>
        <time>2026-08-25T10:55:41Z</time>
      </trkpt>
      <trkpt lat="45.09604" lon="6.03152">
        <ele>1450.3</ele>
        <time>2026-08-25T10:55:42Z</time>
      </trkpt>
      <trkpt lat="45.09614" lon="6.03159">
        <ele>1449.5</ele>
        <time>2026-08-25T10:55:43Z</time>
      </trkpt>
      <trkpt lat="45.09623" lon="6.03166">
        <ele>1448.8</ele>
        <time>2026-08-25T10:55:44Z</time>
      </trkpt>
      <trkpt lat="45.09633" lon="6.03174">
        <ele>1448.1</ele>
        <time>2026-08-25T10:55:45Z</time>
      </trkpt>
      <trkpt lat="45.09642" lon="6.03182">
        <ele>1447.5</ele>
        <time>2026-08-25T10:55:46Z</time>
      </trkpt>
      <trkpt lat="45.0965" lon="6.0319">
        <ele>1446.9</ele>
        <time>2026-08-25T10:55:47Z</time>
      </trkpt>
      <trkpt lat="45.09659" lon="6.03199">
        <ele>1446.2</ele>
        <time>2026-08-25T10:55:48Z</time>
      </trkpt>
      <trkpt lat="45.09668" lon="6.03209">
        <ele>1445.6</ele>
        <time>2026-08-25T10:55:49Z</time>
      </trkpt>
      <trkpt lat="45.09677" lon="6.03218">
        <ele>1445</ele>
        <time>2026-08-25T10:55:50Z</time>
      </trkpt>
      <trkpt lat="45.09685" lon="6.03227">
        <ele>1444.4</ele>
        <time>2026-08-25T10:55:51Z</time>
      </trkpt>
      <trkpt lat="45.09694" lon="6.03237">
        <ele>1443.7</ele>
        <time>2026-08-25T10:55:52Z</time>
      </trkpt>
      <trkpt lat="45.09702" lon="6.03248">
        <ele>1443</ele>
        <time>2026-08-25T10:55:53Z</time>
      </trkpt>
      <trkpt lat="45.09711" lon="6.03258">
        <ele>1442.1</ele>
        <time>2026-08-25T10:55:54Z</time>
      </trkpt>
      <trkpt lat="45.0972" lon="6.03269">
        <ele>1441.3</ele>
        <time>2026-08-25T10:55:55Z</time>
      </trkpt>
      <trkpt lat="45.09728" lon="6.03279">
        <ele>1440.3</ele>
        <time>2026-08-25T10:55:56Z</time>
      </trkpt>
      <trkpt lat="45.09737" lon="6.0329">
        <ele>1439.3</ele>
        <time>2026-08-25T10:55:57Z</time>
      </trkpt>
      <trkpt lat="45.09747" lon="6.03301">
        <ele>1438.3</ele>
        <time>2026-08-25T10:55:58Z</time>
      </trkpt>
      <trkpt lat="45.09756" lon="6.03312">
        <ele>1437.3</ele>
        <time>2026-08-25T10:55:59Z</time>
      </trkpt>
      <trkpt lat="45.09767" lon="6.03323">
        <ele>1436.2</ele>
        <time>2026-08-25T10:56:00Z</time>
      </trkpt>
      <trkpt lat="45.09779" lon="6.03329">
        <ele>1435.1</ele>
        <time>2026-08-25T10:56:01Z</time>
      </trkpt>
      <trkpt lat="45.09793" lon="6.03333">
        <ele>1434.2</ele>
        <time>2026-08-25T10:56:02Z</time>
      </trkpt>
      <trkpt lat="45.09805" lon="6.0333">
        <ele>1433.4</ele>
        <time>2026-08-25T10:56:03Z</time>
      </trkpt>
      <trkpt lat="45.09818" lon="6.03328">
        <ele>1432.6</ele>
        <time>2026-08-25T10:56:04Z</time>
      </trkpt>
      <trkpt lat="45.09832" lon="6.03328">
        <ele>1431.8</ele>
        <time>2026-08-25T10:56:05Z</time>
      </trkpt>
      <trkpt lat="45.09845" lon="6.03331">
        <ele>1431</ele>
        <time>2026-08-25T10:56:06Z</time>
      </trkpt>
      <trkpt lat="45.09858" lon="6.03337">
        <ele>1430.1</ele>
        <time>2026-08-25T10:56:07Z</time>
      </trkpt>
      <trkpt lat="45.0987" lon="6.03344">
        <ele>1429.3</ele>
        <time>2026-08-25T10:56:08Z</time>
      </trkpt>
      <trkpt lat="45.09882" lon="6.03353">
        <ele>1428.4</ele>
        <time>2026-08-25T10:56:09Z</time>
      </trkpt>
      <trkpt lat="45.09893" lon="6.03364">
        <ele>1427.4</ele>
        <time>2026-08-25T10:56:10Z</time>
      </trkpt>
      <trkpt lat="45.09903" lon="6.03375">
        <ele>1426.4</ele>
        <time>2026-08-25T10:56:11Z</time>
      </trkpt>
      <trkpt lat="45.09915" lon="6.03386">
        <ele>1425.4</ele>
        <time>2026-08-25T10:56:12Z</time>
      </trkpt>
      <trkpt lat="45.09927" lon="6.03396">
        <ele>1424.3</ele>
        <time>2026-08-25T10:56:13Z</time>
      </trkpt>
      <trkpt lat="45.09939" lon="6.03406">
        <ele>1423.4</ele>
        <time>2026-08-25T10:56:14Z</time>
      </trkpt>
      <trkpt lat="45.09951" lon="6.03417">
        <ele>1422.4</ele>
        <time>2026-08-25T10:56:15Z</time>
      </trkpt>
      <trkpt lat="45.09961" lon="6.0343">
        <ele>1421.4</ele>
        <time>2026-08-25T10:56:16Z</time>
      </trkpt>
      <trkpt lat="45.09972" lon="6.03444">
        <ele>1420.4</ele>
        <time>2026-08-25T10:56:17Z</time>
      </trkpt>
      <trkpt lat="45.09982" lon="6.03458">
        <ele>1419.4</ele>
        <time>2026-08-25T10:56:18Z</time>
      </trkpt>
      <trkpt lat="45.09992" lon="6.03472">
        <ele>1418.4</ele>
        <time>2026-08-25T10:56:19Z</time>
      </trkpt>
      <trkpt lat="45.10003" lon="6.03486">
        <ele>1417.4</ele>
        <time>2026-08-25T10:56:20Z</time>
      </trkpt>
      <trkpt lat="45.10015" lon="6.03499">
        <ele>1416.4</ele>
        <time>2026-08-25T10:56:21Z</time>
      </trkpt>
      <trkpt lat="45.10027" lon="6.03511">
        <ele>1415.4</ele>
        <time>2026-08-25T10:56:22Z</time>
      </trkpt>
      <trkpt lat="45.1004" lon="6.03522">
        <ele>1414.5</ele>
        <time>2026-08-25T10:56:23Z</time>
      </trkpt>
      <trkpt lat="45.10052" lon="6.03534">
        <ele>1413.7</ele>
        <time>2026-08-25T10:56:24Z</time>
      </trkpt>
      <trkpt lat="45.10062" lon="6.03548">
        <ele>1412.9</ele>
        <time>2026-08-25T10:56:25Z</time>
      </trkpt>
      <trkpt lat="45.1007" lon="6.03565">
        <ele>1412.1</ele>
        <time>2026-08-25T10:56:26Z</time>
      </trkpt>
      <trkpt lat="45.10078" lon="6.03582">
        <ele>1411.1</ele>
        <time>2026-08-25T10:56:27Z</time>
      </trkpt>
      <trkpt lat="45.10088" lon="6.03599">
        <ele>1410.2</ele>
        <time>2026-08-25T10:56:28Z</time>
      </trkpt>
      <trkpt lat="45.10099" lon="6.03612">
        <ele>1409.4</ele>
        <time>2026-08-25T10:56:29Z</time>
      </trkpt>
      <trkpt lat="45.10111" lon="6.03623">
        <ele>1408.5</ele>
        <time>2026-08-25T10:56:30Z</time>
      </trkpt>
      <trkpt lat="45.10124" lon="6.0363">
        <ele>1407.6</ele>
        <time>2026-08-25T10:56:31Z</time>
      </trkpt>
      <trkpt lat="45.10137" lon="6.03637">
        <ele>1406.7</ele>
        <time>2026-08-25T10:56:32Z</time>
      </trkpt>
      <trkpt lat="45.10151" lon="6.03642">
        <ele>1405.7</ele>
        <time>2026-08-25T10:56:33Z</time>
      </trkpt>
      <trkpt lat="45.10165" lon="6.03648">
        <ele>1404.6</ele>
        <time>2026-08-25T10:56:34Z</time>
      </trkpt>
      <trkpt lat="45.10179" lon="6.03653">
        <ele>1403.6</ele>
        <time>2026-08-25T10:56:35Z</time>
      </trkpt>
      <trkpt lat="45.10193" lon="6.03657">
        <ele>1402.5</ele>
        <time>2026-08-25T10:56:36Z</time>
      </trkpt>
      <trkpt lat="45.10207" lon="6.03661">
        <ele>1401.4</ele>
        <time>2026-08-25T10:56:37Z</time>
      </trkpt>
      <trkpt lat="45.10221" lon="6.03667">
        <ele>1400.3</ele>
        <time>2026-08-25T10:56:38Z</time>
      </trkpt>
      <trkpt lat="45.10234" lon="6.03676">
        <ele>1399.1</ele>
        <time>2026-08-25T10:56:39Z</time>
      </trkpt>
      <trkpt lat="45.10245" lon="6.03689">
        <ele>1398</ele>
        <time>2026-08-25T10:56:40Z</time>
      </trkpt>
      <trkpt lat="45.10255" lon="6.03705">
        <ele>1397</ele>
        <time>2026-08-25T10:56:41Z</time>
      </trkpt>
      <trkpt lat="45.10264" lon="6.03722">
        <ele>1396</ele>
        <time>2026-08-25T10:56:42Z</time>
      </trkpt>
      <trkpt lat="45.10272" lon="6.0374">
        <ele>1395.2</ele>
        <time>2026-08-25T10:56:43Z</time>
      </trkpt>
      <trkpt lat="45.10281" lon="6.03757">
        <ele>1394.3</ele>
        <time>2026-08-25T10:56:44Z</time>
      </trkpt>
      <trkpt lat="45.10292" lon="6.03772">
        <ele>1393.6</ele>
        <time>2026-08-25T10:56:45Z</time>
      </trkpt>
      <trkpt lat="45.10304" lon="6.03784">
        <ele>1392.9</ele>
        <time>2026-08-25T10:56:46Z</time>
      </trkpt>
      <trkpt lat="45.10316" lon="6.03796">
        <ele>1392.3</ele>
        <time>2026-08-25T10:56:47Z</time>
      </trkpt>
      <trkpt lat="45.10327" lon="6.03809">
        <ele>1391.5</ele>
        <time>2026-08-25T10:56:48Z</time>
      </trkpt>
      <trkpt lat="45.10336" lon="6.03824">
        <ele>1390.7</ele>
        <time>2026-08-25T10:56:49Z</time>
      </trkpt>
      <trkpt lat="45.10342" lon="6.03841">
        <ele>1389.9</ele>
        <time>2026-08-25T10:56:50Z</time>
      </trkpt>
      <trkpt lat="45.10346" lon="6.03857">
        <ele>1389.3</ele>
        <time>2026-08-25T10:56:51Z</time>
      </trkpt>
      <trkpt lat="45.10353" lon="6.03871">
        <ele>1388.8</ele>
        <time>2026-08-25T10:56:52Z</time>
      </trkpt>
      <trkpt lat="45.10362" lon="6.03882">
        <ele>1388.5</ele>
        <time>2026-08-25T10:56:53Z</time>
      </trkpt>
      <trkpt lat="45.10372" lon="6.0389">
        <ele>1388.2</ele>
        <time>2026-08-25T10:56:54Z</time>
      </trkpt>
      <trkpt lat="45.10384" lon="6.03895">
        <ele>1387.9</ele>
        <time>2026-08-25T10:56:55Z</time>
      </trkpt>
      <trkpt lat="45.10394" lon="6.03896">
        <ele>1387.5</ele>
        <time>2026-08-25T10:56:56Z</time>
      </trkpt>
      <trkpt lat="45.10405" lon="6.03893">
        <ele>1387.2</ele>
        <time>2026-08-25T10:56:57Z</time>
      </trkpt>
      <trkpt lat="45.10415" lon="6.03887">
        <ele>1386.8</ele>
        <time>2026-08-25T10:56:58Z</time>
      </trkpt>
      <trkpt lat="45.10425" lon="6.03882">
        <ele>1386.4</ele>
        <time>2026-08-25T10:56:59Z</time>
      </trkpt>
      <trkpt lat="45.10436" lon="6.0388">
        <ele>1385.9</ele>
        <time>2026-08-25T10:57:00Z</time>
      </trkpt>
      <trkpt lat="45.10447" lon="6.03883">
        <ele>1385.3</ele>
        <time>2026-08-25T10:57:01Z</time>
      </trkpt>
      <trkpt lat="45.10457" lon="6.03888">
        <ele>1384.6</ele>
        <time>2026-08-25T10:57:02Z</time>
      </trkpt>
      <trkpt lat="45.10466" lon="6.03895">
        <ele>1383.9</ele>
        <time>2026-08-25T10:57:03Z</time>
      </trkpt>
      <trkpt lat="45.10476" lon="6.03903">
        <ele>1383.2</ele>
        <time>2026-08-25T10:57:04Z</time>
      </trkpt>
      <trkpt lat="45.10485" lon="6.03912">
        <ele>1382.3</ele>
        <time>2026-08-25T10:57:05Z</time>
      </trkpt>
      <trkpt lat="45.10496" lon="6.0392">
        <ele>1381.5</ele>
        <time>2026-08-25T10:57:06Z</time>
      </trkpt>
      <trkpt lat="45.10508" lon="6.03923">
        <ele>1380.7</ele>
        <time>2026-08-25T10:57:07Z</time>
      </trkpt>
      <trkpt lat="45.10521" lon="6.03923">
        <ele>1379.9</ele>
        <time>2026-08-25T10:57:08Z</time>
      </trkpt>
      <trkpt lat="45.10533" lon="6.03919">
        <ele>1379.2</ele>
        <time>2026-08-25T10:57:09Z</time>
      </trkpt>
      <trkpt lat="45.10544" lon="6.03913">
        <ele>1378.4</ele>
        <time>2026-08-25T10:57:10Z</time>
      </trkpt>
      <trkpt lat="45.10556" lon="6.03907">
        <ele>1377.6</ele>
        <time>2026-08-25T10:57:11Z</time>
      </trkpt>
      <trkpt lat="45.10568" lon="6.03901">
        <ele>1376.7</ele>
        <time>2026-08-25T10:57:12Z</time>
      </trkpt>
      <trkpt lat="45.10579" lon="6.03895">
        <ele>1375.8</ele>
        <time>2026-08-25T10:57:13Z</time>
      </trkpt>
      <trkpt lat="45.10591" lon="6.03889">
        <ele>1374.8</ele>
        <time>2026-08-25T10:57:14Z</time>
      </trkpt>
      <trkpt lat="45.10603" lon="6.03882">
        <ele>1373.8</ele>
        <time>2026-08-25T10:57:15Z</time>
      </trkpt>
      <trkpt lat="45.10616" lon="6.03875">
        <ele>1372.6</ele>
        <time>2026-08-25T10:57:16Z</time>
      </trkpt>
      <trkpt lat="45.10628" lon="6.03866">
        <ele>1371.5</ele>
        <time>2026-08-25T10:57:17Z</time>
      </trkpt>
      <trkpt lat="45.10639" lon="6.03855">
        <ele>1370.6</ele>
        <time>2026-08-25T10:57:18Z</time>
      </trkpt>
      <trkpt lat="45.10647" lon="6.0384">
        <ele>1369.7</ele>
        <time>2026-08-25T10:57:19Z</time>
      </trkpt>
      <trkpt lat="45.10655" lon="6.03825">
        <ele>1369.1</ele>
        <time>2026-08-25T10:57:20Z</time>
      </trkpt>
      <trkpt lat="45.10662" lon="6.03813">
        <ele>1368.6</ele>
        <time>2026-08-25T10:57:21Z</time>
      </trkpt>
      <trkpt lat="45.10672" lon="6.03805">
        <ele>1368</ele>
        <time>2026-08-25T10:57:22Z</time>
      </trkpt>
      <trkpt lat="45.10683" lon="6.03802">
        <ele>1367.2</ele>
        <time>2026-08-25T10:57:23Z</time>
      </trkpt>
      <trkpt lat="45.10694" lon="6.03804">
        <ele>1366.4</ele>
        <time>2026-08-25T10:57:24Z</time>
      </trkpt>
      <trkpt lat="45.10705" lon="6.03806">
        <ele>1365.5</ele>
        <time>2026-08-25T10:57:25Z</time>
      </trkpt>
      <trkpt lat="45.10717" lon="6.03808">
        <ele>1364.6</ele>
        <time>2026-08-25T10:57:26Z</time>
      </trkpt>
      <trkpt lat="45.10728" lon="6.03811">
        <ele>1363.7</ele>
        <time>2026-08-25T10:57:27Z</time>
      </trkpt>
      <trkpt lat="45.10739" lon="6.03817">
        <ele>1362.7</ele>
        <time>2026-08-25T10:57:28Z</time>
      </trkpt>
      <trkpt lat="45.10748" lon="6.03825">
        <ele>1361.8</ele>
        <time>2026-08-25T10:57:29Z</time>
      </trkpt>
      <trkpt lat="45.10758" lon="6.03835">
        <ele>1360.8</ele>
        <time>2026-08-25T10:57:30Z</time>
      </trkpt>
      <trkpt lat="45.10767" lon="6.03845">
        <ele>1359.8</ele>
        <time>2026-08-25T10:57:31Z</time>
      </trkpt>
      <trkpt lat="45.10778" lon="6.03856">
        <ele>1358.9</ele>
        <time>2026-08-25T10:57:32Z</time>
      </trkpt>
      <trkpt lat="45.10789" lon="6.03863">
        <ele>1358.1</ele>
        <time>2026-08-25T10:57:33Z</time>
      </trkpt>
      <trkpt lat="45.10801" lon="6.03867">
        <ele>1357.2</ele>
        <time>2026-08-25T10:57:34Z</time>
      </trkpt>
      <trkpt lat="45.10814" lon="6.03867">
        <ele>1356.4</ele>
        <time>2026-08-25T10:57:35Z</time>
      </trkpt>
      <trkpt lat="45.10826" lon="6.03864">
        <ele>1355.6</ele>
        <time>2026-08-25T10:57:36Z</time>
      </trkpt>
      <trkpt lat="45.10837" lon="6.03856">
        <ele>1354.7</ele>
        <time>2026-08-25T10:57:37Z</time>
      </trkpt>
      <trkpt lat="45.10848" lon="6.03848">
        <ele>1353.7</ele>
        <time>2026-08-25T10:57:38Z</time>
      </trkpt>
      <trkpt lat="45.10861" lon="6.03844">
        <ele>1352.6</ele>
        <time>2026-08-25T10:57:39Z</time>
      </trkpt>
      <trkpt lat="45.10875" lon="6.03843">
        <ele>1351.4</ele>
        <time>2026-08-25T10:57:40Z</time>
      </trkpt>
      <trkpt lat="45.10888" lon="6.03837">
        <ele>1349.9</ele>
        <time>2026-08-25T10:57:41Z</time>
      </trkpt>
      <trkpt lat="45.10901" lon="6.03827">
        <ele>1348.4</ele>
        <time>2026-08-25T10:57:42Z</time>
      </trkpt>
      <trkpt lat="45.10911" lon="6.03813">
        <ele>1346.8</ele>
        <time>2026-08-25T10:57:43Z</time>
      </trkpt>
      <trkpt lat="45.10921" lon="6.03798">
        <ele>1345.3</ele>
        <time>2026-08-25T10:57:44Z</time>
      </trkpt>
      <trkpt lat="45.10933" lon="6.03785">
        <ele>1343.8</ele>
        <time>2026-08-25T10:57:45Z</time>
      </trkpt>
      <trkpt lat="45.10947" lon="6.03774">
        <ele>1342.5</ele>
        <time>2026-08-25T10:57:46Z</time>
      </trkpt>
      <trkpt lat="45.10961" lon="6.03768">
        <ele>1341.3</ele>
        <time>2026-08-25T10:57:47Z</time>
      </trkpt>
      <trkpt lat="45.10976" lon="6.03764">
        <ele>1340.2</ele>
        <time>2026-08-25T10:57:48Z</time>
      </trkpt>
      <trkpt lat="45.10989" lon="6.03756">
        <ele>1339.2</ele>
        <time>2026-08-25T10:57:49Z</time>
      </trkpt>
      <trkpt lat="45.11" lon="6.03745">
        <ele>1338.2</ele>
        <time>2026-08-25T10:57:50Z</time>
      </trkpt>
      <trkpt lat="45.11008" lon="6.03732">
        <ele>1337.3</ele>
        <time>2026-08-25T10:57:51Z</time>
      </trkpt>
      <trkpt lat="45.11016" lon="6.03719">
        <ele>1336.5</ele>
        <time>2026-08-25T10:57:52Z</time>
      </trkpt>
      <trkpt lat="45.11023" lon="6.03707">
        <ele>1335.8</ele>
        <time>2026-08-25T10:57:53Z</time>
      </trkpt>
      <trkpt lat="45.11032" lon="6.03699">
        <ele>1335.2</ele>
        <time>2026-08-25T10:57:54Z</time>
      </trkpt>
      <trkpt lat="45.1104" lon="6.03695">
        <ele>1334.6</ele>
        <time>2026-08-25T10:57:55Z</time>
      </trkpt>
      <trkpt lat="45.11049" lon="6.03695">
        <ele>1334</ele>
        <time>2026-08-25T10:57:56Z</time>
      </trkpt>
      <trkpt lat="45.11057" lon="6.03697">
        <ele>1333.4</ele>
        <time>2026-08-25T10:57:57Z</time>
      </trkpt>
      <trkpt lat="45.11066" lon="6.037">
        <ele>1332.7</ele>
        <time>2026-08-25T10:57:58Z</time>
      </trkpt>
      <trkpt lat="45.11076" lon="6.03701">
        <ele>1332.1</ele>
        <time>2026-08-25T10:57:59Z</time>
      </trkpt>
      <trkpt lat="45.11085" lon="6.03702">
        <ele>1331.5</ele>
        <time>2026-08-25T10:58:00Z</time>
      </trkpt>
      <trkpt lat="45.11095" lon="6.03701">
        <ele>1330.9</ele>
        <time>2026-08-25T10:58:01Z</time>
      </trkpt>
      <trkpt lat="45.11105" lon="6.03701">
        <ele>1330.4</ele>
        <time>2026-08-25T10:58:02Z</time>
      </trkpt>
      <trkpt lat="45.11114" lon="6.037">
        <ele>1330</ele>
        <time>2026-08-25T10:58:03Z</time>
      </trkpt>
      <trkpt lat="45.11124" lon="6.037">
        <ele>1329.6</ele>
        <time>2026-08-25T10:58:04Z</time>
      </trkpt>
      <trkpt lat="45.11134" lon="6.03699">
        <ele>1329.2</ele>
        <time>2026-08-25T10:58:05Z</time>
      </trkpt>
      <trkpt lat="45.11144" lon="6.03699">
        <ele>1328.9</ele>
        <time>2026-08-25T10:58:06Z</time>
      </trkpt>
      <trkpt lat="45.11153" lon="6.03698">
        <ele>1328.6</ele>
        <time>2026-08-25T10:58:07Z</time>
      </trkpt>
      <trkpt lat="45.11163" lon="6.03697">
        <ele>1328.4</ele>
        <time>2026-08-25T10:58:08Z</time>
      </trkpt>
      <trkpt lat="45.11172" lon="6.03695">
        <ele>1328</ele>
        <time>2026-08-25T10:58:09Z</time>
      </trkpt>
      <trkpt lat="45.11182" lon="6.03695">
        <ele>1327.7</ele>
        <time>2026-08-25T10:58:10Z</time>
      </trkpt>
      <trkpt lat="45.11192" lon="6.03695">
        <ele>1327.3</ele>
        <time>2026-08-25T10:58:11Z</time>
      </trkpt>
      <trkpt lat="45.11202" lon="6.03697">
        <ele>1327</ele>
        <time>2026-08-25T10:58:12Z</time>
      </trkpt>
      <trkpt lat="45.11212" lon="6.03698">
        <ele>1326.6</ele>
        <time>2026-08-25T10:58:13Z</time>
      </trkpt>
      <trkpt lat="45.11221" lon="6.03699">
        <ele>1326.1</ele>
        <time>2026-08-25T10:58:14Z</time>
      </trkpt>
      <trkpt lat="45.11231" lon="6.03698">
        <ele>1325.6</ele>
        <time>2026-08-25T10:58:15Z</time>
      </trkpt>
      <trkpt lat="45.1124" lon="6.03697">
        <ele>1325</ele>
        <time>2026-08-25T10:58:16Z</time>
      </trkpt>
      <trkpt lat="45.11249" lon="6.03694">
        <ele>1324.4</ele>
        <time>2026-08-25T10:58:17Z</time>
      </trkpt>
      <trkpt lat="45.11257" lon="6.03691">
        <ele>1323.8</ele>
        <time>2026-08-25T10:58:18Z</time>
      </trkpt>
      <trkpt lat="45.11266" lon="6.03686">
        <ele>1323.2</ele>
        <time>2026-08-25T10:58:19Z</time>
      </trkpt>
      <trkpt lat="45.11273" lon="6.0368">
        <ele>1322.7</ele>
        <time>2026-08-25T10:58:20Z</time>
      </trkpt>
      <trkpt lat="45.11281" lon="6.03674">
        <ele>1322.1</ele>
        <time>2026-08-25T10:58:21Z</time>
      </trkpt>
      <trkpt lat="45.11288" lon="6.03667">
        <ele>1321.6</ele>
        <time>2026-08-25T10:58:22Z</time>
      </trkpt>
      <trkpt lat="45.11294" lon="6.03659">
        <ele>1321.1</ele>
        <time>2026-08-25T10:58:23Z</time>
      </trkpt>
      <trkpt lat="45.113" lon="6.0365">
        <ele>1320.7</ele>
        <time>2026-08-25T10:58:24Z</time>
      </trkpt>
      <trkpt lat="45.11304" lon="6.03639">
        <ele>1320.2</ele>
        <time>2026-08-25T10:58:25Z</time>
      </trkpt>
      <trkpt lat="45.11309" lon="6.03631">
        <ele>1319.8</ele>
        <time>2026-08-25T10:58:26Z</time>
      </trkpt>
      <trkpt lat="45.11315" lon="6.03625">
        <ele>1319.4</ele>
        <time>2026-08-25T10:58:27Z</time>
      </trkpt>
      <trkpt lat="45.11322" lon="6.03623">
        <ele>1318.9</ele>
        <time>2026-08-25T10:58:28Z</time>
      </trkpt>
      <trkpt lat="45.11327" lon="6.03623">
        <ele>1318.6</ele>
        <time>2026-08-25T10:58:29Z</time>
      </trkpt>
      <trkpt lat="45.11331" lon="6.03626">
        <ele>1318.2</ele>
        <time>2026-08-25T10:58:30Z</time>
      </trkpt>
      <trkpt lat="45.11333" lon="6.0363">
        <ele>1317.8</ele>
        <time>2026-08-25T10:58:31Z</time>
      </trkpt>
      <trkpt lat="45.11335" lon="6.03636">
        <ele>1317.4</ele>
        <time>2026-08-25T10:58:32Z</time>
      </trkpt>
      <trkpt lat="45.11336" lon="6.03641">
        <ele>1317</ele>
        <time>2026-08-25T10:58:33Z</time>
      </trkpt>
      <trkpt lat="45.11336" lon="6.03647">
        <ele>1316.6</ele>
        <time>2026-08-25T10:58:34Z</time>
      </trkpt>
      <trkpt lat="45.11337" lon="6.03652">
        <ele>1316.2</ele>
        <time>2026-08-25T10:58:35Z</time>
      </trkpt>
      <trkpt lat="45.11338" lon="6.03658">
        <ele>1315.8</ele>
        <time>2026-08-25T10:58:36Z</time>
      </trkpt>
      <trkpt lat="45.11339" lon="6.03663">
        <ele>1315.4</ele>
        <time>2026-08-25T10:58:37Z</time>
      </trkpt>
      <trkpt lat="45.11339" lon="6.03669">
        <ele>1315</ele>
        <time>2026-08-25T10:58:38Z</time>
      </trkpt>
      <trkpt lat="45.11338" lon="6.03675">
        <ele>1314.6</ele>
        <time>2026-08-25T10:58:39Z</time>
      </trkpt>
      <trkpt lat="45.11337" lon="6.03681">
        <ele>1314.2</ele>
        <time>2026-08-25T10:58:40Z</time>
      </trkpt>
      <trkpt lat="45.11336" lon="6.03689">
        <ele>1313.7</ele>
        <time>2026-08-25T10:58:41Z</time>
      </trkpt>
      <trkpt lat="45.11335" lon="6.03698">
        <ele>1313.1</ele>
        <time>2026-08-25T10:58:42Z</time>
      </trkpt>
      <trkpt lat="45.11333" lon="6.03708">
        <ele>1312.4</ele>
        <time>2026-08-25T10:58:43Z</time>
      </trkpt>
      <trkpt lat="45.1133" lon="6.03718">
        <ele>1311.7</ele>
        <time>2026-08-25T10:58:44Z</time>
      </trkpt>
      <trkpt lat="45.11327" lon="6.03729">
        <ele>1311</ele>
        <time>2026-08-25T10:58:45Z</time>
      </trkpt>
      <trkpt lat="45.11325" lon="6.03741">
        <ele>1310.2</ele>
        <time>2026-08-25T10:58:46Z</time>
      </trkpt>
      <trkpt lat="45.11321" lon="6.03754">
        <ele>1309.4</ele>
        <time>2026-08-25T10:58:47Z</time>
      </trkpt>
      <trkpt lat="45.11318" lon="6.03767">
        <ele>1308.4</ele>
        <time>2026-08-25T10:58:48Z</time>
      </trkpt>
      <trkpt lat="45.11315" lon="6.03781">
        <ele>1307.4</ele>
        <time>2026-08-25T10:58:49Z</time>
      </trkpt>
      <trkpt lat="45.11312" lon="6.03796">
        <ele>1306.3</ele>
        <time>2026-08-25T10:58:50Z</time>
      </trkpt>
      <trkpt lat="45.11309" lon="6.03812">
        <ele>1305.3</ele>
        <time>2026-08-25T10:58:51Z</time>
      </trkpt>
      <trkpt lat="45.11305" lon="6.03828">
        <ele>1304.1</ele>
        <time>2026-08-25T10:58:52Z</time>
      </trkpt>
      <trkpt lat="45.113" lon="6.03844">
        <ele>1302.9</ele>
        <time>2026-08-25T10:58:53Z</time>
      </trkpt>
      <trkpt lat="45.11296" lon="6.03862">
        <ele>1301.7</ele>
        <time>2026-08-25T10:58:54Z</time>
      </trkpt>
      <trkpt lat="45.11292" lon="6.0388">
        <ele>1300.3</ele>
        <time>2026-08-25T10:58:55Z</time>
      </trkpt>
      <trkpt lat="45.11288" lon="6.03898">
        <ele>1299</ele>
        <time>2026-08-25T10:58:56Z</time>
      </trkpt>
      <trkpt lat="45.11284" lon="6.03917">
        <ele>1297.7</ele>
        <time>2026-08-25T10:58:57Z</time>
      </trkpt>
      <trkpt lat="45.1128" lon="6.03936">
        <ele>1296.5</ele>
        <time>2026-08-25T10:58:58Z</time>
      </trkpt>
      <trkpt lat="45.11276" lon="6.03955">
        <ele>1295.3</ele>
        <time>2026-08-25T10:58:59Z</time>
      </trkpt>
      <trkpt lat="45.11273" lon="6.03975">
        <ele>1294.2</ele>
        <time>2026-08-25T10:59:00Z</time>
      </trkpt>
      <trkpt lat="45.1127" lon="6.03996">
        <ele>1293</ele>
        <time>2026-08-25T10:59:01Z</time>
      </trkpt>
      <trkpt lat="45.11268" lon="6.04016">
        <ele>1291.8</ele>
        <time>2026-08-25T10:59:02Z</time>
      </trkpt>
      <trkpt lat="45.11266" lon="6.04037">
        <ele>1290.6</ele>
        <time>2026-08-25T10:59:03Z</time>
      </trkpt>
      <trkpt lat="45.11264" lon="6.04058">
        <ele>1289.4</ele>
        <time>2026-08-25T10:59:04Z</time>
      </trkpt>
      <trkpt lat="45.11262" lon="6.04079">
        <ele>1288.1</ele>
        <time>2026-08-25T10:59:05Z</time>
      </trkpt>
      <trkpt lat="45.11259" lon="6.041">
        <ele>1286.8</ele>
        <time>2026-08-25T10:59:06Z</time>
      </trkpt>
      <trkpt lat="45.11257" lon="6.04122">
        <ele>1285.5</ele>
        <time>2026-08-25T10:59:07Z</time>
      </trkpt>
      <trkpt lat="45.11255" lon="6.04143">
        <ele>1284.2</ele>
        <time>2026-08-25T10:59:08Z</time>
      </trkpt>
      <trkpt lat="45.11251" lon="6.04165">
        <ele>1282.9</ele>
        <time>2026-08-25T10:59:09Z</time>
      </trkpt>
      <trkpt lat="45.11247" lon="6.04187">
        <ele>1281.6</ele>
        <time>2026-08-25T10:59:10Z</time>
      </trkpt>
      <trkpt lat="45.11244" lon="6.0421">
        <ele>1280.4</ele>
        <time>2026-08-25T10:59:11Z</time>
      </trkpt>
      <trkpt lat="45.1124" lon="6.04232">
        <ele>1279.5</ele>
        <time>2026-08-25T10:59:12Z</time>
      </trkpt>
      <trkpt lat="45.11235" lon="6.04254">
        <ele>1278.5</ele>
        <time>2026-08-25T10:59:13Z</time>
      </trkpt>
      <trkpt lat="45.11231" lon="6.04276">
        <ele>1277.6</ele>
        <time>2026-08-25T10:59:14Z</time>
      </trkpt>
      <trkpt lat="45.11227" lon="6.04298">
        <ele>1276.8</ele>
        <time>2026-08-25T10:59:15Z</time>
      </trkpt>
      <trkpt lat="45.11221" lon="6.04316">
        <ele>1276.1</ele>
        <time>2026-08-25T10:59:16Z</time>
      </trkpt>
      <trkpt lat="45.11214" lon="6.04333">
        <ele>1275.5</ele>
        <time>2026-08-25T10:59:17Z</time>
      </trkpt>
      <trkpt lat="45.11208" lon="6.04348">
        <ele>1275</ele>
        <time>2026-08-25T10:59:18Z</time>
      </trkpt>
      <trkpt lat="45.11206" lon="6.04362">
        <ele>1274.5</ele>
        <time>2026-08-25T10:59:19Z</time>
      </trkpt>
      <trkpt lat="45.11208" lon="6.04375">
        <ele>1273.9</ele>
        <time>2026-08-25T10:59:20Z</time>
      </trkpt>
      <trkpt lat="45.11214" lon="6.04383">
        <ele>1273.2</ele>
        <time>2026-08-25T10:59:21Z</time>
      </trkpt>
      <trkpt lat="45.11224" lon="6.04385">
        <ele>1272.3</ele>
        <time>2026-08-25T10:59:22Z</time>
      </trkpt>
      <trkpt lat="45.11233" lon="6.0438">
        <ele>1271.3</ele>
        <time>2026-08-25T10:59:23Z</time>
      </trkpt>
      <trkpt lat="45.11238" lon="6.04369">
        <ele>1270.3</ele>
        <time>2026-08-25T10:59:24Z</time>
      </trkpt>
      <trkpt lat="45.11242" lon="6.04356">
        <ele>1269.2</ele>
        <time>2026-08-25T10:59:25Z</time>
      </trkpt>
      <trkpt lat="45.11246" lon="6.04342">
        <ele>1268.1</ele>
        <time>2026-08-25T10:59:26Z</time>
      </trkpt>
      <trkpt lat="45.11251" lon="6.04327">
        <ele>1267</ele>
        <time>2026-08-25T10:59:27Z</time>
      </trkpt>
      <trkpt lat="45.11256" lon="6.04311">
        <ele>1265.9</ele>
        <time>2026-08-25T10:59:28Z</time>
      </trkpt>
      <trkpt lat="45.11261" lon="6.04295">
        <ele>1264.7</ele>
        <time>2026-08-25T10:59:29Z</time>
      </trkpt>
      <trkpt lat="45.11265" lon="6.04279">
        <ele>1263.5</ele>
        <time>2026-08-25T10:59:30Z</time>
      </trkpt>
      <trkpt lat="45.1127" lon="6.04262">
        <ele>1262.3</ele>
        <time>2026-08-25T10:59:31Z</time>
      </trkpt>
      <trkpt lat="45.11275" lon="6.04245">
        <ele>1261.1</ele>
        <time>2026-08-25T10:59:32Z</time>
      </trkpt>
      <trkpt lat="45.1128" lon="6.04227">
        <ele>1260</ele>
        <time>2026-08-25T10:59:33Z</time>
      </trkpt>
      <trkpt lat="45.11285" lon="6.04208">
        <ele>1258.8</ele>
        <time>2026-08-25T10:59:34Z</time>
      </trkpt>
      <trkpt lat="45.1129" lon="6.04189">
        <ele>1257.7</ele>
        <time>2026-08-25T10:59:35Z</time>
      </trkpt>
      <trkpt lat="45.11295" lon="6.04171">
        <ele>1256.6</ele>
        <time>2026-08-25T10:59:36Z</time>
      </trkpt>
      <trkpt lat="45.11301" lon="6.04152">
        <ele>1255.5</ele>
        <time>2026-08-25T10:59:37Z</time>
      </trkpt>
      <trkpt lat="45.11307" lon="6.04132">
        <ele>1254.4</ele>
        <time>2026-08-25T10:59:38Z</time>
      </trkpt>
      <trkpt lat="45.11312" lon="6.04112">
        <ele>1253.3</ele>
        <time>2026-08-25T10:59:39Z</time>
      </trkpt>
      <trkpt lat="45.11317" lon="6.04092">
        <ele>1252.2</ele>
        <time>2026-08-25T10:59:40Z</time>
      </trkpt>
      <trkpt lat="45.11323" lon="6.04072">
        <ele>1251.2</ele>
        <time>2026-08-25T10:59:41Z</time>
      </trkpt>
      <trkpt lat="45.11328" lon="6.04052">
        <ele>1250.2</ele>
        <time>2026-08-25T10:59:42Z</time>
      </trkpt>
      <trkpt lat="45.11335" lon="6.04033">
        <ele>1249.1</ele>
        <time>2026-08-25T10:59:43Z</time>
      </trkpt>
      <trkpt lat="45.11341" lon="6.04013">
        <ele>1248.1</ele>
        <time>2026-08-25T10:59:44Z</time>
      </trkpt>
      <trkpt lat="45.11348" lon="6.03995">
        <ele>1247</ele>
        <time>2026-08-25T10:59:45Z</time>
      </trkpt>
      <trkpt lat="45.11355" lon="6.03976">
        <ele>1245.9</ele>
        <time>2026-08-25T10:59:46Z</time>
      </trkpt>
      <trkpt lat="45.11362" lon="6.03958">
        <ele>1244.9</ele>
        <time>2026-08-25T10:59:47Z</time>
      </trkpt>
      <trkpt lat="45.11369" lon="6.0394">
        <ele>1243.8</ele>
        <time>2026-08-25T10:59:48Z</time>
      </trkpt>
      <trkpt lat="45.11377" lon="6.03921">
        <ele>1242.7</ele>
        <time>2026-08-25T10:59:49Z</time>
      </trkpt>
      <trkpt lat="45.11385" lon="6.03904">
        <ele>1241.7</ele>
        <time>2026-08-25T10:59:50Z</time>
      </trkpt>
      <trkpt lat="45.11393" lon="6.03886">
        <ele>1240.7</ele>
        <time>2026-08-25T10:59:51Z</time>
      </trkpt>
      <trkpt lat="45.114" lon="6.03868">
        <ele>1239.6</ele>
        <time>2026-08-25T10:59:52Z</time>
      </trkpt>
      <trkpt lat="45.11407" lon="6.0385">
        <ele>1238.5</ele>
        <time>2026-08-25T10:59:53Z</time>
      </trkpt>
      <trkpt lat="45.11412" lon="6.03831">
        <ele>1237.3</ele>
        <time>2026-08-25T10:59:54Z</time>
      </trkpt>
      <trkpt lat="45.11418" lon="6.03812">
        <ele>1236.1</ele>
        <time>2026-08-25T10:59:55Z</time>
      </trkpt>
      <trkpt lat="45.11423" lon="6.03792">
        <ele>1235</ele>
        <time>2026-08-25T10:59:56Z</time>
      </trkpt>
      <trkpt lat="45.11429" lon="6.03772">
        <ele>1233.7</ele>
        <time>2026-08-25T10:59:57Z</time>
      </trkpt>
      <trkpt lat="45.11434" lon="6.03752">
        <ele>1232.4</ele>
        <time>2026-08-25T10:59:58Z</time>
      </trkpt>
      <trkpt lat="45.11438" lon="6.03731">
        <ele>1231.2</ele>
        <time>2026-08-25T10:59:59Z</time>
      </trkpt>
      <trkpt lat="45.11441" lon="6.0371">
        <ele>1230</ele>
        <time>2026-08-25T11:00:00Z</time>
      </trkpt>
      <trkpt lat="45.11444" lon="6.03688">
        <ele>1228.8</ele>
        <time>2026-08-25T11:00:01Z</time>
      </trkpt>
      <trkpt lat="45.11447" lon="6.03666">
        <ele>1227.5</ele>
        <time>2026-08-25T11:00:02Z</time>
      </trkpt>
      <trkpt lat="45.11448" lon="6.03643">
        <ele>1226.2</ele>
        <time>2026-08-25T11:00:03Z</time>
      </trkpt>
      <trkpt lat="45.11449" lon="6.03621">
        <ele>1225</ele>
        <time>2026-08-25T11:00:04Z</time>
      </trkpt>
      <trkpt lat="45.1145" lon="6.03599">
        <ele>1223.9</ele>
        <time>2026-08-25T11:00:05Z</time>
      </trkpt>
      <trkpt lat="45.1145" lon="6.03579">
        <ele>1223</ele>
        <time>2026-08-25T11:00:06Z</time>
      </trkpt>
      <trkpt lat="45.11449" lon="6.03561">
        <ele>1222.3</ele>
        <time>2026-08-25T11:00:07Z</time>
      </trkpt>
      <trkpt lat="45.11447" lon="6.03546">
        <ele>1221.9</ele>
        <time>2026-08-25T11:00:08Z</time>
      </trkpt>
      <trkpt lat="45.11444" lon="6.03534">
        <ele>1221.6</ele>
        <time>2026-08-25T11:00:09Z</time>
      </trkpt>
      <trkpt lat="45.11442" lon="6.03524">
        <ele>1221.3</ele>
        <time>2026-08-25T11:00:10Z</time>
      </trkpt>
      <trkpt lat="45.11444" lon="6.03515">
        <ele>1221</ele>
        <time>2026-08-25T11:00:11Z</time>
      </trkpt>
      <trkpt lat="45.11449" lon="6.03511">
        <ele>1220.7</ele>
        <time>2026-08-25T11:00:12Z</time>
      </trkpt>
      <trkpt lat="45.11453" lon="6.03514">
        <ele>1220.4</ele>
        <time>2026-08-25T11:00:13Z</time>
      </trkpt>
      <trkpt lat="45.11454" lon="6.0352">
        <ele>1220</ele>
        <time>2026-08-25T11:00:14Z</time>
      </trkpt>
      <trkpt lat="45.11455" lon="6.03529">
        <ele>1219.5</ele>
        <time>2026-08-25T11:00:15Z</time>
      </trkpt>
      <trkpt lat="45.11456" lon="6.03539">
        <ele>1219</ele>
        <time>2026-08-25T11:00:16Z</time>
      </trkpt>
      <trkpt lat="45.11457" lon="6.0355">
        <ele>1218.3</ele>
        <time>2026-08-25T11:00:17Z</time>
      </trkpt>
      <trkpt lat="45.11458" lon="6.03562">
        <ele>1217.6</ele>
        <time>2026-08-25T11:00:18Z</time>
      </trkpt>
      <trkpt lat="45.1146" lon="6.03575">
        <ele>1216.9</ele>
        <time>2026-08-25T11:00:19Z</time>
      </trkpt>
      <trkpt lat="45.11461" lon="6.03589">
        <ele>1216.1</ele>
        <time>2026-08-25T11:00:20Z</time>
      </trkpt>
      <trkpt lat="45.11462" lon="6.03604">
        <ele>1215.3</ele>
        <time>2026-08-25T11:00:21Z</time>
      </trkpt>
      <trkpt lat="45.11464" lon="6.0362">
        <ele>1214.3</ele>
        <time>2026-08-25T11:00:22Z</time>
      </trkpt>
      <trkpt lat="45.11465" lon="6.03637">
        <ele>1213.3</ele>
        <time>2026-08-25T11:00:23Z</time>
      </trkpt>
      <trkpt lat="45.11466" lon="6.03654">
        <ele>1212.2</ele>
        <time>2026-08-25T11:00:24Z</time>
      </trkpt>
      <trkpt lat="45.11467" lon="6.03671">
        <ele>1210.9</ele>
        <time>2026-08-25T11:00:25Z</time>
      </trkpt>
      <trkpt lat="45.11468" lon="6.03689">
        <ele>1209.7</ele>
        <time>2026-08-25T11:00:26Z</time>
      </trkpt>
      <trkpt lat="45.11469" lon="6.03707">
        <ele>1208.5</ele>
        <time>2026-08-25T11:00:27Z</time>
      </trkpt>
      <trkpt lat="45.1147" lon="6.03727">
        <ele>1207.2</ele>
        <time>2026-08-25T11:00:28Z</time>
      </trkpt>
      <trkpt lat="45.1147" lon="6.03746">
        <ele>1205.9</ele>
        <time>2026-08-25T11:00:29Z</time>
      </trkpt>
      <trkpt lat="45.11471" lon="6.03766">
        <ele>1204.6</ele>
        <time>2026-08-25T11:00:30Z</time>
      </trkpt>
      <trkpt lat="45.11471" lon="6.03786">
        <ele>1203.4</ele>
        <time>2026-08-25T11:00:31Z</time>
      </trkpt>
      <trkpt lat="45.1147" lon="6.03806">
        <ele>1202.4</ele>
        <time>2026-08-25T11:00:32Z</time>
      </trkpt>
      <trkpt lat="45.11469" lon="6.03826">
        <ele>1201.4</ele>
        <time>2026-08-25T11:00:33Z</time>
      </trkpt>
      <trkpt lat="45.11467" lon="6.03847">
        <ele>1200.3</ele>
        <time>2026-08-25T11:00:34Z</time>
      </trkpt>
      <trkpt lat="45.11463" lon="6.03867">
        <ele>1199.3</ele>
        <time>2026-08-25T11:00:35Z</time>
      </trkpt>
      <trkpt lat="45.1146" lon="6.03887">
        <ele>1198.1</ele>
        <time>2026-08-25T11:00:36Z</time>
      </trkpt>
      <trkpt lat="45.11457" lon="6.03906">
        <ele>1197</ele>
        <time>2026-08-25T11:00:37Z</time>
      </trkpt>
      <trkpt lat="45.11454" lon="6.03927">
        <ele>1195.9</ele>
        <time>2026-08-25T11:00:38Z</time>
      </trkpt>
      <trkpt lat="45.11451" lon="6.03947">
        <ele>1194.8</ele>
        <time>2026-08-25T11:00:39Z</time>
      </trkpt>
      <trkpt lat="45.11448" lon="6.03967">
        <ele>1193.7</ele>
        <time>2026-08-25T11:00:40Z</time>
      </trkpt>
      <trkpt lat="45.11445" lon="6.03988">
        <ele>1192.5</ele>
        <time>2026-08-25T11:00:41Z</time>
      </trkpt>
      <trkpt lat="45.11443" lon="6.04008">
        <ele>1191.3</ele>
        <time>2026-08-25T11:00:42Z</time>
      </trkpt>
      <trkpt lat="45.1144" lon="6.04029">
        <ele>1190.1</ele>
        <time>2026-08-25T11:00:43Z</time>
      </trkpt>
      <trkpt lat="45.11438" lon="6.0405">
        <ele>1189</ele>
        <time>2026-08-25T11:00:44Z</time>
      </trkpt>
      <trkpt lat="45.11435" lon="6.04072">
        <ele>1187.8</ele>
        <time>2026-08-25T11:00:45Z</time>
      </trkpt>
      <trkpt lat="45.11433" lon="6.04093">
        <ele>1186.8</ele>
        <time>2026-08-25T11:00:46Z</time>
      </trkpt>
      <trkpt lat="45.1143" lon="6.04114">
        <ele>1185.9</ele>
        <time>2026-08-25T11:00:47Z</time>
      </trkpt>
      <trkpt lat="45.11428" lon="6.04135">
        <ele>1185.1</ele>
        <time>2026-08-25T11:00:48Z</time>
      </trkpt>
      <trkpt lat="45.11425" lon="6.04153">
        <ele>1184.6</ele>
        <time>2026-08-25T11:00:49Z</time>
      </trkpt>
      <trkpt lat="45.11422" lon="6.0417">
        <ele>1184.2</ele>
        <time>2026-08-25T11:00:50Z</time>
      </trkpt>
      <trkpt lat="45.11423" lon="6.04185">
        <ele>1183.9</ele>
        <time>2026-08-25T11:00:51Z</time>
      </trkpt>
      <trkpt lat="45.11427" lon="6.04198">
        <ele>1183.5</ele>
        <time>2026-08-25T11:00:52Z</time>
      </trkpt>
      <trkpt lat="45.11435" lon="6.04203">
        <ele>1183.1</ele>
        <time>2026-08-25T11:00:53Z</time>
      </trkpt>
      <trkpt lat="45.11444" lon="6.04202">
        <ele>1182.5</ele>
        <time>2026-08-25T11:00:54Z</time>
      </trkpt>
      <trkpt lat="45.1145" lon="6.04194">
        <ele>1181.8</ele>
        <time>2026-08-25T11:00:55Z</time>
      </trkpt>
      <trkpt lat="45.11454" lon="6.04183">
        <ele>1181.1</ele>
        <time>2026-08-25T11:00:56Z</time>
      </trkpt>
      <trkpt lat="45.11455" lon="6.04171">
        <ele>1180.4</ele>
        <time>2026-08-25T11:00:57Z</time>
      </trkpt>
      <trkpt lat="45.11456" lon="6.04157">
        <ele>1179.6</ele>
        <time>2026-08-25T11:00:58Z</time>
      </trkpt>
      <trkpt lat="45.11457" lon="6.04144">
        <ele>1178.7</ele>
        <time>2026-08-25T11:00:59Z</time>
      </trkpt>
      <trkpt lat="45.11458" lon="6.0413">
        <ele>1177.9</ele>
        <time>2026-08-25T11:01:00Z</time>
      </trkpt>
      <trkpt lat="45.1146" lon="6.04115">
        <ele>1176.9</ele>
        <time>2026-08-25T11:01:01Z</time>
      </trkpt>
      <trkpt lat="45.11462" lon="6.041">
        <ele>1175.8</ele>
        <time>2026-08-25T11:01:02Z</time>
      </trkpt>
      <trkpt lat="45.11465" lon="6.04084">
        <ele>1174.8</ele>
        <time>2026-08-25T11:01:03Z</time>
      </trkpt>
      <trkpt lat="45.11468" lon="6.04069">
        <ele>1173.8</ele>
        <time>2026-08-25T11:01:04Z</time>
      </trkpt>
      <trkpt lat="45.11473" lon="6.04054">
        <ele>1172.7</ele>
        <time>2026-08-25T11:01:05Z</time>
      </trkpt>
      <trkpt lat="45.11477" lon="6.04038">
        <ele>1171.6</ele>
        <time>2026-08-25T11:01:06Z</time>
      </trkpt>
      <trkpt lat="45.11482" lon="6.04021">
        <ele>1170.4</ele>
        <time>2026-08-25T11:01:07Z</time>
      </trkpt>
      <trkpt lat="45.11487" lon="6.04005">
        <ele>1169.2</ele>
        <time>2026-08-25T11:01:08Z</time>
      </trkpt>
      <trkpt lat="45.11492" lon="6.03988">
        <ele>1168</ele>
        <time>2026-08-25T11:01:09Z</time>
      </trkpt>
      <trkpt lat="45.11497" lon="6.03971">
        <ele>1166.8</ele>
        <time>2026-08-25T11:01:10Z</time>
      </trkpt>
      <trkpt lat="45.11503" lon="6.03954">
        <ele>1165.4</ele>
        <time>2026-08-25T11:01:11Z</time>
      </trkpt>
      <trkpt lat="45.11509" lon="6.03936">
        <ele>1164</ele>
        <time>2026-08-25T11:01:12Z</time>
      </trkpt>
      <trkpt lat="45.11514" lon="6.03918">
        <ele>1162.6</ele>
        <time>2026-08-25T11:01:13Z</time>
      </trkpt>
      <trkpt lat="45.1152" lon="6.03899">
        <ele>1161.2</ele>
        <time>2026-08-25T11:01:14Z</time>
      </trkpt>
      <trkpt lat="45.11525" lon="6.03881">
        <ele>1159.7</ele>
        <time>2026-08-25T11:01:15Z</time>
      </trkpt>
      <trkpt lat="45.1153" lon="6.03861">
        <ele>1158.1</ele>
        <time>2026-08-25T11:01:16Z</time>
      </trkpt>
      <trkpt lat="45.11535" lon="6.03841">
        <ele>1156.6</ele>
        <time>2026-08-25T11:01:17Z</time>
      </trkpt>
      <trkpt lat="45.1154" lon="6.03821">
        <ele>1155.2</ele>
        <time>2026-08-25T11:01:18Z</time>
      </trkpt>
      <trkpt lat="45.11544" lon="6.03801">
        <ele>1153.9</ele>
        <time>2026-08-25T11:01:19Z</time>
      </trkpt>
      <trkpt lat="45.11549" lon="6.0378">
        <ele>1152.5</ele>
        <time>2026-08-25T11:01:20Z</time>
      </trkpt>
      <trkpt lat="45.11553" lon="6.03759">
        <ele>1151.1</ele>
        <time>2026-08-25T11:01:21Z</time>
      </trkpt>
      <trkpt lat="45.11556" lon="6.03738">
        <ele>1149.7</ele>
        <time>2026-08-25T11:01:22Z</time>
      </trkpt>
      <trkpt lat="45.11559" lon="6.03716">
        <ele>1148.4</ele>
        <time>2026-08-25T11:01:23Z</time>
      </trkpt>
      <trkpt lat="45.11561" lon="6.03695">
        <ele>1147.2</ele>
        <time>2026-08-25T11:01:24Z</time>
      </trkpt>
      <trkpt lat="45.11563" lon="6.03672">
        <ele>1146.2</ele>
        <time>2026-08-25T11:01:25Z</time>
      </trkpt>
      <trkpt lat="45.11562" lon="6.03649">
        <ele>1145.4</ele>
        <time>2026-08-25T11:01:26Z</time>
      </trkpt>
      <trkpt lat="45.1156" lon="6.03627">
        <ele>1144.7</ele>
        <time>2026-08-25T11:01:27Z</time>
      </trkpt>
      <trkpt lat="45.11555" lon="6.03607">
        <ele>1144.1</ele>
        <time>2026-08-25T11:01:28Z</time>
      </trkpt>
      <trkpt lat="45.1155" lon="6.0359">
        <ele>1143.5</ele>
        <time>2026-08-25T11:01:29Z</time>
      </trkpt>
      <trkpt lat="45.11544" lon="6.03576">
        <ele>1143.1</ele>
        <time>2026-08-25T11:01:30Z</time>
      </trkpt>
      <trkpt lat="45.11539" lon="6.03563">
        <ele>1142.7</ele>
        <time>2026-08-25T11:01:31Z</time>
      </trkpt>
      <trkpt lat="45.11537" lon="6.03551">
        <ele>1142.4</ele>
        <time>2026-08-25T11:01:32Z</time>
      </trkpt>
      <trkpt lat="45.11538" lon="6.03539">
        <ele>1141.9</ele>
        <time>2026-08-25T11:01:33Z</time>
      </trkpt>
      <trkpt lat="45.11543" lon="6.03531">
        <ele>1141.3</ele>
        <time>2026-08-25T11:01:34Z</time>
      </trkpt>
      <trkpt lat="45.1155" lon="6.03529">
        <ele>1140.5</ele>
        <time>2026-08-25T11:01:35Z</time>
      </trkpt>
      <trkpt lat="45.11554" lon="6.03535">
        <ele>1139.7</ele>
        <time>2026-08-25T11:01:36Z</time>
      </trkpt>
      <trkpt lat="45.11557" lon="6.03545">
        <ele>1138.5</ele>
        <time>2026-08-25T11:01:37Z</time>
      </trkpt>
      <trkpt lat="45.1156" lon="6.03556">
        <ele>1137.1</ele>
        <time>2026-08-25T11:01:38Z</time>
      </trkpt>
      <trkpt lat="45.11565" lon="6.03568">
        <ele>1135.6</ele>
        <time>2026-08-25T11:01:39Z</time>
      </trkpt>
      <trkpt lat="45.11569" lon="6.03581">
        <ele>1134</ele>
        <time>2026-08-25T11:01:40Z</time>
      </trkpt>
      <trkpt lat="45.11574" lon="6.03596">
        <ele>1132.3</ele>
        <time>2026-08-25T11:01:41Z</time>
      </trkpt>
      <trkpt lat="45.11578" lon="6.03612">
        <ele>1130.5</ele>
        <time>2026-08-25T11:01:42Z</time>
      </trkpt>
      <trkpt lat="45.11581" lon="6.03629">
        <ele>1128.8</ele>
        <time>2026-08-25T11:01:43Z</time>
      </trkpt>
      <trkpt lat="45.11584" lon="6.03647">
        <ele>1126.9</ele>
        <time>2026-08-25T11:01:44Z</time>
      </trkpt>
      <trkpt lat="45.11587" lon="6.03665">
        <ele>1125.2</ele>
        <time>2026-08-25T11:01:45Z</time>
      </trkpt>
      <trkpt lat="45.11589" lon="6.03684">
        <ele>1123.4</ele>
        <time>2026-08-25T11:01:46Z</time>
      </trkpt>
      <trkpt lat="45.11592" lon="6.03705">
        <ele>1121.7</ele>
        <time>2026-08-25T11:01:47Z</time>
      </trkpt>
      <trkpt lat="45.11594" lon="6.03725">
        <ele>1119.9</ele>
        <time>2026-08-25T11:01:48Z</time>
      </trkpt>
      <trkpt lat="45.11596" lon="6.03746">
        <ele>1118.2</ele>
        <time>2026-08-25T11:01:49Z</time>
      </trkpt>
      <trkpt lat="45.11598" lon="6.03766">
        <ele>1116.6</ele>
        <time>2026-08-25T11:01:50Z</time>
      </trkpt>
      <trkpt lat="45.11599" lon="6.03787">
        <ele>1115</ele>
        <time>2026-08-25T11:01:51Z</time>
      </trkpt>
      <trkpt lat="45.116" lon="6.03808">
        <ele>1113.3</ele>
        <time>2026-08-25T11:01:52Z</time>
      </trkpt>
      <trkpt lat="45.116" lon="6.0383">
        <ele>1111.5</ele>
        <time>2026-08-25T11:01:53Z</time>
      </trkpt>
      <trkpt lat="45.11599" lon="6.03852">
        <ele>1109.8</ele>
        <time>2026-08-25T11:01:54Z</time>
      </trkpt>
      <trkpt lat="45.11599" lon="6.03875">
        <ele>1108.1</ele>
        <time>2026-08-25T11:01:55Z</time>
      </trkpt>
      <trkpt lat="45.11598" lon="6.03897">
        <ele>1106.4</ele>
        <time>2026-08-25T11:01:56Z</time>
      </trkpt>
      <trkpt lat="45.11597" lon="6.0392">
        <ele>1104.7</ele>
        <time>2026-08-25T11:01:57Z</time>
      </trkpt>
      <trkpt lat="45.11597" lon="6.03943">
        <ele>1103</ele>
        <time>2026-08-25T11:01:58Z</time>
      </trkpt>
      <trkpt lat="45.11597" lon="6.03967">
        <ele>1101.4</ele>
        <time>2026-08-25T11:01:59Z</time>
      </trkpt>
      <trkpt lat="45.11598" lon="6.0399">
        <ele>1099.9</ele>
        <time>2026-08-25T11:02:00Z</time>
      </trkpt>
      <trkpt lat="45.116" lon="6.04013">
        <ele>1098.4</ele>
        <time>2026-08-25T11:02:01Z</time>
      </trkpt>
      <trkpt lat="45.11601" lon="6.04037">
        <ele>1096.9</ele>
        <time>2026-08-25T11:02:02Z</time>
      </trkpt>
      <trkpt lat="45.11602" lon="6.04061">
        <ele>1095.4</ele>
        <time>2026-08-25T11:02:03Z</time>
      </trkpt>
      <trkpt lat="45.11603" lon="6.04084">
        <ele>1094</ele>
        <time>2026-08-25T11:02:04Z</time>
      </trkpt>
      <trkpt lat="45.11606" lon="6.04106">
        <ele>1092.7</ele>
        <time>2026-08-25T11:02:05Z</time>
      </trkpt>
      <trkpt lat="45.11611" lon="6.04126">
        <ele>1091.5</ele>
        <time>2026-08-25T11:02:06Z</time>
      </trkpt>
      <trkpt lat="45.11617" lon="6.04143">
        <ele>1090.3</ele>
        <time>2026-08-25T11:02:07Z</time>
      </trkpt>
      <trkpt lat="45.11623" lon="6.04159">
        <ele>1089.3</ele>
        <time>2026-08-25T11:02:08Z</time>
      </trkpt>
      <trkpt lat="45.11627" lon="6.04173">
        <ele>1088.4</ele>
        <time>2026-08-25T11:02:09Z</time>
      </trkpt>
      <trkpt lat="45.1163" lon="6.04187">
        <ele>1087.4</ele>
        <time>2026-08-25T11:02:10Z</time>
      </trkpt>
      <trkpt lat="45.11636" lon="6.04196">
        <ele>1086.8</ele>
        <time>2026-08-25T11:02:11Z</time>
      </trkpt>
      <trkpt lat="45.11642" lon="6.04199">
        <ele>1086.1</ele>
        <time>2026-08-25T11:02:12Z</time>
      </trkpt>
      <trkpt lat="45.11648" lon="6.04196">
        <ele>1085.4</ele>
        <time>2026-08-25T11:02:13Z</time>
      </trkpt>
      <trkpt lat="45.11651" lon="6.04192">
        <ele>1085</ele>
        <time>2026-08-25T11:02:14Z</time>
      </trkpt>
      <trkpt lat="45.11651" lon="6.04187">
        <ele>1084.7</ele>
        <time>2026-08-25T11:02:15Z</time>
      </trkpt>
      <trkpt lat="45.11651" lon="6.04182">
        <ele>1084.4</ele>
        <time>2026-08-25T11:02:16Z</time>
      </trkpt>
      <trkpt lat="45.11651" lon="6.04179">
        <ele>1084.1</ele>
        <time>2026-08-25T11:02:17Z</time>
      </trkpt>
      <trkpt lat="45.11651" lon="6.04175">
        <ele>1083.9</ele>
        <time>2026-08-25T11:02:18Z</time>
      </trkpt>
      <trkpt lat="45.11651" lon="6.04171">
        <ele>1083.6</ele>
        <time>2026-08-25T11:02:19Z</time>
      </trkpt>
      <trkpt lat="45.1165" lon="6.04167">
        <ele>1083.3</ele>
        <time>2026-08-25T11:02:20Z</time>
      </trkpt>
      <trkpt lat="45.11649" lon="6.04162">
        <ele>1083</ele>
        <time>2026-08-25T11:02:21Z</time>
      </trkpt>
      <trkpt lat="45.11647" lon="6.04157">
        <ele>1082.6</ele>
        <time>2026-08-25T11:02:22Z</time>
      </trkpt>
      <trkpt lat="45.11646" lon="6.04151">
        <ele>1082.2</ele>
        <time>2026-08-25T11:02:23Z</time>
      </trkpt>
      <trkpt lat="45.11644" lon="6.04143">
        <ele>1081.7</ele>
        <time>2026-08-25T11:02:24Z</time>
      </trkpt>
      <trkpt lat="45.11643" lon="6.04136">
        <ele>1081.3</ele>
        <time>2026-08-25T11:02:25Z</time>
      </trkpt>
      <trkpt lat="45.11643" lon="6.04129">
        <ele>1080.9</ele>
        <time>2026-08-25T11:02:26Z</time>
      </trkpt>
      <trkpt lat="45.11642" lon="6.0412">
        <ele>1080.4</ele>
        <time>2026-08-25T11:02:27Z</time>
      </trkpt>
      <trkpt lat="45.1164" lon="6.0411">
        <ele>1079.8</ele>
        <time>2026-08-25T11:02:28Z</time>
      </trkpt>
      <trkpt lat="45.1164" lon="6.04099">
        <ele>1079.2</ele>
        <time>2026-08-25T11:02:29Z</time>
      </trkpt>
      <trkpt lat="45.11641" lon="6.04086">
        <ele>1078.6</ele>
        <time>2026-08-25T11:02:30Z</time>
      </trkpt>
      <trkpt lat="45.11642" lon="6.04074">
        <ele>1077.9</ele>
        <time>2026-08-25T11:02:31Z</time>
      </trkpt>
      <trkpt lat="45.11644" lon="6.0406">
        <ele>1077.2</ele>
        <time>2026-08-25T11:02:32Z</time>
      </trkpt>
      <trkpt lat="45.11645" lon="6.04045">
        <ele>1076.3</ele>
        <time>2026-08-25T11:02:33Z</time>
      </trkpt>
      <trkpt lat="45.11647" lon="6.0403">
        <ele>1075.5</ele>
        <time>2026-08-25T11:02:34Z</time>
      </trkpt>
      <trkpt lat="45.11648" lon="6.04015">
        <ele>1074.7</ele>
        <time>2026-08-25T11:02:35Z</time>
      </trkpt>
      <trkpt lat="45.1165" lon="6.03999">
        <ele>1073.8</ele>
        <time>2026-08-25T11:02:36Z</time>
      </trkpt>
      <trkpt lat="45.11652" lon="6.03983">
        <ele>1073</ele>
        <time>2026-08-25T11:02:37Z</time>
      </trkpt>
      <trkpt lat="45.11654" lon="6.03967">
        <ele>1072.1</ele>
        <time>2026-08-25T11:02:38Z</time>
      </trkpt>
      <trkpt lat="45.11655" lon="6.0395">
        <ele>1071.2</ele>
        <time>2026-08-25T11:02:39Z</time>
      </trkpt>
      <trkpt lat="45.11657" lon="6.03933">
        <ele>1070.3</ele>
        <time>2026-08-25T11:02:40Z</time>
      </trkpt>
      <trkpt lat="45.11659" lon="6.03916">
        <ele>1069.4</ele>
        <time>2026-08-25T11:02:41Z</time>
      </trkpt>
      <trkpt lat="45.11661" lon="6.03898">
        <ele>1068.5</ele>
        <time>2026-08-25T11:02:42Z</time>
      </trkpt>
      <trkpt lat="45.11662" lon="6.0388">
        <ele>1067.4</ele>
        <time>2026-08-25T11:02:43Z</time>
      </trkpt>
      <trkpt lat="45.11665" lon="6.03862">
        <ele>1066.4</ele>
        <time>2026-08-25T11:02:44Z</time>
      </trkpt>
      <trkpt lat="45.11668" lon="6.03844">
        <ele>1065.4</ele>
        <time>2026-08-25T11:02:45Z</time>
      </trkpt>
      <trkpt lat="45.11671" lon="6.03826">
        <ele>1064.4</ele>
        <time>2026-08-25T11:02:46Z</time>
      </trkpt>
      <trkpt lat="45.11674" lon="6.03807">
        <ele>1063.4</ele>
        <time>2026-08-25T11:02:47Z</time>
      </trkpt>
      <trkpt lat="45.11676" lon="6.03788">
        <ele>1062.4</ele>
        <time>2026-08-25T11:02:48Z</time>
      </trkpt>
      <trkpt lat="45.1168" lon="6.0377">
        <ele>1061.5</ele>
        <time>2026-08-25T11:02:49Z</time>
      </trkpt>
      <trkpt lat="45.11684" lon="6.03751">
        <ele>1060.5</ele>
        <time>2026-08-25T11:02:50Z</time>
      </trkpt>
      <trkpt lat="45.11687" lon="6.03731">
        <ele>1059.6</ele>
        <time>2026-08-25T11:02:51Z</time>
      </trkpt>
      <trkpt lat="45.11688" lon="6.03712">
        <ele>1058.7</ele>
        <time>2026-08-25T11:02:52Z</time>
      </trkpt>
      <trkpt lat="45.11687" lon="6.03692">
        <ele>1057.9</ele>
        <time>2026-08-25T11:02:53Z</time>
      </trkpt>
      <trkpt lat="45.11685" lon="6.03673">
        <ele>1057.1</ele>
        <time>2026-08-25T11:02:54Z</time>
      </trkpt>
      <trkpt lat="45.11681" lon="6.03654">
        <ele>1056.3</ele>
        <time>2026-08-25T11:02:55Z</time>
      </trkpt>
      <trkpt lat="45.11677" lon="6.03635">
        <ele>1055.7</ele>
        <time>2026-08-25T11:02:56Z</time>
      </trkpt>
      <trkpt lat="45.11673" lon="6.03618">
        <ele>1055.2</ele>
        <time>2026-08-25T11:02:57Z</time>
      </trkpt>
      <trkpt lat="45.1167" lon="6.03602">
        <ele>1054.8</ele>
        <time>2026-08-25T11:02:58Z</time>
      </trkpt>
      <trkpt lat="45.11668" lon="6.03588">
        <ele>1054.5</ele>
        <time>2026-08-25T11:02:59Z</time>
      </trkpt>
      <trkpt lat="45.11665" lon="6.03577">
        <ele>1054.2</ele>
        <time>2026-08-25T11:03:00Z</time>
      </trkpt>
      <trkpt lat="45.11663" lon="6.03568">
        <ele>1053.8</ele>
        <time>2026-08-25T11:03:01Z</time>
      </trkpt>
      <trkpt lat="45.11664" lon="6.0356">
        <ele>1053.5</ele>
        <time>2026-08-25T11:03:02Z</time>
      </trkpt>
      <trkpt lat="45.11668" lon="6.03554">
        <ele>1053</ele>
        <time>2026-08-25T11:03:03Z</time>
      </trkpt>
      <trkpt lat="45.11673" lon="6.03557">
        <ele>1052.5</ele>
        <time>2026-08-25T11:03:04Z</time>
      </trkpt>
      <trkpt lat="45.11676" lon="6.03563">
        <ele>1051.9</ele>
        <time>2026-08-25T11:03:05Z</time>
      </trkpt>
      <trkpt lat="45.11677" lon="6.03573">
        <ele>1051.1</ele>
        <time>2026-08-25T11:03:06Z</time>
      </trkpt>
      <trkpt lat="45.11679" lon="6.03584">
        <ele>1050</ele>
        <time>2026-08-25T11:03:07Z</time>
      </trkpt>
      <trkpt lat="45.11681" lon="6.03596">
        <ele>1048.8</ele>
        <time>2026-08-25T11:03:08Z</time>
      </trkpt>
      <trkpt lat="45.11686" lon="6.0361">
        <ele>1047.4</ele>
        <time>2026-08-25T11:03:09Z</time>
      </trkpt>
      <trkpt lat="45.11691" lon="6.03625">
        <ele>1045.9</ele>
        <time>2026-08-25T11:03:10Z</time>
      </trkpt>
      <trkpt lat="45.11696" lon="6.03641">
        <ele>1044.4</ele>
        <time>2026-08-25T11:03:11Z</time>
      </trkpt>
      <trkpt lat="45.11701" lon="6.03658">
        <ele>1042.8</ele>
        <time>2026-08-25T11:03:12Z</time>
      </trkpt>
      <trkpt lat="45.11705" lon="6.03676">
        <ele>1041.2</ele>
        <time>2026-08-25T11:03:13Z</time>
      </trkpt>
      <trkpt lat="45.11709" lon="6.03694">
        <ele>1039.6</ele>
        <time>2026-08-25T11:03:14Z</time>
      </trkpt>
      <trkpt lat="45.11713" lon="6.03712">
        <ele>1037.8</ele>
        <time>2026-08-25T11:03:15Z</time>
      </trkpt>
      <trkpt lat="45.11716" lon="6.03732">
        <ele>1035.9</ele>
        <time>2026-08-25T11:03:16Z</time>
      </trkpt>
      <trkpt lat="45.11719" lon="6.03752">
        <ele>1033.9</ele>
        <time>2026-08-25T11:03:17Z</time>
      </trkpt>
      <trkpt lat="45.11722" lon="6.03774">
        <ele>1032</ele>
        <time>2026-08-25T11:03:18Z</time>
      </trkpt>
      <trkpt lat="45.11725" lon="6.03796">
        <ele>1030</ele>
        <time>2026-08-25T11:03:19Z</time>
      </trkpt>
      <trkpt lat="45.11729" lon="6.03818">
        <ele>1028</ele>
        <time>2026-08-25T11:03:20Z</time>
      </trkpt>
      <trkpt lat="45.11733" lon="6.03841">
        <ele>1026.1</ele>
        <time>2026-08-25T11:03:21Z</time>
      </trkpt>
      <trkpt lat="45.11737" lon="6.03863">
        <ele>1024.2</ele>
        <time>2026-08-25T11:03:22Z</time>
      </trkpt>
      <trkpt lat="45.11741" lon="6.03885">
        <ele>1022.6</ele>
        <time>2026-08-25T11:03:23Z</time>
      </trkpt>
      <trkpt lat="45.11745" lon="6.03906">
        <ele>1021</ele>
        <time>2026-08-25T11:03:24Z</time>
      </trkpt>
      <trkpt lat="45.1175" lon="6.03927">
        <ele>1019.4</ele>
        <time>2026-08-25T11:03:25Z</time>
      </trkpt>
      <trkpt lat="45.11756" lon="6.03946">
        <ele>1018</ele>
        <time>2026-08-25T11:03:26Z</time>
      </trkpt>
      <trkpt lat="45.11762" lon="6.03965">
        <ele>1016.7</ele>
        <time>2026-08-25T11:03:27Z</time>
      </trkpt>
      <trkpt lat="45.11769" lon="6.03982">
        <ele>1015.5</ele>
        <time>2026-08-25T11:03:28Z</time>
      </trkpt>
      <trkpt lat="45.11775" lon="6.03999">
        <ele>1014.5</ele>
        <time>2026-08-25T11:03:29Z</time>
      </trkpt>
      <trkpt lat="45.11781" lon="6.04015">
        <ele>1013.5</ele>
        <time>2026-08-25T11:03:30Z</time>
      </trkpt>
      <trkpt lat="45.11785" lon="6.04032">
        <ele>1012.4</ele>
        <time>2026-08-25T11:03:31Z</time>
      </trkpt>
      <trkpt lat="45.11789" lon="6.0405">
        <ele>1011.4</ele>
        <time>2026-08-25T11:03:32Z</time>
      </trkpt>
      <trkpt lat="45.11792" lon="6.04067">
        <ele>1010.5</ele>
        <time>2026-08-25T11:03:33Z</time>
      </trkpt>
      <trkpt lat="45.11796" lon="6.04084">
        <ele>1009.6</ele>
        <time>2026-08-25T11:03:34Z</time>
      </trkpt>
      <trkpt lat="45.11801" lon="6.04099">
        <ele>1008.8</ele>
        <time>2026-08-25T11:03:35Z</time>
      </trkpt>
      <trkpt lat="45.11808" lon="6.04113">
        <ele>1007.9</ele>
        <time>2026-08-25T11:03:36Z</time>
      </trkpt>
      <trkpt lat="45.11817" lon="6.04126">
        <ele>1006.9</ele>
        <time>2026-08-25T11:03:37Z</time>
      </trkpt>
      <trkpt lat="45.11827" lon="6.04136">
        <ele>1005.8</ele>
        <time>2026-08-25T11:03:38Z</time>
      </trkpt>
      <trkpt lat="45.11839" lon="6.04145">
        <ele>1004.6</ele>
        <time>2026-08-25T11:03:39Z</time>
      </trkpt>
      <trkpt lat="45.11851" lon="6.04151">
        <ele>1003.4</ele>
        <time>2026-08-25T11:03:40Z</time>
      </trkpt>
      <trkpt lat="45.11865" lon="6.04155">
        <ele>1002.5</ele>
        <time>2026-08-25T11:03:41Z</time>
      </trkpt>
      <trkpt lat="45.11879" lon="6.04156">
        <ele>1002.1</ele>
        <time>2026-08-25T11:03:42Z</time>
      </trkpt>
      <trkpt lat="45.11891" lon="6.04154">
        <ele>1001.8</ele>
        <time>2026-08-25T11:03:43Z</time>
      </trkpt>
      <trkpt lat="45.11901" lon="6.04148">
        <ele>1001.2</ele>
        <time>2026-08-25T11:03:44Z</time>
      </trkpt>
      <trkpt lat="45.11911" lon="6.04141">
        <ele>1000.4</ele>
        <time>2026-08-25T11:03:45Z</time>
      </trkpt>
      <trkpt lat="45.1192" lon="6.04131">
        <ele>999.4</ele>
        <time>2026-08-25T11:03:46Z</time>
      </trkpt>
      <trkpt lat="45.1193" lon="6.04122">
        <ele>998.3</ele>
        <time>2026-08-25T11:03:47Z</time>
      </trkpt>
      <trkpt lat="45.11941" lon="6.04111">
        <ele>997.2</ele>
        <time>2026-08-25T11:03:48Z</time>
      </trkpt>
      <trkpt lat="45.11951" lon="6.04101">
        <ele>996</ele>
        <time>2026-08-25T11:03:49Z</time>
      </trkpt>
      <trkpt lat="45.11963" lon="6.04091">
        <ele>994.7</ele>
        <time>2026-08-25T11:03:50Z</time>
      </trkpt>
      <trkpt lat="45.11976" lon="6.04084">
        <ele>993.2</ele>
        <time>2026-08-25T11:03:51Z</time>
      </trkpt>
      <trkpt lat="45.1199" lon="6.0408">
        <ele>991.8</ele>
        <time>2026-08-25T11:03:52Z</time>
      </trkpt>
      <trkpt lat="45.12004" lon="6.04079">
        <ele>990.6</ele>
        <time>2026-08-25T11:03:53Z</time>
      </trkpt>
      <trkpt lat="45.12017" lon="6.0408">
        <ele>989.4</ele>
        <time>2026-08-25T11:03:54Z</time>
      </trkpt>
      <trkpt lat="45.1203" lon="6.04083">
        <ele>988.7</ele>
        <time>2026-08-25T11:03:55Z</time>
      </trkpt>
      <trkpt lat="45.12042" lon="6.0409">
        <ele>988.8</ele>
        <time>2026-08-25T11:03:56Z</time>
      </trkpt>
      <trkpt lat="45.12053" lon="6.04098">
        <ele>987.9</ele>
        <time>2026-08-25T11:03:57Z</time>
      </trkpt>
      <trkpt lat="45.12065" lon="6.04107">
        <ele>986.8</ele>
        <time>2026-08-25T11:03:58Z</time>
      </trkpt>
      <trkpt lat="45.12077" lon="6.04114">
        <ele>985.7</ele>
        <time>2026-08-25T11:03:59Z</time>
      </trkpt>
      <trkpt lat="45.12091" lon="6.04119">
        <ele>984.4</ele>
        <time>2026-08-25T11:04:00Z</time>
      </trkpt>
      <trkpt lat="45.12104" lon="6.04121">
        <ele>983.2</ele>
        <time>2026-08-25T11:04:01Z</time>
      </trkpt>
      <trkpt lat="45.12119" lon="6.04121">
        <ele>982</ele>
        <time>2026-08-25T11:04:02Z</time>
      </trkpt>
      <trkpt lat="45.12133" lon="6.04121">
        <ele>980.8</ele>
        <time>2026-08-25T11:04:03Z</time>
      </trkpt>
      <trkpt lat="45.12148" lon="6.04121">
        <ele>979.6</ele>
        <time>2026-08-25T11:04:04Z</time>
      </trkpt>
      <trkpt lat="45.12164" lon="6.04121">
        <ele>978.3</ele>
        <time>2026-08-25T11:04:05Z</time>
      </trkpt>
      <trkpt lat="45.12178" lon="6.04124">
        <ele>977.1</ele>
        <time>2026-08-25T11:04:06Z</time>
      </trkpt>
      <trkpt lat="45.12193" lon="6.0413">
        <ele>975.9</ele>
        <time>2026-08-25T11:04:07Z</time>
      </trkpt>
      <trkpt lat="45.12206" lon="6.04139">
        <ele>974.7</ele>
        <time>2026-08-25T11:04:08Z</time>
      </trkpt>
      <trkpt lat="45.12218" lon="6.0415">
        <ele>973.4</ele>
        <time>2026-08-25T11:04:09Z</time>
      </trkpt>
      <trkpt lat="45.1223" lon="6.04162">
        <ele>972.2</ele>
        <time>2026-08-25T11:04:10Z</time>
      </trkpt>
      <trkpt lat="45.12241" lon="6.04173">
        <ele>971</ele>
        <time>2026-08-25T11:04:11Z</time>
      </trkpt>
      <trkpt lat="45.12253" lon="6.04186">
        <ele>969.7</ele>
        <time>2026-08-25T11:04:12Z</time>
      </trkpt>
      <trkpt lat="45.12264" lon="6.042">
        <ele>968.5</ele>
        <time>2026-08-25T11:04:13Z</time>
      </trkpt>
      <trkpt lat="45.12275" lon="6.04215">
        <ele>967.3</ele>
        <time>2026-08-25T11:04:14Z</time>
      </trkpt>
      <trkpt lat="45.12286" lon="6.0423">
        <ele>966.1</ele>
        <time>2026-08-25T11:04:15Z</time>
      </trkpt>
      <trkpt lat="45.12296" lon="6.04246">
        <ele>964.8</ele>
        <time>2026-08-25T11:04:16Z</time>
      </trkpt>
      <trkpt lat="45.12306" lon="6.04261">
        <ele>963.6</ele>
        <time>2026-08-25T11:04:17Z</time>
      </trkpt>
      <trkpt lat="45.12316" lon="6.04275">
        <ele>962.4</ele>
        <time>2026-08-25T11:04:18Z</time>
      </trkpt>
      <trkpt lat="45.12327" lon="6.04289">
        <ele>961.2</ele>
        <time>2026-08-25T11:04:19Z</time>
      </trkpt>
      <trkpt lat="45.12339" lon="6.043">
        <ele>959.9</ele>
        <time>2026-08-25T11:04:20Z</time>
      </trkpt>
      <trkpt lat="45.12351" lon="6.04312">
        <ele>958.9</ele>
        <time>2026-08-25T11:04:21Z</time>
      </trkpt>
      <trkpt lat="45.12361" lon="6.04322">
        <ele>958</ele>
        <time>2026-08-25T11:04:22Z</time>
      </trkpt>
      <trkpt lat="45.1237" lon="6.04335">
        <ele>957.4</ele>
        <time>2026-08-25T11:04:23Z</time>
      </trkpt>
      <trkpt lat="45.12377" lon="6.04348">
        <ele>956.8</ele>
        <time>2026-08-25T11:04:24Z</time>
      </trkpt>
      <trkpt lat="45.12381" lon="6.04361">
        <ele>956.4</ele>
        <time>2026-08-25T11:04:25Z</time>
      </trkpt>
      <trkpt lat="45.12384" lon="6.04373">
        <ele>956</ele>
        <time>2026-08-25T11:04:26Z</time>
      </trkpt>
      <trkpt lat="45.12387" lon="6.04383">
        <ele>955.6</ele>
        <time>2026-08-25T11:04:27Z</time>
      </trkpt>
      <trkpt lat="45.12392" lon="6.04391">
        <ele>955.2</ele>
        <time>2026-08-25T11:04:28Z</time>
      </trkpt>
      <trkpt lat="45.12399" lon="6.04392">
        <ele>954.7</ele>
        <time>2026-08-25T11:04:29Z</time>
      </trkpt>
      <trkpt lat="45.12404" lon="6.04387">
        <ele>954.1</ele>
        <time>2026-08-25T11:04:30Z</time>
      </trkpt>
      <trkpt lat="45.12405" lon="6.04379">
        <ele>953.5</ele>
        <time>2026-08-25T11:04:31Z</time>
      </trkpt>
      <trkpt lat="45.12402" lon="6.04369">
        <ele>952.7</ele>
        <time>2026-08-25T11:04:32Z</time>
      </trkpt>
      <trkpt lat="45.12398" lon="6.0436">
        <ele>951.9</ele>
        <time>2026-08-25T11:04:33Z</time>
      </trkpt>
      <trkpt lat="45.12395" lon="6.04349">
        <ele>950.9</ele>
        <time>2026-08-25T11:04:34Z</time>
      </trkpt>
      <trkpt lat="45.1239" lon="6.04337">
        <ele>949.9</ele>
        <time>2026-08-25T11:04:35Z</time>
      </trkpt>
      <trkpt lat="45.12386" lon="6.04324">
        <ele>948.9</ele>
        <time>2026-08-25T11:04:36Z</time>
      </trkpt>
      <trkpt lat="45.12381" lon="6.0431">
        <ele>947.9</ele>
        <time>2026-08-25T11:04:37Z</time>
      </trkpt>
      <trkpt lat="45.12375" lon="6.04295">
        <ele>946.9</ele>
        <time>2026-08-25T11:04:38Z</time>
      </trkpt>
      <trkpt lat="45.12371" lon="6.04279">
        <ele>945.9</ele>
        <time>2026-08-25T11:04:39Z</time>
      </trkpt>
      <trkpt lat="45.12368" lon="6.04263">
        <ele>944.9</ele>
        <time>2026-08-25T11:04:40Z</time>
      </trkpt>
      <trkpt lat="45.12365" lon="6.04246">
        <ele>943.8</ele>
        <time>2026-08-25T11:04:41Z</time>
      </trkpt>
      <trkpt lat="45.12365" lon="6.04228">
        <ele>942.6</ele>
        <time>2026-08-25T11:04:42Z</time>
      </trkpt>
      <trkpt lat="45.12363" lon="6.04209">
        <ele>941.4</ele>
        <time>2026-08-25T11:04:43Z</time>
      </trkpt>
      <trkpt lat="45.1236" lon="6.0419">
        <ele>940.2</ele>
        <time>2026-08-25T11:04:44Z</time>
      </trkpt>
      <trkpt lat="45.12357" lon="6.04171">
        <ele>938.9</ele>
        <time>2026-08-25T11:04:45Z</time>
      </trkpt>
      <trkpt lat="45.12352" lon="6.04152">
        <ele>937.7</ele>
        <time>2026-08-25T11:04:46Z</time>
      </trkpt>
      <trkpt lat="45.12346" lon="6.04134">
        <ele>936.5</ele>
        <time>2026-08-25T11:04:47Z</time>
      </trkpt>
      <trkpt lat="45.12339" lon="6.04118">
        <ele>935.4</ele>
        <time>2026-08-25T11:04:48Z</time>
      </trkpt>
      <trkpt lat="45.12329" lon="6.04104">
        <ele>934.2</ele>
        <time>2026-08-25T11:04:49Z</time>
      </trkpt>
      <trkpt lat="45.12319" lon="6.0409">
        <ele>933</ele>
        <time>2026-08-25T11:04:50Z</time>
      </trkpt>
      <trkpt lat="45.12308" lon="6.04077">
        <ele>931.7</ele>
        <time>2026-08-25T11:04:51Z</time>
      </trkpt>
      <trkpt lat="45.12298" lon="6.04065">
        <ele>930.5</ele>
        <time>2026-08-25T11:04:52Z</time>
      </trkpt>
      <trkpt lat="45.12287" lon="6.04053">
        <ele>929.2</ele>
        <time>2026-08-25T11:04:53Z</time>
      </trkpt>
      <trkpt lat="45.12277" lon="6.04041">
        <ele>928.1</ele>
        <time>2026-08-25T11:04:54Z</time>
      </trkpt>
      <trkpt lat="45.12267" lon="6.04029">
        <ele>927.2</ele>
        <time>2026-08-25T11:04:55Z</time>
      </trkpt>
      <trkpt lat="45.12256" lon="6.04017">
        <ele>926.2</ele>
        <time>2026-08-25T11:04:56Z</time>
      </trkpt>
      <trkpt lat="45.12247" lon="6.04003">
        <ele>925.3</ele>
        <time>2026-08-25T11:04:57Z</time>
      </trkpt>
      <trkpt lat="45.12238" lon="6.03989">
        <ele>924.4</ele>
        <time>2026-08-25T11:04:58Z</time>
      </trkpt>
      <trkpt lat="45.12231" lon="6.03974">
        <ele>923.5</ele>
        <time>2026-08-25T11:04:59Z</time>
      </trkpt>
      <trkpt lat="45.12225" lon="6.03957">
        <ele>922.8</ele>
        <time>2026-08-25T11:05:00Z</time>
      </trkpt>
      <trkpt lat="45.12218" lon="6.03942">
        <ele>922</ele>
        <time>2026-08-25T11:05:01Z</time>
      </trkpt>
      <trkpt lat="45.12209" lon="6.03929">
        <ele>921.3</ele>
        <time>2026-08-25T11:05:02Z</time>
      </trkpt>
      <trkpt lat="45.12199" lon="6.0392">
        <ele>920.6</ele>
        <time>2026-08-25T11:05:03Z</time>
      </trkpt>
      <trkpt lat="45.12188" lon="6.03914">
        <ele>920.1</ele>
        <time>2026-08-25T11:05:04Z</time>
      </trkpt>
      <trkpt lat="45.12178" lon="6.0391">
        <ele>919.7</ele>
        <time>2026-08-25T11:05:05Z</time>
      </trkpt>
      <trkpt lat="45.12169" lon="6.03906">
        <ele>919.4</ele>
        <time>2026-08-25T11:05:06Z</time>
      </trkpt>
      <trkpt lat="45.12163" lon="6.03899">
        <ele>919.2</ele>
        <time>2026-08-25T11:05:07Z</time>
      </trkpt>
      <trkpt lat="45.12163" lon="6.03888">
        <ele>918.9</ele>
        <time>2026-08-25T11:05:08Z</time>
      </trkpt>
      <trkpt lat="45.12167" lon="6.03881">
        <ele>918.4</ele>
        <time>2026-08-25T11:05:09Z</time>
      </trkpt>
      <trkpt lat="45.12173" lon="6.0388">
        <ele>918</ele>
        <time>2026-08-25T11:05:10Z</time>
      </trkpt>
      <trkpt lat="45.1218" lon="6.03884">
        <ele>917.5</ele>
        <time>2026-08-25T11:05:11Z</time>
      </trkpt>
      <trkpt lat="45.12187" lon="6.0389">
        <ele>916.9</ele>
        <time>2026-08-25T11:05:12Z</time>
      </trkpt>
      <trkpt lat="45.12195" lon="6.03896">
        <ele>916.3</ele>
        <time>2026-08-25T11:05:13Z</time>
      </trkpt>
      <trkpt lat="45.12204" lon="6.03904">
        <ele>915.7</ele>
        <time>2026-08-25T11:05:14Z</time>
      </trkpt>
      <trkpt lat="45.12213" lon="6.03912">
        <ele>914.9</ele>
        <time>2026-08-25T11:05:15Z</time>
      </trkpt>
      <trkpt lat="45.12222" lon="6.03922">
        <ele>914.1</ele>
        <time>2026-08-25T11:05:16Z</time>
      </trkpt>
      <trkpt lat="45.12232" lon="6.03932">
        <ele>913.2</ele>
        <time>2026-08-25T11:05:17Z</time>
      </trkpt>
      <trkpt lat="45.12243" lon="6.03942">
        <ele>912.1</ele>
        <time>2026-08-25T11:05:18Z</time>
      </trkpt>
      <trkpt lat="45.12254" lon="6.03952">
        <ele>910.9</ele>
        <time>2026-08-25T11:05:19Z</time>
      </trkpt>
      <trkpt lat="45.12267" lon="6.03962">
        <ele>909.5</ele>
        <time>2026-08-25T11:05:20Z</time>
      </trkpt>
      <trkpt lat="45.1228" lon="6.03973">
        <ele>908.1</ele>
        <time>2026-08-25T11:05:21Z</time>
      </trkpt>
      <trkpt lat="45.12292" lon="6.03984">
        <ele>906.8</ele>
        <time>2026-08-25T11:05:22Z</time>
      </trkpt>
      <trkpt lat="45.12305" lon="6.03996">
        <ele>905.5</ele>
        <time>2026-08-25T11:05:23Z</time>
      </trkpt>
      <trkpt lat="45.12317" lon="6.04008">
        <ele>904.3</ele>
        <time>2026-08-25T11:05:24Z</time>
      </trkpt>
      <trkpt lat="45.1233" lon="6.0402">
        <ele>902.9</ele>
        <time>2026-08-25T11:05:25Z</time>
      </trkpt>
      <trkpt lat="45.12342" lon="6.04032">
        <ele>901.6</ele>
        <time>2026-08-25T11:05:26Z</time>
      </trkpt>
      <trkpt lat="45.12354" lon="6.04047">
        <ele>900.2</ele>
        <time>2026-08-25T11:05:27Z</time>
      </trkpt>
      <trkpt lat="45.12366" lon="6.04062">
        <ele>898.8</ele>
        <time>2026-08-25T11:05:28Z</time>
      </trkpt>
      <trkpt lat="45.12377" lon="6.04077">
        <ele>897.5</ele>
        <time>2026-08-25T11:05:29Z</time>
      </trkpt>
      <trkpt lat="45.12388" lon="6.04092">
        <ele>896.1</ele>
        <time>2026-08-25T11:05:30Z</time>
      </trkpt>
      <trkpt lat="45.12399" lon="6.04108">
        <ele>894.7</ele>
        <time>2026-08-25T11:05:31Z</time>
      </trkpt>
      <trkpt lat="45.1241" lon="6.04124">
        <ele>893.3</ele>
        <time>2026-08-25T11:05:32Z</time>
      </trkpt>
      <trkpt lat="45.1242" lon="6.04141">
        <ele>891.8</ele>
        <time>2026-08-25T11:05:33Z</time>
      </trkpt>
      <trkpt lat="45.1243" lon="6.0416">
        <ele>890.3</ele>
        <time>2026-08-25T11:05:34Z</time>
      </trkpt>
      <trkpt lat="45.12439" lon="6.04178">
        <ele>888.7</ele>
        <time>2026-08-25T11:05:35Z</time>
      </trkpt>
      <trkpt lat="45.12447" lon="6.04198">
        <ele>887.2</ele>
        <time>2026-08-25T11:05:36Z</time>
      </trkpt>
      <trkpt lat="45.12456" lon="6.04217">
        <ele>885.8</ele>
        <time>2026-08-25T11:05:37Z</time>
      </trkpt>
      <trkpt lat="45.12465" lon="6.04237">
        <ele>884.4</ele>
        <time>2026-08-25T11:05:38Z</time>
      </trkpt>
      <trkpt lat="45.12473" lon="6.04258">
        <ele>882.9</ele>
        <time>2026-08-25T11:05:39Z</time>
      </trkpt>
      <trkpt lat="45.12481" lon="6.04278">
        <ele>881.4</ele>
        <time>2026-08-25T11:05:40Z</time>
      </trkpt>
      <trkpt lat="45.12488" lon="6.04299">
        <ele>880.1</ele>
        <time>2026-08-25T11:05:41Z</time>
      </trkpt>
      <trkpt lat="45.12496" lon="6.04318">
        <ele>878.9</ele>
        <time>2026-08-25T11:05:42Z</time>
      </trkpt>
      <trkpt lat="45.12502" lon="6.04337">
        <ele>877.8</ele>
        <time>2026-08-25T11:05:43Z</time>
      </trkpt>
      <trkpt lat="45.12508" lon="6.04354">
        <ele>876.6</ele>
        <time>2026-08-25T11:05:44Z</time>
      </trkpt>
      <trkpt lat="45.12512" lon="6.04371">
        <ele>875.5</ele>
        <time>2026-08-25T11:05:45Z</time>
      </trkpt>
      <trkpt lat="45.12514" lon="6.04389">
        <ele>874.4</ele>
        <time>2026-08-25T11:05:46Z</time>
      </trkpt>
      <trkpt lat="45.12516" lon="6.04405">
        <ele>873.4</ele>
        <time>2026-08-25T11:05:47Z</time>
      </trkpt>
      <trkpt lat="45.12523" lon="6.04419">
        <ele>872.6</ele>
        <time>2026-08-25T11:05:48Z</time>
      </trkpt>
      <trkpt lat="45.12532" lon="6.04429">
        <ele>871.8</ele>
        <time>2026-08-25T11:05:49Z</time>
      </trkpt>
      <trkpt lat="45.12542" lon="6.04437">
        <ele>871.2</ele>
        <time>2026-08-25T11:05:50Z</time>
      </trkpt>
      <trkpt lat="45.12552" lon="6.04446">
        <ele>870.6</ele>
        <time>2026-08-25T11:05:51Z</time>
      </trkpt>
      <trkpt lat="45.12561" lon="6.04455">
        <ele>870</ele>
        <time>2026-08-25T11:05:52Z</time>
      </trkpt>
      <trkpt lat="45.12569" lon="6.04466">
        <ele>869.4</ele>
        <time>2026-08-25T11:05:53Z</time>
      </trkpt>
      <trkpt lat="45.12577" lon="6.04478">
        <ele>868.8</ele>
        <time>2026-08-25T11:05:54Z</time>
      </trkpt>
      <trkpt lat="45.12583" lon="6.04491">
        <ele>868.2</ele>
        <time>2026-08-25T11:05:55Z</time>
      </trkpt>
      <trkpt lat="45.1259" lon="6.04504">
        <ele>867.5</ele>
        <time>2026-08-25T11:05:56Z</time>
      </trkpt>
      <trkpt lat="45.12598" lon="6.04515">
        <ele>866.7</ele>
        <time>2026-08-25T11:05:57Z</time>
      </trkpt>
      <trkpt lat="45.12607" lon="6.04525">
        <ele>865.9</ele>
        <time>2026-08-25T11:05:58Z</time>
      </trkpt>
      <trkpt lat="45.12616" lon="6.04537">
        <ele>865</ele>
        <time>2026-08-25T11:05:59Z</time>
      </trkpt>
      <trkpt lat="45.12623" lon="6.04551">
        <ele>863.9</ele>
        <time>2026-08-25T11:06:00Z</time>
      </trkpt>
      <trkpt lat="45.1263" lon="6.04566">
        <ele>862.9</ele>
        <time>2026-08-25T11:06:01Z</time>
      </trkpt>
      <trkpt lat="45.12637" lon="6.04581">
        <ele>861.8</ele>
        <time>2026-08-25T11:06:02Z</time>
      </trkpt>
      <trkpt lat="45.12643" lon="6.04597">
        <ele>860.6</ele>
        <time>2026-08-25T11:06:03Z</time>
      </trkpt>
      <trkpt lat="45.12651" lon="6.04613">
        <ele>859.4</ele>
        <time>2026-08-25T11:06:04Z</time>
      </trkpt>
      <trkpt lat="45.12659" lon="6.04628">
        <ele>858.2</ele>
        <time>2026-08-25T11:06:05Z</time>
      </trkpt>
      <trkpt lat="45.12669" lon="6.04643">
        <ele>857</ele>
        <time>2026-08-25T11:06:06Z</time>
      </trkpt>
      <trkpt lat="45.12678" lon="6.04658">
        <ele>855.7</ele>
        <time>2026-08-25T11:06:07Z</time>
      </trkpt>
      <trkpt lat="45.12687" lon="6.04673">
        <ele>854.6</ele>
        <time>2026-08-25T11:06:08Z</time>
      </trkpt>
      <trkpt lat="45.12697" lon="6.04688">
        <ele>853.5</ele>
        <time>2026-08-25T11:06:09Z</time>
      </trkpt>
      <trkpt lat="45.12705" lon="6.04705">
        <ele>852.6</ele>
        <time>2026-08-25T11:06:10Z</time>
      </trkpt>
      <trkpt lat="45.12711" lon="6.0472">
        <ele>851.9</ele>
        <time>2026-08-25T11:06:11Z</time>
      </trkpt>
      <trkpt lat="45.12716" lon="6.04734">
        <ele>851.4</ele>
        <time>2026-08-25T11:06:12Z</time>
      </trkpt>
      <trkpt lat="45.12721" lon="6.04745">
        <ele>851</ele>
        <time>2026-08-25T11:06:13Z</time>
      </trkpt>
      <trkpt lat="45.12727" lon="6.04755">
        <ele>850.5</ele>
        <time>2026-08-25T11:06:14Z</time>
      </trkpt>
      <trkpt lat="45.12736" lon="6.0476">
        <ele>850</ele>
        <time>2026-08-25T11:06:15Z</time>
      </trkpt>
      <trkpt lat="45.12744" lon="6.04757">
        <ele>849.5</ele>
        <time>2026-08-25T11:06:16Z</time>
      </trkpt>
      <trkpt lat="45.12749" lon="6.04749">
        <ele>849.1</ele>
        <time>2026-08-25T11:06:17Z</time>
      </trkpt>
      <trkpt lat="45.12748" lon="6.0474">
        <ele>848.6</ele>
        <time>2026-08-25T11:06:18Z</time>
      </trkpt>
      <trkpt lat="45.12745" lon="6.04732">
        <ele>848</ele>
        <time>2026-08-25T11:06:19Z</time>
      </trkpt>
      <trkpt lat="45.12742" lon="6.04722">
        <ele>847.3</ele>
        <time>2026-08-25T11:06:20Z</time>
      </trkpt>
      <trkpt lat="45.12739" lon="6.04713">
        <ele>846.5</ele>
        <time>2026-08-25T11:06:21Z</time>
      </trkpt>
      <trkpt lat="45.12735" lon="6.04703">
        <ele>845.6</ele>
        <time>2026-08-25T11:06:22Z</time>
      </trkpt>
      <trkpt lat="45.12732" lon="6.04692">
        <ele>844.6</ele>
        <time>2026-08-25T11:06:23Z</time>
      </trkpt>
      <trkpt lat="45.12729" lon="6.0468">
        <ele>843.4</ele>
        <time>2026-08-25T11:06:24Z</time>
      </trkpt>
      <trkpt lat="45.12725" lon="6.04668">
        <ele>842.2</ele>
        <time>2026-08-25T11:06:25Z</time>
      </trkpt>
      <trkpt lat="45.1272" lon="6.04655">
        <ele>841</ele>
        <time>2026-08-25T11:06:26Z</time>
      </trkpt>
      <trkpt lat="45.12716" lon="6.04642">
        <ele>839.7</ele>
        <time>2026-08-25T11:06:27Z</time>
      </trkpt>
      <trkpt lat="45.12711" lon="6.04627">
        <ele>838.4</ele>
        <time>2026-08-25T11:06:28Z</time>
      </trkpt>
      <trkpt lat="45.12707" lon="6.04612">
        <ele>836.9</ele>
        <time>2026-08-25T11:06:29Z</time>
      </trkpt>
      <trkpt lat="45.12702" lon="6.04596">
        <ele>835.5</ele>
        <time>2026-08-25T11:06:30Z</time>
      </trkpt>
      <trkpt lat="45.12697" lon="6.0458">
        <ele>834</ele>
        <time>2026-08-25T11:06:31Z</time>
      </trkpt>
      <trkpt lat="45.12693" lon="6.04563">
        <ele>832.4</ele>
        <time>2026-08-25T11:06:32Z</time>
      </trkpt>
      <trkpt lat="45.12687" lon="6.04546">
        <ele>831</ele>
        <time>2026-08-25T11:06:33Z</time>
      </trkpt>
      <trkpt lat="45.12681" lon="6.04529">
        <ele>829.7</ele>
        <time>2026-08-25T11:06:34Z</time>
      </trkpt>
      <trkpt lat="45.12674" lon="6.04513">
        <ele>828.4</ele>
        <time>2026-08-25T11:06:35Z</time>
      </trkpt>
      <trkpt lat="45.12666" lon="6.04497">
        <ele>827.2</ele>
        <time>2026-08-25T11:06:36Z</time>
      </trkpt>
      <trkpt lat="45.12658" lon="6.04482">
        <ele>826.1</ele>
        <time>2026-08-25T11:06:37Z</time>
      </trkpt>
      <trkpt lat="45.1265" lon="6.04466">
        <ele>825.2</ele>
        <time>2026-08-25T11:06:38Z</time>
      </trkpt>
      <trkpt lat="45.12643" lon="6.0445">
        <ele>824.3</ele>
        <time>2026-08-25T11:06:39Z</time>
      </trkpt>
      <trkpt lat="45.12635" lon="6.04433">
        <ele>823.5</ele>
        <time>2026-08-25T11:06:40Z</time>
      </trkpt>
      <trkpt lat="45.12629" lon="6.04416">
        <ele>822.8</ele>
        <time>2026-08-25T11:06:41Z</time>
      </trkpt>
      <trkpt lat="45.12623" lon="6.044">
        <ele>822.3</ele>
        <time>2026-08-25T11:06:42Z</time>
      </trkpt>
      <trkpt lat="45.12616" lon="6.04387">
        <ele>821.9</ele>
        <time>2026-08-25T11:06:43Z</time>
      </trkpt>
      <trkpt lat="45.12607" lon="6.04379">
        <ele>821.7</ele>
        <time>2026-08-25T11:06:44Z</time>
      </trkpt>
      <trkpt lat="45.12598" lon="6.04377">
        <ele>821.6</ele>
        <time>2026-08-25T11:06:45Z</time>
      </trkpt>
      <trkpt lat="45.12589" lon="6.04377">
        <ele>821.6</ele>
        <time>2026-08-25T11:06:46Z</time>
      </trkpt>
      <trkpt lat="45.12582" lon="6.04374">
        <ele>821.6</ele>
        <time>2026-08-25T11:06:47Z</time>
      </trkpt>
      <trkpt lat="45.12576" lon="6.04367">
        <ele>821.6</ele>
        <time>2026-08-25T11:06:48Z</time>
      </trkpt>
      <trkpt lat="45.12576" lon="6.04357">
        <ele>821.5</ele>
        <time>2026-08-25T11:06:49Z</time>
      </trkpt>
      <trkpt lat="45.12577" lon="6.04348">
        <ele>821.3</ele>
        <time>2026-08-25T11:06:50Z</time>
      </trkpt>
      <trkpt lat="45.1258" lon="6.04339">
        <ele>821.1</ele>
        <time>2026-08-25T11:06:51Z</time>
      </trkpt>
      <trkpt lat="45.12584" lon="6.0433">
        <ele>820.8</ele>
        <time>2026-08-25T11:06:52Z</time>
      </trkpt>
      <trkpt lat="45.12586" lon="6.0432">
        <ele>820.5</ele>
        <time>2026-08-25T11:06:53Z</time>
      </trkpt>
      <trkpt lat="45.12585" lon="6.04309">
        <ele>820.2</ele>
        <time>2026-08-25T11:06:54Z</time>
      </trkpt>
      <trkpt lat="45.12582" lon="6.04299">
        <ele>819.9</ele>
        <time>2026-08-25T11:06:55Z</time>
      </trkpt>
      <trkpt lat="45.12579" lon="6.04289">
        <ele>819.7</ele>
        <time>2026-08-25T11:06:56Z</time>
      </trkpt>
      <trkpt lat="45.12575" lon="6.04279">
        <ele>819.5</ele>
        <time>2026-08-25T11:06:57Z</time>
      </trkpt>
      <trkpt lat="45.12572" lon="6.04269">
        <ele>819.4</ele>
        <time>2026-08-25T11:06:58Z</time>
      </trkpt>
      <trkpt lat="45.12568" lon="6.0426">
        <ele>819.2</ele>
        <time>2026-08-25T11:06:59Z</time>
      </trkpt>
      <trkpt lat="45.12565" lon="6.0425">
        <ele>819.1</ele>
        <time>2026-08-25T11:07:00Z</time>
      </trkpt>
      <trkpt lat="45.12562" lon="6.0424">
        <ele>818.9</ele>
        <time>2026-08-25T11:07:01Z</time>
      </trkpt>
      <trkpt lat="45.12559" lon="6.0423">
        <ele>818.7</ele>
        <time>2026-08-25T11:07:02Z</time>
      </trkpt>
      <trkpt lat="45.12556" lon="6.0422">
        <ele>818.6</ele>
        <time>2026-08-25T11:07:03Z</time>
      </trkpt>
      <trkpt lat="45.12554" lon="6.04209">
        <ele>818.4</ele>
        <time>2026-08-25T11:07:04Z</time>
      </trkpt>
      <trkpt lat="45.12551" lon="6.04198">
        <ele>818.1</ele>
        <time>2026-08-25T11:07:05Z</time>
      </trkpt>
      <trkpt lat="45.12549" lon="6.04187">
        <ele>817.8</ele>
        <time>2026-08-25T11:07:06Z</time>
      </trkpt>
      <trkpt lat="45.12547" lon="6.04176">
        <ele>817.6</ele>
        <time>2026-08-25T11:07:07Z</time>
      </trkpt>
      <trkpt lat="45.12544" lon="6.04164">
        <ele>817.3</ele>
        <time>2026-08-25T11:07:08Z</time>
      </trkpt>
      <trkpt lat="45.12541" lon="6.04152">
        <ele>817.1</ele>
        <time>2026-08-25T11:07:09Z</time>
      </trkpt>
      <trkpt lat="45.12538" lon="6.0414">
        <ele>816.9</ele>
        <time>2026-08-25T11:07:10Z</time>
      </trkpt>
      <trkpt lat="45.12535" lon="6.04128">
        <ele>816.7</ele>
        <time>2026-08-25T11:07:11Z</time>
      </trkpt>
      <trkpt lat="45.1253" lon="6.04117">
        <ele>816.5</ele>
        <time>2026-08-25T11:07:12Z</time>
      </trkpt>
      <trkpt lat="45.12526" lon="6.04106">
        <ele>816.3</ele>
        <time>2026-08-25T11:07:13Z</time>
      </trkpt>
      <trkpt lat="45.12522" lon="6.04095">
        <ele>816.1</ele>
        <time>2026-08-25T11:07:14Z</time>
      </trkpt>
      <trkpt lat="45.12518" lon="6.04084">
        <ele>816</ele>
        <time>2026-08-25T11:07:15Z</time>
      </trkpt>
      <trkpt lat="45.12514" lon="6.04073">
        <ele>815.8</ele>
        <time>2026-08-25T11:07:16Z</time>
      </trkpt>
      <trkpt lat="45.12509" lon="6.04062">
        <ele>815.7</ele>
        <time>2026-08-25T11:07:17Z</time>
      </trkpt>
      <trkpt lat="45.12505" lon="6.0405">
        <ele>815.5</ele>
        <time>2026-08-25T11:07:18Z</time>
      </trkpt>
      <trkpt lat="45.125" lon="6.04039">
        <ele>815.4</ele>
        <time>2026-08-25T11:07:19Z</time>
      </trkpt>
      <trkpt lat="45.12496" lon="6.04027">
        <ele>815.3</ele>
        <time>2026-08-25T11:07:20Z</time>
      </trkpt>
      <trkpt lat="45.12492" lon="6.04015">
        <ele>815.1</ele>
        <time>2026-08-25T11:07:21Z</time>
      </trkpt>
      <trkpt lat="45.12488" lon="6.04003">
        <ele>815</ele>
        <time>2026-08-25T11:07:22Z</time>
      </trkpt>
      <trkpt lat="45.12483" lon="6.03992">
        <ele>814.7</ele>
        <time>2026-08-25T11:07:23Z</time>
      </trkpt>
      <trkpt lat="45.12479" lon="6.0398">
        <ele>814.3</ele>
        <time>2026-08-25T11:07:24Z</time>
      </trkpt>
      <trkpt lat="45.12475" lon="6.0397">
        <ele>813.9</ele>
        <time>2026-08-25T11:07:25Z</time>
      </trkpt>
      <trkpt lat="45.12471" lon="6.0396">
        <ele>813.5</ele>
        <time>2026-08-25T11:07:26Z</time>
      </trkpt>
      <trkpt lat="45.12466" lon="6.0395">
        <ele>813.1</ele>
        <time>2026-08-25T11:07:27Z</time>
      </trkpt>
      <trkpt lat="45.12462" lon="6.0394">
        <ele>812.7</ele>
        <time>2026-08-25T11:07:28Z</time>
      </trkpt>
      <trkpt lat="45.12458" lon="6.0393">
        <ele>812.3</ele>
        <time>2026-08-25T11:07:29Z</time>
      </trkpt>
      <trkpt lat="45.12454" lon="6.0392">
        <ele>811.9</ele>
        <time>2026-08-25T11:07:30Z</time>
      </trkpt>
      <trkpt lat="45.12451" lon="6.03909">
        <ele>811.6</ele>
        <time>2026-08-25T11:07:31Z</time>
      </trkpt>
      <trkpt lat="45.12447" lon="6.03898">
        <ele>811.2</ele>
        <time>2026-08-25T11:07:32Z</time>
      </trkpt>
      <trkpt lat="45.12446" lon="6.03887">
        <ele>810.8</ele>
        <time>2026-08-25T11:07:33Z</time>
      </trkpt>
      <trkpt lat="45.12444" lon="6.03875">
        <ele>810.4</ele>
        <time>2026-08-25T11:07:34Z</time>
      </trkpt>
      <trkpt lat="45.12442" lon="6.03863">
        <ele>810</ele>
        <time>2026-08-25T11:07:35Z</time>
      </trkpt>
      <trkpt lat="45.12439" lon="6.03852">
        <ele>809.4</ele>
        <time>2026-08-25T11:07:36Z</time>
      </trkpt>
      <trkpt lat="45.12435" lon="6.03841">
        <ele>808.9</ele>
        <time>2026-08-25T11:07:37Z</time>
      </trkpt>
      <trkpt lat="45.12432" lon="6.0383">
        <ele>808.2</ele>
        <time>2026-08-25T11:07:38Z</time>
      </trkpt>
      <trkpt lat="45.1243" lon="6.03818">
        <ele>807.5</ele>
        <time>2026-08-25T11:07:39Z</time>
      </trkpt>
      <trkpt lat="45.12427" lon="6.03805">
        <ele>806.8</ele>
        <time>2026-08-25T11:07:40Z</time>
      </trkpt>
      <trkpt lat="45.12422" lon="6.03794">
        <ele>806.1</ele>
        <time>2026-08-25T11:07:41Z</time>
      </trkpt>
      <trkpt lat="45.12417" lon="6.03782">
        <ele>805.3</ele>
        <time>2026-08-25T11:07:42Z</time>
      </trkpt>
      <trkpt lat="45.1241" lon="6.03771">
        <ele>804.5</ele>
        <time>2026-08-25T11:07:43Z</time>
      </trkpt>
      <trkpt lat="45.12404" lon="6.0376">
        <ele>803.6</ele>
        <time>2026-08-25T11:07:44Z</time>
      </trkpt>
      <trkpt lat="45.12398" lon="6.03748">
        <ele>802.7</ele>
        <time>2026-08-25T11:07:45Z</time>
      </trkpt>
      <trkpt lat="45.12392" lon="6.03736">
        <ele>801.7</ele>
        <time>2026-08-25T11:07:46Z</time>
      </trkpt>
      <trkpt lat="45.12385" lon="6.03724">
        <ele>800.6</ele>
        <time>2026-08-25T11:07:47Z</time>
      </trkpt>
      <trkpt lat="45.12378" lon="6.03712">
        <ele>799.5</ele>
        <time>2026-08-25T11:07:48Z</time>
      </trkpt>
      <trkpt lat="45.12371" lon="6.03699">
        <ele>798.4</ele>
        <time>2026-08-25T11:07:49Z</time>
      </trkpt>
      <trkpt lat="45.12364" lon="6.03686">
        <ele>797.3</ele>
        <time>2026-08-25T11:07:50Z</time>
      </trkpt>
      <trkpt lat="45.12357" lon="6.03672">
        <ele>796.1</ele>
        <time>2026-08-25T11:07:51Z</time>
      </trkpt>
      <trkpt lat="45.1235" lon="6.03659">
        <ele>795.1</ele>
        <time>2026-08-25T11:07:52Z</time>
      </trkpt>
      <trkpt lat="45.12344" lon="6.03645">
        <ele>794.1</ele>
        <time>2026-08-25T11:07:53Z</time>
      </trkpt>
      <trkpt lat="45.12337" lon="6.03631">
        <ele>793.1</ele>
        <time>2026-08-25T11:07:54Z</time>
      </trkpt>
      <trkpt lat="45.1233" lon="6.03617">
        <ele>792.1</ele>
        <time>2026-08-25T11:07:55Z</time>
      </trkpt>
      <trkpt lat="45.12321" lon="6.03604">
        <ele>791</ele>
        <time>2026-08-25T11:07:56Z</time>
      </trkpt>
      <trkpt lat="45.12312" lon="6.03592">
        <ele>790</ele>
        <time>2026-08-25T11:07:57Z</time>
      </trkpt>
      <trkpt lat="45.12302" lon="6.03581">
        <ele>788.9</ele>
        <time>2026-08-25T11:07:58Z</time>
      </trkpt>
      <trkpt lat="45.12293" lon="6.03568">
        <ele>787.8</ele>
        <time>2026-08-25T11:07:59Z</time>
      </trkpt>
      <trkpt lat="45.12284" lon="6.03554">
        <ele>786.8</ele>
        <time>2026-08-25T11:08:00Z</time>
      </trkpt>
      <trkpt lat="45.12276" lon="6.03539">
        <ele>785.7</ele>
        <time>2026-08-25T11:08:01Z</time>
      </trkpt>
      <trkpt lat="45.12268" lon="6.03525">
        <ele>784.7</ele>
        <time>2026-08-25T11:08:02Z</time>
      </trkpt>
      <trkpt lat="45.12259" lon="6.03511">
        <ele>783.6</ele>
        <time>2026-08-25T11:08:03Z</time>
      </trkpt>
      <trkpt lat="45.1225" lon="6.03497">
        <ele>782.6</ele>
        <time>2026-08-25T11:08:04Z</time>
      </trkpt>
      <trkpt lat="45.12238" lon="6.03487">
        <ele>781.6</ele>
        <time>2026-08-25T11:08:05Z</time>
      </trkpt>
      <trkpt lat="45.12225" lon="6.0348">
        <ele>780.6</ele>
        <time>2026-08-25T11:08:06Z</time>
      </trkpt>
      <trkpt lat="45.12212" lon="6.03476">
        <ele>779.7</ele>
        <time>2026-08-25T11:08:07Z</time>
      </trkpt>
      <trkpt lat="45.12199" lon="6.03477">
        <ele>779</ele>
        <time>2026-08-25T11:08:08Z</time>
      </trkpt>
      <trkpt lat="45.12186" lon="6.03482">
        <ele>778.3</ele>
        <time>2026-08-25T11:08:09Z</time>
      </trkpt>
      <trkpt lat="45.12174" lon="6.03489">
        <ele>777.8</ele>
        <time>2026-08-25T11:08:10Z</time>
      </trkpt>
      <trkpt lat="45.12162" lon="6.03492">
        <ele>777.4</ele>
        <time>2026-08-25T11:08:11Z</time>
      </trkpt>
      <trkpt lat="45.12152" lon="6.03492">
        <ele>776.9</ele>
        <time>2026-08-25T11:08:12Z</time>
      </trkpt>
      <trkpt lat="45.12142" lon="6.03486">
        <ele>776.2</ele>
        <time>2026-08-25T11:08:13Z</time>
      </trkpt>
      <trkpt lat="45.12135" lon="6.03476">
        <ele>776.2</ele>
        <time>2026-08-25T11:08:14Z</time>
      </trkpt>
      <trkpt lat="45.12134" lon="6.03463">
        <ele>774.7</ele>
        <time>2026-08-25T11:08:15Z</time>
      </trkpt>
      <trkpt lat="45.12135" lon="6.03451">
        <ele>773.4</ele>
        <time>2026-08-25T11:08:16Z</time>
      </trkpt>
      <trkpt lat="45.12139" lon="6.03439">
        <ele>772.1</ele>
        <time>2026-08-25T11:08:17Z</time>
      </trkpt>
      <trkpt lat="45.12144" lon="6.03428">
        <ele>770.7</ele>
        <time>2026-08-25T11:08:18Z</time>
      </trkpt>
      <trkpt lat="45.1215" lon="6.03415">
        <ele>769.6</ele>
        <time>2026-08-25T11:08:19Z</time>
      </trkpt>
      <trkpt lat="45.12155" lon="6.03402">
        <ele>768.7</ele>
        <time>2026-08-25T11:08:20Z</time>
      </trkpt>
      <trkpt lat="45.12157" lon="6.03386">
        <ele>767.7</ele>
        <time>2026-08-25T11:08:21Z</time>
      </trkpt>
      <trkpt lat="45.12157" lon="6.03369">
        <ele>766.7</ele>
        <time>2026-08-25T11:08:22Z</time>
      </trkpt>
      <trkpt lat="45.12153" lon="6.03354">
        <ele>765.8</ele>
        <time>2026-08-25T11:08:23Z</time>
      </trkpt>
      <trkpt lat="45.12147" lon="6.03338">
        <ele>765</ele>
        <time>2026-08-25T11:08:24Z</time>
      </trkpt>
      <trkpt lat="45.12141" lon="6.03323">
        <ele>764.3</ele>
        <time>2026-08-25T11:08:25Z</time>
      </trkpt>
      <trkpt lat="45.12135" lon="6.03307">
        <ele>763.7</ele>
        <time>2026-08-25T11:08:26Z</time>
      </trkpt>
      <trkpt lat="45.1213" lon="6.03291">
        <ele>763.2</ele>
        <time>2026-08-25T11:08:27Z</time>
      </trkpt>
      <trkpt lat="45.12125" lon="6.03275">
        <ele>763.1</ele>
        <time>2026-08-25T11:08:28Z</time>
      </trkpt>
      <trkpt lat="45.12121" lon="6.03259">
        <ele>763</ele>
        <time>2026-08-25T11:08:29Z</time>
      </trkpt>
      <trkpt lat="45.12116" lon="6.03243">
        <ele>763.2</ele>
        <time>2026-08-25T11:08:30Z</time>
      </trkpt>
      <trkpt lat="45.12111" lon="6.03228">
        <ele>763.2</ele>
        <time>2026-08-25T11:08:31Z</time>
      </trkpt>
      <trkpt lat="45.12104" lon="6.03215">
        <ele>763.1</ele>
        <time>2026-08-25T11:08:32Z</time>
      </trkpt>
      <trkpt lat="45.12097" lon="6.03203">
        <ele>763</ele>
        <time>2026-08-25T11:08:33Z</time>
      </trkpt>
      <trkpt lat="45.12091" lon="6.03192">
        <ele>762.9</ele>
        <time>2026-08-25T11:08:34Z</time>
      </trkpt>
      <trkpt lat="45.12084" lon="6.03181">
        <ele>762.8</ele>
        <time>2026-08-25T11:08:35Z</time>
      </trkpt>
      <trkpt lat="45.12077" lon="6.0317">
        <ele>762.7</ele>
        <time>2026-08-25T11:08:36Z</time>
      </trkpt>
      <trkpt lat="45.12071" lon="6.03159">
        <ele>762.7</ele>
        <time>2026-08-25T11:08:37Z</time>
      </trkpt>
      <trkpt lat="45.12065" lon="6.03147">
        <ele>762.6</ele>
        <time>2026-08-25T11:08:38Z</time>
      </trkpt>
      <trkpt lat="45.12059" lon="6.03135">
        <ele>762.6</ele>
        <time>2026-08-25T11:08:39Z</time>
      </trkpt>
      <trkpt lat="45.12053" lon="6.03124">
        <ele>762.6</ele>
        <time>2026-08-25T11:08:40Z</time>
      </trkpt>
      <trkpt lat="45.12048" lon="6.03112">
        <ele>762.7</ele>
        <time>2026-08-25T11:08:41Z</time>
      </trkpt>
      <trkpt lat="45.12042" lon="6.03101">
        <ele>762.7</ele>
        <time>2026-08-25T11:08:42Z</time>
      </trkpt>
      <trkpt lat="45.12037" lon="6.03089">
        <ele>762.7</ele>
        <time>2026-08-25T11:08:43Z</time>
      </trkpt>
      <trkpt lat="45.12033" lon="6.03077">
        <ele>762.7</ele>
        <time>2026-08-25T11:08:44Z</time>
      </trkpt>
      <trkpt lat="45.12028" lon="6.03065">
        <ele>762.6</ele>
        <time>2026-08-25T11:08:45Z</time>
      </trkpt>
      <trkpt lat="45.12024" lon="6.03054">
        <ele>762.5</ele>
        <time>2026-08-25T11:08:46Z</time>
      </trkpt>
      <trkpt lat="45.1202" lon="6.03042">
        <ele>762.4</ele>
        <time>2026-08-25T11:08:47Z</time>
      </trkpt>
      <trkpt lat="45.12016" lon="6.0303">
        <ele>762.4</ele>
        <time>2026-08-25T11:08:48Z</time>
      </trkpt>
      <trkpt lat="45.12013" lon="6.03017">
        <ele>762.3</ele>
        <time>2026-08-25T11:08:49Z</time>
      </trkpt>
      <trkpt lat="45.1201" lon="6.03005">
        <ele>762.2</ele>
        <time>2026-08-25T11:08:50Z</time>
      </trkpt>
      <trkpt lat="45.12007" lon="6.02993">
        <ele>762.1</ele>
        <time>2026-08-25T11:08:51Z</time>
      </trkpt>
      <trkpt lat="45.12005" lon="6.0298">
        <ele>762</ele>
        <time>2026-08-25T11:08:52Z</time>
      </trkpt>
      <trkpt lat="45.12002" lon="6.02969">
        <ele>761.9</ele>
        <time>2026-08-25T11:08:53Z</time>
      </trkpt>
      <trkpt lat="45.11999" lon="6.02958">
        <ele>761.8</ele>
        <time>2026-08-25T11:08:54Z</time>
      </trkpt>
      <trkpt lat="45.11995" lon="6.02947">
        <ele>761.6</ele>
        <time>2026-08-25T11:08:55Z</time>
      </trkpt>
      <trkpt lat="45.11991" lon="6.02936">
        <ele>761.3</ele>
        <time>2026-08-25T11:08:56Z</time>
      </trkpt>
      <trkpt lat="45.11988" lon="6.02925">
        <ele>760.9</ele>
        <time>2026-08-25T11:08:57Z</time>
      </trkpt>
      <trkpt lat="45.11984" lon="6.02913">
        <ele>760.5</ele>
        <time>2026-08-25T11:08:58Z</time>
      </trkpt>
      <trkpt lat="45.11981" lon="6.02901">
        <ele>760.1</ele>
        <time>2026-08-25T11:08:59Z</time>
      </trkpt>
      <trkpt lat="45.11977" lon="6.02889">
        <ele>759.8</ele>
        <time>2026-08-25T11:09:00Z</time>
      </trkpt>
      <trkpt lat="45.11974" lon="6.02877">
        <ele>759.4</ele>
        <time>2026-08-25T11:09:01Z</time>
      </trkpt>
      <trkpt lat="45.1197" lon="6.02866">
        <ele>758.9</ele>
        <time>2026-08-25T11:09:02Z</time>
      </trkpt>
      <trkpt lat="45.11966" lon="6.02853">
        <ele>758.4</ele>
        <time>2026-08-25T11:09:03Z</time>
      </trkpt>
      <trkpt lat="45.11962" lon="6.0284">
        <ele>757.9</ele>
        <time>2026-08-25T11:09:04Z</time>
      </trkpt>
      <trkpt lat="45.11958" lon="6.02826">
        <ele>757.3</ele>
        <time>2026-08-25T11:09:05Z</time>
      </trkpt>
      <trkpt lat="45.11953" lon="6.02812">
        <ele>756.7</ele>
        <time>2026-08-25T11:09:06Z</time>
      </trkpt>
      <trkpt lat="45.11947" lon="6.02799">
        <ele>756</ele>
        <time>2026-08-25T11:09:07Z</time>
      </trkpt>
      <trkpt lat="45.11941" lon="6.02786">
        <ele>755.3</ele>
        <time>2026-08-25T11:09:08Z</time>
      </trkpt>
      <trkpt lat="45.11935" lon="6.02773">
        <ele>754.6</ele>
        <time>2026-08-25T11:09:09Z</time>
      </trkpt>
      <trkpt lat="45.11928" lon="6.02761">
        <ele>753.8</ele>
        <time>2026-08-25T11:09:10Z</time>
      </trkpt>
      <trkpt lat="45.11921" lon="6.02749">
        <ele>752.9</ele>
        <time>2026-08-25T11:09:11Z</time>
      </trkpt>
      <trkpt lat="45.11914" lon="6.02737">
        <ele>751.9</ele>
        <time>2026-08-25T11:09:12Z</time>
      </trkpt>
      <trkpt lat="45.11906" lon="6.02725">
        <ele>750.9</ele>
        <time>2026-08-25T11:09:13Z</time>
      </trkpt>
      <trkpt lat="45.11899" lon="6.02712">
        <ele>749.9</ele>
        <time>2026-08-25T11:09:14Z</time>
      </trkpt>
      <trkpt lat="45.11891" lon="6.02699">
        <ele>748.8</ele>
        <time>2026-08-25T11:09:15Z</time>
      </trkpt>
      <trkpt lat="45.11882" lon="6.02687">
        <ele>747.7</ele>
        <time>2026-08-25T11:09:16Z</time>
      </trkpt>
      <trkpt lat="45.11873" lon="6.02676">
        <ele>746.6</ele>
        <time>2026-08-25T11:09:17Z</time>
      </trkpt>
      <trkpt lat="45.11862" lon="6.02666">
        <ele>745.4</ele>
        <time>2026-08-25T11:09:18Z</time>
      </trkpt>
      <trkpt lat="45.11852" lon="6.02656">
        <ele>744.3</ele>
        <time>2026-08-25T11:09:19Z</time>
      </trkpt>
      <trkpt lat="45.11841" lon="6.02645">
        <ele>743.1</ele>
        <time>2026-08-25T11:09:20Z</time>
      </trkpt>
      <trkpt lat="45.1183" lon="6.02634">
        <ele>741.9</ele>
        <time>2026-08-25T11:09:21Z</time>
      </trkpt>
      <trkpt lat="45.1182" lon="6.02622">
        <ele>740.7</ele>
        <time>2026-08-25T11:09:22Z</time>
      </trkpt>
      <trkpt lat="45.11809" lon="6.0261">
        <ele>739.6</ele>
        <time>2026-08-25T11:09:23Z</time>
      </trkpt>
      <trkpt lat="45.11798" lon="6.02599">
        <ele>738.5</ele>
        <time>2026-08-25T11:09:24Z</time>
      </trkpt>
      <trkpt lat="45.11787" lon="6.02588">
        <ele>737.4</ele>
        <time>2026-08-25T11:09:25Z</time>
      </trkpt>
      <trkpt lat="45.11775" lon="6.02578">
        <ele>736.3</ele>
        <time>2026-08-25T11:09:26Z</time>
      </trkpt>
      <trkpt lat="45.11763" lon="6.02568">
        <ele>735.1</ele>
        <time>2026-08-25T11:09:27Z</time>
      </trkpt>
      <trkpt lat="45.1175" lon="6.0256">
        <ele>733.9</ele>
        <time>2026-08-25T11:09:28Z</time>
      </trkpt>
      <trkpt lat="45.11737" lon="6.02553">
        <ele>732.8</ele>
        <time>2026-08-25T11:09:29Z</time>
      </trkpt>
      <trkpt lat="45.11724" lon="6.02547">
        <ele>731.6</ele>
        <time>2026-08-25T11:09:30Z</time>
      </trkpt>
      <trkpt lat="45.11711" lon="6.02541">
        <ele>730.4</ele>
        <time>2026-08-25T11:09:31Z</time>
      </trkpt>
      <trkpt lat="45.11697" lon="6.02536">
        <ele>729.3</ele>
        <time>2026-08-25T11:09:32Z</time>
      </trkpt>
      <trkpt lat="45.11683" lon="6.02531">
        <ele>728.1</ele>
        <time>2026-08-25T11:09:33Z</time>
      </trkpt>
      <trkpt lat="45.11669" lon="6.02525">
        <ele>727</ele>
        <time>2026-08-25T11:09:34Z</time>
      </trkpt>
      <trkpt lat="45.11655" lon="6.02519">
        <ele>725.9</ele>
        <time>2026-08-25T11:09:35Z</time>
      </trkpt>
      <trkpt lat="45.11641" lon="6.02515">
        <ele>724.8</ele>
        <time>2026-08-25T11:09:36Z</time>
      </trkpt>
      <trkpt lat="45.11627" lon="6.02512">
        <ele>723.7</ele>
        <time>2026-08-25T11:09:37Z</time>
      </trkpt>
      <trkpt lat="45.11613" lon="6.02511">
        <ele>722.6</ele>
        <time>2026-08-25T11:09:38Z</time>
      </trkpt>
      <trkpt lat="45.11598" lon="6.0251">
        <ele>721.5</ele>
        <time>2026-08-25T11:09:39Z</time>
      </trkpt>
      <trkpt lat="45.11584" lon="6.02509">
        <ele>720.3</ele>
        <time>2026-08-25T11:09:40Z</time>
      </trkpt>
      <trkpt lat="45.1157" lon="6.02505">
        <ele>719.1</ele>
        <time>2026-08-25T11:09:41Z</time>
      </trkpt>
      <trkpt lat="45.11557" lon="6.02498">
        <ele>718.5</ele>
        <time>2026-08-25T11:09:42Z</time>
      </trkpt>
      <trkpt lat="45.11545" lon="6.02487">
        <ele>718</ele>
        <time>2026-08-25T11:09:43Z</time>
      </trkpt>
      <trkpt lat="45.11534" lon="6.02474">
        <ele>717.4</ele>
        <time>2026-08-25T11:09:44Z</time>
      </trkpt>
      <trkpt lat="45.11524" lon="6.02459">
        <ele>716.8</ele>
        <time>2026-08-25T11:09:45Z</time>
      </trkpt>
      <trkpt lat="45.11514" lon="6.02445">
        <ele>716.5</ele>
        <time>2026-08-25T11:09:46Z</time>
      </trkpt>
      <trkpt lat="45.11504" lon="6.02431">
        <ele>716.3</ele>
        <time>2026-08-25T11:09:47Z</time>
      </trkpt>
      <trkpt lat="45.11494" lon="6.02416">
        <ele>716.2</ele>
        <time>2026-08-25T11:09:48Z</time>
      </trkpt>
      <trkpt lat="45.11486" lon="6.02401">
        <ele>716.4</ele>
        <time>2026-08-25T11:09:49Z</time>
      </trkpt>
      <trkpt lat="45.11479" lon="6.02385">
        <ele>716.6</ele>
        <time>2026-08-25T11:09:50Z</time>
      </trkpt>
      <trkpt lat="45.11475" lon="6.02368">
        <ele>716.7</ele>
        <time>2026-08-25T11:09:51Z</time>
      </trkpt>
      <trkpt lat="45.11472" lon="6.02351">
        <ele>716.6</ele>
        <time>2026-08-25T11:09:52Z</time>
      </trkpt>
      <trkpt lat="45.11471" lon="6.02334">
        <ele>716.6</ele>
        <time>2026-08-25T11:09:53Z</time>
      </trkpt>
      <trkpt lat="45.11471" lon="6.02318">
        <ele>716.6</ele>
        <time>2026-08-25T11:09:54Z</time>
      </trkpt>
      <trkpt lat="45.11471" lon="6.02302">
        <ele>716.6</ele>
        <time>2026-08-25T11:09:55Z</time>
      </trkpt>
      <trkpt lat="45.11471" lon="6.02286">
        <ele>716.5</ele>
        <time>2026-08-25T11:09:56Z</time>
      </trkpt>
      <trkpt lat="45.11471" lon="6.02269">
        <ele>716.5</ele>
        <time>2026-08-25T11:09:57Z</time>
      </trkpt>
      <trkpt lat="45.1147" lon="6.02253">
        <ele>716.6</ele>
        <time>2026-08-25T11:09:58Z</time>
      </trkpt>
      <trkpt lat="45.1147" lon="6.02238">
        <ele>716.6</ele>
        <time>2026-08-25T11:09:59Z</time>
      </trkpt>
      <trkpt lat="45.11469" lon="6.02222">
        <ele>716.6</ele>
        <time>2026-08-25T11:10:00Z</time>
      </trkpt>
      <trkpt lat="45.11469" lon="6.02206">
        <ele>716.7</ele>
        <time>2026-08-25T11:10:01Z</time>
      </trkpt>
      <trkpt lat="45.11468" lon="6.0219">
        <ele>716.7</ele>
        <time>2026-08-25T11:10:02Z</time>
      </trkpt>
      <trkpt lat="45.11468" lon="6.02175">
        <ele>716.7</ele>
        <time>2026-08-25T11:10:03Z</time>
      </trkpt>
      <trkpt lat="45.11468" lon="6.0216">
        <ele>716.7</ele>
        <time>2026-08-25T11:10:04Z</time>
      </trkpt>
      <trkpt lat="45.11468" lon="6.02145">
        <ele>716.7</ele>
        <time>2026-08-25T11:10:05Z</time>
      </trkpt>
      <trkpt lat="45.11468" lon="6.02131">
        <ele>716.8</ele>
        <time>2026-08-25T11:10:06Z</time>
      </trkpt>
      <trkpt lat="45.11468" lon="6.02116">
        <ele>716.8</ele>
        <time>2026-08-25T11:10:07Z</time>
      </trkpt>
      <trkpt lat="45.11468" lon="6.02103">
        <ele>716.8</ele>
        <time>2026-08-25T11:10:08Z</time>
      </trkpt>
      <trkpt lat="45.11469" lon="6.0209">
        <ele>716.8</ele>
        <time>2026-08-25T11:10:09Z</time>
      </trkpt>
      <trkpt lat="45.1147" lon="6.02076">
        <ele>716.8</ele>
        <time>2026-08-25T11:10:10Z</time>
      </trkpt>
      <trkpt lat="45.11472" lon="6.02063">
        <ele>716.7</ele>
        <time>2026-08-25T11:10:11Z</time>
      </trkpt>
      <trkpt lat="45.11474" lon="6.0205">
        <ele>716.6</ele>
        <time>2026-08-25T11:10:12Z</time>
      </trkpt>
      <trkpt lat="45.11478" lon="6.02038">
        <ele>716.6</ele>
        <time>2026-08-25T11:10:13Z</time>
      </trkpt>
      <trkpt lat="45.11482" lon="6.02026">
        <ele>716.5</ele>
        <time>2026-08-25T11:10:14Z</time>
      </trkpt>
      <trkpt lat="45.11485" lon="6.02014">
        <ele>716.5</ele>
        <time>2026-08-25T11:10:15Z</time>
      </trkpt>
      <trkpt lat="45.11489" lon="6.02001">
        <ele>716.4</ele>
        <time>2026-08-25T11:10:16Z</time>
      </trkpt>
      <trkpt lat="45.11493" lon="6.01989">
        <ele>716.4</ele>
        <time>2026-08-25T11:10:17Z</time>
      </trkpt>
      <trkpt lat="45.11497" lon="6.01977">
        <ele>716.4</ele>
        <time>2026-08-25T11:10:18Z</time>
      </trkpt>
      <trkpt lat="45.11501" lon="6.01965">
        <ele>716.4</ele>
        <time>2026-08-25T11:10:19Z</time>
      </trkpt>
      <trkpt lat="45.11505" lon="6.01953">
        <ele>716.4</ele>
        <time>2026-08-25T11:10:20Z</time>
      </trkpt>
      <trkpt lat="45.11509" lon="6.01941">
        <ele>716.3</ele>
        <time>2026-08-25T11:10:21Z</time>
      </trkpt>
      <trkpt lat="45.11512" lon="6.01929">
        <ele>716.3</ele>
        <time>2026-08-25T11:10:22Z</time>
      </trkpt>
      <trkpt lat="45.11516" lon="6.01917">
        <ele>716.3</ele>
        <time>2026-08-25T11:10:23Z</time>
      </trkpt>
      <trkpt lat="45.1152" lon="6.01906">
        <ele>716.3</ele>
        <time>2026-08-25T11:10:24Z</time>
      </trkpt>
      <trkpt lat="45.11523" lon="6.01894">
        <ele>716.3</ele>
        <time>2026-08-25T11:10:25Z</time>
      </trkpt>
      <trkpt lat="45.11526" lon="6.01882">
        <ele>716.4</ele>
        <time>2026-08-25T11:10:26Z</time>
      </trkpt>
      <trkpt lat="45.1153" lon="6.01871">
        <ele>716.4</ele>
        <time>2026-08-25T11:10:27Z</time>
      </trkpt>
      <trkpt lat="45.11533" lon="6.0186">
        <ele>716.4</ele>
        <time>2026-08-25T11:10:28Z</time>
      </trkpt>
      <trkpt lat="45.11536" lon="6.01849">
        <ele>716.5</ele>
        <time>2026-08-25T11:10:29Z</time>
      </trkpt>
      <trkpt lat="45.1154" lon="6.01838">
        <ele>716.5</ele>
        <time>2026-08-25T11:10:30Z</time>
      </trkpt>
      <trkpt lat="45.11543" lon="6.01827">
        <ele>716.5</ele>
        <time>2026-08-25T11:10:31Z</time>
      </trkpt>
      <trkpt lat="45.11546" lon="6.01816">
        <ele>716.5</ele>
        <time>2026-08-25T11:10:32Z</time>
      </trkpt>
      <trkpt lat="45.1155" lon="6.01805">
        <ele>716.5</ele>
        <time>2026-08-25T11:10:33Z</time>
      </trkpt>
      <trkpt lat="45.11553" lon="6.01795">
        <ele>716.5</ele>
        <time>2026-08-25T11:10:34Z</time>
      </trkpt>
      <trkpt lat="45.11556" lon="6.01784">
        <ele>716.6</ele>
        <time>2026-08-25T11:10:35Z</time>
      </trkpt>
      <trkpt lat="45.11559" lon="6.01774">
        <ele>716.6</ele>
        <time>2026-08-25T11:10:36Z</time>
      </trkpt>
      <trkpt lat="45.11562" lon="6.01763">
        <ele>716.6</ele>
        <time>2026-08-25T11:10:37Z</time>
      </trkpt>
      <trkpt lat="45.11566" lon="6.01752">
        <ele>716.5</ele>
        <time>2026-08-25T11:10:38Z</time>
      </trkpt>
      <trkpt lat="45.11569" lon="6.0174">
        <ele>716.5</ele>
        <time>2026-08-25T11:10:39Z</time>
      </trkpt>
      <trkpt lat="45.11572" lon="6.01729">
        <ele>716.4</ele>
        <time>2026-08-25T11:10:40Z</time>
      </trkpt>
      <trkpt lat="45.11575" lon="6.01718">
        <ele>716.4</ele>
        <time>2026-08-25T11:10:41Z</time>
      </trkpt>
      <trkpt lat="45.11578" lon="6.01707">
        <ele>716.4</ele>
        <time>2026-08-25T11:10:42Z</time>
      </trkpt>
      <trkpt lat="45.11581" lon="6.01697">
        <ele>716.4</ele>
        <time>2026-08-25T11:10:43Z</time>
      </trkpt>
      <trkpt lat="45.11584" lon="6.01686">
        <ele>716.4</ele>
        <time>2026-08-25T11:10:44Z</time>
      </trkpt>
      <trkpt lat="45.11588" lon="6.01676">
        <ele>716.4</ele>
        <time>2026-08-25T11:10:45Z</time>
      </trkpt>
      <trkpt lat="45.11592" lon="6.01666">
        <ele>716.4</ele>
        <time>2026-08-25T11:10:46Z</time>
      </trkpt>
      <trkpt lat="45.11596" lon="6.01657">
        <ele>716.3</ele>
        <time>2026-08-25T11:10:47Z</time>
      </trkpt>
      <trkpt lat="45.11601" lon="6.01648">
        <ele>716.3</ele>
        <time>2026-08-25T11:10:48Z</time>
      </trkpt>
      <trkpt lat="45.11606" lon="6.01639">
        <ele>716.3</ele>
        <time>2026-08-25T11:10:49Z</time>
      </trkpt>
      <trkpt lat="45.11612" lon="6.01631">
        <ele>716.2</ele>
        <time>2026-08-25T11:10:50Z</time>
      </trkpt>
      <trkpt lat="45.11618" lon="6.01624">
        <ele>716.2</ele>
        <time>2026-08-25T11:10:51Z</time>
      </trkpt>
      <trkpt lat="45.11624" lon="6.01617">
        <ele>716.2</ele>
        <time>2026-08-25T11:10:52Z</time>
      </trkpt>
      <trkpt lat="45.1163" lon="6.0161">
        <ele>716.2</ele>
        <time>2026-08-25T11:10:53Z</time>
      </trkpt>
      <trkpt lat="45.11636" lon="6.01602">
        <ele>716.2</ele>
        <time>2026-08-25T11:10:54Z</time>
      </trkpt>
      <trkpt lat="45.11642" lon="6.01595">
        <ele>716.3</ele>
        <time>2026-08-25T11:10:55Z</time>
      </trkpt>
      <trkpt lat="45.11648" lon="6.01587">
        <ele>716.3</ele>
        <time>2026-08-25T11:10:56Z</time>
      </trkpt>
      <trkpt lat="45.11654" lon="6.0158">
        <ele>716.3</ele>
        <time>2026-08-25T11:10:57Z</time>
      </trkpt>
      <trkpt lat="45.1166" lon="6.01573">
        <ele>716.3</ele>
        <time>2026-08-25T11:10:58Z</time>
      </trkpt>
      <trkpt lat="45.11666" lon="6.01566">
        <ele>716.4</ele>
        <time>2026-08-25T11:10:59Z</time>
      </trkpt>
      <trkpt lat="45.11672" lon="6.01559">
        <ele>716.4</ele>
        <time>2026-08-25T11:11:00Z</time>
      </trkpt>
      <trkpt lat="45.11678" lon="6.01553">
        <ele>716.5</ele>
        <time>2026-08-25T11:11:01Z</time>
      </trkpt>
      <trkpt lat="45.11683" lon="6.01546">
        <ele>716.5</ele>
        <time>2026-08-25T11:11:02Z</time>
      </trkpt>
      <trkpt lat="45.11689" lon="6.0154">
        <ele>716.7</ele>
        <time>2026-08-25T11:11:03Z</time>
      </trkpt>
      <trkpt lat="45.11694" lon="6.01534">
        <ele>716.8</ele>
        <time>2026-08-25T11:11:04Z</time>
      </trkpt>
      <trkpt lat="45.11699" lon="6.01529">
        <ele>716.9</ele>
        <time>2026-08-25T11:11:05Z</time>
      </trkpt>
      <trkpt lat="45.11705" lon="6.01524">
        <ele>716.9</ele>
        <time>2026-08-25T11:11:06Z</time>
      </trkpt>
      <trkpt lat="45.1171" lon="6.01519">
        <ele>717.1</ele>
        <time>2026-08-25T11:11:07Z</time>
      </trkpt>
      <trkpt lat="45.11714" lon="6.01517">
        <ele>717.3</ele>
        <time>2026-08-25T11:11:08Z</time>
      </trkpt>
      <trkpt lat="45.11717" lon="6.01514">
        <ele>717.5</ele>
        <time>2026-08-25T11:11:09Z</time>
      </trkpt>
      <trkpt lat="45.1172" lon="6.01511">
        <ele>717.6</ele>
        <time>2026-08-25T11:11:10Z</time>
      </trkpt>
      <trkpt lat="45.11722" lon="6.01507">
        <ele>717.8</ele>
        <time>2026-08-25T11:11:11Z</time>
      </trkpt>
      <trkpt lat="45.11723" lon="6.01504">
        <ele>717.9</ele>
        <time>2026-08-25T11:11:12Z</time>
      </trkpt>
      <trkpt lat="45.11724" lon="6.01501">
        <ele>718</ele>
        <time>2026-08-25T11:11:13Z</time>
      </trkpt>
      <trkpt lat="45.11723" lon="6.01498">
        <ele>718</ele>
        <time>2026-08-25T11:11:14Z</time>
      </trkpt>
      <trkpt lat="45.11721" lon="6.01494">
        <ele>718</ele>
        <time>2026-08-25T11:11:15Z</time>
      </trkpt>
      <trkpt lat="45.11719" lon="6.01491">
        <ele>717.9</ele>
        <time>2026-08-25T11:11:16Z</time>
      </trkpt>
      <trkpt lat="45.11716" lon="6.01487">
        <ele>717.9</ele>
        <time>2026-08-25T11:11:17Z</time>
      </trkpt>
      <trkpt lat="45.11713" lon="6.01483">
        <ele>717.8</ele>
        <time>2026-08-25T11:11:18Z</time>
      </trkpt>
      <trkpt lat="45.11709" lon="6.0148">
        <ele>717.8</ele>
        <time>2026-08-25T11:11:19Z</time>
      </trkpt>
      <trkpt lat="45.11705" lon="6.01476">
        <ele>717.7</ele>
        <time>2026-08-25T11:11:20Z</time>
      </trkpt>
      <trkpt lat="45.11701" lon="6.01471">
        <ele>717.7</ele>
        <time>2026-08-25T11:11:21Z</time>
      </trkpt>
      <trkpt lat="45.11697" lon="6.01466">
        <ele>717.6</ele>
        <time>2026-08-25T11:11:22Z</time>
      </trkpt>
      <trkpt lat="45.11694" lon="6.01462">
        <ele>717.6</ele>
        <time>2026-08-25T11:11:23Z</time>
      </trkpt>
      <trkpt lat="45.1169" lon="6.01458">
        <ele>717.6</ele>
        <time>2026-08-25T11:11:24Z</time>
      </trkpt>
      <trkpt lat="45.11687" lon="6.01454">
        <ele>717.6</ele>
        <time>2026-08-25T11:11:25Z</time>
      </trkpt>
      <trkpt lat="45.11684" lon="6.01449">
        <ele>717.7</ele>
        <time>2026-08-25T11:11:26Z</time>
      </trkpt>
      <trkpt lat="45.1168" lon="6.01443">
        <ele>717.7</ele>
        <time>2026-08-25T11:11:27Z</time>
      </trkpt>
      <trkpt lat="45.11675" lon="6.01438">
        <ele>717.8</ele>
        <time>2026-08-25T11:11:28Z</time>
      </trkpt>
      <trkpt lat="45.1167" lon="6.01433">
        <ele>717.9</ele>
        <time>2026-08-25T11:11:29Z</time>
      </trkpt>
      <trkpt lat="45.11665" lon="6.01427">
        <ele>718</ele>
        <time>2026-08-25T11:11:30Z</time>
      </trkpt>
      <trkpt lat="45.1166" lon="6.01421">
        <ele>718.1</ele>
        <time>2026-08-25T11:11:31Z</time>
      </trkpt>
      <trkpt lat="45.11655" lon="6.01416">
        <ele>718.2</ele>
        <time>2026-08-25T11:11:32Z</time>
      </trkpt>
      <trkpt lat="45.11649" lon="6.01409">
        <ele>718.3</ele>
        <time>2026-08-25T11:11:33Z</time>
      </trkpt>
      <trkpt lat="45.11643" lon="6.01403">
        <ele>718.5</ele>
        <time>2026-08-25T11:11:34Z</time>
      </trkpt>
      <trkpt lat="45.11637" lon="6.01397">
        <ele>718.7</ele>
        <time>2026-08-25T11:11:35Z</time>
      </trkpt>
      <trkpt lat="45.11631" lon="6.01391">
        <ele>718.8</ele>
        <time>2026-08-25T11:11:36Z</time>
      </trkpt>
      <trkpt lat="45.11625" lon="6.01385">
        <ele>719</ele>
        <time>2026-08-25T11:11:37Z</time>
      </trkpt>
      <trkpt lat="45.1162" lon="6.01379">
        <ele>719.1</ele>
        <time>2026-08-25T11:11:38Z</time>
      </trkpt>
      <trkpt lat="45.11615" lon="6.01374">
        <ele>719.2</ele>
        <time>2026-08-25T11:11:39Z</time>
      </trkpt>
      <trkpt lat="45.1161" lon="6.0137">
        <ele>719.3</ele>
        <time>2026-08-25T11:11:40Z</time>
      </trkpt>
      <trkpt lat="45.11605" lon="6.01365">
        <ele>719.3</ele>
        <time>2026-08-25T11:11:41Z</time>
      </trkpt>
      <trkpt lat="45.116" lon="6.0136">
        <ele>719.3</ele>
        <time>2026-08-25T11:11:42Z</time>
      </trkpt>
      <trkpt lat="45.11595" lon="6.01355">
        <ele>719.4</ele>
        <time>2026-08-25T11:11:43Z</time>
      </trkpt>
      <trkpt lat="45.11591" lon="6.01349">
        <ele>719.4</ele>
        <time>2026-08-25T11:11:44Z</time>
      </trkpt>
      <trkpt lat="45.11586" lon="6.01344">
        <ele>719.4</ele>
        <time>2026-08-25T11:11:45Z</time>
      </trkpt>
      <trkpt lat="45.11582" lon="6.01338">
        <ele>719.3</ele>
        <time>2026-08-25T11:11:46Z</time>
      </trkpt>
      <trkpt lat="45.11577" lon="6.01333">
        <ele>719.3</ele>
        <time>2026-08-25T11:11:47Z</time>
      </trkpt>
      <trkpt lat="45.11573" lon="6.01328">
        <ele>719.3</ele>
        <time>2026-08-25T11:11:48Z</time>
      </trkpt>
      <trkpt lat="45.11568" lon="6.01323">
        <ele>719.2</ele>
        <time>2026-08-25T11:11:49Z</time>
      </trkpt>
      <trkpt lat="45.11563" lon="6.01318">
        <ele>719.2</ele>
        <time>2026-08-25T11:11:50Z</time>
      </trkpt>
      <trkpt lat="45.11558" lon="6.01313">
        <ele>719.1</ele>
        <time>2026-08-25T11:11:51Z</time>
      </trkpt>
      <trkpt lat="45.11553" lon="6.01308">
        <ele>719</ele>
        <time>2026-08-25T11:11:52Z</time>
      </trkpt>
      <trkpt lat="45.11548" lon="6.01302">
        <ele>718.8</ele>
        <time>2026-08-25T11:11:53Z</time>
      </trkpt>
      <trkpt lat="45.11543" lon="6.01295">
        <ele>718.7</ele>
        <time>2026-08-25T11:11:54Z</time>
      </trkpt>
      <trkpt lat="45.11537" lon="6.01289">
        <ele>718.5</ele>
        <time>2026-08-25T11:11:55Z</time>
      </trkpt>
      <trkpt lat="45.11533" lon="6.01282">
        <ele>718.3</ele>
        <time>2026-08-25T11:11:56Z</time>
      </trkpt>
      <trkpt lat="45.11528" lon="6.01274">
        <ele>718.2</ele>
        <time>2026-08-25T11:11:57Z</time>
      </trkpt>
      <trkpt lat="45.11523" lon="6.01266">
        <ele>718</ele>
        <time>2026-08-25T11:11:58Z</time>
      </trkpt>
      <trkpt lat="45.11519" lon="6.01258">
        <ele>717.8</ele>
        <time>2026-08-25T11:11:59Z</time>
      </trkpt>
      <trkpt lat="45.11515" lon="6.01249">
        <ele>717.6</ele>
        <time>2026-08-25T11:12:00Z</time>
      </trkpt>
      <trkpt lat="45.11511" lon="6.01239">
        <ele>717.5</ele>
        <time>2026-08-25T11:12:01Z</time>
      </trkpt>
      <trkpt lat="45.11508" lon="6.01229">
        <ele>717.3</ele>
        <time>2026-08-25T11:12:02Z</time>
      </trkpt>
      <trkpt lat="45.11505" lon="6.01219">
        <ele>717.1</ele>
        <time>2026-08-25T11:12:03Z</time>
      </trkpt>
      <trkpt lat="45.11502" lon="6.01209">
        <ele>717</ele>
        <time>2026-08-25T11:12:04Z</time>
      </trkpt>
      <trkpt lat="45.115" lon="6.01199">
        <ele>716.9</ele>
        <time>2026-08-25T11:12:05Z</time>
      </trkpt>
      <trkpt lat="45.11499" lon="6.0119">
        <ele>716.7</ele>
        <time>2026-08-25T11:12:06Z</time>
      </trkpt>
      <trkpt lat="45.11498" lon="6.0118">
        <ele>716.6</ele>
        <time>2026-08-25T11:12:07Z</time>
      </trkpt>
      <trkpt lat="45.11497" lon="6.0117">
        <ele>716.5</ele>
        <time>2026-08-25T11:12:08Z</time>
      </trkpt>
      <trkpt lat="45.11496" lon="6.0116">
        <ele>716.4</ele>
        <time>2026-08-25T11:12:09Z</time>
      </trkpt>
      <trkpt lat="45.11495" lon="6.01151">
        <ele>716.3</ele>
        <time>2026-08-25T11:12:10Z</time>
      </trkpt>
      <trkpt lat="45.11494" lon="6.01141">
        <ele>716.2</ele>
        <time>2026-08-25T11:12:11Z</time>
      </trkpt>
      <trkpt lat="45.11492" lon="6.01131">
        <ele>716.2</ele>
        <time>2026-08-25T11:12:12Z</time>
      </trkpt>
      <trkpt lat="45.11491" lon="6.01121">
        <ele>716.2</ele>
        <time>2026-08-25T11:12:13Z</time>
      </trkpt>
      <trkpt lat="45.11491" lon="6.01112">
        <ele>716.2</ele>
        <time>2026-08-25T11:12:14Z</time>
      </trkpt>
      <trkpt lat="45.1149" lon="6.01103">
        <ele>716.2</ele>
        <time>2026-08-25T11:12:15Z</time>
      </trkpt>
      <trkpt lat="45.11489" lon="6.01095">
        <ele>716.2</ele>
        <time>2026-08-25T11:12:16Z</time>
      </trkpt>
      <trkpt lat="45.11489" lon="6.01088">
        <ele>716.2</ele>
        <time>2026-08-25T11:12:17Z</time>
      </trkpt>
      <trkpt lat="45.11488" lon="6.01082">
        <ele>716.2</ele>
        <time>2026-08-25T11:12:18Z</time>
      </trkpt>
      <trkpt lat="45.11488" lon="6.01075">
        <ele>716.2</ele>
        <time>2026-08-25T11:12:19Z</time>
      </trkpt>
      <trkpt lat="45.11487" lon="6.0107">
        <ele>716.2</ele>
        <time>2026-08-25T11:12:20Z</time>
      </trkpt>
      <trkpt lat="45.11487" lon="6.01066">
        <ele>716.2</ele>
        <time>2026-08-25T11:12:21Z</time>
      </trkpt>
      <trkpt lat="45.11486" lon="6.01062">
        <ele>716.2</ele>
        <time>2026-08-25T11:12:22Z</time>
      </trkpt>
      <trkpt lat="45.11486" lon="6.01058">
        <ele>716.2</ele>
        <time>2026-08-25T11:12:23Z</time>
      </trkpt>
      <trkpt lat="45.11485" lon="6.01055">
        <ele>716.2</ele>
        <time>2026-08-25T11:12:24Z</time>
      </trkpt>
      <trkpt lat="45.11485" lon="6.01052">
        <ele>716.2</ele>
        <time>2026-08-25T11:12:25Z</time>
      </trkpt>
      <trkpt lat="45.11485" lon="6.0105">
        <ele>716.2</ele>
        <time>2026-08-25T11:12:26Z</time>
      </trkpt>
      <trkpt lat="45.11485" lon="6.01049">
        <ele>716.2</ele>
        <time>2026-08-25T11:12:27Z</time>
      </trkpt>
      <trkpt lat="45.11485" lon="6.01049">
        <ele>716.2</ele>
        <time>2026-08-25T11:12:28Z</time>
      </trkpt>
      <trkpt lat="45.11485" lon="6.01044">
        <ele>716.2</ele>
        <time>2026-08-25T11:12:51Z</time>
      </trkpt>
      <trkpt lat="45.11484" lon="6.01042">
        <ele>716.2</ele>
        <time>2026-08-25T11:12:52Z</time>
      </trkpt>
      <trkpt lat="45.11484" lon="6.01041">
        <ele>716.2</ele>
        <time>2026-08-25T11:12:53Z</time>
      </trkpt>
      <trkpt lat="45.11483" lon="6.01037">
        <ele>716.2</ele>
        <time>2026-08-25T11:12:54Z</time>
      </trkpt>
      <trkpt lat="45.11483" lon="6.01033">
        <ele>716.2</ele>
        <time>2026-08-25T11:12:55Z</time>
      </trkpt>
      <trkpt lat="45.11482" lon="6.01027">
        <ele>716.2</ele>
        <time>2026-08-25T11:12:56Z</time>
      </trkpt>
      <trkpt lat="45.11482" lon="6.01021">
        <ele>716.2</ele>
        <time>2026-08-25T11:12:57Z</time>
      </trkpt>
      <trkpt lat="45.11482" lon="6.01013">
        <ele>716.2</ele>
        <time>2026-08-25T11:12:58Z</time>
      </trkpt>
      <trkpt lat="45.11481" lon="6.01005">
        <ele>716.2</ele>
        <time>2026-08-25T11:12:59Z</time>
      </trkpt>
      <trkpt lat="45.1148" lon="6.00997">
        <ele>716.2</ele>
        <time>2026-08-25T11:13:00Z</time>
      </trkpt>
      <trkpt lat="45.11479" lon="6.00989">
        <ele>716.2</ele>
        <time>2026-08-25T11:13:01Z</time>
      </trkpt>
      <trkpt lat="45.11478" lon="6.00981">
        <ele>716.2</ele>
        <time>2026-08-25T11:13:02Z</time>
      </trkpt>
      <trkpt lat="45.11477" lon="6.00973">
        <ele>716.3</ele>
        <time>2026-08-25T11:13:03Z</time>
      </trkpt>
      <trkpt lat="45.11476" lon="6.00965">
        <ele>716.3</ele>
        <time>2026-08-25T11:13:04Z</time>
      </trkpt>
      <trkpt lat="45.11474" lon="6.00956">
        <ele>716.3</ele>
        <time>2026-08-25T11:13:05Z</time>
      </trkpt>
      <trkpt lat="45.11474" lon="6.00948">
        <ele>716.3</ele>
        <time>2026-08-25T11:13:06Z</time>
      </trkpt>
      <trkpt lat="45.11473" lon="6.00939">
        <ele>716.3</ele>
        <time>2026-08-25T11:13:07Z</time>
      </trkpt>
      <trkpt lat="45.11472" lon="6.00931">
        <ele>716.3</ele>
        <time>2026-08-25T11:13:08Z</time>
      </trkpt>
      <trkpt lat="45.11471" lon="6.00923">
        <ele>716.3</ele>
        <time>2026-08-25T11:13:09Z</time>
      </trkpt>
      <trkpt lat="45.1147" lon="6.00915">
        <ele>716.3</ele>
        <time>2026-08-25T11:13:10Z</time>
      </trkpt>
      <trkpt lat="45.11469" lon="6.00906">
        <ele>716.3</ele>
        <time>2026-08-25T11:13:11Z</time>
      </trkpt>
      <trkpt lat="45.11469" lon="6.00897">
        <ele>716.4</ele>
        <time>2026-08-25T11:13:12Z</time>
      </trkpt>
      <trkpt lat="45.11468" lon="6.00889">
        <ele>716.4</ele>
        <time>2026-08-25T11:13:13Z</time>
      </trkpt>
      <trkpt lat="45.11467" lon="6.0088">
        <ele>716.4</ele>
        <time>2026-08-25T11:13:14Z</time>
      </trkpt>
      <trkpt lat="45.11466" lon="6.00871">
        <ele>716.4</ele>
        <time>2026-08-25T11:13:15Z</time>
      </trkpt>
      <trkpt lat="45.11465" lon="6.00862">
        <ele>716.5</ele>
        <time>2026-08-25T11:13:16Z</time>
      </trkpt>
      <trkpt lat="45.11464" lon="6.00854">
        <ele>716.5</ele>
        <time>2026-08-25T11:13:17Z</time>
      </trkpt>
      <trkpt lat="45.11464" lon="6.00846">
        <ele>716.5</ele>
        <time>2026-08-25T11:13:18Z</time>
      </trkpt>
      <trkpt lat="45.11463" lon="6.00837">
        <ele>716.6</ele>
        <time>2026-08-25T11:13:19Z</time>
      </trkpt>
      <trkpt lat="45.11462" lon="6.00828">
        <ele>716.6</ele>
        <time>2026-08-25T11:13:20Z</time>
      </trkpt>
      <trkpt lat="45.11461" lon="6.00819">
        <ele>716.6</ele>
        <time>2026-08-25T11:13:21Z</time>
      </trkpt>
      <trkpt lat="45.1146" lon="6.0081">
        <ele>716.6</ele>
        <time>2026-08-25T11:13:22Z</time>
      </trkpt>
      <trkpt lat="45.11459" lon="6.00801">
        <ele>716.6</ele>
        <time>2026-08-25T11:13:23Z</time>
      </trkpt>
      <trkpt lat="45.11458" lon="6.00791">
        <ele>716.6</ele>
        <time>2026-08-25T11:13:24Z</time>
      </trkpt>
      <trkpt lat="45.11457" lon="6.00782">
        <ele>716.6</ele>
        <time>2026-08-25T11:13:25Z</time>
      </trkpt>
      <trkpt lat="45.11456" lon="6.00773">
        <ele>716.6</ele>
        <time>2026-08-25T11:13:26Z</time>
      </trkpt>
      <trkpt lat="45.11455" lon="6.00764">
        <ele>716.5</ele>
        <time>2026-08-25T11:13:27Z</time>
      </trkpt>
      <trkpt lat="45.11454" lon="6.00755">
        <ele>716.5</ele>
        <time>2026-08-25T11:13:28Z</time>
      </trkpt>
      <trkpt lat="45.11453" lon="6.00746">
        <ele>716.5</ele>
        <time>2026-08-25T11:13:29Z</time>
      </trkpt>
      <trkpt lat="45.11453" lon="6.00737">
        <ele>716.5</ele>
        <time>2026-08-25T11:13:30Z</time>
      </trkpt>
      <trkpt lat="45.11452" lon="6.00728">
        <ele>716.5</ele>
        <time>2026-08-25T11:13:31Z</time>
      </trkpt>
      <trkpt lat="45.11451" lon="6.00719">
        <ele>716.6</ele>
        <time>2026-08-25T11:13:32Z</time>
      </trkpt>
      <trkpt lat="45.1145" lon="6.0071">
        <ele>716.6</ele>
        <time>2026-08-25T11:13:33Z</time>
      </trkpt>
      <trkpt lat="45.11448" lon="6.00701">
        <ele>716.6</ele>
        <time>2026-08-25T11:13:34Z</time>
      </trkpt>
      <trkpt lat="45.11447" lon="6.00692">
        <ele>716.6</ele>
        <time>2026-08-25T11:13:35Z</time>
      </trkpt>
      <trkpt lat="45.11447" lon="6.00683">
        <ele>716.6</ele>
        <time>2026-08-25T11:13:36Z</time>
      </trkpt>
      <trkpt lat="45.11446" lon="6.00674">
        <ele>716.7</ele>
        <time>2026-08-25T11:13:37Z</time>
      </trkpt>
      <trkpt lat="45.11445" lon="6.00665">
        <ele>716.7</ele>
        <time>2026-08-25T11:13:38Z</time>
      </trkpt>
      <trkpt lat="45.11444" lon="6.00656">
        <ele>716.7</ele>
        <time>2026-08-25T11:13:39Z</time>
      </trkpt>
      <trkpt lat="45.11444" lon="6.00648">
        <ele>716.7</ele>
        <time>2026-08-25T11:13:40Z</time>
      </trkpt>
      <trkpt lat="45.11443" lon="6.00639">
        <ele>716.7</ele>
        <time>2026-08-25T11:13:41Z</time>
      </trkpt>
      <trkpt lat="45.11442" lon="6.00632">
        <ele>716.7</ele>
        <time>2026-08-25T11:13:42Z</time>
      </trkpt>
      <trkpt lat="45.11441" lon="6.00624">
        <ele>716.8</ele>
        <time>2026-08-25T11:13:43Z</time>
      </trkpt>
      <trkpt lat="45.1144" lon="6.00617">
        <ele>716.8</ele>
        <time>2026-08-25T11:13:44Z</time>
      </trkpt>
      <trkpt lat="45.11439" lon="6.00609">
        <ele>716.9</ele>
        <time>2026-08-25T11:13:45Z</time>
      </trkpt>
      <trkpt lat="45.11438" lon="6.00602">
        <ele>717</ele>
        <time>2026-08-25T11:13:46Z</time>
      </trkpt>
      <trkpt lat="45.11437" lon="6.00595">
        <ele>717.1</ele>
        <time>2026-08-25T11:13:47Z</time>
      </trkpt>
      <trkpt lat="45.11436" lon="6.00588">
        <ele>717.2</ele>
        <time>2026-08-25T11:13:48Z</time>
      </trkpt>
      <trkpt lat="45.11434" lon="6.00582">
        <ele>717.3</ele>
        <time>2026-08-25T11:13:49Z</time>
      </trkpt>
      <trkpt lat="45.11433" lon="6.00575">
        <ele>717.4</ele>
        <time>2026-08-25T11:13:50Z</time>
      </trkpt>
      <trkpt lat="45.11432" lon="6.00569">
        <ele>717.5</ele>
        <time>2026-08-25T11:13:51Z</time>
      </trkpt>
      <trkpt lat="45.11433" lon="6.00563">
        <ele>717.6</ele>
        <time>2026-08-25T11:13:52Z</time>
      </trkpt>
      <trkpt lat="45.11435" lon="6.00556">
        <ele>717.7</ele>
        <time>2026-08-25T11:13:53Z</time>
      </trkpt>
      <trkpt lat="45.11437" lon="6.00551">
        <ele>717.7</ele>
        <time>2026-08-25T11:13:54Z</time>
      </trkpt>
      <trkpt lat="45.1144" lon="6.00546">
        <ele>717.8</ele>
        <time>2026-08-25T11:13:55Z</time>
      </trkpt>
      <trkpt lat="45.11444" lon="6.0054">
        <ele>717.8</ele>
        <time>2026-08-25T11:13:56Z</time>
      </trkpt>
      <trkpt lat="45.11446" lon="6.00535">
        <ele>717.8</ele>
        <time>2026-08-25T11:13:57Z</time>
      </trkpt>
      <trkpt lat="45.11449" lon="6.00529">
        <ele>717.8</ele>
        <time>2026-08-25T11:13:58Z</time>
      </trkpt>
      <trkpt lat="45.11451" lon="6.00523">
        <ele>717.9</ele>
        <time>2026-08-25T11:13:59Z</time>
      </trkpt>
      <trkpt lat="45.11451" lon="6.00516">
        <ele>717.9</ele>
        <time>2026-08-25T11:14:00Z</time>
      </trkpt>
      <trkpt lat="45.1145" lon="6.00509">
        <ele>717.9</ele>
        <time>2026-08-25T11:14:01Z</time>
      </trkpt>
      <trkpt lat="45.1145" lon="6.00502">
        <ele>717.9</ele>
        <time>2026-08-25T11:14:02Z</time>
      </trkpt>
      <trkpt lat="45.1145" lon="6.00495">
        <ele>717.9</ele>
        <time>2026-08-25T11:14:03Z</time>
      </trkpt>
      <trkpt lat="45.11449" lon="6.00489">
        <ele>717.9</ele>
        <time>2026-08-25T11:14:04Z</time>
      </trkpt>
      <trkpt lat="45.11449" lon="6.00484">
        <ele>717.9</ele>
        <time>2026-08-25T11:14:05Z</time>
      </trkpt>
      <trkpt lat="45.11448" lon="6.0048">
        <ele>717.9</ele>
        <time>2026-08-25T11:14:06Z</time>
      </trkpt>
      <trkpt lat="45.11447" lon="6.00476">
        <ele>717.9</ele>
        <time>2026-08-25T11:14:07Z</time>
      </trkpt>
      <trkpt lat="45.11447" lon="6.00473">
        <ele>717.9</ele>
        <time>2026-08-25T11:14:08Z</time>
      </trkpt>
      <trkpt lat="45.11448" lon="6.00471">
        <ele>717.9</ele>
        <time>2026-08-25T11:14:09Z</time>
      </trkpt>
      <trkpt lat="45.11448" lon="6.00469">
        <ele>717.9</ele>
        <time>2026-08-25T11:14:10Z</time>
      </trkpt>
      <trkpt lat="45.11448" lon="6.00469">
        <ele>717.9</ele>
        <time>2026-08-25T11:14:11Z</time>
      </trkpt>
      <trkpt lat="45.11448" lon="6.00469">
        <ele>717.9</ele>
        <time>2026-08-25T11:14:12Z</time>
      </trkpt>
    </trkseg>
  </trk>
</gpx>